<?xml version='1.0' encoding='UTF-8'?><gpx version="1.1" creator="JPX - https://github.com/jenetics/jpx" xmlns="http://www.topografix.com/GPX/1/1"><trk><trkseg><trkpt lat="50.980130083333336" lon="16.99734661666667"><ele>132.0</ele><time>2026-05-03T12:22:20.75Z</time></trkpt><trkpt lat="50.980060599999995" lon="16.997342"><ele>132.0</ele><time>2026-05-03T12:22:23.683Z</time></trkpt><trkpt lat="50.9799902" lon="16.99733605"><ele>132.0</ele><time>2026-05-03T12:22:26.335Z</time></trkpt><trkpt lat="50.97992415000001" lon="16.9973493"><ele>132.0</ele><time>2026-05-03T12:22:29.306Z</time></trkpt><trkpt lat="50.97985138333333" lon="16.997357683333334"><ele>132.0</ele><time>2026-05-03T12:22:32.317Z</time></trkpt><trkpt lat="50.97977553333334" lon="16.9973509"><ele>132.0</ele><time>2026-05-03T12:22:35.336Z</time></trkpt><trkpt lat="50.97970981666667" lon="16.997338316666667"><ele>132.0</ele><time>2026-05-03T12:22:38.331Z</time></trkpt><trkpt lat="50.979624583333326" lon="16.99732155"><ele>132.0</ele><time>2026-05-03T12:23:08.361Z</time></trkpt><trkpt lat="50.97960546666666" lon="16.9974555"><ele>132.0</ele><time>2026-05-03T12:23:13.501Z</time></trkpt><trkpt lat="50.97961385" lon="16.997560266666667"><ele>132.0</ele><time>2026-05-03T12:23:15.41Z</time></trkpt><trkpt lat="50.97966421666667" lon="16.99777125"><ele>132.0</ele><time>2026-05-03T12:23:18.39Z</time></trkpt><trkpt lat="50.97970101666667" lon="16.99794005"><ele>132.0</ele><time>2026-05-03T12:23:20.529Z</time></trkpt><trkpt lat="50.979731783333335" lon="16.998110966666665"><ele>131.33333333333334</ele><time>2026-05-03T12:23:22.608Z</time></trkpt><trkpt lat="50.97985575" lon="16.998594766666667"><ele>130.66666666666669</ele><time>2026-05-03T12:23:27.741Z</time></trkpt><trkpt lat="50.97988098333334" lon="16.99869895"><ele>130.0</ele><time>2026-05-03T12:23:28.861Z</time></trkpt><trkpt lat="50.979904950000005" lon="16.998804316666668"><ele>130.0</ele><time>2026-05-03T12:23:29.816Z</time></trkpt><trkpt lat="50.979930849999995" lon="16.99891201666667"><ele>130.0</ele><time>2026-05-03T12:23:30.777Z</time></trkpt><trkpt lat="50.97995699999999" lon="16.999020233333333"><ele>130.0</ele><time>2026-05-03T12:23:31.781Z</time></trkpt><trkpt lat="50.9799845" lon="16.999129116666666"><ele>130.0</ele><time>2026-05-03T12:23:32.814Z</time></trkpt><trkpt lat="50.98003436666666" lon="16.999351733333334"><ele>130.0</ele><time>2026-05-03T12:23:34.714Z</time></trkpt><trkpt lat="50.98006228333333" lon="16.999462549999997"><ele>130.0</ele><time>2026-05-03T12:23:35.82Z</time></trkpt><trkpt lat="50.98009236666667" lon="16.999574016666667"><ele>130.0</ele><time>2026-05-03T12:23:36.791Z</time></trkpt><trkpt lat="50.98012271666666" lon="16.999686599999997"><ele>130.0</ele><time>2026-05-03T12:23:37.73Z</time></trkpt><trkpt lat="50.98018063333334" lon="16.999913666666664"><ele>130.0</ele><time>2026-05-03T12:23:39.718Z</time></trkpt><trkpt lat="50.98020846666666" lon="17.000026899999998"><ele>130.0</ele><time>2026-05-03T12:23:40.808Z</time></trkpt><trkpt lat="50.98023536666667" lon="17.000140716666664"><ele>130.0</ele><time>2026-05-03T12:23:41.732Z</time></trkpt><trkpt lat="50.980263283333336" lon="17.000255466666665"><ele>130.0</ele><time>2026-05-03T12:23:42.764Z</time></trkpt><trkpt lat="50.98029035" lon="17.00037306666667"><ele>130.0</ele><time>2026-05-03T12:23:43.737Z</time></trkpt><trkpt lat="50.980319849999994" lon="17.000490833333334"><ele>130.0</ele><time>2026-05-03T12:23:44.781Z</time></trkpt><trkpt lat="50.98034944999999" lon="17.000609016666665"><ele>130.0</ele><time>2026-05-03T12:23:45.938Z</time></trkpt><trkpt lat="50.98037978333334" lon="17.000730733333334"><ele>130.0</ele><time>2026-05-03T12:23:46.828Z</time></trkpt><trkpt lat="50.980411133333334" lon="17.00085335"><ele>130.0</ele><time>2026-05-03T12:23:47.832Z</time></trkpt><trkpt lat="50.98044173333333" lon="17.000976816666665"><ele>130.16666666666669</ele><time>2026-05-03T12:23:48.778Z</time></trkpt><trkpt lat="50.98047131666667" lon="17.001100283333333"><ele>130.33333333333334</ele><time>2026-05-03T12:23:49.761Z</time></trkpt><trkpt lat="50.980501316666675" lon="17.00122275"><ele>130.5</ele><time>2026-05-03T12:23:50.774Z</time></trkpt><trkpt lat="50.980532999999994" lon="17.001346799999997"><ele>130.66666666666666</ele><time>2026-05-03T12:23:51.774Z</time></trkpt><trkpt lat="50.98056318333334" lon="17.001472699999997"><ele>130.83333333333331</ele><time>2026-05-03T12:23:52.778Z</time></trkpt><trkpt lat="50.98058908333334" lon="17.001600683333333"><ele>131.0</ele><time>2026-05-03T12:23:53.792Z</time></trkpt><trkpt lat="50.98061313333333" lon="17.001731366666668"><ele>131.2</ele><time>2026-05-03T12:23:54.773Z</time></trkpt><trkpt lat="50.98063435" lon="17.001864883333333"><ele>131.39999999999998</ele><time>2026-05-03T12:23:55.837Z</time></trkpt><trkpt lat="50.9806517" lon="17.0020005"><ele>131.6</ele><time>2026-05-03T12:23:56.833Z</time></trkpt><trkpt lat="50.9806677" lon="17.002134116666664"><ele>131.79999999999998</ele><time>2026-05-03T12:23:57.852Z</time></trkpt><trkpt lat="50.98069636666667" lon="17.002402500000002"><ele>132.0</ele><time>2026-05-03T12:23:59.797Z</time></trkpt><trkpt lat="50.98070701666667" lon="17.002533850000003"><ele>132.0</ele><time>2026-05-03T12:24:00.891Z</time></trkpt><trkpt lat="50.98071816666667" lon="17.00266291666667"><ele>132.0</ele><time>2026-05-03T12:24:01.842Z</time></trkpt><trkpt lat="50.980730977288744" lon="17.002926704905928"><ele>132.0</ele><time>2026-05-03T12:24:03.795Z</time></trkpt><trkpt lat="50.980797865027206" lon="17.003183177486928"><ele>132.0</ele><time>2026-05-03T12:24:05.828Z</time></trkpt><trkpt lat="50.98093081666666" lon="17.003346216666667"><ele>131.75</ele><time>2026-05-03T12:24:07.808Z</time></trkpt><trkpt lat="50.98100264999999" lon="17.003411266666667"><ele>131.5</ele><time>2026-05-03T12:24:08.835Z</time></trkpt><trkpt lat="50.981162566666676" lon="17.003510666666667"><ele>131.25</ele><time>2026-05-03T12:24:10.891Z</time></trkpt><trkpt lat="50.98132484999999" lon="17.003596333333334"><ele>131.0</ele><time>2026-05-03T12:24:12.842Z</time></trkpt><trkpt lat="50.98156314999999" lon="17.003725"><ele>131.0</ele><time>2026-05-03T12:24:15.95Z</time></trkpt><trkpt lat="50.98164276666666" lon="17.00375978333333"><ele>131.0</ele><time>2026-05-03T12:24:16.912Z</time></trkpt><trkpt lat="50.98172198333334" lon="17.003788533333335"><ele>131.0</ele><time>2026-05-03T12:24:18.07Z</time></trkpt><trkpt lat="50.98180211666666" lon="17.003812166666666"><ele>131.0</ele><time>2026-05-03T12:24:18.937Z</time></trkpt><trkpt lat="50.98188366666667" lon="17.003829183333334"><ele>131.0</ele><time>2026-05-03T12:24:19.916Z</time></trkpt><trkpt lat="50.981965300000006" lon="17.003845950000002"><ele>131.0</ele><time>2026-05-03T12:24:20.962Z</time></trkpt><trkpt lat="50.98204661666667" lon="17.003857016666664"><ele>131.25</ele><time>2026-05-03T12:24:21.967Z</time></trkpt><trkpt lat="50.9822098" lon="17.003860033333336"><ele>131.5</ele><time>2026-05-03T12:24:23.968Z</time></trkpt><trkpt lat="50.98237108333333" lon="17.003839483333334"><ele>131.75</ele><time>2026-05-03T12:24:26.053Z</time></trkpt><trkpt lat="50.98245011666666" lon="17.003822133333333"><ele>132.0</ele><time>2026-05-03T12:24:27.023Z</time></trkpt><trkpt lat="50.98274714155546" lon="17.00346581317105"><ele>132.66666666666666</ele><time>2026-05-03T12:24:35.655Z</time></trkpt><trkpt lat="50.982984275509" lon="17.00342332921201"><ele>133.33333333333331</ele><time>2026-05-03T12:24:36.655Z</time></trkpt><trkpt lat="50.983113414508566" lon="17.003392800799197"><ele>134.0</ele><time>2026-05-03T12:24:37.655Z</time></trkpt><trkpt lat="50.98330508691724" lon="17.003375832030947"><ele>134.0</ele><time>2026-05-03T12:24:38.655Z</time></trkpt><trkpt lat="50.98343713675195" lon="17.003338531758544"><ele>134.0</ele><time>2026-05-03T12:24:39.655Z</time></trkpt><trkpt lat="50.983514049333294" lon="17.00331200829052"><ele>134.0</ele><time>2026-05-03T12:24:40.655Z</time></trkpt><trkpt lat="50.983594078476315" lon="17.003267083107186"><ele>134.0</ele><time>2026-05-03T12:24:41.655Z</time></trkpt><trkpt lat="50.98366424920461" lon="17.003218165592983"><ele>134.0</ele><time>2026-05-03T12:24:42.655Z</time></trkpt><trkpt lat="50.98374154962654" lon="17.00317645607884"><ele>133.8</ele><time>2026-05-03T12:24:43.655Z</time></trkpt><trkpt lat="50.98381156993092" lon="17.003146617758816"><ele>133.60000000000002</ele><time>2026-05-03T12:24:44.655Z</time></trkpt><trkpt lat="50.983947377322025" lon="17.003129615308154"><ele>133.4</ele><time>2026-05-03T12:24:45.655Z</time></trkpt><trkpt lat="50.98405298951986" lon="17.003130729832257"><ele>133.20000000000002</ele><time>2026-05-03T12:24:46.655Z</time></trkpt><trkpt lat="50.98413619042332" lon="17.003122344275532"><ele>133.0</ele><time>2026-05-03T12:24:47.655Z</time></trkpt><trkpt lat="50.98424383450827" lon="17.003147379817587"><ele>133.0</ele><time>2026-05-03T12:24:48.655Z</time></trkpt><trkpt lat="50.984344114554325" lon="17.003143323487024"><ele>133.0</ele><time>2026-05-03T12:24:49.655Z</time></trkpt><trkpt lat="50.984428577841975" lon="17.003117716236616"><ele>133.0</ele><time>2026-05-03T12:24:50.655Z</time></trkpt><trkpt lat="50.98457463940911" lon="17.003123877312404"><ele>133.0</ele><time>2026-05-03T12:24:51.984Z</time></trkpt><trkpt lat="50.98465187945145" lon="17.003107394169557"><ele>133.0</ele><time>2026-05-03T12:24:52.984Z</time></trkpt><trkpt lat="50.98473436200163" lon="17.00310499941846"><ele>133.0</ele><time>2026-05-03T12:24:53.984Z</time></trkpt><trkpt lat="50.984817288726205" lon="17.00310109804134"><ele>133.0</ele><time>2026-05-03T12:24:54.984Z</time></trkpt><trkpt lat="50.9848941654303" lon="17.003098285339906"><ele>133.0</ele><time>2026-05-03T12:24:55.984Z</time></trkpt><trkpt lat="50.98496994327042" lon="17.00310026377651"><ele>133.0</ele><time>2026-05-03T12:24:56.984Z</time></trkpt><trkpt lat="50.98505361903587" lon="17.00310968533685"><ele>133.0</ele><time>2026-05-03T12:24:57.984Z</time></trkpt><trkpt lat="50.98513187124771" lon="17.003124428359563"><ele>133.0</ele><time>2026-05-03T12:24:58.984Z</time></trkpt><trkpt lat="50.98521145142608" lon="17.00314045107531"><ele>132.83333333333334</ele><time>2026-05-03T12:24:59.984Z</time></trkpt><trkpt lat="50.98529447087443" lon="17.003164220407804"><ele>132.66666666666669</ele><time>2026-05-03T12:25:00.984Z</time></trkpt><trkpt lat="50.98537630491399" lon="17.003181310133037"><ele>132.5</ele><time>2026-05-03T12:25:01.984Z</time></trkpt><trkpt lat="50.98546310834417" lon="17.003213113431254"><ele>132.33333333333334</ele><time>2026-05-03T12:25:02.984Z</time></trkpt><trkpt lat="50.98553938939654" lon="17.003226456422095"><ele>132.16666666666666</ele><time>2026-05-03T12:25:03.984Z</time></trkpt><trkpt lat="50.98561790320689" lon="17.003239954702806"><ele>132.0</ele><time>2026-05-03T12:25:04.984Z</time></trkpt><trkpt lat="50.985697428290635" lon="17.003249637543725"><ele>132.0</ele><time>2026-05-03T12:25:05.984Z</time></trkpt><trkpt lat="50.985772638558984" lon="17.00325629792236"><ele>132.0</ele><time>2026-05-03T12:25:06.984Z</time></trkpt><trkpt lat="50.98585010227148" lon="17.00326329047821"><ele>132.0</ele><time>2026-05-03T12:25:07.984Z</time></trkpt><trkpt lat="50.985928070631395" lon="17.003268403713413"><ele>132.0</ele><time>2026-05-03T12:25:08.984Z</time></trkpt><trkpt lat="50.98600763780766" lon="17.003279663512753"><ele>132.0</ele><time>2026-05-03T12:25:09.984Z</time></trkpt><trkpt lat="50.98608617327328" lon="17.003294412671462"><ele>132.0</ele><time>2026-05-03T12:25:10.984Z</time></trkpt><trkpt lat="50.986165857786794" lon="17.003305666723282"><ele>132.0</ele><time>2026-05-03T12:25:11.984Z</time></trkpt><trkpt lat="50.98624389357254" lon="17.003310139084082"><ele>132.0</ele><time>2026-05-03T12:25:12.983Z</time></trkpt><trkpt lat="50.98632352954167" lon="17.003308022844276"><ele>132.0</ele><time>2026-05-03T12:25:13.983Z</time></trkpt><trkpt lat="50.98640403928704" lon="17.003311725254207"><ele>132.0</ele><time>2026-05-03T12:25:14.983Z</time></trkpt><trkpt lat="50.986485947874534" lon="17.00331251165869"><ele>132.0</ele><time>2026-05-03T12:25:15.983Z</time></trkpt><trkpt lat="50.986569414146246" lon="17.00331363939134"><ele>132.0</ele><time>2026-05-03T12:25:16.983Z</time></trkpt><trkpt lat="50.986654203010126" lon="17.00331834733709"><ele>132.0</ele><time>2026-05-03T12:25:17.983Z</time></trkpt><trkpt lat="50.9867362196708" lon="17.00333217753391"><ele>132.0</ele><time>2026-05-03T12:25:18.983Z</time></trkpt><trkpt lat="50.98681854822817" lon="17.003348000171343"><ele>132.0</ele><time>2026-05-03T12:25:19.983Z</time></trkpt><trkpt lat="50.986904031090226" lon="17.003356604834575"><ele>132.0</ele><time>2026-05-03T12:25:20.983Z</time></trkpt><trkpt lat="50.98698979188666" lon="17.003364310418622"><ele>132.0</ele><time>2026-05-03T12:25:21.983Z</time></trkpt><trkpt lat="50.987075608844535" lon="17.00337419603592"><ele>132.0</ele><time>2026-05-03T12:25:22.983Z</time></trkpt><trkpt lat="50.98716394409323" lon="17.00338059059215"><ele>132.0</ele><time>2026-05-03T12:25:23.983Z</time></trkpt><trkpt lat="50.987250511582715" lon="17.00338318606346"><ele>132.0</ele><time>2026-05-03T12:25:24.983Z</time></trkpt><trkpt lat="50.98734054722979" lon="17.003389678101843"><ele>132.0</ele><time>2026-05-03T12:25:25.983Z</time></trkpt><trkpt lat="50.98742846270066" lon="17.003396506045064"><ele>132.0</ele><time>2026-05-03T12:25:26.983Z</time></trkpt><trkpt lat="50.98751974792434" lon="17.003398916431358"><ele>132.0</ele><time>2026-05-03T12:25:27.983Z</time></trkpt><trkpt lat="50.98760666005943" lon="17.003404622192747"><ele>132.0</ele><time>2026-05-03T12:25:28.983Z</time></trkpt><trkpt lat="50.987693495452035" lon="17.003409661670325"><ele>131.83333333333334</ele><time>2026-05-03T12:25:29.983Z</time></trkpt><trkpt lat="50.98778339767756" lon="17.003415815398643"><ele>131.66666666666666</ele><time>2026-05-03T12:25:30.983Z</time></trkpt><trkpt lat="50.98786840946816" lon="17.00342249838163"><ele>131.5</ele><time>2026-05-03T12:25:31.983Z</time></trkpt><trkpt lat="50.98795622943265" lon="17.003432137242303"><ele>131.33333333333331</ele><time>2026-05-03T12:25:32.983Z</time></trkpt><trkpt lat="50.98804438017578" lon="17.003440645948736"><ele>131.16666666666666</ele><time>2026-05-03T12:25:33.983Z</time></trkpt><trkpt lat="50.9881334435773" lon="17.003446042913634"><ele>131.0</ele><time>2026-05-03T12:25:34.983Z</time></trkpt><trkpt lat="50.988221199247185" lon="17.00345635572709"><ele>131.0</ele><time>2026-05-03T12:25:35.983Z</time></trkpt><trkpt lat="50.988306112110486" lon="17.003468359068965"><ele>131.0</ele><time>2026-05-03T12:25:36.983Z</time></trkpt><trkpt lat="50.988370356241745" lon="17.00351264107635"><ele>131.0</ele><time>2026-05-03T12:25:37.983Z</time></trkpt><trkpt lat="50.98843527696131" lon="17.003589626116735"><ele>131.0</ele><time>2026-05-03T12:25:39.983Z</time></trkpt><trkpt lat="50.988355596634804" lon="17.003818987281466"><ele>131.0</ele><time>2026-05-03T12:25:40.983Z</time></trkpt><trkpt lat="50.988333204961414" lon="17.003933248435505"><ele>131.0</ele><time>2026-05-03T12:25:41.983Z</time></trkpt><trkpt lat="50.98831107240758" lon="17.004046153012567"><ele>131.0</ele><time>2026-05-03T12:25:42.983Z</time></trkpt><trkpt lat="50.98830335810819" lon="17.004166357439132"><ele>131.0</ele><time>2026-05-03T12:25:43.983Z</time></trkpt><trkpt lat="50.988279706478494" lon="17.004281042769815"><ele>131.0</ele><time>2026-05-03T12:25:44.983Z</time></trkpt><trkpt lat="50.98825826161715" lon="17.004397202579288"><ele>131.0</ele><time>2026-05-03T12:25:45.983Z</time></trkpt><trkpt lat="50.988232243440386" lon="17.004518803220662"><ele>131.0</ele><time>2026-05-03T12:25:46.983Z</time></trkpt><trkpt lat="50.98820559870576" lon="17.004637854962265"><ele>131.0</ele><time>2026-05-03T12:25:47.983Z</time></trkpt><trkpt lat="50.98817890123918" lon="17.00476110828371"><ele>131.0</ele><time>2026-05-03T12:25:48.983Z</time></trkpt><trkpt lat="50.98815216508802" lon="17.00488711510211"><ele>131.0</ele><time>2026-05-03T12:25:49.983Z</time></trkpt><trkpt lat="50.98812505778931" lon="17.005011591552464"><ele>131.0</ele><time>2026-05-03T12:25:50.983Z</time></trkpt><trkpt lat="50.98809824912626" lon="17.0051384267292"><ele>131.0</ele><time>2026-05-03T12:25:51.983Z</time></trkpt><trkpt lat="50.98807232674731" lon="17.005268309658646"><ele>131.0</ele><time>2026-05-03T12:25:52.983Z</time></trkpt><trkpt lat="50.98804658710841" lon="17.00539721778433"><ele>130.83333333333331</ele><time>2026-05-03T12:25:53.983Z</time></trkpt><trkpt lat="50.98802144724786" lon="17.005527385292012"><ele>130.66666666666666</ele><time>2026-05-03T12:25:54.983Z</time></trkpt><trkpt lat="50.987999912505515" lon="17.00565323276815"><ele>130.5</ele><time>2026-05-03T12:25:55.983Z</time></trkpt><trkpt lat="50.98797596918129" lon="17.005779739884364"><ele>130.33333333333334</ele><time>2026-05-03T12:25:56.983Z</time></trkpt><trkpt lat="50.98795246423185" lon="17.005907079715154"><ele>130.16666666666669</ele><time>2026-05-03T12:25:57.983Z</time></trkpt><trkpt lat="50.9879367875203" lon="17.006035997878268"><ele>130.0</ele><time>2026-05-03T12:25:58.983Z</time></trkpt><trkpt lat="50.98791641467078" lon="17.00616252319029"><ele>130.0</ele><time>2026-05-03T12:25:59.983Z</time></trkpt><trkpt lat="50.98790209651016" lon="17.006291323714052"><ele>130.0</ele><time>2026-05-03T12:26:00.983Z</time></trkpt><trkpt lat="50.987892410778414" lon="17.00641943070743"><ele>130.0</ele><time>2026-05-03T12:26:01.983Z</time></trkpt><trkpt lat="50.98788328065112" lon="17.006551678156033"><ele>130.0</ele><time>2026-05-03T12:26:02.983Z</time></trkpt><trkpt lat="50.9878767580071" lon="17.006686032719443"><ele>130.0</ele><time>2026-05-03T12:26:03.983Z</time></trkpt><trkpt lat="50.98787327017282" lon="17.006822036298136"><ele>130.0</ele><time>2026-05-03T12:26:04.983Z</time></trkpt><trkpt lat="50.987864001433195" lon="17.006960311953442"><ele>130.0</ele><time>2026-05-03T12:26:05.983Z</time></trkpt><trkpt lat="50.98785578924211" lon="17.00709927223874"><ele>130.0</ele><time>2026-05-03T12:26:06.983Z</time></trkpt><trkpt lat="50.987848273749655" lon="17.00723625401042"><ele>130.0</ele><time>2026-05-03T12:26:07.983Z</time></trkpt><trkpt lat="50.98783786816879" lon="17.007373488416263"><ele>130.0</ele><time>2026-05-03T12:26:08.983Z</time></trkpt><trkpt lat="50.987835075406245" lon="17.007511084735683"><ele>130.0</ele><time>2026-05-03T12:26:09.983Z</time></trkpt><trkpt lat="50.98783334402789" lon="17.00764477996567"><ele>130.0</ele><time>2026-05-03T12:26:10.983Z</time></trkpt><trkpt lat="50.98782520474327" lon="17.0077809247778"><ele>129.83333333333334</ele><time>2026-05-03T12:26:11.983Z</time></trkpt><trkpt lat="50.98781323615295" lon="17.007916331683216"><ele>129.66666666666669</ele><time>2026-05-03T12:26:12.983Z</time></trkpt><trkpt lat="50.987808043513105" lon="17.00804911632002"><ele>129.5</ele><time>2026-05-03T12:26:13.983Z</time></trkpt><trkpt lat="50.98779808215882" lon="17.008185446245392"><ele>129.33333333333334</ele><time>2026-05-03T12:26:14.983Z</time></trkpt><trkpt lat="50.987793753982096" lon="17.008321054882163"><ele>129.16666666666666</ele><time>2026-05-03T12:26:15.983Z</time></trkpt><trkpt lat="50.98779103387509" lon="17.00844304200228"><ele>129.0</ele><time>2026-05-03T12:26:16.983Z</time></trkpt><trkpt lat="50.987797656409185" lon="17.008568933073363"><ele>129.0</ele><time>2026-05-03T12:26:17.983Z</time></trkpt><trkpt lat="50.98782261965665" lon="17.008689250252505"><ele>129.0</ele><time>2026-05-03T12:26:18.983Z</time></trkpt><trkpt lat="50.987869343715595" lon="17.0087811052715"><ele>129.0</ele><time>2026-05-03T12:26:19.983Z</time></trkpt><trkpt lat="50.98794322163684" lon="17.008844320133402"><ele>129.0</ele><time>2026-05-03T12:26:20.983Z</time></trkpt><trkpt lat="50.988027351585544" lon="17.008860701762547"><ele>129.0</ele><time>2026-05-03T12:26:21.983Z</time></trkpt><trkpt lat="50.98811099320469" lon="17.00884655638471"><ele>129.0</ele><time>2026-05-03T12:26:22.983Z</time></trkpt><trkpt lat="50.98819583723466" lon="17.008834766010356"><ele>129.0</ele><time>2026-05-03T12:26:23.983Z</time></trkpt><trkpt lat="50.988276449487174" lon="17.008815481019848"><ele>129.0</ele><time>2026-05-03T12:26:24.983Z</time></trkpt><trkpt lat="50.98835656171719" lon="17.00879599632682"><ele>129.0</ele><time>2026-05-03T12:26:25.983Z</time></trkpt><trkpt lat="50.98844389271676" lon="17.00878598793262"><ele>129.0</ele><time>2026-05-03T12:26:26.983Z</time></trkpt><trkpt lat="50.98852975151934" lon="17.008774024229833"><ele>129.0</ele><time>2026-05-03T12:26:27.983Z</time></trkpt><trkpt lat="50.98862032275317" lon="17.008763441622644"><ele>129.0</ele><time>2026-05-03T12:26:28.983Z</time></trkpt><trkpt lat="50.988708567874575" lon="17.00874950987571"><ele>129.0</ele><time>2026-05-03T12:26:29.983Z</time></trkpt><trkpt lat="50.98879747808115" lon="17.00873517536075"><ele>129.0</ele><time>2026-05-03T12:26:30.983Z</time></trkpt><trkpt lat="50.9888870814562" lon="17.00872025382898"><ele>129.0</ele><time>2026-05-03T12:26:31.983Z</time></trkpt><trkpt lat="50.98897760788649" lon="17.008710465410836"><ele>129.0</ele><time>2026-05-03T12:26:32.983Z</time></trkpt><trkpt lat="50.989070701433896" lon="17.008700307682375"><ele>129.0</ele><time>2026-05-03T12:26:33.983Z</time></trkpt><trkpt lat="50.98916233810068" lon="17.008687881117872"><ele>128.8</ele><time>2026-05-03T12:26:34.983Z</time></trkpt><trkpt lat="50.989252261112604" lon="17.00867104490438"><ele>128.60000000000002</ele><time>2026-05-03T12:26:35.983Z</time></trkpt><trkpt lat="50.98934438808977" lon="17.00865501890017"><ele>128.4</ele><time>2026-05-03T12:26:36.983Z</time></trkpt><trkpt lat="50.989436166165994" lon="17.008639789459046"><ele>128.20000000000002</ele><time>2026-05-03T12:26:37.983Z</time></trkpt><trkpt lat="50.9895280029649" lon="17.00862705964192"><ele>128.0</ele><time>2026-05-03T12:26:38.983Z</time></trkpt><trkpt lat="50.989617877473144" lon="17.008609919848567"><ele>128.0</ele><time>2026-05-03T12:26:39.983Z</time></trkpt><trkpt lat="50.98970941068371" lon="17.00859443179163"><ele>128.0</ele><time>2026-05-03T12:26:40.983Z</time></trkpt><trkpt lat="50.989800415142724" lon="17.00858232922294"><ele>128.0</ele><time>2026-05-03T12:26:41.983Z</time></trkpt><trkpt lat="50.989890752118065" lon="17.008569150657436"><ele>128.0</ele><time>2026-05-03T12:26:42.983Z</time></trkpt><trkpt lat="50.98997945982253" lon="17.008554452789404"><ele>128.0</ele><time>2026-05-03T12:26:43.983Z</time></trkpt><trkpt lat="50.990069390091016" lon="17.008538367152614"><ele>127.80000000000001</ele><time>2026-05-03T12:26:44.984Z</time></trkpt><trkpt lat="50.990158779523604" lon="17.008523295100947"><ele>127.60000000000001</ele><time>2026-05-03T12:26:45.985Z</time></trkpt><trkpt lat="50.990249217297695" lon="17.008513360891026"><ele>127.39999999999999</ele><time>2026-05-03T12:26:46.986Z</time></trkpt><trkpt lat="50.99033887563182" lon="17.008501158713685"><ele>127.19999999999999</ele><time>2026-05-03T12:26:47.987Z</time></trkpt><trkpt lat="50.990428603226846" lon="17.008485446973715"><ele>127.0</ele><time>2026-05-03T12:26:48.988Z</time></trkpt><trkpt lat="50.99051934301947" lon="17.008470189122527"><ele>127.0</ele><time>2026-05-03T12:26:49.989Z</time></trkpt><trkpt lat="50.990609089968366" lon="17.008452898915937"><ele>126.99999999999999</ele><time>2026-05-03T12:26:50.99Z</time></trkpt><trkpt lat="50.990700202126234" lon="17.00844058325461"><ele>126.99999999999999</ele><time>2026-05-03T12:26:51.991Z</time></trkpt><trkpt lat="50.99079242105521" lon="17.00842785449241"><ele>127.0</ele><time>2026-05-03T12:26:52.991Z</time></trkpt><trkpt lat="50.99088427866748" lon="17.008418222140076"><ele>127.0</ele><time>2026-05-03T12:26:53.992Z</time></trkpt><trkpt lat="50.99097632510992" lon="17.008405449066473"><ele>127.19999999999999</ele><time>2026-05-03T12:26:54.992Z</time></trkpt><trkpt lat="50.99106910704978" lon="17.00839429268267"><ele>127.39999999999999</ele><time>2026-05-03T12:26:55.993Z</time></trkpt><trkpt lat="50.99116045734642" lon="17.008378099281654"><ele>127.60000000000001</ele><time>2026-05-03T12:26:56.993Z</time></trkpt><trkpt lat="50.991252114538725" lon="17.008365754380943"><ele>127.80000000000001</ele><time>2026-05-03T12:26:57.994Z</time></trkpt><trkpt lat="50.99134311880874" lon="17.00834975314279"><ele>128.0</ele><time>2026-05-03T12:26:58.994Z</time></trkpt><trkpt lat="50.99143434052806" lon="17.00833690244584"><ele>128.0</ele><time>2026-05-03T12:26:59.995Z</time></trkpt><trkpt lat="50.99152631926284" lon="17.0083226593657"><ele>128.0</ele><time>2026-05-03T12:27:00.995Z</time></trkpt><trkpt lat="50.99161759605911" lon="17.00830850751291"><ele>128.0</ele><time>2026-05-03T12:27:01.995Z</time></trkpt><trkpt lat="50.99171010856024" lon="17.008297303593018"><ele>128.0</ele><time>2026-05-03T12:27:02.996Z</time></trkpt><trkpt lat="50.99180249976694" lon="17.00828701670524"><ele>128.0</ele><time>2026-05-03T12:27:03.996Z</time></trkpt><trkpt lat="50.99189404979151" lon="17.008273318924203"><ele>128.0</ele><time>2026-05-03T12:27:04.996Z</time></trkpt><trkpt lat="50.99198522367359" lon="17.008260881578043"><ele>128.0</ele><time>2026-05-03T12:27:05.997Z</time></trkpt><trkpt lat="50.992077489079044" lon="17.008246092679798"><ele>128.0</ele><time>2026-05-03T12:27:06.997Z</time></trkpt><trkpt lat="50.992168946006664" lon="17.008232228709947"><ele>128.0</ele><time>2026-05-03T12:27:07.997Z</time></trkpt><trkpt lat="50.992260906402066" lon="17.008217157104262"><ele>128.0</ele><time>2026-05-03T12:27:08.997Z</time></trkpt><trkpt lat="50.992351963544586" lon="17.008200708019555"><ele>128.0</ele><time>2026-05-03T12:27:09.997Z</time></trkpt><trkpt lat="50.99244355257474" lon="17.00819102416165"><ele>128.0</ele><time>2026-05-03T12:27:10.998Z</time></trkpt><trkpt lat="50.99253517184137" lon="17.008177697565223"><ele>128.0</ele><time>2026-05-03T12:27:11.998Z</time></trkpt><trkpt lat="50.99262673744792" lon="17.008158204092368"><ele>128.0</ele><time>2026-05-03T12:27:12.998Z</time></trkpt><trkpt lat="50.99271859045164" lon="17.008139957587407"><ele>128.0</ele><time>2026-05-03T12:27:13.998Z</time></trkpt><trkpt lat="50.99280924090123" lon="17.008124091588392"><ele>128.0</ele><time>2026-05-03T12:27:14.998Z</time></trkpt><trkpt lat="50.9929018848963" lon="17.00810926230145"><ele>128.0</ele><time>2026-05-03T12:27:15.998Z</time></trkpt><trkpt lat="50.99299334309235" lon="17.008094648808466"><ele>128.0</ele><time>2026-05-03T12:27:16.999Z</time></trkpt><trkpt lat="50.99308659102165" lon="17.008081224306835"><ele>128.0</ele><time>2026-05-03T12:27:17.999Z</time></trkpt><trkpt lat="50.993178933857365" lon="17.008070149813243"><ele>128.0</ele><time>2026-05-03T12:27:18.999Z</time></trkpt><trkpt lat="50.993272269673106" lon="17.008058233789566"><ele>127.80000000000001</ele><time>2026-05-03T12:27:19.999Z</time></trkpt><trkpt lat="50.993365238688746" lon="17.00804354434161"><ele>127.60000000000001</ele><time>2026-05-03T12:27:20.999Z</time></trkpt><trkpt lat="50.99345995828092" lon="17.00803193213167"><ele>127.39999999999999</ele><time>2026-05-03T12:27:21.999Z</time></trkpt><trkpt lat="50.99355356471341" lon="17.008019693544536"><ele>127.19999999999999</ele><time>2026-05-03T12:27:22.999Z</time></trkpt><trkpt lat="50.99364785812167" lon="17.008005999410358"><ele>127.0</ele><time>2026-05-03T12:27:23.999Z</time></trkpt><trkpt lat="50.99374392814167" lon="17.00799235037312"><ele>127.0</ele><time>2026-05-03T12:27:24.999Z</time></trkpt><trkpt lat="50.993838533156165" lon="17.007981170147623"><ele>126.99999999999999</ele><time>2026-05-03T12:27:25.999Z</time></trkpt><trkpt lat="50.99393279639594" lon="17.007966345788716"><ele>126.99999999999999</ele><time>2026-05-03T12:27:26.999Z</time></trkpt><trkpt lat="50.99402785510833" lon="17.007949872075212"><ele>127.0</ele><time>2026-05-03T12:27:27.999Z</time></trkpt><trkpt lat="50.994122523606926" lon="17.007937846536482"><ele>127.0</ele><time>2026-05-03T12:27:29Z</time></trkpt><trkpt lat="50.994217506656526" lon="17.007921210490437"><ele>127.0</ele><time>2026-05-03T12:27:30Z</time></trkpt><trkpt lat="50.994313333394246" lon="17.007905964037963"><ele>126.99999999999999</ele><time>2026-05-03T12:27:31Z</time></trkpt><trkpt lat="50.99440916122701" lon="17.00789102428871"><ele>126.99999999999999</ele><time>2026-05-03T12:27:32Z</time></trkpt><trkpt lat="50.99450644130051" lon="17.007875216685765"><ele>127.0</ele><time>2026-05-03T12:27:33Z</time></trkpt><trkpt lat="50.99460245548583" lon="17.007857698871497"><ele>127.0</ele><time>2026-05-03T12:27:34Z</time></trkpt><trkpt lat="50.994698139802246" lon="17.007837686011722"><ele>127.0</ele><time>2026-05-03T12:27:35Z</time></trkpt><trkpt lat="50.99479651769593" lon="17.00782354228939"><ele>126.99999999999999</ele><time>2026-05-03T12:27:36Z</time></trkpt><trkpt lat="50.99489371251898" lon="17.00781039199548"><ele>126.99999999999999</ele><time>2026-05-03T12:27:37Z</time></trkpt><trkpt lat="50.99499115757353" lon="17.0077990845735"><ele>127.0</ele><time>2026-05-03T12:27:38Z</time></trkpt><trkpt lat="50.995089725956184" lon="17.0077861005893"><ele>127.0</ele><time>2026-05-03T12:27:39Z</time></trkpt><trkpt lat="50.995187217684126" lon="17.007770511423853"><ele>127.0</ele><time>2026-05-03T12:27:40Z</time></trkpt><trkpt lat="50.99528436627269" lon="17.007756731339708"><ele>126.99999999999999</ele><time>2026-05-03T12:27:41Z</time></trkpt><trkpt lat="50.99538183073644" lon="17.007744671206492"><ele>126.99999999999999</ele><time>2026-05-03T12:27:42Z</time></trkpt><trkpt lat="50.99547948200366" lon="17.00772937503259"><ele>127.0</ele><time>2026-05-03T12:27:43Z</time></trkpt><trkpt lat="50.99557694682699" lon="17.00771101699069"><ele>127.0</ele><time>2026-05-03T12:27:44Z</time></trkpt><trkpt lat="50.99567369413567" lon="17.007694580466023"><ele>127.0</ele><time>2026-05-03T12:27:45Z</time></trkpt><trkpt lat="50.995770552471114" lon="17.00767884790387"><ele>126.99999999999999</ele><time>2026-05-03T12:27:46Z</time></trkpt><trkpt lat="50.99586760911939" lon="17.007663468459597"><ele>126.99999999999999</ele><time>2026-05-03T12:27:47Z</time></trkpt><trkpt lat="50.99596548619149" lon="17.007647627621676"><ele>127.0</ele><time>2026-05-03T12:27:48Z</time></trkpt><trkpt lat="50.99606283564288" lon="17.007632218864405"><ele>127.0</ele><time>2026-05-03T12:27:49Z</time></trkpt><trkpt lat="50.99616113663036" lon="17.007616050861063"><ele>127.0</ele><time>2026-05-03T12:27:50Z</time></trkpt><trkpt lat="50.99625745992054" lon="17.007602024337544"><ele>126.99999999999999</ele><time>2026-05-03T12:27:51Z</time></trkpt><trkpt lat="50.996354922720066" lon="17.007589317687067"><ele>126.99999999999999</ele><time>2026-05-03T12:27:52Z</time></trkpt><trkpt lat="50.99645260743571" lon="17.007579408717536"><ele>127.0</ele><time>2026-05-03T12:27:53Z</time></trkpt><trkpt lat="50.996547723019404" lon="17.007564756401884"><ele>127.0</ele><time>2026-05-03T12:27:54Z</time></trkpt><trkpt lat="50.99664445428804" lon="17.007548471311598"><ele>127.0</ele><time>2026-05-03T12:27:55Z</time></trkpt><trkpt lat="50.99674075453174" lon="17.007535071254075"><ele>126.99999999999999</ele><time>2026-05-03T12:27:56Z</time></trkpt><trkpt lat="50.996837021083486" lon="17.00752150722209"><ele>126.99999999999999</ele><time>2026-05-03T12:27:57Z</time></trkpt><trkpt lat="50.99693169199717" lon="17.007503568740713"><ele>127.0</ele><time>2026-05-03T12:27:58Z</time></trkpt><trkpt lat="50.99702573066873" lon="17.00749246171071"><ele>127.0</ele><time>2026-05-03T12:27:59Z</time></trkpt><trkpt lat="50.99711905895347" lon="17.007481773312676"><ele>127.19999999999999</ele><time>2026-05-03T12:28:00Z</time></trkpt><trkpt lat="50.99721048568378" lon="17.007469432834412"><ele>127.39999999999999</ele><time>2026-05-03T12:28:01Z</time></trkpt><trkpt lat="50.997302748623426" lon="17.00745113392487"><ele>127.60000000000001</ele><time>2026-05-03T12:28:02Z</time></trkpt><trkpt lat="50.99739186532674" lon="17.007425572849783"><ele>127.80000000000001</ele><time>2026-05-03T12:28:03Z</time></trkpt><trkpt lat="50.99748312340504" lon="17.007391437099486"><ele>128.0</ele><time>2026-05-03T12:28:04Z</time></trkpt><trkpt lat="50.99756862152422" lon="17.007345982160363"><ele>128.16666666666666</ele><time>2026-05-03T12:28:05Z</time></trkpt><trkpt lat="50.997652561104076" lon="17.00728980435659"><ele>128.33333333333331</ele><time>2026-05-03T12:28:06Z</time></trkpt><trkpt lat="50.997733570998854" lon="17.007226711061925"><ele>128.5</ele><time>2026-05-03T12:28:07Z</time></trkpt><trkpt lat="50.99781404911418" lon="17.007167858154947"><ele>128.66666666666666</ele><time>2026-05-03T12:28:08Z</time></trkpt><trkpt lat="50.997895585828424" lon="17.00710529407219"><ele>128.83333333333334</ele><time>2026-05-03T12:28:09Z</time></trkpt><trkpt lat="50.99797301553194" lon="17.00703908623197"><ele>129.0</ele><time>2026-05-03T12:28:10Z</time></trkpt><trkpt lat="50.99805369625954" lon="17.00697329266751"><ele>129.0</ele><time>2026-05-03T12:28:11Z</time></trkpt><trkpt lat="50.998135077714" lon="17.006909567360072"><ele>129.0</ele><time>2026-05-03T12:28:12Z</time></trkpt><trkpt lat="50.99821554325058" lon="17.006846810933638"><ele>129.0</ele><time>2026-05-03T12:28:13Z</time></trkpt><trkpt lat="50.99829804475166" lon="17.006779950146477"><ele>129.0</ele><time>2026-05-03T12:28:14Z</time></trkpt><trkpt lat="50.99837991851635" lon="17.00671530404627"><ele>129.0</ele><time>2026-05-03T12:28:15Z</time></trkpt><trkpt lat="50.99846194807182" lon="17.006651598922087"><ele>129.0</ele><time>2026-05-03T12:28:16Z</time></trkpt><trkpt lat="50.99854473805711" lon="17.00658440320371"><ele>129.0</ele><time>2026-05-03T12:28:17Z</time></trkpt><trkpt lat="50.998629187246344" lon="17.00651629296853"><ele>129.0</ele><time>2026-05-03T12:28:18Z</time></trkpt><trkpt lat="50.998714151757355" lon="17.00645004465881"><ele>129.0</ele><time>2026-05-03T12:28:19Z</time></trkpt><trkpt lat="50.99880299139277" lon="17.006404818720817"><ele>129.0</ele><time>2026-05-03T12:28:20Z</time></trkpt><trkpt lat="50.9988991419592" lon="17.006397875943037"><ele>129.0</ele><time>2026-05-03T12:28:21Z</time></trkpt><trkpt lat="50.9989943259219" lon="17.006435734499306"><ele>129.0</ele><time>2026-05-03T12:28:22Z</time></trkpt><trkpt lat="50.99908374209329" lon="17.006500337630026"><ele>129.0</ele><time>2026-05-03T12:28:23Z</time></trkpt><trkpt lat="50.999167066606624" lon="17.00654167896889"><ele>129.0</ele><time>2026-05-03T12:28:24Z</time></trkpt><trkpt lat="50.999260091725716" lon="17.006580434949775"><ele>129.0</ele><time>2026-05-03T12:28:25Z</time></trkpt><trkpt lat="50.999353076357124" lon="17.00662218795293"><ele>128.4</ele><time>2026-05-03T12:28:26Z</time></trkpt><trkpt lat="50.99944523141308" lon="17.006662460330602"><ele>127.80000000000001</ele><time>2026-05-03T12:28:27Z</time></trkpt><trkpt lat="50.99953682336041" lon="17.006703592210282"><ele>127.19999999999999</ele><time>2026-05-03T12:28:28Z</time></trkpt><trkpt lat="50.99962923373405" lon="17.006746041857667"><ele>126.6</ele><time>2026-05-03T12:28:29Z</time></trkpt><trkpt lat="50.99972096312625" lon="17.0067894894458"><ele>126.0</ele><time>2026-05-03T12:28:30Z</time></trkpt><trkpt lat="50.999817417174" lon="17.00683487218416"><ele>126.0</ele><time>2026-05-03T12:28:31Z</time></trkpt><trkpt lat="50.999913535939214" lon="17.006873637658554"><ele>126.0</ele><time>2026-05-03T12:28:32Z</time></trkpt><trkpt lat="51.00001154088963" lon="17.006914943204464"><ele>126.0</ele><time>2026-05-03T12:28:33Z</time></trkpt><trkpt lat="51.000107946408356" lon="17.006960637451993"><ele>126.0</ele><time>2026-05-03T12:28:34Z</time></trkpt><trkpt lat="51.00020587955443" lon="17.007008122747386"><ele>126.0</ele><time>2026-05-03T12:28:35Z</time></trkpt><trkpt lat="51.000305152292995" lon="17.007053513564884"><ele>126.0</ele><time>2026-05-03T12:28:36Z</time></trkpt><trkpt lat="51.000404509501095" lon="17.007094059484103"><ele>126.0</ele><time>2026-05-03T12:28:37Z</time></trkpt><trkpt lat="51.00050421126144" lon="17.007137773862897"><ele>126.0</ele><time>2026-05-03T12:28:38Z</time></trkpt><trkpt lat="51.00060095395174" lon="17.007187073670597"><ele>126.0</ele><time>2026-05-03T12:28:39Z</time></trkpt><trkpt lat="51.00069871140385" lon="17.007237617746735"><ele>126.0</ele><time>2026-05-03T12:28:40Z</time></trkpt><trkpt lat="51.00079715791846" lon="17.007283477322126"><ele>126.19999999999999</ele><time>2026-05-03T12:28:41Z</time></trkpt><trkpt lat="51.00089580526202" lon="17.007331009001494"><ele>126.39999999999999</ele><time>2026-05-03T12:28:42Z</time></trkpt><trkpt lat="51.00099371378408" lon="17.007389285691904"><ele>126.6</ele><time>2026-05-03T12:28:43Z</time></trkpt><trkpt lat="51.001084448151374" lon="17.00746327661559"><ele>126.8</ele><time>2026-05-03T12:28:44Z</time></trkpt><trkpt lat="51.00116460313614" lon="17.00756528236393"><ele>127.0</ele><time>2026-05-03T12:28:45Z</time></trkpt><trkpt lat="51.00122948929365" lon="17.007690087867147"><ele>127.6</ele><time>2026-05-03T12:28:46Z</time></trkpt><trkpt lat="51.00129361098957" lon="17.007813511232808"><ele>128.2</ele><time>2026-05-03T12:28:47Z</time></trkpt><trkpt lat="51.001363449455155" lon="17.00792976316069"><ele>128.8</ele><time>2026-05-03T12:28:48.001Z</time></trkpt><trkpt lat="51.00143124215661" lon="17.008047284462975"><ele>129.4</ele><time>2026-05-03T12:28:49.001Z</time></trkpt><trkpt lat="51.00150250856743" lon="17.00816099912502"><ele>130.0</ele><time>2026-05-03T12:28:50.001Z</time></trkpt><trkpt lat="51.00157778449484" lon="17.008275546293902"><ele>129.6</ele><time>2026-05-03T12:28:51.001Z</time></trkpt><trkpt lat="51.001640814049374" lon="17.008392729835247"><ele>129.2</ele><time>2026-05-03T12:28:52.001Z</time></trkpt><trkpt lat="51.00170653518809" lon="17.0085017952727"><ele>128.8</ele><time>2026-05-03T12:28:53Z</time></trkpt><trkpt lat="51.00177259044765" lon="17.00861374755134"><ele>128.4</ele><time>2026-05-03T12:28:54Z</time></trkpt><trkpt lat="51.00184073130808" lon="17.008722134348208"><ele>128.0</ele><time>2026-05-03T12:28:55Z</time></trkpt><trkpt lat="51.001906115221566" lon="17.008824723521396"><ele>128.0</ele><time>2026-05-03T12:28:56Z</time></trkpt><trkpt lat="51.00196939394778" lon="17.008937507948282"><ele>128.0</ele><time>2026-05-03T12:28:57Z</time></trkpt><trkpt lat="51.002024889811665" lon="17.00904233281201"><ele>128.0</ele><time>2026-05-03T12:28:58Z</time></trkpt><trkpt lat="51.00208313070357" lon="17.00916543342035"><ele>128.0</ele><time>2026-05-03T12:28:59Z</time></trkpt><trkpt lat="51.00213188801767" lon="17.009285049046362"><ele>128.0</ele><time>2026-05-03T12:29:00Z</time></trkpt><trkpt lat="51.002179648829845" lon="17.009416561260032"><ele>128.0</ele><time>2026-05-03T12:29:01Z</time></trkpt><trkpt lat="51.002225451379694" lon="17.0095470705212"><ele>128.0</ele><time>2026-05-03T12:29:02Z</time></trkpt><trkpt lat="51.002268142109436" lon="17.009674459182175"><ele>128.0</ele><time>2026-05-03T12:29:03Z</time></trkpt><trkpt lat="51.00230796269563" lon="17.00980067727973"><ele>128.0</ele><time>2026-05-03T12:29:04Z</time></trkpt><trkpt lat="51.00234743013971" lon="17.009927661638184"><ele>128.0</ele><time>2026-05-03T12:29:05Z</time></trkpt><trkpt lat="51.00238717273242" lon="17.010051121832632"><ele>127.99999999999999</ele><time>2026-05-03T12:29:06Z</time></trkpt><trkpt lat="51.00242298935141" lon="17.01017493872893"><ele>128.0</ele><time>2026-05-03T12:29:07Z</time></trkpt><trkpt lat="51.00245785875829" lon="17.01030624398286"><ele>128.0</ele><time>2026-05-03T12:29:08Z</time></trkpt><trkpt lat="51.00249512130656" lon="17.01043522570842"><ele>128.0</ele><time>2026-05-03T12:29:09Z</time></trkpt><trkpt lat="51.00253532370445" lon="17.010567004947877"><ele>127.99999999999999</ele><time>2026-05-03T12:29:10Z</time></trkpt><trkpt lat="51.002573679287366" lon="17.010699269878636"><ele>128.0</ele><time>2026-05-03T12:29:11Z</time></trkpt><trkpt lat="51.00260838897971" lon="17.010835907641"><ele>128.0</ele><time>2026-05-03T12:29:12Z</time></trkpt><trkpt lat="51.00263885125931" lon="17.010974813311208"><ele>128.0</ele><time>2026-05-03T12:29:13Z</time></trkpt><trkpt lat="51.00266444502026" lon="17.011116492451993"><ele>128.0</ele><time>2026-05-03T12:29:14Z</time></trkpt><trkpt lat="51.002684862096345" lon="17.011255098691823"><ele>128.0</ele><time>2026-05-03T12:29:15Z</time></trkpt><trkpt lat="51.00270472562007" lon="17.011395746594758"><ele>128.0</ele><time>2026-05-03T12:29:16Z</time></trkpt><trkpt lat="51.002716860224766" lon="17.011536659182326"><ele>128.5</ele><time>2026-05-03T12:29:17Z</time></trkpt><trkpt lat="51.0027363552749" lon="17.01167320477564"><ele>129.0</ele><time>2026-05-03T12:29:18Z</time></trkpt><trkpt lat="51.00275495354707" lon="17.011807989487842"><ele>129.5</ele><time>2026-05-03T12:29:19Z</time></trkpt><trkpt lat="51.00277436044377" lon="17.01193748575809"><ele>130.0</ele><time>2026-05-03T12:29:20Z</time></trkpt><trkpt lat="51.002795613714916" lon="17.012068452481046"><ele>130.5</ele><time>2026-05-03T12:29:21Z</time></trkpt><trkpt lat="51.00281363691872" lon="17.012199794695842"><ele>131.0</ele><time>2026-05-03T12:29:22Z</time></trkpt><trkpt lat="51.002827712200414" lon="17.012327189263353"><ele>131.0</ele><time>2026-05-03T12:29:23Z</time></trkpt><trkpt lat="51.00284136603418" lon="17.012454701535933"><ele>131.0</ele><time>2026-05-03T12:29:24Z</time></trkpt><trkpt lat="51.002856738618135" lon="17.012580570016887"><ele>131.0</ele><time>2026-05-03T12:29:25Z</time></trkpt><trkpt lat="51.00287569187554" lon="17.012704838146863"><ele>131.0</ele><time>2026-05-03T12:29:26Z</time></trkpt><trkpt lat="51.00289338473568" lon="17.012829605830962"><ele>131.0</ele><time>2026-05-03T12:29:27Z</time></trkpt><trkpt lat="51.00291115424661" lon="17.01295503697852"><ele>131.0</ele><time>2026-05-03T12:29:28Z</time></trkpt><trkpt lat="51.00292715834492" lon="17.01308046897518"><ele>131.33333333333331</ele><time>2026-05-03T12:29:29Z</time></trkpt><trkpt lat="51.00294367097496" lon="17.013206044654737"><ele>131.66666666666666</ele><time>2026-05-03T12:29:30Z</time></trkpt><trkpt lat="51.002960676314316" lon="17.013330895474443"><ele>132.0</ele><time>2026-05-03T12:29:31Z</time></trkpt><trkpt lat="51.00297821319436" lon="17.01345492536496"><ele>132.33333333333334</ele><time>2026-05-03T12:29:32Z</time></trkpt><trkpt lat="51.0029972510093" lon="17.01357726057185"><ele>132.66666666666669</ele><time>2026-05-03T12:29:33Z</time></trkpt><trkpt lat="51.00301599769625" lon="17.013703332350126"><ele>133.0</ele><time>2026-05-03T12:29:34Z</time></trkpt><trkpt lat="51.00303245950288" lon="17.013828094086783"><ele>133.0</ele><time>2026-05-03T12:29:35Z</time></trkpt><trkpt lat="51.003048965190004" lon="17.013952151951276"><ele>133.0</ele><time>2026-05-03T12:29:36Z</time></trkpt><trkpt lat="51.003063950522936" lon="17.01407900917467"><ele>133.0</ele><time>2026-05-03T12:29:37Z</time></trkpt><trkpt lat="51.00306646248765" lon="17.014205774197166"><ele>133.0</ele><time>2026-05-03T12:29:38Z</time></trkpt><trkpt lat="51.00307067445962" lon="17.014324239628547"><ele>133.0</ele><time>2026-05-03T12:29:39Z</time></trkpt><trkpt lat="51.00306682030591" lon="17.0144302780212"><ele>133.0</ele><time>2026-05-03T12:29:40Z</time></trkpt><trkpt lat="51.00305741612757" lon="17.01456033897028"><ele>132.8</ele><time>2026-05-03T12:29:41Z</time></trkpt><trkpt lat="51.003057402238134" lon="17.014787202402434"><ele>132.60000000000002</ele><time>2026-05-03T12:29:43Z</time></trkpt><trkpt lat="51.00305549982416" lon="17.01492203174035"><ele>132.39999999999998</ele><time>2026-05-03T12:29:44Z</time></trkpt><trkpt lat="51.00303789776539" lon="17.015056944548228"><ele>132.2</ele><time>2026-05-03T12:29:45Z</time></trkpt><trkpt lat="51.00302194214915" lon="17.01518840625193"><ele>132.0</ele><time>2026-05-03T12:29:46Z</time></trkpt><trkpt lat="51.00300172589846" lon="17.01532388833756"><ele>132.0</ele><time>2026-05-03T12:29:47Z</time></trkpt><trkpt lat="51.00300668433131" lon="17.01545559128747"><ele>132.0</ele><time>2026-05-03T12:29:48Z</time></trkpt><trkpt lat="51.003018594548216" lon="17.015584730966644"><ele>132.0</ele><time>2026-05-03T12:29:49Z</time></trkpt><trkpt lat="51.00304080229002" lon="17.015713776668207"><ele>132.0</ele><time>2026-05-03T12:29:50Z</time></trkpt><trkpt lat="51.003078372218546" lon="17.0158302846738"><ele>132.0</ele><time>2026-05-03T12:29:51Z</time></trkpt><trkpt lat="51.00311770856231" lon="17.015951198742453"><ele>132.0</ele><time>2026-05-03T12:29:52Z</time></trkpt><trkpt lat="51.003157792410256" lon="17.016084933485637"><ele>131.83333333333334</ele><time>2026-05-03T12:29:53Z</time></trkpt><trkpt lat="51.003193320962225" lon="17.01620244949494"><ele>131.66666666666666</ele><time>2026-05-03T12:29:54Z</time></trkpt><trkpt lat="51.00322212116534" lon="17.01632176884288"><ele>131.5</ele><time>2026-05-03T12:29:55Z</time></trkpt><trkpt lat="51.00323038063782" lon="17.016442680147275"><ele>131.33333333333331</ele><time>2026-05-03T12:29:56Z</time></trkpt><trkpt lat="51.00323556456844" lon="17.016574050345664"><ele>131.16666666666666</ele><time>2026-05-03T12:29:57Z</time></trkpt><trkpt lat="51.00323922654817" lon="17.01671222878564"><ele>131.0</ele><time>2026-05-03T12:29:58Z</time></trkpt><trkpt lat="51.003237991366035" lon="17.01685239733986"><ele>130.66666666666666</ele><time>2026-05-03T12:29:59Z</time></trkpt><trkpt lat="51.00323516198061" lon="17.01699496458149"><ele>130.33333333333331</ele><time>2026-05-03T12:30:00Z</time></trkpt><trkpt lat="51.003233159399336" lon="17.017142273890443"><ele>130.0</ele><time>2026-05-03T12:30:01Z</time></trkpt><trkpt lat="51.00323303333084" lon="17.01728113742944"><ele>129.66666666666666</ele><time>2026-05-03T12:30:02Z</time></trkpt><trkpt lat="51.00323841997653" lon="17.017424172328667"><ele>129.33333333333334</ele><time>2026-05-03T12:30:03Z</time></trkpt><trkpt lat="51.00324667205067" lon="17.01756091113029"><ele>129.0</ele><time>2026-05-03T12:30:04Z</time></trkpt><trkpt lat="51.00324723417559" lon="17.017700118168833"><ele>129.0</ele><time>2026-05-03T12:30:05Z</time></trkpt><trkpt lat="51.003246024193025" lon="17.017835838527297"><ele>129.0</ele><time>2026-05-03T12:30:06Z</time></trkpt><trkpt lat="51.00324540340306" lon="17.017967820881065"><ele>129.0</ele><time>2026-05-03T12:30:07Z</time></trkpt><trkpt lat="51.00324305595119" lon="17.018099472384357"><ele>129.0</ele><time>2026-05-03T12:30:08Z</time></trkpt><trkpt lat="51.00324221763887" lon="17.018239145330227"><ele>129.0</ele><time>2026-05-03T12:30:09Z</time></trkpt><trkpt lat="51.00324397502343" lon="17.018374456082018"><ele>129.0</ele><time>2026-05-03T12:30:10Z</time></trkpt><trkpt lat="51.00324435509228" lon="17.018510202890038"><ele>129.16666666666666</ele><time>2026-05-03T12:30:11Z</time></trkpt><trkpt lat="51.003244137378275" lon="17.018646769291443"><ele>129.33333333333334</ele><time>2026-05-03T12:30:12Z</time></trkpt><trkpt lat="51.00324336923015" lon="17.01878451410867"><ele>129.5</ele><time>2026-05-03T12:30:13Z</time></trkpt><trkpt lat="51.00324491176666" lon="17.018919213466027"><ele>129.66666666666669</ele><time>2026-05-03T12:30:14Z</time></trkpt><trkpt lat="51.00324380668895" lon="17.019053095023818"><ele>129.83333333333334</ele><time>2026-05-03T12:30:15Z</time></trkpt><trkpt lat="51.00324223743314" lon="17.019190772261968"><ele>130.0</ele><time>2026-05-03T12:30:16Z</time></trkpt><trkpt lat="51.00323791400581" lon="17.019323763862392"><ele>130.0</ele><time>2026-05-03T12:30:17Z</time></trkpt><trkpt lat="51.003235087973074" lon="17.019459528273384"><ele>130.0</ele><time>2026-05-03T12:30:18Z</time></trkpt><trkpt lat="51.0032365725425" lon="17.01959147192796"><ele>130.0</ele><time>2026-05-03T12:30:19Z</time></trkpt><trkpt lat="51.00323622438441" lon="17.019725261064536"><ele>130.0</ele><time>2026-05-03T12:30:20Z</time></trkpt><trkpt lat="51.00323649414388" lon="17.019858711965846"><ele>130.0</ele><time>2026-05-03T12:30:21Z</time></trkpt><trkpt lat="51.00323887552655" lon="17.01999251712035"><ele>130.0</ele><time>2026-05-03T12:30:22Z</time></trkpt><trkpt lat="51.00323966232179" lon="17.020125410658434"><ele>130.0</ele><time>2026-05-03T12:30:23Z</time></trkpt><trkpt lat="51.003242828438346" lon="17.02025612709258"><ele>130.0</ele><time>2026-05-03T12:30:24Z</time></trkpt><trkpt lat="51.00324357299741" lon="17.02038768559674"><ele>130.0</ele><time>2026-05-03T12:30:25Z</time></trkpt><trkpt lat="51.00324507554028" lon="17.020518719412586"><ele>130.0</ele><time>2026-05-03T12:30:26Z</time></trkpt><trkpt lat="51.003246176482946" lon="17.02064956168266"><ele>130.0</ele><time>2026-05-03T12:30:27Z</time></trkpt><trkpt lat="51.003248082843236" lon="17.020778745764225"><ele>130.0</ele><time>2026-05-03T12:30:28Z</time></trkpt><trkpt lat="51.00324851717047" lon="17.02090821309316"><ele>130.0</ele><time>2026-05-03T12:30:29Z</time></trkpt><trkpt lat="51.00325131727324" lon="17.021033396108805"><ele>130.0</ele><time>2026-05-03T12:30:30Z</time></trkpt><trkpt lat="51.003248338560745" lon="17.02117346658586"><ele>130.0</ele><time>2026-05-03T12:30:31Z</time></trkpt><trkpt lat="51.00325155046373" lon="17.021301107271487"><ele>130.0</ele><time>2026-05-03T12:30:32Z</time></trkpt><trkpt lat="51.00325556837703" lon="17.02142428207338"><ele>130.0</ele><time>2026-05-03T12:30:33Z</time></trkpt><trkpt lat="51.00325927182562" lon="17.02154848417174"><ele>130.0</ele><time>2026-05-03T12:30:34Z</time></trkpt><trkpt lat="51.003257554467346" lon="17.021676697802185"><ele>130.16666666666669</ele><time>2026-05-03T12:30:35Z</time></trkpt><trkpt lat="51.00326093063713" lon="17.021802263618792"><ele>130.33333333333334</ele><time>2026-05-03T12:30:36Z</time></trkpt><trkpt lat="51.003265578672696" lon="17.021926415551516"><ele>130.5</ele><time>2026-05-03T12:30:37Z</time></trkpt><trkpt lat="51.00326097428555" lon="17.022051497343334"><ele>130.66666666666666</ele><time>2026-05-03T12:30:38Z</time></trkpt><trkpt lat="51.003264515790065" lon="17.02217165130058"><ele>130.83333333333331</ele><time>2026-05-03T12:30:39Z</time></trkpt><trkpt lat="51.00326352971996" lon="17.022297813899158"><ele>131.0</ele><time>2026-05-03T12:30:40Z</time></trkpt><trkpt lat="51.00326511465212" lon="17.02242138277736"><ele>131.0</ele><time>2026-05-03T12:30:41Z</time></trkpt><trkpt lat="51.00326694282629" lon="17.022547656132133"><ele>131.0</ele><time>2026-05-03T12:30:42Z</time></trkpt><trkpt lat="51.00327185245952" lon="17.022665913199283"><ele>131.0</ele><time>2026-05-03T12:30:43Z</time></trkpt><trkpt lat="51.0032706862404" lon="17.022785288439145"><ele>131.0</ele><time>2026-05-03T12:30:44Z</time></trkpt><trkpt lat="51.00326875308908" lon="17.02290443096826"><ele>131.0</ele><time>2026-05-03T12:30:45Z</time></trkpt><trkpt lat="51.003262265075044" lon="17.02302668293166"><ele>131.0</ele><time>2026-05-03T12:30:46Z</time></trkpt><trkpt lat="51.003257232859255" lon="17.023151410310707"><ele>131.0</ele><time>2026-05-03T12:30:47Z</time></trkpt><trkpt lat="51.003242572364485" lon="17.0232577124587"><ele>131.0</ele><time>2026-05-03T12:30:48Z</time></trkpt><trkpt lat="51.00321173451103" lon="17.023369613363837"><ele>131.0</ele><time>2026-05-03T12:30:49Z</time></trkpt><trkpt lat="51.00319001037882" lon="17.023477386095802"><ele>131.0</ele><time>2026-05-03T12:30:50Z</time></trkpt><trkpt lat="51.00316557825846" lon="17.023586066751598"><ele>131.0</ele><time>2026-05-03T12:30:51Z</time></trkpt><trkpt lat="51.00314107664355" lon="17.02369402083639"><ele>131.0</ele><time>2026-05-03T12:30:52Z</time></trkpt><trkpt lat="51.003120916990085" lon="17.02380364888539"><ele>131.0</ele><time>2026-05-03T12:30:53Z</time></trkpt><trkpt lat="51.00309940879177" lon="17.02391251148681"><ele>131.0</ele><time>2026-05-03T12:30:54Z</time></trkpt><trkpt lat="51.00307322620024" lon="17.02402169477529"><ele>131.0</ele><time>2026-05-03T12:30:55Z</time></trkpt><trkpt lat="51.00304774531055" lon="17.02412833731512"><ele>131.0</ele><time>2026-05-03T12:30:56Z</time></trkpt><trkpt lat="51.00302725181954" lon="17.024236878261195"><ele>131.0</ele><time>2026-05-03T12:30:57Z</time></trkpt><trkpt lat="51.003007668238254" lon="17.024346487291997"><ele>131.0</ele><time>2026-05-03T12:30:58Z</time></trkpt><trkpt lat="51.00298559584389" lon="17.02445633330737"><ele>131.0</ele><time>2026-05-03T12:30:59Z</time></trkpt><trkpt lat="51.002960769064224" lon="17.02456531936847"><ele>131.0</ele><time>2026-05-03T12:31:00Z</time></trkpt><trkpt lat="51.0029356376993" lon="17.02467488655189"><ele>130.85714285714286</ele><time>2026-05-03T12:31:01Z</time></trkpt><trkpt lat="51.002911193704534" lon="17.02478570455139"><ele>130.71428571428572</ele><time>2026-05-03T12:31:02Z</time></trkpt><trkpt lat="51.0028856645197" lon="17.02489309205257"><ele>130.57142857142858</ele><time>2026-05-03T12:31:03Z</time></trkpt><trkpt lat="51.00286057788384" lon="17.02499849484386"><ele>130.42857142857144</ele><time>2026-05-03T12:31:04Z</time></trkpt><trkpt lat="51.002839708107146" lon="17.025104515119754"><ele>130.28571428571428</ele><time>2026-05-03T12:31:05Z</time></trkpt><trkpt lat="51.002815307271845" lon="17.02520799856689"><ele>130.14285714285717</ele><time>2026-05-03T12:31:06Z</time></trkpt><trkpt lat="51.00279271149108" lon="17.025310161051788"><ele>130.0</ele><time>2026-05-03T12:31:07Z</time></trkpt><trkpt lat="51.00277096727478" lon="17.025414379837894"><ele>130.00000000000003</ele><time>2026-05-03T12:31:08Z</time></trkpt><trkpt lat="51.00275007936768" lon="17.02551772756418"><ele>130.0</ele><time>2026-05-03T12:31:09Z</time></trkpt><trkpt lat="51.00272714359155" lon="17.025618598548316"><ele>130.0</ele><time>2026-05-03T12:31:10Z</time></trkpt><trkpt lat="51.00270719925067" lon="17.02571812922296"><ele>130.0</ele><time>2026-05-03T12:31:11Z</time></trkpt><trkpt lat="51.00268724504573" lon="17.025818937431143"><ele>130.0</ele><time>2026-05-03T12:31:12Z</time></trkpt><trkpt lat="51.00266237951422" lon="17.025918788319036"><ele>130.00000000000003</ele><time>2026-05-03T12:31:13Z</time></trkpt><trkpt lat="51.00264140806381" lon="17.026019776432033"><ele>130.0</ele><time>2026-05-03T12:31:14Z</time></trkpt><trkpt lat="51.00262181230282" lon="17.026122422006633"><ele>130.00000000000003</ele><time>2026-05-03T12:31:15Z</time></trkpt><trkpt lat="51.002600480663936" lon="17.02622149531386"><ele>130.0</ele><time>2026-05-03T12:31:16Z</time></trkpt><trkpt lat="51.00257672515604" lon="17.026322417880156"><ele>130.0</ele><time>2026-05-03T12:31:17Z</time></trkpt><trkpt lat="51.00255529109915" lon="17.026422280879196"><ele>130.0</ele><time>2026-05-03T12:31:18Z</time></trkpt><trkpt lat="51.00253324530786" lon="17.026524347603974"><ele>130.0</ele><time>2026-05-03T12:31:19Z</time></trkpt><trkpt lat="51.00251334924171" lon="17.026625522002956"><ele>130.00000000000003</ele><time>2026-05-03T12:31:20Z</time></trkpt><trkpt lat="51.00249271921565" lon="17.026726206976587"><ele>130.0</ele><time>2026-05-03T12:31:21Z</time></trkpt><trkpt lat="51.00247142589171" lon="17.026826444678154"><ele>130.14285714285717</ele><time>2026-05-03T12:31:22Z</time></trkpt><trkpt lat="51.00244780027743" lon="17.02692740236916"><ele>130.28571428571428</ele><time>2026-05-03T12:31:23Z</time></trkpt><trkpt lat="51.002426407026775" lon="17.02703092266445"><ele>130.42857142857144</ele><time>2026-05-03T12:31:24Z</time></trkpt><trkpt lat="51.002404036479554" lon="17.027134970302836"><ele>130.57142857142858</ele><time>2026-05-03T12:31:25Z</time></trkpt><trkpt lat="51.00238128507087" lon="17.027236578778883"><ele>130.71428571428572</ele><time>2026-05-03T12:31:26Z</time></trkpt><trkpt lat="51.00235818531854" lon="17.027341276105677"><ele>130.85714285714286</ele><time>2026-05-03T12:31:27Z</time></trkpt><trkpt lat="51.00233769196746" lon="17.027442507833005"><ele>131.0</ele><time>2026-05-03T12:31:28Z</time></trkpt><trkpt lat="51.00231773045914" lon="17.027550225607065"><ele>131.0</ele><time>2026-05-03T12:31:29Z</time></trkpt><trkpt lat="51.002295336741504" lon="17.02765413718686"><ele>131.0</ele><time>2026-05-03T12:31:30Z</time></trkpt><trkpt lat="51.00227305169007" lon="17.027759962994338"><ele>131.0</ele><time>2026-05-03T12:31:31Z</time></trkpt><trkpt lat="51.00225146607855" lon="17.027864999750886"><ele>131.0</ele><time>2026-05-03T12:31:32Z</time></trkpt><trkpt lat="51.00222775756017" lon="17.027971516223904"><ele>131.0</ele><time>2026-05-03T12:31:33Z</time></trkpt><trkpt lat="51.002203479905624" lon="17.02807401799643"><ele>131.0</ele><time>2026-05-03T12:31:34Z</time></trkpt><trkpt lat="51.002176731352115" lon="17.02817557538977"><ele>131.0</ele><time>2026-05-03T12:31:35Z</time></trkpt><trkpt lat="51.002151157307196" lon="17.028280465328756"><ele>131.14285714285714</ele><time>2026-05-03T12:31:36Z</time></trkpt><trkpt lat="51.002127034060486" lon="17.028385544898903"><ele>131.2857142857143</ele><time>2026-05-03T12:31:37Z</time></trkpt><trkpt lat="51.00210508086411" lon="17.028489303961795"><ele>131.42857142857144</ele><time>2026-05-03T12:31:38Z</time></trkpt><trkpt lat="51.00208388709439" lon="17.028594204503253"><ele>131.57142857142858</ele><time>2026-05-03T12:31:39Z</time></trkpt><trkpt lat="51.002063381394386" lon="17.028696973884085"><ele>131.71428571428572</ele><time>2026-05-03T12:31:40Z</time></trkpt><trkpt lat="51.00204075851447" lon="17.028801157135717"><ele>131.85714285714286</ele><time>2026-05-03T12:31:41Z</time></trkpt><trkpt lat="51.002019390080896" lon="17.02890643202278"><ele>132.0</ele><time>2026-05-03T12:31:42Z</time></trkpt><trkpt lat="51.00199934119932" lon="17.02900827066286"><ele>132.0</ele><time>2026-05-03T12:31:43Z</time></trkpt><trkpt lat="51.001975482225376" lon="17.02911024888782"><ele>132.0</ele><time>2026-05-03T12:31:44Z</time></trkpt><trkpt lat="51.00195234321525" lon="17.029216076326218"><ele>132.0</ele><time>2026-05-03T12:31:45Z</time></trkpt><trkpt lat="51.00192985781248" lon="17.02931712782751"><ele>132.0</ele><time>2026-05-03T12:31:46Z</time></trkpt><trkpt lat="51.00190814381833" lon="17.029419482334845"><ele>132.0</ele><time>2026-05-03T12:31:47Z</time></trkpt><trkpt lat="51.00188657073264" lon="17.029523170804655"><ele>132.0</ele><time>2026-05-03T12:31:48Z</time></trkpt><trkpt lat="51.0018660401834" lon="17.029624928157737"><ele>132.0</ele><time>2026-05-03T12:31:49Z</time></trkpt><trkpt lat="51.00184207708056" lon="17.029726044484132"><ele>132.0</ele><time>2026-05-03T12:31:50Z</time></trkpt><trkpt lat="51.00181768685824" lon="17.029827273676805"><ele>132.0</ele><time>2026-05-03T12:31:51Z</time></trkpt><trkpt lat="51.001794176650186" lon="17.029931661149188"><ele>132.0</ele><time>2026-05-03T12:31:52Z</time></trkpt><trkpt lat="51.00177416804484" lon="17.03003825060707"><ele>132.0</ele><time>2026-05-03T12:31:53Z</time></trkpt><trkpt lat="51.001753829411946" lon="17.03014234461574"><ele>132.0</ele><time>2026-05-03T12:31:54Z</time></trkpt><trkpt lat="51.00173057644689" lon="17.030247265946628"><ele>132.0</ele><time>2026-05-03T12:31:55Z</time></trkpt><trkpt lat="51.001709199188184" lon="17.030352342396267"><ele>132.0</ele><time>2026-05-03T12:31:56Z</time></trkpt><trkpt lat="51.00168631549076" lon="17.030454976502533"><ele>132.14285714285714</ele><time>2026-05-03T12:31:57Z</time></trkpt><trkpt lat="51.00166422737134" lon="17.030555411648038"><ele>132.28571428571428</ele><time>2026-05-03T12:31:58Z</time></trkpt><trkpt lat="51.00164134732156" lon="17.03065815048302"><ele>132.42857142857144</ele><time>2026-05-03T12:31:59Z</time></trkpt><trkpt lat="51.001619485775166" lon="17.03075903451657"><ele>132.57142857142856</ele><time>2026-05-03T12:32:00Z</time></trkpt><trkpt lat="51.00160324233064" lon="17.03086213841546"><ele>132.71428571428572</ele><time>2026-05-03T12:32:01Z</time></trkpt><trkpt lat="51.001584391791695" lon="17.030961866798663"><ele>132.85714285714286</ele><time>2026-05-03T12:32:02Z</time></trkpt><trkpt lat="51.001559120355104" lon="17.031061258704632"><ele>133.0</ele><time>2026-05-03T12:32:03Z</time></trkpt><trkpt lat="51.00153964381354" lon="17.03116106239928"><ele>133.0</ele><time>2026-05-03T12:32:04Z</time></trkpt><trkpt lat="51.00151902958314" lon="17.031261513520175"><ele>133.0</ele><time>2026-05-03T12:32:05Z</time></trkpt><trkpt lat="51.00149614153402" lon="17.03136130909552"><ele>133.0</ele><time>2026-05-03T12:32:06Z</time></trkpt><trkpt lat="51.00147669342565" lon="17.03146016252939"><ele>133.0</ele><time>2026-05-03T12:32:07Z</time></trkpt><trkpt lat="51.001457807540554" lon="17.03155943682995"><ele>133.0</ele><time>2026-05-03T12:32:08Z</time></trkpt><trkpt lat="51.00143516880965" lon="17.031657643829732"><ele>133.0</ele><time>2026-05-03T12:32:09Z</time></trkpt><trkpt lat="51.001413563015745" lon="17.03175520308064"><ele>133.0</ele><time>2026-05-03T12:32:10Z</time></trkpt><trkpt lat="51.001388105097675" lon="17.031852872149795"><ele>133.0</ele><time>2026-05-03T12:32:11Z</time></trkpt><trkpt lat="51.00134833809167" lon="17.032044163951603"><ele>133.0</ele><time>2026-05-03T12:32:13Z</time></trkpt><trkpt lat="51.00133007402009" lon="17.032142616727324"><ele>133.0</ele><time>2026-05-03T12:32:14Z</time></trkpt><trkpt lat="51.001310999528904" lon="17.032241996988965"><ele>133.0</ele><time>2026-05-03T12:32:15Z</time></trkpt><trkpt lat="51.00129220078304" lon="17.032341397103593"><ele>133.0</ele><time>2026-05-03T12:32:16Z</time></trkpt><trkpt lat="51.00126906011652" lon="17.03244201371866"><ele>133.0</ele><time>2026-05-03T12:32:17Z</time></trkpt><trkpt lat="51.00124626934092" lon="17.03253920343066"><ele>133.0</ele><time>2026-05-03T12:32:18Z</time></trkpt><trkpt lat="51.00122364093027" lon="17.032642567873218"><ele>133.0</ele><time>2026-05-03T12:32:19Z</time></trkpt><trkpt lat="51.00120568429676" lon="17.032743781462713"><ele>133.0</ele><time>2026-05-03T12:32:20Z</time></trkpt><trkpt lat="51.00118302784988" lon="17.0328445830912"><ele>133.0</ele><time>2026-05-03T12:32:21Z</time></trkpt><trkpt lat="51.001159192670436" lon="17.032938380991883"><ele>133.0</ele><time>2026-05-03T12:32:22Z</time></trkpt><trkpt lat="51.001137467234415" lon="17.033037948666635"><ele>133.0</ele><time>2026-05-03T12:32:23Z</time></trkpt><trkpt lat="51.00111641947486" lon="17.03313359102149"><ele>133.0</ele><time>2026-05-03T12:32:24Z</time></trkpt><trkpt lat="51.001095340231146" lon="17.03322985206362"><ele>133.0</ele><time>2026-05-03T12:32:25Z</time></trkpt><trkpt lat="51.00107143610882" lon="17.033323704906078"><ele>133.0</ele><time>2026-05-03T12:32:26Z</time></trkpt><trkpt lat="51.00104933272773" lon="17.033419504321085"><ele>133.0</ele><time>2026-05-03T12:32:27Z</time></trkpt><trkpt lat="51.00101093909225" lon="17.033611871253694"><ele>133.0</ele><time>2026-05-03T12:32:29Z</time></trkpt><trkpt lat="51.00099127695652" lon="17.033709520334366"><ele>133.0</ele><time>2026-05-03T12:32:30Z</time></trkpt><trkpt lat="51.00097250341284" lon="17.033808014531434"><ele>133.0</ele><time>2026-05-03T12:32:31Z</time></trkpt><trkpt lat="51.00095005847599" lon="17.033906487211617"><ele>133.0</ele><time>2026-05-03T12:32:32Z</time></trkpt><trkpt lat="51.00092653743861" lon="17.034004828083166"><ele>133.0</ele><time>2026-05-03T12:32:33Z</time></trkpt><trkpt lat="51.00090620665803" lon="17.034102228093182"><ele>133.0</ele><time>2026-05-03T12:32:34Z</time></trkpt><trkpt lat="51.00088797092191" lon="17.034198468320714"><ele>133.0</ele><time>2026-05-03T12:32:35Z</time></trkpt><trkpt lat="51.00086829535037" lon="17.034294557881264"><ele>133.0</ele><time>2026-05-03T12:32:36Z</time></trkpt><trkpt lat="51.00084656532581" lon="17.03439367745215"><ele>133.0</ele><time>2026-05-03T12:32:37Z</time></trkpt><trkpt lat="51.00082858299855" lon="17.034492104382302"><ele>133.0</ele><time>2026-05-03T12:32:38Z</time></trkpt><trkpt lat="51.00080303276068" lon="17.03459073028041"><ele>132.83333333333334</ele><time>2026-05-03T12:32:39Z</time></trkpt><trkpt lat="51.00076207844784" lon="17.034778250247058"><ele>132.66666666666669</ele><time>2026-05-03T12:32:41Z</time></trkpt><trkpt lat="51.00074304747968" lon="17.03487478425633"><ele>132.5</ele><time>2026-05-03T12:32:42Z</time></trkpt><trkpt lat="51.000724071935196" lon="17.03497118824961"><ele>132.33333333333334</ele><time>2026-05-03T12:32:43Z</time></trkpt><trkpt lat="51.00070279807888" lon="17.035066457379486"><ele>132.16666666666666</ele><time>2026-05-03T12:32:44Z</time></trkpt><trkpt lat="51.00068171774333" lon="17.035161005346797"><ele>132.0</ele><time>2026-05-03T12:32:45Z</time></trkpt><trkpt lat="51.00064360361987" lon="17.035348332807345"><ele>132.0</ele><time>2026-05-03T12:32:47Z</time></trkpt><trkpt lat="51.00062246853654" lon="17.035442631715593"><ele>132.0</ele><time>2026-05-03T12:32:48Z</time></trkpt><trkpt lat="51.00058108994411" lon="17.035623368375976"><ele>132.0</ele><time>2026-05-03T12:32:50Z</time></trkpt><trkpt lat="51.00054646730559" lon="17.035809843572668"><ele>132.0</ele><time>2026-05-03T12:32:52Z</time></trkpt><trkpt lat="51.000512997730894" lon="17.035996918214348"><ele>132.0</ele><time>2026-05-03T12:32:54Z</time></trkpt><trkpt lat="51.000466933882336" lon="17.036178103919823"><ele>132.0</ele><time>2026-05-03T12:32:56Z</time></trkpt><trkpt lat="51.00043038219098" lon="17.036362457112332"><ele>132.0</ele><time>2026-05-03T12:32:58Z</time></trkpt><trkpt lat="51.000386760702426" lon="17.036551402609"><ele>132.0</ele><time>2026-05-03T12:33:00Z</time></trkpt><trkpt lat="51.0003648327946" lon="17.036647799147836"><ele>132.0</ele><time>2026-05-03T12:33:01Z</time></trkpt><trkpt lat="51.00034344441952" lon="17.036743278661056"><ele>132.0</ele><time>2026-05-03T12:33:02Z</time></trkpt><trkpt lat="51.0003252783318" lon="17.036840827126607"><ele>132.0</ele><time>2026-05-03T12:33:03Z</time></trkpt><trkpt lat="51.000306248237116" lon="17.036939457422463"><ele>132.5</ele><time>2026-05-03T12:33:04Z</time></trkpt><trkpt lat="51.00026272680222" lon="17.037123459380858"><ele>133.0</ele><time>2026-05-03T12:33:06Z</time></trkpt><trkpt lat="51.00022777197523" lon="17.037311394887624"><ele>133.5</ele><time>2026-05-03T12:33:08Z</time></trkpt><trkpt lat="51.00018919106973" lon="17.037497939425407"><ele>134.0</ele><time>2026-05-03T12:33:10Z</time></trkpt><trkpt lat="51.00014897602147" lon="17.03768190028092"><ele>134.25</ele><time>2026-05-03T12:33:12Z</time></trkpt><trkpt lat="51.00011064511108" lon="17.037866469136414"><ele>134.5</ele><time>2026-05-03T12:33:14Z</time></trkpt><trkpt lat="51.000073398393894" lon="17.038047437129958"><ele>134.75</ele><time>2026-05-03T12:33:16Z</time></trkpt><trkpt lat="51.00003598734682" lon="17.038224063308977"><ele>135.0</ele><time>2026-05-03T12:33:18Z</time></trkpt><trkpt lat="51.00000119612758" lon="17.038387707477707"><ele>135.0</ele><time>2026-05-03T12:33:20Z</time></trkpt><trkpt lat="50.99996854505404" lon="17.038521192381882"><ele>135.0</ele><time>2026-05-03T12:33:22Z</time></trkpt><trkpt lat="50.999983842419134" lon="17.038638284429798"><ele>135.0</ele><time>2026-05-03T12:33:25Z</time></trkpt><trkpt lat="51.00005138895331" lon="17.03867294108381"><ele>135.0</ele><time>2026-05-03T12:33:27Z</time></trkpt><trkpt lat="51.00018848511848" lon="17.0386491464828"><ele>135.0</ele><time>2026-05-03T12:33:30Z</time></trkpt><trkpt lat="51.00028264840568" lon="17.038623738233763"><ele>135.0</ele><time>2026-05-03T12:33:32Z</time></trkpt><trkpt lat="51.000384800898175" lon="17.038614974018053"><ele>135.0</ele><time>2026-05-03T12:33:34Z</time></trkpt><trkpt lat="51.00048998983171" lon="17.03860643906469"><ele>135.0</ele><time>2026-05-03T12:33:36Z</time></trkpt><trkpt lat="51.00060667404365" lon="17.038595587961517"><ele>135.0</ele><time>2026-05-03T12:33:38Z</time></trkpt><trkpt lat="51.00072587506123" lon="17.03857981447361"><ele>135.0</ele><time>2026-05-03T12:33:40Z</time></trkpt><trkpt lat="51.0008407247633" lon="17.038553756922354"><ele>135.0</ele><time>2026-05-03T12:33:42Z</time></trkpt><trkpt lat="51.0009613930863" lon="17.038537713379817"><ele>135.0</ele><time>2026-05-03T12:33:44Z</time></trkpt><trkpt lat="51.00107992108154" lon="17.038525044632692"><ele>135.0</ele><time>2026-05-03T12:33:46Z</time></trkpt><trkpt lat="51.00119480273229" lon="17.038505682528278"><ele>135.0</ele><time>2026-05-03T12:33:48Z</time></trkpt><trkpt lat="51.00131100297111" lon="17.038485791535038"><ele>135.0</ele><time>2026-05-03T12:33:50Z</time></trkpt><trkpt lat="51.001431426911665" lon="17.038467905346337"><ele>135.0</ele><time>2026-05-03T12:33:52Z</time></trkpt><trkpt lat="51.00149562023869" lon="17.038463656094294"><ele>135.0</ele><time>2026-05-03T12:33:53Z</time></trkpt><trkpt lat="51.00156014029746" lon="17.038453976205925"><ele>135.0</ele><time>2026-05-03T12:33:54Z</time></trkpt><trkpt lat="51.001624583512026" lon="17.038443738504654"><ele>135.0</ele><time>2026-05-03T12:33:55Z</time></trkpt><trkpt lat="51.00169062754019" lon="17.03843025854997"><ele>135.0</ele><time>2026-05-03T12:33:56Z</time></trkpt><trkpt lat="51.00175948666639" lon="17.038420470527754"><ele>134.66666666666666</ele><time>2026-05-03T12:33:57Z</time></trkpt><trkpt lat="51.00183063437218" lon="17.038413757517617"><ele>134.33333333333334</ele><time>2026-05-03T12:33:58Z</time></trkpt><trkpt lat="51.00190279438054" lon="17.038405728767916"><ele>134.0</ele><time>2026-05-03T12:33:59Z</time></trkpt><trkpt lat="51.00198017026461" lon="17.038392753910458"><ele>133.66666666666669</ele><time>2026-05-03T12:34:00Z</time></trkpt><trkpt lat="51.0020587734143" lon="17.038380876966407"><ele>133.33333333333334</ele><time>2026-05-03T12:34:01Z</time></trkpt><trkpt lat="51.00213664576206" lon="17.038366803684877"><ele>133.0</ele><time>2026-05-03T12:34:02Z</time></trkpt><trkpt lat="51.00221915381028" lon="17.038358526617753"><ele>133.0</ele><time>2026-05-03T12:34:03Z</time></trkpt><trkpt lat="51.00230488087638" lon="17.03834746922863"><ele>133.0</ele><time>2026-05-03T12:34:04Z</time></trkpt><trkpt lat="51.00239245635518" lon="17.03833946601077"><ele>133.0</ele><time>2026-05-03T12:34:05Z</time></trkpt><trkpt lat="51.00248237738532" lon="17.0383188912168"><ele>133.0</ele><time>2026-05-03T12:34:06Z</time></trkpt><trkpt lat="51.002575716166454" lon="17.03830310020931"><ele>133.0</ele><time>2026-05-03T12:34:07Z</time></trkpt><trkpt lat="51.00266522116787" lon="17.03828717727801"><ele>133.0</ele><time>2026-05-03T12:34:08Z</time></trkpt><trkpt lat="51.002758809360245" lon="17.03827316960075"><ele>132.8</ele><time>2026-05-03T12:34:09Z</time></trkpt><trkpt lat="51.00285233564359" lon="17.038259473950813"><ele>132.60000000000002</ele><time>2026-05-03T12:34:10Z</time></trkpt><trkpt lat="51.00295207896047" lon="17.038249102836918"><ele>132.39999999999998</ele><time>2026-05-03T12:34:11Z</time></trkpt><trkpt lat="51.003050139426584" lon="17.038235565433403"><ele>132.2</ele><time>2026-05-03T12:34:12Z</time></trkpt><trkpt lat="51.00314969609212" lon="17.038221349289604"><ele>132.0</ele><time>2026-05-03T12:34:13Z</time></trkpt><trkpt lat="51.00324510492033" lon="17.038200744621896"><ele>132.0</ele><time>2026-05-03T12:34:14Z</time></trkpt><trkpt lat="51.00334950605367" lon="17.03819207249243"><ele>132.0</ele><time>2026-05-03T12:34:15Z</time></trkpt><trkpt lat="51.00345059793541" lon="17.038173587782847"><ele>132.0</ele><time>2026-05-03T12:34:16Z</time></trkpt><trkpt lat="51.00355366770687" lon="17.038160249388127"><ele>132.0</ele><time>2026-05-03T12:34:17Z</time></trkpt><trkpt lat="51.00365652387024" lon="17.03814585504644"><ele>132.0</ele><time>2026-05-03T12:34:18Z</time></trkpt><trkpt lat="51.00375884449439" lon="17.03813398808734"><ele>132.0</ele><time>2026-05-03T12:34:19Z</time></trkpt><trkpt lat="51.00385988088253" lon="17.038118715886355"><ele>132.0</ele><time>2026-05-03T12:34:20Z</time></trkpt><trkpt lat="51.00396034277619" lon="17.038101095810646"><ele>132.0</ele><time>2026-05-03T12:34:21Z</time></trkpt><trkpt lat="51.00406338921139" lon="17.0380899765344"><ele>132.0</ele><time>2026-05-03T12:34:22Z</time></trkpt><trkpt lat="51.00416489839196" lon="17.038076170010264"><ele>132.0</ele><time>2026-05-03T12:34:23Z</time></trkpt><trkpt lat="51.00426534915005" lon="17.038061834084772"><ele>132.6</ele><time>2026-05-03T12:34:24Z</time></trkpt><trkpt lat="51.0043668805906" lon="17.038046445239722"><ele>133.2</ele><time>2026-05-03T12:34:25Z</time></trkpt><trkpt lat="51.00446680065891" lon="17.038029875398724"><ele>133.8</ele><time>2026-05-03T12:34:26Z</time></trkpt><trkpt lat="51.00456739404329" lon="17.038013034010092"><ele>134.4</ele><time>2026-05-03T12:34:27Z</time></trkpt><trkpt lat="51.00466795727691" lon="17.037998904309074"><ele>135.0</ele><time>2026-05-03T12:34:28Z</time></trkpt><trkpt lat="51.00476879545577" lon="17.03799097976778"><ele>135.0</ele><time>2026-05-03T12:34:29Z</time></trkpt><trkpt lat="51.00487082559912" lon="17.037982303625796"><ele>135.0</ele><time>2026-05-03T12:34:30Z</time></trkpt><trkpt lat="51.004970841615346" lon="17.03796805387307"><ele>135.0</ele><time>2026-05-03T12:34:31Z</time></trkpt><trkpt lat="51.00507295763552" lon="17.037953072682974"><ele>135.0</ele><time>2026-05-03T12:34:32Z</time></trkpt><trkpt lat="51.0051761823241" lon="17.037939270598013"><ele>135.0</ele><time>2026-05-03T12:34:33Z</time></trkpt><trkpt lat="51.00527887636676" lon="17.037920340505114"><ele>134.8</ele><time>2026-05-03T12:34:34Z</time></trkpt><trkpt lat="51.00538097389216" lon="17.03790479975589"><ele>134.6</ele><time>2026-05-03T12:34:35Z</time></trkpt><trkpt lat="51.0054855704208" lon="17.037892615598558"><ele>134.4</ele><time>2026-05-03T12:34:36Z</time></trkpt><trkpt lat="51.005589858800974" lon="17.037879018128947"><ele>134.2</ele><time>2026-05-03T12:34:37Z</time></trkpt><trkpt lat="51.00569390546965" lon="17.037866815408687"><ele>134.0</ele><time>2026-05-03T12:34:38Z</time></trkpt><trkpt lat="51.005798126127424" lon="17.037855017944572"><ele>133.8</ele><time>2026-05-03T12:34:39Z</time></trkpt><trkpt lat="51.00590182751422" lon="17.037839562166056"><ele>133.60000000000002</ele><time>2026-05-03T12:34:40Z</time></trkpt><trkpt lat="51.006005385040496" lon="17.03782677879509"><ele>133.4</ele><time>2026-05-03T12:34:41Z</time></trkpt><trkpt lat="51.00610816991389" lon="17.037811619308698"><ele>133.20000000000002</ele><time>2026-05-03T12:34:42Z</time></trkpt><trkpt lat="51.0062091714811" lon="17.037796678684728"><ele>133.0</ele><time>2026-05-03T12:34:43Z</time></trkpt><trkpt lat="51.006309021026254" lon="17.037778286629443"><ele>133.0</ele><time>2026-05-03T12:34:44Z</time></trkpt><trkpt lat="51.006411071779425" lon="17.037763612686966"><ele>133.0</ele><time>2026-05-03T12:34:45Z</time></trkpt><trkpt lat="51.00651174081339" lon="17.037750587523114"><ele>133.0</ele><time>2026-05-03T12:34:46Z</time></trkpt><trkpt lat="51.00661262466993" lon="17.037734754722756"><ele>133.0</ele><time>2026-05-03T12:34:47Z</time></trkpt><trkpt lat="51.00671364810928" lon="17.037718316435964"><ele>133.0</ele><time>2026-05-03T12:34:48Z</time></trkpt><trkpt lat="51.00681525590823" lon="17.037699986979565"><ele>133.0</ele><time>2026-05-03T12:34:49Z</time></trkpt><trkpt lat="51.00691794603638" lon="17.037687226212046"><ele>133.0</ele><time>2026-05-03T12:34:50Z</time></trkpt><trkpt lat="51.00701978942352" lon="17.03767392284979"><ele>133.0</ele><time>2026-05-03T12:34:51Z</time></trkpt><trkpt lat="51.0071214502464" lon="17.03765945659398"><ele>133.0</ele><time>2026-05-03T12:34:52Z</time></trkpt><trkpt lat="51.00722299255994" lon="17.037647160232268"><ele>133.0</ele><time>2026-05-03T12:34:53Z</time></trkpt><trkpt lat="51.007325442887705" lon="17.0376329391409"><ele>133.0</ele><time>2026-05-03T12:34:54Z</time></trkpt><trkpt lat="51.00742651820873" lon="17.03761699060677"><ele>133.0</ele><time>2026-05-03T12:34:55Z</time></trkpt><trkpt lat="51.00752775859794" lon="17.03760613680109"><ele>133.0</ele><time>2026-05-03T12:34:56Z</time></trkpt><trkpt lat="51.00762751669817" lon="17.037589715567425"><ele>133.0</ele><time>2026-05-03T12:34:57Z</time></trkpt><trkpt lat="51.00772849756941" lon="17.037574497433337"><ele>133.0</ele><time>2026-05-03T12:34:58Z</time></trkpt><trkpt lat="51.007828756074325" lon="17.03756229656976"><ele>133.0</ele><time>2026-05-03T12:34:59Z</time></trkpt><trkpt lat="51.00792908735013" lon="17.037548541240174"><ele>133.0</ele><time>2026-05-03T12:35:00Z</time></trkpt><trkpt lat="51.008029737370265" lon="17.037530848839264"><ele>133.0</ele><time>2026-05-03T12:35:01Z</time></trkpt><trkpt lat="51.00813148215808" lon="17.037517673218176"><ele>133.0</ele><time>2026-05-03T12:35:02Z</time></trkpt><trkpt lat="51.008231529033694" lon="17.03750189801722"><ele>133.0</ele><time>2026-05-03T12:35:03Z</time></trkpt><trkpt lat="51.008333224583346" lon="17.037489441675017"><ele>133.0</ele><time>2026-05-03T12:35:04Z</time></trkpt><trkpt lat="51.008431811381904" lon="17.037474334245374"><ele>133.0</ele><time>2026-05-03T12:35:05Z</time></trkpt><trkpt lat="51.008531902503755" lon="17.037461433803134"><ele>133.0</ele><time>2026-05-03T12:35:06Z</time></trkpt><trkpt lat="51.00863255964283" lon="17.037449237554"><ele>133.0</ele><time>2026-05-03T12:35:07Z</time></trkpt><trkpt lat="51.00873117194781" lon="17.037435432627394"><ele>133.0</ele><time>2026-05-03T12:35:08Z</time></trkpt><trkpt lat="51.00883007897938" lon="17.03742131374014"><ele>132.6</ele><time>2026-05-03T12:35:09Z</time></trkpt><trkpt lat="51.00892999236271" lon="17.03740687089588"><ele>132.20000000000002</ele><time>2026-05-03T12:35:10Z</time></trkpt><trkpt lat="51.00902847741755" lon="17.03739322829472"><ele>131.8</ele><time>2026-05-03T12:35:11Z</time></trkpt><trkpt lat="51.009128329973045" lon="17.037376569996244"><ele>131.4</ele><time>2026-05-03T12:35:12Z</time></trkpt><trkpt lat="51.00922793321691" lon="17.037364150264462"><ele>131.0</ele><time>2026-05-03T12:35:13Z</time></trkpt><trkpt lat="51.009326709391694" lon="17.037353460615385"><ele>131.0</ele><time>2026-05-03T12:35:14Z</time></trkpt><trkpt lat="51.0094269241705" lon="17.03734114045831"><ele>131.0</ele><time>2026-05-03T12:35:15Z</time></trkpt><trkpt lat="51.0095259381383" lon="17.037323423535515"><ele>131.0</ele><time>2026-05-03T12:35:16Z</time></trkpt><trkpt lat="51.00962393765627" lon="17.037307537922796"><ele>131.0</ele><time>2026-05-03T12:35:17Z</time></trkpt><trkpt lat="51.00972235274867" lon="17.037294129943763"><ele>131.0</ele><time>2026-05-03T12:35:18Z</time></trkpt><trkpt lat="51.00982046345559" lon="17.037280141306557"><ele>131.0</ele><time>2026-05-03T12:35:19Z</time></trkpt><trkpt lat="51.0099207454492" lon="17.037267459338135"><ele>131.0</ele><time>2026-05-03T12:35:20Z</time></trkpt><trkpt lat="51.01002041178569" lon="17.037254691931068"><ele>131.0</ele><time>2026-05-03T12:35:21Z</time></trkpt><trkpt lat="51.01011906705422" lon="17.037240298457967"><ele>131.0</ele><time>2026-05-03T12:35:22Z</time></trkpt><trkpt lat="51.01021876458845" lon="17.037227800370186"><ele>131.0</ele><time>2026-05-03T12:35:23Z</time></trkpt><trkpt lat="51.01031978771689" lon="17.03721561684698"><ele>131.0</ele><time>2026-05-03T12:35:24Z</time></trkpt><trkpt lat="51.01042061961683" lon="17.037201067573722"><ele>131.0</ele><time>2026-05-03T12:35:25Z</time></trkpt><trkpt lat="51.010522184629934" lon="17.037186727190246"><ele>131.0</ele><time>2026-05-03T12:35:26Z</time></trkpt><trkpt lat="51.01062255144923" lon="17.03716964560798"><ele>131.0</ele><time>2026-05-03T12:35:27Z</time></trkpt><trkpt lat="51.01072284203498" lon="17.037155390479086"><ele>131.0</ele><time>2026-05-03T12:35:28Z</time></trkpt><trkpt lat="51.0108215551226" lon="17.037139084592603"><ele>131.0</ele><time>2026-05-03T12:35:29Z</time></trkpt><trkpt lat="51.01092174734964" lon="17.037126435225904"><ele>131.0</ele><time>2026-05-03T12:35:30Z</time></trkpt><trkpt lat="51.01101954978304" lon="17.037112561411238"><ele>131.0</ele><time>2026-05-03T12:35:31Z</time></trkpt><trkpt lat="51.01111621889441" lon="17.037098951291625"><ele>131.0</ele><time>2026-05-03T12:35:32Z</time></trkpt><trkpt lat="51.01121216544855" lon="17.037081255788387"><ele>131.0</ele><time>2026-05-03T12:35:33Z</time></trkpt><trkpt lat="51.01130851676549" lon="17.03706746587097"><ele>131.0</ele><time>2026-05-03T12:35:34Z</time></trkpt><trkpt lat="51.01140384384454" lon="17.037054157895682"><ele>131.0</ele><time>2026-05-03T12:35:35Z</time></trkpt><trkpt lat="51.01149955330627" lon="17.037040296954007"><ele>131.0</ele><time>2026-05-03T12:35:36Z</time></trkpt><trkpt lat="51.01159566864051" lon="17.03702633492556"><ele>131.0</ele><time>2026-05-03T12:35:37Z</time></trkpt><trkpt lat="51.011692717805445" lon="17.03701511819563"><ele>131.0</ele><time>2026-05-03T12:35:38Z</time></trkpt><trkpt lat="51.01178883566292" lon="17.037002236728373"><ele>131.0</ele><time>2026-05-03T12:35:39Z</time></trkpt><trkpt lat="51.01188637845653" lon="17.036987132358867"><ele>131.0</ele><time>2026-05-03T12:35:40Z</time></trkpt><trkpt lat="51.01198292069298" lon="17.036968464515738"><ele>131.0</ele><time>2026-05-03T12:35:41Z</time></trkpt><trkpt lat="51.01208046525689" lon="17.036954178203537"><ele>131.0</ele><time>2026-05-03T12:35:42Z</time></trkpt><trkpt lat="51.012178785906265" lon="17.0369437994369"><ele>131.0</ele><time>2026-05-03T12:35:43Z</time></trkpt><trkpt lat="51.012277963636876" lon="17.036930307503162"><ele>131.0</ele><time>2026-05-03T12:35:44Z</time></trkpt><trkpt lat="51.01237735470159" lon="17.03691449668977"><ele>131.0</ele><time>2026-05-03T12:35:45Z</time></trkpt><trkpt lat="51.012477091045255" lon="17.036900444456656"><ele>131.0</ele><time>2026-05-03T12:35:46Z</time></trkpt><trkpt lat="51.01257762496685" lon="17.036886062024735"><ele>131.0</ele><time>2026-05-03T12:35:47Z</time></trkpt><trkpt lat="51.01268099542511" lon="17.03687136048737"><ele>131.0</ele><time>2026-05-03T12:35:48Z</time></trkpt><trkpt lat="51.012782382028995" lon="17.036854873226513"><ele>131.0</ele><time>2026-05-03T12:35:49Z</time></trkpt><trkpt lat="51.01288496297023" lon="17.036837568608938"><ele>131.0</ele><time>2026-05-03T12:35:50Z</time></trkpt><trkpt lat="51.01298805732735" lon="17.03682101490787"><ele>131.0</ele><time>2026-05-03T12:35:51Z</time></trkpt><trkpt lat="51.01309204735569" lon="17.036806954388286"><ele>131.0</ele><time>2026-05-03T12:35:52Z</time></trkpt><trkpt lat="51.01319637480948" lon="17.036793129492352"><ele>131.0</ele><time>2026-05-03T12:35:53Z</time></trkpt><trkpt lat="51.01330210950921" lon="17.03677774812427"><ele>131.2</ele><time>2026-05-03T12:35:54Z</time></trkpt><trkpt lat="51.01340787323624" lon="17.036763738978202"><ele>131.39999999999998</ele><time>2026-05-03T12:35:55Z</time></trkpt><trkpt lat="51.01351395482851" lon="17.036747864553114"><ele>131.6</ele><time>2026-05-03T12:35:56Z</time></trkpt><trkpt lat="51.013621055316236" lon="17.036731758737957"><ele>131.79999999999998</ele><time>2026-05-03T12:35:57Z</time></trkpt><trkpt lat="51.01372740496321" lon="17.036717145722967"><ele>132.0</ele><time>2026-05-03T12:35:58Z</time></trkpt><trkpt lat="51.01383551549747" lon="17.036703944339287"><ele>132.0</ele><time>2026-05-03T12:35:59Z</time></trkpt><trkpt lat="51.013943675077314" lon="17.036690962198406"><ele>132.0</ele><time>2026-05-03T12:36:00Z</time></trkpt><trkpt lat="51.01404953359169" lon="17.036672449163646"><ele>132.0</ele><time>2026-05-03T12:36:01Z</time></trkpt><trkpt lat="51.01415737127552" lon="17.036657060632265"><ele>132.0</ele><time>2026-05-03T12:36:02Z</time></trkpt><trkpt lat="51.01426296319371" lon="17.036644917948774"><ele>132.0</ele><time>2026-05-03T12:36:03Z</time></trkpt><trkpt lat="51.01436977595757" lon="17.036634015412634"><ele>132.0</ele><time>2026-05-03T12:36:04Z</time></trkpt><trkpt lat="51.01447599446778" lon="17.036621333700428"><ele>132.0</ele><time>2026-05-03T12:36:05Z</time></trkpt><trkpt lat="51.01458133790688" lon="17.036604979719225"><ele>132.0</ele><time>2026-05-03T12:36:06Z</time></trkpt><trkpt lat="51.01468826650567" lon="17.036588077667403"><ele>132.0</ele><time>2026-05-03T12:36:07Z</time></trkpt><trkpt lat="51.014791456318825" lon="17.036567262101805"><ele>132.0</ele><time>2026-05-03T12:36:08Z</time></trkpt><trkpt lat="51.01489656163472" lon="17.036550457059498"><ele>132.2</ele><time>2026-05-03T12:36:09Z</time></trkpt><trkpt lat="51.014998265274585" lon="17.036532780680226"><ele>132.39999999999998</ele><time>2026-05-03T12:36:10Z</time></trkpt><trkpt lat="51.01510240422044" lon="17.03651524759024"><ele>132.60000000000002</ele><time>2026-05-03T12:36:11Z</time></trkpt><trkpt lat="51.015207969935815" lon="17.036504181406492"><ele>132.8</ele><time>2026-05-03T12:36:12Z</time></trkpt><trkpt lat="51.01530989823991" lon="17.036487752741955"><ele>133.0</ele><time>2026-05-03T12:36:13Z</time></trkpt><trkpt lat="51.015414325686095" lon="17.036474623955854"><ele>133.0</ele><time>2026-05-03T12:36:14Z</time></trkpt><trkpt lat="51.015515665408216" lon="17.036454930040048"><ele>133.0</ele><time>2026-05-03T12:36:15Z</time></trkpt><trkpt lat="51.01561606558321" lon="17.03643686713625"><ele>133.0</ele><time>2026-05-03T12:36:16Z</time></trkpt><trkpt lat="51.01571910298393" lon="17.036418137608422"><ele>133.0</ele><time>2026-05-03T12:36:17Z</time></trkpt><trkpt lat="51.01581882970467" lon="17.036396523928516"><ele>133.0</ele><time>2026-05-03T12:36:18Z</time></trkpt><trkpt lat="51.015918571527116" lon="17.03638334470539"><ele>132.8</ele><time>2026-05-03T12:36:19Z</time></trkpt><trkpt lat="51.01602008330326" lon="17.036373752000767"><ele>132.60000000000002</ele><time>2026-05-03T12:36:20Z</time></trkpt><trkpt lat="51.016121290532425" lon="17.036363508320253"><ele>132.39999999999998</ele><time>2026-05-03T12:36:21Z</time></trkpt><trkpt lat="51.016221445959914" lon="17.036348416983035"><ele>132.2</ele><time>2026-05-03T12:36:22Z</time></trkpt><trkpt lat="51.016321921895596" lon="17.03633267850132"><ele>132.0</ele><time>2026-05-03T12:36:23Z</time></trkpt><trkpt lat="51.016421069959634" lon="17.03631464515265"><ele>132.0</ele><time>2026-05-03T12:36:24Z</time></trkpt><trkpt lat="51.01652080149736" lon="17.03629929862484"><ele>132.0</ele><time>2026-05-03T12:36:25Z</time></trkpt><trkpt lat="51.01662622435214" lon="17.036283924794702"><ele>132.0</ele><time>2026-05-03T12:36:26Z</time></trkpt><trkpt lat="51.016725288224045" lon="17.036266567727267"><ele>132.0</ele><time>2026-05-03T12:36:27Z</time></trkpt><trkpt lat="51.01682642511054" lon="17.036250879779097"><ele>132.0</ele><time>2026-05-03T12:36:28Z</time></trkpt><trkpt lat="51.01693121896391" lon="17.03623241646785"><ele>131.79999999999998</ele><time>2026-05-03T12:36:29Z</time></trkpt><trkpt lat="51.017034979007654" lon="17.03621714742088"><ele>131.6</ele><time>2026-05-03T12:36:30Z</time></trkpt><trkpt lat="51.01713588963074" lon="17.036199257905427"><ele>131.39999999999998</ele><time>2026-05-03T12:36:31Z</time></trkpt><trkpt lat="51.017239679209744" lon="17.036185474916977"><ele>131.2</ele><time>2026-05-03T12:36:32Z</time></trkpt><trkpt lat="51.01734224900317" lon="17.036168687143128"><ele>131.0</ele><time>2026-05-03T12:36:33Z</time></trkpt><trkpt lat="51.0174426390306" lon="17.036150884933644"><ele>131.2</ele><time>2026-05-03T12:36:34Z</time></trkpt><trkpt lat="51.01754139442612" lon="17.036135789654924"><ele>131.39999999999998</ele><time>2026-05-03T12:36:35Z</time></trkpt><trkpt lat="51.017640850140296" lon="17.036123836161327"><ele>131.6</ele><time>2026-05-03T12:36:36Z</time></trkpt><trkpt lat="51.01774168565876" lon="17.036106315397262"><ele>131.79999999999998</ele><time>2026-05-03T12:36:37Z</time></trkpt><trkpt lat="51.01784269798144" lon="17.03608963390966"><ele>132.0</ele><time>2026-05-03T12:36:38Z</time></trkpt><trkpt lat="51.01794319507241" lon="17.036072960286614"><ele>132.0</ele><time>2026-05-03T12:36:39Z</time></trkpt><trkpt lat="51.018044142371835" lon="17.03605629080459"><ele>132.0</ele><time>2026-05-03T12:36:40Z</time></trkpt><trkpt lat="51.01814740575733" lon="17.036039082197068"><ele>132.0</ele><time>2026-05-03T12:36:41Z</time></trkpt><trkpt lat="51.01824963821817" lon="17.03602225846179"><ele>132.0</ele><time>2026-05-03T12:36:42Z</time></trkpt><trkpt lat="51.01835318894393" lon="17.036006066657404"><ele>132.0</ele><time>2026-05-03T12:36:43Z</time></trkpt><trkpt lat="51.01845686065564" lon="17.03599240635801"><ele>132.2</ele><time>2026-05-03T12:36:44Z</time></trkpt><trkpt lat="51.0185613008027" lon="17.035984682386026"><ele>132.39999999999998</ele><time>2026-05-03T12:36:45Z</time></trkpt><trkpt lat="51.01866600250075" lon="17.035979565927637"><ele>132.60000000000002</ele><time>2026-05-03T12:36:46Z</time></trkpt><trkpt lat="51.018768870546275" lon="17.03597095925246"><ele>132.8</ele><time>2026-05-03T12:36:47Z</time></trkpt><trkpt lat="51.01887146753402" lon="17.03596315864891"><ele>133.0</ele><time>2026-05-03T12:36:48Z</time></trkpt><trkpt lat="51.01897567325333" lon="17.035958644963625"><ele>133.0</ele><time>2026-05-03T12:36:49Z</time></trkpt><trkpt lat="51.01907941317099" lon="17.035956343577993"><ele>133.0</ele><time>2026-05-03T12:36:50Z</time></trkpt><trkpt lat="51.019183420552125" lon="17.035956836369593"><ele>133.0</ele><time>2026-05-03T12:36:51Z</time></trkpt><trkpt lat="51.0192868377458" lon="17.035959543839144"><ele>133.0</ele><time>2026-05-03T12:36:52Z</time></trkpt><trkpt lat="51.01938927935717" lon="17.035958235748737"><ele>133.0</ele><time>2026-05-03T12:36:53Z</time></trkpt><trkpt lat="51.019490316148776" lon="17.035960572651938"><ele>133.0</ele><time>2026-05-03T12:36:54Z</time></trkpt><trkpt lat="51.01958900597841" lon="17.035960811967236"><ele>133.0</ele><time>2026-05-03T12:36:55Z</time></trkpt><trkpt lat="51.01968775348591" lon="17.035960875446225"><ele>133.0</ele><time>2026-05-03T12:36:56Z</time></trkpt><trkpt lat="51.01978510674293" lon="17.035963736025558"><ele>133.0</ele><time>2026-05-03T12:36:57Z</time></trkpt><trkpt lat="51.01988404613267" lon="17.035966132893382"><ele>133.0</ele><time>2026-05-03T12:36:58Z</time></trkpt><trkpt lat="51.0199804966137" lon="17.035963776240347"><ele>132.8</ele><time>2026-05-03T12:36:59Z</time></trkpt><trkpt lat="51.0200801092164" lon="17.035966659417262"><ele>132.60000000000002</ele><time>2026-05-03T12:37:00Z</time></trkpt><trkpt lat="51.02017572924421" lon="17.035970498979523"><ele>132.39999999999998</ele><time>2026-05-03T12:37:01Z</time></trkpt><trkpt lat="51.02027182021906" lon="17.035966828582747"><ele>132.2</ele><time>2026-05-03T12:37:02Z</time></trkpt><trkpt lat="51.02036948492205" lon="17.035966169416376"><ele>132.0</ele><time>2026-05-03T12:37:03Z</time></trkpt><trkpt lat="51.02046796759377" lon="17.03596781812084"><ele>132.0</ele><time>2026-05-03T12:37:04Z</time></trkpt><trkpt lat="51.02056761807343" lon="17.035963973557656"><ele>132.0</ele><time>2026-05-03T12:37:05Z</time></trkpt><trkpt lat="51.02066564609192" lon="17.03595968470882"><ele>132.0</ele><time>2026-05-03T12:37:06Z</time></trkpt><trkpt lat="51.02076508071247" lon="17.03595840647643"><ele>132.0</ele><time>2026-05-03T12:37:07Z</time></trkpt><trkpt lat="51.02086395649408" lon="17.035959678403383"><ele>132.0</ele><time>2026-05-03T12:37:08Z</time></trkpt><trkpt lat="51.02096451578166" lon="17.035961258449394"><ele>132.4</ele><time>2026-05-03T12:37:09Z</time></trkpt><trkpt lat="51.02106277864241" lon="17.035958866237863"><ele>132.79999999999998</ele><time>2026-05-03T12:37:10Z</time></trkpt><trkpt lat="51.021162187005174" lon="17.035959080027087"><ele>133.2</ele><time>2026-05-03T12:37:11Z</time></trkpt><trkpt lat="51.021260819459044" lon="17.03595987597067"><ele>133.6</ele><time>2026-05-03T12:37:12Z</time></trkpt><trkpt lat="51.02135924455297" lon="17.03596028734021"><ele>134.0</ele><time>2026-05-03T12:37:13Z</time></trkpt><trkpt lat="51.02145779074832" lon="17.035958642988994"><ele>134.0</ele><time>2026-05-03T12:37:14Z</time></trkpt><trkpt lat="51.02155696009886" lon="17.035959368666585"><ele>134.0</ele><time>2026-05-03T12:37:15Z</time></trkpt><trkpt lat="51.02165675801362" lon="17.03596102874184"><ele>134.0</ele><time>2026-05-03T12:37:16Z</time></trkpt><trkpt lat="51.02175455449082" lon="17.03596276335334"><ele>134.0</ele><time>2026-05-03T12:37:17Z</time></trkpt><trkpt lat="51.02185342996694" lon="17.035963584174354"><ele>134.0</ele><time>2026-05-03T12:37:18Z</time></trkpt><trkpt lat="51.021953063779144" lon="17.035966020429267"><ele>134.0</ele><time>2026-05-03T12:37:19Z</time></trkpt><trkpt lat="51.02205338702045" lon="17.03596336162587"><ele>134.0</ele><time>2026-05-03T12:37:20Z</time></trkpt><trkpt lat="51.02215158270937" lon="17.035956954024478"><ele>134.0</ele><time>2026-05-03T12:37:21Z</time></trkpt><trkpt lat="51.022251635237936" lon="17.03595077079717"><ele>134.0</ele><time>2026-05-03T12:37:22Z</time></trkpt><trkpt lat="51.022352602868686" lon="17.03594412444377"><ele>134.0</ele><time>2026-05-03T12:37:23Z</time></trkpt><trkpt lat="51.02245217344412" lon="17.0359295847971"><ele>134.0</ele><time>2026-05-03T12:37:24Z</time></trkpt><trkpt lat="51.02255267994649" lon="17.035912498201924"><ele>134.0</ele><time>2026-05-03T12:37:25Z</time></trkpt><trkpt lat="51.0226538062788" lon="17.035886988863744"><ele>134.0</ele><time>2026-05-03T12:37:26Z</time></trkpt><trkpt lat="51.02275154855664" lon="17.035846508919825"><ele>134.0</ele><time>2026-05-03T12:37:27Z</time></trkpt><trkpt lat="51.022851424784555" lon="17.035805097460674"><ele>134.0</ele><time>2026-05-03T12:37:28Z</time></trkpt><trkpt lat="51.02295086681264" lon="17.035764395524055"><ele>134.0</ele><time>2026-05-03T12:37:29Z</time></trkpt><trkpt lat="51.02305009948933" lon="17.035724523776477"><ele>134.0</ele><time>2026-05-03T12:37:30Z</time></trkpt><trkpt lat="51.023150462763184" lon="17.03568427383839"><ele>134.0</ele><time>2026-05-03T12:37:31Z</time></trkpt><trkpt lat="51.023250217976376" lon="17.035643062325764"><ele>134.0</ele><time>2026-05-03T12:37:32Z</time></trkpt><trkpt lat="51.023349902825736" lon="17.035598232111763"><ele>134.0</ele><time>2026-05-03T12:37:33Z</time></trkpt><trkpt lat="51.023451254228426" lon="17.03555870268751"><ele>133.8</ele><time>2026-05-03T12:37:34Z</time></trkpt><trkpt lat="51.02354976346399" lon="17.035513873625526"><ele>133.60000000000002</ele><time>2026-05-03T12:37:35Z</time></trkpt><trkpt lat="51.02365175768149" lon="17.035472401653124"><ele>133.4</ele><time>2026-05-03T12:37:36Z</time></trkpt><trkpt lat="51.023750147325245" lon="17.03542869398124"><ele>133.20000000000002</ele><time>2026-05-03T12:37:37Z</time></trkpt><trkpt lat="51.023852426992036" lon="17.035388860716214"><ele>133.0</ele><time>2026-05-03T12:37:38Z</time></trkpt><trkpt lat="51.02394978273207" lon="17.035347939829506"><ele>133.0</ele><time>2026-05-03T12:37:39Z</time></trkpt><trkpt lat="51.024048151208525" lon="17.035304690174648"><ele>133.0</ele><time>2026-05-03T12:37:40Z</time></trkpt><trkpt lat="51.02414579141934" lon="17.03525822614943"><ele>133.0</ele><time>2026-05-03T12:37:41Z</time></trkpt><trkpt lat="51.02424475469217" lon="17.03521502681731"><ele>133.0</ele><time>2026-05-03T12:37:42Z</time></trkpt><trkpt lat="51.02434538870019" lon="17.035171221246223"><ele>133.0</ele><time>2026-05-03T12:37:43Z</time></trkpt><trkpt lat="51.02444716069369" lon="17.035129014549135"><ele>133.20000000000002</ele><time>2026-05-03T12:37:44Z</time></trkpt><trkpt lat="51.02454742098454" lon="17.035088202157088"><ele>133.4</ele><time>2026-05-03T12:37:45Z</time></trkpt><trkpt lat="51.02464793680907" lon="17.035045462720092"><ele>133.60000000000002</ele><time>2026-05-03T12:37:46Z</time></trkpt><trkpt lat="51.02474907655761" lon="17.035002268730793"><ele>133.8</ele><time>2026-05-03T12:37:47Z</time></trkpt><trkpt lat="51.024849969668416" lon="17.034958186540845"><ele>134.0</ele><time>2026-05-03T12:37:48Z</time></trkpt><trkpt lat="51.0249499072884" lon="17.034913901658854"><ele>133.8</ele><time>2026-05-03T12:37:49Z</time></trkpt><trkpt lat="51.025049039976025" lon="17.034872057624817"><ele>133.60000000000002</ele><time>2026-05-03T12:37:50Z</time></trkpt><trkpt lat="51.02514813141093" lon="17.03483209047018"><ele>133.4</ele><time>2026-05-03T12:37:51Z</time></trkpt><trkpt lat="51.0252462959364" lon="17.034789370119846"><ele>133.20000000000002</ele><time>2026-05-03T12:37:52Z</time></trkpt><trkpt lat="51.02534461493932" lon="17.034746636133853"><ele>133.0</ele><time>2026-05-03T12:37:53Z</time></trkpt><trkpt lat="51.0254422564323" lon="17.034707932598685"><ele>133.0</ele><time>2026-05-03T12:37:54Z</time></trkpt><trkpt lat="51.02554014603173" lon="17.03466883206248"><ele>133.0</ele><time>2026-05-03T12:37:55Z</time></trkpt><trkpt lat="51.02563750979545" lon="17.034626745677496"><ele>133.0</ele><time>2026-05-03T12:37:56Z</time></trkpt><trkpt lat="51.025735051055214" lon="17.034584374866007"><ele>133.0</ele><time>2026-05-03T12:37:57Z</time></trkpt><trkpt lat="51.025832292402164" lon="17.03454247021245"><ele>133.0</ele><time>2026-05-03T12:37:58Z</time></trkpt><trkpt lat="51.02592960758124" lon="17.03450286302657"><ele>133.0</ele><time>2026-05-03T12:37:59Z</time></trkpt><trkpt lat="51.026026691039014" lon="17.03446202127343"><ele>133.0</ele><time>2026-05-03T12:38:00Z</time></trkpt><trkpt lat="51.02612335512496" lon="17.034418986632765"><ele>133.0</ele><time>2026-05-03T12:38:01Z</time></trkpt><trkpt lat="51.0262213242234" lon="17.034382656001707"><ele>133.0</ele><time>2026-05-03T12:38:02Z</time></trkpt><trkpt lat="51.026317947302644" lon="17.03434466367102"><ele>133.0</ele><time>2026-05-03T12:38:03Z</time></trkpt><trkpt lat="51.0264110634029" lon="17.03430349975183"><ele>133.0</ele><time>2026-05-03T12:38:04Z</time></trkpt><trkpt lat="51.02650576752427" lon="17.034263561932114"><ele>133.0</ele><time>2026-05-03T12:38:05Z</time></trkpt><trkpt lat="51.026601364399895" lon="17.034224525508883"><ele>133.0</ele><time>2026-05-03T12:38:06Z</time></trkpt><trkpt lat="51.02669649162695" lon="17.03418206918104"><ele>133.0</ele><time>2026-05-03T12:38:07Z</time></trkpt><trkpt lat="51.02679142371314" lon="17.03413965696883"><ele>133.0</ele><time>2026-05-03T12:38:08Z</time></trkpt><trkpt lat="51.02688791971325" lon="17.03409916100683"><ele>132.8</ele><time>2026-05-03T12:38:09Z</time></trkpt><trkpt lat="51.02698412419743" lon="17.03405806552831"><ele>132.60000000000002</ele><time>2026-05-03T12:38:10Z</time></trkpt><trkpt lat="51.0270821558736" lon="17.03401447918738"><ele>132.39999999999998</ele><time>2026-05-03T12:38:11Z</time></trkpt><trkpt lat="51.02717968774821" lon="17.03397121760916"><ele>132.2</ele><time>2026-05-03T12:38:12Z</time></trkpt><trkpt lat="51.02727734580544" lon="17.033928698527568"><ele>132.0</ele><time>2026-05-03T12:38:13Z</time></trkpt><trkpt lat="51.02737358440152" lon="17.033887072887172"><ele>132.0</ele><time>2026-05-03T12:38:14Z</time></trkpt><trkpt lat="51.027472347696445" lon="17.033846619919156"><ele>132.0</ele><time>2026-05-03T12:38:15Z</time></trkpt><trkpt lat="51.02757009073415" lon="17.03380667988329"><ele>132.0</ele><time>2026-05-03T12:38:16Z</time></trkpt><trkpt lat="51.02766881739169" lon="17.033763266697655"><ele>132.0</ele><time>2026-05-03T12:38:17Z</time></trkpt><trkpt lat="51.027765767654515" lon="17.033721435629797"><ele>132.0</ele><time>2026-05-03T12:38:18Z</time></trkpt><trkpt lat="51.02786421431765" lon="17.033681193268777"><ele>132.2</ele><time>2026-05-03T12:38:19Z</time></trkpt><trkpt lat="51.02796281945816" lon="17.033639128075592"><ele>132.39999999999998</ele><time>2026-05-03T12:38:20Z</time></trkpt><trkpt lat="51.02805906380952" lon="17.03359594833677"><ele>132.60000000000002</ele><time>2026-05-03T12:38:21Z</time></trkpt><trkpt lat="51.02815495151741" lon="17.033552742615672"><ele>132.8</ele><time>2026-05-03T12:38:22Z</time></trkpt><trkpt lat="51.02825343188518" lon="17.033512014204582"><ele>133.0</ele><time>2026-05-03T12:38:23Z</time></trkpt><trkpt lat="51.02835168617644" lon="17.03347206999999"><ele>132.8</ele><time>2026-05-03T12:38:24Z</time></trkpt><trkpt lat="51.02845018268313" lon="17.03343268478254"><ele>132.60000000000002</ele><time>2026-05-03T12:38:25Z</time></trkpt><trkpt lat="51.028546730198514" lon="17.033391195845674"><ele>132.39999999999998</ele><time>2026-05-03T12:38:26Z</time></trkpt><trkpt lat="51.02864467049691" lon="17.03334641830209"><ele>132.2</ele><time>2026-05-03T12:38:27Z</time></trkpt><trkpt lat="51.02874310613483" lon="17.033303138244808"><ele>132.0</ele><time>2026-05-03T12:38:28Z</time></trkpt><trkpt lat="51.028842299897974" lon="17.033260072844914"><ele>132.0</ele><time>2026-05-03T12:38:29Z</time></trkpt><trkpt lat="51.028940741355754" lon="17.033218138992975"><ele>132.0</ele><time>2026-05-03T12:38:30Z</time></trkpt><trkpt lat="51.02903830175425" lon="17.033177944441604"><ele>132.0</ele><time>2026-05-03T12:38:31Z</time></trkpt><trkpt lat="51.029136492095255" lon="17.033136483594042"><ele>132.0</ele><time>2026-05-03T12:38:32Z</time></trkpt><trkpt lat="51.0292350941238" lon="17.03309780899805"><ele>132.0</ele><time>2026-05-03T12:38:33Z</time></trkpt><trkpt lat="51.02933481820506" lon="17.03305643253998"><ele>132.0</ele><time>2026-05-03T12:38:34Z</time></trkpt><trkpt lat="51.02943287950626" lon="17.033014636145026"><ele>132.0</ele><time>2026-05-03T12:38:35Z</time></trkpt><trkpt lat="51.02953224966915" lon="17.032971252812313"><ele>132.0</ele><time>2026-05-03T12:38:36Z</time></trkpt><trkpt lat="51.02963045284581" lon="17.032928724559554"><ele>132.0</ele><time>2026-05-03T12:38:37Z</time></trkpt><trkpt lat="51.02972978537685" lon="17.03288656906113"><ele>132.0</ele><time>2026-05-03T12:38:38Z</time></trkpt><trkpt lat="51.029827501599996" lon="17.032841634044942"><ele>132.0</ele><time>2026-05-03T12:38:39Z</time></trkpt><trkpt lat="51.02992609476181" lon="17.032798732154596"><ele>132.0</ele><time>2026-05-03T12:38:40Z</time></trkpt><trkpt lat="51.030025195785484" lon="17.032756711662106"><ele>132.0</ele><time>2026-05-03T12:38:41Z</time></trkpt><trkpt lat="51.03012598483347" lon="17.032714749665143"><ele>132.0</ele><time>2026-05-03T12:38:42Z</time></trkpt><trkpt lat="51.03022577530219" lon="17.03267129251373"><ele>132.0</ele><time>2026-05-03T12:38:43Z</time></trkpt><trkpt lat="51.03032706464714" lon="17.032628280162875"><ele>132.0</ele><time>2026-05-03T12:38:44Z</time></trkpt><trkpt lat="51.03042942932208" lon="17.03258643930282"><ele>132.0</ele><time>2026-05-03T12:38:45Z</time></trkpt><trkpt lat="51.03053138868031" lon="17.032542426091343"><ele>132.0</ele><time>2026-05-03T12:38:46Z</time></trkpt><trkpt lat="51.030634743365916" lon="17.032496868840937"><ele>132.0</ele><time>2026-05-03T12:38:47Z</time></trkpt><trkpt lat="51.03073866256769" lon="17.03245277606263"><ele>132.0</ele><time>2026-05-03T12:38:48Z</time></trkpt><trkpt lat="51.03084183201229" lon="17.03240992322545"><ele>131.79999999999998</ele><time>2026-05-03T12:38:49Z</time></trkpt><trkpt lat="51.03094455339548" lon="17.032365977011704"><ele>131.6</ele><time>2026-05-03T12:38:50Z</time></trkpt><trkpt lat="51.03104725589417" lon="17.03232246520705"><ele>131.39999999999998</ele><time>2026-05-03T12:38:51Z</time></trkpt><trkpt lat="51.03114980914363" lon="17.032277935753243"><ele>131.2</ele><time>2026-05-03T12:38:52Z</time></trkpt><trkpt lat="51.03125165331572" lon="17.032231076936025"><ele>131.0</ele><time>2026-05-03T12:38:53Z</time></trkpt><trkpt lat="51.031354429802676" lon="17.032188415875748"><ele>131.0</ele><time>2026-05-03T12:38:54Z</time></trkpt><trkpt lat="51.03145601209453" lon="17.032145060971708"><ele>131.0</ele><time>2026-05-03T12:38:55Z</time></trkpt><trkpt lat="51.03155671695181" lon="17.032102725110672"><ele>131.0</ele><time>2026-05-03T12:38:56Z</time></trkpt><trkpt lat="51.03165762409034" lon="17.032062037428325"><ele>131.0</ele><time>2026-05-03T12:38:57Z</time></trkpt><trkpt lat="51.03175719310113" lon="17.0320204896678"><ele>131.0</ele><time>2026-05-03T12:38:58Z</time></trkpt><trkpt lat="51.03185668752285" lon="17.031977379965443"><ele>130.8</ele><time>2026-05-03T12:38:59Z</time></trkpt><trkpt lat="51.03195551503947" lon="17.03193515704655"><ele>130.6</ele><time>2026-05-03T12:39:00Z</time></trkpt><trkpt lat="51.03205243569748" lon="17.03189477888717"><ele>130.4</ele><time>2026-05-03T12:39:01Z</time></trkpt><trkpt lat="51.032152137551414" lon="17.031855644221874"><ele>130.2</ele><time>2026-05-03T12:39:02Z</time></trkpt><trkpt lat="51.03225120570504" lon="17.031812961556348"><ele>130.0</ele><time>2026-05-03T12:39:03Z</time></trkpt><trkpt lat="51.032349997463356" lon="17.0317678880775"><ele>130.0</ele><time>2026-05-03T12:39:04Z</time></trkpt><trkpt lat="51.03244751851349" lon="17.03172391846686"><ele>130.0</ele><time>2026-05-03T12:39:05Z</time></trkpt><trkpt lat="51.03254592249838" lon="17.031682085316778"><ele>130.0</ele><time>2026-05-03T12:39:06Z</time></trkpt><trkpt lat="51.03264313952461" lon="17.031640367255115"><ele>130.0</ele><time>2026-05-03T12:39:07Z</time></trkpt><trkpt lat="51.032739466167364" lon="17.031599528088424"><ele>130.0</ele><time>2026-05-03T12:39:08Z</time></trkpt><trkpt lat="51.03283547063799" lon="17.03155887610967"><ele>129.8</ele><time>2026-05-03T12:39:09Z</time></trkpt><trkpt lat="51.032931079788405" lon="17.031517187846415"><ele>129.6</ele><time>2026-05-03T12:39:10Z</time></trkpt><trkpt lat="51.03302645435983" lon="17.03147595037896"><ele>129.4</ele><time>2026-05-03T12:39:11Z</time></trkpt><trkpt lat="51.03312257069916" lon="17.031439902930583"><ele>129.2</ele><time>2026-05-03T12:39:12Z</time></trkpt><trkpt lat="51.03321818784964" lon="17.031399317614035"><ele>129.0</ele><time>2026-05-03T12:39:13Z</time></trkpt><trkpt lat="51.03331318329052" lon="17.03135400088926"><ele>129.0</ele><time>2026-05-03T12:39:14Z</time></trkpt><trkpt lat="51.03340875045938" lon="17.031309127000284"><ele>129.0</ele><time>2026-05-03T12:39:15Z</time></trkpt><trkpt lat="51.033504993815576" lon="17.03126529942643"><ele>129.0</ele><time>2026-05-03T12:39:16Z</time></trkpt><trkpt lat="51.033601402951035" lon="17.031222193031397"><ele>129.0</ele><time>2026-05-03T12:39:17Z</time></trkpt><trkpt lat="51.03369784592564" lon="17.031181483562783"><ele>129.0</ele><time>2026-05-03T12:39:18Z</time></trkpt><trkpt lat="51.03379481920621" lon="17.031141136047864"><ele>129.0</ele><time>2026-05-03T12:39:19Z</time></trkpt><trkpt lat="51.03389129149716" lon="17.03109975267973"><ele>129.0</ele><time>2026-05-03T12:39:20Z</time></trkpt><trkpt lat="51.033988530511394" lon="17.031059609837943"><ele>129.0</ele><time>2026-05-03T12:39:21Z</time></trkpt><trkpt lat="51.03408550897554" lon="17.03102139987144"><ele>129.0</ele><time>2026-05-03T12:39:22Z</time></trkpt><trkpt lat="51.03418168039494" lon="17.030979221610206"><ele>129.0</ele><time>2026-05-03T12:39:23Z</time></trkpt><trkpt lat="51.03427884466959" lon="17.0309354085428"><ele>129.0</ele><time>2026-05-03T12:39:24Z</time></trkpt><trkpt lat="51.03437460124721" lon="17.03089325131913"><ele>129.0</ele><time>2026-05-03T12:39:25Z</time></trkpt><trkpt lat="51.03447103634136" lon="17.030853309249288"><ele>129.0</ele><time>2026-05-03T12:39:26Z</time></trkpt><trkpt lat="51.034567702510515" lon="17.030811859338595"><ele>129.0</ele><time>2026-05-03T12:39:27Z</time></trkpt><trkpt lat="51.03466453225725" lon="17.030773001806004"><ele>129.0</ele><time>2026-05-03T12:39:28Z</time></trkpt><trkpt lat="51.034761229857516" lon="17.030734748067974"><ele>129.0</ele><time>2026-05-03T12:39:29Z</time></trkpt><trkpt lat="51.03485741119015" lon="17.03069155570704"><ele>129.0</ele><time>2026-05-03T12:39:30Z</time></trkpt><trkpt lat="51.034951966599735" lon="17.03064881385629"><ele>129.0</ele><time>2026-05-03T12:39:31Z</time></trkpt><trkpt lat="51.03504841395079" lon="17.03060519938024"><ele>129.0</ele><time>2026-05-03T12:39:32Z</time></trkpt><trkpt lat="51.03514451252879" lon="17.030563916888568"><ele>129.0</ele><time>2026-05-03T12:39:33Z</time></trkpt><trkpt lat="51.035241219536005" lon="17.03052660275749"><ele>128.6</ele><time>2026-05-03T12:39:34Z</time></trkpt><trkpt lat="51.03533842355162" lon="17.03048309481791"><ele>128.2</ele><time>2026-05-03T12:39:35Z</time></trkpt><trkpt lat="51.03543659074739" lon="17.030439409427558"><ele>127.79999999999998</ele><time>2026-05-03T12:39:36Z</time></trkpt><trkpt lat="51.03553459461146" lon="17.030395751456403"><ele>127.39999999999999</ele><time>2026-05-03T12:39:37Z</time></trkpt><trkpt lat="51.03563165912423" lon="17.030349861730034"><ele>127.0</ele><time>2026-05-03T12:39:38Z</time></trkpt><trkpt lat="51.035728572638256" lon="17.030301134399"><ele>127.19999999999999</ele><time>2026-05-03T12:39:39Z</time></trkpt><trkpt lat="51.03582681092475" lon="17.030252815852005"><ele>127.39999999999999</ele><time>2026-05-03T12:39:40Z</time></trkpt><trkpt lat="51.035923210172804" lon="17.030199680791405"><ele>127.60000000000001</ele><time>2026-05-03T12:39:41Z</time></trkpt><trkpt lat="51.03602048279453" lon="17.030146535567056"><ele>127.80000000000001</ele><time>2026-05-03T12:39:42Z</time></trkpt><trkpt lat="51.03611679471587" lon="17.03009536643017"><ele>128.0</ele><time>2026-05-03T12:39:43Z</time></trkpt><trkpt lat="51.0362138630513" lon="17.030041713925442"><ele>128.0</ele><time>2026-05-03T12:39:44Z</time></trkpt><trkpt lat="51.03631073700469" lon="17.02998930487697"><ele>128.0</ele><time>2026-05-03T12:39:45Z</time></trkpt><trkpt lat="51.03640856832153" lon="17.02994473422036"><ele>128.0</ele><time>2026-05-03T12:39:46Z</time></trkpt><trkpt lat="51.03650932849992" lon="17.029906099840094"><ele>128.0</ele><time>2026-05-03T12:39:47Z</time></trkpt><trkpt lat="51.03661215398332" lon="17.029880178763037"><ele>128.0</ele><time>2026-05-03T12:39:48Z</time></trkpt><trkpt lat="51.036714752161586" lon="17.029862549608062"><ele>128.20000000000002</ele><time>2026-05-03T12:39:49Z</time></trkpt><trkpt lat="51.03681744151165" lon="17.029854280316982"><ele>128.4</ele><time>2026-05-03T12:39:50Z</time></trkpt><trkpt lat="51.03691900944586" lon="17.02984853730097"><ele>128.60000000000002</ele><time>2026-05-03T12:39:51Z</time></trkpt><trkpt lat="51.037020239603414" lon="17.02984401359483"><ele>128.8</ele><time>2026-05-03T12:39:52Z</time></trkpt><trkpt lat="51.037121567127606" lon="17.02984828047671"><ele>129.0</ele><time>2026-05-03T12:39:53Z</time></trkpt><trkpt lat="51.037221333770354" lon="17.029851062146086"><ele>129.0</ele><time>2026-05-03T12:39:54Z</time></trkpt><trkpt lat="51.03732120604485" lon="17.029851819122936"><ele>129.0</ele><time>2026-05-03T12:39:55Z</time></trkpt><trkpt lat="51.03741767759442" lon="17.029852573304293"><ele>129.0</ele><time>2026-05-03T12:39:56Z</time></trkpt><trkpt lat="51.0375159324229" lon="17.029853485897085"><ele>129.0</ele><time>2026-05-03T12:39:57Z</time></trkpt><trkpt lat="51.03761315272084" lon="17.029852348365"><ele>129.0</ele><time>2026-05-03T12:39:58Z</time></trkpt><trkpt lat="51.037710943823775" lon="17.029854809268933"><ele>129.0</ele><time>2026-05-03T12:39:59Z</time></trkpt><trkpt lat="51.037807801378214" lon="17.029861226400868"><ele>129.0</ele><time>2026-05-03T12:40:00Z</time></trkpt><trkpt lat="51.03790406772026" lon="17.02986428141451"><ele>129.0</ele><time>2026-05-03T12:40:01Z</time></trkpt><trkpt lat="51.03799927229877" lon="17.02986489240841"><ele>129.0</ele><time>2026-05-03T12:40:02Z</time></trkpt><trkpt lat="51.03809324975753" lon="17.029865003018443"><ele>129.0</ele><time>2026-05-03T12:40:03Z</time></trkpt><trkpt lat="51.0381867010509" lon="17.02986627171242"><ele>129.0</ele><time>2026-05-03T12:40:04Z</time></trkpt><trkpt lat="51.0382806119987" lon="17.029874192996413"><ele>129.0</ele><time>2026-05-03T12:40:05Z</time></trkpt><trkpt lat="51.03837504929014" lon="17.029883756181064"><ele>129.0</ele><time>2026-05-03T12:40:06Z</time></trkpt><trkpt lat="51.0384685762328" lon="17.029894654406274"><ele>129.0</ele><time>2026-05-03T12:40:07Z</time></trkpt><trkpt lat="51.038560842898804" lon="17.029900853640292"><ele>129.0</ele><time>2026-05-03T12:40:08Z</time></trkpt><trkpt lat="51.03865479435869" lon="17.02990786724474"><ele>129.0</ele><time>2026-05-03T12:40:09Z</time></trkpt><trkpt lat="51.03874652360605" lon="17.029918729598947"><ele>129.0</ele><time>2026-05-03T12:40:10Z</time></trkpt><trkpt lat="51.03883842850101" lon="17.029932327048417"><ele>129.0</ele><time>2026-05-03T12:40:11Z</time></trkpt><trkpt lat="51.038930199651304" lon="17.029943172073246"><ele>129.0</ele><time>2026-05-03T12:40:12Z</time></trkpt><trkpt lat="51.03902227675622" lon="17.029945914360557"><ele>129.0</ele><time>2026-05-03T12:40:13Z</time></trkpt><trkpt lat="51.03911509376418" lon="17.029946826389555"><ele>129.0</ele><time>2026-05-03T12:40:14Z</time></trkpt><trkpt lat="51.039206520891284" lon="17.029948455091354"><ele>129.0</ele><time>2026-05-03T12:40:15Z</time></trkpt><trkpt lat="51.03929888770401" lon="17.02994659088204"><ele>129.0</ele><time>2026-05-03T12:40:16Z</time></trkpt><trkpt lat="51.03939197739436" lon="17.029945752835168"><ele>129.0</ele><time>2026-05-03T12:40:17Z</time></trkpt><trkpt lat="51.039485853843146" lon="17.0299424397185"><ele>129.0</ele><time>2026-05-03T12:40:18Z</time></trkpt><trkpt lat="51.0395801803177" lon="17.029938123446883"><ele>129.0</ele><time>2026-05-03T12:40:19Z</time></trkpt><trkpt lat="51.039674651558094" lon="17.02993378503769"><ele>129.0</ele><time>2026-05-03T12:40:20Z</time></trkpt><trkpt lat="51.039769915448474" lon="17.02993085021215"><ele>129.0</ele><time>2026-05-03T12:40:21Z</time></trkpt><trkpt lat="51.03986617703157" lon="17.02992966113421"><ele>129.0</ele><time>2026-05-03T12:40:22Z</time></trkpt><trkpt lat="51.0399626562057" lon="17.029925081841668"><ele>129.0</ele><time>2026-05-03T12:40:23Z</time></trkpt><trkpt lat="51.04006027457005" lon="17.0299182598741"><ele>129.2</ele><time>2026-05-03T12:40:24Z</time></trkpt><trkpt lat="51.04015882014846" lon="17.0299155457295"><ele>129.4</ele><time>2026-05-03T12:40:25Z</time></trkpt><trkpt lat="51.04025524394455" lon="17.02991037484586"><ele>129.6</ele><time>2026-05-03T12:40:26Z</time></trkpt><trkpt lat="51.040352524860765" lon="17.029905684810434"><ele>129.8</ele><time>2026-05-03T12:40:27Z</time></trkpt><trkpt lat="51.040447951991766" lon="17.02988339940494"><ele>130.0</ele><time>2026-05-03T12:40:28Z</time></trkpt><trkpt lat="51.04054345301258" lon="17.02985281763946"><ele>130.0</ele><time>2026-05-03T12:40:29Z</time></trkpt><trkpt lat="51.04063830254839" lon="17.029815733759072"><ele>130.0</ele><time>2026-05-03T12:40:30Z</time></trkpt><trkpt lat="51.04073186660582" lon="17.029769962143828"><ele>130.0</ele><time>2026-05-03T12:40:31Z</time></trkpt><trkpt lat="51.04082451216332" lon="17.029715543797824"><ele>130.0</ele><time>2026-05-03T12:40:32Z</time></trkpt><trkpt lat="51.040915702476845" lon="17.029654549796778"><ele>130.0</ele><time>2026-05-03T12:40:33Z</time></trkpt><trkpt lat="51.04100340101424" lon="17.02958067637311"><ele>130.0</ele><time>2026-05-03T12:40:34Z</time></trkpt><trkpt lat="51.04108835247593" lon="17.02950027975368"><ele>130.0</ele><time>2026-05-03T12:40:35Z</time></trkpt><trkpt lat="51.04117152495823" lon="17.02941393139703"><ele>130.0</ele><time>2026-05-03T12:40:36Z</time></trkpt><trkpt lat="51.041255232983886" lon="17.029326652570106"><ele>130.0</ele><time>2026-05-03T12:40:37Z</time></trkpt><trkpt lat="51.0413384329096" lon="17.02924064129136"><ele>130.0</ele><time>2026-05-03T12:40:38Z</time></trkpt><trkpt lat="51.04142282704952" lon="17.029155700928026"><ele>130.0</ele><time>2026-05-03T12:40:39Z</time></trkpt><trkpt lat="51.041506445420815" lon="17.02907132738152"><ele>130.0</ele><time>2026-05-03T12:40:40Z</time></trkpt><trkpt lat="51.041591669498985" lon="17.02898753733976"><ele>130.0</ele><time>2026-05-03T12:40:41Z</time></trkpt><trkpt lat="51.04167978236556" lon="17.028917517700133"><ele>130.0</ele><time>2026-05-03T12:40:42Z</time></trkpt><trkpt lat="51.04177119792537" lon="17.02885938193356"><ele>130.0</ele><time>2026-05-03T12:40:43Z</time></trkpt><trkpt lat="51.0418642872291" lon="17.028815682301598"><ele>130.0</ele><time>2026-05-03T12:40:44Z</time></trkpt><trkpt lat="51.041958080334744" lon="17.028777318132793"><ele>130.0</ele><time>2026-05-03T12:40:45Z</time></trkpt><trkpt lat="51.04205204945503" lon="17.028755540623695"><ele>130.0</ele><time>2026-05-03T12:40:46Z</time></trkpt><trkpt lat="51.04214445023699" lon="17.028751033694206"><ele>130.0</ele><time>2026-05-03T12:40:47Z</time></trkpt><trkpt lat="51.042226459113905" lon="17.028754029491502"><ele>130.0</ele><time>2026-05-03T12:40:48Z</time></trkpt><trkpt lat="51.04229587678096" lon="17.028760110391566"><ele>130.0</ele><time>2026-05-03T12:40:49Z</time></trkpt><trkpt lat="51.04238638954886" lon="17.028804651173438"><ele>130.0</ele><time>2026-05-03T12:40:51Z</time></trkpt><trkpt lat="51.04244959548384" lon="17.02892285683113"><ele>130.0</ele><time>2026-05-03T12:40:52Z</time></trkpt><trkpt lat="51.04248803338634" lon="17.029146326946034"><ele>130.0</ele><time>2026-05-03T12:40:54Z</time></trkpt><trkpt lat="51.04249822387718" lon="17.02931780158967"><ele>130.0</ele><time>2026-05-03T12:40:56Z</time></trkpt><trkpt lat="51.04243069235021" lon="17.029545919222468"><ele>129.85714285714286</ele><time>2026-05-03T12:40:57Z</time></trkpt><trkpt lat="51.04240145516646" lon="17.02964393009801"><ele>129.71428571428572</ele><time>2026-05-03T12:40:58Z</time></trkpt><trkpt lat="51.042371737055" lon="17.029742630492617"><ele>129.57142857142856</ele><time>2026-05-03T12:40:59Z</time></trkpt><trkpt lat="51.042341071325254" lon="17.029844477946835"><ele>129.42857142857144</ele><time>2026-05-03T12:41:00Z</time></trkpt><trkpt lat="51.04231035463595" lon="17.029946494506312"><ele>129.28571428571428</ele><time>2026-05-03T12:41:01Z</time></trkpt><trkpt lat="51.04228129549879" lon="17.030044783058752"><ele>129.14285714285714</ele><time>2026-05-03T12:41:02Z</time></trkpt><trkpt lat="51.042251297944006" lon="17.030150737560096"><ele>129.0</ele><time>2026-05-03T12:41:03Z</time></trkpt><trkpt lat="51.04222063656492" lon="17.030259036875773"><ele>129.0</ele><time>2026-05-03T12:41:04Z</time></trkpt><trkpt lat="51.04218964231496" lon="17.030368511991345"><ele>129.0</ele><time>2026-05-03T12:41:05Z</time></trkpt><trkpt lat="51.042158440971825" lon="17.030478718573356"><ele>129.0</ele><time>2026-05-03T12:41:06Z</time></trkpt><trkpt lat="51.042127513651685" lon="17.030587957249605"><ele>129.0</ele><time>2026-05-03T12:41:07Z</time></trkpt><trkpt lat="51.042096077571536" lon="17.0306989931222"><ele>129.0</ele><time>2026-05-03T12:41:08Z</time></trkpt><trkpt lat="51.04206433215103" lon="17.03081112133815"><ele>129.0</ele><time>2026-05-03T12:41:09Z</time></trkpt><trkpt lat="51.04203287815014" lon="17.030922220462976"><ele>129.0</ele><time>2026-05-03T12:41:10Z</time></trkpt><trkpt lat="51.04200166731752" lon="17.031032460564848"><ele>129.0</ele><time>2026-05-03T12:41:11Z</time></trkpt><trkpt lat="51.04196955154314" lon="17.03114446998666"><ele>129.0</ele><time>2026-05-03T12:41:12Z</time></trkpt><trkpt lat="51.04193783615253" lon="17.031254734874295"><ele>129.0</ele><time>2026-05-03T12:41:13Z</time></trkpt><trkpt lat="51.041906180880254" lon="17.031364790630047"><ele>129.0</ele><time>2026-05-03T12:41:14Z</time></trkpt><trkpt lat="51.04187471037237" lon="17.031474204068694"><ele>129.0</ele><time>2026-05-03T12:41:15Z</time></trkpt><trkpt lat="51.041841818025546" lon="17.031585215685595"><ele>128.99999999999997</ele><time>2026-05-03T12:41:16Z</time></trkpt><trkpt lat="51.04181058950336" lon="17.031690450961325"><ele>129.0</ele><time>2026-05-03T12:41:17Z</time></trkpt><trkpt lat="51.041777105427194" lon="17.03180070848416"><ele>129.0</ele><time>2026-05-03T12:41:18Z</time></trkpt><trkpt lat="51.0417452439776" lon="17.03190366422857"><ele>129.0</ele><time>2026-05-03T12:41:19Z</time></trkpt><trkpt lat="51.04171489676899" lon="17.032004220952928"><ele>129.0</ele><time>2026-05-03T12:41:20Z</time></trkpt><trkpt lat="51.04168416865448" lon="17.03210619599835"><ele>128.99999999999997</ele><time>2026-05-03T12:41:21Z</time></trkpt><trkpt lat="51.041656773528686" lon="17.032202314305238"><ele>129.0</ele><time>2026-05-03T12:41:22Z</time></trkpt><trkpt lat="51.041627639007416" lon="17.032304520174034"><ele>129.0</ele><time>2026-05-03T12:41:23Z</time></trkpt><trkpt lat="51.041598403126535" lon="17.032407081648294"><ele>129.0</ele><time>2026-05-03T12:41:24Z</time></trkpt><trkpt lat="51.041569352239264" lon="17.0325089941801"><ele>129.0</ele><time>2026-05-03T12:41:25Z</time></trkpt><trkpt lat="51.04153974223968" lon="17.03261286805434"><ele>129.0</ele><time>2026-05-03T12:41:26Z</time></trkpt><trkpt lat="51.041510119465265" lon="17.032716786806276"><ele>129.0</ele><time>2026-05-03T12:41:27Z</time></trkpt><trkpt lat="51.0412747067293" lon="17.03267442252345"><ele>128.99999999999997</ele><time>2026-05-03T12:41:28Z</time></trkpt><trkpt lat="51.04124548340025" lon="17.0327796664431"><ele>129.0</ele><time>2026-05-03T12:41:29Z</time></trkpt><trkpt lat="51.041215968748304" lon="17.032886347100593"><ele>129.0</ele><time>2026-05-03T12:41:30Z</time></trkpt><trkpt lat="51.04118474942721" lon="17.032990347412436"><ele>129.0</ele><time>2026-05-03T12:41:31Z</time></trkpt><trkpt lat="51.041151128722454" lon="17.03309519820521"><ele>129.0</ele><time>2026-05-03T12:41:32Z</time></trkpt><trkpt lat="51.041117903211486" lon="17.03319854956703"><ele>128.99999999999997</ele><time>2026-05-03T12:41:33Z</time></trkpt><trkpt lat="51.04108518216265" lon="17.033304309383908"><ele>129.0</ele><time>2026-05-03T12:41:34Z</time></trkpt><trkpt lat="51.041053687163185" lon="17.033412166566777"><ele>128.83333333333334</ele><time>2026-05-03T12:41:35Z</time></trkpt><trkpt lat="51.04102371865198" lon="17.03351971279621"><ele>128.66666666666666</ele><time>2026-05-03T12:41:36Z</time></trkpt><trkpt lat="51.0409909791808" lon="17.033628228149908"><ele>128.5</ele><time>2026-05-03T12:41:37Z</time></trkpt><trkpt lat="51.04095884808343" lon="17.033735480836683"><ele>128.33333333333331</ele><time>2026-05-03T12:41:38Z</time></trkpt><trkpt lat="51.04092657282904" lon="17.033843765367635"><ele>128.16666666666666</ele><time>2026-05-03T12:41:39Z</time></trkpt><trkpt lat="51.04089693568541" lon="17.033953884241196"><ele>128.0</ele><time>2026-05-03T12:41:40Z</time></trkpt><trkpt lat="51.04086573874852" lon="17.034064139998534"><ele>128.14285714285714</ele><time>2026-05-03T12:41:41Z</time></trkpt><trkpt lat="51.040833971146405" lon="17.034171271093477"><ele>128.28571428571428</ele><time>2026-05-03T12:41:42Z</time></trkpt><trkpt lat="51.04080202280369" lon="17.034280476233643"><ele>128.42857142857142</ele><time>2026-05-03T12:41:43Z</time></trkpt><trkpt lat="51.04077181772318" lon="17.03438635711685"><ele>128.57142857142856</ele><time>2026-05-03T12:41:44Z</time></trkpt><trkpt lat="51.040739724858994" lon="17.034494338912115"><ele>128.71428571428572</ele><time>2026-05-03T12:41:45Z</time></trkpt><trkpt lat="51.04070900965403" lon="17.034599248834915"><ele>128.85714285714283</ele><time>2026-05-03T12:41:46Z</time></trkpt><trkpt lat="51.040677356242284" lon="17.034704745850345"><ele>129.0</ele><time>2026-05-03T12:41:47Z</time></trkpt><trkpt lat="51.0406473915656" lon="17.034807587944844"><ele>128.99999999999997</ele><time>2026-05-03T12:41:48Z</time></trkpt><trkpt lat="51.04061727649565" lon="17.034912080527903"><ele>129.0</ele><time>2026-05-03T12:41:49Z</time></trkpt><trkpt lat="51.04058621964464" lon="17.03501361765903"><ele>129.0</ele><time>2026-05-03T12:41:50Z</time></trkpt><trkpt lat="51.0405554865708" lon="17.03511329978801"><ele>129.0</ele><time>2026-05-03T12:41:51Z</time></trkpt><trkpt lat="51.0405271570731" lon="17.03520925625394"><ele>129.0</ele><time>2026-05-03T12:41:52Z</time></trkpt><trkpt lat="51.040500507476" lon="17.03530547329062"><ele>128.99999999999997</ele><time>2026-05-03T12:41:53Z</time></trkpt><trkpt lat="51.040472142773694" lon="17.035399565947078"><ele>129.0</ele><time>2026-05-03T12:41:54Z</time></trkpt><trkpt lat="51.04044668553044" lon="17.035495427954043"><ele>128.99999999999997</ele><time>2026-05-03T12:41:55Z</time></trkpt><trkpt lat="51.04042039604596" lon="17.035590429847215"><ele>129.0</ele><time>2026-05-03T12:41:56Z</time></trkpt><trkpt lat="51.040392054369036" lon="17.035686434963086"><ele>129.0</ele><time>2026-05-03T12:41:57Z</time></trkpt><trkpt lat="51.04036527353881" lon="17.035781880680506"><ele>129.0</ele><time>2026-05-03T12:41:58Z</time></trkpt><trkpt lat="51.040337026047595" lon="17.035874764079672"><ele>129.0</ele><time>2026-05-03T12:41:59Z</time></trkpt><trkpt lat="51.040308996264784" lon="17.035965391093097"><ele>128.99999999999997</ele><time>2026-05-03T12:42:00Z</time></trkpt><trkpt lat="51.04025838333887" lon="17.036144339088896"><ele>129.0</ele><time>2026-05-03T12:42:02Z</time></trkpt><trkpt lat="51.040209095776184" lon="17.036319968559543"><ele>129.0</ele><time>2026-05-03T12:42:04Z</time></trkpt><trkpt lat="51.040157000073826" lon="17.036495711770947"><ele>129.0</ele><time>2026-05-03T12:42:06Z</time></trkpt><trkpt lat="51.04010647447365" lon="17.036667746758013"><ele>129.0</ele><time>2026-05-03T12:42:08Z</time></trkpt><trkpt lat="51.04005668247079" lon="17.036843809981033"><ele>129.0</ele><time>2026-05-03T12:42:10Z</time></trkpt><trkpt lat="51.04000698390029" lon="17.037021563557264"><ele>129.14285714285714</ele><time>2026-05-03T12:42:12Z</time></trkpt><trkpt lat="51.03994993532357" lon="17.037195526472985"><ele>129.28571428571428</ele><time>2026-05-03T12:42:14Z</time></trkpt><trkpt lat="51.039921086251766" lon="17.037285961027578"><ele>129.42857142857144</ele><time>2026-05-03T12:42:15Z</time></trkpt><trkpt lat="51.039893168301134" lon="17.03737786836943"><ele>129.57142857142856</ele><time>2026-05-03T12:42:16Z</time></trkpt><trkpt lat="51.039867142322485" lon="17.03747225734226"><ele>129.71428571428572</ele><time>2026-05-03T12:42:17Z</time></trkpt><trkpt lat="51.039840419446676" lon="17.037565670570064"><ele>129.85714285714286</ele><time>2026-05-03T12:42:18Z</time></trkpt><trkpt lat="51.03981238325632" lon="17.037658019956307"><ele>130.0</ele><time>2026-05-03T12:42:19Z</time></trkpt><trkpt lat="51.03975898314486" lon="17.037840884060355"><ele>130.00000000000003</ele><time>2026-05-03T12:42:21Z</time></trkpt><trkpt lat="51.0397288086097" lon="17.037929731061173"><ele>130.0</ele><time>2026-05-03T12:42:22Z</time></trkpt><trkpt lat="51.03970056192752" lon="17.03801946826961"><ele>130.0</ele><time>2026-05-03T12:42:23Z</time></trkpt><trkpt lat="51.03966962176208" lon="17.038108431099797"><ele>130.0</ele><time>2026-05-03T12:42:24Z</time></trkpt><trkpt lat="51.03961407168439" lon="17.038286567547363"><ele>130.0</ele><time>2026-05-03T12:42:26Z</time></trkpt><trkpt lat="51.039587143516606" lon="17.038377909068068"><ele>130.00000000000003</ele><time>2026-05-03T12:42:27Z</time></trkpt><trkpt lat="51.03955742969493" lon="17.038469061361262"><ele>130.0</ele><time>2026-05-03T12:42:28Z</time></trkpt><trkpt lat="51.03950490661406" lon="17.038651252940685"><ele>130.25</ele><time>2026-05-03T12:42:30Z</time></trkpt><trkpt lat="51.039452181105" lon="17.038830517500895"><ele>130.5</ele><time>2026-05-03T12:42:32Z</time></trkpt><trkpt lat="51.03939574543025" lon="17.039005622308796"><ele>130.75</ele><time>2026-05-03T12:42:34Z</time></trkpt><trkpt lat="51.03934216516718" lon="17.039182245693226"><ele>131.0</ele><time>2026-05-03T12:42:36Z</time></trkpt><trkpt lat="51.039289119701984" lon="17.0393604053537"><ele>131.0</ele><time>2026-05-03T12:42:38Z</time></trkpt><trkpt lat="51.03923487892465" lon="17.0395370536755"><ele>131.0</ele><time>2026-05-03T12:42:40Z</time></trkpt><trkpt lat="51.03917905625606" lon="17.039714881248035"><ele>131.0</ele><time>2026-05-03T12:42:42Z</time></trkpt><trkpt lat="51.03915109791828" lon="17.039805266599156"><ele>131.0</ele><time>2026-05-03T12:42:43Z</time></trkpt><trkpt lat="51.03912336960237" lon="17.03989815842883"><ele>131.0</ele><time>2026-05-03T12:42:44Z</time></trkpt><trkpt lat="51.03909630896402" lon="17.039990818721552"><ele>131.0</ele><time>2026-05-03T12:42:45Z</time></trkpt><trkpt lat="51.03906858628517" lon="17.04008175003615"><ele>131.0</ele><time>2026-05-03T12:42:46Z</time></trkpt><trkpt lat="51.03903928789785" lon="17.04017059722567"><ele>131.0</ele><time>2026-05-03T12:42:47Z</time></trkpt><trkpt lat="51.03898374011266" lon="17.04034849730955"><ele>131.0</ele><time>2026-05-03T12:42:49Z</time></trkpt><trkpt lat="51.03892897668516" lon="17.040526819834508"><ele>131.0</ele><time>2026-05-03T12:42:51Z</time></trkpt><trkpt lat="51.038902525884" lon="17.040618786723904"><ele>131.0</ele><time>2026-05-03T12:42:52Z</time></trkpt><trkpt lat="51.038876116440605" lon="17.040710258983502"><ele>131.0</ele><time>2026-05-03T12:42:53Z</time></trkpt><trkpt lat="51.03884959733955" lon="17.040802353529706"><ele>131.14285714285714</ele><time>2026-05-03T12:42:54Z</time></trkpt><trkpt lat="51.03882101914032" lon="17.040893640366722"><ele>131.2857142857143</ele><time>2026-05-03T12:42:55Z</time></trkpt><trkpt lat="51.038795315797124" lon="17.040986199944285"><ele>131.42857142857144</ele><time>2026-05-03T12:42:56Z</time></trkpt><trkpt lat="51.03877014928419" lon="17.041079296515395"><ele>131.57142857142858</ele><time>2026-05-03T12:42:57Z</time></trkpt><trkpt lat="51.0387445803971" lon="17.04117261574005"><ele>131.71428571428572</ele><time>2026-05-03T12:42:58Z</time></trkpt><trkpt lat="51.03871760336297" lon="17.041263487552275"><ele>131.85714285714286</ele><time>2026-05-03T12:42:59Z</time></trkpt><trkpt lat="51.03866435167777" lon="17.041441667455093"><ele>132.0</ele><time>2026-05-03T12:43:01Z</time></trkpt><trkpt lat="51.03861684592864" lon="17.04162106642555"><ele>132.0</ele><time>2026-05-03T12:43:03Z</time></trkpt><trkpt lat="51.03857551111568" lon="17.041802392481653"><ele>132.0</ele><time>2026-05-03T12:43:05Z</time></trkpt><trkpt lat="51.03853531788347" lon="17.04198640999108"><ele>132.0</ele><time>2026-05-03T12:43:07Z</time></trkpt><trkpt lat="51.03850314761425" lon="17.04217551014872"><ele>132.0</ele><time>2026-05-03T12:43:09Z</time></trkpt><trkpt lat="51.03848112930672" lon="17.04236941575226"><ele>132.0</ele><time>2026-05-03T12:43:11Z</time></trkpt><trkpt lat="51.038461781768355" lon="17.04255989867154"><ele>132.0</ele><time>2026-05-03T12:43:13Z</time></trkpt><trkpt lat="51.03844864375398" lon="17.04275347114566"><ele>132.0</ele><time>2026-05-03T12:43:15Z</time></trkpt><trkpt lat="51.03844280126877" lon="17.042853478660145"><ele>132.0</ele><time>2026-05-03T12:43:16Z</time></trkpt><trkpt lat="51.03843797235675" lon="17.042953455780548"><ele>132.0</ele><time>2026-05-03T12:43:17Z</time></trkpt><trkpt lat="51.03843260028508" lon="17.04305534829089"><ele>132.0</ele><time>2026-05-03T12:43:18Z</time></trkpt><trkpt lat="51.038415314208294" lon="17.043250213040984"><ele>132.0</ele><time>2026-05-03T12:43:20Z</time></trkpt><trkpt lat="51.03837036288157" lon="17.043421418627517"><ele>132.0</ele><time>2026-05-03T12:43:22Z</time></trkpt><trkpt lat="51.03830661697835" lon="17.043581891339798"><ele>132.0</ele><time>2026-05-03T12:43:24Z</time></trkpt><trkpt lat="51.0382659092352" lon="17.04377053908042"><ele>132.0</ele><time>2026-05-03T12:43:26Z</time></trkpt><trkpt lat="51.03826689365921" lon="17.043874327237354"><ele>132.0</ele><time>2026-05-03T12:43:27Z</time></trkpt><trkpt lat="51.03829871756413" lon="17.044068980437807"><ele>132.14285714285714</ele><time>2026-05-03T12:43:29Z</time></trkpt><trkpt lat="51.03833508518778" lon="17.044158550288014"><ele>132.28571428571428</ele><time>2026-05-03T12:43:30Z</time></trkpt><trkpt lat="51.03838323388006" lon="17.04422908423058"><ele>132.42857142857144</ele><time>2026-05-03T12:43:31Z</time></trkpt><trkpt lat="51.038437306926134" lon="17.044298962212412"><ele>132.57142857142856</ele><time>2026-05-03T12:43:32Z</time></trkpt><trkpt lat="51.038494163812416" lon="17.04436562326853"><ele>132.71428571428572</ele><time>2026-05-03T12:43:33Z</time></trkpt><trkpt lat="51.038554345351" lon="17.04441106694235"><ele>132.85714285714286</ele><time>2026-05-03T12:43:34Z</time></trkpt><trkpt lat="51.038622907114096" lon="17.044431258930036"><ele>133.0</ele><time>2026-05-03T12:43:35Z</time></trkpt><trkpt lat="51.038695693065094" lon="17.044413307895024"><ele>133.0</ele><time>2026-05-03T12:43:36Z</time></trkpt><trkpt lat="51.03876638567801" lon="17.04438842523753"><ele>133.0</ele><time>2026-05-03T12:43:37Z</time></trkpt><trkpt lat="51.03883586508357" lon="17.04437178213798"><ele>133.0</ele><time>2026-05-03T12:43:38Z</time></trkpt><trkpt lat="51.03890164900145" lon="17.044393303210704"><ele>133.0</ele><time>2026-05-03T12:43:39Z</time></trkpt><trkpt lat="51.03894777027817" lon="17.044486024661417"><ele>133.0</ele><time>2026-05-03T12:43:40Z</time></trkpt><trkpt lat="51.038963313746855" lon="17.044613076386593"><ele>133.0</ele><time>2026-05-03T12:43:41Z</time></trkpt><trkpt lat="51.038973733352414" lon="17.044732902156063"><ele>133.0</ele><time>2026-05-03T12:43:42Z</time></trkpt><trkpt lat="51.038993522209616" lon="17.04484163477146"><ele>133.0</ele><time>2026-05-03T12:43:43Z</time></trkpt><trkpt lat="51.03902389231894" lon="17.044944284916134"><ele>133.0</ele><time>2026-05-03T12:43:44Z</time></trkpt><trkpt lat="51.039058058485864" lon="17.04504904109256"><ele>133.0</ele><time>2026-05-03T12:43:45Z</time></trkpt><trkpt lat="51.03909369932408" lon="17.045151776835564"><ele>133.0</ele><time>2026-05-03T12:43:46Z</time></trkpt><trkpt lat="51.039132205022945" lon="17.04525521293327"><ele>133.0</ele><time>2026-05-03T12:43:47Z</time></trkpt><trkpt lat="51.03917217318467" lon="17.04535965271163"><ele>133.0</ele><time>2026-05-03T12:43:48Z</time></trkpt><trkpt lat="51.039211407936975" lon="17.045465953055803"><ele>133.0</ele><time>2026-05-03T12:43:49Z</time></trkpt><trkpt lat="51.0392528970935" lon="17.045572797701215"><ele>133.0</ele><time>2026-05-03T12:43:50Z</time></trkpt><trkpt lat="51.03929457010213" lon="17.045681245698077"><ele>133.0</ele><time>2026-05-03T12:43:51Z</time></trkpt><trkpt lat="51.03933477379831" lon="17.045791921028737"><ele>133.0</ele><time>2026-05-03T12:43:52Z</time></trkpt><trkpt lat="51.03937591815062" lon="17.045902883754536"><ele>133.0</ele><time>2026-05-03T12:43:53Z</time></trkpt><trkpt lat="51.03941902094631" lon="17.046017193835777"><ele>133.0</ele><time>2026-05-03T12:43:54Z</time></trkpt><trkpt lat="51.03946471971394" lon="17.046130103410043"><ele>133.0</ele><time>2026-05-03T12:43:55Z</time></trkpt><trkpt lat="51.03951231478363" lon="17.04624321983399"><ele>133.0</ele><time>2026-05-03T12:43:56Z</time></trkpt><trkpt lat="51.0395591427242" lon="17.046356804664985"><ele>133.0</ele><time>2026-05-03T12:43:57Z</time></trkpt><trkpt lat="51.03960647521626" lon="17.04647078102325"><ele>133.0</ele><time>2026-05-03T12:43:58Z</time></trkpt><trkpt lat="51.03965289082278" lon="17.046591041309604"><ele>133.0</ele><time>2026-05-03T12:43:59Z</time></trkpt><trkpt lat="51.039696054300734" lon="17.046710851600096"><ele>133.0</ele><time>2026-05-03T12:44:00Z</time></trkpt><trkpt lat="51.0397440681115" lon="17.046830861510998"><ele>133.0</ele><time>2026-05-03T12:44:01Z</time></trkpt><trkpt lat="51.0397915481206" lon="17.04695315599115"><ele>133.0</ele><time>2026-05-03T12:44:02Z</time></trkpt><trkpt lat="51.03983729851088" lon="17.047074800084182"><ele>133.0</ele><time>2026-05-03T12:44:03Z</time></trkpt><trkpt lat="51.039884149761654" lon="17.047199331730443"><ele>133.0</ele><time>2026-05-03T12:44:04Z</time></trkpt><trkpt lat="51.03993203610809" lon="17.047324544283537"><ele>133.0</ele><time>2026-05-03T12:44:05Z</time></trkpt><trkpt lat="51.039980328662715" lon="17.04744932271747"><ele>133.0</ele><time>2026-05-03T12:44:06Z</time></trkpt><trkpt lat="51.0400305676874" lon="17.04757156381992"><ele>132.6</ele><time>2026-05-03T12:44:07Z</time></trkpt><trkpt lat="51.0400817686259" lon="17.047695888287024"><ele>132.20000000000002</ele><time>2026-05-03T12:44:08Z</time></trkpt><trkpt lat="51.040131220932594" lon="17.04782051863626"><ele>131.8</ele><time>2026-05-03T12:44:09Z</time></trkpt><trkpt lat="51.040180249489204" lon="17.04794612743233"><ele>131.4</ele><time>2026-05-03T12:44:10Z</time></trkpt><trkpt lat="51.04023008141447" lon="17.048074284730735"><ele>131.0</ele><time>2026-05-03T12:44:11Z</time></trkpt><trkpt lat="51.04027903273714" lon="17.04819965998291"><ele>131.0</ele><time>2026-05-03T12:44:12Z</time></trkpt><trkpt lat="51.040327920872635" lon="17.048328096845022"><ele>131.0</ele><time>2026-05-03T12:44:13Z</time></trkpt><trkpt lat="51.04037714980789" lon="17.048455329352308"><ele>131.0</ele><time>2026-05-03T12:44:14Z</time></trkpt><trkpt lat="51.04042787057439" lon="17.048584958550588"><ele>131.0</ele><time>2026-05-03T12:44:15Z</time></trkpt><trkpt lat="51.04047840978865" lon="17.04871192990368"><ele>131.0</ele><time>2026-05-03T12:44:16Z</time></trkpt><trkpt lat="51.04052691367058" lon="17.0488426311154"><ele>131.0</ele><time>2026-05-03T12:44:17Z</time></trkpt><trkpt lat="51.040573883423335" lon="17.048973602221924"><ele>131.0</ele><time>2026-05-03T12:44:18Z</time></trkpt><trkpt lat="51.04062180026766" lon="17.04910590593299"><ele>131.0</ele><time>2026-05-03T12:44:19Z</time></trkpt><trkpt lat="51.04067226271809" lon="17.049233523524446"><ele>131.0</ele><time>2026-05-03T12:44:20Z</time></trkpt><trkpt lat="51.04072378473528" lon="17.049363184932577"><ele>131.0</ele><time>2026-05-03T12:44:21Z</time></trkpt><trkpt lat="51.04077471304407" lon="17.04949284121078"><ele>131.0</ele><time>2026-05-03T12:44:22Z</time></trkpt><trkpt lat="51.04082645734622" lon="17.049623992796526"><ele>131.0</ele><time>2026-05-03T12:44:23Z</time></trkpt><trkpt lat="51.04087756877304" lon="17.049756567610082"><ele>131.0</ele><time>2026-05-03T12:44:24Z</time></trkpt><trkpt lat="51.04092928967164" lon="17.049888542879998"><ele>131.0</ele><time>2026-05-03T12:44:25Z</time></trkpt><trkpt lat="51.04098408515161" lon="17.05001923334374"><ele>131.0</ele><time>2026-05-03T12:44:26Z</time></trkpt><trkpt lat="51.041035701178245" lon="17.05015108849043"><ele>131.0</ele><time>2026-05-03T12:44:27Z</time></trkpt><trkpt lat="51.04109099435778" lon="17.050283017295783"><ele>131.0</ele><time>2026-05-03T12:44:28Z</time></trkpt><trkpt lat="51.04114224576233" lon="17.050416757282157"><ele>131.0</ele><time>2026-05-03T12:44:29Z</time></trkpt><trkpt lat="51.04119374030184" lon="17.050552014536233"><ele>131.0</ele><time>2026-05-03T12:44:30Z</time></trkpt><trkpt lat="51.04124778159525" lon="17.050685048363412"><ele>131.0</ele><time>2026-05-03T12:44:31Z</time></trkpt><trkpt lat="51.0413014504374" lon="17.05082187738555"><ele>130.8</ele><time>2026-05-03T12:44:32Z</time></trkpt><trkpt lat="51.04135439943235" lon="17.05095880206308"><ele>130.6</ele><time>2026-05-03T12:44:33Z</time></trkpt><trkpt lat="51.04140935572543" lon="17.051095859205738"><ele>130.4</ele><time>2026-05-03T12:44:34Z</time></trkpt><trkpt lat="51.04146475283048" lon="17.051231916917985"><ele>130.2</ele><time>2026-05-03T12:44:35Z</time></trkpt><trkpt lat="51.04152299899649" lon="17.051367405711108"><ele>130.0</ele><time>2026-05-03T12:44:36Z</time></trkpt><trkpt lat="51.04158176281815" lon="17.05150118736601"><ele>130.0</ele><time>2026-05-03T12:44:37Z</time></trkpt><trkpt lat="51.041639784720736" lon="17.05163725283104"><ele>130.0</ele><time>2026-05-03T12:44:38Z</time></trkpt><trkpt lat="51.04169708121432" lon="17.051770943640065"><ele>130.0</ele><time>2026-05-03T12:44:39Z</time></trkpt><trkpt lat="51.041752675130134" lon="17.051903215928483"><ele>130.0</ele><time>2026-05-03T12:44:40Z</time></trkpt><trkpt lat="51.0418074221702" lon="17.052038481505107"><ele>130.0</ele><time>2026-05-03T12:44:41Z</time></trkpt><trkpt lat="51.04186023905842" lon="17.05217118956291"><ele>130.0</ele><time>2026-05-03T12:44:42Z</time></trkpt><trkpt lat="51.0417272969476" lon="17.052453227233457"><ele>130.0</ele><time>2026-05-03T12:44:43Z</time></trkpt><trkpt lat="51.04177259691856" lon="17.05259227595292"><ele>130.0</ele><time>2026-05-03T12:44:44Z</time></trkpt><trkpt lat="51.0418124735547" lon="17.05272123261407"><ele>130.0</ele><time>2026-05-03T12:44:45Z</time></trkpt><trkpt lat="51.04185425743897" lon="17.05285932022509"><ele>130.0</ele><time>2026-05-03T12:44:46Z</time></trkpt><trkpt lat="51.04189732795138" lon="17.05300165951352"><ele>130.0</ele><time>2026-05-03T12:44:47Z</time></trkpt><trkpt lat="51.04194003641156" lon="17.05314280248231"><ele>130.0</ele><time>2026-05-03T12:44:48Z</time></trkpt><trkpt lat="51.04197981237479" lon="17.053278627670387"><ele>130.0</ele><time>2026-05-03T12:44:49Z</time></trkpt><trkpt lat="51.04202020487777" lon="17.053419975145495"><ele>130.0</ele><time>2026-05-03T12:44:50Z</time></trkpt><trkpt lat="51.0420611779255" lon="17.05356335389891"><ele>130.0</ele><time>2026-05-03T12:44:51Z</time></trkpt><trkpt lat="51.04210150412582" lon="17.053704468900527"><ele>130.0</ele><time>2026-05-03T12:44:52Z</time></trkpt><trkpt lat="51.04213873061164" lon="17.05384058178769"><ele>130.0</ele><time>2026-05-03T12:44:53Z</time></trkpt><trkpt lat="51.04217722950399" lon="17.053982867217115"><ele>130.0</ele><time>2026-05-03T12:44:54Z</time></trkpt><trkpt lat="51.042214917890085" lon="17.054122156569058"><ele>130.0</ele><time>2026-05-03T12:44:55Z</time></trkpt><trkpt lat="51.04224903308655" lon="17.054254683692086"><ele>130.0</ele><time>2026-05-03T12:44:56Z</time></trkpt><trkpt lat="51.04228409971593" lon="17.054396890380836"><ele>130.0</ele><time>2026-05-03T12:44:57Z</time></trkpt><trkpt lat="51.04231883743041" lon="17.054537763632002"><ele>130.0</ele><time>2026-05-03T12:44:58Z</time></trkpt><trkpt lat="51.04234894532604" lon="17.054669227920066"><ele>130.0</ele><time>2026-05-03T12:44:59Z</time></trkpt><trkpt lat="51.042380482416156" lon="17.05481464561641"><ele>130.0</ele><time>2026-05-03T12:45:00Z</time></trkpt><trkpt lat="51.04241196941757" lon="17.05495983208097"><ele>130.0</ele><time>2026-05-03T12:45:01Z</time></trkpt><trkpt lat="51.042440992392784" lon="17.0551030033356"><ele>130.0</ele><time>2026-05-03T12:45:02Z</time></trkpt><trkpt lat="51.04246734003013" lon="17.05524017479464"><ele>130.0</ele><time>2026-05-03T12:45:03Z</time></trkpt><trkpt lat="51.042495115362755" lon="17.055385814705897"><ele>130.0</ele><time>2026-05-03T12:45:04Z</time></trkpt><trkpt lat="51.04252015766213" lon="17.055519384040554"><ele>130.0</ele><time>2026-05-03T12:45:05Z</time></trkpt><trkpt lat="51.042544096115535" lon="17.055661873490475"><ele>130.0</ele><time>2026-05-03T12:45:06Z</time></trkpt><trkpt lat="51.04256768248507" lon="17.05580226688639"><ele>130.0</ele><time>2026-05-03T12:45:07Z</time></trkpt><trkpt lat="51.042590985836085" lon="17.05594097617966"><ele>130.0</ele><time>2026-05-03T12:45:08Z</time></trkpt><trkpt lat="51.042610696001105" lon="17.056072132027243"><ele>130.0</ele><time>2026-05-03T12:45:09Z</time></trkpt><trkpt lat="51.04263116987525" lon="17.05621375299664"><ele>130.0</ele><time>2026-05-03T12:45:10Z</time></trkpt><trkpt lat="51.0426519630712" lon="17.056357582306706"><ele>130.0</ele><time>2026-05-03T12:45:11Z</time></trkpt><trkpt lat="51.04267080659862" lon="17.056495296428096"><ele>130.0</ele><time>2026-05-03T12:45:12Z</time></trkpt><trkpt lat="51.04268848242834" lon="17.056645931288173"><ele>130.0</ele><time>2026-05-03T12:45:13Z</time></trkpt><trkpt lat="51.04270615253602" lon="17.05679651819795"><ele>130.0</ele><time>2026-05-03T12:45:14Z</time></trkpt><trkpt lat="51.0427233700093" lon="17.05694324671148"><ele>130.0</ele><time>2026-05-03T12:45:15Z</time></trkpt><trkpt lat="51.04273609407781" lon="17.057081660260643"><ele>129.8</ele><time>2026-05-03T12:45:16Z</time></trkpt><trkpt lat="51.042749537913025" lon="17.057226083726604"><ele>129.6</ele><time>2026-05-03T12:45:17Z</time></trkpt><trkpt lat="51.04276314509789" lon="17.057372262295157"><ele>129.4</ele><time>2026-05-03T12:45:18Z</time></trkpt><trkpt lat="51.04277482815639" lon="17.05751229260885"><ele>129.2</ele><time>2026-05-03T12:45:19Z</time></trkpt><trkpt lat="51.0427861465338" lon="17.057655496603143"><ele>129.0</ele><time>2026-05-03T12:45:20Z</time></trkpt><trkpt lat="51.04279734144636" lon="17.057797137243995"><ele>129.0</ele><time>2026-05-03T12:45:21Z</time></trkpt><trkpt lat="51.042807176075264" lon="17.057933496063626"><ele>129.0</ele><time>2026-05-03T12:45:22Z</time></trkpt><trkpt lat="51.04281575851137" lon="17.05807729597647"><ele>129.0</ele><time>2026-05-03T12:45:23Z</time></trkpt><trkpt lat="51.04282419449317" lon="17.058218641524235"><ele>129.0</ele><time>2026-05-03T12:45:24Z</time></trkpt><trkpt lat="51.042831571639674" lon="17.058355101678703"><ele>129.0</ele><time>2026-05-03T12:45:25Z</time></trkpt><trkpt lat="51.04283824126324" lon="17.058497017904745"><ele>129.0</ele><time>2026-05-03T12:45:26Z</time></trkpt><trkpt lat="51.0428447981688" lon="17.05863653495041"><ele>128.8</ele><time>2026-05-03T12:45:27Z</time></trkpt><trkpt lat="51.04300301678101" lon="17.058758487513263"><ele>128.60000000000002</ele><time>2026-05-03T12:45:28Z</time></trkpt><trkpt lat="51.04301318948179" lon="17.0588968892012"><ele>128.4</ele><time>2026-05-03T12:45:29Z</time></trkpt><trkpt lat="51.043025763394276" lon="17.059035951803303"><ele>128.20000000000002</ele><time>2026-05-03T12:45:30Z</time></trkpt><trkpt lat="51.04304222433469" lon="17.059174065798672"><ele>128.0</ele><time>2026-05-03T12:45:31Z</time></trkpt><trkpt lat="51.04305647587563" lon="17.05931268820793"><ele>127.99999999999999</ele><time>2026-05-03T12:45:32Z</time></trkpt><trkpt lat="51.04306988155567" lon="17.059449932704897"><ele>128.0</ele><time>2026-05-03T12:45:33Z</time></trkpt><trkpt lat="51.04308962154118" lon="17.05958326054786"><ele>128.0</ele><time>2026-05-03T12:45:34Z</time></trkpt><trkpt lat="51.04314163504302" lon="17.05969168374931"><ele>128.0</ele><time>2026-05-03T12:45:35Z</time></trkpt><trkpt lat="51.043207045465536" lon="17.059779934033102"><ele>127.99999999999999</ele><time>2026-05-03T12:45:36Z</time></trkpt><trkpt lat="51.04322711163546" lon="17.05989523230551"><ele>128.0</ele><time>2026-05-03T12:45:37Z</time></trkpt><trkpt lat="51.043212814885194" lon="17.060019294621384"><ele>127.83333333333333</ele><time>2026-05-03T12:45:38Z</time></trkpt><trkpt lat="51.04319803397645" lon="17.06013602601019"><ele>127.66666666666666</ele><time>2026-05-03T12:45:39Z</time></trkpt><trkpt lat="51.043187948431175" lon="17.060241276712965"><ele>127.5</ele><time>2026-05-03T12:45:40Z</time></trkpt><trkpt lat="51.043179929307286" lon="17.060349587553237"><ele>127.33333333333334</ele><time>2026-05-03T12:45:41Z</time></trkpt><trkpt lat="51.043172679506085" lon="17.060456380128024"><ele>127.16666666666667</ele><time>2026-05-03T12:45:42Z</time></trkpt><trkpt lat="51.04310754517886" lon="17.060604032689596"><ele>127.0</ele><time>2026-05-03T12:45:44Z</time></trkpt><trkpt lat="51.042996497870135" lon="17.060598613322146"><ele>127.0</ele><time>2026-05-03T12:45:46Z</time></trkpt><trkpt lat="51.042921872376155" lon="17.06062067430378"><ele>126.99999999999999</ele><time>2026-05-03T12:45:48Z</time></trkpt><trkpt lat="51.042863060287374" lon="17.06070208118423"><ele>126.99999999999999</ele><time>2026-05-03T12:45:50Z</time></trkpt><trkpt lat="51.04285479418944" lon="17.060865997726236"><ele>127.0</ele><time>2026-05-03T12:45:52Z</time></trkpt><trkpt lat="51.04280094926857" lon="17.06099307199298"><ele>127.0</ele><time>2026-05-03T12:45:54Z</time></trkpt><trkpt lat="51.04272191780138" lon="17.06110004183452"><ele>127.0</ele><time>2026-05-03T12:45:56Z</time></trkpt><trkpt lat="51.04266933828224" lon="17.06121632004533"><ele>126.99999999999999</ele><time>2026-05-03T12:45:58Z</time></trkpt><trkpt lat="51.04266073236891" lon="17.0613523291268"><ele>126.99999999999999</ele><time>2026-05-03T12:46:00Z</time></trkpt><trkpt lat="51.042681715337864" lon="17.0615061467299"><ele>127.0</ele><time>2026-05-03T12:46:02Z</time></trkpt><trkpt lat="51.04273895786511" lon="17.061666894240055"><ele>127.0</ele><time>2026-05-03T12:46:04Z</time></trkpt><trkpt lat="51.04283852770667" lon="17.06179245231077"><ele>127.0</ele><time>2026-05-03T12:46:06Z</time></trkpt><trkpt lat="51.04288601034278" lon="17.06186719875222"><ele>127.0</ele><time>2026-05-03T12:46:07Z</time></trkpt><trkpt lat="51.04291208910406" lon="17.061972762777796"><ele>127.0</ele><time>2026-05-03T12:46:08Z</time></trkpt><trkpt lat="51.04290591313147" lon="17.06209017670288"><ele>127.0</ele><time>2026-05-03T12:46:09Z</time></trkpt><trkpt lat="51.042882461852834" lon="17.06221243396315"><ele>127.0</ele><time>2026-05-03T12:46:10Z</time></trkpt><trkpt lat="51.0428693597215" lon="17.062334648604523"><ele>127.0</ele><time>2026-05-03T12:46:11Z</time></trkpt><trkpt lat="51.04286272091397" lon="17.0624561854445"><ele>127.0</ele><time>2026-05-03T12:46:12Z</time></trkpt><trkpt lat="51.04285856795039" lon="17.06258901347698"><ele>127.00000000000001</ele><time>2026-05-03T12:46:13Z</time></trkpt><trkpt lat="51.042850685042346" lon="17.06272294022158"><ele>127.0</ele><time>2026-05-03T12:46:14Z</time></trkpt><trkpt lat="51.042839845114784" lon="17.06285967846454"><ele>127.0</ele><time>2026-05-03T12:46:15Z</time></trkpt><trkpt lat="51.04282641675777" lon="17.062999394885498"><ele>127.0</ele><time>2026-05-03T12:46:16Z</time></trkpt><trkpt lat="51.042810667925394" lon="17.063137294778457"><ele>127.00000000000001</ele><time>2026-05-03T12:46:17Z</time></trkpt><trkpt lat="51.0427964518636" lon="17.063279562398428"><ele>127.0</ele><time>2026-05-03T12:46:18Z</time></trkpt><trkpt lat="51.04278051093498" lon="17.063419336156137"><ele>126.83333333333334</ele><time>2026-05-03T12:46:19Z</time></trkpt><trkpt lat="51.04276574433068" lon="17.06355665898693"><ele>126.66666666666667</ele><time>2026-05-03T12:46:20Z</time></trkpt><trkpt lat="51.042743833716145" lon="17.063695545245842"><ele>126.5</ele><time>2026-05-03T12:46:21Z</time></trkpt><trkpt lat="51.04272182737816" lon="17.06383065790886"><ele>126.33333333333334</ele><time>2026-05-03T12:46:22Z</time></trkpt><trkpt lat="51.042697674596845" lon="17.063965116852227"><ele>126.16666666666667</ele><time>2026-05-03T12:46:23Z</time></trkpt><trkpt lat="51.04267454363506" lon="17.06409593887147"><ele>126.0</ele><time>2026-05-03T12:46:24Z</time></trkpt><trkpt lat="51.042651647679115" lon="17.064223540795528"><ele>126.0</ele><time>2026-05-03T12:46:25Z</time></trkpt><trkpt lat="51.04262868001758" lon="17.06434647015966"><ele>126.0</ele><time>2026-05-03T12:46:26Z</time></trkpt><trkpt lat="51.042603943353924" lon="17.06446582722155"><ele>126.0</ele><time>2026-05-03T12:46:27Z</time></trkpt><trkpt lat="51.04257786466746" lon="17.064584894271672"><ele>126.0</ele><time>2026-05-03T12:46:28Z</time></trkpt><trkpt lat="51.042553137779116" lon="17.064699015551334"><ele>126.0</ele><time>2026-05-03T12:46:29Z</time></trkpt><trkpt lat="51.04252571299891" lon="17.06480653549025"><ele>126.0</ele><time>2026-05-03T12:46:30Z</time></trkpt><trkpt lat="51.042499978465834" lon="17.064912612772957"><ele>126.14285714285714</ele><time>2026-05-03T12:46:31Z</time></trkpt><trkpt lat="51.04247407795379" lon="17.065012620036445"><ele>126.28571428571428</ele><time>2026-05-03T12:46:32Z</time></trkpt><trkpt lat="51.04245012387168" lon="17.065114343014297"><ele>126.42857142857143</ele><time>2026-05-03T12:46:33Z</time></trkpt><trkpt lat="51.04242508440913" lon="17.065212890633376"><ele>126.57142857142857</ele><time>2026-05-03T12:46:34Z</time></trkpt><trkpt lat="51.04239518648207" lon="17.065309229891557"><ele>126.71428571428571</ele><time>2026-05-03T12:46:35Z</time></trkpt><trkpt lat="51.04236439531238" lon="17.06539859884664"><ele>126.85714285714286</ele><time>2026-05-03T12:46:36Z</time></trkpt><trkpt lat="51.04233583419543" lon="17.06548926140014"><ele>127.0</ele><time>2026-05-03T12:46:37Z</time></trkpt><trkpt lat="51.04230830522098" lon="17.06558261565692"><ele>127.00000000000001</ele><time>2026-05-03T12:46:38Z</time></trkpt><trkpt lat="51.04227876877847" lon="17.065671714148344"><ele>127.0</ele><time>2026-05-03T12:46:39Z</time></trkpt><trkpt lat="51.04222564376256" lon="17.065853195864207"><ele>127.0</ele><time>2026-05-03T12:46:41Z</time></trkpt><trkpt lat="51.04219348704111" lon="17.06594324636142"><ele>127.0</ele><time>2026-05-03T12:46:42Z</time></trkpt><trkpt lat="51.042157656334126" lon="17.066026318094877"><ele>127.00000000000001</ele><time>2026-05-03T12:46:43Z</time></trkpt><trkpt lat="51.04209953901752" lon="17.066174932154183"><ele>127.0</ele><time>2026-05-03T12:46:45Z</time></trkpt><trkpt lat="51.04204129960879" lon="17.066324096564788"><ele>127.0</ele><time>2026-05-03T12:46:47Z</time></trkpt><trkpt lat="51.041983052539194" lon="17.066479028143785"><ele>127.0</ele><time>2026-05-03T12:46:49Z</time></trkpt><trkpt lat="51.04191618042072" lon="17.06662676650978"><ele>127.0</ele><time>2026-05-03T12:46:51Z</time></trkpt><trkpt lat="51.041846568577775" lon="17.06677084509429"><ele>127.0</ele><time>2026-05-03T12:46:53Z</time></trkpt><trkpt lat="51.04178626260768" lon="17.06691992117868"><ele>127.0</ele><time>2026-05-03T12:46:55Z</time></trkpt><trkpt lat="51.04172680303463" lon="17.06705393397171"><ele>126.99999999999999</ele><time>2026-05-03T12:46:57Z</time></trkpt><trkpt lat="51.041664416977504" lon="17.067182227478668"><ele>126.99999999999999</ele><time>2026-05-03T12:46:59Z</time></trkpt><trkpt lat="51.04158696420026" lon="17.06730959862117"><ele>127.0</ele><time>2026-05-03T12:47:01Z</time></trkpt><trkpt lat="51.04151563411851" lon="17.067456101589674"><ele>127.0</ele><time>2026-05-03T12:47:03Z</time></trkpt><trkpt lat="51.041432333375084" lon="17.067590750505204"><ele>126.75</ele><time>2026-05-03T12:47:05Z</time></trkpt><trkpt lat="51.0413490010883" lon="17.067726182306703"><ele>126.5</ele><time>2026-05-03T12:47:07Z</time></trkpt><trkpt lat="51.04126502187493" lon="17.067867225090435"><ele>126.25</ele><time>2026-05-03T12:47:09Z</time></trkpt><trkpt lat="51.04117944151651" lon="17.068004750461174"><ele>126.0</ele><time>2026-05-03T12:47:11Z</time></trkpt><trkpt lat="51.041091713792795" lon="17.068145018003676"><ele>126.0</ele><time>2026-05-03T12:47:13Z</time></trkpt><trkpt lat="51.041044030008514" lon="17.068221443928863"><ele>126.0</ele><time>2026-05-03T12:47:14Z</time></trkpt><trkpt lat="51.040996710188296" lon="17.068299090374953"><ele>126.0</ele><time>2026-05-03T12:47:15Z</time></trkpt><trkpt lat="51.04094856601364" lon="17.068378498762915"><ele>126.0</ele><time>2026-05-03T12:47:16Z</time></trkpt><trkpt lat="51.0408975715164" lon="17.068460187448007"><ele>126.0</ele><time>2026-05-03T12:47:17Z</time></trkpt><trkpt lat="51.04084403488558" lon="17.0685436153119"><ele>126.0</ele><time>2026-05-03T12:47:18Z</time></trkpt><trkpt lat="51.04079159815773" lon="17.068627639819944"><ele>126.0</ele><time>2026-05-03T12:47:19Z</time></trkpt><trkpt lat="51.04073499039114" lon="17.068715489256114"><ele>126.0</ele><time>2026-05-03T12:47:20Z</time></trkpt><trkpt lat="51.04067850128307" lon="17.06880423990814"><ele>126.0</ele><time>2026-05-03T12:47:21Z</time></trkpt><trkpt lat="51.0406200162643" lon="17.068897948052207"><ele>126.0</ele><time>2026-05-03T12:47:22Z</time></trkpt><trkpt lat="51.04056092613174" lon="17.068997857362653"><ele>126.0</ele><time>2026-05-03T12:47:23Z</time></trkpt><trkpt lat="51.0405012157796" lon="17.069098737524946"><ele>126.0</ele><time>2026-05-03T12:47:24Z</time></trkpt><trkpt lat="51.04043848693001" lon="17.069201970375474"><ele>126.0</ele><time>2026-05-03T12:47:25Z</time></trkpt><trkpt lat="51.04037405156162" lon="17.069307663799723"><ele>126.19999999999999</ele><time>2026-05-03T12:47:26Z</time></trkpt><trkpt lat="51.040307309167986" lon="17.069411981449328"><ele>126.39999999999999</ele><time>2026-05-03T12:47:27Z</time></trkpt><trkpt lat="51.04024286688944" lon="17.069519892837107"><ele>126.6</ele><time>2026-05-03T12:47:28Z</time></trkpt><trkpt lat="51.04017532517308" lon="17.06962824339536"><ele>126.8</ele><time>2026-05-03T12:47:29Z</time></trkpt><trkpt lat="51.040109395069685" lon="17.06973902101042"><ele>127.0</ele><time>2026-05-03T12:47:30Z</time></trkpt><trkpt lat="51.04005723512776" lon="17.06986903344808"><ele>126.6</ele><time>2026-05-03T12:47:31Z</time></trkpt><trkpt lat="51.03998995013456" lon="17.06997845647884"><ele>126.19999999999999</ele><time>2026-05-03T12:47:32Z</time></trkpt><trkpt lat="51.039923448217436" lon="17.07008661294442"><ele>125.8</ele><time>2026-05-03T12:47:33Z</time></trkpt><trkpt lat="51.039847193072916" lon="17.070177423763738"><ele>125.4</ele><time>2026-05-03T12:47:34Z</time></trkpt><trkpt lat="51.039783877332354" lon="17.070283648040192"><ele>125.0</ele><time>2026-05-03T12:47:35Z</time></trkpt><trkpt lat="51.03971763838111" lon="17.070388906268867"><ele>125.0</ele><time>2026-05-03T12:47:36Z</time></trkpt><trkpt lat="51.039655612631904" lon="17.07049221846876"><ele>125.0</ele><time>2026-05-03T12:47:37Z</time></trkpt><trkpt lat="51.03960291791879" lon="17.07061042678273"><ele>125.0</ele><time>2026-05-03T12:47:38Z</time></trkpt><trkpt lat="51.039540979897325" lon="17.070713105515633"><ele>125.0</ele><time>2026-05-03T12:47:39Z</time></trkpt><trkpt lat="51.03947829406981" lon="17.07081702386363"><ele>125.0</ele><time>2026-05-03T12:47:40Z</time></trkpt><trkpt lat="51.03941596792044" lon="17.070919347908525"><ele>124.99999999999999</ele><time>2026-05-03T12:47:41Z</time></trkpt><trkpt lat="51.03935478349554" lon="17.071019410155273"><ele>125.0</ele><time>2026-05-03T12:47:42Z</time></trkpt><trkpt lat="51.03929269858632" lon="17.071121447444128"><ele>125.0</ele><time>2026-05-03T12:47:43Z</time></trkpt><trkpt lat="51.03923031662449" lon="17.071223972768"><ele>125.0</ele><time>2026-05-03T12:47:44Z</time></trkpt><trkpt lat="51.03916900678749" lon="17.07132605352401"><ele>124.99999999999999</ele><time>2026-05-03T12:47:45Z</time></trkpt><trkpt lat="51.03910779652642" lon="17.07142844748488"><ele>125.0</ele><time>2026-05-03T12:47:46Z</time></trkpt><trkpt lat="51.0390478885898" lon="17.071529204928293"><ele>124.99999999999999</ele><time>2026-05-03T12:47:47Z</time></trkpt><trkpt lat="51.03898864284359" lon="17.071629206906067"><ele>125.0</ele><time>2026-05-03T12:47:48Z</time></trkpt><trkpt lat="51.03892922359284" lon="17.071729501989967"><ele>125.0</ele><time>2026-05-03T12:47:49Z</time></trkpt><trkpt lat="51.03886925924054" lon="17.071829611929335"><ele>125.0</ele><time>2026-05-03T12:47:50Z</time></trkpt><trkpt lat="51.03880883671287" lon="17.07192973581332"><ele>124.99999999999999</ele><time>2026-05-03T12:47:51Z</time></trkpt><trkpt lat="51.03874827356447" lon="17.07203009277638"><ele>125.0</ele><time>2026-05-03T12:47:52Z</time></trkpt><trkpt lat="51.038687050738936" lon="17.07213114996258"><ele>124.99999999999999</ele><time>2026-05-03T12:47:53Z</time></trkpt><trkpt lat="51.03862578812972" lon="17.07223169835847"><ele>125.0</ele><time>2026-05-03T12:47:54Z</time></trkpt><trkpt lat="51.03856504676033" lon="17.07233094370325"><ele>125.0</ele><time>2026-05-03T12:47:55Z</time></trkpt><trkpt lat="51.03850428539982" lon="17.07243022125719"><ele>125.0</ele><time>2026-05-03T12:47:56Z</time></trkpt><trkpt lat="51.038443455875814" lon="17.07252961097198"><ele>124.99999999999999</ele><time>2026-05-03T12:47:57Z</time></trkpt><trkpt lat="51.03838220225253" lon="17.072629693066457"><ele>125.0</ele><time>2026-05-03T12:47:58Z</time></trkpt><trkpt lat="51.038320192112906" lon="17.072729868257227"><ele>124.83333333333333</ele><time>2026-05-03T12:47:59Z</time></trkpt><trkpt lat="51.03825932153242" lon="17.072828262355824"><ele>124.66666666666666</ele><time>2026-05-03T12:48:00Z</time></trkpt><trkpt lat="51.03819922396552" lon="17.072927787745517"><ele>124.5</ele><time>2026-05-03T12:48:01Z</time></trkpt><trkpt lat="51.038139182424466" lon="17.073027220554827"><ele>124.33333333333334</ele><time>2026-05-03T12:48:02Z</time></trkpt><trkpt lat="51.038080881637924" lon="17.073123843706483"><ele>124.16666666666667</ele><time>2026-05-03T12:48:03Z</time></trkpt><trkpt lat="51.0380232266838" lon="17.073219569319477"><ele>124.0</ele><time>2026-05-03T12:48:04Z</time></trkpt><trkpt lat="51.03796587369655" lon="17.07331274794558"><ele>124.00000000000001</ele><time>2026-05-03T12:48:05Z</time></trkpt><trkpt lat="51.03784851516542" lon="17.0733117149714"><ele>124.0</ele><time>2026-05-03T12:48:06Z</time></trkpt><trkpt lat="51.03779508381701" lon="17.07340424175612"><ele>124.0</ele><time>2026-05-03T12:48:07Z</time></trkpt><trkpt lat="51.03775177302272" lon="17.073501129490058"><ele>124.0</ele><time>2026-05-03T12:48:08Z</time></trkpt><trkpt lat="51.03771354879038" lon="17.07360309483212"><ele>124.00000000000001</ele><time>2026-05-03T12:48:09Z</time></trkpt><trkpt lat="51.03767125965483" lon="17.07369689308742"><ele>124.0</ele><time>2026-05-03T12:48:10Z</time></trkpt><trkpt lat="51.037623272296514" lon="17.073780336436563"><ele>124.0</ele><time>2026-05-03T12:48:11Z</time></trkpt><trkpt lat="51.037571271029826" lon="17.07385569611925"><ele>124.00000000000001</ele><time>2026-05-03T12:48:12Z</time></trkpt><trkpt lat="51.03751828165101" lon="17.07393317933869"><ele>124.0</ele><time>2026-05-03T12:48:13Z</time></trkpt><trkpt lat="51.0374702017509" lon="17.07401444941431"><ele>124.0</ele><time>2026-05-03T12:48:14Z</time></trkpt><trkpt lat="51.03741964500156" lon="17.074095642214402"><ele>124.00000000000001</ele><time>2026-05-03T12:48:15Z</time></trkpt><trkpt lat="51.0373681406037" lon="17.07417755809506"><ele>124.0</ele><time>2026-05-03T12:48:16Z</time></trkpt><trkpt lat="51.03731879091423" lon="17.07426141999076"><ele>124.0</ele><time>2026-05-03T12:48:17Z</time></trkpt><trkpt lat="51.03726889859325" lon="17.074343052638138"><ele>124.14285714285715</ele><time>2026-05-03T12:48:18Z</time></trkpt><trkpt lat="51.037218453390146" lon="17.074426932920016"><ele>124.2857142857143</ele><time>2026-05-03T12:48:19Z</time></trkpt><trkpt lat="51.037167129727266" lon="17.074510683067246"><ele>124.42857142857143</ele><time>2026-05-03T12:48:20Z</time></trkpt><trkpt lat="51.037115066154016" lon="17.074593937584144"><ele>124.57142857142858</ele><time>2026-05-03T12:48:21Z</time></trkpt><trkpt lat="51.0370618715477" lon="17.074677958106033"><ele>124.71428571428572</ele><time>2026-05-03T12:48:22Z</time></trkpt><trkpt lat="51.037010386704935" lon="17.074761115097644"><ele>124.85714285714286</ele><time>2026-05-03T12:48:23Z</time></trkpt><trkpt lat="51.03696028220228" lon="17.07484704721984"><ele>125.0</ele><time>2026-05-03T12:48:24Z</time></trkpt><trkpt lat="51.0369094922205" lon="17.074932638135156"><ele>125.0</ele><time>2026-05-03T12:48:25Z</time></trkpt><trkpt lat="51.03685419023623" lon="17.075014437142684"><ele>125.0</ele><time>2026-05-03T12:48:26Z</time></trkpt><trkpt lat="51.03680028665097" lon="17.075096973686016"><ele>125.0</ele><time>2026-05-03T12:48:27Z</time></trkpt><trkpt lat="51.03675131719009" lon="17.075180942166586"><ele>125.0</ele><time>2026-05-03T12:48:28Z</time></trkpt><trkpt lat="51.03670317465903" lon="17.075265631283045"><ele>125.0</ele><time>2026-05-03T12:48:29Z</time></trkpt><trkpt lat="51.03665273737654" lon="17.075350128479073"><ele>125.0</ele><time>2026-05-03T12:48:30Z</time></trkpt><trkpt lat="51.03660376730262" lon="17.07543069696694"><ele>125.0</ele><time>2026-05-03T12:48:31Z</time></trkpt><trkpt lat="51.03655499281137" lon="17.07551191881361"><ele>125.0</ele><time>2026-05-03T12:48:32Z</time></trkpt><trkpt lat="51.03650500325107" lon="17.075592987804658"><ele>125.0</ele><time>2026-05-03T12:48:33Z</time></trkpt><trkpt lat="51.036455612635464" lon="17.075673811668345"><ele>125.0</ele><time>2026-05-03T12:48:34Z</time></trkpt><trkpt lat="51.03640799538742" lon="17.075761098705758"><ele>125.0</ele><time>2026-05-03T12:48:35Z</time></trkpt><trkpt lat="51.03636165451863" lon="17.07585464728114"><ele>125.0</ele><time>2026-05-03T12:48:36Z</time></trkpt><trkpt lat="51.036315389310424" lon="17.075944926024572"><ele>125.0</ele><time>2026-05-03T12:48:37Z</time></trkpt><trkpt lat="51.03626812542802" lon="17.076034551310634"><ele>125.0</ele><time>2026-05-03T12:48:38Z</time></trkpt><trkpt lat="51.036219136783345" lon="17.07612488758384"><ele>124.99999999999999</ele><time>2026-05-03T12:48:39Z</time></trkpt><trkpt lat="51.036173156752206" lon="17.07622139237045"><ele>125.0</ele><time>2026-05-03T12:48:40Z</time></trkpt><trkpt lat="51.03612903937842" lon="17.07631882117099"><ele>125.0</ele><time>2026-05-03T12:48:41Z</time></trkpt><trkpt lat="51.03608637623282" lon="17.076416990122453"><ele>125.0</ele><time>2026-05-03T12:48:42Z</time></trkpt><trkpt lat="51.03604300825945" lon="17.076516163604715"><ele>124.99999999999999</ele><time>2026-05-03T12:48:43Z</time></trkpt><trkpt lat="51.03600059122666" lon="17.076615543138896"><ele>125.0</ele><time>2026-05-03T12:48:44Z</time></trkpt><trkpt lat="51.03596292019328" lon="17.076718249805612"><ele>125.0</ele><time>2026-05-03T12:48:45Z</time></trkpt><trkpt lat="51.03592638496991" lon="17.076817612469"><ele>125.0</ele><time>2026-05-03T12:48:46Z</time></trkpt><trkpt lat="51.03588791373445" lon="17.076916097828498"><ele>125.0</ele><time>2026-05-03T12:48:47Z</time></trkpt><trkpt lat="51.03585242855987" lon="17.077019193982697"><ele>125.0</ele><time>2026-05-03T12:48:48Z</time></trkpt><trkpt lat="51.03582073053104" lon="17.077124512935693"><ele>125.0</ele><time>2026-05-03T12:48:49Z</time></trkpt><trkpt lat="51.0357901317382" lon="17.0772315289293"><ele>125.0</ele><time>2026-05-03T12:48:50Z</time></trkpt><trkpt lat="51.0357593178747" lon="17.077337995512057"><ele>125.0</ele><time>2026-05-03T12:48:51Z</time></trkpt><trkpt lat="51.03572791573217" lon="17.077440090228144"><ele>124.71428571428571</ele><time>2026-05-03T12:48:52Z</time></trkpt><trkpt lat="51.03569549778074" lon="17.077545885849368"><ele>124.42857142857144</ele><time>2026-05-03T12:48:53Z</time></trkpt><trkpt lat="51.03566534812433" lon="17.07765240743251"><ele>124.14285714285715</ele><time>2026-05-03T12:48:54Z</time></trkpt><trkpt lat="51.035638259560784" lon="17.077762685209716"><ele>123.85714285714286</ele><time>2026-05-03T12:48:55Z</time></trkpt><trkpt lat="51.03560984843204" lon="17.077869726013834"><ele>123.57142857142858</ele><time>2026-05-03T12:48:56Z</time></trkpt><trkpt lat="51.03558217390174" lon="17.07797988832476"><ele>123.2857142857143</ele><time>2026-05-03T12:48:57Z</time></trkpt><trkpt lat="51.035554814533945" lon="17.078090126711874"><ele>123.00000000000001</ele><time>2026-05-03T12:48:58Z</time></trkpt><trkpt lat="51.03552929582869" lon="17.078201439305925"><ele>122.85714285714288</ele><time>2026-05-03T12:48:59Z</time></trkpt><trkpt lat="51.035503249719184" lon="17.07831420201687"><ele>122.71428571428572</ele><time>2026-05-03T12:49:00Z</time></trkpt><trkpt lat="51.03547833522681" lon="17.078427917885755"><ele>122.57142857142857</ele><time>2026-05-03T12:49:01Z</time></trkpt><trkpt lat="51.035456197512055" lon="17.078541436097215"><ele>122.42857142857143</ele><time>2026-05-03T12:49:02Z</time></trkpt><trkpt lat="51.035435519895834" lon="17.07865509318375"><ele>122.28571428571428</ele><time>2026-05-03T12:49:03Z</time></trkpt><trkpt lat="51.035416417012634" lon="17.07876662768002"><ele>122.14285714285712</ele><time>2026-05-03T12:49:04Z</time></trkpt><trkpt lat="51.03539741317699" lon="17.07888104192336"><ele>121.99999999999999</ele><time>2026-05-03T12:49:05Z</time></trkpt><trkpt lat="51.03537931984174" lon="17.078993520283188"><ele>121.85714285714283</ele><time>2026-05-03T12:49:06Z</time></trkpt><trkpt lat="51.035364111140176" lon="17.079106003832802"><ele>121.71428571428571</ele><time>2026-05-03T12:49:07Z</time></trkpt><trkpt lat="51.03535093767949" lon="17.079222320493017"><ele>121.57142857142856</ele><time>2026-05-03T12:49:08Z</time></trkpt><trkpt lat="51.03533682508165" lon="17.079339751980015"><ele>121.42857142857142</ele><time>2026-05-03T12:49:09Z</time></trkpt><trkpt lat="51.035323622568974" lon="17.07945694909646"><ele>121.28571428571428</ele><time>2026-05-03T12:49:10Z</time></trkpt><trkpt lat="51.03531178544987" lon="17.079574221377108"><ele>121.14285714285714</ele><time>2026-05-03T12:49:11Z</time></trkpt><trkpt lat="51.03530186435112" lon="17.079692824548975"><ele>121.0</ele><time>2026-05-03T12:49:12Z</time></trkpt><trkpt lat="51.035293019820415" lon="17.07981281404817"><ele>121.00000000000001</ele><time>2026-05-03T12:49:13Z</time></trkpt><trkpt lat="51.03528658241135" lon="17.079932644816747"><ele>121.0</ele><time>2026-05-03T12:49:14Z</time></trkpt><trkpt lat="51.03527870898129" lon="17.080052556121327"><ele>121.0</ele><time>2026-05-03T12:49:15Z</time></trkpt><trkpt lat="51.035273473479286" lon="17.080173975545186"><ele>121.0</ele><time>2026-05-03T12:49:16Z</time></trkpt><trkpt lat="51.03526513697672" lon="17.08029457266995"><ele>121.00000000000001</ele><time>2026-05-03T12:49:17Z</time></trkpt><trkpt lat="51.03525812104863" lon="17.08041340148344"><ele>121.0</ele><time>2026-05-03T12:49:18Z</time></trkpt><trkpt lat="51.03525245886983" lon="17.080534644926356"><ele>121.16666666666667</ele><time>2026-05-03T12:49:19Z</time></trkpt><trkpt lat="51.03525054420208" lon="17.0806532853535"><ele>121.33333333333334</ele><time>2026-05-03T12:49:20Z</time></trkpt><trkpt lat="51.0352466076367" lon="17.0807731849963"><ele>121.5</ele><time>2026-05-03T12:49:21Z</time></trkpt><trkpt lat="51.03524170169317" lon="17.080894530237515"><ele>121.66666666666666</ele><time>2026-05-03T12:49:22Z</time></trkpt><trkpt lat="51.03523892167472" lon="17.081013236345225"><ele>121.83333333333333</ele><time>2026-05-03T12:49:23Z</time></trkpt><trkpt lat="51.03523517362791" lon="17.081131246335218"><ele>122.0</ele><time>2026-05-03T12:49:24Z</time></trkpt><trkpt lat="51.0352314042682" lon="17.081249021834278"><ele>121.99999999999999</ele><time>2026-05-03T12:49:25Z</time></trkpt><trkpt lat="51.035221544305394" lon="17.08136855104242"><ele>122.0</ele><time>2026-05-03T12:49:26Z</time></trkpt><trkpt lat="51.035201196581234" lon="17.08148111466722"><ele>122.0</ele><time>2026-05-03T12:49:27Z</time></trkpt><trkpt lat="51.03517197208149" lon="17.08159657268542"><ele>122.0</ele><time>2026-05-03T12:49:28Z</time></trkpt><trkpt lat="51.03515180687117" lon="17.08172152308347"><ele>121.99999999999999</ele><time>2026-05-03T12:49:29Z</time></trkpt><trkpt lat="51.03514535438797" lon="17.081853681127672"><ele>122.0</ele><time>2026-05-03T12:49:30Z</time></trkpt><trkpt lat="51.03514189915752" lon="17.081984758202164"><ele>121.99999999999999</ele><time>2026-05-03T12:49:31Z</time></trkpt><trkpt lat="51.03513909498742" lon="17.082116576740358"><ele>122.0</ele><time>2026-05-03T12:49:32Z</time></trkpt><trkpt lat="51.03513897464273" lon="17.082249054390136"><ele>122.0</ele><time>2026-05-03T12:49:33Z</time></trkpt><trkpt lat="51.035139009181094" lon="17.08238169720242"><ele>122.0</ele><time>2026-05-03T12:49:34Z</time></trkpt><trkpt lat="51.035137031049004" lon="17.082514679081115"><ele>121.99999999999999</ele><time>2026-05-03T12:49:35Z</time></trkpt><trkpt lat="51.03513143476353" lon="17.08264819349044"><ele>122.0</ele><time>2026-05-03T12:49:36Z</time></trkpt><trkpt lat="51.035127664219836" lon="17.08278022451354"><ele>122.16666666666666</ele><time>2026-05-03T12:49:37Z</time></trkpt><trkpt lat="51.03512640190443" lon="17.082912345261356"><ele>122.33333333333333</ele><time>2026-05-03T12:49:38Z</time></trkpt><trkpt lat="51.035123286374485" lon="17.083044148166163"><ele>122.5</ele><time>2026-05-03T12:49:39Z</time></trkpt><trkpt lat="51.03512039450801" lon="17.083175408281832"><ele>122.66666666666666</ele><time>2026-05-03T12:49:40Z</time></trkpt><trkpt lat="51.035119804479805" lon="17.083306215731533"><ele>122.83333333333333</ele><time>2026-05-03T12:49:41Z</time></trkpt><trkpt lat="51.03511947083122" lon="17.083437123693592"><ele>123.0</ele><time>2026-05-03T12:49:42Z</time></trkpt><trkpt lat="51.035116437115455" lon="17.083568104822255"><ele>123.0</ele><time>2026-05-03T12:49:43Z</time></trkpt><trkpt lat="51.035113155125664" lon="17.083699796648894"><ele>123.0</ele><time>2026-05-03T12:49:44Z</time></trkpt><trkpt lat="51.03511175547196" lon="17.083828128255906"><ele>123.0</ele><time>2026-05-03T12:49:45Z</time></trkpt><trkpt lat="51.035111509290076" lon="17.083959109712165"><ele>123.0</ele><time>2026-05-03T12:49:46Z</time></trkpt><trkpt lat="51.03511032840705" lon="17.084089662625942"><ele>123.0</ele><time>2026-05-03T12:49:47Z</time></trkpt><trkpt lat="51.03510382181876" lon="17.084222460511526"><ele>123.0</ele><time>2026-05-03T12:49:48Z</time></trkpt><trkpt lat="51.03509690769113" lon="17.0843541765883"><ele>123.16666666666667</ele><time>2026-05-03T12:49:49Z</time></trkpt><trkpt lat="51.03508931617793" lon="17.08448460995725"><ele>123.33333333333334</ele><time>2026-05-03T12:49:50Z</time></trkpt><trkpt lat="51.0350861642787" lon="17.084613295650716"><ele>123.5</ele><time>2026-05-03T12:49:51Z</time></trkpt><trkpt lat="51.03508404386356" lon="17.084742018291855"><ele>123.66666666666667</ele><time>2026-05-03T12:49:52Z</time></trkpt><trkpt lat="51.03508247950804" lon="17.08487070753691"><ele>123.83333333333334</ele><time>2026-05-03T12:49:53Z</time></trkpt><trkpt lat="51.03508075617976" lon="17.084998287577523"><ele>124.0</ele><time>2026-05-03T12:49:54Z</time></trkpt><trkpt lat="51.03507528190545" lon="17.085122943710754"><ele>124.00000000000001</ele><time>2026-05-03T12:49:55Z</time></trkpt><trkpt lat="51.03506873135683" lon="17.085245397501126"><ele>124.0</ele><time>2026-05-03T12:49:56Z</time></trkpt><trkpt lat="51.03506406123349" lon="17.085366343814115"><ele>124.0</ele><time>2026-05-03T12:49:57Z</time></trkpt><trkpt lat="51.03506152387175" lon="17.085489044098864"><ele>124.0</ele><time>2026-05-03T12:49:58Z</time></trkpt><trkpt lat="51.03506179169376" lon="17.085610994102158"><ele>124.00000000000001</ele><time>2026-05-03T12:49:59Z</time></trkpt><trkpt lat="51.03505905597785" lon="17.085734579341132"><ele>124.0</ele><time>2026-05-03T12:50:00Z</time></trkpt><trkpt lat="51.035054518860456" lon="17.085857136501723"><ele>124.00000000000001</ele><time>2026-05-03T12:50:01Z</time></trkpt><trkpt lat="51.035048954033904" lon="17.085978884931603"><ele>124.0</ele><time>2026-05-03T12:50:02Z</time></trkpt><trkpt lat="51.03504480706989" lon="17.086101863017713"><ele>124.0</ele><time>2026-05-03T12:50:03Z</time></trkpt><trkpt lat="51.035039194756074" lon="17.08622350696133"><ele>124.0</ele><time>2026-05-03T12:50:04Z</time></trkpt><trkpt lat="51.03503392728034" lon="17.086344428198736"><ele>124.00000000000001</ele><time>2026-05-03T12:50:05Z</time></trkpt><trkpt lat="51.03503036113475" lon="17.08646371829649"><ele>124.0</ele><time>2026-05-03T12:50:06Z</time></trkpt><trkpt lat="51.03502921674198" lon="17.086585993691926"><ele>124.00000000000001</ele><time>2026-05-03T12:50:07Z</time></trkpt><trkpt lat="51.03502907080807" lon="17.086707208165894"><ele>124.0</ele><time>2026-05-03T12:50:08Z</time></trkpt><trkpt lat="51.035027850804354" lon="17.086827106292404"><ele>124.0</ele><time>2026-05-03T12:50:09Z</time></trkpt><trkpt lat="51.0350240402649" lon="17.086946504979878"><ele>124.0</ele><time>2026-05-03T12:50:10Z</time></trkpt><trkpt lat="51.0350184009008" lon="17.087065823202053"><ele>124.00000000000001</ele><time>2026-05-03T12:50:11Z</time></trkpt><trkpt lat="51.03501385547063" lon="17.08718427002657"><ele>124.0</ele><time>2026-05-03T12:50:12Z</time></trkpt><trkpt lat="51.03501158254179" lon="17.08730765437674"><ele>124.00000000000001</ele><time>2026-05-03T12:50:13Z</time></trkpt><trkpt lat="51.03500917505457" lon="17.087432482611927"><ele>124.0</ele><time>2026-05-03T12:50:14Z</time></trkpt><trkpt lat="51.035005994556116" lon="17.087555606351845"><ele>124.0</ele><time>2026-05-03T12:50:15Z</time></trkpt><trkpt lat="51.03500313807859" lon="17.087679882816474"><ele>124.0</ele><time>2026-05-03T12:50:16Z</time></trkpt><trkpt lat="51.035001563860014" lon="17.08780593050534"><ele>124.00000000000001</ele><time>2026-05-03T12:50:17Z</time></trkpt><trkpt lat="51.03499907693775" lon="17.087930075438596"><ele>124.0</ele><time>2026-05-03T12:50:18Z</time></trkpt><trkpt lat="51.034994143752584" lon="17.088052497176715"><ele>124.00000000000001</ele><time>2026-05-03T12:50:19Z</time></trkpt><trkpt lat="51.03499107303671" lon="17.088176360376423"><ele>124.0</ele><time>2026-05-03T12:50:20Z</time></trkpt><trkpt lat="51.03498892416395" lon="17.08829740067733"><ele>124.0</ele><time>2026-05-03T12:50:21Z</time></trkpt><trkpt lat="51.03498524724622" lon="17.08842309830293"><ele>124.0</ele><time>2026-05-03T12:50:22Z</time></trkpt><trkpt lat="51.03498518502762" lon="17.08854900099256"><ele>124.00000000000001</ele><time>2026-05-03T12:50:23Z</time></trkpt><trkpt lat="51.034982850719196" lon="17.088678244313073"><ele>124.0</ele><time>2026-05-03T12:50:24Z</time></trkpt><trkpt lat="51.03497422152755" lon="17.08880698054933"><ele>124.16666666666667</ele><time>2026-05-03T12:50:25Z</time></trkpt><trkpt lat="51.03496793128031" lon="17.08893334173389"><ele>124.33333333333334</ele><time>2026-05-03T12:50:26Z</time></trkpt><trkpt lat="51.034962934883595" lon="17.089062376530045"><ele>124.5</ele><time>2026-05-03T12:50:27Z</time></trkpt><trkpt lat="51.03496112532024" lon="17.089189011512126"><ele>124.66666666666666</ele><time>2026-05-03T12:50:28Z</time></trkpt><trkpt lat="51.03495823638431" lon="17.089318294575484"><ele>124.83333333333333</ele><time>2026-05-03T12:50:29Z</time></trkpt><trkpt lat="51.03495622259316" lon="17.089445097529705"><ele>125.0</ele><time>2026-05-03T12:50:30Z</time></trkpt><trkpt lat="51.034952971271345" lon="17.089571231400846"><ele>124.99999999999999</ele><time>2026-05-03T12:50:31Z</time></trkpt><trkpt lat="51.03494770900802" lon="17.08969611152159"><ele>125.0</ele><time>2026-05-03T12:50:32Z</time></trkpt><trkpt lat="51.03494104051396" lon="17.08981815073614"><ele>125.0</ele><time>2026-05-03T12:50:33Z</time></trkpt><trkpt lat="51.034938162343444" lon="17.089942048891064"><ele>125.0</ele><time>2026-05-03T12:50:34Z</time></trkpt><trkpt lat="51.0349367556085" lon="17.09006508171454"><ele>124.99999999999999</ele><time>2026-05-03T12:50:35Z</time></trkpt><trkpt lat="51.03493642890067" lon="17.090188423487408"><ele>125.0</ele><time>2026-05-03T12:50:36Z</time></trkpt><trkpt lat="51.03493271590164" lon="17.090311039212928"><ele>124.99999999999999</ele><time>2026-05-03T12:50:37Z</time></trkpt><trkpt lat="51.03493002919557" lon="17.09043223796714"><ele>125.0</ele><time>2026-05-03T12:50:38Z</time></trkpt><trkpt lat="51.03492852368526" lon="17.090553939311885"><ele>125.0</ele><time>2026-05-03T12:50:39Z</time></trkpt><trkpt lat="51.034930313113776" lon="17.09067705554836"><ele>125.0</ele><time>2026-05-03T12:50:40Z</time></trkpt><trkpt lat="51.034929935205604" lon="17.090798707655136"><ele>124.99999999999999</ele><time>2026-05-03T12:50:41Z</time></trkpt><trkpt lat="51.03492832592568" lon="17.09092031839469"><ele>125.0</ele><time>2026-05-03T12:50:42Z</time></trkpt><trkpt lat="51.034926934027425" lon="17.091044158988787"><ele>124.99999999999999</ele><time>2026-05-03T12:50:43Z</time></trkpt><trkpt lat="51.03492299139921" lon="17.091165712066477"><ele>125.0</ele><time>2026-05-03T12:50:44Z</time></trkpt><trkpt lat="51.03492075000013" lon="17.09128979184955"><ele>125.0</ele><time>2026-05-03T12:50:45Z</time></trkpt><trkpt lat="51.034916644664726" lon="17.091411637378144"><ele>125.0</ele><time>2026-05-03T12:50:46Z</time></trkpt><trkpt lat="51.0349087478905" lon="17.091532763260222"><ele>124.99999999999999</ele><time>2026-05-03T12:50:47Z</time></trkpt><trkpt lat="51.03489313106461" lon="17.091653522111667"><ele>125.0</ele><time>2026-05-03T12:50:48Z</time></trkpt><trkpt lat="51.03488363848462" lon="17.091777942461025"><ele>124.99999999999999</ele><time>2026-05-03T12:50:49Z</time></trkpt><trkpt lat="51.03488000852905" lon="17.091905157417102"><ele>125.0</ele><time>2026-05-03T12:50:50Z</time></trkpt><trkpt lat="51.03487712502309" lon="17.092031575731394"><ele>125.0</ele><time>2026-05-03T12:50:51Z</time></trkpt><trkpt lat="51.034873906418255" lon="17.09215796998199"><ele>125.0</ele><time>2026-05-03T12:50:52Z</time></trkpt><trkpt lat="51.03486916630782" lon="17.09228514888519"><ele>124.99999999999999</ele><time>2026-05-03T12:50:53Z</time></trkpt><trkpt lat="51.03486386879774" lon="17.092413142427233"><ele>125.0</ele><time>2026-05-03T12:50:54Z</time></trkpt><trkpt lat="51.03486010154536" lon="17.0925356620536"><ele>124.66666666666666</ele><time>2026-05-03T12:50:55Z</time></trkpt><trkpt lat="51.03486040487026" lon="17.092662475289274"><ele>124.33333333333333</ele><time>2026-05-03T12:50:56Z</time></trkpt><trkpt lat="51.034859343495874" lon="17.09278735378984"><ele>124.0</ele><time>2026-05-03T12:50:57Z</time></trkpt><trkpt lat="51.03485688662415" lon="17.09291368382008"><ele>123.66666666666666</ele><time>2026-05-03T12:50:58Z</time></trkpt><trkpt lat="51.03485043833342" lon="17.09303941760029"><ele>123.33333333333333</ele><time>2026-05-03T12:50:59Z</time></trkpt><trkpt lat="51.03484753848067" lon="17.09316266450075"><ele>123.0</ele><time>2026-05-03T12:51:00Z</time></trkpt><trkpt lat="51.03484474227006" lon="17.093288290657203"><ele>122.83333333333333</ele><time>2026-05-03T12:51:01Z</time></trkpt><trkpt lat="51.034844258259184" lon="17.09341158047193"><ele>122.66666666666666</ele><time>2026-05-03T12:51:02Z</time></trkpt><trkpt lat="51.03484374077329" lon="17.093534307090287"><ele>122.5</ele><time>2026-05-03T12:51:03Z</time></trkpt><trkpt lat="51.0348416018228" lon="17.093658404659834"><ele>122.33333333333333</ele><time>2026-05-03T12:51:04Z</time></trkpt><trkpt lat="51.0348373258895" lon="17.093782347334027"><ele>122.16666666666666</ele><time>2026-05-03T12:51:05Z</time></trkpt><trkpt lat="51.0348345304422" lon="17.093909585475867"><ele>122.0</ele><time>2026-05-03T12:51:06Z</time></trkpt><trkpt lat="51.03483238505952" lon="17.094034042893682"><ele>122.49999999999999</ele><time>2026-05-03T12:51:07Z</time></trkpt><trkpt lat="51.034826533413906" lon="17.094157183970122"><ele>123.0</ele><time>2026-05-03T12:51:08Z</time></trkpt><trkpt lat="51.03482255036127" lon="17.094281305206593"><ele>123.5</ele><time>2026-05-03T12:51:09Z</time></trkpt><trkpt lat="51.03482146816287" lon="17.094404172997614"><ele>124.0</ele><time>2026-05-03T12:51:10Z</time></trkpt><trkpt lat="51.034820953425886" lon="17.09452970934642"><ele>124.49999999999999</ele><time>2026-05-03T12:51:11Z</time></trkpt><trkpt lat="51.03481967619855" lon="17.094654178865426"><ele>125.0</ele><time>2026-05-03T12:51:12Z</time></trkpt><trkpt lat="51.03481866284187" lon="17.094776241256586"><ele>124.99999999999999</ele><time>2026-05-03T12:51:13Z</time></trkpt><trkpt lat="51.034816957836576" lon="17.094897614811458"><ele>125.0</ele><time>2026-05-03T12:51:14Z</time></trkpt><trkpt lat="51.034814731008574" lon="17.095019378259586"><ele>125.0</ele><time>2026-05-03T12:51:15Z</time></trkpt><trkpt lat="51.034809990018886" lon="17.09514198023846"><ele>125.0</ele><time>2026-05-03T12:51:16Z</time></trkpt><trkpt lat="51.03480336471453" lon="17.095264939728686"><ele>124.99999999999999</ele><time>2026-05-03T12:51:17Z</time></trkpt><trkpt lat="51.03479817367456" lon="17.09538736023991"><ele>125.0</ele><time>2026-05-03T12:51:18Z</time></trkpt><trkpt lat="51.034795292276435" lon="17.09551028737484"><ele>124.99999999999999</ele><time>2026-05-03T12:51:19Z</time></trkpt><trkpt lat="51.034792356665164" lon="17.095631447538526"><ele>125.0</ele><time>2026-05-03T12:51:20Z</time></trkpt><trkpt lat="51.03478899050624" lon="17.0957519573213"><ele>125.0</ele><time>2026-05-03T12:51:21Z</time></trkpt><trkpt lat="51.03478388543153" lon="17.09587304538199"><ele>125.0</ele><time>2026-05-03T12:51:22Z</time></trkpt><trkpt lat="51.03478061977313" lon="17.095994877872048"><ele>124.99999999999999</ele><time>2026-05-03T12:51:23Z</time></trkpt><trkpt lat="51.03477747846789" lon="17.0961160447985"><ele>125.0</ele><time>2026-05-03T12:51:24Z</time></trkpt><trkpt lat="51.03477578270217" lon="17.09623819107799"><ele>124.99999999999999</ele><time>2026-05-03T12:51:25Z</time></trkpt><trkpt lat="51.03477109392647" lon="17.096361475110808"><ele>125.0</ele><time>2026-05-03T12:51:26Z</time></trkpt><trkpt lat="51.03476873552702" lon="17.096482202462933"><ele>125.0</ele><time>2026-05-03T12:51:27Z</time></trkpt><trkpt lat="51.03476741505261" lon="17.09660343874302"><ele>125.0</ele><time>2026-05-03T12:51:28Z</time></trkpt><trkpt lat="51.03476472027828" lon="17.09672951652904"><ele>124.99999999999999</ele><time>2026-05-03T12:51:29Z</time></trkpt><trkpt lat="51.03475994237104" lon="17.096855039606336"><ele>125.0</ele><time>2026-05-03T12:51:30Z</time></trkpt><trkpt lat="51.03475022814063" lon="17.096983527107025"><ele>124.99999999999999</ele><time>2026-05-03T12:51:31Z</time></trkpt><trkpt lat="51.034741362949475" lon="17.097110555274952"><ele>125.0</ele><time>2026-05-03T12:51:32Z</time></trkpt><trkpt lat="51.034736121177815" lon="17.097238482191404"><ele>125.0</ele><time>2026-05-03T12:51:33Z</time></trkpt><trkpt lat="51.0347336439296" lon="17.09736732013415"><ele>125.0</ele><time>2026-05-03T12:51:34Z</time></trkpt><trkpt lat="51.034730341095184" lon="17.09749282517437"><ele>124.99999999999999</ele><time>2026-05-03T12:51:35Z</time></trkpt><trkpt lat="51.034723108622856" lon="17.097620550902217"><ele>125.0</ele><time>2026-05-03T12:51:36Z</time></trkpt><trkpt lat="51.034716411733115" lon="17.097747738951004"><ele>124.99999999999999</ele><time>2026-05-03T12:51:37Z</time></trkpt><trkpt lat="51.03470834082314" lon="17.09787333799069"><ele>125.0</ele><time>2026-05-03T12:51:38Z</time></trkpt><trkpt lat="51.03470143007062" lon="17.098002327564554"><ele>125.0</ele><time>2026-05-03T12:51:39Z</time></trkpt><trkpt lat="51.034695328845004" lon="17.098129665245406"><ele>125.0</ele><time>2026-05-03T12:51:40Z</time></trkpt><trkpt lat="51.03468820302961" lon="17.098258883662083"><ele>124.99999999999999</ele><time>2026-05-03T12:51:41Z</time></trkpt><trkpt lat="51.03468141468084" lon="17.09838822368211"><ele>125.0</ele><time>2026-05-03T12:51:42Z</time></trkpt><trkpt lat="51.03467248126976" lon="17.098518166005775"><ele>124.66666666666666</ele><time>2026-05-03T12:51:43Z</time></trkpt><trkpt lat="51.03466271257261" lon="17.098645702523736"><ele>124.33333333333333</ele><time>2026-05-03T12:51:44Z</time></trkpt><trkpt lat="51.034652879475445" lon="17.09877603158473"><ele>124.0</ele><time>2026-05-03T12:51:45Z</time></trkpt><trkpt lat="51.034642324764526" lon="17.098901569002443"><ele>123.66666666666666</ele><time>2026-05-03T12:51:46Z</time></trkpt><trkpt lat="51.03463108462745" lon="17.099029266151035"><ele>123.33333333333333</ele><time>2026-05-03T12:51:47Z</time></trkpt><trkpt lat="51.03461964610732" lon="17.099157799388244"><ele>123.0</ele><time>2026-05-03T12:51:48Z</time></trkpt><trkpt lat="51.03460727404975" lon="17.09928448093178"><ele>123.0</ele><time>2026-05-03T12:51:49Z</time></trkpt><trkpt lat="51.03459516801361" lon="17.099410569005354"><ele>123.0</ele><time>2026-05-03T12:51:50Z</time></trkpt><trkpt lat="51.0345836879193" lon="17.09953691427344"><ele>123.0</ele><time>2026-05-03T12:51:51Z</time></trkpt><trkpt lat="51.03457403052884" lon="17.099663763537123"><ele>123.0</ele><time>2026-05-03T12:51:52Z</time></trkpt><trkpt lat="51.03456181057146" lon="17.09979117100231"><ele>123.0</ele><time>2026-05-03T12:51:53Z</time></trkpt><trkpt lat="51.03454808132125" lon="17.0999183026915"><ele>123.0</ele><time>2026-05-03T12:51:54Z</time></trkpt><trkpt lat="51.03453514048783" lon="17.10004326729382"><ele>123.0</ele><time>2026-05-03T12:51:55Z</time></trkpt><trkpt lat="51.03452201827512" lon="17.100168814459796"><ele>123.0</ele><time>2026-05-03T12:51:56Z</time></trkpt><trkpt lat="51.034506967911774" lon="17.100291801307083"><ele>123.0</ele><time>2026-05-03T12:51:57Z</time></trkpt><trkpt lat="51.03449121247154" lon="17.100415277596916"><ele>123.0</ele><time>2026-05-03T12:51:58Z</time></trkpt><trkpt lat="51.03447465114837" lon="17.100536655854484"><ele>123.0</ele><time>2026-05-03T12:51:59Z</time></trkpt><trkpt lat="51.03446017788741" lon="17.100658617137487"><ele>123.0</ele><time>2026-05-03T12:52:00Z</time></trkpt><trkpt lat="51.03444556876823" lon="17.100779857651546"><ele>123.0</ele><time>2026-05-03T12:52:01Z</time></trkpt><trkpt lat="51.034430873509685" lon="17.100902516784643"><ele>123.0</ele><time>2026-05-03T12:52:02Z</time></trkpt><trkpt lat="51.034415578173956" lon="17.10102539040347"><ele>123.0</ele><time>2026-05-03T12:52:03Z</time></trkpt><trkpt lat="51.03440243159045" lon="17.101147720411632"><ele>123.0</ele><time>2026-05-03T12:52:04Z</time></trkpt><trkpt lat="51.034384864993726" lon="17.10126949178015"><ele>123.0</ele><time>2026-05-03T12:52:05Z</time></trkpt><trkpt lat="51.034371411951945" lon="17.101390599433294"><ele>123.0</ele><time>2026-05-03T12:52:06Z</time></trkpt><trkpt lat="51.034358252878" lon="17.101511965903203"><ele>123.16666666666667</ele><time>2026-05-03T12:52:07Z</time></trkpt><trkpt lat="51.03434194363832" lon="17.101632878894897"><ele>123.33333333333334</ele><time>2026-05-03T12:52:08Z</time></trkpt><trkpt lat="51.034325468948914" lon="17.10175531309971"><ele>123.5</ele><time>2026-05-03T12:52:09Z</time></trkpt><trkpt lat="51.03430922009637" lon="17.10187762745373"><ele>123.66666666666667</ele><time>2026-05-03T12:52:10Z</time></trkpt><trkpt lat="51.03429050328434" lon="17.10200011178652"><ele>123.83333333333334</ele><time>2026-05-03T12:52:11Z</time></trkpt><trkpt lat="51.03427386765476" lon="17.102126568328814"><ele>124.0</ele><time>2026-05-03T12:52:12Z</time></trkpt><trkpt lat="51.034257848116674" lon="17.102252656538308"><ele>124.00000000000001</ele><time>2026-05-03T12:52:13Z</time></trkpt><trkpt lat="51.03424200778711" lon="17.10237933194746"><ele>124.0</ele><time>2026-05-03T12:52:14Z</time></trkpt><trkpt lat="51.03422586010642" lon="17.102505870474598"><ele>124.0</ele><time>2026-05-03T12:52:15Z</time></trkpt><trkpt lat="51.03421074010544" lon="17.102632723714258"><ele>124.0</ele><time>2026-05-03T12:52:16Z</time></trkpt><trkpt lat="51.034195254915936" lon="17.10275829426935"><ele>124.00000000000001</ele><time>2026-05-03T12:52:17Z</time></trkpt><trkpt lat="51.034178201335905" lon="17.102884462028637"><ele>124.0</ele><time>2026-05-03T12:52:18Z</time></trkpt><trkpt lat="51.03416084724057" lon="17.10300932589564"><ele>123.83333333333334</ele><time>2026-05-03T12:52:19Z</time></trkpt><trkpt lat="51.03414548363188" lon="17.103132872935966"><ele>123.66666666666667</ele><time>2026-05-03T12:52:20Z</time></trkpt><trkpt lat="51.03413077550663" lon="17.103258590923044"><ele>123.5</ele><time>2026-05-03T12:52:21Z</time></trkpt><trkpt lat="51.0341157492718" lon="17.10337795879786"><ele>123.33333333333334</ele><time>2026-05-03T12:52:22Z</time></trkpt><trkpt lat="51.0341017256451" lon="17.103499162359487"><ele>123.16666666666667</ele><time>2026-05-03T12:52:23Z</time></trkpt><trkpt lat="51.03409229646556" lon="17.10361439211835"><ele>123.0</ele><time>2026-05-03T12:52:24Z</time></trkpt><trkpt lat="51.03408302822762" lon="17.103725148545205"><ele>123.0</ele><time>2026-05-03T12:52:25Z</time></trkpt><trkpt lat="51.03407756726149" lon="17.10382909162018"><ele>123.00000000000001</ele><time>2026-05-03T12:52:26Z</time></trkpt><trkpt lat="51.03408251661344" lon="17.104020081562197"><ele>123.00000000000001</ele><time>2026-05-03T12:52:28Z</time></trkpt><trkpt lat="51.03408364411635" lon="17.104194870234448"><ele>123.0</ele><time>2026-05-03T12:52:30Z</time></trkpt><trkpt lat="51.034087453792566" lon="17.104348671637396"><ele>123.0</ele><time>2026-05-03T12:52:32Z</time></trkpt><trkpt lat="51.034095170334616" lon="17.104496008096607"><ele>123.00000000000001</ele><time>2026-05-03T12:52:34Z</time></trkpt><trkpt lat="51.034108607025026" lon="17.104597864976533"><ele>123.0</ele><time>2026-05-03T12:52:35Z</time></trkpt><trkpt lat="51.03412816469054" lon="17.10469523486687"><ele>123.00000000000001</ele><time>2026-05-03T12:52:36Z</time></trkpt><trkpt lat="51.034150154537535" lon="17.10479381329412"><ele>123.00000000000001</ele><time>2026-05-03T12:52:37Z</time></trkpt><trkpt lat="51.034162301484116" lon="17.104900006911794"><ele>123.0</ele><time>2026-05-03T12:52:38Z</time></trkpt><trkpt lat="51.03416736699749" lon="17.10500881139143"><ele>123.00000000000001</ele><time>2026-05-03T12:52:39Z</time></trkpt><trkpt lat="51.03417154763602" lon="17.10512246365291"><ele>123.00000000000001</ele><time>2026-05-03T12:52:40Z</time></trkpt><trkpt lat="51.0341786497797" lon="17.105238049723866"><ele>123.0</ele><time>2026-05-03T12:52:41Z</time></trkpt><trkpt lat="51.034186556727825" lon="17.105356925654156"><ele>123.0</ele><time>2026-05-03T12:52:42Z</time></trkpt><trkpt lat="51.03419582284878" lon="17.10547584808685"><ele>123.0</ele><time>2026-05-03T12:52:43Z</time></trkpt><trkpt lat="51.03420552971004" lon="17.105598634357765"><ele>123.0</ele><time>2026-05-03T12:52:44Z</time></trkpt><trkpt lat="51.03421658519475" lon="17.105720341446524"><ele>123.0</ele><time>2026-05-03T12:52:45Z</time></trkpt><trkpt lat="51.03422770232674" lon="17.105845590494255"><ele>123.0</ele><time>2026-05-03T12:52:46Z</time></trkpt><trkpt lat="51.034242324622625" lon="17.105971173388134"><ele>122.83333333333333</ele><time>2026-05-03T12:52:47Z</time></trkpt><trkpt lat="51.03426146714363" lon="17.106093777191074"><ele>122.66666666666666</ele><time>2026-05-03T12:52:48Z</time></trkpt><trkpt lat="51.03427801383708" lon="17.10621899135724"><ele>122.5</ele><time>2026-05-03T12:52:49Z</time></trkpt><trkpt lat="51.03429628193043" lon="17.106345725011444"><ele>122.33333333333333</ele><time>2026-05-03T12:52:50Z</time></trkpt><trkpt lat="51.034316913064636" lon="17.10647150250209"><ele>122.16666666666666</ele><time>2026-05-03T12:52:51Z</time></trkpt><trkpt lat="51.034339653338556" lon="17.10659781524255"><ele>122.0</ele><time>2026-05-03T12:52:52Z</time></trkpt><trkpt lat="51.03436021422965" lon="17.106727924832175"><ele>121.99999999999999</ele><time>2026-05-03T12:52:53Z</time></trkpt><trkpt lat="51.03438160141723" lon="17.106857246181917"><ele>122.0</ele><time>2026-05-03T12:52:54Z</time></trkpt><trkpt lat="51.034405707216266" lon="17.106985828651688"><ele>122.0</ele><time>2026-05-03T12:52:55Z</time></trkpt><trkpt lat="51.03443322332271" lon="17.1071147834228"><ele>122.0</ele><time>2026-05-03T12:52:56Z</time></trkpt><trkpt lat="51.034461359465716" lon="17.107242141711247"><ele>121.99999999999999</ele><time>2026-05-03T12:52:57Z</time></trkpt><trkpt lat="51.03449063106687" lon="17.107371153747337"><ele>122.0</ele><time>2026-05-03T12:52:58Z</time></trkpt><trkpt lat="51.034522380832236" lon="17.107497375604808"><ele>121.83333333333333</ele><time>2026-05-03T12:52:59Z</time></trkpt><trkpt lat="51.03455387479988" lon="17.107625066213245"><ele>121.66666666666666</ele><time>2026-05-03T12:53:00Z</time></trkpt><trkpt lat="51.03458606721272" lon="17.10775404554258"><ele>121.5</ele><time>2026-05-03T12:53:01Z</time></trkpt><trkpt lat="51.03461934537649" lon="17.10788196900388"><ele>121.33333333333334</ele><time>2026-05-03T12:53:02Z</time></trkpt><trkpt lat="51.03465516756164" lon="17.108009799234537"><ele>121.16666666666667</ele><time>2026-05-03T12:53:03Z</time></trkpt><trkpt lat="51.03469265066478" lon="17.108136535436383"><ele>121.0</ele><time>2026-05-03T12:53:04Z</time></trkpt><trkpt lat="51.03472879809999" lon="17.108259986793307"><ele>121.00000000000001</ele><time>2026-05-03T12:53:05Z</time></trkpt><trkpt lat="51.03476473749563" lon="17.108386316377914"><ele>121.0</ele><time>2026-05-03T12:53:06Z</time></trkpt><trkpt lat="51.03480418227883" lon="17.108513797519382"><ele>121.0</ele><time>2026-05-03T12:53:07Z</time></trkpt><trkpt lat="51.034844001365364" lon="17.10863854666424"><ele>121.0</ele><time>2026-05-03T12:53:08Z</time></trkpt><trkpt lat="51.0348863533544" lon="17.10876482292233"><ele>121.00000000000001</ele><time>2026-05-03T12:53:09Z</time></trkpt><trkpt lat="51.03493009206827" lon="17.108887831842964"><ele>121.0</ele><time>2026-05-03T12:53:10Z</time></trkpt><trkpt lat="51.03497144119951" lon="17.109013870818664"><ele>121.0</ele><time>2026-05-03T12:53:11Z</time></trkpt><trkpt lat="51.03501202659323" lon="17.109144116936253"><ele>121.0</ele><time>2026-05-03T12:53:12Z</time></trkpt><trkpt lat="51.03505210447743" lon="17.109271731670127"><ele>121.0</ele><time>2026-05-03T12:53:13Z</time></trkpt><trkpt lat="51.03509416980007" lon="17.109401798451334"><ele>121.0</ele><time>2026-05-03T12:53:14Z</time></trkpt><trkpt lat="51.035136426932745" lon="17.109529028512963"><ele>121.0</ele><time>2026-05-03T12:53:15Z</time></trkpt><trkpt lat="51.035178998865845" lon="17.10966185635547"><ele>121.0</ele><time>2026-05-03T12:53:16Z</time></trkpt><trkpt lat="51.03522156354712" lon="17.109792738891535"><ele>121.0</ele><time>2026-05-03T12:53:17Z</time></trkpt><trkpt lat="51.03526303388892" lon="17.10992316452729"><ele>121.0</ele><time>2026-05-03T12:53:18Z</time></trkpt><trkpt lat="51.03530612340022" lon="17.11005520826026"><ele>121.0</ele><time>2026-05-03T12:53:19Z</time></trkpt><trkpt lat="51.03534955495614" lon="17.11018751299462"><ele>121.0</ele><time>2026-05-03T12:53:20Z</time></trkpt><trkpt lat="51.03539266806455" lon="17.110319018053303"><ele>121.19999999999999</ele><time>2026-05-03T12:53:21Z</time></trkpt><trkpt lat="51.03543540206579" lon="17.1104515168306"><ele>121.39999999999999</ele><time>2026-05-03T12:53:22Z</time></trkpt><trkpt lat="51.03547890488499" lon="17.110587337968155"><ele>121.6</ele><time>2026-05-03T12:53:23Z</time></trkpt><trkpt lat="51.03552166650286" lon="17.11072151310865"><ele>121.8</ele><time>2026-05-03T12:53:24Z</time></trkpt><trkpt lat="51.03556515673739" lon="17.110855957292156"><ele>122.0</ele><time>2026-05-03T12:53:25Z</time></trkpt><trkpt lat="51.035609150892085" lon="17.110987498012072"><ele>122.16666666666666</ele><time>2026-05-03T12:53:26Z</time></trkpt><trkpt lat="51.035650427481556" lon="17.111120261986805"><ele>122.33333333333333</ele><time>2026-05-03T12:53:27Z</time></trkpt><trkpt lat="51.03569295506254" lon="17.111245776987833"><ele>122.5</ele><time>2026-05-03T12:53:28Z</time></trkpt><trkpt lat="51.03573638161912" lon="17.11137046011827"><ele>122.66666666666666</ele><time>2026-05-03T12:53:29Z</time></trkpt><trkpt lat="51.0357779451101" lon="17.111491636543846"><ele>122.83333333333333</ele><time>2026-05-03T12:53:30Z</time></trkpt><trkpt lat="51.035813862974756" lon="17.11161329587222"><ele>123.0</ele><time>2026-05-03T12:53:31Z</time></trkpt><trkpt lat="51.03584998963901" lon="17.111730847673307"><ele>122.42857142857144</ele><time>2026-05-03T12:53:32Z</time></trkpt><trkpt lat="51.035884885921774" lon="17.11184459732189"><ele>121.85714285714286</ele><time>2026-05-03T12:53:33Z</time></trkpt><trkpt lat="51.03592180147109" lon="17.11195398652405"><ele>121.28571428571429</ele><time>2026-05-03T12:53:34Z</time></trkpt><trkpt lat="51.03595758074222" lon="17.112059087113032"><ele>120.71428571428572</ele><time>2026-05-03T12:53:35Z</time></trkpt><trkpt lat="51.03599173917891" lon="17.112163765010482"><ele>120.14285714285714</ele><time>2026-05-03T12:53:36Z</time></trkpt><trkpt lat="51.036024592771" lon="17.112265281996326"><ele>119.57142857142857</ele><time>2026-05-03T12:53:37Z</time></trkpt><trkpt lat="51.03605451245598" lon="17.11236254383857"><ele>119.0</ele><time>2026-05-03T12:53:38Z</time></trkpt><trkpt lat="51.0360853174439" lon="17.112458137488158"><ele>118.83333333333333</ele><time>2026-05-03T12:53:39Z</time></trkpt><trkpt lat="51.03611641190152" lon="17.112549143933684"><ele>118.66666666666666</ele><time>2026-05-03T12:53:40Z</time></trkpt><trkpt lat="51.036149353983355" lon="17.11264002699626"><ele>118.5</ele><time>2026-05-03T12:53:41Z</time></trkpt><trkpt lat="51.03617945474656" lon="17.112730773130817"><ele>118.33333333333334</ele><time>2026-05-03T12:53:42Z</time></trkpt><trkpt lat="51.03620790472341" lon="17.112824837402083"><ele>118.16666666666667</ele><time>2026-05-03T12:53:43Z</time></trkpt><trkpt lat="51.03626141238314" lon="17.113006308503515"><ele>118.0</ele><time>2026-05-03T12:53:45Z</time></trkpt><trkpt lat="51.03628987080581" lon="17.11309791487171"><ele>118.0</ele><time>2026-05-03T12:53:46Z</time></trkpt><trkpt lat="51.03631847062465" lon="17.1131907410831"><ele>118.0</ele><time>2026-05-03T12:53:47Z</time></trkpt><trkpt lat="51.036345820981445" lon="17.113283595270964"><ele>118.0</ele><time>2026-05-03T12:53:48Z</time></trkpt><trkpt lat="51.0363719487677" lon="17.113375966817557"><ele>118.0</ele><time>2026-05-03T12:53:49Z</time></trkpt><trkpt lat="51.03639664820478" lon="17.11346946327082"><ele>118.0</ele><time>2026-05-03T12:53:50Z</time></trkpt><trkpt lat="51.036421407507504" lon="17.113564771008246"><ele>118.0</ele><time>2026-05-03T12:53:51Z</time></trkpt><trkpt lat="51.03644604426098" lon="17.113660738146383"><ele>118.0</ele><time>2026-05-03T12:53:52Z</time></trkpt><trkpt lat="51.03646757319976" lon="17.11375619774733"><ele>118.0</ele><time>2026-05-03T12:53:53Z</time></trkpt><trkpt lat="51.03648815938373" lon="17.113854336488348"><ele>118.0</ele><time>2026-05-03T12:53:54Z</time></trkpt><trkpt lat="51.03650748097193" lon="17.113952853849966"><ele>118.0</ele><time>2026-05-03T12:53:55Z</time></trkpt><trkpt lat="51.03652645947301" lon="17.11405526816279"><ele>118.0</ele><time>2026-05-03T12:53:56Z</time></trkpt><trkpt lat="51.03654699886043" lon="17.114152920719118"><ele>118.0</ele><time>2026-05-03T12:53:57Z</time></trkpt><trkpt lat="51.036564492736325" lon="17.11425892389728"><ele>118.0</ele><time>2026-05-03T12:53:58Z</time></trkpt><trkpt lat="51.036579013821914" lon="17.114364847628494"><ele>118.0</ele><time>2026-05-03T12:53:59Z</time></trkpt><trkpt lat="51.036595124216504" lon="17.1144732358021"><ele>118.0</ele><time>2026-05-03T12:54:00Z</time></trkpt><trkpt lat="51.0366082958882" lon="17.114584857542958"><ele>118.0</ele><time>2026-05-03T12:54:01Z</time></trkpt><trkpt lat="51.03662352905839" lon="17.114700077495392"><ele>118.0</ele><time>2026-05-03T12:54:02Z</time></trkpt><trkpt lat="51.03663561375072" lon="17.114815071006493"><ele>118.0</ele><time>2026-05-03T12:54:03Z</time></trkpt><trkpt lat="51.03664530910483" lon="17.11493431255539"><ele>118.0</ele><time>2026-05-03T12:54:04Z</time></trkpt><trkpt lat="51.03665255315911" lon="17.115055321434884"><ele>118.0</ele><time>2026-05-03T12:54:05Z</time></trkpt><trkpt lat="51.036662855372015" lon="17.11517914403404"><ele>118.0</ele><time>2026-05-03T12:54:06Z</time></trkpt><trkpt lat="51.0366689348398" lon="17.115306477706433"><ele>118.33333333333334</ele><time>2026-05-03T12:54:07Z</time></trkpt><trkpt lat="51.03667553585851" lon="17.115432476692185"><ele>118.66666666666667</ele><time>2026-05-03T12:54:08Z</time></trkpt><trkpt lat="51.0366773506389" lon="17.115566540079275"><ele>119.0</ele><time>2026-05-03T12:54:09Z</time></trkpt><trkpt lat="51.036680777529085" lon="17.115699510837658"><ele>119.33333333333334</ele><time>2026-05-03T12:54:10Z</time></trkpt><trkpt lat="51.036678691372266" lon="17.11584043028282"><ele>119.66666666666667</ele><time>2026-05-03T12:54:11Z</time></trkpt><trkpt lat="51.03667594976815" lon="17.11598274729981"><ele>120.0</ele><time>2026-05-03T12:54:12Z</time></trkpt><trkpt lat="51.03667278810052" lon="17.11612770476399"><ele>120.0</ele><time>2026-05-03T12:54:13Z</time></trkpt><trkpt lat="51.03666758309471" lon="17.116277661863585"><ele>120.0</ele><time>2026-05-03T12:54:14Z</time></trkpt><trkpt lat="51.03665909104172" lon="17.116431676767142"><ele>120.0</ele><time>2026-05-03T12:54:15Z</time></trkpt><trkpt lat="51.036667176892564" lon="17.116590511771424"><ele>120.0</ele><time>2026-05-03T12:54:16Z</time></trkpt><trkpt lat="51.036659890743906" lon="17.11675062546815"><ele>120.0</ele><time>2026-05-03T12:54:17Z</time></trkpt><trkpt lat="51.03665211200024" lon="17.116914391064043"><ele>120.2</ele><time>2026-05-03T12:54:18Z</time></trkpt><trkpt lat="51.03664274283748" lon="17.117080034243273"><ele>120.4</ele><time>2026-05-03T12:54:19Z</time></trkpt><trkpt lat="51.03663146369749" lon="17.11724462788099"><ele>120.6</ele><time>2026-05-03T12:54:20Z</time></trkpt><trkpt lat="51.03661998457845" lon="17.11741213984261"><ele>120.8</ele><time>2026-05-03T12:54:21Z</time></trkpt><trkpt lat="51.03660848645438" lon="17.11757992809044"><ele>121.0</ele><time>2026-05-03T12:54:22Z</time></trkpt><trkpt lat="51.036564095336374" lon="17.117739815068834"><ele>120.4</ele><time>2026-05-03T12:54:23Z</time></trkpt><trkpt lat="51.036550862975666" lon="17.117904911976876"><ele>119.8</ele><time>2026-05-03T12:54:24Z</time></trkpt><trkpt lat="51.0365346205571" lon="17.118068573319608"><ele>119.20000000000002</ele><time>2026-05-03T12:54:25Z</time></trkpt><trkpt lat="51.03656041855038" lon="17.11823737294899"><ele>118.60000000000001</ele><time>2026-05-03T12:54:26Z</time></trkpt><trkpt lat="51.036547563969634" lon="17.118399073455553"><ele>118.0</ele><time>2026-05-03T12:54:27Z</time></trkpt><trkpt lat="51.03653606538474" lon="17.118561129661373"><ele>118.0</ele><time>2026-05-03T12:54:28Z</time></trkpt><trkpt lat="51.03646034049994" lon="17.1187022176106"><ele>118.00000000000001</ele><time>2026-05-03T12:54:29Z</time></trkpt><trkpt lat="51.0364536320848" lon="17.118849264098174"><ele>118.00000000000001</ele><time>2026-05-03T12:54:30Z</time></trkpt><trkpt lat="51.03644824213438" lon="17.11900003274442"><ele>118.0</ele><time>2026-05-03T12:54:31Z</time></trkpt><trkpt lat="51.03643727671278" lon="17.1191508076454"><ele>118.0</ele><time>2026-05-03T12:54:32Z</time></trkpt><trkpt lat="51.03642933268772" lon="17.119301184395912"><ele>118.2</ele><time>2026-05-03T12:54:33Z</time></trkpt><trkpt lat="51.03642303656531" lon="17.11945585883455"><ele>118.4</ele><time>2026-05-03T12:54:34Z</time></trkpt><trkpt lat="51.03641095124822" lon="17.11961135365896"><ele>118.60000000000001</ele><time>2026-05-03T12:54:35Z</time></trkpt><trkpt lat="51.03639445812264" lon="17.11976514401684"><ele>118.80000000000001</ele><time>2026-05-03T12:54:36Z</time></trkpt><trkpt lat="51.03637919060884" lon="17.119921256181023"><ele>119.0</ele><time>2026-05-03T12:54:37Z</time></trkpt><trkpt lat="51.03636608158419" lon="17.120077056819614"><ele>119.0</ele><time>2026-05-03T12:54:38Z</time></trkpt><trkpt lat="51.03635615300027" lon="17.120232561183666"><ele>119.0</ele><time>2026-05-03T12:54:39Z</time></trkpt><trkpt lat="51.036347085313416" lon="17.120385996244853"><ele>119.0</ele><time>2026-05-03T12:54:40Z</time></trkpt><trkpt lat="51.03633666671727" lon="17.12053977960296"><ele>119.0</ele><time>2026-05-03T12:54:41Z</time></trkpt><trkpt lat="51.03632514484419" lon="17.120691209947385"><ele>119.0</ele><time>2026-05-03T12:54:42Z</time></trkpt><trkpt lat="51.03631453982652" lon="17.120842213014612"><ele>119.0</ele><time>2026-05-03T12:54:43Z</time></trkpt><trkpt lat="51.03630473114661" lon="17.120990667464255"><ele>119.0</ele><time>2026-05-03T12:54:44Z</time></trkpt><trkpt lat="51.036294141381894" lon="17.121138185174846"><ele>119.0</ele><time>2026-05-03T12:54:45Z</time></trkpt><trkpt lat="51.036283573559594" lon="17.121283849632015"><ele>119.0</ele><time>2026-05-03T12:54:46Z</time></trkpt><trkpt lat="51.03627681224599" lon="17.121430115530103"><ele>119.0</ele><time>2026-05-03T12:54:47Z</time></trkpt><trkpt lat="51.03626879890026" lon="17.121574528184887"><ele>118.99999999999999</ele><time>2026-05-03T12:54:48Z</time></trkpt><trkpt lat="51.036256655094775" lon="17.12171740023737"><ele>119.0</ele><time>2026-05-03T12:54:49Z</time></trkpt><trkpt lat="51.03624349127606" lon="17.12185825004256"><ele>119.0</ele><time>2026-05-03T12:54:50Z</time></trkpt><trkpt lat="51.036231857022116" lon="17.12199888309696"><ele>119.0</ele><time>2026-05-03T12:54:51Z</time></trkpt><trkpt lat="51.036221620609496" lon="17.122141163139617"><ele>118.99999999999999</ele><time>2026-05-03T12:54:52Z</time></trkpt><trkpt lat="51.03621080886417" lon="17.122283332005114"><ele>119.0</ele><time>2026-05-03T12:54:53Z</time></trkpt><trkpt lat="51.036200012848866" lon="17.122426649793873"><ele>119.16666666666666</ele><time>2026-05-03T12:54:54Z</time></trkpt><trkpt lat="51.03618939017665" lon="17.122569280959844"><ele>119.33333333333333</ele><time>2026-05-03T12:54:55Z</time></trkpt><trkpt lat="51.036178748716715" lon="17.12271063765856"><ele>119.5</ele><time>2026-05-03T12:54:56Z</time></trkpt><trkpt lat="51.036167470909156" lon="17.122850267705886"><ele>119.66666666666666</ele><time>2026-05-03T12:54:57Z</time></trkpt><trkpt lat="51.03615564080465" lon="17.12298730062569"><ele>119.83333333333333</ele><time>2026-05-03T12:54:58Z</time></trkpt><trkpt lat="51.03614552089977" lon="17.123123950632134"><ele>120.0</ele><time>2026-05-03T12:54:59Z</time></trkpt><trkpt lat="51.03613675355594" lon="17.123259458548084"><ele>120.0</ele><time>2026-05-03T12:55:00Z</time></trkpt><trkpt lat="51.036130612726645" lon="17.12339346082311"><ele>120.0</ele><time>2026-05-03T12:55:01Z</time></trkpt><trkpt lat="51.03612287586895" lon="17.123525595412755"><ele>120.0</ele><time>2026-05-03T12:55:02Z</time></trkpt><trkpt lat="51.03612206078142" lon="17.1236560394124"><ele>120.0</ele><time>2026-05-03T12:55:03Z</time></trkpt><trkpt lat="51.036124289642466" lon="17.12378706381807"><ele>120.0</ele><time>2026-05-03T12:55:04Z</time></trkpt><trkpt lat="51.03612563931973" lon="17.123917205797895"><ele>120.0</ele><time>2026-05-03T12:55:05Z</time></trkpt><trkpt lat="51.0361297592002" lon="17.12404921297107"><ele>119.66666666666667</ele><time>2026-05-03T12:55:06Z</time></trkpt><trkpt lat="51.03613488972745" lon="17.124179885395286"><ele>119.33333333333334</ele><time>2026-05-03T12:55:07Z</time></trkpt><trkpt lat="51.036143538750686" lon="17.124312923335268"><ele>119.0</ele><time>2026-05-03T12:55:08Z</time></trkpt><trkpt lat="51.03615248165206" lon="17.124443928753756"><ele>118.66666666666667</ele><time>2026-05-03T12:55:09Z</time></trkpt><trkpt lat="51.03616194063607" lon="17.124572777482676"><ele>118.33333333333334</ele><time>2026-05-03T12:55:10Z</time></trkpt><trkpt lat="51.036175074154976" lon="17.12470126113717"><ele>118.0</ele><time>2026-05-03T12:55:11Z</time></trkpt><trkpt lat="51.03618988277723" lon="17.12482378685907"><ele>118.0</ele><time>2026-05-03T12:55:12Z</time></trkpt><trkpt lat="51.036203897840736" lon="17.124946666928448"><ele>118.0</ele><time>2026-05-03T12:55:13Z</time></trkpt><trkpt lat="51.03621993413106" lon="17.12506239755269"><ele>118.0</ele><time>2026-05-03T12:55:14Z</time></trkpt><trkpt lat="51.03624007007456" lon="17.125176672932632"><ele>118.0</ele><time>2026-05-03T12:55:15Z</time></trkpt><trkpt lat="51.03625483950932" lon="17.125288642020386"><ele>118.0</ele><time>2026-05-03T12:55:16Z</time></trkpt><trkpt lat="51.0362661087467" lon="17.125402220803394"><ele>118.0</ele><time>2026-05-03T12:55:17Z</time></trkpt><trkpt lat="51.03627653936018" lon="17.12551292498691"><ele>118.0</ele><time>2026-05-03T12:55:18Z</time></trkpt><trkpt lat="51.03628223318968" lon="17.12562862080139"><ele>118.00000000000001</ele><time>2026-05-03T12:55:19Z</time></trkpt><trkpt lat="51.036301066734886" lon="17.12573037158821"><ele>118.0</ele><time>2026-05-03T12:55:20Z</time></trkpt><trkpt lat="51.03635605460696" lon="17.125784796138078"><ele>118.0</ele><time>2026-05-03T12:55:21Z</time></trkpt><trkpt lat="51.03641102498197" lon="17.12583897128482"><ele>118.0</ele><time>2026-05-03T12:55:22Z</time></trkpt><trkpt lat="51.036455486298514" lon="17.12600943377683"><ele>118.00000000000001</ele><time>2026-05-03T12:55:24Z</time></trkpt><trkpt lat="51.03646248414611" lon="17.126205718314534"><ele>118.0</ele><time>2026-05-03T12:55:26Z</time></trkpt><trkpt lat="51.03648918269474" lon="17.12630788504353"><ele>118.00000000000001</ele><time>2026-05-03T12:55:27Z</time></trkpt><trkpt lat="51.03653452084174" lon="17.126400856102133"><ele>118.0</ele><time>2026-05-03T12:55:28Z</time></trkpt><trkpt lat="51.03658958010671" lon="17.126475246400183"><ele>118.0</ele><time>2026-05-03T12:55:29Z</time></trkpt><trkpt lat="51.036642232456806" lon="17.126549403511582"><ele>118.0</ele><time>2026-05-03T12:55:30Z</time></trkpt><trkpt lat="51.0366875315181" lon="17.12662700387389"><ele>118.00000000000001</ele><time>2026-05-03T12:55:31Z</time></trkpt><trkpt lat="51.03672973176565" lon="17.1267221241231"><ele>118.0</ele><time>2026-05-03T12:55:32Z</time></trkpt><trkpt lat="51.0368331205772" lon="17.126738786252638"><ele>118.0</ele><time>2026-05-03T12:55:33Z</time></trkpt><trkpt lat="51.03687794955312" lon="17.126828295321914"><ele>118.0</ele><time>2026-05-03T12:55:34Z</time></trkpt><trkpt lat="51.036924890054145" lon="17.126913978888354"><ele>118.0</ele><time>2026-05-03T12:55:35Z</time></trkpt><trkpt lat="51.036973029500096" lon="17.127002183709944"><ele>118.0</ele><time>2026-05-03T12:55:36Z</time></trkpt><trkpt lat="51.037022787562805" lon="17.127090111359074"><ele>118.0</ele><time>2026-05-03T12:55:37Z</time></trkpt><trkpt lat="51.037071882142214" lon="17.127176963896666"><ele>118.0</ele><time>2026-05-03T12:55:38Z</time></trkpt><trkpt lat="51.03711986781837" lon="17.127261854770975"><ele>118.0</ele><time>2026-05-03T12:55:39Z</time></trkpt><trkpt lat="51.0371683266899" lon="17.127345370562796"><ele>118.0</ele><time>2026-05-03T12:55:40Z</time></trkpt><trkpt lat="51.03721774821895" lon="17.127430767162593"><ele>118.0</ele><time>2026-05-03T12:55:41Z</time></trkpt><trkpt lat="51.037270447953624" lon="17.127516251697532"><ele>118.0</ele><time>2026-05-03T12:55:42Z</time></trkpt><trkpt lat="51.03732221380682" lon="17.12759948221986"><ele>118.0</ele><time>2026-05-03T12:55:43Z</time></trkpt><trkpt lat="51.03737433647971" lon="17.127677086961636"><ele>118.0</ele><time>2026-05-03T12:55:44Z</time></trkpt><trkpt lat="51.037430866016095" lon="17.1277541257105"><ele>118.0</ele><time>2026-05-03T12:55:45Z</time></trkpt><trkpt lat="51.03748884690662" lon="17.127829112504216"><ele>118.0</ele><time>2026-05-03T12:55:46Z</time></trkpt><trkpt lat="51.03748979862794" lon="17.12801945377296"><ele>118.00000000000001</ele><time>2026-05-03T12:55:47Z</time></trkpt><trkpt lat="51.037545666254154" lon="17.128106367719205"><ele>118.0</ele><time>2026-05-03T12:55:48Z</time></trkpt><trkpt lat="51.037603845356294" lon="17.128188762336094"><ele>118.0</ele><time>2026-05-03T12:55:49Z</time></trkpt><trkpt lat="51.03766133258003" lon="17.128273062826366"><ele>118.0</ele><time>2026-05-03T12:55:50Z</time></trkpt><trkpt lat="51.03772033245933" lon="17.128355920844978"><ele>118.00000000000001</ele><time>2026-05-03T12:55:51Z</time></trkpt><trkpt lat="51.037777031245206" lon="17.128437493605897"><ele>118.0</ele><time>2026-05-03T12:55:52Z</time></trkpt><trkpt lat="51.03783504484131" lon="17.128520674261686"><ele>118.16666666666667</ele><time>2026-05-03T12:55:53Z</time></trkpt><trkpt lat="51.03789228607754" lon="17.12860214742101"><ele>118.33333333333334</ele><time>2026-05-03T12:55:54Z</time></trkpt><trkpt lat="51.03794654094667" lon="17.128689200044295"><ele>118.5</ele><time>2026-05-03T12:55:55Z</time></trkpt><trkpt lat="51.03800262380331" lon="17.12877577560081"><ele>118.66666666666666</ele><time>2026-05-03T12:55:56Z</time></trkpt><trkpt lat="51.03805922107565" lon="17.128862788792343"><ele>118.83333333333333</ele><time>2026-05-03T12:55:57Z</time></trkpt><trkpt lat="51.03811409338634" lon="17.128947349321002"><ele>119.0</ele><time>2026-05-03T12:55:58Z</time></trkpt><trkpt lat="51.03817257309909" lon="17.1290331123216"><ele>118.83333333333333</ele><time>2026-05-03T12:55:59Z</time></trkpt><trkpt lat="51.03823311742721" lon="17.12911942894441"><ele>118.66666666666666</ele><time>2026-05-03T12:56:00Z</time></trkpt><trkpt lat="51.03829673927601" lon="17.129203783320264"><ele>118.5</ele><time>2026-05-03T12:56:01Z</time></trkpt><trkpt lat="51.0383632613821" lon="17.12928932561838"><ele>118.33333333333334</ele><time>2026-05-03T12:56:02Z</time></trkpt><trkpt lat="51.03842958580236" lon="17.129375480699167"><ele>118.16666666666667</ele><time>2026-05-03T12:56:03Z</time></trkpt><trkpt lat="51.038499313575066" lon="17.129466542187526"><ele>118.0</ele><time>2026-05-03T12:56:04Z</time></trkpt><trkpt lat="51.03856896521914" lon="17.129560493548926"><ele>118.0</ele><time>2026-05-03T12:56:05Z</time></trkpt><trkpt lat="51.03864006808665" lon="17.129655864878575"><ele>118.00000000000001</ele><time>2026-05-03T12:56:06Z</time></trkpt><trkpt lat="51.038714575769475" lon="17.12975214236788"><ele>118.00000000000001</ele><time>2026-05-03T12:56:07Z</time></trkpt><trkpt lat="51.038823581584396" lon="17.129783963242954"><ele>118.0</ele><time>2026-05-03T12:56:08Z</time></trkpt><trkpt lat="51.03889791368022" lon="17.12988147637276"><ele>118.0</ele><time>2026-05-03T12:56:09Z</time></trkpt><trkpt lat="51.03897577039694" lon="17.129986273329525"><ele>118.00000000000001</ele><time>2026-05-03T12:56:10Z</time></trkpt><trkpt lat="51.03905020759385" lon="17.130086621642818"><ele>118.0</ele><time>2026-05-03T12:56:11Z</time></trkpt><trkpt lat="51.03911503818726" lon="17.130174019448113"><ele>118.0</ele><time>2026-05-03T12:56:12Z</time></trkpt><trkpt lat="51.0391750844749" lon="17.130254968632936"><ele>118.0</ele><time>2026-05-03T12:56:13Z</time></trkpt><trkpt lat="51.03923660593209" lon="17.1303328557369"><ele>118.00000000000001</ele><time>2026-05-03T12:56:14Z</time></trkpt><trkpt lat="51.03929383758202" lon="17.130406131544962"><ele>118.0</ele><time>2026-05-03T12:56:15Z</time></trkpt><trkpt lat="51.039252484112644" lon="17.130626536517035"><ele>118.4</ele><time>2026-05-03T12:56:16Z</time></trkpt><trkpt lat="51.03926697609497" lon="17.130793885175148"><ele>118.80000000000001</ele><time>2026-05-03T12:56:18Z</time></trkpt><trkpt lat="51.03940090608448" lon="17.130878905917744"><ele>119.2</ele><time>2026-05-03T12:56:20Z</time></trkpt><trkpt lat="51.039490115921886" lon="17.130945850608537"><ele>119.6</ele><time>2026-05-03T12:56:23Z</time></trkpt><trkpt lat="51.039576919802016" lon="17.131006208040777"><ele>120.0</ele><time>2026-05-03T12:56:25Z</time></trkpt><trkpt lat="51.03968021558603" lon="17.13102598932898"><ele>120.0</ele><time>2026-05-03T12:56:27Z</time></trkpt><trkpt lat="51.03984651604135" lon="17.13115720409785"><ele>120.0</ele><time>2026-05-03T12:56:29Z</time></trkpt><trkpt lat="51.0397016615216" lon="17.131604161907354"><ele>120.16666666666667</ele><time>2026-05-03T12:56:31Z</time></trkpt><trkpt lat="51.03970058309669" lon="17.131721005693304"><ele>120.33333333333334</ele><time>2026-05-03T12:56:32Z</time></trkpt><trkpt lat="51.039694017312975" lon="17.13184341935678"><ele>120.5</ele><time>2026-05-03T12:56:33Z</time></trkpt><trkpt lat="51.03968619162033" lon="17.13196639368227"><ele>120.66666666666667</ele><time>2026-05-03T12:56:34Z</time></trkpt><trkpt lat="51.03967659043912" lon="17.132090379099495"><ele>120.83333333333334</ele><time>2026-05-03T12:56:35Z</time></trkpt><trkpt lat="51.03967185476502" lon="17.13221489660881"><ele>121.0</ele><time>2026-05-03T12:56:36Z</time></trkpt><trkpt lat="51.03967113558151" lon="17.132347151459697"><ele>120.83333333333334</ele><time>2026-05-03T12:56:37Z</time></trkpt><trkpt lat="51.03966417507656" lon="17.13247496368549"><ele>120.66666666666667</ele><time>2026-05-03T12:56:38Z</time></trkpt><trkpt lat="51.03965532414191" lon="17.13260105715"><ele>120.5</ele><time>2026-05-03T12:56:39Z</time></trkpt><trkpt lat="51.039648575343904" lon="17.132730913922202"><ele>120.33333333333334</ele><time>2026-05-03T12:56:40Z</time></trkpt><trkpt lat="51.03964462556399" lon="17.13286090692929"><ele>120.16666666666667</ele><time>2026-05-03T12:56:41Z</time></trkpt><trkpt lat="51.03964048763761" lon="17.13299218975163"><ele>120.0</ele><time>2026-05-03T12:56:42Z</time></trkpt><trkpt lat="51.039632671645045" lon="17.133126693674196"><ele>119.66666666666667</ele><time>2026-05-03T12:56:43Z</time></trkpt><trkpt lat="51.03962304029619" lon="17.13326587014543"><ele>119.33333333333334</ele><time>2026-05-03T12:56:44Z</time></trkpt><trkpt lat="51.03961621603766" lon="17.133399481981982"><ele>119.0</ele><time>2026-05-03T12:56:45Z</time></trkpt><trkpt lat="51.03960859437884" lon="17.13353110912331"><ele>118.66666666666667</ele><time>2026-05-03T12:56:46Z</time></trkpt><trkpt lat="51.03960410186756" lon="17.13366384501583"><ele>118.33333333333334</ele><time>2026-05-03T12:56:47Z</time></trkpt><trkpt lat="51.03959714108624" lon="17.133798184502353"><ele>118.0</ele><time>2026-05-03T12:56:48Z</time></trkpt><trkpt lat="51.03959538388345" lon="17.13393481920415"><ele>117.83333333333334</ele><time>2026-05-03T12:56:49Z</time></trkpt><trkpt lat="51.03959363500711" lon="17.13406890687768"><ele>117.66666666666667</ele><time>2026-05-03T12:56:50Z</time></trkpt><trkpt lat="51.03958872483687" lon="17.13419854124128"><ele>117.5</ele><time>2026-05-03T12:56:51Z</time></trkpt><trkpt lat="51.03959330905063" lon="17.134329278334437"><ele>117.33333333333334</ele><time>2026-05-03T12:56:52Z</time></trkpt><trkpt lat="51.039585559095364" lon="17.134459315206595"><ele>117.16666666666667</ele><time>2026-05-03T12:56:53Z</time></trkpt><trkpt lat="51.03958780346999" lon="17.134592043445092"><ele>117.0</ele><time>2026-05-03T12:56:54Z</time></trkpt><trkpt lat="51.03959341008931" lon="17.134732410621588"><ele>117.0</ele><time>2026-05-03T12:56:55Z</time></trkpt><trkpt lat="51.03959599443916" lon="17.134858483430957"><ele>117.0</ele><time>2026-05-03T12:56:56Z</time></trkpt><trkpt lat="51.03959515229225" lon="17.134984009224734"><ele>117.0</ele><time>2026-05-03T12:56:57Z</time></trkpt><trkpt lat="51.03959527942749" lon="17.135114754411877"><ele>117.0</ele><time>2026-05-03T12:56:58Z</time></trkpt><trkpt lat="51.03959901417003" lon="17.135240571944625"><ele>117.0</ele><time>2026-05-03T12:56:59Z</time></trkpt><trkpt lat="51.03959789646287" lon="17.13536672354033"><ele>117.0</ele><time>2026-05-03T12:57:00Z</time></trkpt><trkpt lat="51.03960353423248" lon="17.135488119794438"><ele>117.16666666666667</ele><time>2026-05-03T12:57:01Z</time></trkpt><trkpt lat="51.03960695772363" lon="17.13561637998547"><ele>117.33333333333334</ele><time>2026-05-03T12:57:02Z</time></trkpt><trkpt lat="51.03960755759396" lon="17.135745604938187"><ele>117.5</ele><time>2026-05-03T12:57:03Z</time></trkpt><trkpt lat="51.039608993486965" lon="17.13587399391151"><ele>117.66666666666667</ele><time>2026-05-03T12:57:04Z</time></trkpt><trkpt lat="51.03960857555131" lon="17.136004967680602"><ele>117.83333333333334</ele><time>2026-05-03T12:57:05Z</time></trkpt><trkpt lat="51.0396114234946" lon="17.136131995695102"><ele>118.0</ele><time>2026-05-03T12:57:06Z</time></trkpt><trkpt lat="51.03961117889095" lon="17.13625880029746"><ele>118.16666666666667</ele><time>2026-05-03T12:57:07Z</time></trkpt><trkpt lat="51.03961409780122" lon="17.136382486625735"><ele>118.33333333333334</ele><time>2026-05-03T12:57:08Z</time></trkpt><trkpt lat="51.03961692045383" lon="17.136504713550607"><ele>118.5</ele><time>2026-05-03T12:57:09Z</time></trkpt><trkpt lat="51.039616894568255" lon="17.136627232225838"><ele>118.66666666666666</ele><time>2026-05-03T12:57:10Z</time></trkpt><trkpt lat="51.03962097821785" lon="17.136750565893752"><ele>118.83333333333333</ele><time>2026-05-03T12:57:11Z</time></trkpt><trkpt lat="51.039618173816656" lon="17.136874945931194"><ele>119.0</ele><time>2026-05-03T12:57:12Z</time></trkpt><trkpt lat="51.03961926375225" lon="17.1369923377615"><ele>118.99999999999999</ele><time>2026-05-03T12:57:13Z</time></trkpt><trkpt lat="51.03962761917799" lon="17.137115939145257"><ele>119.0</ele><time>2026-05-03T12:57:14Z</time></trkpt><trkpt lat="51.03963413801292" lon="17.137243145895564"><ele>119.0</ele><time>2026-05-03T12:57:15Z</time></trkpt><trkpt lat="51.03963220066635" lon="17.13735469434219"><ele>119.0</ele><time>2026-05-03T12:57:16Z</time></trkpt><trkpt lat="51.03963358026683" lon="17.13747925007927"><ele>118.99999999999999</ele><time>2026-05-03T12:57:17Z</time></trkpt><trkpt lat="51.039633486115086" lon="17.137596093889805"><ele>119.0</ele><time>2026-05-03T12:57:18Z</time></trkpt><trkpt lat="51.03963803393326" lon="17.137719444143727"><ele>119.16666666666666</ele><time>2026-05-03T12:57:19Z</time></trkpt><trkpt lat="51.0396442745454" lon="17.137842636338092"><ele>119.33333333333333</ele><time>2026-05-03T12:57:20Z</time></trkpt><trkpt lat="51.039653130326045" lon="17.13796638763682"><ele>119.5</ele><time>2026-05-03T12:57:21Z</time></trkpt><trkpt lat="51.03966918997834" lon="17.13807618668173"><ele>119.66666666666666</ele><time>2026-05-03T12:57:22Z</time></trkpt><trkpt lat="51.03969046406636" lon="17.138190540049273"><ele>119.83333333333333</ele><time>2026-05-03T12:57:23Z</time></trkpt><trkpt lat="51.0397156782448" lon="17.138303429497793"><ele>120.0</ele><time>2026-05-03T12:57:24Z</time></trkpt><trkpt lat="51.03974071202044" lon="17.13841484510362"><ele>120.0</ele><time>2026-05-03T12:57:25Z</time></trkpt><trkpt lat="51.039772937084294" lon="17.138523694373582"><ele>120.0</ele><time>2026-05-03T12:57:26Z</time></trkpt><trkpt lat="51.039808857546014" lon="17.13861893578041"><ele>120.0</ele><time>2026-05-03T12:57:27Z</time></trkpt><trkpt lat="51.03985221552843" lon="17.138706833888648"><ele>120.0</ele><time>2026-05-03T12:57:28Z</time></trkpt><trkpt lat="51.03989630924789" lon="17.138793882764368"><ele>120.0</ele><time>2026-05-03T12:57:29Z</time></trkpt><trkpt lat="51.039948839911254" lon="17.138866269104714"><ele>120.0</ele><time>2026-05-03T12:57:30Z</time></trkpt><trkpt lat="51.03999769626431" lon="17.138935850453986"><ele>120.0</ele><time>2026-05-03T12:57:31Z</time></trkpt><trkpt lat="51.0400425758353" lon="17.13901858262177"><ele>120.2</ele><time>2026-05-03T12:57:32Z</time></trkpt><trkpt lat="51.0401163095056" lon="17.13917652190954"><ele>120.4</ele><time>2026-05-03T12:57:34Z</time></trkpt><trkpt lat="51.04017226461542" lon="17.139352156737868"><ele>120.6</ele><time>2026-05-03T12:57:36Z</time></trkpt><trkpt lat="51.04020296357744" lon="17.13955136633895"><ele>120.8</ele><time>2026-05-03T12:57:38Z</time></trkpt><trkpt lat="51.040215248344516" lon="17.139650148184547"><ele>121.0</ele><time>2026-05-03T12:57:39Z</time></trkpt><trkpt lat="51.04022260782478" lon="17.139750928403576"><ele>121.0</ele><time>2026-05-03T12:57:40Z</time></trkpt><trkpt lat="51.040227544050204" lon="17.13985677884139"><ele>120.99999999999999</ele><time>2026-05-03T12:57:41Z</time></trkpt><trkpt lat="51.040232219967535" lon="17.139967642473746"><ele>121.0</ele><time>2026-05-03T12:57:42Z</time></trkpt><trkpt lat="51.04023793067682" lon="17.140074962219384"><ele>121.0</ele><time>2026-05-03T12:57:43Z</time></trkpt><trkpt lat="51.040237101810376" lon="17.140195932501157"><ele>120.99999999999999</ele><time>2026-05-03T12:57:44Z</time></trkpt><trkpt lat="51.040242035158805" lon="17.140304801874315"><ele>121.0</ele><time>2026-05-03T12:57:45Z</time></trkpt><trkpt lat="51.040244024215774" lon="17.140417690322717"><ele>121.0</ele><time>2026-05-03T12:57:46Z</time></trkpt><trkpt lat="51.040249146660685" lon="17.140537445499294"><ele>120.83333333333334</ele><time>2026-05-03T12:57:47Z</time></trkpt><trkpt lat="51.040255785031945" lon="17.140657270863393"><ele>120.66666666666667</ele><time>2026-05-03T12:57:48Z</time></trkpt><trkpt lat="51.040267192410575" lon="17.140778764701412"><ele>120.5</ele><time>2026-05-03T12:57:49Z</time></trkpt><trkpt lat="51.040292453776935" lon="17.140888828407284"><ele>120.33333333333334</ele><time>2026-05-03T12:57:50Z</time></trkpt><trkpt lat="51.040335060477055" lon="17.140980846915383"><ele>120.16666666666667</ele><time>2026-05-03T12:57:51Z</time></trkpt><trkpt lat="51.04040229311837" lon="17.14103936616789"><ele>120.0</ele><time>2026-05-03T12:57:52Z</time></trkpt><trkpt lat="51.0404777710236" lon="17.141053163138416"><ele>120.0</ele><time>2026-05-03T12:57:53Z</time></trkpt><trkpt lat="51.04055064079107" lon="17.141034236127904"><ele>120.0</ele><time>2026-05-03T12:57:54Z</time></trkpt><trkpt lat="51.04061647307935" lon="17.14099669783146"><ele>120.0</ele><time>2026-05-03T12:57:55Z</time></trkpt><trkpt lat="51.040677298155735" lon="17.140970489020248"><ele>120.0</ele><time>2026-05-03T12:57:56Z</time></trkpt><trkpt lat="51.0407647847759" lon="17.14107128520998"><ele>120.0</ele><time>2026-05-03T12:57:58Z</time></trkpt><trkpt lat="51.04078551039711" lon="17.141256653734196"><ele>120.0</ele><time>2026-05-03T12:58:00Z</time></trkpt><trkpt lat="51.040798208175886" lon="17.141450985233014"><ele>120.16666666666667</ele><time>2026-05-03T12:58:02Z</time></trkpt><trkpt lat="51.040804609991014" lon="17.141655101521934"><ele>120.33333333333334</ele><time>2026-05-03T12:58:04Z</time></trkpt><trkpt lat="51.0408084116815" lon="17.141766668565566"><ele>120.5</ele><time>2026-05-03T12:58:05Z</time></trkpt><trkpt lat="51.04080334486771" lon="17.141880871121742"><ele>120.66666666666667</ele><time>2026-05-03T12:58:06Z</time></trkpt><trkpt lat="51.0408000515475" lon="17.14199432125271"><ele>120.83333333333334</ele><time>2026-05-03T12:58:07Z</time></trkpt><trkpt lat="51.04079723099638" lon="17.142107285406915"><ele>121.0</ele><time>2026-05-03T12:58:08Z</time></trkpt><trkpt lat="51.04079663926549" lon="17.14221991788941"><ele>121.0</ele><time>2026-05-03T12:58:09Z</time></trkpt><trkpt lat="51.04079825301906" lon="17.142333942424525"><ele>120.99999999999999</ele><time>2026-05-03T12:58:10Z</time></trkpt><trkpt lat="51.04080140120024" lon="17.142447320376988"><ele>121.0</ele><time>2026-05-03T12:58:11Z</time></trkpt><trkpt lat="51.04080603309126" lon="17.142562616297663"><ele>121.0</ele><time>2026-05-03T12:58:12Z</time></trkpt><trkpt lat="51.040810149607374" lon="17.142677078886635"><ele>120.99999999999999</ele><time>2026-05-03T12:58:13Z</time></trkpt><trkpt lat="51.040814658263834" lon="17.142792827908266"><ele>121.0</ele><time>2026-05-03T12:58:14Z</time></trkpt><trkpt lat="51.040816374074545" lon="17.14290829799751"><ele>121.0</ele><time>2026-05-03T12:58:15Z</time></trkpt><trkpt lat="51.04081613188063" lon="17.143022356288988"><ele>120.71428571428571</ele><time>2026-05-03T12:58:16Z</time></trkpt><trkpt lat="51.04081678210507" lon="17.14313690410435"><ele>120.42857142857142</ele><time>2026-05-03T12:58:17Z</time></trkpt><trkpt lat="51.04082455529795" lon="17.14325190992484"><ele>120.14285714285714</ele><time>2026-05-03T12:58:18Z</time></trkpt><trkpt lat="51.040828354808944" lon="17.143365083158788"><ele>119.85714285714286</ele><time>2026-05-03T12:58:19Z</time></trkpt><trkpt lat="51.04082990437165" lon="17.143480860631144"><ele>119.57142857142857</ele><time>2026-05-03T12:58:20Z</time></trkpt><trkpt lat="51.0408288629444" lon="17.14359389685334"><ele>119.28571428571428</ele><time>2026-05-03T12:58:21Z</time></trkpt><trkpt lat="51.0408280979129" lon="17.143709442283193"><ele>119.0</ele><time>2026-05-03T12:58:22Z</time></trkpt><trkpt lat="51.04083242626877" lon="17.143823685374624"><ele>118.71428571428572</ele><time>2026-05-03T12:58:23Z</time></trkpt><trkpt lat="51.04084002246671" lon="17.143936222839553"><ele>118.42857142857143</ele><time>2026-05-03T12:58:24Z</time></trkpt><trkpt lat="51.040848935671306" lon="17.14404790324172"><ele>118.14285714285714</ele><time>2026-05-03T12:58:25Z</time></trkpt><trkpt lat="51.04085465309386" lon="17.144159088751298"><ele>117.85714285714286</ele><time>2026-05-03T12:58:26Z</time></trkpt><trkpt lat="51.04085992293533" lon="17.144269591283518"><ele>117.57142857142858</ele><time>2026-05-03T12:58:27Z</time></trkpt><trkpt lat="51.04086397016189" lon="17.14437979660439"><ele>117.28571428571429</ele><time>2026-05-03T12:58:28Z</time></trkpt><trkpt lat="51.04087026492995" lon="17.14449063632351"><ele>117.0</ele><time>2026-05-03T12:58:29Z</time></trkpt><trkpt lat="51.04087577650889" lon="17.14459963674348"><ele>117.0</ele><time>2026-05-03T12:58:30Z</time></trkpt><trkpt lat="51.040881810148086" lon="17.144710952062383"><ele>117.00000000000001</ele><time>2026-05-03T12:58:31Z</time></trkpt><trkpt lat="51.040891162172166" lon="17.144820883235468"><ele>117.0</ele><time>2026-05-03T12:58:32Z</time></trkpt><trkpt lat="51.04090276372139" lon="17.144929568052632"><ele>117.0</ele><time>2026-05-03T12:58:33Z</time></trkpt><trkpt lat="51.04091307127871" lon="17.14504060069203"><ele>117.00000000000001</ele><time>2026-05-03T12:58:34Z</time></trkpt><trkpt lat="51.040922391440446" lon="17.145151684952"><ele>117.0</ele><time>2026-05-03T12:58:35Z</time></trkpt><trkpt lat="51.040935214384945" lon="17.145264379353417"><ele>117.0</ele><time>2026-05-03T12:58:36Z</time></trkpt><trkpt lat="51.04094864158602" lon="17.14537604246458"><ele>117.0</ele><time>2026-05-03T12:58:37Z</time></trkpt><trkpt lat="51.04096230481952" lon="17.145489428675415"><ele>117.00000000000001</ele><time>2026-05-03T12:58:38Z</time></trkpt><trkpt lat="51.040973215226025" lon="17.145603085791098"><ele>117.0</ele><time>2026-05-03T12:58:39Z</time></trkpt><trkpt lat="51.040986015206364" lon="17.14571574459564"><ele>117.0</ele><time>2026-05-03T12:58:40Z</time></trkpt><trkpt lat="51.04100085519046" lon="17.14582785217405"><ele>117.00000000000001</ele><time>2026-05-03T12:58:41Z</time></trkpt><trkpt lat="51.04101869964589" lon="17.14593763954992"><ele>117.0</ele><time>2026-05-03T12:58:42Z</time></trkpt><trkpt lat="51.041035837451275" lon="17.146048801772658"><ele>117.0</ele><time>2026-05-03T12:58:43Z</time></trkpt><trkpt lat="51.04105207862781" lon="17.14615835202699"><ele>117.0</ele><time>2026-05-03T12:58:44Z</time></trkpt><trkpt lat="51.04106736463981" lon="17.146270761253486"><ele>117.00000000000001</ele><time>2026-05-03T12:58:45Z</time></trkpt><trkpt lat="51.04108958698772" lon="17.14637808777359"><ele>117.0</ele><time>2026-05-03T12:58:46Z</time></trkpt><trkpt lat="51.041111977238764" lon="17.146486172608917"><ele>117.0</ele><time>2026-05-03T12:58:47Z</time></trkpt><trkpt lat="51.04113046454002" lon="17.14659696853509"><ele>117.00000000000001</ele><time>2026-05-03T12:58:48Z</time></trkpt><trkpt lat="51.04115213320685" lon="17.14670581664144"><ele>117.0</ele><time>2026-05-03T12:58:49Z</time></trkpt><trkpt lat="51.04117186907996" lon="17.146814966191794"><ele>117.0</ele><time>2026-05-03T12:58:50Z</time></trkpt><trkpt lat="51.04119407812513" lon="17.14692361629468"><ele>117.0</ele><time>2026-05-03T12:58:51Z</time></trkpt><trkpt lat="51.04121550601674" lon="17.14703062015988"><ele>117.00000000000001</ele><time>2026-05-03T12:58:52Z</time></trkpt><trkpt lat="51.04124115156406" lon="17.14713682614635"><ele>117.0</ele><time>2026-05-03T12:58:53Z</time></trkpt><trkpt lat="51.04126573193994" lon="17.147242969446275"><ele>117.0</ele><time>2026-05-03T12:58:54Z</time></trkpt><trkpt lat="51.04128770033134" lon="17.14734916022175"><ele>117.00000000000001</ele><time>2026-05-03T12:58:55Z</time></trkpt><trkpt lat="51.04131196430726" lon="17.14745365442314"><ele>117.0</ele><time>2026-05-03T12:58:56Z</time></trkpt><trkpt lat="51.04133755911125" lon="17.147557710969885"><ele>117.0</ele><time>2026-05-03T12:58:57Z</time></trkpt><trkpt lat="51.04136412512955" lon="17.147660676104195"><ele>117.57142857142858</ele><time>2026-05-03T12:58:58Z</time></trkpt><trkpt lat="51.04139066090277" lon="17.147766155211603"><ele>118.14285714285715</ele><time>2026-05-03T12:58:59Z</time></trkpt><trkpt lat="51.04141833190783" lon="17.14787306753571"><ele>118.71428571428572</ele><time>2026-05-03T12:59:00Z</time></trkpt><trkpt lat="51.04144582312043" lon="17.147979913415448"><ele>119.28571428571428</ele><time>2026-05-03T12:59:01Z</time></trkpt><trkpt lat="51.04147645767049" lon="17.148087095057207"><ele>119.85714285714285</ele><time>2026-05-03T12:59:02Z</time></trkpt><trkpt lat="51.04150877431386" lon="17.14819086005639"><ele>120.42857142857142</ele><time>2026-05-03T12:59:03Z</time></trkpt><trkpt lat="51.04154315211878" lon="17.148295222855204"><ele>121.0</ele><time>2026-05-03T12:59:04Z</time></trkpt><trkpt lat="51.04157576307124" lon="17.148397932641394"><ele>121.14285714285714</ele><time>2026-05-03T12:59:05Z</time></trkpt><trkpt lat="51.041611438265456" lon="17.14849717591325"><ele>121.28571428571428</ele><time>2026-05-03T12:59:06Z</time></trkpt><trkpt lat="51.041649735030845" lon="17.148592147916254"><ele>121.42857142857142</ele><time>2026-05-03T12:59:07Z</time></trkpt><trkpt lat="51.041689393319736" lon="17.148686296375754"><ele>121.57142857142856</ele><time>2026-05-03T12:59:08Z</time></trkpt><trkpt lat="51.04171935267044" lon="17.148787314066993"><ele>121.71428571428571</ele><time>2026-05-03T12:59:09Z</time></trkpt><trkpt lat="51.04174697704949" lon="17.14889258336285"><ele>121.85714285714283</ele><time>2026-05-03T12:59:10Z</time></trkpt><trkpt lat="51.04178508362876" lon="17.14899275772748"><ele>121.99999999999999</ele><time>2026-05-03T12:59:11Z</time></trkpt><trkpt lat="51.04182549569393" lon="17.149087077810698"><ele>121.99999999999999</ele><time>2026-05-03T12:59:12Z</time></trkpt><trkpt lat="51.04186285117318" lon="17.14918276766103"><ele>122.0</ele><time>2026-05-03T12:59:13Z</time></trkpt><trkpt lat="51.04190344324063" lon="17.14927700732874"><ele>121.99999999999999</ele><time>2026-05-03T12:59:14Z</time></trkpt><trkpt lat="51.04194568134237" lon="17.149370322821063"><ele>121.99999999999999</ele><time>2026-05-03T12:59:15Z</time></trkpt><trkpt lat="51.04198288584915" lon="17.149466275277298"><ele>122.0</ele><time>2026-05-03T12:59:16Z</time></trkpt><trkpt lat="51.042019785369845" lon="17.14956619285593"><ele>121.99999999999999</ele><time>2026-05-03T12:59:17Z</time></trkpt><trkpt lat="51.04206429473087" lon="17.149658352770917"><ele>121.99999999999999</ele><time>2026-05-03T12:59:18Z</time></trkpt><trkpt lat="51.042108890351855" lon="17.14975055739918"><ele>121.99999999999999</ele><time>2026-05-03T12:59:19Z</time></trkpt><trkpt lat="51.042147960816926" lon="17.14984714428706"><ele>122.0</ele><time>2026-05-03T12:59:20Z</time></trkpt><trkpt lat="51.04219332496214" lon="17.149936552827857"><ele>121.99999999999999</ele><time>2026-05-03T12:59:21Z</time></trkpt><trkpt lat="51.04224105633922" lon="17.150026479914075"><ele>121.99999999999999</ele><time>2026-05-03T12:59:22Z</time></trkpt><trkpt lat="51.04228650255507" lon="17.150119216488175"><ele>122.0</ele><time>2026-05-03T12:59:23Z</time></trkpt><trkpt lat="51.04232781676904" lon="17.150215441693774"><ele>121.99999999999999</ele><time>2026-05-03T12:59:24Z</time></trkpt><trkpt lat="51.04236938805878" lon="17.150314555440172"><ele>121.99999999999999</ele><time>2026-05-03T12:59:25Z</time></trkpt><trkpt lat="51.0424231066438" lon="17.1504004348106"><ele>121.39999999999999</ele><time>2026-05-03T12:59:26Z</time></trkpt><trkpt lat="51.04247505589227" lon="17.150481534487472"><ele>120.79999999999998</ele><time>2026-05-03T12:59:27Z</time></trkpt><trkpt lat="51.04252760741335" lon="17.15056992406077"><ele>120.2</ele><time>2026-05-03T12:59:28Z</time></trkpt><trkpt lat="51.042576514008736" lon="17.150661541725267"><ele>119.6</ele><time>2026-05-03T12:59:29Z</time></trkpt><trkpt lat="51.042623897724425" lon="17.150773577955576"><ele>119.0</ele><time>2026-05-03T12:59:30Z</time></trkpt><trkpt lat="51.042738405479824" lon="17.150949525355525"><ele>118.99999999999999</ele><time>2026-05-03T12:59:32Z</time></trkpt><trkpt lat="51.04279565895976" lon="17.15104124226235"><ele>119.0</ele><time>2026-05-03T12:59:33Z</time></trkpt><trkpt lat="51.04285183213552" lon="17.15113030843316"><ele>119.0</ele><time>2026-05-03T12:59:34Z</time></trkpt><trkpt lat="51.042908984759244" lon="17.151208732548035"><ele>119.0</ele><time>2026-05-03T12:59:35Z</time></trkpt><trkpt lat="51.04296468476551" lon="17.151302616521942"><ele>118.99999999999999</ele><time>2026-05-03T12:59:36Z</time></trkpt><trkpt lat="51.04302237152155" lon="17.151398012009167"><ele>119.0</ele><time>2026-05-03T12:59:37Z</time></trkpt><trkpt lat="51.04308455671934" lon="17.15148748769274"><ele>118.83333333333333</ele><time>2026-05-03T12:59:38Z</time></trkpt><trkpt lat="51.043147675227054" lon="17.15158198755094"><ele>118.66666666666666</ele><time>2026-05-03T12:59:39Z</time></trkpt><trkpt lat="51.043213872449165" lon="17.151665222922528"><ele>118.5</ele><time>2026-05-03T12:59:40Z</time></trkpt><trkpt lat="51.04327923199511" lon="17.15175630625476"><ele>118.33333333333334</ele><time>2026-05-03T12:59:41Z</time></trkpt><trkpt lat="51.04334408095342" lon="17.15185182702143"><ele>118.16666666666667</ele><time>2026-05-03T12:59:42Z</time></trkpt><trkpt lat="51.04341321686417" lon="17.151940701697626"><ele>118.0</ele><time>2026-05-03T12:59:43Z</time></trkpt><trkpt lat="51.04347800637651" lon="17.152038385411746"><ele>118.0</ele><time>2026-05-03T12:59:44Z</time></trkpt><trkpt lat="51.043543259167166" lon="17.152138015959576"><ele>118.00000000000001</ele><time>2026-05-03T12:59:45Z</time></trkpt><trkpt lat="51.043624904279675" lon="17.15221245594665"><ele>118.00000000000001</ele><time>2026-05-03T12:59:46Z</time></trkpt><trkpt lat="51.04369665866493" lon="17.152301298556324"><ele>118.0</ele><time>2026-05-03T12:59:47Z</time></trkpt><trkpt lat="51.043769384241436" lon="17.15239012319898"><ele>118.0</ele><time>2026-05-03T12:59:48Z</time></trkpt><trkpt lat="51.04384094259954" lon="17.152477522445864"><ele>118.2</ele><time>2026-05-03T12:59:49Z</time></trkpt><trkpt lat="51.04391591054135" lon="17.152569106267713"><ele>118.4</ele><time>2026-05-03T12:59:50Z</time></trkpt><trkpt lat="51.043997037459626" lon="17.152668241827364"><ele>118.60000000000001</ele><time>2026-05-03T12:59:51Z</time></trkpt><trkpt lat="51.04407217280871" lon="17.15276026238479"><ele>118.80000000000001</ele><time>2026-05-03T12:59:52Z</time></trkpt><trkpt lat="51.04414658108241" lon="17.152851491981778"><ele>119.0</ele><time>2026-05-03T12:59:53Z</time></trkpt><trkpt lat="51.04422204976733" lon="17.152944845687333"><ele>119.0</ele><time>2026-05-03T12:59:54Z</time></trkpt><trkpt lat="51.04428845724431" lon="17.15305915049962"><ele>119.0</ele><time>2026-05-03T12:59:55Z</time></trkpt><trkpt lat="51.04436648069939" lon="17.15314021974672"><ele>119.0</ele><time>2026-05-03T12:59:56Z</time></trkpt><trkpt lat="51.04444337870804" lon="17.153233389775302"><ele>119.0</ele><time>2026-05-03T12:59:57Z</time></trkpt><trkpt lat="51.044518469008786" lon="17.153322338941578"><ele>119.0</ele><time>2026-05-03T12:59:58Z</time></trkpt><trkpt lat="51.04459241183928" lon="17.15341436165977"><ele>119.0</ele><time>2026-05-03T12:59:59Z</time></trkpt><trkpt lat="51.044665404177465" lon="17.15350792384708"><ele>119.0</ele><time>2026-05-03T13:00:00Z</time></trkpt><trkpt lat="51.044736838052344" lon="17.153596686595815"><ele>119.0</ele><time>2026-05-03T13:00:01Z</time></trkpt><trkpt lat="51.04480840755428" lon="17.153681905321964"><ele>119.0</ele><time>2026-05-03T13:00:02Z</time></trkpt><trkpt lat="51.04487953190001" lon="17.15376665955477"><ele>119.0</ele><time>2026-05-03T13:00:03Z</time></trkpt><trkpt lat="51.044950062261094" lon="17.153851207587742"><ele>119.16666666666666</ele><time>2026-05-03T13:00:04Z</time></trkpt><trkpt lat="51.045019256390155" lon="17.15394030524687"><ele>119.33333333333333</ele><time>2026-05-03T13:00:05Z</time></trkpt><trkpt lat="51.045087591445764" lon="17.15402987230442"><ele>119.5</ele><time>2026-05-03T13:00:06Z</time></trkpt><trkpt lat="51.045157103697555" lon="17.15412028711859"><ele>119.66666666666666</ele><time>2026-05-03T13:00:07Z</time></trkpt><trkpt lat="51.045226849744544" lon="17.154206223851077"><ele>119.83333333333333</ele><time>2026-05-03T13:00:08Z</time></trkpt><trkpt lat="51.04529787958635" lon="17.154283653772737"><ele>120.0</ele><time>2026-05-03T13:00:09Z</time></trkpt><trkpt lat="51.04536495583208" lon="17.154368072629552"><ele>120.0</ele><time>2026-05-03T13:00:10Z</time></trkpt><trkpt lat="51.045433103464134" lon="17.15445216470365"><ele>120.0</ele><time>2026-05-03T13:00:11Z</time></trkpt><trkpt lat="51.04550168426747" lon="17.15453227682869"><ele>120.0</ele><time>2026-05-03T13:00:12Z</time></trkpt><trkpt lat="51.04556794138868" lon="17.15461592576264"><ele>120.0</ele><time>2026-05-03T13:00:13Z</time></trkpt><trkpt lat="51.04563384012936" lon="17.154704057658613"><ele>120.0</ele><time>2026-05-03T13:00:14Z</time></trkpt><trkpt lat="51.045700499510026" lon="17.15478634194655"><ele>120.0</ele><time>2026-05-03T13:00:14.999Z</time></trkpt><trkpt lat="51.045767645599916" lon="17.154861813839034"><ele>119.5</ele><time>2026-05-03T13:00:15.999Z</time></trkpt><trkpt lat="51.04583669730309" lon="17.15494255340173"><ele>119.0</ele><time>2026-05-03T13:00:16.999Z</time></trkpt><trkpt lat="51.04590516133612" lon="17.15502534349519"><ele>118.5</ele><time>2026-05-03T13:00:17.999Z</time></trkpt><trkpt lat="51.04597239395286" lon="17.155109402803905"><ele>118.0</ele><time>2026-05-03T13:00:18.999Z</time></trkpt><trkpt lat="51.04603907750169" lon="17.155199019995486"><ele>117.5</ele><time>2026-05-03T13:00:19.999Z</time></trkpt><trkpt lat="51.0461147790609" lon="17.155259720199176"><ele>117.0</ele><time>2026-05-03T13:00:20.999Z</time></trkpt><trkpt lat="51.04618225720811" lon="17.155341826659622"><ele>117.0</ele><time>2026-05-03T13:00:21.999Z</time></trkpt><trkpt lat="51.04624980159476" lon="17.155421416434628"><ele>117.0</ele><time>2026-05-03T13:00:22.999Z</time></trkpt><trkpt lat="51.04631622632728" lon="17.155499579010353"><ele>117.0</ele><time>2026-05-03T13:00:23.999Z</time></trkpt><trkpt lat="51.04637319598359" lon="17.155597270793262"><ele>117.0</ele><time>2026-05-03T13:00:24.999Z</time></trkpt><trkpt lat="51.046448576601634" lon="17.155649026703006"><ele>117.0</ele><time>2026-05-03T13:00:25.999Z</time></trkpt><trkpt lat="51.04651574371012" lon="17.15572003043345"><ele>117.0</ele><time>2026-05-03T13:00:26.999Z</time></trkpt><trkpt lat="51.04657420338959" lon="17.1558082800559"><ele>117.0</ele><time>2026-05-03T13:00:27.999Z</time></trkpt><trkpt lat="51.04664140994288" lon="17.155868942984362"><ele>117.0</ele><time>2026-05-03T13:00:28.999Z</time></trkpt><trkpt lat="51.046709385134236" lon="17.15593258572579"><ele>117.0</ele><time>2026-05-03T13:00:29.999Z</time></trkpt><trkpt lat="51.046784639955966" lon="17.155970244669163"><ele>117.0</ele><time>2026-05-03T13:00:30.999Z</time></trkpt><trkpt lat="51.04685450592889" lon="17.156027352056757"><ele>117.0</ele><time>2026-05-03T13:00:31.999Z</time></trkpt><trkpt lat="51.04692048813543" lon="17.156100009098314"><ele>117.0</ele><time>2026-05-03T13:00:32.999Z</time></trkpt><trkpt lat="51.04699398163897" lon="17.1561519189979"><ele>117.0</ele><time>2026-05-03T13:00:33.999Z</time></trkpt><trkpt lat="51.047067957828176" lon="17.15620380735409"><ele>117.0</ele><time>2026-05-03T13:00:34.999Z</time></trkpt><trkpt lat="51.04714233580576" lon="17.156256217531148"><ele>117.0</ele><time>2026-05-03T13:00:35.999Z</time></trkpt><trkpt lat="51.04721898619154" lon="17.15630073984893"><ele>117.0</ele><time>2026-05-03T13:00:36.999Z</time></trkpt><trkpt lat="51.04729677355051" lon="17.15634346379255"><ele>117.0</ele><time>2026-05-03T13:00:37.999Z</time></trkpt><trkpt lat="51.04737810078753" lon="17.15638213239768"><ele>117.0</ele><time>2026-05-03T13:00:38.999Z</time></trkpt><trkpt lat="51.0474590865191" lon="17.156416381464187"><ele>117.16666666666667</ele><time>2026-05-03T13:00:39.999Z</time></trkpt><trkpt lat="51.047540100422744" lon="17.156449344564354"><ele>117.33333333333334</ele><time>2026-05-03T13:00:40.999Z</time></trkpt><trkpt lat="51.04762379085894" lon="17.156476182884067"><ele>117.5</ele><time>2026-05-03T13:00:41.999Z</time></trkpt><trkpt lat="51.04770828170896" lon="17.156501847391603"><ele>117.66666666666667</ele><time>2026-05-03T13:00:42.999Z</time></trkpt><trkpt lat="51.04779583551226" lon="17.15652914179888"><ele>117.83333333333334</ele><time>2026-05-03T13:00:43.999Z</time></trkpt><trkpt lat="51.04788319535947" lon="17.156558777806506"><ele>118.0</ele><time>2026-05-03T13:00:44.999Z</time></trkpt><trkpt lat="51.04797312648358" lon="17.15658022792866"><ele>118.0</ele><time>2026-05-03T13:00:45.999Z</time></trkpt><trkpt lat="51.048063477117054" lon="17.15659506783472"><ele>118.00000000000001</ele><time>2026-05-03T13:00:46.999Z</time></trkpt><trkpt lat="51.048154678271345" lon="17.156605209091072"><ele>118.00000000000001</ele><time>2026-05-03T13:00:47.999Z</time></trkpt><trkpt lat="51.04824741449724" lon="17.156614278717914"><ele>118.0</ele><time>2026-05-03T13:00:48.999Z</time></trkpt><trkpt lat="51.04833984079511" lon="17.156620065598958"><ele>118.0</ele><time>2026-05-03T13:00:49.999Z</time></trkpt><trkpt lat="51.04843416737626" lon="17.156621392601895"><ele>117.80000000000001</ele><time>2026-05-03T13:00:50.999Z</time></trkpt><trkpt lat="51.04852802164645" lon="17.156613412958688"><ele>117.60000000000001</ele><time>2026-05-03T13:00:51.999Z</time></trkpt><trkpt lat="51.04862256961566" lon="17.156601051071124"><ele>117.39999999999999</ele><time>2026-05-03T13:00:52.999Z</time></trkpt><trkpt lat="51.04871669777576" lon="17.156588038987785"><ele>117.19999999999999</ele><time>2026-05-03T13:00:53.999Z</time></trkpt><trkpt lat="51.04881163189969" lon="17.15657364121426"><ele>117.0</ele><time>2026-05-03T13:00:54.999Z</time></trkpt><trkpt lat="51.048905535245964" lon="17.156552093910783"><ele>117.0</ele><time>2026-05-03T13:00:55.999Z</time></trkpt><trkpt lat="51.04899850072811" lon="17.156525121855115"><ele>116.99999999999999</ele><time>2026-05-03T13:00:56.999Z</time></trkpt><trkpt lat="51.04909221558841" lon="17.156499551750272"><ele>116.99999999999999</ele><time>2026-05-03T13:00:57.999Z</time></trkpt><trkpt lat="51.049185618173375" lon="17.156467551801345"><ele>117.0</ele><time>2026-05-03T13:00:58.999Z</time></trkpt><trkpt lat="51.049279079065734" lon="17.156435839635343"><ele>117.0</ele><time>2026-05-03T13:00:59.999Z</time></trkpt><trkpt lat="51.04937114721772" lon="17.156398591729104"><ele>117.19999999999999</ele><time>2026-05-03T13:01:00.999Z</time></trkpt><trkpt lat="51.04946315614696" lon="17.156348427436946"><ele>117.39999999999999</ele><time>2026-05-03T13:01:01.999Z</time></trkpt><trkpt lat="51.04955449479372" lon="17.156299645798242"><ele>117.60000000000001</ele><time>2026-05-03T13:01:02.999Z</time></trkpt><trkpt lat="51.04964527696282" lon="17.156250518622848"><ele>117.80000000000001</ele><time>2026-05-03T13:01:03.999Z</time></trkpt><trkpt lat="51.04973674962063" lon="17.156200383335968"><ele>118.0</ele><time>2026-05-03T13:01:04.999Z</time></trkpt><trkpt lat="51.049829773976846" lon="17.156145071446886"><ele>118.0</ele><time>2026-05-03T13:01:05.999Z</time></trkpt><trkpt lat="51.049921269569" lon="17.15609031155877"><ele>118.00000000000001</ele><time>2026-05-03T13:01:07Z</time></trkpt><trkpt lat="51.05001247540873" lon="17.156034648634236"><ele>118.00000000000001</ele><time>2026-05-03T13:01:08Z</time></trkpt><trkpt lat="51.0501033677959" lon="17.15597877262267"><ele>118.0</ele><time>2026-05-03T13:01:09Z</time></trkpt><trkpt lat="51.05019372607278" lon="17.15592124832111"><ele>118.0</ele><time>2026-05-03T13:01:10Z</time></trkpt><trkpt lat="51.05028616543284" lon="17.155866077679537"><ele>117.80000000000001</ele><time>2026-05-03T13:01:11Z</time></trkpt><trkpt lat="51.050377865716314" lon="17.155812009954527"><ele>117.60000000000001</ele><time>2026-05-03T13:01:12Z</time></trkpt><trkpt lat="51.05046891727554" lon="17.15575402433224"><ele>117.39999999999999</ele><time>2026-05-03T13:01:13Z</time></trkpt><trkpt lat="51.050559960485394" lon="17.15569568523098"><ele>117.19999999999999</ele><time>2026-05-03T13:01:14Z</time></trkpt><trkpt lat="51.05065221484264" lon="17.155642721454026"><ele>117.0</ele><time>2026-05-03T13:01:15Z</time></trkpt><trkpt lat="51.0507452082511" lon="17.15558821210051"><ele>117.19999999999999</ele><time>2026-05-03T13:01:16Z</time></trkpt><trkpt lat="51.05083843925056" lon="17.155533772741958"><ele>117.39999999999999</ele><time>2026-05-03T13:01:17Z</time></trkpt><trkpt lat="51.05093190170013" lon="17.155478040205523"><ele>117.60000000000001</ele><time>2026-05-03T13:01:18Z</time></trkpt><trkpt lat="51.05102426081418" lon="17.1554217643533"><ele>117.80000000000001</ele><time>2026-05-03T13:01:19Z</time></trkpt><trkpt lat="51.05111452674623" lon="17.155360403910127"><ele>118.0</ele><time>2026-05-03T13:01:20Z</time></trkpt><trkpt lat="51.0512049370473" lon="17.155299831370925"><ele>118.0</ele><time>2026-05-03T13:01:21Z</time></trkpt><trkpt lat="51.05129634902642" lon="17.15524488273826"><ele>118.00000000000001</ele><time>2026-05-03T13:01:22Z</time></trkpt><trkpt lat="51.05138773190838" lon="17.155190527014494"><ele>118.00000000000001</ele><time>2026-05-03T13:01:23Z</time></trkpt><trkpt lat="51.05147759488649" lon="17.155137347209756"><ele>118.0</ele><time>2026-05-03T13:01:24Z</time></trkpt><trkpt lat="51.051567658139504" lon="17.155083117887663"><ele>118.0</ele><time>2026-05-03T13:01:25Z</time></trkpt><trkpt lat="51.05165677938325" lon="17.15502955747913"><ele>117.80000000000001</ele><time>2026-05-03T13:01:26Z</time></trkpt><trkpt lat="51.05174590312704" lon="17.154976682156168"><ele>117.60000000000001</ele><time>2026-05-03T13:01:27Z</time></trkpt><trkpt lat="51.051835005767316" lon="17.15492637061226"><ele>117.39999999999999</ele><time>2026-05-03T13:01:28Z</time></trkpt><trkpt lat="51.05192344864959" lon="17.154876014578978"><ele>117.19999999999999</ele><time>2026-05-03T13:01:29Z</time></trkpt><trkpt lat="51.05200946262547" lon="17.154823122799268"><ele>117.0</ele><time>2026-05-03T13:01:30Z</time></trkpt><trkpt lat="51.052096380807996" lon="17.154774623535396"><ele>117.0</ele><time>2026-05-03T13:01:31Z</time></trkpt><trkpt lat="51.052177273380025" lon="17.15470253964212"><ele>117.0</ele><time>2026-05-03T13:01:32Z</time></trkpt><trkpt lat="51.052259418434396" lon="17.154652549505233"><ele>117.0</ele><time>2026-05-03T13:01:33Z</time></trkpt><trkpt lat="51.05234007772546" lon="17.15460364225168"><ele>117.0</ele><time>2026-05-03T13:01:34Z</time></trkpt><trkpt lat="51.05242203851825" lon="17.1545622823987"><ele>117.0</ele><time>2026-05-03T13:01:35Z</time></trkpt><trkpt lat="51.05250618169997" lon="17.154510088907443"><ele>117.0</ele><time>2026-05-03T13:01:36Z</time></trkpt><trkpt lat="51.05259277286843" lon="17.154464367443765"><ele>117.0</ele><time>2026-05-03T13:01:37Z</time></trkpt><trkpt lat="51.052679718990206" lon="17.15441015208302"><ele>116.99999999999999</ele><time>2026-05-03T13:01:38Z</time></trkpt><trkpt lat="51.05276438028626" lon="17.154353957473255"><ele>116.99999999999999</ele><time>2026-05-03T13:01:39Z</time></trkpt><trkpt lat="51.052848890446086" lon="17.154299658182058"><ele>117.0</ele><time>2026-05-03T13:01:40Z</time></trkpt><trkpt lat="51.052935032749765" lon="17.15424849845604"><ele>117.0</ele><time>2026-05-03T13:01:41Z</time></trkpt><trkpt lat="51.05302085004563" lon="17.15420061522769"><ele>117.0</ele><time>2026-05-03T13:01:42Z</time></trkpt><trkpt lat="51.05310797600561" lon="17.15415085417527"><ele>116.99999999999999</ele><time>2026-05-03T13:01:43Z</time></trkpt><trkpt lat="51.053193994500646" lon="17.154100165918326"><ele>116.99999999999999</ele><time>2026-05-03T13:01:44Z</time></trkpt><trkpt lat="51.053278662940365" lon="17.154046775846698"><ele>117.0</ele><time>2026-05-03T13:01:45Z</time></trkpt><trkpt lat="51.05336433311411" lon="17.153995079219925"><ele>117.0</ele><time>2026-05-03T13:01:46Z</time></trkpt><trkpt lat="51.053450099530274" lon="17.153941754625293"><ele>117.39999999999999</ele><time>2026-05-03T13:01:47Z</time></trkpt><trkpt lat="51.053535544626" lon="17.15388977413576"><ele>117.79999999999998</ele><time>2026-05-03T13:01:48Z</time></trkpt><trkpt lat="51.0536210552968" lon="17.15383534471891"><ele>118.2</ele><time>2026-05-03T13:01:49Z</time></trkpt><trkpt lat="51.05370612915078" lon="17.153781065521414"><ele>118.6</ele><time>2026-05-03T13:01:50Z</time></trkpt><trkpt lat="51.0537917134777" lon="17.153729243978738"><ele>119.0</ele><time>2026-05-03T13:01:51Z</time></trkpt><trkpt lat="51.05387828326038" lon="17.153679331037154"><ele>119.0</ele><time>2026-05-03T13:01:52Z</time></trkpt><trkpt lat="51.053964811843116" lon="17.15362963172568"><ele>119.0</ele><time>2026-05-03T13:01:53Z</time></trkpt><trkpt lat="51.05405088292568" lon="17.153579174678303"><ele>119.0</ele><time>2026-05-03T13:01:54Z</time></trkpt><trkpt lat="51.054136326488106" lon="17.15352603197513"><ele>119.0</ele><time>2026-05-03T13:01:55Z</time></trkpt><trkpt lat="51.05422151328182" lon="17.153474517332313"><ele>119.0</ele><time>2026-05-03T13:01:56Z</time></trkpt><trkpt lat="51.054306457132434" lon="17.15342122384059"><ele>118.80000000000001</ele><time>2026-05-03T13:01:57Z</time></trkpt><trkpt lat="51.054392254410004" lon="17.153369634543957"><ele>118.60000000000001</ele><time>2026-05-03T13:01:58Z</time></trkpt><trkpt lat="51.05447900879171" lon="17.153321863712602"><ele>118.4</ele><time>2026-05-03T13:01:59Z</time></trkpt><trkpt lat="51.054565748848326" lon="17.153276537015913"><ele>118.2</ele><time>2026-05-03T13:02:00Z</time></trkpt><trkpt lat="51.05465284253064" lon="17.153234848822205"><ele>118.0</ele><time>2026-05-03T13:02:01Z</time></trkpt><trkpt lat="51.054740837075705" lon="17.153193037698856"><ele>118.00000000000001</ele><time>2026-05-03T13:02:02Z</time></trkpt><trkpt lat="51.05482655979168" lon="17.153155303051406"><ele>118.0</ele><time>2026-05-03T13:02:03Z</time></trkpt><trkpt lat="51.0549132690339" lon="17.153118055087354"><ele>118.0</ele><time>2026-05-03T13:02:04Z</time></trkpt><trkpt lat="51.05500023639362" lon="17.153080348453006"><ele>118.0</ele><time>2026-05-03T13:02:05Z</time></trkpt><trkpt lat="51.055087217349154" lon="17.153044644715536"><ele>118.00000000000001</ele><time>2026-05-03T13:02:06Z</time></trkpt><trkpt lat="51.05517443007378" lon="17.153014644841868"><ele>118.0</ele><time>2026-05-03T13:02:07Z</time></trkpt><trkpt lat="51.055262283575324" lon="17.15298686476806"><ele>118.00000000000001</ele><time>2026-05-03T13:02:08Z</time></trkpt><trkpt lat="51.055349021573576" lon="17.15295619297077"><ele>118.0</ele><time>2026-05-03T13:02:09Z</time></trkpt><trkpt lat="51.055435277319425" lon="17.152924893354527"><ele>118.0</ele><time>2026-05-03T13:02:10Z</time></trkpt><trkpt lat="51.05552299574232" lon="17.15290098505248"><ele>118.0</ele><time>2026-05-03T13:02:11Z</time></trkpt><trkpt lat="51.05561203228382" lon="17.15288202645411"><ele>118.00000000000001</ele><time>2026-05-03T13:02:12Z</time></trkpt><trkpt lat="51.055700358515715" lon="17.1528616739775"><ele>118.0</ele><time>2026-05-03T13:02:13Z</time></trkpt><trkpt lat="51.05578914176635" lon="17.152839048690424"><ele>118.0</ele><time>2026-05-03T13:02:14Z</time></trkpt><trkpt lat="51.05587770988868" lon="17.152817020886815"><ele>118.00000000000001</ele><time>2026-05-03T13:02:15Z</time></trkpt><trkpt lat="51.05596743562082" lon="17.152798754462726"><ele>118.00000000000001</ele><time>2026-05-03T13:02:16Z</time></trkpt><trkpt lat="51.05605790531845" lon="17.1527821136543"><ele>118.0</ele><time>2026-05-03T13:02:17Z</time></trkpt><trkpt lat="51.0561492427235" lon="17.15276710036375"><ele>118.0</ele><time>2026-05-03T13:02:18Z</time></trkpt><trkpt lat="51.056240871163524" lon="17.152755638342818"><ele>118.0</ele><time>2026-05-03T13:02:19Z</time></trkpt><trkpt lat="51.056333971346966" lon="17.15275030619025"><ele>118.00000000000001</ele><time>2026-05-03T13:02:20Z</time></trkpt><trkpt lat="51.05642877873615" lon="17.15274904056371"><ele>118.00000000000001</ele><time>2026-05-03T13:02:20.999Z</time></trkpt><trkpt lat="51.056524033768284" lon="17.152741699812537"><ele>118.0</ele><time>2026-05-03T13:02:21.999Z</time></trkpt><trkpt lat="51.056619739552495" lon="17.1527358900639"><ele>118.0</ele><time>2026-05-03T13:02:22.999Z</time></trkpt><trkpt lat="51.05671774350773" lon="17.152732847752254"><ele>117.80000000000001</ele><time>2026-05-03T13:02:23.999Z</time></trkpt><trkpt lat="51.056815917798986" lon="17.15273440202921"><ele>117.60000000000001</ele><time>2026-05-03T13:02:24.999Z</time></trkpt><trkpt lat="51.05691422466658" lon="17.152737057703625"><ele>117.39999999999999</ele><time>2026-05-03T13:02:25.999Z</time></trkpt><trkpt lat="51.057012788713415" lon="17.152739156599978"><ele>117.19999999999999</ele><time>2026-05-03T13:02:26.999Z</time></trkpt><trkpt lat="51.05711221255733" lon="17.152747233267903"><ele>117.0</ele><time>2026-05-03T13:02:27.999Z</time></trkpt><trkpt lat="51.05721162184309" lon="17.152757724166836"><ele>117.0</ele><time>2026-05-03T13:02:28.999Z</time></trkpt><trkpt lat="51.05731029927911" lon="17.152764623806757"><ele>116.99999999999999</ele><time>2026-05-03T13:02:29.999Z</time></trkpt><trkpt lat="51.05740984464184" lon="17.152774291831772"><ele>116.99999999999999</ele><time>2026-05-03T13:02:30.999Z</time></trkpt><trkpt lat="51.05750997547821" lon="17.152789241189872"><ele>117.0</ele><time>2026-05-03T13:02:31.999Z</time></trkpt><trkpt lat="51.05761069048556" lon="17.1528103617569"><ele>117.0</ele><time>2026-05-03T13:02:32.999Z</time></trkpt><trkpt lat="51.057712224665764" lon="17.152830669269065"><ele>117.0</ele><time>2026-05-03T13:02:33.999Z</time></trkpt><trkpt lat="51.0578128000388" lon="17.15284713254724"><ele>116.99999999999999</ele><time>2026-05-03T13:02:34.999Z</time></trkpt><trkpt lat="51.05791640878028" lon="17.15286519075587"><ele>116.99999999999999</ele><time>2026-05-03T13:02:35.999Z</time></trkpt><trkpt lat="51.05801927569416" lon="17.152887185916697"><ele>117.0</ele><time>2026-05-03T13:02:36.999Z</time></trkpt><trkpt lat="51.0581229407075" lon="17.152911239210102"><ele>117.0</ele><time>2026-05-03T13:02:37.999Z</time></trkpt><trkpt lat="51.058228574387364" lon="17.15293539471022"><ele>117.0</ele><time>2026-05-03T13:02:38.999Z</time></trkpt><trkpt lat="51.05833795522127" lon="17.152956308591254"><ele>117.0</ele><time>2026-05-03T13:02:39.999Z</time></trkpt><trkpt lat="51.058449170504396" lon="17.152976668227595"><ele>117.0</ele><time>2026-05-03T13:02:40.999Z</time></trkpt><trkpt lat="51.05856240921375" lon="17.15300071202128"><ele>117.0</ele><time>2026-05-03T13:02:41.999Z</time></trkpt><trkpt lat="51.05867640190332" lon="17.15302643865962"><ele>117.0</ele><time>2026-05-03T13:02:42.999Z</time></trkpt><trkpt lat="51.05879029179506" lon="17.153057432766115"><ele>117.0</ele><time>2026-05-03T13:02:43.999Z</time></trkpt><trkpt lat="51.05890478063609" lon="17.15309099183913"><ele>117.0</ele><time>2026-05-03T13:02:44.999Z</time></trkpt><trkpt lat="51.05902001620487" lon="17.153118923949073"><ele>117.0</ele><time>2026-05-03T13:02:45.999Z</time></trkpt><trkpt lat="51.05913421495885" lon="17.15314129028388"><ele>117.25</ele><time>2026-05-03T13:02:46.999Z</time></trkpt><trkpt lat="51.05925070726932" lon="17.153162351308705"><ele>117.5</ele><time>2026-05-03T13:02:47.999Z</time></trkpt><trkpt lat="51.05936688791478" lon="17.153186185655713"><ele>117.75</ele><time>2026-05-03T13:02:48.999Z</time></trkpt><trkpt lat="51.059482739232735" lon="17.15321212611297"><ele>118.0</ele><time>2026-05-03T13:02:49.999Z</time></trkpt><trkpt lat="51.059598892490776" lon="17.153237567009572"><ele>118.0</ele><time>2026-05-03T13:02:50.999Z</time></trkpt><trkpt lat="51.05971579089498" lon="17.153264394597883"><ele>118.0</ele><time>2026-05-03T13:02:52Z</time></trkpt><trkpt lat="51.05983214414263" lon="17.153287923030405"><ele>118.0</ele><time>2026-05-03T13:02:53Z</time></trkpt><trkpt lat="51.059948939739634" lon="17.153309802843985"><ele>118.0</ele><time>2026-05-03T13:02:54Z</time></trkpt><trkpt lat="51.060066292092074" lon="17.153331868332053"><ele>117.75</ele><time>2026-05-03T13:02:55Z</time></trkpt><trkpt lat="51.06018293748608" lon="17.153358366033103"><ele>117.5</ele><time>2026-05-03T13:02:56Z</time></trkpt><trkpt lat="51.06029973014446" lon="17.153385331790496"><ele>117.25</ele><time>2026-05-03T13:02:57Z</time></trkpt><trkpt lat="51.06041558829488" lon="17.153408973402605"><ele>117.0</ele><time>2026-05-03T13:02:58Z</time></trkpt><trkpt lat="51.06052867949848" lon="17.153436040117448"><ele>117.0</ele><time>2026-05-03T13:02:59Z</time></trkpt><trkpt lat="51.060640511681804" lon="17.15346792242244"><ele>116.99999999999999</ele><time>2026-05-03T13:03:00Z</time></trkpt><trkpt lat="51.06075112212464" lon="17.153495123201825"><ele>116.99999999999999</ele><time>2026-05-03T13:03:01Z</time></trkpt><trkpt lat="51.0608612704523" lon="17.15352519443184"><ele>117.0</ele><time>2026-05-03T13:03:02Z</time></trkpt><trkpt lat="51.060970867122556" lon="17.153558057626952"><ele>117.0</ele><time>2026-05-03T13:03:03Z</time></trkpt><trkpt lat="51.06108054165047" lon="17.15359441104466"><ele>117.25</ele><time>2026-05-03T13:03:04Z</time></trkpt><trkpt lat="51.06119102456532" lon="17.153630216237623"><ele>117.5</ele><time>2026-05-03T13:03:05Z</time></trkpt><trkpt lat="51.06130165025836" lon="17.153670355494384"><ele>117.75</ele><time>2026-05-03T13:03:06Z</time></trkpt><trkpt lat="51.061413299166546" lon="17.153711386927604"><ele>118.0</ele><time>2026-05-03T13:03:07Z</time></trkpt><trkpt lat="51.06152473985317" lon="17.153751148828974"><ele>118.0</ele><time>2026-05-03T13:03:08Z</time></trkpt><trkpt lat="51.061634606545354" lon="17.15380387092029"><ele>118.0</ele><time>2026-05-03T13:03:09Z</time></trkpt><trkpt lat="51.06174155062407" lon="17.153869590817745"><ele>118.0</ele><time>2026-05-03T13:03:10Z</time></trkpt><trkpt lat="51.06184869893313" lon="17.153938955099164"><ele>118.0</ele><time>2026-05-03T13:03:11Z</time></trkpt><trkpt lat="51.06195240052919" lon="17.153997998302312"><ele>118.0</ele><time>2026-05-03T13:03:12Z</time></trkpt><trkpt lat="51.06205737916222" lon="17.154056237267536"><ele>118.00000000000001</ele><time>2026-05-03T13:03:13Z</time></trkpt><trkpt lat="51.062158321228736" lon="17.15411922017233"><ele>118.00000000000001</ele><time>2026-05-03T13:03:14Z</time></trkpt><trkpt lat="51.06225571185139" lon="17.154191886083133"><ele>118.0</ele><time>2026-05-03T13:03:15Z</time></trkpt><trkpt lat="51.06235270275554" lon="17.154263594872717"><ele>118.0</ele><time>2026-05-03T13:03:16Z</time></trkpt><trkpt lat="51.06244961300783" lon="17.15433518060289"><ele>118.0</ele><time>2026-05-03T13:03:17Z</time></trkpt><trkpt lat="51.06254655041544" lon="17.15440447798299"><ele>118.00000000000001</ele><time>2026-05-03T13:03:18Z</time></trkpt><trkpt lat="51.062642548468595" lon="17.154477837965295"><ele>118.00000000000001</ele><time>2026-05-03T13:03:19Z</time></trkpt><trkpt lat="51.062734352007006" lon="17.154556356415064"><ele>118.0</ele><time>2026-05-03T13:03:20Z</time></trkpt><trkpt lat="51.062824709674736" lon="17.15463881863621"><ele>118.0</ele><time>2026-05-03T13:03:21Z</time></trkpt><trkpt lat="51.062914058235535" lon="17.154716639886193"><ele>118.0</ele><time>2026-05-03T13:03:22Z</time></trkpt><trkpt lat="51.06300257806085" lon="17.154793343890784"><ele>118.00000000000001</ele><time>2026-05-03T13:03:23Z</time></trkpt><trkpt lat="51.06308890435809" lon="17.15487447742149"><ele>118.00000000000001</ele><time>2026-05-03T13:03:24Z</time></trkpt><trkpt lat="51.063173395556646" lon="17.154952269634084"><ele>118.0</ele><time>2026-05-03T13:03:25Z</time></trkpt><trkpt lat="51.06325899307051" lon="17.155028324952422"><ele>118.0</ele><time>2026-05-03T13:03:26Z</time></trkpt><trkpt lat="51.06334331480831" lon="17.155104042189574"><ele>118.0</ele><time>2026-05-03T13:03:27Z</time></trkpt><trkpt lat="51.063426501949955" lon="17.15517948983454"><ele>118.00000000000001</ele><time>2026-05-03T13:03:28Z</time></trkpt><trkpt lat="51.06351080463121" lon="17.155256153017714"><ele>118.00000000000001</ele><time>2026-05-03T13:03:29Z</time></trkpt><trkpt lat="51.06359195716304" lon="17.155334118697375"><ele>118.0</ele><time>2026-05-03T13:03:30Z</time></trkpt><trkpt lat="51.0636689947968" lon="17.155409478007194"><ele>118.0</ele><time>2026-05-03T13:03:31Z</time></trkpt><trkpt lat="51.06374964709799" lon="17.155486962252766"><ele>118.0</ele><time>2026-05-03T13:03:32Z</time></trkpt><trkpt lat="51.06382959754708" lon="17.15555911768981"><ele>118.00000000000001</ele><time>2026-05-03T13:03:33Z</time></trkpt><trkpt lat="51.06390947390137" lon="17.155630390625976"><ele>118.00000000000001</ele><time>2026-05-03T13:03:34Z</time></trkpt><trkpt lat="51.06398963245758" lon="17.155701637504443"><ele>118.0</ele><time>2026-05-03T13:03:35Z</time></trkpt><trkpt lat="51.06406803983746" lon="17.155774945996757"><ele>118.0</ele><time>2026-05-03T13:03:36Z</time></trkpt><trkpt lat="51.0641478435813" lon="17.15584951070284"><ele>118.0</ele><time>2026-05-03T13:03:37Z</time></trkpt><trkpt lat="51.06423015510437" lon="17.155923425603433"><ele>118.00000000000001</ele><time>2026-05-03T13:03:38Z</time></trkpt><trkpt lat="51.06430985715382" lon="17.155998952028533"><ele>118.00000000000001</ele><time>2026-05-03T13:03:39Z</time></trkpt><trkpt lat="51.0643894722678" lon="17.1560752296155"><ele>118.0</ele><time>2026-05-03T13:03:40Z</time></trkpt><trkpt lat="51.0644709351812" lon="17.15615170725792"><ele>118.0</ele><time>2026-05-03T13:03:41Z</time></trkpt><trkpt lat="51.06455413216919" lon="17.156224659260577"><ele>118.0</ele><time>2026-05-03T13:03:42Z</time></trkpt><trkpt lat="51.064637204396945" lon="17.156296761054783"><ele>118.00000000000001</ele><time>2026-05-03T13:03:43Z</time></trkpt><trkpt lat="51.06472063344758" lon="17.15637591844447"><ele>118.00000000000001</ele><time>2026-05-03T13:03:44Z</time></trkpt><trkpt lat="51.064802060051804" lon="17.156454456311884"><ele>118.0</ele><time>2026-05-03T13:03:45Z</time></trkpt><trkpt lat="51.0648863072582" lon="17.156530878870225"><ele>118.0</ele><time>2026-05-03T13:03:46Z</time></trkpt><trkpt lat="51.064970538417" lon="17.156605093828457"><ele>117.80000000000001</ele><time>2026-05-03T13:03:47Z</time></trkpt><trkpt lat="51.06505556359976" lon="17.15667873496263"><ele>117.60000000000001</ele><time>2026-05-03T13:03:48Z</time></trkpt><trkpt lat="51.0651390366487" lon="17.156753676695843"><ele>117.39999999999999</ele><time>2026-05-03T13:03:49Z</time></trkpt><trkpt lat="51.06522130347271" lon="17.15683565306105"><ele>117.19999999999999</ele><time>2026-05-03T13:03:50Z</time></trkpt><trkpt lat="51.065305213887164" lon="17.15691189516561"><ele>117.0</ele><time>2026-05-03T13:03:51Z</time></trkpt><trkpt lat="51.065388838670245" lon="17.156987880378676"><ele>117.0</ele><time>2026-05-03T13:03:52Z</time></trkpt><trkpt lat="51.065472231236065" lon="17.157067456378382"><ele>116.99999999999999</ele><time>2026-05-03T13:03:53Z</time></trkpt><trkpt lat="51.06555577386977" lon="17.157144554571428"><ele>116.99999999999999</ele><time>2026-05-03T13:03:54Z</time></trkpt><trkpt lat="51.06563862314432" lon="17.15722305902345"><ele>117.0</ele><time>2026-05-03T13:03:55Z</time></trkpt><trkpt lat="51.06572195897779" lon="17.15730285521539"><ele>117.0</ele><time>2026-05-03T13:03:56Z</time></trkpt><trkpt lat="51.06580783587482" lon="17.157381085847383"><ele>117.19999999999999</ele><time>2026-05-03T13:03:57Z</time></trkpt><trkpt lat="51.06589430514914" lon="17.157456607152042"><ele>117.39999999999999</ele><time>2026-05-03T13:03:58Z</time></trkpt><trkpt lat="51.06598038247119" lon="17.157536323298558"><ele>117.60000000000001</ele><time>2026-05-03T13:03:59Z</time></trkpt><trkpt lat="51.06606566887381" lon="17.157614729499894"><ele>117.80000000000001</ele><time>2026-05-03T13:04:00Z</time></trkpt><trkpt lat="51.06615141975549" lon="17.15770024299712"><ele>118.0</ele><time>2026-05-03T13:04:01Z</time></trkpt><trkpt lat="51.06623863291604" lon="17.157781874612947"><ele>118.0</ele><time>2026-05-03T13:04:02Z</time></trkpt><trkpt lat="51.06632775534833" lon="17.15786190685602"><ele>118.00000000000001</ele><time>2026-05-03T13:04:03Z</time></trkpt><trkpt lat="51.0664172808361" lon="17.157936644495425"><ele>118.00000000000001</ele><time>2026-05-03T13:04:04Z</time></trkpt><trkpt lat="51.06650723418079" lon="17.158013945682857"><ele>118.0</ele><time>2026-05-03T13:04:05Z</time></trkpt><trkpt lat="51.06659699166067" lon="17.158090919773375"><ele>118.0</ele><time>2026-05-03T13:04:06Z</time></trkpt><trkpt lat="51.06668758418165" lon="17.15816689032394"><ele>117.80000000000001</ele><time>2026-05-03T13:04:07Z</time></trkpt><trkpt lat="51.06677807640784" lon="17.158242246397155"><ele>117.60000000000001</ele><time>2026-05-03T13:04:08Z</time></trkpt><trkpt lat="51.06686746507486" lon="17.158320930245118"><ele>117.39999999999999</ele><time>2026-05-03T13:04:09Z</time></trkpt><trkpt lat="51.06695764106192" lon="17.158394077751282"><ele>117.19999999999999</ele><time>2026-05-03T13:04:10Z</time></trkpt><trkpt lat="51.067048854063344" lon="17.158459558646587"><ele>117.0</ele><time>2026-05-03T13:04:11Z</time></trkpt><trkpt lat="51.06713927735126" lon="17.158526688625276"><ele>117.0</ele><time>2026-05-03T13:04:12Z</time></trkpt><trkpt lat="51.06723071329508" lon="17.158592358685084"><ele>116.99999999999999</ele><time>2026-05-03T13:04:13Z</time></trkpt><trkpt lat="51.067323395236166" lon="17.158660856311467"><ele>116.99999999999999</ele><time>2026-05-03T13:04:14Z</time></trkpt><trkpt lat="51.06741465808265" lon="17.158729932261934"><ele>117.0</ele><time>2026-05-03T13:04:15Z</time></trkpt><trkpt lat="51.06750676883945" lon="17.15880114257899"><ele>117.0</ele><time>2026-05-03T13:04:16Z</time></trkpt><trkpt lat="51.067597706079916" lon="17.158865836507537"><ele>117.0</ele><time>2026-05-03T13:04:17Z</time></trkpt><trkpt lat="51.06769322353991" lon="17.158925617362137"><ele>116.99999999999999</ele><time>2026-05-03T13:04:18Z</time></trkpt><trkpt lat="51.06778982762289" lon="17.158976200124755"><ele>116.99999999999999</ele><time>2026-05-03T13:04:19Z</time></trkpt><trkpt lat="51.0678875556369" lon="17.15902193701251"><ele>117.0</ele><time>2026-05-03T13:04:20Z</time></trkpt><trkpt lat="51.06798827294718" lon="17.159056688770566"><ele>117.0</ele><time>2026-05-03T13:04:21Z</time></trkpt><trkpt lat="51.068090099213364" lon="17.15907788000453"><ele>117.0</ele><time>2026-05-03T13:04:22Z</time></trkpt><trkpt lat="51.06819318460313" lon="17.15909578086344"><ele>116.99999999999999</ele><time>2026-05-03T13:04:23Z</time></trkpt><trkpt lat="51.06829486003323" lon="17.15911504430649"><ele>116.99999999999999</ele><time>2026-05-03T13:04:24Z</time></trkpt><trkpt lat="51.06839655450796" lon="17.159140465977313"><ele>117.0</ele><time>2026-05-03T13:04:25Z</time></trkpt><trkpt lat="51.06849825470884" lon="17.15916003797784"><ele>117.0</ele><time>2026-05-03T13:04:26Z</time></trkpt><trkpt lat="51.068599749842576" lon="17.1591770896823"><ele>117.19999999999999</ele><time>2026-05-03T13:04:27Z</time></trkpt><trkpt lat="51.06870461842262" lon="17.159196498913087"><ele>117.39999999999999</ele><time>2026-05-03T13:04:28Z</time></trkpt><trkpt lat="51.06880869499673" lon="17.15921828095711"><ele>117.60000000000001</ele><time>2026-05-03T13:04:29Z</time></trkpt><trkpt lat="51.06891424408847" lon="17.15923845554045"><ele>117.80000000000001</ele><time>2026-05-03T13:04:30Z</time></trkpt><trkpt lat="51.069020230717065" lon="17.159244742654096"><ele>118.0</ele><time>2026-05-03T13:04:31Z</time></trkpt><trkpt lat="51.06912617271989" lon="17.15924889825737"><ele>118.0</ele><time>2026-05-03T13:04:32Z</time></trkpt><trkpt lat="51.06923067861382" lon="17.159246305692957"><ele>118.00000000000001</ele><time>2026-05-03T13:04:33Z</time></trkpt><trkpt lat="51.06933503330096" lon="17.15924780732754"><ele>118.00000000000001</ele><time>2026-05-03T13:04:34Z</time></trkpt><trkpt lat="51.06943951266935" lon="17.159248331782596"><ele>118.0</ele><time>2026-05-03T13:04:35Z</time></trkpt><trkpt lat="51.06954401499936" lon="17.159246908235893"><ele>118.0</ele><time>2026-05-03T13:04:36Z</time></trkpt><trkpt lat="51.06965008746214" lon="17.159241213432548"><ele>118.0</ele><time>2026-05-03T13:04:37Z</time></trkpt><trkpt lat="51.06975593533735" lon="17.159227006566375"><ele>118.00000000000001</ele><time>2026-05-03T13:04:38Z</time></trkpt><trkpt lat="51.06986290483689" lon="17.159208924001554"><ele>118.00000000000001</ele><time>2026-05-03T13:04:39Z</time></trkpt><trkpt lat="51.06996956841988" lon="17.15919595138551"><ele>118.0</ele><time>2026-05-03T13:04:40Z</time></trkpt><trkpt lat="51.070075508197604" lon="17.159186975128453"><ele>118.0</ele><time>2026-05-03T13:04:41Z</time></trkpt><trkpt lat="51.070182870266365" lon="17.159179581750678"><ele>117.80000000000001</ele><time>2026-05-03T13:04:42Z</time></trkpt><trkpt lat="51.07028826149819" lon="17.159164611840957"><ele>117.60000000000001</ele><time>2026-05-03T13:04:43Z</time></trkpt><trkpt lat="51.07039424233358" lon="17.159153457414188"><ele>117.39999999999999</ele><time>2026-05-03T13:04:44Z</time></trkpt><trkpt lat="51.070502524825415" lon="17.15914361726058"><ele>117.19999999999999</ele><time>2026-05-03T13:04:45Z</time></trkpt><trkpt lat="51.07061080145751" lon="17.159132577127412"><ele>117.0</ele><time>2026-05-03T13:04:46Z</time></trkpt><trkpt lat="51.07072002091216" lon="17.159121531474383"><ele>117.0</ele><time>2026-05-03T13:04:47Z</time></trkpt><trkpt lat="51.070831201683724" lon="17.159109759017465"><ele>116.99999999999999</ele><time>2026-05-03T13:04:48Z</time></trkpt><trkpt lat="51.07094162685577" lon="17.1590970739919"><ele>116.99999999999999</ele><time>2026-05-03T13:04:49Z</time></trkpt><trkpt lat="51.071051924876095" lon="17.15908722524917"><ele>117.0</ele><time>2026-05-03T13:04:50Z</time></trkpt><trkpt lat="51.07116077235849" lon="17.15908002782553"><ele>117.0</ele><time>2026-05-03T13:04:51Z</time></trkpt><trkpt lat="51.071268165758234" lon="17.159070589689712"><ele>117.0</ele><time>2026-05-03T13:04:52Z</time></trkpt><trkpt lat="51.07137533334998" lon="17.15905920457682"><ele>116.99999999999999</ele><time>2026-05-03T13:04:53Z</time></trkpt><trkpt lat="51.07148345143883" lon="17.15904805272261"><ele>116.99999999999999</ele><time>2026-05-03T13:04:54Z</time></trkpt><trkpt lat="51.071589346906016" lon="17.159033190512204"><ele>117.0</ele><time>2026-05-03T13:04:55Z</time></trkpt><trkpt lat="51.07169738242906" lon="17.159020384185258"><ele>117.0</ele><time>2026-05-03T13:04:56Z</time></trkpt><trkpt lat="51.07180737260296" lon="17.159013302577737"><ele>117.0</ele><time>2026-05-03T13:04:57Z</time></trkpt><trkpt lat="51.07191595193832" lon="17.15900909439018"><ele>116.99999999999999</ele><time>2026-05-03T13:04:58Z</time></trkpt><trkpt lat="51.07202258121068" lon="17.159006733697733"><ele>116.99999999999999</ele><time>2026-05-03T13:04:59Z</time></trkpt><trkpt lat="51.07213007345579" lon="17.159009355779986"><ele>117.0</ele><time>2026-05-03T13:05:00Z</time></trkpt><trkpt lat="51.072237898679894" lon="17.15901471356867"><ele>117.0</ele><time>2026-05-03T13:05:01Z</time></trkpt><trkpt lat="51.072344543867096" lon="17.159016312019737"><ele>117.0</ele><time>2026-05-03T13:05:02Z</time></trkpt><trkpt lat="51.07245144164987" lon="17.15902091495452"><ele>116.99999999999999</ele><time>2026-05-03T13:05:03Z</time></trkpt><trkpt lat="51.07255654200603" lon="17.159024988609293"><ele>116.99999999999999</ele><time>2026-05-03T13:05:04Z</time></trkpt><trkpt lat="51.072662391268736" lon="17.159029683139934"><ele>117.0</ele><time>2026-05-03T13:05:05Z</time></trkpt><trkpt lat="51.07276521141459" lon="17.159037055688575"><ele>117.0</ele><time>2026-05-03T13:05:06Z</time></trkpt><trkpt lat="51.07286696869541" lon="17.15905010154501"><ele>117.0</ele><time>2026-05-03T13:05:07Z</time></trkpt><trkpt lat="51.07296920219943" lon="17.159065752541764"><ele>116.99999999999999</ele><time>2026-05-03T13:05:08Z</time></trkpt><trkpt lat="51.07307036941766" lon="17.15907913607317"><ele>116.99999999999999</ele><time>2026-05-03T13:05:09Z</time></trkpt><trkpt lat="51.07317018667095" lon="17.159095106165143"><ele>117.0</ele><time>2026-05-03T13:05:10Z</time></trkpt><trkpt lat="51.07326779115553" lon="17.159113761140045"><ele>117.0</ele><time>2026-05-03T13:05:11Z</time></trkpt><trkpt lat="51.073365504970894" lon="17.159136838378103"><ele>117.0</ele><time>2026-05-03T13:05:12Z</time></trkpt><trkpt lat="51.0734622761352" lon="17.159158731819762"><ele>116.99999999999999</ele><time>2026-05-03T13:05:13Z</time></trkpt><trkpt lat="51.07355813246113" lon="17.159187851758094"><ele>116.99999999999999</ele><time>2026-05-03T13:05:14Z</time></trkpt><trkpt lat="51.07365362028107" lon="17.15921567984173"><ele>117.0</ele><time>2026-05-03T13:05:15Z</time></trkpt><trkpt lat="51.07374566034869" lon="17.159247471608403"><ele>117.0</ele><time>2026-05-03T13:05:16Z</time></trkpt><trkpt lat="51.073838746269644" lon="17.159278156870332"><ele>117.0</ele><time>2026-05-03T13:05:17Z</time></trkpt><trkpt lat="51.07393083910956" lon="17.159310901548285"><ele>116.99999999999999</ele><time>2026-05-03T13:05:18Z</time></trkpt><trkpt lat="51.07402065327272" lon="17.159348669191083"><ele>116.99999999999999</ele><time>2026-05-03T13:05:19Z</time></trkpt><trkpt lat="51.07410816863394" lon="17.15938101383517"><ele>117.0</ele><time>2026-05-03T13:05:20Z</time></trkpt><trkpt lat="51.074195368402464" lon="17.15941081790589"><ele>117.0</ele><time>2026-05-03T13:05:21Z</time></trkpt><trkpt lat="51.07428148751891" lon="17.159446664376105"><ele>117.39999999999999</ele><time>2026-05-03T13:05:22Z</time></trkpt><trkpt lat="51.074367638644084" lon="17.159488387731905"><ele>117.79999999999998</ele><time>2026-05-03T13:05:23Z</time></trkpt><trkpt lat="51.07445562435337" lon="17.159534617187685"><ele>118.2</ele><time>2026-05-03T13:05:24Z</time></trkpt><trkpt lat="51.07454156520817" lon="17.159576969362607"><ele>118.6</ele><time>2026-05-03T13:05:25Z</time></trkpt><trkpt lat="51.074629127403135" lon="17.15962595014383"><ele>119.0</ele><time>2026-05-03T13:05:26Z</time></trkpt><trkpt lat="51.0747168541699" lon="17.159675607118338"><ele>119.0</ele><time>2026-05-03T13:05:27Z</time></trkpt><trkpt lat="51.07480317352677" lon="17.159736201098877"><ele>119.0</ele><time>2026-05-03T13:05:28Z</time></trkpt><trkpt lat="51.074890500283686" lon="17.15979024111623"><ele>119.0</ele><time>2026-05-03T13:05:29Z</time></trkpt><trkpt lat="51.07497676876181" lon="17.159855962979236"><ele>119.0</ele><time>2026-05-03T13:05:30Z</time></trkpt><trkpt lat="51.07506590413892" lon="17.159913239703908"><ele>119.0</ele><time>2026-05-03T13:05:31Z</time></trkpt><trkpt lat="51.075152093753715" lon="17.159964927411938"><ele>119.2</ele><time>2026-05-03T13:05:32Z</time></trkpt><trkpt lat="51.07524006067226" lon="17.160024782721305"><ele>119.4</ele><time>2026-05-03T13:05:33Z</time></trkpt><trkpt lat="51.075324499838054" lon="17.160082280967725"><ele>119.6</ele><time>2026-05-03T13:05:34Z</time></trkpt><trkpt lat="51.07541207005289" lon="17.16014283008499"><ele>119.8</ele><time>2026-05-03T13:05:35Z</time></trkpt><trkpt lat="51.075496897630074" lon="17.16020506281523"><ele>120.0</ele><time>2026-05-03T13:05:36Z</time></trkpt><trkpt lat="51.07558069741603" lon="17.16026695064871"><ele>120.0</ele><time>2026-05-03T13:05:37Z</time></trkpt><trkpt lat="51.075664927740796" lon="17.160335522641383"><ele>120.0</ele><time>2026-05-03T13:05:38Z</time></trkpt><trkpt lat="51.07574850408384" lon="17.1603977887885"><ele>120.0</ele><time>2026-05-03T13:05:39Z</time></trkpt><trkpt lat="51.07583238984779" lon="17.160461507585595"><ele>120.0</ele><time>2026-05-03T13:05:40Z</time></trkpt><trkpt lat="51.07591737993869" lon="17.160521627171647"><ele>120.0</ele><time>2026-05-03T13:05:41Z</time></trkpt><trkpt lat="51.076002511404276" lon="17.16058724724283"><ele>120.4</ele><time>2026-05-03T13:05:42Z</time></trkpt><trkpt lat="51.07608764543883" lon="17.160642979649218"><ele>120.8</ele><time>2026-05-03T13:05:43Z</time></trkpt><trkpt lat="51.07617394135251" lon="17.160701431302968"><ele>121.19999999999999</ele><time>2026-05-03T13:05:44Z</time></trkpt><trkpt lat="51.076260168234704" lon="17.160760312473236"><ele>121.6</ele><time>2026-05-03T13:05:45Z</time></trkpt><trkpt lat="51.07634367522692" lon="17.160824929197574"><ele>122.0</ele><time>2026-05-03T13:05:46Z</time></trkpt><trkpt lat="51.07642681629131" lon="17.160887213705763"><ele>122.19999999999999</ele><time>2026-05-03T13:05:47Z</time></trkpt><trkpt lat="51.07651215674198" lon="17.16095044815941"><ele>122.39999999999999</ele><time>2026-05-03T13:05:48Z</time></trkpt><trkpt lat="51.07659778316709" lon="17.161010516666536"><ele>122.60000000000001</ele><time>2026-05-03T13:05:49Z</time></trkpt><trkpt lat="51.07668542982174" lon="17.161068215379405"><ele>122.80000000000001</ele><time>2026-05-03T13:05:50Z</time></trkpt><trkpt lat="51.07677009474345" lon="17.161129387025547"><ele>123.0</ele><time>2026-05-03T13:05:51Z</time></trkpt><trkpt lat="51.07685506442073" lon="17.16119435539295"><ele>123.2</ele><time>2026-05-03T13:05:52Z</time></trkpt><trkpt lat="51.076939105978724" lon="17.161257014553787"><ele>123.4</ele><time>2026-05-03T13:05:53Z</time></trkpt><trkpt lat="51.0770235876514" lon="17.16132293150949"><ele>123.60000000000001</ele><time>2026-05-03T13:05:54Z</time></trkpt><trkpt lat="51.07710626074484" lon="17.161384403860676"><ele>123.80000000000001</ele><time>2026-05-03T13:05:55Z</time></trkpt><trkpt lat="51.077191375295385" lon="17.16144185281428"><ele>124.0</ele><time>2026-05-03T13:05:56Z</time></trkpt><trkpt lat="51.077277595507304" lon="17.1614999138032"><ele>124.0</ele><time>2026-05-03T13:05:57Z</time></trkpt><trkpt lat="51.07736368744867" lon="17.161558879989183"><ele>124.0</ele><time>2026-05-03T13:05:58Z</time></trkpt><trkpt lat="51.0774488295376" lon="17.161616778285524"><ele>124.0</ele><time>2026-05-03T13:05:59Z</time></trkpt><trkpt lat="51.07753373155733" lon="17.16167767796508"><ele>124.0</ele><time>2026-05-03T13:06:00Z</time></trkpt><trkpt lat="51.0776187106039" lon="17.161739788772902"><ele>124.0</ele><time>2026-05-03T13:06:01Z</time></trkpt><trkpt lat="51.077704828197014" lon="17.161796867674063"><ele>123.4</ele><time>2026-05-03T13:06:02Z</time></trkpt><trkpt lat="51.077788836624926" lon="17.16185794091015"><ele>122.80000000000001</ele><time>2026-05-03T13:06:03Z</time></trkpt><trkpt lat="51.07787157466798" lon="17.161922872693427"><ele>122.19999999999999</ele><time>2026-05-03T13:06:04Z</time></trkpt><trkpt lat="51.0779548357209" lon="17.161983718859968"><ele>121.6</ele><time>2026-05-03T13:06:05Z</time></trkpt><trkpt lat="51.07803763096338" lon="17.162044927234025"><ele>121.0</ele><time>2026-05-03T13:06:06Z</time></trkpt><trkpt lat="51.07811883725893" lon="17.162104968330755"><ele>121.00000000000001</ele><time>2026-05-03T13:06:07Z</time></trkpt><trkpt lat="51.07820095434115" lon="17.1621599747238"><ele>121.0</ele><time>2026-05-03T13:06:08Z</time></trkpt><trkpt lat="51.07828145377763" lon="17.162215194832857"><ele>121.0</ele><time>2026-05-03T13:06:09Z</time></trkpt><trkpt lat="51.07836201569818" lon="17.162271652765455"><ele>121.0</ele><time>2026-05-03T13:06:10Z</time></trkpt><trkpt lat="51.07844111366152" lon="17.162331841200473"><ele>121.00000000000001</ele><time>2026-05-03T13:06:11Z</time></trkpt><trkpt lat="51.0785211701276" lon="17.16239256577593"><ele>121.0</ele><time>2026-05-03T13:06:12Z</time></trkpt><trkpt lat="51.078601043073505" lon="17.162452793852996"><ele>120.16666666666667</ele><time>2026-05-03T13:06:13Z</time></trkpt><trkpt lat="51.07868252109979" lon="17.162508825720742"><ele>119.33333333333334</ele><time>2026-05-03T13:06:14Z</time></trkpt><trkpt lat="51.07876546547312" lon="17.162560581360093"><ele>118.5</ele><time>2026-05-03T13:06:15Z</time></trkpt><trkpt lat="51.07884720465417" lon="17.16261920135504"><ele>117.66666666666666</ele><time>2026-05-03T13:06:16Z</time></trkpt><trkpt lat="51.078928368542115" lon="17.162680566320198"><ele>116.83333333333333</ele><time>2026-05-03T13:06:17Z</time></trkpt><trkpt lat="51.079009261664076" lon="17.162737624941496"><ele>116.0</ele><time>2026-05-03T13:06:18Z</time></trkpt><trkpt lat="51.07909196388202" lon="17.162797365122383"><ele>116.19999999999999</ele><time>2026-05-03T13:06:19Z</time></trkpt><trkpt lat="51.079174170211324" lon="17.16286042532334"><ele>116.39999999999999</ele><time>2026-05-03T13:06:20Z</time></trkpt><trkpt lat="51.079254423764716" lon="17.162927432089344"><ele>116.6</ele><time>2026-05-03T13:06:21Z</time></trkpt><trkpt lat="51.079337296038794" lon="17.162994514365277"><ele>116.8</ele><time>2026-05-03T13:06:22Z</time></trkpt><trkpt lat="51.07942074782358" lon="17.16306000042514"><ele>117.0</ele><time>2026-05-03T13:06:23Z</time></trkpt><trkpt lat="51.07950759584198" lon="17.163120453143872"><ele>117.0</ele><time>2026-05-03T13:06:24Z</time></trkpt><trkpt lat="51.07959639511573" lon="17.16318175415968"><ele>116.99999999999999</ele><time>2026-05-03T13:06:25Z</time></trkpt><trkpt lat="51.07968087334985" lon="17.16324289901257"><ele>116.99999999999999</ele><time>2026-05-03T13:06:26Z</time></trkpt><trkpt lat="51.079770341224105" lon="17.16330709577037"><ele>117.0</ele><time>2026-05-03T13:06:27Z</time></trkpt><trkpt lat="51.07985675888842" lon="17.16337004934847"><ele>117.0</ele><time>2026-05-03T13:06:28Z</time></trkpt><trkpt lat="51.079943248507824" lon="17.163441192119596"><ele>116.8</ele><time>2026-05-03T13:06:29Z</time></trkpt><trkpt lat="51.08003382282538" lon="17.163505288985558"><ele>116.6</ele><time>2026-05-03T13:06:30Z</time></trkpt><trkpt lat="51.08012335872109" lon="17.16356713930543"><ele>116.39999999999999</ele><time>2026-05-03T13:06:31Z</time></trkpt><trkpt lat="51.08021413411549" lon="17.163628998409607"><ele>116.19999999999999</ele><time>2026-05-03T13:06:32Z</time></trkpt><trkpt lat="51.08030551765476" lon="17.163691060176685"><ele>116.0</ele><time>2026-05-03T13:06:33Z</time></trkpt><trkpt lat="51.08039706732531" lon="17.163756346351704"><ele>116.0</ele><time>2026-05-03T13:06:34Z</time></trkpt><trkpt lat="51.08048768410349" lon="17.163824197416858"><ele>116.0</ele><time>2026-05-03T13:06:35Z</time></trkpt><trkpt lat="51.080581481949245" lon="17.163888075215958"><ele>116.0</ele><time>2026-05-03T13:06:36Z</time></trkpt><trkpt lat="51.08067286150336" lon="17.16395322649207"><ele>116.0</ele><time>2026-05-03T13:06:37Z</time></trkpt><trkpt lat="51.08076556545538" lon="17.164020962165527"><ele>116.0</ele><time>2026-05-03T13:06:38Z</time></trkpt><trkpt lat="51.080861587651256" lon="17.16408980413347"><ele>116.0</ele><time>2026-05-03T13:06:39Z</time></trkpt><trkpt lat="51.08095662152549" lon="17.164156591008094"><ele>116.0</ele><time>2026-05-03T13:06:40Z</time></trkpt><trkpt lat="51.08105293647088" lon="17.1642237707118"><ele>116.0</ele><time>2026-05-03T13:06:41Z</time></trkpt><trkpt lat="51.08115090049929" lon="17.164291349391185"><ele>116.0</ele><time>2026-05-03T13:06:42Z</time></trkpt><trkpt lat="51.08124843610815" lon="17.16435754725805"><ele>116.0</ele><time>2026-05-03T13:06:43Z</time></trkpt><trkpt lat="51.08134463075724" lon="17.16442538969646"><ele>116.0</ele><time>2026-05-03T13:06:44Z</time></trkpt><trkpt lat="51.081443224675084" lon="17.16449502210458"><ele>116.0</ele><time>2026-05-03T13:06:45Z</time></trkpt><trkpt lat="51.08154546125772" lon="17.16456929124315"><ele>116.0</ele><time>2026-05-03T13:06:46Z</time></trkpt><trkpt lat="51.08164958856682" lon="17.164633752843137"><ele>116.0</ele><time>2026-05-03T13:06:47Z</time></trkpt><trkpt lat="51.081750708785115" lon="17.16468908677085"><ele>116.0</ele><time>2026-05-03T13:06:48Z</time></trkpt><trkpt lat="51.081851969408454" lon="17.164749639318504"><ele>116.0</ele><time>2026-05-03T13:06:49Z</time></trkpt><trkpt lat="51.08195660823254" lon="17.16481595177907"><ele>116.0</ele><time>2026-05-03T13:06:50Z</time></trkpt><trkpt lat="51.082060512185635" lon="17.16487946870533"><ele>116.0</ele><time>2026-05-03T13:06:51Z</time></trkpt><trkpt lat="51.082164052664126" lon="17.164942560577742"><ele>116.0</ele><time>2026-05-03T13:06:52Z</time></trkpt><trkpt lat="51.08226791654009" lon="17.16500130137588"><ele>116.0</ele><time>2026-05-03T13:06:53Z</time></trkpt><trkpt lat="51.082371172842386" lon="17.165063525026554"><ele>116.4</ele><time>2026-05-03T13:06:54Z</time></trkpt><trkpt lat="51.08247410514417" lon="17.165121371507315"><ele>116.8</ele><time>2026-05-03T13:06:55Z</time></trkpt><trkpt lat="51.08257967054338" lon="17.1651774938947"><ele>117.20000000000002</ele><time>2026-05-03T13:06:56Z</time></trkpt><trkpt lat="51.08268398283609" lon="17.165236246489773"><ele>117.60000000000001</ele><time>2026-05-03T13:06:57Z</time></trkpt><trkpt lat="51.08278839658356" lon="17.16529885295001"><ele>118.0</ele><time>2026-05-03T13:06:58Z</time></trkpt><trkpt lat="51.08289540844204" lon="17.1653617340928"><ele>118.0</ele><time>2026-05-03T13:06:59Z</time></trkpt><trkpt lat="51.083001640042404" lon="17.165424456183423"><ele>118.0</ele><time>2026-05-03T13:07:00Z</time></trkpt><trkpt lat="51.08310971959278" lon="17.165485841871227"><ele>118.0</ele><time>2026-05-03T13:07:01Z</time></trkpt><trkpt lat="51.083215767211335" lon="17.16554537863326"><ele>118.0</ele><time>2026-05-03T13:07:02Z</time></trkpt><trkpt lat="51.08332268482702" lon="17.16560562306644"><ele>117.75</ele><time>2026-05-03T13:07:03Z</time></trkpt><trkpt lat="51.08342878025207" lon="17.16566424450855"><ele>117.5</ele><time>2026-05-03T13:07:04Z</time></trkpt><trkpt lat="51.083535509960065" lon="17.165722540874498"><ele>117.25</ele><time>2026-05-03T13:07:05Z</time></trkpt><trkpt lat="51.08364163562471" lon="17.16578258201141"><ele>117.0</ele><time>2026-05-03T13:07:06Z</time></trkpt><trkpt lat="51.083747780406405" lon="17.165841999146075"><ele>117.0</ele><time>2026-05-03T13:07:07Z</time></trkpt><trkpt lat="51.083853293547726" lon="17.165902087236958"><ele>117.0</ele><time>2026-05-03T13:07:08Z</time></trkpt><trkpt lat="51.08396076809649" lon="17.165962452008255"><ele>117.0</ele><time>2026-05-03T13:07:09Z</time></trkpt><trkpt lat="51.084068194046964" lon="17.16601978952478"><ele>117.0</ele><time>2026-05-03T13:07:10Z</time></trkpt><trkpt lat="51.084175711139885" lon="17.166078668379797"><ele>117.0</ele><time>2026-05-03T13:07:11Z</time></trkpt><trkpt lat="51.084282597918815" lon="17.166134392323006"><ele>117.0</ele><time>2026-05-03T13:07:12Z</time></trkpt><trkpt lat="51.08439221210297" lon="17.16619075802213"><ele>117.0</ele><time>2026-05-03T13:07:13Z</time></trkpt><trkpt lat="51.084500688955345" lon="17.166242761168473"><ele>117.0</ele><time>2026-05-03T13:07:14Z</time></trkpt><trkpt lat="51.08460756255205" lon="17.166295250246637"><ele>117.0</ele><time>2026-05-03T13:07:15Z</time></trkpt><trkpt lat="51.084715985788414" lon="17.16634108156967"><ele>117.0</ele><time>2026-05-03T13:07:16Z</time></trkpt><trkpt lat="51.08482625027094" lon="17.166382502174365"><ele>117.0</ele><time>2026-05-03T13:07:17Z</time></trkpt><trkpt lat="51.084936144528115" lon="17.166421520618275"><ele>117.0</ele><time>2026-05-03T13:07:18Z</time></trkpt><trkpt lat="51.08504663098073" lon="17.166460237011837"><ele>117.0</ele><time>2026-05-03T13:07:19Z</time></trkpt><trkpt lat="51.0851580110656" lon="17.16649517866253"><ele>117.0</ele><time>2026-05-03T13:07:20Z</time></trkpt><trkpt lat="51.08527045167208" lon="17.166524769835803"><ele>117.0</ele><time>2026-05-03T13:07:21Z</time></trkpt><trkpt lat="51.085382366226575" lon="17.16654832140142"><ele>117.0</ele><time>2026-05-03T13:07:22Z</time></trkpt><trkpt lat="51.085490730403976" lon="17.16657194989873"><ele>117.0</ele><time>2026-05-03T13:07:23Z</time></trkpt><trkpt lat="51.085606818631526" lon="17.166515093934816"><ele>116.99999999999999</ele><time>2026-05-03T13:07:24Z</time></trkpt><trkpt lat="51.08571665710119" lon="17.166536480040524"><ele>116.99999999999999</ele><time>2026-05-03T13:07:25Z</time></trkpt><trkpt lat="51.085826628875175" lon="17.166557893493984"><ele>117.0</ele><time>2026-05-03T13:07:26Z</time></trkpt><trkpt lat="51.08593064211817" lon="17.16656555566438"><ele>117.0</ele><time>2026-05-03T13:07:27Z</time></trkpt><trkpt lat="51.08603559901803" lon="17.16656751914576"><ele>117.19999999999999</ele><time>2026-05-03T13:07:28Z</time></trkpt><trkpt lat="51.086140517371426" lon="17.166571825788633"><ele>117.39999999999999</ele><time>2026-05-03T13:07:29Z</time></trkpt><trkpt lat="51.086237769812264" lon="17.166576294864118"><ele>117.60000000000001</ele><time>2026-05-03T13:07:30Z</time></trkpt><trkpt lat="51.086333429028166" lon="17.166580448706355"><ele>117.80000000000001</ele><time>2026-05-03T13:07:31Z</time></trkpt><trkpt lat="51.08641999013907" lon="17.166758271692075"><ele>118.0</ele><time>2026-05-03T13:07:32Z</time></trkpt><trkpt lat="51.08650478444826" lon="17.166813972892047"><ele>118.0</ele><time>2026-05-03T13:07:33Z</time></trkpt><trkpt lat="51.086584979271585" lon="17.166887110086414"><ele>118.00000000000001</ele><time>2026-05-03T13:07:34Z</time></trkpt><trkpt lat="51.08665489210573" lon="17.166965298853015"><ele>118.00000000000001</ele><time>2026-05-03T13:07:35Z</time></trkpt><trkpt lat="51.08680284732666" lon="17.166919073272837"><ele>118.0</ele><time>2026-05-03T13:07:36Z</time></trkpt><trkpt lat="51.08684627216269" lon="17.16705546335963"><ele>118.0</ele><time>2026-05-03T13:07:37Z</time></trkpt><trkpt lat="51.08689496054173" lon="17.167215649924785"><ele>117.83333333333334</ele><time>2026-05-03T13:07:39Z</time></trkpt><trkpt lat="51.08691189440386" lon="17.167325829226105"><ele>117.66666666666667</ele><time>2026-05-03T13:07:42Z</time></trkpt><trkpt lat="51.08700970957287" lon="17.167250374714314"><ele>117.5</ele><time>2026-05-03T13:07:44Z</time></trkpt><trkpt lat="51.08710849186799" lon="17.1671376062702"><ele>117.33333333333334</ele><time>2026-05-03T13:07:46Z</time></trkpt><trkpt lat="51.08715140921021" lon="17.167058659264523"><ele>117.16666666666667</ele><time>2026-05-03T13:07:47Z</time></trkpt><trkpt lat="51.0872089225398" lon="17.167000111662713"><ele>117.0</ele><time>2026-05-03T13:07:48Z</time></trkpt><trkpt lat="51.087270287354265" lon="17.166933705273905"><ele>117.0</ele><time>2026-05-03T13:07:49Z</time></trkpt><trkpt lat="51.08733319734351" lon="17.16687071646133"><ele>117.0</ele><time>2026-05-03T13:07:50Z</time></trkpt><trkpt lat="51.08739440577416" lon="17.16680459831236"><ele>117.0</ele><time>2026-05-03T13:07:51Z</time></trkpt><trkpt lat="51.08745808116818" lon="17.16673768254252"><ele>117.0</ele><time>2026-05-03T13:07:52Z</time></trkpt><trkpt lat="51.087523740970894" lon="17.166670890296253"><ele>117.0</ele><time>2026-05-03T13:07:53Z</time></trkpt><trkpt lat="51.087593069055025" lon="17.166608380928608"><ele>117.0</ele><time>2026-05-03T13:07:54Z</time></trkpt><trkpt lat="51.08766411987533" lon="17.16654681820833"><ele>117.0</ele><time>2026-05-03T13:07:55Z</time></trkpt><trkpt lat="51.08773444501512" lon="17.166482309765474"><ele>117.0</ele><time>2026-05-03T13:07:56Z</time></trkpt><trkpt lat="51.087805469863646" lon="17.166416766952597"><ele>117.0</ele><time>2026-05-03T13:07:57Z</time></trkpt><trkpt lat="51.08787730310768" lon="17.166350165251927"><ele>117.0</ele><time>2026-05-03T13:07:58Z</time></trkpt><trkpt lat="51.087949080205085" lon="17.166282841467087"><ele>117.0</ele><time>2026-05-03T13:07:59Z</time></trkpt><trkpt lat="51.08802080734804" lon="17.166215970319676"><ele>117.0</ele><time>2026-05-03T13:08:00Z</time></trkpt><trkpt lat="51.08809283768727" lon="17.166151063072263"><ele>117.0</ele><time>2026-05-03T13:08:01Z</time></trkpt><trkpt lat="51.088165807467476" lon="17.16609065454125"><ele>117.0</ele><time>2026-05-03T13:08:02Z</time></trkpt><trkpt lat="51.08824075345887" lon="17.16602893007148"><ele>117.0</ele><time>2026-05-03T13:08:03Z</time></trkpt><trkpt lat="51.08831414069876" lon="17.165964098507995"><ele>117.0</ele><time>2026-05-03T13:08:04Z</time></trkpt><trkpt lat="51.08838752582107" lon="17.16589756239808"><ele>117.0</ele><time>2026-05-03T13:08:05Z</time></trkpt><trkpt lat="51.088459456772156" lon="17.165831315966958"><ele>117.0</ele><time>2026-05-03T13:08:06Z</time></trkpt><trkpt lat="51.08853125886818" lon="17.165766452850285"><ele>117.0</ele><time>2026-05-03T13:08:07Z</time></trkpt><trkpt lat="51.08860358561805" lon="17.16570347114755"><ele>117.0</ele><time>2026-05-03T13:08:08Z</time></trkpt><trkpt lat="51.08867629069815" lon="17.165639272640004"><ele>117.0</ele><time>2026-05-03T13:08:09Z</time></trkpt><trkpt lat="51.08874841494584" lon="17.165579216730464"><ele>117.0</ele><time>2026-05-03T13:08:10Z</time></trkpt><trkpt lat="51.088821657056556" lon="17.165516599942013"><ele>117.0</ele><time>2026-05-03T13:08:11Z</time></trkpt><trkpt lat="51.088894889611765" lon="17.16545369962553"><ele>117.0</ele><time>2026-05-03T13:08:12Z</time></trkpt><trkpt lat="51.08896859321445" lon="17.165387510332355"><ele>117.0</ele><time>2026-05-03T13:08:13Z</time></trkpt><trkpt lat="51.08904200515822" lon="17.165318379468292"><ele>117.0</ele><time>2026-05-03T13:08:14Z</time></trkpt><trkpt lat="51.08911664109584" lon="17.165251440114695"><ele>117.0</ele><time>2026-05-03T13:08:15Z</time></trkpt><trkpt lat="51.089192179465606" lon="17.165186832372758"><ele>117.0</ele><time>2026-05-03T13:08:16Z</time></trkpt><trkpt lat="51.08926738616405" lon="17.1651208885793"><ele>117.0</ele><time>2026-05-03T13:08:17Z</time></trkpt><trkpt lat="51.08934369081607" lon="17.165056866234078"><ele>117.0</ele><time>2026-05-03T13:08:18Z</time></trkpt><trkpt lat="51.08941846907569" lon="17.16499037776198"><ele>117.0</ele><time>2026-05-03T13:08:19Z</time></trkpt><trkpt lat="51.08949532889073" lon="17.164923256537122"><ele>117.0</ele><time>2026-05-03T13:08:20.001Z</time></trkpt><trkpt lat="51.08957111552228" lon="17.164857218751873"><ele>117.0</ele><time>2026-05-03T13:08:21.001Z</time></trkpt><trkpt lat="51.08964699116961" lon="17.16479032006465"><ele>117.0</ele><time>2026-05-03T13:08:22.001Z</time></trkpt><trkpt lat="51.08972244721186" lon="17.16472327381314"><ele>117.0</ele><time>2026-05-03T13:08:23.001Z</time></trkpt><trkpt lat="51.08979685736125" lon="17.16465382314188"><ele>117.0</ele><time>2026-05-03T13:08:24.001Z</time></trkpt><trkpt lat="51.08987105208136" lon="17.164583381777636"><ele>117.0</ele><time>2026-05-03T13:08:25.001Z</time></trkpt><trkpt lat="51.08994606243567" lon="17.16451419807066"><ele>117.0</ele><time>2026-05-03T13:08:26.001Z</time></trkpt><trkpt lat="51.09002177698801" lon="17.164446995270662"><ele>117.0</ele><time>2026-05-03T13:08:27.001Z</time></trkpt><trkpt lat="51.09009931799055" lon="17.16438271154387"><ele>117.0</ele><time>2026-05-03T13:08:28.001Z</time></trkpt><trkpt lat="51.09017562925764" lon="17.164314479405284"><ele>117.0</ele><time>2026-05-03T13:08:29.001Z</time></trkpt><trkpt lat="51.09024949712007" lon="17.16424583214384"><ele>117.0</ele><time>2026-05-03T13:08:30.001Z</time></trkpt><trkpt lat="51.090328560814854" lon="17.164182487046403"><ele>117.0</ele><time>2026-05-03T13:08:31.001Z</time></trkpt><trkpt lat="51.090403590618735" lon="17.16411523012378"><ele>117.0</ele><time>2026-05-03T13:08:32.001Z</time></trkpt><trkpt lat="51.090479829622204" lon="17.164049539055124"><ele>117.0</ele><time>2026-05-03T13:08:33.001Z</time></trkpt><trkpt lat="51.09055484770795" lon="17.16398523793302"><ele>117.0</ele><time>2026-05-03T13:08:34.001Z</time></trkpt><trkpt lat="51.09062806750809" lon="17.163919271249945"><ele>117.0</ele><time>2026-05-03T13:08:35.001Z</time></trkpt><trkpt lat="51.09070367133851" lon="17.163854864253647"><ele>117.0</ele><time>2026-05-03T13:08:36.001Z</time></trkpt><trkpt lat="51.09077717880834" lon="17.163792886127624"><ele>116.83333333333333</ele><time>2026-05-03T13:08:37.001Z</time></trkpt><trkpt lat="51.090851694459296" lon="17.16372651559448"><ele>116.66666666666666</ele><time>2026-05-03T13:08:38.001Z</time></trkpt><trkpt lat="51.09092543728558" lon="17.16366308496248"><ele>116.5</ele><time>2026-05-03T13:08:39Z</time></trkpt><trkpt lat="51.09100082456638" lon="17.163599257439817"><ele>116.33333333333333</ele><time>2026-05-03T13:08:40Z</time></trkpt><trkpt lat="51.09107805006793" lon="17.163532114327136"><ele>116.16666666666666</ele><time>2026-05-03T13:08:41Z</time></trkpt><trkpt lat="51.091151591245314" lon="17.16346390443033"><ele>116.0</ele><time>2026-05-03T13:08:42Z</time></trkpt><trkpt lat="51.09122766238165" lon="17.16339921798464"><ele>115.99999999999999</ele><time>2026-05-03T13:08:43Z</time></trkpt><trkpt lat="51.0913061414811" lon="17.163339347008193"><ele>116.0</ele><time>2026-05-03T13:08:44Z</time></trkpt><trkpt lat="51.09138680766821" lon="17.1632845933303"><ele>116.0</ele><time>2026-05-03T13:08:45Z</time></trkpt><trkpt lat="51.09146749885345" lon="17.163237796585367"><ele>116.0</ele><time>2026-05-03T13:08:46Z</time></trkpt><trkpt lat="51.091548789213235" lon="17.16319176677383"><ele>115.99999999999999</ele><time>2026-05-03T13:08:47Z</time></trkpt><trkpt lat="51.09162967745545" lon="17.163147451544113"><ele>116.0</ele><time>2026-05-03T13:08:48Z</time></trkpt><trkpt lat="51.09171131016636" lon="17.163108011884617"><ele>116.16666666666666</ele><time>2026-05-03T13:08:49Z</time></trkpt><trkpt lat="51.09179497155383" lon="17.163074452490225"><ele>116.33333333333333</ele><time>2026-05-03T13:08:50Z</time></trkpt><trkpt lat="51.091880657353144" lon="17.163045031234105"><ele>116.5</ele><time>2026-05-03T13:08:51Z</time></trkpt><trkpt lat="51.09196530688207" lon="17.163017119855205"><ele>116.66666666666666</ele><time>2026-05-03T13:08:52Z</time></trkpt><trkpt lat="51.09205159062171" lon="17.162993650469634"><ele>116.83333333333333</ele><time>2026-05-03T13:08:53Z</time></trkpt><trkpt lat="51.09213821641841" lon="17.162972292028776"><ele>117.0</ele><time>2026-05-03T13:08:54Z</time></trkpt><trkpt lat="51.09222473286859" lon="17.162957626459498"><ele>117.0</ele><time>2026-05-03T13:08:55Z</time></trkpt><trkpt lat="51.092312261841194" lon="17.16294837748623"><ele>117.0</ele><time>2026-05-03T13:08:56Z</time></trkpt><trkpt lat="51.09239809180545" lon="17.162947213846717"><ele>117.0</ele><time>2026-05-03T13:08:57Z</time></trkpt><trkpt lat="51.0924846998089" lon="17.162947514705348"><ele>117.0</ele><time>2026-05-03T13:08:58Z</time></trkpt><trkpt lat="51.09257073597157" lon="17.162953804004417"><ele>117.0</ele><time>2026-05-03T13:08:59Z</time></trkpt><trkpt lat="51.09265675595934" lon="17.162966680973838"><ele>117.0</ele><time>2026-05-03T13:09:00Z</time></trkpt><trkpt lat="51.092742489906946" lon="17.16297881875681"><ele>116.83333333333333</ele><time>2026-05-03T13:09:01Z</time></trkpt><trkpt lat="51.092828593319645" lon="17.162997275363512"><ele>116.66666666666666</ele><time>2026-05-03T13:09:02Z</time></trkpt><trkpt lat="51.092914237043196" lon="17.163020932940487"><ele>116.5</ele><time>2026-05-03T13:09:03Z</time></trkpt><trkpt lat="51.09300004526827" lon="17.16304702348435"><ele>116.33333333333333</ele><time>2026-05-03T13:09:04Z</time></trkpt><trkpt lat="51.093085910398884" lon="17.163076560750188"><ele>116.16666666666666</ele><time>2026-05-03T13:09:05Z</time></trkpt><trkpt lat="51.09317221434286" lon="17.163111216400353"><ele>116.0</ele><time>2026-05-03T13:09:06Z</time></trkpt><trkpt lat="51.09325576761751" lon="17.16315187798311"><ele>116.33333333333333</ele><time>2026-05-03T13:09:07Z</time></trkpt><trkpt lat="51.09333856218805" lon="17.16319982187218"><ele>116.66666666666666</ele><time>2026-05-03T13:09:08Z</time></trkpt><trkpt lat="51.09342141233614" lon="17.163244202420966"><ele>117.0</ele><time>2026-05-03T13:09:09Z</time></trkpt><trkpt lat="51.0935043945218" lon="17.163297895440348"><ele>117.33333333333334</ele><time>2026-05-03T13:09:10Z</time></trkpt><trkpt lat="51.09358438504927" lon="17.163357952794517"><ele>117.66666666666667</ele><time>2026-05-03T13:09:11Z</time></trkpt><trkpt lat="51.09366435544596" lon="17.163422859234377"><ele>118.0</ele><time>2026-05-03T13:09:12Z</time></trkpt><trkpt lat="51.09374373009855" lon="17.16349406793215"><ele>118.0</ele><time>2026-05-03T13:09:13Z</time></trkpt><trkpt lat="51.093822048863515" lon="17.163568898304273"><ele>118.00000000000001</ele><time>2026-05-03T13:09:14Z</time></trkpt><trkpt lat="51.09389898513779" lon="17.163645368834825"><ele>118.00000000000001</ele><time>2026-05-03T13:09:15Z</time></trkpt><trkpt lat="51.093974874776336" lon="17.163725338206895"><ele>118.0</ele><time>2026-05-03T13:09:16Z</time></trkpt><trkpt lat="51.09405148248552" lon="17.163805775014055"><ele>118.0</ele><time>2026-05-03T13:09:17Z</time></trkpt><trkpt lat="51.094126068796776" lon="17.16388533945376"><ele>118.00000000000001</ele><time>2026-05-03T13:09:18Z</time></trkpt><trkpt lat="51.09419985496432" lon="17.163968944483646"><ele>118.0</ele><time>2026-05-03T13:09:19Z</time></trkpt><trkpt lat="51.09427320910428" lon="17.164054037080884"><ele>118.0</ele><time>2026-05-03T13:09:20Z</time></trkpt><trkpt lat="51.09434492400617" lon="17.164135594388082"><ele>118.0</ele><time>2026-05-03T13:09:21Z</time></trkpt><trkpt lat="51.09441848166597" lon="17.16421630180717"><ele>118.00000000000001</ele><time>2026-05-03T13:09:22Z</time></trkpt><trkpt lat="51.0944906468179" lon="17.16429420463586"><ele>118.0</ele><time>2026-05-03T13:09:23Z</time></trkpt><trkpt lat="51.09456316703667" lon="17.164374463869155"><ele>118.00000000000001</ele><time>2026-05-03T13:09:24Z</time></trkpt><trkpt lat="51.09463466423218" lon="17.16445397324558"><ele>118.0</ele><time>2026-05-03T13:09:25Z</time></trkpt><trkpt lat="51.09470777973334" lon="17.164534124333596"><ele>118.0</ele><time>2026-05-03T13:09:26Z</time></trkpt><trkpt lat="51.09477982766404" lon="17.164615287210673"><ele>118.0</ele><time>2026-05-03T13:09:27Z</time></trkpt><trkpt lat="51.09485057472511" lon="17.164696424049648"><ele>118.00000000000001</ele><time>2026-05-03T13:09:28Z</time></trkpt><trkpt lat="51.094919766074746" lon="17.16477832862265"><ele>118.0</ele><time>2026-05-03T13:09:29Z</time></trkpt><trkpt lat="51.09498708274689" lon="17.16486196946554"><ele>118.16666666666667</ele><time>2026-05-03T13:09:30Z</time></trkpt><trkpt lat="51.095053571009494" lon="17.164948595015183"><ele>118.33333333333334</ele><time>2026-05-03T13:09:31Z</time></trkpt><trkpt lat="51.09512063608546" lon="17.165030000909432"><ele>118.5</ele><time>2026-05-03T13:09:32Z</time></trkpt><trkpt lat="51.095185753821376" lon="17.16510368656636"><ele>118.66666666666666</ele><time>2026-05-03T13:09:33Z</time></trkpt><trkpt lat="51.09524523769908" lon="17.16517863558039"><ele>118.83333333333333</ele><time>2026-05-03T13:09:34Z</time></trkpt><trkpt lat="51.09529074132337" lon="17.165252031238488"><ele>119.0</ele><time>2026-05-03T13:09:35Z</time></trkpt><trkpt lat="51.09534851784946" lon="17.16538424804221"><ele>119.0</ele><time>2026-05-03T13:09:37Z</time></trkpt><trkpt lat="51.09541737808035" lon="17.16526180861702"><ele>119.0</ele><time>2026-05-03T13:09:39Z</time></trkpt><trkpt lat="51.09554166087503" lon="17.165285661685502"><ele>119.0</ele><time>2026-05-03T13:09:40Z</time></trkpt><trkpt lat="51.095651594616655" lon="17.165363228524456"><ele>119.0</ele><time>2026-05-03T13:09:42Z</time></trkpt><trkpt lat="51.09575724465069" lon="17.165424422317688"><ele>118.6</ele><time>2026-05-03T13:09:44Z</time></trkpt><trkpt lat="51.095869653272324" lon="17.16547452626371"><ele>118.2</ele><time>2026-05-03T13:09:46Z</time></trkpt><trkpt lat="51.09597868383968" lon="17.165521138187877"><ele>117.79999999999998</ele><time>2026-05-03T13:09:48Z</time></trkpt><trkpt lat="51.09608716883525" lon="17.165564797664743"><ele>117.39999999999999</ele><time>2026-05-03T13:09:50Z</time></trkpt><trkpt lat="51.09618036116431" lon="17.165603919599803"><ele>117.0</ele><time>2026-05-03T13:09:52Z</time></trkpt><trkpt lat="51.09622859637489" lon="17.16538659270245"><ele>117.0</ele><time>2026-05-03T13:09:58.001Z</time></trkpt><trkpt lat="51.09626733998854" lon="17.165271074906354"><ele>117.0</ele><time>2026-05-03T13:10:00.001Z</time></trkpt><trkpt lat="51.096333514416095" lon="17.16521563908739"><ele>117.0</ele><time>2026-05-03T13:10:02.001Z</time></trkpt><trkpt lat="51.09641505573526" lon="17.165175610598187"><ele>117.0</ele><time>2026-05-03T13:10:04.001Z</time></trkpt><trkpt lat="51.096479461835344" lon="17.165100903884454"><ele>117.0</ele><time>2026-05-03T13:10:06.001Z</time></trkpt><trkpt lat="51.096543837612124" lon="17.165085328262464"><ele>117.0</ele><time>2026-05-03T13:10:08.001Z</time></trkpt><trkpt lat="51.09661367308041" lon="17.165100639459393"><ele>117.16666666666667</ele><time>2026-05-03T13:10:10.001Z</time></trkpt><trkpt lat="51.096642175612615" lon="17.164984411876016"><ele>117.33333333333334</ele><time>2026-05-03T13:10:12.001Z</time></trkpt><trkpt lat="51.096653815018456" lon="17.16484016905533"><ele>117.5</ele><time>2026-05-03T13:10:14.001Z</time></trkpt><trkpt lat="51.09669269965857" lon="17.16470901752208"><ele>117.66666666666667</ele><time>2026-05-03T13:10:16.001Z</time></trkpt><trkpt lat="51.09674216953543" lon="17.164596347187253"><ele>117.83333333333334</ele><time>2026-05-03T13:10:18.001Z</time></trkpt><trkpt lat="51.09679362680234" lon="17.16450607036547"><ele>118.0</ele><time>2026-05-03T13:10:20.001Z</time></trkpt><trkpt lat="51.09684351226759" lon="17.164432697098455"><ele>118.14285714285714</ele><time>2026-05-03T13:10:22.001Z</time></trkpt><trkpt lat="51.09690877022344" lon="17.16436010397582"><ele>118.28571428571429</ele><time>2026-05-03T13:10:50.001Z</time></trkpt><trkpt lat="51.096966548469396" lon="17.164281165581393"><ele>118.42857142857143</ele><time>2026-05-03T13:10:53.001Z</time></trkpt><trkpt lat="51.0970163742412" lon="17.16420928525193"><ele>118.57142857142857</ele><time>2026-05-03T13:10:56.001Z</time></trkpt><trkpt lat="51.09705969829825" lon="17.16413100837747"><ele>118.71428571428572</ele><time>2026-05-03T13:10:59.001Z</time></trkpt><trkpt lat="51.09711350971014" lon="17.16405320573518"><ele>118.85714285714286</ele><time>2026-05-03T13:11:03.001Z</time></trkpt><trkpt lat="51.09716632138763" lon="17.16396732236587"><ele>119.0</ele><time>2026-05-03T13:11:19Z</time></trkpt><trkpt lat="51.097204164525884" lon="17.163854156471388"><ele>119.0</ele><time>2026-05-03T13:11:22Z</time></trkpt><trkpt lat="51.09725278510486" lon="17.16374992128125"><ele>119.0</ele><time>2026-05-03T13:11:24Z</time></trkpt><trkpt lat="51.09732851041575" lon="17.163650312289132"><ele>119.0</ele><time>2026-05-03T13:11:26Z</time></trkpt><trkpt lat="51.09739876578952" lon="17.16353558387018"><ele>119.0</ele><time>2026-05-03T13:11:28Z</time></trkpt><trkpt lat="51.09748399588638" lon="17.163408241240603"><ele>119.0</ele><time>2026-05-03T13:11:30Z</time></trkpt><trkpt lat="51.09758010049433" lon="17.16327645125518"><ele>119.0</ele><time>2026-05-03T13:11:32Z</time></trkpt><trkpt lat="51.09762852172796" lon="17.16320322003376"><ele>119.0</ele><time>2026-05-03T13:11:33Z</time></trkpt><trkpt lat="51.09767753871666" lon="17.16312557878817"><ele>119.0</ele><time>2026-05-03T13:11:34Z</time></trkpt><trkpt lat="51.09772711466416" lon="17.1630480566984"><ele>119.0</ele><time>2026-05-03T13:11:35Z</time></trkpt><trkpt lat="51.097777639538954" lon="17.16297151473072"><ele>119.0</ele><time>2026-05-03T13:11:36Z</time></trkpt><trkpt lat="51.097831903657074" lon="17.162896461686042"><ele>119.0</ele><time>2026-05-03T13:11:37Z</time></trkpt><trkpt lat="51.097887618864256" lon="17.162817267657303"><ele>119.0</ele><time>2026-05-03T13:11:38Z</time></trkpt><trkpt lat="51.0979415191466" lon="17.162733890063045"><ele>118.99999999999999</ele><time>2026-05-03T13:11:39Z</time></trkpt><trkpt lat="51.09799665953188" lon="17.16265110078969"><ele>119.0</ele><time>2026-05-03T13:11:40Z</time></trkpt><trkpt lat="51.09805313823224" lon="17.162567733742218"><ele>119.0</ele><time>2026-05-03T13:11:41Z</time></trkpt><trkpt lat="51.09811147572199" lon="17.16249042580276"><ele>119.0</ele><time>2026-05-03T13:11:42Z</time></trkpt><trkpt lat="51.098168802467505" lon="17.162409243922486"><ele>118.99999999999999</ele><time>2026-05-03T13:11:43Z</time></trkpt><trkpt lat="51.09822475887283" lon="17.162327614503702"><ele>119.0</ele><time>2026-05-03T13:11:44Z</time></trkpt><trkpt lat="51.098280238051174" lon="17.162242062794707"><ele>118.83333333333333</ele><time>2026-05-03T13:11:45.001Z</time></trkpt><trkpt lat="51.09833630393319" lon="17.162158216949617"><ele>118.66666666666666</ele><time>2026-05-03T13:11:46.001Z</time></trkpt><trkpt lat="51.09839236311883" lon="17.162073625956214"><ele>118.5</ele><time>2026-05-03T13:11:47.001Z</time></trkpt><trkpt lat="51.09845099516773" lon="17.16198984753138"><ele>118.33333333333334</ele><time>2026-05-03T13:11:48.001Z</time></trkpt><trkpt lat="51.09850692179381" lon="17.16190485295685"><ele>118.16666666666667</ele><time>2026-05-03T13:11:49.001Z</time></trkpt><trkpt lat="51.09856252909302" lon="17.161821717349785"><ele>118.0</ele><time>2026-05-03T13:11:50.001Z</time></trkpt><trkpt lat="51.09861857635316" lon="17.16173961514051"><ele>118.00000000000001</ele><time>2026-05-03T13:11:51.001Z</time></trkpt><trkpt lat="51.09867262395057" lon="17.161653862053655"><ele>118.0</ele><time>2026-05-03T13:11:52.001Z</time></trkpt><trkpt lat="51.09873012367195" lon="17.161571294432825"><ele>118.0</ele><time>2026-05-03T13:11:53.001Z</time></trkpt><trkpt lat="51.09879181542477" lon="17.16149258876848"><ele>118.0</ele><time>2026-05-03T13:11:54.001Z</time></trkpt><trkpt lat="51.098849406612324" lon="17.16140556247763"><ele>118.00000000000001</ele><time>2026-05-03T13:11:55.001Z</time></trkpt><trkpt lat="51.09890701947016" lon="17.161315094441488"><ele>118.0</ele><time>2026-05-03T13:11:56.001Z</time></trkpt><trkpt lat="51.09896547550203" lon="17.161222922037222"><ele>118.00000000000001</ele><time>2026-05-03T13:11:57.001Z</time></trkpt><trkpt lat="51.09902559606306" lon="17.16113200622526"><ele>118.0</ele><time>2026-05-03T13:11:58.001Z</time></trkpt><trkpt lat="51.099089186185495" lon="17.16104608550218"><ele>118.0</ele><time>2026-05-03T13:11:59.001Z</time></trkpt><trkpt lat="51.099148629327445" lon="17.16095578111512"><ele>118.0</ele><time>2026-05-03T13:12:00.001Z</time></trkpt><trkpt lat="51.09920834420521" lon="17.16086338258952"><ele>118.00000000000001</ele><time>2026-05-03T13:12:01.001Z</time></trkpt><trkpt lat="51.0992687125638" lon="17.160770899183646"><ele>118.0</ele><time>2026-05-03T13:12:02.001Z</time></trkpt><trkpt lat="51.099331567772374" lon="17.16068272488973"><ele>117.83333333333334</ele><time>2026-05-03T13:12:03.001Z</time></trkpt><trkpt lat="51.09939425840064" lon="17.160591764489833"><ele>117.66666666666667</ele><time>2026-05-03T13:12:04.001Z</time></trkpt><trkpt lat="51.09945465967513" lon="17.160498564520758"><ele>117.5</ele><time>2026-05-03T13:12:05.001Z</time></trkpt><trkpt lat="51.099515565583964" lon="17.160404225355208"><ele>117.33333333333334</ele><time>2026-05-03T13:12:06.001Z</time></trkpt><trkpt lat="51.09957741833739" lon="17.16031058650122"><ele>117.16666666666667</ele><time>2026-05-03T13:12:07.001Z</time></trkpt><trkpt lat="51.099641675446435" lon="17.16021669722859"><ele>117.0</ele><time>2026-05-03T13:12:08.001Z</time></trkpt><trkpt lat="51.09970967594288" lon="17.16012822927916"><ele>117.0</ele><time>2026-05-03T13:12:09.001Z</time></trkpt><trkpt lat="51.09977434410115" lon="17.160036739347095"><ele>117.0</ele><time>2026-05-03T13:12:10.001Z</time></trkpt><trkpt lat="51.09983516883181" lon="17.15993950609736"><ele>117.0</ele><time>2026-05-03T13:12:11.001Z</time></trkpt><trkpt lat="51.09989802807264" lon="17.159841302124274"><ele>117.0</ele><time>2026-05-03T13:12:12.001Z</time></trkpt><trkpt lat="51.09995903420627" lon="17.159745066219397"><ele>117.0</ele><time>2026-05-03T13:12:13.001Z</time></trkpt><trkpt lat="51.10002224422061" lon="17.159654358440303"><ele>117.0</ele><time>2026-05-03T13:12:14.001Z</time></trkpt><trkpt lat="51.100086953742014" lon="17.15956351202691"><ele>117.0</ele><time>2026-05-03T13:12:15.001Z</time></trkpt><trkpt lat="51.10014983469502" lon="17.159469643590594"><ele>117.0</ele><time>2026-05-03T13:12:16.001Z</time></trkpt><trkpt lat="51.10021398476914" lon="17.15937528252391"><ele>117.0</ele><time>2026-05-03T13:12:17.001Z</time></trkpt><trkpt lat="51.10027627516745" lon="17.159281118967385"><ele>117.0</ele><time>2026-05-03T13:12:18.001Z</time></trkpt><trkpt lat="51.100338214181505" lon="17.159188729433666"><ele>117.0</ele><time>2026-05-03T13:12:19.001Z</time></trkpt><trkpt lat="51.100402063328964" lon="17.159094805955007"><ele>117.0</ele><time>2026-05-03T13:12:20.001Z</time></trkpt><trkpt lat="51.10046436489475" lon="17.158999813970055"><ele>117.16666666666667</ele><time>2026-05-03T13:12:21.001Z</time></trkpt><trkpt lat="51.100529478250124" lon="17.158906640042197"><ele>117.33333333333334</ele><time>2026-05-03T13:12:22.001Z</time></trkpt><trkpt lat="51.10059633134613" lon="17.158811919725917"><ele>117.5</ele><time>2026-05-03T13:12:23.001Z</time></trkpt><trkpt lat="51.10065965273374" lon="17.15871832693802"><ele>117.66666666666667</ele><time>2026-05-03T13:12:24.001Z</time></trkpt><trkpt lat="51.1007244397436" lon="17.15862216593819"><ele>117.83333333333334</ele><time>2026-05-03T13:12:25.001Z</time></trkpt><trkpt lat="51.10078690806754" lon="17.158523672162442"><ele>118.0</ele><time>2026-05-03T13:12:26.001Z</time></trkpt><trkpt lat="51.10085350236507" lon="17.15842568153594"><ele>118.0</ele><time>2026-05-03T13:12:27.001Z</time></trkpt><trkpt lat="51.10092022183642" lon="17.158328915017833"><ele>118.00000000000001</ele><time>2026-05-03T13:12:28.001Z</time></trkpt><trkpt lat="51.10098694042667" lon="17.158230655662084"><ele>118.00000000000001</ele><time>2026-05-03T13:12:29.001Z</time></trkpt><trkpt lat="51.101053505852136" lon="17.15812995393947"><ele>118.0</ele><time>2026-05-03T13:12:30.001Z</time></trkpt><trkpt lat="51.10111984012029" lon="17.158032535765653"><ele>118.0</ele><time>2026-05-03T13:12:31.001Z</time></trkpt><trkpt lat="51.101186932545076" lon="17.157936077697777"><ele>118.0</ele><time>2026-05-03T13:12:32.001Z</time></trkpt><trkpt lat="51.101253091893696" lon="17.157838602611584"><ele>118.00000000000001</ele><time>2026-05-03T13:12:33.001Z</time></trkpt><trkpt lat="51.10132154270749" lon="17.157741988508615"><ele>118.00000000000001</ele><time>2026-05-03T13:12:34.001Z</time></trkpt><trkpt lat="51.101387785453944" lon="17.157646706169107"><ele>118.0</ele><time>2026-05-03T13:12:35.001Z</time></trkpt><trkpt lat="51.10145369253589" lon="17.15754092700776"><ele>118.0</ele><time>2026-05-03T13:12:36.001Z</time></trkpt><trkpt lat="51.1015202280421" lon="17.157437703828517"><ele>117.60000000000001</ele><time>2026-05-03T13:12:37.001Z</time></trkpt><trkpt lat="51.10158949620674" lon="17.157340076022173"><ele>117.20000000000002</ele><time>2026-05-03T13:12:38.001Z</time></trkpt><trkpt lat="51.10165789939979" lon="17.157242261380134"><ele>116.8</ele><time>2026-05-03T13:12:39.001Z</time></trkpt><trkpt lat="51.10172715050761" lon="17.15714725852562"><ele>116.4</ele><time>2026-05-03T13:12:40.001Z</time></trkpt><trkpt lat="51.10179523500772" lon="17.157047609921666"><ele>116.0</ele><time>2026-05-03T13:12:41.001Z</time></trkpt><trkpt lat="51.10186503673994" lon="17.15695084616444"><ele>116.0</ele><time>2026-05-03T13:12:42.001Z</time></trkpt><trkpt lat="51.10193442747844" lon="17.15685398679887"><ele>116.0</ele><time>2026-05-03T13:12:43.001Z</time></trkpt><trkpt lat="51.102003075064914" lon="17.156755261938752"><ele>116.0</ele><time>2026-05-03T13:12:44.001Z</time></trkpt><trkpt lat="51.10207143182101" lon="17.156654951288065"><ele>116.0</ele><time>2026-05-03T13:12:45.001Z</time></trkpt><trkpt lat="51.10213961735809" lon="17.15655224153517"><ele>116.0</ele><time>2026-05-03T13:12:46.001Z</time></trkpt><trkpt lat="51.10220714573447" lon="17.156448671480096"><ele>116.19999999999999</ele><time>2026-05-03T13:12:47.001Z</time></trkpt><trkpt lat="51.102273980834724" lon="17.156348402318145"><ele>116.39999999999999</ele><time>2026-05-03T13:12:48.001Z</time></trkpt><trkpt lat="51.10234377802368" lon="17.15624918317119"><ele>116.6</ele><time>2026-05-03T13:12:49.001Z</time></trkpt><trkpt lat="51.10241152858343" lon="17.156152806751372"><ele>116.8</ele><time>2026-05-03T13:12:50.001Z</time></trkpt><trkpt lat="51.10247680119738" lon="17.156047974504887"><ele>117.0</ele><time>2026-05-03T13:12:51.001Z</time></trkpt><trkpt lat="51.102539654891984" lon="17.155940351465947"><ele>117.19999999999999</ele><time>2026-05-03T13:12:52.001Z</time></trkpt><trkpt lat="51.102604459593586" lon="17.155836787573456"><ele>117.39999999999999</ele><time>2026-05-03T13:12:53.001Z</time></trkpt><trkpt lat="51.10267160049545" lon="17.1557358820686"><ele>117.60000000000001</ele><time>2026-05-03T13:12:54.001Z</time></trkpt><trkpt lat="51.10274084900643" lon="17.155637735085296"><ele>117.80000000000001</ele><time>2026-05-03T13:12:55.001Z</time></trkpt><trkpt lat="51.10280923687297" lon="17.155536303996023"><ele>118.0</ele><time>2026-05-03T13:12:56.001Z</time></trkpt><trkpt lat="51.102876451523926" lon="17.155430731825767"><ele>118.0</ele><time>2026-05-03T13:12:57.001Z</time></trkpt><trkpt lat="51.1029440989861" lon="17.15532866574884"><ele>118.00000000000001</ele><time>2026-05-03T13:12:58.001Z</time></trkpt><trkpt lat="51.103010165034576" lon="17.15522120867252"><ele>118.00000000000001</ele><time>2026-05-03T13:12:59.001Z</time></trkpt><trkpt lat="51.10307628659225" lon="17.155112338249577"><ele>118.0</ele><time>2026-05-03T13:13:00.001Z</time></trkpt><trkpt lat="51.103139927427755" lon="17.155003932888352"><ele>118.0</ele><time>2026-05-03T13:13:01.001Z</time></trkpt><trkpt lat="51.10320300648261" lon="17.154893572152403"><ele>117.80000000000001</ele><time>2026-05-03T13:13:02.001Z</time></trkpt><trkpt lat="51.10326436061197" lon="17.15478099406877"><ele>117.60000000000001</ele><time>2026-05-03T13:13:03.001Z</time></trkpt><trkpt lat="51.103326928252024" lon="17.154668162299906"><ele>117.39999999999999</ele><time>2026-05-03T13:13:04.001Z</time></trkpt><trkpt lat="51.103389147443735" lon="17.1545486694636"><ele>117.19999999999999</ele><time>2026-05-03T13:13:05.001Z</time></trkpt><trkpt lat="51.10344895115861" lon="17.154438912131514"><ele>117.0</ele><time>2026-05-03T13:13:06.001Z</time></trkpt><trkpt lat="51.10350909135043" lon="17.154327058687628"><ele>117.0</ele><time>2026-05-03T13:13:07.001Z</time></trkpt><trkpt lat="51.10356918595496" lon="17.154214010798803"><ele>116.99999999999999</ele><time>2026-05-03T13:13:08.001Z</time></trkpt><trkpt lat="51.10362840410461" lon="17.154103580146757"><ele>116.99999999999999</ele><time>2026-05-03T13:13:09.001Z</time></trkpt><trkpt lat="51.10368689524311" lon="17.153992066474157"><ele>117.0</ele><time>2026-05-03T13:13:10.001Z</time></trkpt><trkpt lat="51.1037465595224" lon="17.153884778233053"><ele>117.0</ele><time>2026-05-03T13:13:11.001Z</time></trkpt><trkpt lat="51.10380537930882" lon="17.153778064953265"><ele>117.0</ele><time>2026-05-03T13:13:12.001Z</time></trkpt><trkpt lat="51.10386201368327" lon="17.15366774376757"><ele>117.0</ele><time>2026-05-03T13:13:13.001Z</time></trkpt><trkpt lat="51.10391336590048" lon="17.153553449033204"><ele>117.0</ele><time>2026-05-03T13:13:14.001Z</time></trkpt><trkpt lat="51.10396146250332" lon="17.153432001908413"><ele>117.0</ele><time>2026-05-03T13:13:15.001Z</time></trkpt><trkpt lat="51.104005498672734" lon="17.15330754654691"><ele>117.0</ele><time>2026-05-03T13:13:16.001Z</time></trkpt><trkpt lat="51.10403578377325" lon="17.15317650136007"><ele>117.0</ele><time>2026-05-03T13:13:17.001Z</time></trkpt><trkpt lat="51.1040661515346" lon="17.153042313010694"><ele>117.0</ele><time>2026-05-03T13:13:18.001Z</time></trkpt><trkpt lat="51.10408688681377" lon="17.152905365343038"><ele>117.0</ele><time>2026-05-03T13:13:19.001Z</time></trkpt><trkpt lat="51.104104958280864" lon="17.15276688066752"><ele>117.0</ele><time>2026-05-03T13:13:20.001Z</time></trkpt><trkpt lat="51.10411316248527" lon="17.152626334192163"><ele>117.0</ele><time>2026-05-03T13:13:21.001Z</time></trkpt><trkpt lat="51.10411191241475" lon="17.152488959876155"><ele>117.0</ele><time>2026-05-03T13:13:22.001Z</time></trkpt><trkpt lat="51.10410612383574" lon="17.152350679854898"><ele>117.0</ele><time>2026-05-03T13:13:23.001Z</time></trkpt><trkpt lat="51.10409955444952" lon="17.152207581872897"><ele>117.0</ele><time>2026-05-03T13:13:24.001Z</time></trkpt><trkpt lat="51.104087947404814" lon="17.15207746938076"><ele>117.0</ele><time>2026-05-03T13:13:25.001Z</time></trkpt><trkpt lat="51.104073013507985" lon="17.15194425425031"><ele>117.0</ele><time>2026-05-03T13:13:26.001Z</time></trkpt><trkpt lat="51.10406051887893" lon="17.15181871239669"><ele>117.0</ele><time>2026-05-03T13:13:27.001Z</time></trkpt><trkpt lat="51.104050361359825" lon="17.151688599992333"><ele>117.0</ele><time>2026-05-03T13:13:28.001Z</time></trkpt><trkpt lat="51.10403898368208" lon="17.151559937634314"><ele>117.0</ele><time>2026-05-03T13:13:29.001Z</time></trkpt><trkpt lat="51.10402647022356" lon="17.15143307133725"><ele>117.33333333333333</ele><time>2026-05-03T13:13:30.001Z</time></trkpt><trkpt lat="51.1040148945056" lon="17.15130552633476"><ele>117.66666666666666</ele><time>2026-05-03T13:13:31.001Z</time></trkpt><trkpt lat="51.10400317631254" lon="17.151179351900698"><ele>118.0</ele><time>2026-05-03T13:13:32.001Z</time></trkpt><trkpt lat="51.103994329347785" lon="17.151059484219285"><ele>118.33333333333333</ele><time>2026-05-03T13:13:33Z</time></trkpt><trkpt lat="51.1039856828287" lon="17.150934272794593"><ele>118.66666666666666</ele><time>2026-05-03T13:13:34Z</time></trkpt><trkpt lat="51.10397694178357" lon="17.150809488459366"><ele>119.0</ele><time>2026-05-03T13:13:35Z</time></trkpt><trkpt lat="51.10397122308802" lon="17.150684512580607"><ele>119.16666666666666</ele><time>2026-05-03T13:13:36Z</time></trkpt><trkpt lat="51.103968583234405" lon="17.15055785585441"><ele>119.33333333333333</ele><time>2026-05-03T13:13:37Z</time></trkpt><trkpt lat="51.103964098934036" lon="17.15043376753942"><ele>119.5</ele><time>2026-05-03T13:13:38Z</time></trkpt><trkpt lat="51.1039628631228" lon="17.150310340724797"><ele>119.66666666666666</ele><time>2026-05-03T13:13:39Z</time></trkpt><trkpt lat="51.10396546004091" lon="17.15018511780503"><ele>119.83333333333333</ele><time>2026-05-03T13:13:40Z</time></trkpt><trkpt lat="51.103969081193064" lon="17.15006514713315"><ele>120.0</ele><time>2026-05-03T13:13:41Z</time></trkpt><trkpt lat="51.103972042576736" lon="17.149939941927105"><ele>119.5</ele><time>2026-05-03T13:13:42Z</time></trkpt><trkpt lat="51.103976466023035" lon="17.149808839045388"><ele>119.0</ele><time>2026-05-03T13:13:43Z</time></trkpt><trkpt lat="51.10398058852486" lon="17.14968652267354"><ele>118.5</ele><time>2026-05-03T13:13:44Z</time></trkpt><trkpt lat="51.1039894984235" lon="17.149559529862675"><ele>118.0</ele><time>2026-05-03T13:13:45Z</time></trkpt><trkpt lat="51.103999147582066" lon="17.149433439125144"><ele>117.5</ele><time>2026-05-03T13:13:46.001Z</time></trkpt><trkpt lat="51.10400954554769" lon="17.14930859477816"><ele>117.0</ele><time>2026-05-03T13:13:47Z</time></trkpt><trkpt lat="51.10402089195888" lon="17.149181833162363"><ele>117.0</ele><time>2026-05-03T13:13:48.001Z</time></trkpt><trkpt lat="51.104034543695406" lon="17.14905436951595"><ele>117.0</ele><time>2026-05-03T13:13:49.001Z</time></trkpt><trkpt lat="51.104050385157585" lon="17.148928828126483"><ele>117.0</ele><time>2026-05-03T13:13:50.001Z</time></trkpt><trkpt lat="51.10406700801934" lon="17.14879770350612"><ele>117.0</ele><time>2026-05-03T13:13:51.001Z</time></trkpt><trkpt lat="51.104086361810985" lon="17.148667879623343"><ele>117.0</ele><time>2026-05-03T13:13:52.001Z</time></trkpt><trkpt lat="51.1041048667476" lon="17.148542866108134"><ele>117.0</ele><time>2026-05-03T13:13:53.001Z</time></trkpt><trkpt lat="51.1041255975321" lon="17.148407623614116"><ele>117.16666666666667</ele><time>2026-05-03T13:13:54.001Z</time></trkpt><trkpt lat="51.104145252410234" lon="17.14827987585335"><ele>117.33333333333334</ele><time>2026-05-03T13:13:55.001Z</time></trkpt><trkpt lat="51.10417012027281" lon="17.14815038499837"><ele>117.5</ele><time>2026-05-03T13:13:56.001Z</time></trkpt><trkpt lat="51.10419792283239" lon="17.14802115968707"><ele>117.66666666666667</ele><time>2026-05-03T13:13:57.001Z</time></trkpt><trkpt lat="51.10422786980341" lon="17.14789672381619"><ele>117.83333333333334</ele><time>2026-05-03T13:13:58.001Z</time></trkpt><trkpt lat="51.10425968015501" lon="17.14776715872814"><ele>118.0</ele><time>2026-05-03T13:13:59.001Z</time></trkpt><trkpt lat="51.10429665109871" lon="17.147645403656647"><ele>118.00000000000001</ele><time>2026-05-03T13:14:00.001Z</time></trkpt><trkpt lat="51.10433620093556" lon="17.14752474249612"><ele>118.0</ele><time>2026-05-03T13:14:01.001Z</time></trkpt><trkpt lat="51.10438021167075" lon="17.14740594222962"><ele>118.0</ele><time>2026-05-03T13:14:02.001Z</time></trkpt><trkpt lat="51.104426811530956" lon="17.147291684803527"><ele>118.0</ele><time>2026-05-03T13:14:03.001Z</time></trkpt><trkpt lat="51.104476142058566" lon="17.147178120503348"><ele>118.00000000000001</ele><time>2026-05-03T13:14:04.001Z</time></trkpt><trkpt lat="51.104526142498564" lon="17.14706902967555"><ele>118.0</ele><time>2026-05-03T13:14:05.001Z</time></trkpt><trkpt lat="51.1045786565767" lon="17.14696205463327"><ele>118.16666666666667</ele><time>2026-05-03T13:14:06.001Z</time></trkpt><trkpt lat="51.104632845096425" lon="17.146861324120383"><ele>118.33333333333334</ele><time>2026-05-03T13:14:07.001Z</time></trkpt><trkpt lat="51.10468716328011" lon="17.14675590781247"><ele>118.5</ele><time>2026-05-03T13:14:08.001Z</time></trkpt><trkpt lat="51.1047423199341" lon="17.146648517820303"><ele>118.66666666666666</ele><time>2026-05-03T13:14:09.001Z</time></trkpt><trkpt lat="51.10479292588426" lon="17.14654639989534"><ele>118.83333333333333</ele><time>2026-05-03T13:14:10.001Z</time></trkpt><trkpt lat="51.104846126699854" lon="17.146440677157564"><ele>119.0</ele><time>2026-05-03T13:14:11.001Z</time></trkpt><trkpt lat="51.10489829675124" lon="17.146334921479905"><ele>118.83333333333333</ele><time>2026-05-03T13:14:12.001Z</time></trkpt><trkpt lat="51.104950445486786" lon="17.14623091283584"><ele>118.66666666666666</ele><time>2026-05-03T13:14:13.001Z</time></trkpt><trkpt lat="51.105004546845535" lon="17.14613050634471"><ele>118.5</ele><time>2026-05-03T13:14:14.001Z</time></trkpt><trkpt lat="51.1050578844569" lon="17.14602588800225"><ele>118.33333333333334</ele><time>2026-05-03T13:14:15.001Z</time></trkpt><trkpt lat="51.10511126417801" lon="17.1459201995207"><ele>118.16666666666667</ele><time>2026-05-03T13:14:16.001Z</time></trkpt><trkpt lat="51.105165994253724" lon="17.145813320032392"><ele>118.0</ele><time>2026-05-03T13:14:17.001Z</time></trkpt><trkpt lat="51.105220800889796" lon="17.145713222111578"><ele>118.16666666666667</ele><time>2026-05-03T13:14:18.001Z</time></trkpt><trkpt lat="51.10527530080895" lon="17.145603566646564"><ele>118.33333333333334</ele><time>2026-05-03T13:14:19.001Z</time></trkpt><trkpt lat="51.10532811205293" lon="17.145496189468243"><ele>118.5</ele><time>2026-05-03T13:14:20.001Z</time></trkpt><trkpt lat="51.10538000369881" lon="17.145401149713077"><ele>118.66666666666666</ele><time>2026-05-03T13:14:21.001Z</time></trkpt><trkpt lat="51.10543999219177" lon="17.14529140330119"><ele>118.83333333333333</ele><time>2026-05-03T13:14:22.001Z</time></trkpt><trkpt lat="51.10549648010646" lon="17.145186986515306"><ele>119.0</ele><time>2026-05-03T13:14:23.001Z</time></trkpt><trkpt lat="51.10555141856373" lon="17.14508337641887"><ele>118.99999999999999</ele><time>2026-05-03T13:14:24.001Z</time></trkpt><trkpt lat="51.105607099733234" lon="17.14498307264109"><ele>119.0</ele><time>2026-05-03T13:14:25.001Z</time></trkpt><trkpt lat="51.10566397185605" lon="17.144881408225494"><ele>119.0</ele><time>2026-05-03T13:14:26.001Z</time></trkpt><trkpt lat="51.10572107851883" lon="17.144775885936294"><ele>119.0</ele><time>2026-05-03T13:14:27.001Z</time></trkpt><trkpt lat="51.105779267009446" lon="17.144674399357605"><ele>118.99999999999999</ele><time>2026-05-03T13:14:28.001Z</time></trkpt><trkpt lat="51.10583618305541" lon="17.144572548949625"><ele>119.0</ele><time>2026-05-03T13:14:29.001Z</time></trkpt><trkpt lat="51.105893001209694" lon="17.144474169253062"><ele>118.66666666666666</ele><time>2026-05-03T13:14:30.001Z</time></trkpt><trkpt lat="51.1059524460614" lon="17.14437047019575"><ele>118.33333333333333</ele><time>2026-05-03T13:14:31.001Z</time></trkpt><trkpt lat="51.106011668733096" lon="17.1442774388229"><ele>118.0</ele><time>2026-05-03T13:14:32.001Z</time></trkpt><trkpt lat="51.10606641985157" lon="17.14418239212944"><ele>117.66666666666666</ele><time>2026-05-03T13:14:33.001Z</time></trkpt><trkpt lat="51.106122978312236" lon="17.144085978116333"><ele>117.33333333333333</ele><time>2026-05-03T13:14:34.001Z</time></trkpt><trkpt lat="51.10617625149269" lon="17.143995701394797"><ele>117.0</ele><time>2026-05-03T13:14:35.001Z</time></trkpt><trkpt lat="51.1062333710506" lon="17.143905884823134"><ele>116.83333333333333</ele><time>2026-05-03T13:14:36.001Z</time></trkpt><trkpt lat="51.10629229683189" lon="17.14381284749688"><ele>116.66666666666666</ele><time>2026-05-03T13:14:37.001Z</time></trkpt><trkpt lat="51.10635153821071" lon="17.14372187424291"><ele>116.5</ele><time>2026-05-03T13:14:38.001Z</time></trkpt><trkpt lat="51.10641108247186" lon="17.1436302411745"><ele>116.33333333333333</ele><time>2026-05-03T13:14:39.001Z</time></trkpt><trkpt lat="51.10646853910037" lon="17.143535805266943"><ele>116.16666666666666</ele><time>2026-05-03T13:14:40.001Z</time></trkpt><trkpt lat="51.10652958856413" lon="17.143439966095634"><ele>116.0</ele><time>2026-05-03T13:14:41.001Z</time></trkpt><trkpt lat="51.10659453876487" lon="17.143347242758626"><ele>116.16666666666666</ele><time>2026-05-03T13:14:42.001Z</time></trkpt><trkpt lat="51.10665791355532" lon="17.143255387271108"><ele>116.33333333333333</ele><time>2026-05-03T13:14:43.001Z</time></trkpt><trkpt lat="51.106721212859014" lon="17.143160800565393"><ele>116.5</ele><time>2026-05-03T13:14:44.001Z</time></trkpt><trkpt lat="51.10678364543245" lon="17.1430618852982"><ele>116.66666666666666</ele><time>2026-05-03T13:14:45.001Z</time></trkpt><trkpt lat="51.10684362217558" lon="17.142962179002915"><ele>116.83333333333333</ele><time>2026-05-03T13:14:46.001Z</time></trkpt><trkpt lat="51.10690492793001" lon="17.142864145700422"><ele>117.0</ele><time>2026-05-03T13:14:47.001Z</time></trkpt><trkpt lat="51.10696394673221" lon="17.142767875913723"><ele>117.0</ele><time>2026-05-03T13:14:48.001Z</time></trkpt><trkpt lat="51.10702922950754" lon="17.142677758064803"><ele>117.0</ele><time>2026-05-03T13:14:49.001Z</time></trkpt><trkpt lat="51.10709305473326" lon="17.14258845459454"><ele>117.0</ele><time>2026-05-03T13:14:50.001Z</time></trkpt><trkpt lat="51.10715415300959" lon="17.142495108717377"><ele>117.0</ele><time>2026-05-03T13:14:51.001Z</time></trkpt><trkpt lat="51.10721516366701" lon="17.142398535626437"><ele>117.0</ele><time>2026-05-03T13:14:52.001Z</time></trkpt><trkpt lat="51.10727300935617" lon="17.142297689088128"><ele>117.0</ele><time>2026-05-03T13:14:53.001Z</time></trkpt><trkpt lat="51.107335189367525" lon="17.142204826956178"><ele>117.0</ele><time>2026-05-03T13:14:54.001Z</time></trkpt><trkpt lat="51.1073969866676" lon="17.142114576002687"><ele>117.0</ele><time>2026-05-03T13:14:55.001Z</time></trkpt><trkpt lat="51.10746070127903" lon="17.142020036485178"><ele>117.0</ele><time>2026-05-03T13:14:56.001Z</time></trkpt><trkpt lat="51.10752188907731" lon="17.14192484539251"><ele>117.0</ele><time>2026-05-03T13:14:57.001Z</time></trkpt><trkpt lat="51.1075816457087" lon="17.141830509052735"><ele>117.0</ele><time>2026-05-03T13:14:58.001Z</time></trkpt><trkpt lat="51.10764372182001" lon="17.141740130792385"><ele>117.0</ele><time>2026-05-03T13:14:59.001Z</time></trkpt><trkpt lat="51.10770183476287" lon="17.141651733753456"><ele>117.0</ele><time>2026-05-03T13:15:00.001Z</time></trkpt><trkpt lat="51.10776215917562" lon="17.141554491518033"><ele>117.0</ele><time>2026-05-03T13:15:01.001Z</time></trkpt><trkpt lat="51.107819194463616" lon="17.141464038102413"><ele>117.0</ele><time>2026-05-03T13:15:02.001Z</time></trkpt><trkpt lat="51.10787918564162" lon="17.141370611519804"><ele>117.0</ele><time>2026-05-03T13:15:03.001Z</time></trkpt><trkpt lat="51.107939306701574" lon="17.141276337935167"><ele>117.0</ele><time>2026-05-03T13:15:04.001Z</time></trkpt><trkpt lat="51.1079974285764" lon="17.14118776547441"><ele>117.0</ele><time>2026-05-03T13:15:05.001Z</time></trkpt><trkpt lat="51.10805271296004" lon="17.14110011663943"><ele>117.16666666666667</ele><time>2026-05-03T13:15:06.001Z</time></trkpt><trkpt lat="51.10810447835351" lon="17.14100969637288"><ele>117.33333333333334</ele><time>2026-05-03T13:15:07.001Z</time></trkpt><trkpt lat="51.108163583436" lon="17.14091228888623"><ele>117.5</ele><time>2026-05-03T13:15:08.001Z</time></trkpt><trkpt lat="51.10821864692746" lon="17.140818549633572"><ele>117.66666666666667</ele><time>2026-05-03T13:15:09.001Z</time></trkpt><trkpt lat="51.10827402630345" lon="17.14071921977046"><ele>117.83333333333334</ele><time>2026-05-03T13:15:10.001Z</time></trkpt><trkpt lat="51.108329877964394" lon="17.140624833760032"><ele>118.0</ele><time>2026-05-03T13:15:11.001Z</time></trkpt><trkpt lat="51.10838331153057" lon="17.140528965956992"><ele>118.00000000000001</ele><time>2026-05-03T13:15:12.001Z</time></trkpt><trkpt lat="51.10843758636866" lon="17.14043064724007"><ele>118.0</ele><time>2026-05-03T13:15:13.001Z</time></trkpt><trkpt lat="51.10849247251941" lon="17.1403325119564"><ele>118.0</ele><time>2026-05-03T13:15:14.001Z</time></trkpt><trkpt lat="51.10854485584882" lon="17.140227885673276"><ele>118.0</ele><time>2026-05-03T13:15:15.001Z</time></trkpt><trkpt lat="51.10859835609963" lon="17.140133281643884"><ele>118.00000000000001</ele><time>2026-05-03T13:15:16.001Z</time></trkpt><trkpt lat="51.10865161558783" lon="17.140028175522485"><ele>118.0</ele><time>2026-05-03T13:15:17.001Z</time></trkpt><trkpt lat="51.10870895903073" lon="17.139922654166654"><ele>118.00000000000001</ele><time>2026-05-03T13:15:18.001Z</time></trkpt><trkpt lat="51.108763241133666" lon="17.13982064896164"><ele>118.0</ele><time>2026-05-03T13:15:19.001Z</time></trkpt><trkpt lat="51.10881731593985" lon="17.139714687673408"><ele>118.0</ele><time>2026-05-03T13:15:20.001Z</time></trkpt><trkpt lat="51.10886984941857" lon="17.139613184432015"><ele>118.0</ele><time>2026-05-03T13:15:21.001Z</time></trkpt><trkpt lat="51.108922191157625" lon="17.13951710088652"><ele>118.00000000000001</ele><time>2026-05-03T13:15:22.001Z</time></trkpt><trkpt lat="51.10898359718316" lon="17.139410785445673"><ele>118.0</ele><time>2026-05-03T13:15:23.001Z</time></trkpt><trkpt lat="51.10903653515533" lon="17.139307048671366"><ele>118.00000000000001</ele><time>2026-05-03T13:15:24.001Z</time></trkpt><trkpt lat="51.1090903742898" lon="17.139205591780954"><ele>118.0</ele><time>2026-05-03T13:15:25.001Z</time></trkpt><trkpt lat="51.10914271696125" lon="17.139098147381326"><ele>118.0</ele><time>2026-05-03T13:15:26.001Z</time></trkpt><trkpt lat="51.10919597509912" lon="17.138995234035793"><ele>118.0</ele><time>2026-05-03T13:15:27.001Z</time></trkpt><trkpt lat="51.10925056748774" lon="17.13889335782232"><ele>118.00000000000001</ele><time>2026-05-03T13:15:28.001Z</time></trkpt><trkpt lat="51.10930613387258" lon="17.138790225613644"><ele>118.0</ele><time>2026-05-03T13:15:29.001Z</time></trkpt><trkpt lat="51.10935984327485" lon="17.138686915390792"><ele>117.83333333333334</ele><time>2026-05-03T13:15:30.001Z</time></trkpt><trkpt lat="51.109415550628505" lon="17.138581579708156"><ele>117.66666666666667</ele><time>2026-05-03T13:15:31.001Z</time></trkpt><trkpt lat="51.10947156622595" lon="17.13847830338473"><ele>117.5</ele><time>2026-05-03T13:15:32.001Z</time></trkpt><trkpt lat="51.10952931821388" lon="17.138374928604247"><ele>117.33333333333334</ele><time>2026-05-03T13:15:33.001Z</time></trkpt><trkpt lat="51.10958607514409" lon="17.138271301033164"><ele>117.16666666666667</ele><time>2026-05-03T13:15:34.001Z</time></trkpt><trkpt lat="51.109641181226344" lon="17.138165182150253"><ele>117.0</ele><time>2026-05-03T13:15:35.001Z</time></trkpt><trkpt lat="51.10969502024834" lon="17.138059556032605"><ele>116.83333333333333</ele><time>2026-05-03T13:15:36.001Z</time></trkpt><trkpt lat="51.1097514598873" lon="17.137951473096944"><ele>116.66666666666666</ele><time>2026-05-03T13:15:37.001Z</time></trkpt><trkpt lat="51.10980856091591" lon="17.13784953417386"><ele>116.5</ele><time>2026-05-03T13:15:38.001Z</time></trkpt><trkpt lat="51.10986733918885" lon="17.1377509599852"><ele>116.33333333333333</ele><time>2026-05-03T13:15:39.001Z</time></trkpt><trkpt lat="51.10992887026382" lon="17.137654092842013"><ele>116.16666666666666</ele><time>2026-05-03T13:15:40.001Z</time></trkpt><trkpt lat="51.109992199609415" lon="17.137568210790047"><ele>116.0</ele><time>2026-05-03T13:15:41.001Z</time></trkpt><trkpt lat="51.110061077397205" lon="17.137480085210203"><ele>115.99999999999999</ele><time>2026-05-03T13:15:42.001Z</time></trkpt><trkpt lat="51.1101278360208" lon="17.13739803428418"><ele>116.0</ele><time>2026-05-03T13:15:43.001Z</time></trkpt><trkpt lat="51.11019703985909" lon="17.137323574216897"><ele>116.0</ele><time>2026-05-03T13:15:44.001Z</time></trkpt><trkpt lat="51.11027116926924" lon="17.13725234997069"><ele>116.0</ele><time>2026-05-03T13:15:45.001Z</time></trkpt><trkpt lat="51.110347194193025" lon="17.137186335327165"><ele>115.99999999999999</ele><time>2026-05-03T13:15:46.001Z</time></trkpt><trkpt lat="51.1104259194535" lon="17.137132023005222"><ele>116.0</ele><time>2026-05-03T13:15:47.001Z</time></trkpt><trkpt lat="51.11050672795768" lon="17.13708662421304"><ele>115.99999999999999</ele><time>2026-05-03T13:15:48.001Z</time></trkpt><trkpt lat="51.1105864214177" lon="17.137036577481066"><ele>116.0</ele><time>2026-05-03T13:15:49.001Z</time></trkpt><trkpt lat="51.11066767964006" lon="17.13698758955043"><ele>116.0</ele><time>2026-05-03T13:15:50.001Z</time></trkpt><trkpt lat="51.11075060880535" lon="17.136946260219847"><ele>116.0</ele><time>2026-05-03T13:15:51.001Z</time></trkpt><trkpt lat="51.11083534043741" lon="17.136908564274815"><ele>115.99999999999999</ele><time>2026-05-03T13:15:52.001Z</time></trkpt><trkpt lat="51.110919581024156" lon="17.136869885672183"><ele>116.0</ele><time>2026-05-03T13:15:53.001Z</time></trkpt><trkpt lat="51.11100305435846" lon="17.1368282279079"><ele>116.33333333333333</ele><time>2026-05-03T13:15:54.001Z</time></trkpt><trkpt lat="51.11108612834054" lon="17.136785193808905"><ele>116.66666666666666</ele><time>2026-05-03T13:15:55.001Z</time></trkpt><trkpt lat="51.11117066794725" lon="17.136743751758463"><ele>117.0</ele><time>2026-05-03T13:15:56.001Z</time></trkpt><trkpt lat="51.11125255629149" lon="17.136699928776444"><ele>117.33333333333334</ele><time>2026-05-03T13:15:57.001Z</time></trkpt><trkpt lat="51.11133702345983" lon="17.13665805802081"><ele>117.66666666666667</ele><time>2026-05-03T13:15:58.001Z</time></trkpt><trkpt lat="51.111421952451835" lon="17.136618340480897"><ele>118.0</ele><time>2026-05-03T13:15:59.001Z</time></trkpt><trkpt lat="51.11150540678192" lon="17.13657641057964"><ele>117.80000000000001</ele><time>2026-05-03T13:16:00.001Z</time></trkpt><trkpt lat="51.1115932812249" lon="17.136539022049153"><ele>117.60000000000001</ele><time>2026-05-03T13:16:01.001Z</time></trkpt><trkpt lat="51.111676396796746" lon="17.136492682194017"><ele>117.39999999999999</ele><time>2026-05-03T13:16:02.001Z</time></trkpt><trkpt lat="51.111761796429086" lon="17.136449005196084"><ele>117.19999999999999</ele><time>2026-05-03T13:16:03.001Z</time></trkpt><trkpt lat="51.11185046232419" lon="17.1364086218689"><ele>117.0</ele><time>2026-05-03T13:16:04.001Z</time></trkpt><trkpt lat="51.111936265351716" lon="17.13636539236208"><ele>117.0</ele><time>2026-05-03T13:16:05.001Z</time></trkpt><trkpt lat="51.11202036132603" lon="17.136322853317793"><ele>117.0</ele><time>2026-05-03T13:16:06.001Z</time></trkpt><trkpt lat="51.11210516046168" lon="17.13627833586403"><ele>117.0</ele><time>2026-05-03T13:16:07.001Z</time></trkpt><trkpt lat="51.112188749477724" lon="17.13623659102931"><ele>117.0</ele><time>2026-05-03T13:16:08.001Z</time></trkpt><trkpt lat="51.11227279230413" lon="17.136195628246412"><ele>117.0</ele><time>2026-05-03T13:16:09.001Z</time></trkpt><trkpt lat="51.112356435388165" lon="17.136154894457363"><ele>117.0</ele><time>2026-05-03T13:16:10.001Z</time></trkpt><trkpt lat="51.112436829853884" lon="17.136111445519536"><ele>117.0</ele><time>2026-05-03T13:16:11.001Z</time></trkpt><trkpt lat="51.112514722918064" lon="17.136069249797487"><ele>117.0</ele><time>2026-05-03T13:16:12.001Z</time></trkpt><trkpt lat="51.11259218326067" lon="17.13603507954887"><ele>117.0</ele><time>2026-05-03T13:16:13.001Z</time></trkpt><trkpt lat="51.11266798073542" lon="17.136009011573325"><ele>117.0</ele><time>2026-05-03T13:16:14.001Z</time></trkpt><trkpt lat="51.112743743278294" lon="17.13597412503655"><ele>117.0</ele><time>2026-05-03T13:16:15.001Z</time></trkpt><trkpt lat="51.11280769450339" lon="17.13593798501361"><ele>117.0</ele><time>2026-05-03T13:16:16.001Z</time></trkpt><trkpt lat="51.11292012420962" lon="17.13587221531464"><ele>117.0</ele><time>2026-05-03T13:16:18.001Z</time></trkpt><trkpt lat="51.11304306857155" lon="17.135809491280817"><ele>117.0</ele><time>2026-05-03T13:16:20.001Z</time></trkpt><trkpt lat="51.113108038574566" lon="17.13576868179669"><ele>117.0</ele><time>2026-05-03T13:16:21.001Z</time></trkpt><trkpt lat="51.113167331157996" lon="17.135707405780412"><ele>117.0</ele><time>2026-05-03T13:16:22.001Z</time></trkpt><trkpt lat="51.11322359590039" lon="17.135637473026147"><ele>117.0</ele><time>2026-05-03T13:16:23.001Z</time></trkpt><trkpt lat="51.113275704713104" lon="17.135565481315282"><ele>117.0</ele><time>2026-05-03T13:16:24.001Z</time></trkpt><trkpt lat="51.11332670842602" lon="17.135494342496862"><ele>117.0</ele><time>2026-05-03T13:16:25.001Z</time></trkpt><trkpt lat="51.1133727894471" lon="17.135414585234734"><ele>117.0</ele><time>2026-05-03T13:16:26.001Z</time></trkpt><trkpt lat="51.1134162303346" lon="17.135330466831324"><ele>117.0</ele><time>2026-05-03T13:16:27.001Z</time></trkpt><trkpt lat="51.11345902799741" lon="17.13524185709105"><ele>117.0</ele><time>2026-05-03T13:16:28.001Z</time></trkpt><trkpt lat="51.11348769878537" lon="17.13514706389563"><ele>117.0</ele><time>2026-05-03T13:16:29.001Z</time></trkpt><trkpt lat="51.11350905624398" lon="17.135048717248587"><ele>117.0</ele><time>2026-05-03T13:16:30.001Z</time></trkpt><trkpt lat="51.11348934205443" lon="17.13484758354284"><ele>117.0</ele><time>2026-05-03T13:16:32.001Z</time></trkpt><trkpt lat="51.11347611916025" lon="17.13473955347997"><ele>117.00000000000001</ele><time>2026-05-03T13:16:33.001Z</time></trkpt><trkpt lat="51.113460884641015" lon="17.13463552046388"><ele>117.0</ele><time>2026-05-03T13:16:34.001Z</time></trkpt><trkpt lat="51.113445686662395" lon="17.134533762323738"><ele>117.0</ele><time>2026-05-03T13:16:35.001Z</time></trkpt><trkpt lat="51.11343135723754" lon="17.134433922603154"><ele>117.00000000000001</ele><time>2026-05-03T13:16:36.001Z</time></trkpt><trkpt lat="51.113417643059364" lon="17.134332039378922"><ele>117.0</ele><time>2026-05-03T13:16:37.001Z</time></trkpt><trkpt lat="51.11340268495734" lon="17.134231168461902"><ele>117.0</ele><time>2026-05-03T13:16:38.001Z</time></trkpt><trkpt lat="51.113388241016466" lon="17.134128855418112"><ele>117.14285714285715</ele><time>2026-05-03T13:16:39.001Z</time></trkpt><trkpt lat="51.11337541406441" lon="17.13402532531709"><ele>117.2857142857143</ele><time>2026-05-03T13:16:40.001Z</time></trkpt><trkpt lat="51.113362491127916" lon="17.13392277383744"><ele>117.42857142857143</ele><time>2026-05-03T13:16:41.001Z</time></trkpt><trkpt lat="51.11334846380247" lon="17.133818700141457"><ele>117.57142857142858</ele><time>2026-05-03T13:16:42.001Z</time></trkpt><trkpt lat="51.11333325334822" lon="17.133711255293125"><ele>117.71428571428572</ele><time>2026-05-03T13:16:43.001Z</time></trkpt><trkpt lat="51.11331725439376" lon="17.133606532769186"><ele>117.85714285714286</ele><time>2026-05-03T13:16:44.001Z</time></trkpt><trkpt lat="51.11330112016312" lon="17.133497859186168"><ele>118.0</ele><time>2026-05-03T13:16:45.001Z</time></trkpt><trkpt lat="51.11328513661586" lon="17.13338892209767"><ele>118.0</ele><time>2026-05-03T13:16:46.001Z</time></trkpt><trkpt lat="51.113268586763446" lon="17.133283212875746"><ele>118.0</ele><time>2026-05-03T13:16:47.001Z</time></trkpt><trkpt lat="51.113254703850316" lon="17.133173306169464"><ele>118.0</ele><time>2026-05-03T13:16:48.001Z</time></trkpt><trkpt lat="51.11324264225112" lon="17.133060503106947"><ele>118.0</ele><time>2026-05-03T13:16:49.001Z</time></trkpt><trkpt lat="51.11323753110669" lon="17.132948744775348"><ele>118.0</ele><time>2026-05-03T13:16:50.001Z</time></trkpt><trkpt lat="51.11323467343413" lon="17.132836556925806"><ele>118.0</ele><time>2026-05-03T13:16:51.001Z</time></trkpt><trkpt lat="51.11323523188177" lon="17.132724123863838"><ele>118.0</ele><time>2026-05-03T13:16:52.001Z</time></trkpt><trkpt lat="51.11324132069532" lon="17.132608234945938"><ele>117.83333333333334</ele><time>2026-05-03T13:16:53.001Z</time></trkpt><trkpt lat="51.113255439283854" lon="17.132490795805065"><ele>117.66666666666667</ele><time>2026-05-03T13:16:54.001Z</time></trkpt><trkpt lat="51.11327595079207" lon="17.132372652166154"><ele>117.5</ele><time>2026-05-03T13:16:55.001Z</time></trkpt><trkpt lat="51.11330346966687" lon="17.132252704412974"><ele>117.33333333333334</ele><time>2026-05-03T13:16:56.001Z</time></trkpt><trkpt lat="51.11333562680523" lon="17.13213154184119"><ele>117.16666666666667</ele><time>2026-05-03T13:16:57.001Z</time></trkpt><trkpt lat="51.11337082192543" lon="17.13201411300217"><ele>117.0</ele><time>2026-05-03T13:16:58.001Z</time></trkpt><trkpt lat="51.11341187081003" lon="17.131900179495418"><ele>116.83333333333333</ele><time>2026-05-03T13:16:59.001Z</time></trkpt><trkpt lat="51.11346080486908" lon="17.13179184056608"><ele>116.66666666666666</ele><time>2026-05-03T13:17:00.001Z</time></trkpt><trkpt lat="51.113516018173726" lon="17.131689859587798"><ele>116.5</ele><time>2026-05-03T13:17:01.001Z</time></trkpt><trkpt lat="51.11357758427686" lon="17.13159456235559"><ele>116.33333333333333</ele><time>2026-05-03T13:17:02.001Z</time></trkpt><trkpt lat="51.11364063881441" lon="17.131507855251446"><ele>116.16666666666666</ele><time>2026-05-03T13:17:03.001Z</time></trkpt><trkpt lat="51.113700911227966" lon="17.131420586206254"><ele>116.0</ele><time>2026-05-03T13:17:04.001Z</time></trkpt><trkpt lat="51.113765363321846" lon="17.131339433989933"><ele>115.99999999999999</ele><time>2026-05-03T13:17:05.001Z</time></trkpt><trkpt lat="51.11382799850475" lon="17.131260279254434"><ele>116.0</ele><time>2026-05-03T13:17:06.001Z</time></trkpt><trkpt lat="51.11388705181456" lon="17.131176108293054"><ele>116.0</ele><time>2026-05-03T13:17:07.001Z</time></trkpt><trkpt lat="51.11394921622166" lon="17.13109625215665"><ele>116.0</ele><time>2026-05-03T13:17:08.001Z</time></trkpt><trkpt lat="51.11401030679705" lon="17.13101438688359"><ele>115.99999999999999</ele><time>2026-05-03T13:17:09.001Z</time></trkpt><trkpt lat="51.114069247146546" lon="17.13093324657262"><ele>116.0</ele><time>2026-05-03T13:17:10.001Z</time></trkpt><trkpt lat="51.114125251727465" lon="17.1308511184196"><ele>116.00000000000001</ele><time>2026-05-03T13:17:11.001Z</time></trkpt><trkpt lat="51.11418126742001" lon="17.130772454599477"><ele>116.0</ele><time>2026-05-03T13:17:12.001Z</time></trkpt><trkpt lat="51.114237101827875" lon="17.130696865701204"><ele>116.00000000000001</ele><time>2026-05-03T13:17:13.001Z</time></trkpt><trkpt lat="51.114285083843434" lon="17.130626797798627"><ele>116.00000000000001</ele><time>2026-05-03T13:17:14.001Z</time></trkpt><trkpt lat="51.11434175129152" lon="17.130572008782888"><ele>116.0</ele><time>2026-05-03T13:17:15.001Z</time></trkpt><trkpt lat="51.11440489203761" lon="17.13055793205603"><ele>116.00000000000001</ele><time>2026-05-03T13:17:16.001Z</time></trkpt><trkpt lat="51.114468445655675" lon="17.13055262731328"><ele>116.00000000000001</ele><time>2026-05-03T13:17:17.001Z</time></trkpt><trkpt lat="51.11452644583064" lon="17.13050681832637"><ele>116.16666666666666</ele><time>2026-05-03T13:17:18.001Z</time></trkpt><trkpt lat="51.11457445396111" lon="17.130430314638893"><ele>116.33333333333333</ele><time>2026-05-03T13:17:19.001Z</time></trkpt><trkpt lat="51.114622853265566" lon="17.130347333883062"><ele>116.5</ele><time>2026-05-03T13:17:20.001Z</time></trkpt><trkpt lat="51.114681577348804" lon="17.130282269990854"><ele>116.66666666666666</ele><time>2026-05-03T13:17:21.001Z</time></trkpt><trkpt lat="51.11474576961069" lon="17.13021416309471"><ele>116.83333333333333</ele><time>2026-05-03T13:17:22.001Z</time></trkpt><trkpt lat="51.11480978315552" lon="17.13013524745808"><ele>117.0</ele><time>2026-05-03T13:17:23.001Z</time></trkpt><trkpt lat="51.11487390287755" lon="17.130051498955254"><ele>116.83333333333333</ele><time>2026-05-03T13:17:24.001Z</time></trkpt><trkpt lat="51.11493829958754" lon="17.129962694687645"><ele>116.66666666666666</ele><time>2026-05-03T13:17:25.001Z</time></trkpt><trkpt lat="51.11500327705432" lon="17.129871970780965"><ele>116.5</ele><time>2026-05-03T13:17:26.001Z</time></trkpt><trkpt lat="51.115068482238506" lon="17.12978116925195"><ele>116.33333333333333</ele><time>2026-05-03T13:17:27.001Z</time></trkpt><trkpt lat="51.115136464343685" lon="17.129691729758516"><ele>116.16666666666666</ele><time>2026-05-03T13:17:28.001Z</time></trkpt><trkpt lat="51.11520427201007" lon="17.12960245753751"><ele>116.0</ele><time>2026-05-03T13:17:29.001Z</time></trkpt><trkpt lat="51.11527157887526" lon="17.12951168350342"><ele>115.99999999999999</ele><time>2026-05-03T13:17:30.001Z</time></trkpt><trkpt lat="51.115338959212124" lon="17.129420766197192"><ele>116.0</ele><time>2026-05-03T13:17:31.001Z</time></trkpt><trkpt lat="51.115406658678275" lon="17.12932967516856"><ele>116.0</ele><time>2026-05-03T13:17:32.001Z</time></trkpt><trkpt lat="51.11547437079721" lon="17.12924146576066"><ele>116.0</ele><time>2026-05-03T13:17:33.001Z</time></trkpt><trkpt lat="51.11554335235652" lon="17.129151878824764"><ele>115.99999999999999</ele><time>2026-05-03T13:17:34.001Z</time></trkpt><trkpt lat="51.11561103976517" lon="17.129061083552468"><ele>116.0</ele><time>2026-05-03T13:17:35.001Z</time></trkpt><trkpt lat="51.11567897478399" lon="17.128969224184534"><ele>116.33333333333333</ele><time>2026-05-03T13:17:36.001Z</time></trkpt><trkpt lat="51.11574442181232" lon="17.12887361670915"><ele>116.66666666666666</ele><time>2026-05-03T13:17:37.001Z</time></trkpt><trkpt lat="51.11580872996862" lon="17.128778784540287"><ele>117.0</ele><time>2026-05-03T13:17:38.001Z</time></trkpt><trkpt lat="51.11586975435329" lon="17.128679027721205"><ele>117.33333333333334</ele><time>2026-05-03T13:17:39.001Z</time></trkpt><trkpt lat="51.11592867204316" lon="17.128578135282126"><ele>117.66666666666667</ele><time>2026-05-03T13:17:40.001Z</time></trkpt><trkpt lat="51.115983866011064" lon="17.128472550111994"><ele>118.0</ele><time>2026-05-03T13:17:41.001Z</time></trkpt><trkpt lat="51.116035559763716" lon="17.12836410406336"><ele>118.00000000000001</ele><time>2026-05-03T13:17:42.001Z</time></trkpt><trkpt lat="51.11608643906577" lon="17.12825961573369"><ele>118.0</ele><time>2026-05-03T13:17:43.001Z</time></trkpt><trkpt lat="51.116136940143164" lon="17.128157144842277"><ele>118.0</ele><time>2026-05-03T13:17:44.001Z</time></trkpt><trkpt lat="51.116183431575294" lon="17.128050900667688"><ele>118.0</ele><time>2026-05-03T13:17:45.001Z</time></trkpt><trkpt lat="51.116222401135616" lon="17.12793866686414"><ele>118.00000000000001</ele><time>2026-05-03T13:17:46.001Z</time></trkpt><trkpt lat="51.11626224796206" lon="17.1278319858028"><ele>118.0</ele><time>2026-05-03T13:17:47.001Z</time></trkpt><trkpt lat="51.11630330451665" lon="17.12772737064602"><ele>118.00000000000001</ele><time>2026-05-03T13:17:48.001Z</time></trkpt><trkpt lat="51.11634469343656" lon="17.127625573557115"><ele>118.0</ele><time>2026-05-03T13:17:49.001Z</time></trkpt><trkpt lat="51.11638744168709" lon="17.127522395173468"><ele>118.0</ele><time>2026-05-03T13:17:50.001Z</time></trkpt><trkpt lat="51.116429338168444" lon="17.127419142331583"><ele>118.0</ele><time>2026-05-03T13:17:51.001Z</time></trkpt><trkpt lat="51.11647030851389" lon="17.127316195690486"><ele>118.00000000000001</ele><time>2026-05-03T13:17:52.001Z</time></trkpt><trkpt lat="51.11650968519932" lon="17.12721205114249"><ele>118.0</ele><time>2026-05-03T13:17:53.001Z</time></trkpt><trkpt lat="51.116549001301735" lon="17.127108057420784"><ele>118.00000000000001</ele><time>2026-05-03T13:17:54.001Z</time></trkpt><trkpt lat="51.11659596599524" lon="17.127001824245983"><ele>118.0</ele><time>2026-05-03T13:17:55.001Z</time></trkpt><trkpt lat="51.11664443534487" lon="17.126891412581397"><ele>118.0</ele><time>2026-05-03T13:17:56.001Z</time></trkpt><trkpt lat="51.116690682958364" lon="17.126776652625832"><ele>118.0</ele><time>2026-05-03T13:17:57.001Z</time></trkpt><trkpt lat="51.11673722014796" lon="17.126654294170212"><ele>118.00000000000001</ele><time>2026-05-03T13:17:58.001Z</time></trkpt><trkpt lat="51.116783991286" lon="17.126533830740662"><ele>118.0</ele><time>2026-05-03T13:17:59.001Z</time></trkpt><trkpt lat="51.11683384215443" lon="17.126410186953496"><ele>118.0</ele><time>2026-05-03T13:18:00.001Z</time></trkpt><trkpt lat="51.11688178651576" lon="17.126282489880253"><ele>118.00000000000001</ele><time>2026-05-03T13:18:01.001Z</time></trkpt><trkpt lat="51.116930496361356" lon="17.126154508654484"><ele>118.00000000000001</ele><time>2026-05-03T13:18:02.001Z</time></trkpt><trkpt lat="51.11698049901471" lon="17.12602825552757"><ele>118.0</ele><time>2026-05-03T13:18:03.001Z</time></trkpt><trkpt lat="51.11703343022404" lon="17.12589783361884"><ele>118.0</ele><time>2026-05-03T13:18:04.001Z</time></trkpt><trkpt lat="51.117085664734404" lon="17.125766152931796"><ele>118.2</ele><time>2026-05-03T13:18:05.001Z</time></trkpt><trkpt lat="51.11713653459647" lon="17.125635691998653"><ele>118.4</ele><time>2026-05-03T13:18:06.001Z</time></trkpt><trkpt lat="51.11718998485206" lon="17.12550549562725"><ele>118.60000000000001</ele><time>2026-05-03T13:18:07.001Z</time></trkpt><trkpt lat="51.117252596238785" lon="17.125390940916787"><ele>118.80000000000001</ele><time>2026-05-03T13:18:08.001Z</time></trkpt><trkpt lat="51.11732352920355" lon="17.125280280166635"><ele>119.0</ele><time>2026-05-03T13:18:09Z</time></trkpt><trkpt lat="51.11739204586472" lon="17.12517961819169"><ele>118.80000000000001</ele><time>2026-05-03T13:18:10Z</time></trkpt><trkpt lat="51.1174625574416" lon="17.12508110662651"><ele>118.60000000000001</ele><time>2026-05-03T13:18:11Z</time></trkpt><trkpt lat="51.117537718984224" lon="17.124992658674486"><ele>118.4</ele><time>2026-05-03T13:18:12Z</time></trkpt><trkpt lat="51.117614559185455" lon="17.124908937759358"><ele>118.2</ele><time>2026-05-03T13:18:13Z</time></trkpt><trkpt lat="51.117692342332674" lon="17.12482985613585"><ele>118.0</ele><time>2026-05-03T13:18:14Z</time></trkpt><trkpt lat="51.1177715507106" lon="17.124758125418452"><ele>118.00000000000001</ele><time>2026-05-03T13:18:15Z</time></trkpt><trkpt lat="51.117845207387674" lon="17.124679001441677"><ele>118.0</ele><time>2026-05-03T13:18:16Z</time></trkpt><trkpt lat="51.117915602775795" lon="17.12459057926182"><ele>118.0</ele><time>2026-05-03T13:18:17Z</time></trkpt><trkpt lat="51.1179834659714" lon="17.124499814817067"><ele>118.0</ele><time>2026-05-03T13:18:18Z</time></trkpt><trkpt lat="51.11803527522418" lon="17.124384898887847"><ele>118.00000000000001</ele><time>2026-05-03T13:18:19Z</time></trkpt><trkpt lat="51.118096674285006" lon="17.124283291742984"><ele>118.0</ele><time>2026-05-03T13:18:20Z</time></trkpt><trkpt lat="51.11815606629489" lon="17.12417850450862"><ele>118.00000000000001</ele><time>2026-05-03T13:18:21Z</time></trkpt><trkpt lat="51.118214144003744" lon="17.124071588415894"><ele>118.0</ele><time>2026-05-03T13:18:22Z</time></trkpt><trkpt lat="51.11827839112143" lon="17.123971885313924"><ele>118.0</ele><time>2026-05-03T13:18:23Z</time></trkpt><trkpt lat="51.118330242737066" lon="17.123857114309384"><ele>118.0</ele><time>2026-05-03T13:18:24Z</time></trkpt><trkpt lat="51.11838668215246" lon="17.123743221615687"><ele>118.00000000000001</ele><time>2026-05-03T13:18:25Z</time></trkpt><trkpt lat="51.11844371405044" lon="17.12363182545511"><ele>118.0</ele><time>2026-05-03T13:18:26Z</time></trkpt><trkpt lat="51.11849755356898" lon="17.123513591502615"><ele>117.60000000000001</ele><time>2026-05-03T13:18:27Z</time></trkpt><trkpt lat="51.118549837130246" lon="17.123398043977755"><ele>117.20000000000002</ele><time>2026-05-03T13:18:28Z</time></trkpt><trkpt lat="51.11860956279435" lon="17.123285917966246"><ele>116.8</ele><time>2026-05-03T13:18:29Z</time></trkpt><trkpt lat="51.118674365317126" lon="17.123181974887288"><ele>116.4</ele><time>2026-05-03T13:18:30Z</time></trkpt><trkpt lat="51.11873782666519" lon="17.12308049756554"><ele>116.0</ele><time>2026-05-03T13:18:31Z</time></trkpt><trkpt lat="51.118804676453216" lon="17.122982142439742"><ele>116.0</ele><time>2026-05-03T13:18:32Z</time></trkpt><trkpt lat="51.11887339531909" lon="17.122888614621797"><ele>116.0</ele><time>2026-05-03T13:18:33Z</time></trkpt><trkpt lat="51.1189420333413" lon="17.12279426457346"><ele>116.0</ele><time>2026-05-03T13:18:34Z</time></trkpt><trkpt lat="51.11901434417337" lon="17.122701593312957"><ele>116.0</ele><time>2026-05-03T13:18:35Z</time></trkpt><trkpt lat="51.1190837222086" lon="17.122604237115745"><ele>116.0</ele><time>2026-05-03T13:18:36Z</time></trkpt><trkpt lat="51.11915220982758" lon="17.122503170546356"><ele>116.4</ele><time>2026-05-03T13:18:37Z</time></trkpt><trkpt lat="51.11922468173109" lon="17.122410470998034"><ele>116.8</ele><time>2026-05-03T13:18:38Z</time></trkpt><trkpt lat="51.11930182863094" lon="17.12232493174337"><ele>117.20000000000002</ele><time>2026-05-03T13:18:39Z</time></trkpt><trkpt lat="51.11937898640275" lon="17.122241481571358"><ele>117.60000000000001</ele><time>2026-05-03T13:18:40Z</time></trkpt><trkpt lat="51.119455501597486" lon="17.122162312260706"><ele>118.0</ele><time>2026-05-03T13:18:41Z</time></trkpt><trkpt lat="51.119538779568686" lon="17.122100735396703"><ele>118.00000000000001</ele><time>2026-05-03T13:18:42Z</time></trkpt><trkpt lat="51.119618395201115" lon="17.122036357614327"><ele>118.0</ele><time>2026-05-03T13:18:43Z</time></trkpt><trkpt lat="51.119699335939096" lon="17.1219710777368"><ele>118.0</ele><time>2026-05-03T13:18:44Z</time></trkpt><trkpt lat="51.119777635668854" lon="17.121903196386025"><ele>118.0</ele><time>2026-05-03T13:18:45Z</time></trkpt><trkpt lat="51.11985671783008" lon="17.12184014235552"><ele>118.00000000000001</ele><time>2026-05-03T13:18:46Z</time></trkpt><trkpt lat="51.11993773065664" lon="17.121782013069755"><ele>118.0</ele><time>2026-05-03T13:18:47Z</time></trkpt><trkpt lat="51.12001629377272" lon="17.121720832297346"><ele>117.83333333333334</ele><time>2026-05-03T13:18:48Z</time></trkpt><trkpt lat="51.12009507390861" lon="17.121657987366063"><ele>117.66666666666667</ele><time>2026-05-03T13:18:49Z</time></trkpt><trkpt lat="51.1201730436299" lon="17.12159643464372"><ele>117.5</ele><time>2026-05-03T13:18:50Z</time></trkpt><trkpt lat="51.120254084451624" lon="17.12154287026993"><ele>117.33333333333334</ele><time>2026-05-03T13:18:51Z</time></trkpt><trkpt lat="51.12033434836181" lon="17.121488045650647"><ele>117.16666666666667</ele><time>2026-05-03T13:18:52Z</time></trkpt><trkpt lat="51.12041799162278" lon="17.121445264477735"><ele>117.0</ele><time>2026-05-03T13:18:53Z</time></trkpt><trkpt lat="51.120502176033455" lon="17.121399401487015"><ele>116.66666666666667</ele><time>2026-05-03T13:18:54Z</time></trkpt><trkpt lat="51.12058489757018" lon="17.121350230911673"><ele>116.33333333333334</ele><time>2026-05-03T13:18:55Z</time></trkpt><trkpt lat="51.12066641399637" lon="17.121299412889332"><ele>116.0</ele><time>2026-05-03T13:18:56Z</time></trkpt><trkpt lat="51.12074788592021" lon="17.12123893288927"><ele>115.66666666666667</ele><time>2026-05-03T13:18:57Z</time></trkpt><trkpt lat="51.12082995706915" lon="17.1211872350494"><ele>115.33333333333334</ele><time>2026-05-03T13:18:58Z</time></trkpt><trkpt lat="51.120915330314276" lon="17.121131898043245"><ele>115.0</ele><time>2026-05-03T13:18:59Z</time></trkpt><trkpt lat="51.12099371377301" lon="17.121065702232293"><ele>115.00000000000001</ele><time>2026-05-03T13:19:00Z</time></trkpt><trkpt lat="51.121075443730085" lon="17.121002625935894"><ele>115.0</ele><time>2026-05-03T13:19:01Z</time></trkpt><trkpt lat="51.12115668717442" lon="17.12094070664254"><ele>115.0</ele><time>2026-05-03T13:19:02Z</time></trkpt><trkpt lat="51.12123620312819" lon="17.120876007874045"><ele>115.0</ele><time>2026-05-03T13:19:03Z</time></trkpt><trkpt lat="51.12131392636578" lon="17.120808793407946"><ele>115.00000000000001</ele><time>2026-05-03T13:19:04Z</time></trkpt><trkpt lat="51.12138979647129" lon="17.12074256416779"><ele>115.0</ele><time>2026-05-03T13:19:05Z</time></trkpt><trkpt lat="51.121467810097414" lon="17.120681649608393"><ele>115.00000000000001</ele><time>2026-05-03T13:19:06Z</time></trkpt><trkpt lat="51.12153958742226" lon="17.12062865391792"><ele>115.0</ele><time>2026-05-03T13:19:07Z</time></trkpt><trkpt lat="51.12159912232561" lon="17.12058812020066"><ele>115.0</ele><time>2026-05-03T13:19:08Z</time></trkpt><trkpt lat="51.121679629766184" lon="17.12054006385724"><ele>115.0</ele><time>2026-05-03T13:19:10.001Z</time></trkpt><trkpt lat="51.12174057761649" lon="17.120505208798114"><ele>115.00000000000001</ele><time>2026-05-03T13:19:13.001Z</time></trkpt><trkpt lat="51.121805297748956" lon="17.120444014693923"><ele>115.0</ele><time>2026-05-03T13:19:15.001Z</time></trkpt><trkpt lat="51.12189749765747" lon="17.12036691730235"><ele>115.00000000000001</ele><time>2026-05-03T13:19:17.001Z</time></trkpt><trkpt lat="51.12201088366567" lon="17.12029138893117"><ele>115.0</ele><time>2026-05-03T13:19:19.001Z</time></trkpt><trkpt lat="51.12207988576476" lon="17.1202578610892"><ele>115.0</ele><time>2026-05-03T13:19:20.001Z</time></trkpt><trkpt lat="51.12215295691412" lon="17.12022580368361"><ele>115.0</ele><time>2026-05-03T13:19:21.001Z</time></trkpt><trkpt lat="51.12222933865425" lon="17.120193274843825"><ele>115.00000000000001</ele><time>2026-05-03T13:19:22.001Z</time></trkpt><trkpt lat="51.12230525200985" lon="17.120156410936612"><ele>115.0</ele><time>2026-05-03T13:19:23.001Z</time></trkpt><trkpt lat="51.122381411148346" lon="17.12011984925987"><ele>115.33333333333334</ele><time>2026-05-03T13:19:24.001Z</time></trkpt><trkpt lat="51.122459586534305" lon="17.12008396110404"><ele>115.66666666666667</ele><time>2026-05-03T13:19:25.001Z</time></trkpt><trkpt lat="51.12253982638779" lon="17.12004660246352"><ele>116.0</ele><time>2026-05-03T13:19:26.001Z</time></trkpt><trkpt lat="51.122620848983004" lon="17.12000725559509"><ele>116.33333333333334</ele><time>2026-05-03T13:19:27.001Z</time></trkpt><trkpt lat="51.12270194602162" lon="17.11996558954875"><ele>116.66666666666667</ele><time>2026-05-03T13:19:28.001Z</time></trkpt><trkpt lat="51.12278217900307" lon="17.11992372175566"><ele>117.0</ele><time>2026-05-03T13:19:29.001Z</time></trkpt><trkpt lat="51.12286382441128" lon="17.1198789824557"><ele>117.16666666666667</ele><time>2026-05-03T13:19:30.001Z</time></trkpt><trkpt lat="51.12294687933393" lon="17.119837635597964"><ele>117.33333333333334</ele><time>2026-05-03T13:19:31Z</time></trkpt><trkpt lat="51.12302952927329" lon="17.11979366899863"><ele>117.5</ele><time>2026-05-03T13:19:32Z</time></trkpt><trkpt lat="51.12311329878744" lon="17.11975044221919"><ele>117.66666666666667</ele><time>2026-05-03T13:19:33Z</time></trkpt><trkpt lat="51.12319727627296" lon="17.119705620855818"><ele>117.83333333333334</ele><time>2026-05-03T13:19:34Z</time></trkpt><trkpt lat="51.12328203017316" lon="17.119663506789117"><ele>118.0</ele><time>2026-05-03T13:19:35Z</time></trkpt><trkpt lat="51.12336570014925" lon="17.11962011883977"><ele>117.66666666666667</ele><time>2026-05-03T13:19:36Z</time></trkpt><trkpt lat="51.123448301865814" lon="17.11957768564658"><ele>117.33333333333334</ele><time>2026-05-03T13:19:37Z</time></trkpt><trkpt lat="51.123530426048205" lon="17.11953233957852"><ele>117.0</ele><time>2026-05-03T13:19:38Z</time></trkpt><trkpt lat="51.123609350158084" lon="17.119480222762636"><ele>116.66666666666666</ele><time>2026-05-03T13:19:39Z</time></trkpt><trkpt lat="51.123689175510485" lon="17.119428018823516"><ele>116.33333333333333</ele><time>2026-05-03T13:19:40Z</time></trkpt><trkpt lat="51.12376868658148" lon="17.119370053840502"><ele>116.0</ele><time>2026-05-03T13:19:41Z</time></trkpt><trkpt lat="51.12384114537965" lon="17.11929657954296"><ele>115.99999999999999</ele><time>2026-05-03T13:19:42Z</time></trkpt><trkpt lat="51.12391941375961" lon="17.11922089437615"><ele>116.0</ele><time>2026-05-03T13:19:43Z</time></trkpt><trkpt lat="51.123987412796666" lon="17.119142420213677"><ele>116.0</ele><time>2026-05-03T13:19:44Z</time></trkpt><trkpt lat="51.12406284668977" lon="17.119059836630466"><ele>116.0</ele><time>2026-05-03T13:19:45Z</time></trkpt><trkpt lat="51.12412822093216" lon="17.118986105317333"><ele>115.99999999999999</ele><time>2026-05-03T13:19:46Z</time></trkpt><trkpt lat="51.124211632110736" lon="17.118894759049123"><ele>116.0</ele><time>2026-05-03T13:19:47Z</time></trkpt><trkpt lat="51.12428413145878" lon="17.118823416713735"><ele>116.33333333333333</ele><time>2026-05-03T13:19:48Z</time></trkpt><trkpt lat="51.12435910892568" lon="17.118740367577857"><ele>116.66666666666666</ele><time>2026-05-03T13:19:49Z</time></trkpt><trkpt lat="51.124431789916336" lon="17.118661941889446"><ele>117.0</ele><time>2026-05-03T13:19:50Z</time></trkpt><trkpt lat="51.12450421363037" lon="17.118583226273714"><ele>117.33333333333334</ele><time>2026-05-03T13:19:51Z</time></trkpt><trkpt lat="51.124577681704075" lon="17.118506185940234"><ele>117.66666666666667</ele><time>2026-05-03T13:19:52Z</time></trkpt><trkpt lat="51.12465209810309" lon="17.118432861892313"><ele>118.0</ele><time>2026-05-03T13:19:53Z</time></trkpt><trkpt lat="51.124722026585715" lon="17.118355334927575"><ele>118.00000000000001</ele><time>2026-05-03T13:19:54Z</time></trkpt><trkpt lat="51.1247931796565" lon="17.118280092596393"><ele>118.0</ele><time>2026-05-03T13:19:55Z</time></trkpt><trkpt lat="51.12486589092642" lon="17.118204730187"><ele>118.0</ele><time>2026-05-03T13:19:56Z</time></trkpt><trkpt lat="51.124935284654775" lon="17.118132643496097"><ele>118.0</ele><time>2026-05-03T13:19:57Z</time></trkpt><trkpt lat="51.125007387725475" lon="17.118056089867746"><ele>118.00000000000001</ele><time>2026-05-03T13:19:58Z</time></trkpt><trkpt lat="51.12507531320352" lon="17.117981701249366"><ele>118.0</ele><time>2026-05-03T13:19:59Z</time></trkpt><trkpt lat="51.125144081423215" lon="17.11790586923597"><ele>117.66666666666667</ele><time>2026-05-03T13:20:00Z</time></trkpt><trkpt lat="51.12521061897171" lon="17.117834314901717"><ele>117.33333333333334</ele><time>2026-05-03T13:20:01Z</time></trkpt><trkpt lat="51.125276926171956" lon="17.117762136825494"><ele>117.0</ele><time>2026-05-03T13:20:02Z</time></trkpt><trkpt lat="51.12534404948174" lon="17.117690149242847"><ele>116.66666666666666</ele><time>2026-05-03T13:20:03Z</time></trkpt><trkpt lat="51.1254112351519" lon="17.11761804250221"><ele>116.33333333333333</ele><time>2026-05-03T13:20:04Z</time></trkpt><trkpt lat="51.12547765169203" lon="17.1175461572143"><ele>116.0</ele><time>2026-05-03T13:20:05Z</time></trkpt><trkpt lat="51.125544478815385" lon="17.117475901651098"><ele>115.99999999999999</ele><time>2026-05-03T13:20:06Z</time></trkpt><trkpt lat="51.12561377137185" lon="17.117402545250588"><ele>116.0</ele><time>2026-05-03T13:20:07Z</time></trkpt><trkpt lat="51.125681832821215" lon="17.11732839180703"><ele>116.0</ele><time>2026-05-03T13:20:08Z</time></trkpt><trkpt lat="51.125749338449914" lon="17.117255399172898"><ele>116.0</ele><time>2026-05-03T13:20:09Z</time></trkpt><trkpt lat="51.12581688852284" lon="17.11718330389528"><ele>115.99999999999999</ele><time>2026-05-03T13:20:10Z</time></trkpt><trkpt lat="51.12588506660832" lon="17.11710941354063"><ele>116.0</ele><time>2026-05-03T13:20:11Z</time></trkpt><trkpt lat="51.125955353060476" lon="17.117048443673934"><ele>116.16666666666666</ele><time>2026-05-03T13:20:12Z</time></trkpt><trkpt lat="51.12602719528621" lon="17.11698678138584"><ele>116.33333333333333</ele><time>2026-05-03T13:20:13Z</time></trkpt><trkpt lat="51.12609705291072" lon="17.116919435248878"><ele>116.5</ele><time>2026-05-03T13:20:14Z</time></trkpt><trkpt lat="51.12616712276858" lon="17.116852243718718"><ele>116.66666666666666</ele><time>2026-05-03T13:20:15Z</time></trkpt><trkpt lat="51.126238284407826" lon="17.11678424372015"><ele>116.83333333333333</ele><time>2026-05-03T13:20:16Z</time></trkpt><trkpt lat="51.12630808963243" lon="17.116714180558755"><ele>117.0</ele><time>2026-05-03T13:20:17Z</time></trkpt><trkpt lat="51.12637593890539" lon="17.11663718329077"><ele>117.0</ele><time>2026-05-03T13:20:18Z</time></trkpt><trkpt lat="51.12644390342185" lon="17.116561455184765"><ele>117.0</ele><time>2026-05-03T13:20:19Z</time></trkpt><trkpt lat="51.126513789870245" lon="17.116485867484617"><ele>117.0</ele><time>2026-05-03T13:20:20Z</time></trkpt><trkpt lat="51.12658364646787" lon="17.116413633066173"><ele>117.0</ele><time>2026-05-03T13:20:21Z</time></trkpt><trkpt lat="51.12665320499504" lon="17.116340268887832"><ele>117.0</ele><time>2026-05-03T13:20:22Z</time></trkpt><trkpt lat="51.12672238468035" lon="17.116267754323065"><ele>117.0</ele><time>2026-05-03T13:20:23Z</time></trkpt><trkpt lat="51.12679253331598" lon="17.116195369867274"><ele>116.66666666666667</ele><time>2026-05-03T13:20:24Z</time></trkpt><trkpt lat="51.12686118904753" lon="17.116120966901697"><ele>116.33333333333334</ele><time>2026-05-03T13:20:25Z</time></trkpt><trkpt lat="51.126929216432394" lon="17.116046916875785"><ele>116.0</ele><time>2026-05-03T13:20:26Z</time></trkpt><trkpt lat="51.126997185745154" lon="17.115971702885307"><ele>115.66666666666667</ele><time>2026-05-03T13:20:27Z</time></trkpt><trkpt lat="51.12706509650162" lon="17.115895098964334"><ele>115.33333333333334</ele><time>2026-05-03T13:20:28Z</time></trkpt><trkpt lat="51.12713036313174" lon="17.115814712381656"><ele>115.0</ele><time>2026-05-03T13:20:29Z</time></trkpt><trkpt lat="51.1271964527983" lon="17.11573699062981"><ele>115.00000000000001</ele><time>2026-05-03T13:20:30Z</time></trkpt><trkpt lat="51.127262742371336" lon="17.11566005935691"><ele>115.0</ele><time>2026-05-03T13:20:31Z</time></trkpt><trkpt lat="51.12732954219189" lon="17.11558586444514"><ele>115.0</ele><time>2026-05-03T13:20:32Z</time></trkpt><trkpt lat="51.12739610472227" lon="17.115513463604728"><ele>115.0</ele><time>2026-05-03T13:20:33Z</time></trkpt><trkpt lat="51.12746171361283" lon="17.115444110944118"><ele>115.00000000000001</ele><time>2026-05-03T13:20:34Z</time></trkpt><trkpt lat="51.12752862006321" lon="17.115372248488583"><ele>115.0</ele><time>2026-05-03T13:20:35Z</time></trkpt><trkpt lat="51.12759455971168" lon="17.115299805682465"><ele>115.00000000000001</ele><time>2026-05-03T13:20:36Z</time></trkpt><trkpt lat="51.12766122310905" lon="17.1152283437033"><ele>115.0</ele><time>2026-05-03T13:20:37Z</time></trkpt><trkpt lat="51.12772892421567" lon="17.115158037353297"><ele>115.0</ele><time>2026-05-03T13:20:38Z</time></trkpt><trkpt lat="51.12779530735662" lon="17.115086941257776"><ele>115.0</ele><time>2026-05-03T13:20:39Z</time></trkpt><trkpt lat="51.12786218323225" lon="17.11501521541514"><ele>115.00000000000001</ele><time>2026-05-03T13:20:40Z</time></trkpt><trkpt lat="51.12792855923899" lon="17.114941152589193"><ele>115.0</ele><time>2026-05-03T13:20:41Z</time></trkpt><trkpt lat="51.12799582850188" lon="17.11487129009732"><ele>115.16666666666667</ele><time>2026-05-03T13:20:42Z</time></trkpt><trkpt lat="51.12806349697433" lon="17.114799621006313"><ele>115.33333333333334</ele><time>2026-05-03T13:20:43Z</time></trkpt><trkpt lat="51.12813161852144" lon="17.11472496345929"><ele>115.5</ele><time>2026-05-03T13:20:44Z</time></trkpt><trkpt lat="51.12820057556511" lon="17.114652413043164"><ele>115.66666666666666</ele><time>2026-05-03T13:20:45Z</time></trkpt><trkpt lat="51.12826890038462" lon="17.114578781589238"><ele>115.83333333333333</ele><time>2026-05-03T13:20:46Z</time></trkpt><trkpt lat="51.128337776841136" lon="17.114503051556948"><ele>116.0</ele><time>2026-05-03T13:20:47Z</time></trkpt><trkpt lat="51.128406292756466" lon="17.11442179694795"><ele>115.99999999999999</ele><time>2026-05-03T13:20:48Z</time></trkpt><trkpt lat="51.1284754463783" lon="17.114351365703325"><ele>116.0</ele><time>2026-05-03T13:20:49Z</time></trkpt><trkpt lat="51.128544784654665" lon="17.114276252986745"><ele>116.0</ele><time>2026-05-03T13:20:50Z</time></trkpt><trkpt lat="51.12861512092783" lon="17.11420903946623"><ele>116.0</ele><time>2026-05-03T13:20:51Z</time></trkpt><trkpt lat="51.128686503705055" lon="17.11413661550457"><ele>115.99999999999999</ele><time>2026-05-03T13:20:52Z</time></trkpt><trkpt lat="51.12875260929521" lon="17.114060100282163"><ele>116.0</ele><time>2026-05-03T13:20:53Z</time></trkpt><trkpt lat="51.12882007814949" lon="17.113985247460423"><ele>116.16666666666666</ele><time>2026-05-03T13:20:54Z</time></trkpt><trkpt lat="51.12888912987167" lon="17.113910304568833"><ele>116.33333333333333</ele><time>2026-05-03T13:20:55Z</time></trkpt><trkpt lat="51.12895706494557" lon="17.113836311595673"><ele>116.5</ele><time>2026-05-03T13:20:56Z</time></trkpt><trkpt lat="51.129024869771285" lon="17.113764788830554"><ele>116.66666666666666</ele><time>2026-05-03T13:20:57Z</time></trkpt><trkpt lat="51.12909410841726" lon="17.11368915604527"><ele>116.83333333333333</ele><time>2026-05-03T13:20:58Z</time></trkpt><trkpt lat="51.129163008781866" lon="17.11361380455015"><ele>117.0</ele><time>2026-05-03T13:20:59Z</time></trkpt><trkpt lat="51.129229682615346" lon="17.113537104657283"><ele>117.0</ele><time>2026-05-03T13:21:00Z</time></trkpt><trkpt lat="51.1292990080601" lon="17.11346343471551"><ele>117.0</ele><time>2026-05-03T13:21:01Z</time></trkpt><trkpt lat="51.129368671384285" lon="17.113392815413963"><ele>117.0</ele><time>2026-05-03T13:21:02Z</time></trkpt><trkpt lat="51.129438413754976" lon="17.113321509405957"><ele>117.0</ele><time>2026-05-03T13:21:03Z</time></trkpt><trkpt lat="51.129505695015204" lon="17.11324783225062"><ele>117.0</ele><time>2026-05-03T13:21:04Z</time></trkpt><trkpt lat="51.129571795859256" lon="17.11317343921922"><ele>117.0</ele><time>2026-05-03T13:21:05Z</time></trkpt><trkpt lat="51.12963812338895" lon="17.113103101110795"><ele>117.0</ele><time>2026-05-03T13:21:06Z</time></trkpt><trkpt lat="51.12970519939902" lon="17.11303437322777"><ele>117.0</ele><time>2026-05-03T13:21:07Z</time></trkpt><trkpt lat="51.129773098172855" lon="17.11296615151459"><ele>117.0</ele><time>2026-05-03T13:21:08Z</time></trkpt><trkpt lat="51.12983960124796" lon="17.11289421553253"><ele>117.0</ele><time>2026-05-03T13:21:09Z</time></trkpt><trkpt lat="51.12990551735639" lon="17.112820990853905"><ele>117.0</ele><time>2026-05-03T13:21:10Z</time></trkpt><trkpt lat="51.12997079637347" lon="17.112750757469232"><ele>117.0</ele><time>2026-05-03T13:21:11Z</time></trkpt><trkpt lat="51.13003479501921" lon="17.11267379958061"><ele>117.0</ele><time>2026-05-03T13:21:12Z</time></trkpt><trkpt lat="51.130102000430746" lon="17.112606585759437"><ele>117.0</ele><time>2026-05-03T13:21:13Z</time></trkpt><trkpt lat="51.13017215749286" lon="17.112537105765526"><ele>117.0</ele><time>2026-05-03T13:21:14Z</time></trkpt><trkpt lat="51.130239089594426" lon="17.11246736721846"><ele>117.0</ele><time>2026-05-03T13:21:15.001Z</time></trkpt><trkpt lat="51.13030678812398" lon="17.11239261553692"><ele>117.0</ele><time>2026-05-03T13:21:16.001Z</time></trkpt><trkpt lat="51.13037316982595" lon="17.112318052784257"><ele>117.0</ele><time>2026-05-03T13:21:17.001Z</time></trkpt><trkpt lat="51.130439494835926" lon="17.112243748917216"><ele>117.16666666666667</ele><time>2026-05-03T13:21:18.001Z</time></trkpt><trkpt lat="51.13050589912492" lon="17.112173247035315"><ele>117.33333333333334</ele><time>2026-05-03T13:21:19.001Z</time></trkpt><trkpt lat="51.130572720964075" lon="17.11210536331112"><ele>117.5</ele><time>2026-05-03T13:21:20.001Z</time></trkpt><trkpt lat="51.1306423303293" lon="17.112027761240274"><ele>117.66666666666667</ele><time>2026-05-03T13:21:21.001Z</time></trkpt><trkpt lat="51.13071377741645" lon="17.111951764706248"><ele>117.83333333333334</ele><time>2026-05-03T13:21:22.001Z</time></trkpt><trkpt lat="51.130785366671795" lon="17.11187737654447"><ele>118.0</ele><time>2026-05-03T13:21:23.001Z</time></trkpt><trkpt lat="51.13085619557581" lon="17.11179832575067"><ele>118.16666666666667</ele><time>2026-05-03T13:21:24.001Z</time></trkpt><trkpt lat="51.130927735185615" lon="17.111725204076528"><ele>118.33333333333334</ele><time>2026-05-03T13:21:25.001Z</time></trkpt><trkpt lat="51.13099857508446" lon="17.11165130063812"><ele>118.5</ele><time>2026-05-03T13:21:26.001Z</time></trkpt><trkpt lat="51.131066001428366" lon="17.11158653559942"><ele>118.66666666666666</ele><time>2026-05-03T13:21:27.001Z</time></trkpt><trkpt lat="51.13114061127507" lon="17.111508924656118"><ele>118.83333333333333</ele><time>2026-05-03T13:21:28.001Z</time></trkpt><trkpt lat="51.131212577134214" lon="17.111428027051094"><ele>119.0</ele><time>2026-05-03T13:21:29Z</time></trkpt><trkpt lat="51.13127821203926" lon="17.111361902610554"><ele>118.83333333333333</ele><time>2026-05-03T13:21:30Z</time></trkpt><trkpt lat="51.131350116173586" lon="17.11128693649005"><ele>118.66666666666666</ele><time>2026-05-03T13:21:31Z</time></trkpt><trkpt lat="51.131419579996276" lon="17.111214308435944"><ele>118.5</ele><time>2026-05-03T13:21:32Z</time></trkpt><trkpt lat="51.131491695905396" lon="17.111135775743726"><ele>118.33333333333334</ele><time>2026-05-03T13:21:33Z</time></trkpt><trkpt lat="51.13156217462722" lon="17.11106348203955"><ele>118.16666666666667</ele><time>2026-05-03T13:21:34Z</time></trkpt><trkpt lat="51.13163587217965" lon="17.110999023092237"><ele>118.0</ele><time>2026-05-03T13:21:35Z</time></trkpt><trkpt lat="51.13170763541508" lon="17.11093074343753"><ele>118.00000000000001</ele><time>2026-05-03T13:21:36Z</time></trkpt><trkpt lat="51.1317775145685" lon="17.110856613423966"><ele>118.0</ele><time>2026-05-03T13:21:37Z</time></trkpt><trkpt lat="51.13184469014206" lon="17.110785219288793"><ele>118.0</ele><time>2026-05-03T13:21:38Z</time></trkpt><trkpt lat="51.13191291569013" lon="17.110713342127085"><ele>118.0</ele><time>2026-05-03T13:21:39Z</time></trkpt><trkpt lat="51.131977928713546" lon="17.110644376800042"><ele>118.00000000000001</ele><time>2026-05-03T13:21:40Z</time></trkpt><trkpt lat="51.13204453168763" lon="17.11057571381086"><ele>118.0</ele><time>2026-05-03T13:21:41Z</time></trkpt><trkpt lat="51.13210934580503" lon="17.11050180536744"><ele>118.16666666666667</ele><time>2026-05-03T13:21:42Z</time></trkpt><trkpt lat="51.13216979176807" lon="17.110416516118438"><ele>118.33333333333334</ele><time>2026-05-03T13:21:43Z</time></trkpt><trkpt lat="51.13222080464129" lon="17.110316140426093"><ele>118.5</ele><time>2026-05-03T13:21:44Z</time></trkpt><trkpt lat="51.13226580531362" lon="17.11021077084292"><ele>118.66666666666666</ele><time>2026-05-03T13:21:45Z</time></trkpt><trkpt lat="51.13230618302571" lon="17.11009570174353"><ele>118.83333333333333</ele><time>2026-05-03T13:21:46Z</time></trkpt><trkpt lat="51.1323327001954" lon="17.109977133982177"><ele>119.0</ele><time>2026-05-03T13:21:47Z</time></trkpt><trkpt lat="51.132352344909116" lon="17.109860444369865"><ele>118.99999999999999</ele><time>2026-05-03T13:21:48Z</time></trkpt><trkpt lat="51.13235614733049" lon="17.109735983324562"><ele>119.0</ele><time>2026-05-03T13:21:49Z</time></trkpt><trkpt lat="51.1323582391006" lon="17.109606924204215"><ele>119.0</ele><time>2026-05-03T13:21:50Z</time></trkpt><trkpt lat="51.132358114721804" lon="17.109483099691438"><ele>119.0</ele><time>2026-05-03T13:21:51Z</time></trkpt><trkpt lat="51.13235964571963" lon="17.109359665367755"><ele>118.99999999999999</ele><time>2026-05-03T13:21:52Z</time></trkpt><trkpt lat="51.132358409618874" lon="17.109237240461155"><ele>119.0</ele><time>2026-05-03T13:21:53Z</time></trkpt><trkpt lat="51.13235460137911" lon="17.109113886663735"><ele>118.99999999999999</ele><time>2026-05-03T13:21:54Z</time></trkpt><trkpt lat="51.13235535456618" lon="17.108988232530606"><ele>119.0</ele><time>2026-05-03T13:21:55Z</time></trkpt><trkpt lat="51.13235336157924" lon="17.10886331384267"><ele>119.0</ele><time>2026-05-03T13:21:56Z</time></trkpt><trkpt lat="51.13235462458505" lon="17.10874027524203"><ele>119.0</ele><time>2026-05-03T13:21:57Z</time></trkpt><trkpt lat="51.132360008665444" lon="17.108612454102417"><ele>118.99999999999999</ele><time>2026-05-03T13:21:58Z</time></trkpt><trkpt lat="51.13237135815331" lon="17.10848575048556"><ele>119.0</ele><time>2026-05-03T13:21:59Z</time></trkpt><trkpt lat="51.13238456199032" lon="17.1083672067515"><ele>118.99999999999999</ele><time>2026-05-03T13:22:00Z</time></trkpt><trkpt lat="51.13241028572642" lon="17.108242353193788"><ele>119.0</ele><time>2026-05-03T13:22:01Z</time></trkpt><trkpt lat="51.13243364667117" lon="17.108121312958577"><ele>119.0</ele><time>2026-05-03T13:22:02Z</time></trkpt><trkpt lat="51.13245767645023" lon="17.108003322167413"><ele>119.0</ele><time>2026-05-03T13:22:03Z</time></trkpt><trkpt lat="51.13248026453913" lon="17.107881474015407"><ele>118.99999999999999</ele><time>2026-05-03T13:22:04Z</time></trkpt><trkpt lat="51.13251070891652" lon="17.10776326173842"><ele>119.0</ele><time>2026-05-03T13:22:05Z</time></trkpt><trkpt lat="51.132544224733564" lon="17.10764643609429"><ele>118.99999999999999</ele><time>2026-05-03T13:22:06Z</time></trkpt><trkpt lat="51.132582079819485" lon="17.107528960522078"><ele>119.0</ele><time>2026-05-03T13:22:07Z</time></trkpt><trkpt lat="51.13261679121352" lon="17.10741294186267"><ele>119.0</ele><time>2026-05-03T13:22:08Z</time></trkpt><trkpt lat="51.132651993169986" lon="17.10729765571748"><ele>119.0</ele><time>2026-05-03T13:22:09Z</time></trkpt><trkpt lat="51.13269033121896" lon="17.107178171982966"><ele>118.99999999999999</ele><time>2026-05-03T13:22:10Z</time></trkpt><trkpt lat="51.13272434453402" lon="17.107064371787434"><ele>119.0</ele><time>2026-05-03T13:22:11Z</time></trkpt><trkpt lat="51.13275933248046" lon="17.106953432237013"><ele>118.83333333333333</ele><time>2026-05-03T13:22:12Z</time></trkpt><trkpt lat="51.1327983330323" lon="17.106838614790217"><ele>118.66666666666666</ele><time>2026-05-03T13:22:13Z</time></trkpt><trkpt lat="51.13283673444018" lon="17.10673079683549"><ele>118.5</ele><time>2026-05-03T13:22:14Z</time></trkpt><trkpt lat="51.13286855741402" lon="17.106614175682697"><ele>118.33333333333334</ele><time>2026-05-03T13:22:15Z</time></trkpt><trkpt lat="51.132905712181056" lon="17.106502129841115"><ele>118.16666666666667</ele><time>2026-05-03T13:22:16Z</time></trkpt><trkpt lat="51.13294409030754" lon="17.106388155394882"><ele>118.0</ele><time>2026-05-03T13:22:17Z</time></trkpt><trkpt lat="51.13298001302811" lon="17.10627043173596"><ele>118.00000000000001</ele><time>2026-05-03T13:22:18Z</time></trkpt><trkpt lat="51.133020238441816" lon="17.106154793000997"><ele>118.0</ele><time>2026-05-03T13:22:19Z</time></trkpt><trkpt lat="51.133061170647565" lon="17.106038740016004"><ele>118.0</ele><time>2026-05-03T13:22:20Z</time></trkpt><trkpt lat="51.1330976543463" lon="17.10592199374486"><ele>118.0</ele><time>2026-05-03T13:22:21Z</time></trkpt><trkpt lat="51.13313210755508" lon="17.105806718155712"><ele>118.00000000000001</ele><time>2026-05-03T13:22:22Z</time></trkpt><trkpt lat="51.133164616646845" lon="17.105688334050058"><ele>118.0</ele><time>2026-05-03T13:22:23Z</time></trkpt><trkpt lat="51.133201154201586" lon="17.105571267980324"><ele>118.00000000000001</ele><time>2026-05-03T13:22:24Z</time></trkpt><trkpt lat="51.133234043336415" lon="17.105459787319965"><ele>118.0</ele><time>2026-05-03T13:22:25Z</time></trkpt><trkpt lat="51.13326810105071" lon="17.105345824626987"><ele>118.0</ele><time>2026-05-03T13:22:26Z</time></trkpt><trkpt lat="51.1332992388851" lon="17.10523240701257"><ele>118.0</ele><time>2026-05-03T13:22:27Z</time></trkpt><trkpt lat="51.13333432767134" lon="17.105114219174673"><ele>118.00000000000001</ele><time>2026-05-03T13:22:28Z</time></trkpt><trkpt lat="51.133367485875965" lon="17.105000828160726"><ele>118.0</ele><time>2026-05-03T13:22:29Z</time></trkpt><trkpt lat="51.13339557100836" lon="17.10489293633174"><ele>118.00000000000001</ele><time>2026-05-03T13:22:30Z</time></trkpt><trkpt lat="51.133424731311244" lon="17.10477896487868"><ele>118.0</ele><time>2026-05-03T13:22:31Z</time></trkpt><trkpt lat="51.13345315483568" lon="17.104663489684974"><ele>118.0</ele><time>2026-05-03T13:22:32Z</time></trkpt><trkpt lat="51.133481003979746" lon="17.104546807215524"><ele>118.0</ele><time>2026-05-03T13:22:33Z</time></trkpt><trkpt lat="51.13350689428365" lon="17.104434195622513"><ele>118.00000000000001</ele><time>2026-05-03T13:22:34Z</time></trkpt><trkpt lat="51.13353005555366" lon="17.104320782068697"><ele>118.0</ele><time>2026-05-03T13:22:35Z</time></trkpt><trkpt lat="51.133554787582085" lon="17.104206078644697"><ele>118.00000000000001</ele><time>2026-05-03T13:22:36Z</time></trkpt><trkpt lat="51.13358063212075" lon="17.10409425811512"><ele>118.0</ele><time>2026-05-03T13:22:37Z</time></trkpt><trkpt lat="51.133608219332686" lon="17.103981964991963"><ele>118.0</ele><time>2026-05-03T13:22:38Z</time></trkpt><trkpt lat="51.13363493833618" lon="17.103869827307605"><ele>118.0</ele><time>2026-05-03T13:22:39Z</time></trkpt><trkpt lat="51.13365956116741" lon="17.10375669711318"><ele>118.00000000000001</ele><time>2026-05-03T13:22:40Z</time></trkpt><trkpt lat="51.13368300459401" lon="17.103642322728497"><ele>118.0</ele><time>2026-05-03T13:22:41Z</time></trkpt><trkpt lat="51.13370830377801" lon="17.103528512229932"><ele>118.00000000000001</ele><time>2026-05-03T13:22:42Z</time></trkpt><trkpt lat="51.1337324266214" lon="17.1034203367582"><ele>118.0</ele><time>2026-05-03T13:22:43Z</time></trkpt><trkpt lat="51.13375940639029" lon="17.1033007205134"><ele>118.0</ele><time>2026-05-03T13:22:44Z</time></trkpt><trkpt lat="51.13379085137057" lon="17.10318248159086"><ele>118.0</ele><time>2026-05-03T13:22:45Z</time></trkpt><trkpt lat="51.13382533800688" lon="17.103070374626668"><ele>118.00000000000001</ele><time>2026-05-03T13:22:46Z</time></trkpt><trkpt lat="51.13386369944783" lon="17.102960243020384"><ele>118.0</ele><time>2026-05-03T13:22:47Z</time></trkpt><trkpt lat="51.1338914254141" lon="17.10284369233965"><ele>118.00000000000001</ele><time>2026-05-03T13:22:48Z</time></trkpt><trkpt lat="51.13390534555302" lon="17.102717358425103"><ele>118.0</ele><time>2026-05-03T13:22:49Z</time></trkpt><trkpt lat="51.13392671716058" lon="17.102593518965378"><ele>118.0</ele><time>2026-05-03T13:22:50Z</time></trkpt><trkpt lat="51.13395428253739" lon="17.102471368630884"><ele>118.0</ele><time>2026-05-03T13:22:51Z</time></trkpt><trkpt lat="51.13398353511479" lon="17.102350317606138"><ele>118.00000000000001</ele><time>2026-05-03T13:22:52Z</time></trkpt><trkpt lat="51.13401150270867" lon="17.102232875927662"><ele>118.0</ele><time>2026-05-03T13:22:53Z</time></trkpt><trkpt lat="51.13403938468453" lon="17.102109584362186"><ele>117.66666666666667</ele><time>2026-05-03T13:22:54Z</time></trkpt><trkpt lat="51.134067506951624" lon="17.101985764885214"><ele>117.33333333333334</ele><time>2026-05-03T13:22:55Z</time></trkpt><trkpt lat="51.13409287828888" lon="17.10186257038437"><ele>117.0</ele><time>2026-05-03T13:22:56Z</time></trkpt><trkpt lat="51.134121151284816" lon="17.101742864478833"><ele>116.66666666666666</ele><time>2026-05-03T13:22:57Z</time></trkpt><trkpt lat="51.134149629376395" lon="17.10161599962988"><ele>116.33333333333333</ele><time>2026-05-03T13:22:58Z</time></trkpt><trkpt lat="51.13417978947595" lon="17.101493464268565"><ele>116.0</ele><time>2026-05-03T13:22:59Z</time></trkpt><trkpt lat="51.13420739216332" lon="17.101368231738718"><ele>115.99999999999999</ele><time>2026-05-03T13:23:00Z</time></trkpt><trkpt lat="51.134237495588835" lon="17.101245200295402"><ele>116.0</ele><time>2026-05-03T13:23:01Z</time></trkpt><trkpt lat="51.13426515141967" lon="17.101121797578003"><ele>116.0</ele><time>2026-05-03T13:23:02Z</time></trkpt><trkpt lat="51.134293124714155" lon="17.100995060706342"><ele>116.0</ele><time>2026-05-03T13:23:03Z</time></trkpt><trkpt lat="51.1343210854462" lon="17.100874216474832"><ele>115.99999999999999</ele><time>2026-05-03T13:23:04Z</time></trkpt><trkpt lat="51.134347321228724" lon="17.100757997228907"><ele>116.0</ele><time>2026-05-03T13:23:05Z</time></trkpt><trkpt lat="51.13437397764957" lon="17.100643444722827"><ele>115.99999999999999</ele><time>2026-05-03T13:23:06Z</time></trkpt><trkpt lat="51.13440240903562" lon="17.100531446322034"><ele>116.0</ele><time>2026-05-03T13:23:07Z</time></trkpt><trkpt lat="51.134430648097734" lon="17.10042644818949"><ele>116.0</ele><time>2026-05-03T13:23:08Z</time></trkpt><trkpt lat="51.13446210390481" lon="17.10032469075077"><ele>116.0</ele><time>2026-05-03T13:23:09Z</time></trkpt><trkpt lat="51.13450270008963" lon="17.100223693907814"><ele>115.99999999999999</ele><time>2026-05-03T13:23:10Z</time></trkpt><trkpt lat="51.13455535405699" lon="17.10013405714681"><ele>116.0</ele><time>2026-05-03T13:23:11Z</time></trkpt><trkpt lat="51.13461275583193" lon="17.1000485023372"><ele>115.99999999999999</ele><time>2026-05-03T13:23:12Z</time></trkpt><trkpt lat="51.134670453777474" lon="17.099961853389644"><ele>116.0</ele><time>2026-05-03T13:23:13Z</time></trkpt><trkpt lat="51.13472939431931" lon="17.09987582975497"><ele>116.0</ele><time>2026-05-03T13:23:14Z</time></trkpt><trkpt lat="51.13478882673029" lon="17.099785779606858"><ele>116.0</ele><time>2026-05-03T13:23:15Z</time></trkpt><trkpt lat="51.13484226776609" lon="17.099695614405928"><ele>115.99999999999999</ele><time>2026-05-03T13:23:16Z</time></trkpt><trkpt lat="51.13489804826077" lon="17.099597859899532"><ele>116.0</ele><time>2026-05-03T13:23:17Z</time></trkpt><trkpt lat="51.134950321377715" lon="17.0994953325731"><ele>115.99999999999999</ele><time>2026-05-03T13:23:18Z</time></trkpt><trkpt lat="51.134996463504294" lon="17.0993866864684"><ele>116.0</ele><time>2026-05-03T13:23:19Z</time></trkpt><trkpt lat="51.13503901911484" lon="17.099275853762368"><ele>116.0</ele><time>2026-05-03T13:23:20Z</time></trkpt><trkpt lat="51.13508159101219" lon="17.099167198044174"><ele>116.0</ele><time>2026-05-03T13:23:21Z</time></trkpt><trkpt lat="51.1351257403483" lon="17.099054138837804"><ele>115.99999999999999</ele><time>2026-05-03T13:23:22Z</time></trkpt><trkpt lat="51.13517091770927" lon="17.098942548832593"><ele>116.0</ele><time>2026-05-03T13:23:23Z</time></trkpt><trkpt lat="51.135218012671345" lon="17.09883015269031"><ele>115.99999999999999</ele><time>2026-05-03T13:23:24Z</time></trkpt><trkpt lat="51.13526241042014" lon="17.098716386948485"><ele>116.0</ele><time>2026-05-03T13:23:25Z</time></trkpt><trkpt lat="51.13530465071309" lon="17.098605527396796"><ele>116.0</ele><time>2026-05-03T13:23:26Z</time></trkpt><trkpt lat="51.13535028657556" lon="17.09849479414893"><ele>116.0</ele><time>2026-05-03T13:23:27Z</time></trkpt><trkpt lat="51.135398120036726" lon="17.098383860150374"><ele>115.99999999999999</ele><time>2026-05-03T13:23:28Z</time></trkpt><trkpt lat="51.13544966782832" lon="17.09827561742236"><ele>116.0</ele><time>2026-05-03T13:23:29Z</time></trkpt><trkpt lat="51.13550523969072" lon="17.098172327123862"><ele>115.99999999999999</ele><time>2026-05-03T13:23:30Z</time></trkpt><trkpt lat="51.135565105252994" lon="17.098075823634865"><ele>116.0</ele><time>2026-05-03T13:23:31Z</time></trkpt><trkpt lat="51.135634996966026" lon="17.09799994679845"><ele>116.0</ele><time>2026-05-03T13:23:32Z</time></trkpt><trkpt lat="51.13570941655368" lon="17.097939104294408"><ele>116.0</ele><time>2026-05-03T13:23:33Z</time></trkpt><trkpt lat="51.135783049048456" lon="17.09787600371882"><ele>115.99999999999999</ele><time>2026-05-03T13:23:34Z</time></trkpt><trkpt lat="51.135856548306364" lon="17.097814781338407"><ele>116.0</ele><time>2026-05-03T13:23:35Z</time></trkpt><trkpt lat="51.13592768342197" lon="17.097761864131872"><ele>116.16666666666666</ele><time>2026-05-03T13:23:36Z</time></trkpt><trkpt lat="51.13599854362505" lon="17.097703164019425"><ele>116.33333333333333</ele><time>2026-05-03T13:23:37Z</time></trkpt><trkpt lat="51.136073111462764" lon="17.097640430744775"><ele>116.5</ele><time>2026-05-03T13:23:38Z</time></trkpt><trkpt lat="51.136146736530925" lon="17.09758604663981"><ele>116.66666666666666</ele><time>2026-05-03T13:23:39Z</time></trkpt><trkpt lat="51.13622139514381" lon="17.097535539134036"><ele>116.83333333333333</ele><time>2026-05-03T13:23:40Z</time></trkpt><trkpt lat="51.13629222627988" lon="17.09748131135244"><ele>117.0</ele><time>2026-05-03T13:23:41Z</time></trkpt><trkpt lat="51.1363633092978" lon="17.097420007976105"><ele>116.66666666666667</ele><time>2026-05-03T13:23:42Z</time></trkpt><trkpt lat="51.13643389016617" lon="17.097364366901516"><ele>116.33333333333334</ele><time>2026-05-03T13:23:43Z</time></trkpt><trkpt lat="51.136503015845555" lon="17.0973078448158"><ele>116.0</ele><time>2026-05-03T13:23:44Z</time></trkpt><trkpt lat="51.13657392454102" lon="17.097253781335013"><ele>115.66666666666667</ele><time>2026-05-03T13:23:45Z</time></trkpt><trkpt lat="51.13664709113098" lon="17.097193810515346"><ele>115.33333333333334</ele><time>2026-05-03T13:23:46Z</time></trkpt><trkpt lat="51.136718236197716" lon="17.0971396788651"><ele>115.0</ele><time>2026-05-03T13:23:47Z</time></trkpt><trkpt lat="51.13679078976902" lon="17.097089958977538"><ele>115.00000000000001</ele><time>2026-05-03T13:23:48Z</time></trkpt><trkpt lat="51.13686136446648" lon="17.097039284530346"><ele>115.0</ele><time>2026-05-03T13:23:49Z</time></trkpt><trkpt lat="51.136938113615045" lon="17.096981048382254"><ele>115.0</ele><time>2026-05-03T13:23:50Z</time></trkpt><trkpt lat="51.1370079302571" lon="17.09692437177489"><ele>115.0</ele><time>2026-05-03T13:23:51Z</time></trkpt><trkpt lat="51.1370827680811" lon="17.096865508949865"><ele>115.00000000000001</ele><time>2026-05-03T13:23:52Z</time></trkpt><trkpt lat="51.13715710318847" lon="17.096803886203336"><ele>115.0</ele><time>2026-05-03T13:23:53Z</time></trkpt><trkpt lat="51.13723043303531" lon="17.096743516651657"><ele>115.00000000000001</ele><time>2026-05-03T13:23:54Z</time></trkpt><trkpt lat="51.137304904977356" lon="17.09668465884851"><ele>115.0</ele><time>2026-05-03T13:23:55Z</time></trkpt><trkpt lat="51.13738131095329" lon="17.096625598958816"><ele>115.0</ele><time>2026-05-03T13:23:56Z</time></trkpt><trkpt lat="51.1374549652769" lon="17.096565203232398"><ele>115.0</ele><time>2026-05-03T13:23:57Z</time></trkpt><trkpt lat="51.13753440253617" lon="17.096508117550123"><ele>115.00000000000001</ele><time>2026-05-03T13:23:58Z</time></trkpt><trkpt lat="51.13761289387911" lon="17.09644708458162"><ele>115.0</ele><time>2026-05-03T13:23:59Z</time></trkpt><trkpt lat="51.13768982648691" lon="17.096386727661336"><ele>115.16666666666667</ele><time>2026-05-03T13:24:00Z</time></trkpt><trkpt lat="51.137767573287064" lon="17.09632311958872"><ele>115.33333333333334</ele><time>2026-05-03T13:24:01Z</time></trkpt><trkpt lat="51.137843891397765" lon="17.096259626757025"><ele>115.5</ele><time>2026-05-03T13:24:02Z</time></trkpt><trkpt lat="51.13792287076738" lon="17.09620123872979"><ele>115.66666666666666</ele><time>2026-05-03T13:24:03Z</time></trkpt><trkpt lat="51.138000720831265" lon="17.096142040779508"><ele>115.83333333333333</ele><time>2026-05-03T13:24:04Z</time></trkpt><trkpt lat="51.13807941764715" lon="17.096080820128744"><ele>116.0</ele><time>2026-05-03T13:24:05Z</time></trkpt><trkpt lat="51.138159192102336" lon="17.096021877932703"><ele>115.99999999999999</ele><time>2026-05-03T13:24:06Z</time></trkpt><trkpt lat="51.13823852147958" lon="17.095960602919167"><ele>116.0</ele><time>2026-05-03T13:24:07Z</time></trkpt><trkpt lat="51.13831819137838" lon="17.095896780324043"><ele>116.0</ele><time>2026-05-03T13:24:08Z</time></trkpt><trkpt lat="51.138396774622386" lon="17.095834296962444"><ele>116.0</ele><time>2026-05-03T13:24:09Z</time></trkpt><trkpt lat="51.1384762675922" lon="17.095770573438383"><ele>115.99999999999999</ele><time>2026-05-03T13:24:10Z</time></trkpt><trkpt lat="51.138555547442984" lon="17.09570833033582"><ele>116.0</ele><time>2026-05-03T13:24:11Z</time></trkpt><trkpt lat="51.13863307192429" lon="17.09564534641455"><ele>115.99999999999999</ele><time>2026-05-03T13:24:12Z</time></trkpt><trkpt lat="51.13871380026109" lon="17.095584573924604"><ele>116.0</ele><time>2026-05-03T13:24:13Z</time></trkpt><trkpt lat="51.13879254665139" lon="17.09552094764893"><ele>116.0</ele><time>2026-05-03T13:24:14Z</time></trkpt><trkpt lat="51.138873161394415" lon="17.095456202235184"><ele>116.0</ele><time>2026-05-03T13:24:15Z</time></trkpt><trkpt lat="51.13895202971361" lon="17.095391872456357"><ele>115.99999999999999</ele><time>2026-05-03T13:24:16Z</time></trkpt><trkpt lat="51.13903099032534" lon="17.095331459971273"><ele>116.0</ele><time>2026-05-03T13:24:17Z</time></trkpt><trkpt lat="51.139108457984086" lon="17.09527186362816"><ele>115.99999999999999</ele><time>2026-05-03T13:24:18Z</time></trkpt><trkpt lat="51.13918801959816" lon="17.095212418831615"><ele>116.0</ele><time>2026-05-03T13:24:19Z</time></trkpt><trkpt lat="51.13926682012105" lon="17.095158848575924"><ele>116.0</ele><time>2026-05-03T13:24:20Z</time></trkpt><trkpt lat="51.1393471557172" lon="17.095096831345554"><ele>116.0</ele><time>2026-05-03T13:24:21Z</time></trkpt><trkpt lat="51.139425021070295" lon="17.095030707520525"><ele>115.99999999999999</ele><time>2026-05-03T13:24:22Z</time></trkpt><trkpt lat="51.1395024071705" lon="17.09496317376234"><ele>116.0</ele><time>2026-05-03T13:24:23Z</time></trkpt><trkpt lat="51.139582547242135" lon="17.094898897092182"><ele>115.99999999999999</ele><time>2026-05-03T13:24:24Z</time></trkpt><trkpt lat="51.13966142830653" lon="17.094835185123195"><ele>116.0</ele><time>2026-05-03T13:24:25Z</time></trkpt><trkpt lat="51.13974217626635" lon="17.094771053343493"><ele>116.0</ele><time>2026-05-03T13:24:26Z</time></trkpt><trkpt lat="51.13982279429065" lon="17.09470980182483"><ele>116.0</ele><time>2026-05-03T13:24:27Z</time></trkpt><trkpt lat="51.1399040282799" lon="17.094645067879394"><ele>115.99999999999999</ele><time>2026-05-03T13:24:28Z</time></trkpt><trkpt lat="51.13998338965334" lon="17.094576363116893"><ele>116.0</ele><time>2026-05-03T13:24:29Z</time></trkpt><trkpt lat="51.14006402773794" lon="17.09451372161767"><ele>115.99999999999999</ele><time>2026-05-03T13:24:30Z</time></trkpt><trkpt lat="51.14014490428446" lon="17.094453060269707"><ele>116.0</ele><time>2026-05-03T13:24:31Z</time></trkpt><trkpt lat="51.140225521056244" lon="17.09439238821631"><ele>116.0</ele><time>2026-05-03T13:24:32Z</time></trkpt><trkpt lat="51.14030149864109" lon="17.094327013722264"><ele>116.0</ele><time>2026-05-03T13:24:33Z</time></trkpt><trkpt lat="51.1403758634061" lon="17.09426216238444"><ele>115.99999999999999</ele><time>2026-05-03T13:24:34Z</time></trkpt><trkpt lat="51.14045128087051" lon="17.094202845908086"><ele>116.0</ele><time>2026-05-03T13:24:35Z</time></trkpt><trkpt lat="51.14053310063516" lon="17.094148920719817"><ele>116.16666666666666</ele><time>2026-05-03T13:24:36Z</time></trkpt><trkpt lat="51.14060645649371" lon="17.0940844477304"><ele>116.33333333333333</ele><time>2026-05-03T13:24:37Z</time></trkpt><trkpt lat="51.14068392644764" lon="17.094023954287024"><ele>116.5</ele><time>2026-05-03T13:24:38Z</time></trkpt><trkpt lat="51.140760241404216" lon="17.093967521021018"><ele>116.66666666666666</ele><time>2026-05-03T13:24:39Z</time></trkpt><trkpt lat="51.14083422360711" lon="17.093908049033853"><ele>116.83333333333333</ele><time>2026-05-03T13:24:40Z</time></trkpt><trkpt lat="51.14090747227528" lon="17.093847890372082"><ele>117.0</ele><time>2026-05-03T13:24:41Z</time></trkpt><trkpt lat="51.14097985299803" lon="17.093792614946423"><ele>117.0</ele><time>2026-05-03T13:24:42Z</time></trkpt><trkpt lat="51.14104883454053" lon="17.093740310175242"><ele>117.00000000000001</ele><time>2026-05-03T13:24:43Z</time></trkpt><trkpt lat="51.14111136046238" lon="17.093689017563282"><ele>117.0</ele><time>2026-05-03T13:24:44Z</time></trkpt><trkpt lat="51.141172324039594" lon="17.093643428355303"><ele>117.0</ele><time>2026-05-03T13:24:45Z</time></trkpt><trkpt lat="51.14123147496165" lon="17.093596729196847"><ele>117.00000000000001</ele><time>2026-05-03T13:24:46Z</time></trkpt><trkpt lat="51.14129201505553" lon="17.093548298206027"><ele>117.0</ele><time>2026-05-03T13:24:47Z</time></trkpt><trkpt lat="51.14135338968606" lon="17.093503327921873"><ele>117.0</ele><time>2026-05-03T13:24:48Z</time></trkpt><trkpt lat="51.141414535549316" lon="17.093458098516166"><ele>117.0</ele><time>2026-05-03T13:24:49Z</time></trkpt><trkpt lat="51.14147425170795" lon="17.093409055147976"><ele>117.00000000000001</ele><time>2026-05-03T13:24:50Z</time></trkpt><trkpt lat="51.141533273013195" lon="17.09336270896118"><ele>117.0</ele><time>2026-05-03T13:24:51Z</time></trkpt><trkpt lat="51.14159234876295" lon="17.093316481915515"><ele>117.0</ele><time>2026-05-03T13:24:52Z</time></trkpt><trkpt lat="51.1416483112347" lon="17.093268399127123"><ele>117.00000000000001</ele><time>2026-05-03T13:24:53Z</time></trkpt><trkpt lat="51.14171066201419" lon="17.093222996838726"><ele>117.0</ele><time>2026-05-03T13:24:54Z</time></trkpt><trkpt lat="51.14177219250823" lon="17.09317435712792"><ele>117.0</ele><time>2026-05-03T13:24:55Z</time></trkpt><trkpt lat="51.141836136586974" lon="17.09312114687725"><ele>116.83333333333333</ele><time>2026-05-03T13:24:56Z</time></trkpt><trkpt lat="51.14190142717378" lon="17.093070331592347"><ele>116.66666666666666</ele><time>2026-05-03T13:24:57Z</time></trkpt><trkpt lat="51.14196714667164" lon="17.093017546299237"><ele>116.5</ele><time>2026-05-03T13:24:58Z</time></trkpt><trkpt lat="51.14203448550633" lon="17.09296343778607"><ele>116.33333333333333</ele><time>2026-05-03T13:24:59Z</time></trkpt><trkpt lat="51.14210270119049" lon="17.092911153453482"><ele>116.16666666666666</ele><time>2026-05-03T13:25:00Z</time></trkpt><trkpt lat="51.14217292753515" lon="17.092856784926376"><ele>116.0</ele><time>2026-05-03T13:25:01Z</time></trkpt><trkpt lat="51.14224529519037" lon="17.0927976064185"><ele>115.99999999999999</ele><time>2026-05-03T13:25:02Z</time></trkpt><trkpt lat="51.14231668225648" lon="17.092734310912835"><ele>116.0</ele><time>2026-05-03T13:25:03Z</time></trkpt><trkpt lat="51.14238801702844" lon="17.092659518079852"><ele>116.0</ele><time>2026-05-03T13:25:04Z</time></trkpt><trkpt lat="51.142455775365846" lon="17.092571663242943"><ele>116.0</ele><time>2026-05-03T13:25:05Z</time></trkpt><trkpt lat="51.142522572177526" lon="17.092473085269948"><ele>115.99999999999999</ele><time>2026-05-03T13:25:06Z</time></trkpt><trkpt lat="51.14259052950596" lon="17.09237086933166"><ele>116.0</ele><time>2026-05-03T13:25:07Z</time></trkpt><trkpt lat="51.14265802718719" lon="17.09225693804941"><ele>116.19999999999999</ele><time>2026-05-03T13:25:08Z</time></trkpt><trkpt lat="51.14271915455321" lon="17.092127573397914"><ele>116.39999999999999</ele><time>2026-05-03T13:25:09Z</time></trkpt><trkpt lat="51.142768516282906" lon="17.091984414101574"><ele>116.6</ele><time>2026-05-03T13:25:10Z</time></trkpt><trkpt lat="51.142809354251796" lon="17.091838864802945"><ele>116.8</ele><time>2026-05-03T13:25:11Z</time></trkpt><trkpt lat="51.14283621664504" lon="17.091700043190173"><ele>117.0</ele><time>2026-05-03T13:25:12Z</time></trkpt><trkpt lat="51.14285993336205" lon="17.09156748636082"><ele>117.39999999999999</ele><time>2026-05-03T13:25:13Z</time></trkpt><trkpt lat="51.14288627161092" lon="17.091434555056395"><ele>117.79999999999998</ele><time>2026-05-03T13:25:14Z</time></trkpt><trkpt lat="51.14291737952475" lon="17.091301159248978"><ele>118.2</ele><time>2026-05-03T13:25:15Z</time></trkpt><trkpt lat="51.14295087725065" lon="17.091165787641653"><ele>118.6</ele><time>2026-05-03T13:25:16Z</time></trkpt><trkpt lat="51.14297544522875" lon="17.091024243211077"><ele>119.0</ele><time>2026-05-03T13:25:17Z</time></trkpt><trkpt lat="51.14299470121249" lon="17.090882087587687"><ele>120.0</ele><time>2026-05-03T13:25:18Z</time></trkpt><trkpt lat="51.143015054025305" lon="17.09074082276396"><ele>121.0</ele><time>2026-05-03T13:25:19Z</time></trkpt><trkpt lat="51.143040382844674" lon="17.090601032184185"><ele>122.0</ele><time>2026-05-03T13:25:20Z</time></trkpt><trkpt lat="51.14306444374941" lon="17.090465509025723"><ele>123.0</ele><time>2026-05-03T13:25:21Z</time></trkpt><trkpt lat="51.14308941636589" lon="17.090325208689503"><ele>124.0</ele><time>2026-05-03T13:25:22Z</time></trkpt><trkpt lat="51.14311317958571" lon="17.090182066450172"><ele>124.0</ele><time>2026-05-03T13:25:23Z</time></trkpt><trkpt lat="51.14313363871833" lon="17.090042229247917"><ele>124.0</ele><time>2026-05-03T13:25:24Z</time></trkpt><trkpt lat="51.14315397601262" lon="17.089900361048883"><ele>124.0</ele><time>2026-05-03T13:25:25Z</time></trkpt><trkpt lat="51.143174895089814" lon="17.089760935089416"><ele>124.0</ele><time>2026-05-03T13:25:26Z</time></trkpt><trkpt lat="51.14319515089194" lon="17.089620706311237"><ele>124.0</ele><time>2026-05-03T13:25:27.001Z</time></trkpt><trkpt lat="51.143215389602084" lon="17.08947919251556"><ele>123.33333333333334</ele><time>2026-05-03T13:25:28.001Z</time></trkpt><trkpt lat="51.14323344346925" lon="17.089339645246618"><ele>122.66666666666667</ele><time>2026-05-03T13:25:29.001Z</time></trkpt><trkpt lat="51.14324932740335" lon="17.08919970594272"><ele>122.0</ele><time>2026-05-03T13:25:30.001Z</time></trkpt><trkpt lat="51.14325818093025" lon="17.089058209333892"><ele>121.33333333333334</ele><time>2026-05-03T13:25:31.001Z</time></trkpt><trkpt lat="51.14326905067502" lon="17.088923663832535"><ele>120.66666666666667</ele><time>2026-05-03T13:25:32.001Z</time></trkpt><trkpt lat="51.14326783918743" lon="17.088786415568443"><ele>120.0</ele><time>2026-05-03T13:25:33.001Z</time></trkpt><trkpt lat="51.14326425432227" lon="17.088653384513705"><ele>120.0</ele><time>2026-05-03T13:25:34.001Z</time></trkpt><trkpt lat="51.14325518306301" lon="17.08852041720797"><ele>120.0</ele><time>2026-05-03T13:25:35Z</time></trkpt><trkpt lat="51.14324177495419" lon="17.088387678870873"><ele>120.0</ele><time>2026-05-03T13:25:36Z</time></trkpt><trkpt lat="51.14322199374767" lon="17.08825494641483"><ele>120.0</ele><time>2026-05-03T13:25:37Z</time></trkpt><trkpt lat="51.14320223434372" lon="17.088117898664834"><ele>120.0</ele><time>2026-05-03T13:25:38Z</time></trkpt><trkpt lat="51.14318424532863" lon="17.08798302278677"><ele>120.0</ele><time>2026-05-03T13:25:39Z</time></trkpt><trkpt lat="51.14316817149963" lon="17.08784574289069"><ele>120.66666666666667</ele><time>2026-05-03T13:25:40Z</time></trkpt><trkpt lat="51.14315108543111" lon="17.08771004007024"><ele>121.33333333333334</ele><time>2026-05-03T13:25:41Z</time></trkpt><trkpt lat="51.14313521587439" lon="17.08757731202468"><ele>122.0</ele><time>2026-05-03T13:25:42Z</time></trkpt><trkpt lat="51.14311678917596" lon="17.087446018214383"><ele>122.66666666666667</ele><time>2026-05-03T13:25:43Z</time></trkpt><trkpt lat="51.14310047189996" lon="17.087314379690778"><ele>123.33333333333334</ele><time>2026-05-03T13:25:44Z</time></trkpt><trkpt lat="51.14308437453762" lon="17.087184127932606"><ele>124.0</ele><time>2026-05-03T13:25:45Z</time></trkpt><trkpt lat="51.14306397741621" lon="17.087054208500085"><ele>124.00000000000001</ele><time>2026-05-03T13:25:46Z</time></trkpt><trkpt lat="51.143043628675116" lon="17.086920052819682"><ele>124.0</ele><time>2026-05-03T13:25:47Z</time></trkpt><trkpt lat="51.143020377816974" lon="17.0867921688306"><ele>124.0</ele><time>2026-05-03T13:25:48Z</time></trkpt><trkpt lat="51.142992556356475" lon="17.086667245337424"><ele>124.0</ele><time>2026-05-03T13:25:49Z</time></trkpt><trkpt lat="51.14296410169929" lon="17.08654561836034"><ele>124.00000000000001</ele><time>2026-05-03T13:25:50Z</time></trkpt><trkpt lat="51.14293525602518" lon="17.08643207014878"><ele>124.0</ele><time>2026-05-03T13:25:51Z</time></trkpt><trkpt lat="51.142909925975204" lon="17.08630139251611"><ele>123.50000000000001</ele><time>2026-05-03T13:25:52Z</time></trkpt><trkpt lat="51.1428829651314" lon="17.08618112730257"><ele>123.0</ele><time>2026-05-03T13:25:53Z</time></trkpt><trkpt lat="51.1428565274703" lon="17.086055259317007"><ele>122.5</ele><time>2026-05-03T13:25:54Z</time></trkpt><trkpt lat="51.14282975787026" lon="17.085931467325928"><ele>122.0</ele><time>2026-05-03T13:25:55Z</time></trkpt><trkpt lat="51.14280570112901" lon="17.085813614128167"><ele>121.50000000000001</ele><time>2026-05-03T13:25:56Z</time></trkpt><trkpt lat="51.142779683695174" lon="17.085692033815548"><ele>121.0</ele><time>2026-05-03T13:25:57Z</time></trkpt><trkpt lat="51.14275626379009" lon="17.085574752338488"><ele>120.66666666666667</ele><time>2026-05-03T13:25:58Z</time></trkpt><trkpt lat="51.14273143073577" lon="17.085458451456844"><ele>120.33333333333334</ele><time>2026-05-03T13:25:59Z</time></trkpt><trkpt lat="51.142705357684946" lon="17.08534437397629"><ele>120.0</ele><time>2026-05-03T13:26:00Z</time></trkpt><trkpt lat="51.14267880216876" lon="17.085227405367867"><ele>119.66666666666666</ele><time>2026-05-03T13:26:01Z</time></trkpt><trkpt lat="51.14265171595239" lon="17.08511069409471"><ele>119.33333333333333</ele><time>2026-05-03T13:26:02Z</time></trkpt><trkpt lat="51.14263080158172" lon="17.08499231934714"><ele>119.0</ele><time>2026-05-03T13:26:03Z</time></trkpt><trkpt lat="51.14260406885173" lon="17.08487683252197"><ele>118.66666666666666</ele><time>2026-05-03T13:26:04Z</time></trkpt><trkpt lat="51.142575994519085" lon="17.084755663573056"><ele>118.33333333333333</ele><time>2026-05-03T13:26:05Z</time></trkpt><trkpt lat="51.1425481774018" lon="17.084637746251765"><ele>118.0</ele><time>2026-05-03T13:26:06Z</time></trkpt><trkpt lat="51.142520562557706" lon="17.084519895693234"><ele>117.66666666666666</ele><time>2026-05-03T13:26:07Z</time></trkpt><trkpt lat="51.14249510003358" lon="17.08439908047738"><ele>117.33333333333333</ele><time>2026-05-03T13:26:08Z</time></trkpt><trkpt lat="51.14246826679544" lon="17.084275560705315"><ele>117.0</ele><time>2026-05-03T13:26:09Z</time></trkpt><trkpt lat="51.142444940841145" lon="17.084153001672597"><ele>116.83333333333333</ele><time>2026-05-03T13:26:10Z</time></trkpt><trkpt lat="51.14241401705424" lon="17.08403448596382"><ele>116.66666666666666</ele><time>2026-05-03T13:26:11Z</time></trkpt><trkpt lat="51.14237294733532" lon="17.083931069948"><ele>116.5</ele><time>2026-05-03T13:26:12Z</time></trkpt><trkpt lat="51.142323337555354" lon="17.083833525816576"><ele>116.33333333333333</ele><time>2026-05-03T13:26:13Z</time></trkpt><trkpt lat="51.14226058358626" lon="17.08375999341987"><ele>116.16666666666666</ele><time>2026-05-03T13:26:14Z</time></trkpt><trkpt lat="51.14219353367549" lon="17.083697862471123"><ele>116.0</ele><time>2026-05-03T13:26:15Z</time></trkpt><trkpt lat="51.142124785757154" lon="17.08365237001974"><ele>116.16666666666666</ele><time>2026-05-03T13:26:16Z</time></trkpt><trkpt lat="51.14205022011113" lon="17.083609199830285"><ele>116.33333333333333</ele><time>2026-05-03T13:26:17Z</time></trkpt><trkpt lat="51.141985840741555" lon="17.08355129822524"><ele>116.5</ele><time>2026-05-03T13:26:18Z</time></trkpt><trkpt lat="51.141926969313" lon="17.0834741151935"><ele>116.66666666666666</ele><time>2026-05-03T13:26:19Z</time></trkpt><trkpt lat="51.14188080679225" lon="17.083376094592186"><ele>116.83333333333333</ele><time>2026-05-03T13:26:20Z</time></trkpt><trkpt lat="51.14184625314412" lon="17.08327158904319"><ele>117.0</ele><time>2026-05-03T13:26:21Z</time></trkpt><trkpt lat="51.14182104645867" lon="17.083151262369206"><ele>117.0</ele><time>2026-05-03T13:26:22Z</time></trkpt><trkpt lat="51.14179495846677" lon="17.083048605267113"><ele>117.00000000000001</ele><time>2026-05-03T13:26:23Z</time></trkpt><trkpt lat="51.14177158113664" lon="17.082929143661683"><ele>117.0</ele><time>2026-05-03T13:26:24Z</time></trkpt><trkpt lat="51.14174206137806" lon="17.082826578236592"><ele>117.0</ele><time>2026-05-03T13:26:25Z</time></trkpt><trkpt lat="51.141708348407235" lon="17.08272743612731"><ele>117.00000000000001</ele><time>2026-05-03T13:26:26Z</time></trkpt><trkpt lat="51.141677887517226" lon="17.082623300843093"><ele>117.0</ele><time>2026-05-03T13:26:27Z</time></trkpt><trkpt lat="51.14164488131468" lon="17.08252309330895"><ele>117.0</ele><time>2026-05-03T13:26:28Z</time></trkpt><trkpt lat="51.14161278486211" lon="17.08242358908978"><ele>116.83333333333333</ele><time>2026-05-03T13:26:29Z</time></trkpt><trkpt lat="51.14158324879399" lon="17.082328604422308"><ele>116.66666666666666</ele><time>2026-05-03T13:26:30Z</time></trkpt><trkpt lat="51.141551262123244" lon="17.08223707208504"><ele>116.5</ele><time>2026-05-03T13:26:31Z</time></trkpt><trkpt lat="51.14152671739366" lon="17.082140922281027"><ele>116.33333333333333</ele><time>2026-05-03T13:26:32Z</time></trkpt><trkpt lat="51.14150624954399" lon="17.0820412243573"><ele>116.16666666666666</ele><time>2026-05-03T13:26:33Z</time></trkpt><trkpt lat="51.1415019707733" lon="17.08193875288515"><ele>116.0</ele><time>2026-05-03T13:26:34Z</time></trkpt><trkpt lat="51.141548895835264" lon="17.081754737123095"><ele>116.00000000000001</ele><time>2026-05-03T13:26:36Z</time></trkpt><trkpt lat="51.141607627377816" lon="17.081705906579927"><ele>116.0</ele><time>2026-05-03T13:26:37Z</time></trkpt><trkpt lat="51.14167394040607" lon="17.08169624113595"><ele>116.00000000000001</ele><time>2026-05-03T13:26:38Z</time></trkpt><trkpt lat="51.14173894969735" lon="17.08170030377377"><ele>116.00000000000001</ele><time>2026-05-03T13:26:39Z</time></trkpt><trkpt lat="51.141804042017625" lon="17.08169492961926"><ele>116.0</ele><time>2026-05-03T13:26:40Z</time></trkpt><trkpt lat="51.141868501224494" lon="17.081680949743312"><ele>116.00000000000001</ele><time>2026-05-03T13:26:41Z</time></trkpt><trkpt lat="51.14193556912909" lon="17.08166561513788"><ele>116.00000000000001</ele><time>2026-05-03T13:26:42Z</time></trkpt><trkpt lat="51.14200617005625" lon="17.081637195339244"><ele>116.00000000000001</ele><time>2026-05-03T13:26:43Z</time></trkpt><trkpt lat="51.14207701278549" lon="17.081622200554367"><ele>116.0</ele><time>2026-05-03T13:26:44Z</time></trkpt><trkpt lat="51.142141944746484" lon="17.08161246577508"><ele>116.00000000000001</ele><time>2026-05-03T13:26:45Z</time></trkpt><trkpt lat="51.14220504940828" lon="17.081601555668712"><ele>116.00000000000001</ele><time>2026-05-03T13:26:46Z</time></trkpt><trkpt lat="51.14227074569645" lon="17.081590173582544"><ele>116.0</ele><time>2026-05-03T13:26:47Z</time></trkpt><trkpt lat="51.142342090016186" lon="17.08158474833585"><ele>116.00000000000001</ele><time>2026-05-03T13:26:48Z</time></trkpt><trkpt lat="51.14241109938886" lon="17.081571634459568"><ele>116.00000000000001</ele><time>2026-05-03T13:26:49Z</time></trkpt><trkpt lat="51.14248539907298" lon="17.08155421507492"><ele>116.33333333333333</ele><time>2026-05-03T13:26:50Z</time></trkpt><trkpt lat="51.1425557541675" lon="17.08152993924446"><ele>116.66666666666666</ele><time>2026-05-03T13:26:51Z</time></trkpt><trkpt lat="51.142633058770876" lon="17.081515248209183"><ele>117.0</ele><time>2026-05-03T13:26:52Z</time></trkpt><trkpt lat="51.14271078269599" lon="17.08150481713656"><ele>117.33333333333334</ele><time>2026-05-03T13:26:53Z</time></trkpt><trkpt lat="51.14279074009354" lon="17.081499434631432"><ele>117.66666666666667</ele><time>2026-05-03T13:26:54Z</time></trkpt><trkpt lat="51.14286901983501" lon="17.081487018116846"><ele>118.0</ele><time>2026-05-03T13:26:55Z</time></trkpt><trkpt lat="51.14295032358726" lon="17.081469004226875"><ele>118.00000000000001</ele><time>2026-05-03T13:26:56Z</time></trkpt><trkpt lat="51.143027682374374" lon="17.081451551394252"><ele>118.0</ele><time>2026-05-03T13:26:57Z</time></trkpt><trkpt lat="51.143108914835395" lon="17.081436003643756"><ele>118.0</ele><time>2026-05-03T13:26:58Z</time></trkpt><trkpt lat="51.14318932532854" lon="17.081421806067638"><ele>118.0</ele><time>2026-05-03T13:26:59Z</time></trkpt><trkpt lat="51.143269455805914" lon="17.08140717659967"><ele>118.00000000000001</ele><time>2026-05-03T13:27:00Z</time></trkpt><trkpt lat="51.14335261975205" lon="17.081389859711866"><ele>118.0</ele><time>2026-05-03T13:27:01Z</time></trkpt><trkpt lat="51.1434340153306" lon="17.08138118095274"><ele>118.00000000000001</ele><time>2026-05-03T13:27:02Z</time></trkpt><trkpt lat="51.1435103231389" lon="17.081368523393174"><ele>118.0</ele><time>2026-05-03T13:27:03Z</time></trkpt><trkpt lat="51.14358961360075" lon="17.081346321666835"><ele>118.0</ele><time>2026-05-03T13:27:04Z</time></trkpt><trkpt lat="51.14366664742208" lon="17.081319678946414"><ele>118.0</ele><time>2026-05-03T13:27:05Z</time></trkpt><trkpt lat="51.14373917142661" lon="17.081268460761372"><ele>118.00000000000001</ele><time>2026-05-03T13:27:06Z</time></trkpt><trkpt lat="51.14380616167259" lon="17.08118804546044"><ele>118.0</ele><time>2026-05-03T13:27:07Z</time></trkpt><trkpt lat="51.14385160554596" lon="17.081078239130537"><ele>118.00000000000001</ele><time>2026-05-03T13:27:08Z</time></trkpt><trkpt lat="51.14389313609363" lon="17.08096412420871"><ele>118.0</ele><time>2026-05-03T13:27:09Z</time></trkpt><trkpt lat="51.14393041564111" lon="17.080845235578362"><ele>118.0</ele><time>2026-05-03T13:27:10Z</time></trkpt><trkpt lat="51.14396729662644" lon="17.080724840795682"><ele>118.0</ele><time>2026-05-03T13:27:11Z</time></trkpt><trkpt lat="51.14400866257926" lon="17.080614357543677"><ele>118.00000000000001</ele><time>2026-05-03T13:27:12Z</time></trkpt><trkpt lat="51.14404942197564" lon="17.08050421214367"><ele>118.0</ele><time>2026-05-03T13:27:13Z</time></trkpt><trkpt lat="51.14409560361144" lon="17.080393090578394"><ele>117.66666666666667</ele><time>2026-05-03T13:27:14Z</time></trkpt><trkpt lat="51.144140752273145" lon="17.080271183131398"><ele>117.33333333333334</ele><time>2026-05-03T13:27:15Z</time></trkpt><trkpt lat="51.14418016558539" lon="17.080162762111335"><ele>117.0</ele><time>2026-05-03T13:27:16Z</time></trkpt><trkpt lat="51.14421846256061" lon="17.080045921343533"><ele>116.66666666666666</ele><time>2026-05-03T13:27:17Z</time></trkpt><trkpt lat="51.14426058334691" lon="17.079926307348423"><ele>116.33333333333333</ele><time>2026-05-03T13:27:18Z</time></trkpt><trkpt lat="51.144297804646165" lon="17.079819705717064"><ele>116.0</ele><time>2026-05-03T13:27:19Z</time></trkpt><trkpt lat="51.14433771439214" lon="17.079700973115827"><ele>115.99999999999999</ele><time>2026-05-03T13:27:20Z</time></trkpt><trkpt lat="51.14437763694097" lon="17.079592010660363"><ele>116.0</ele><time>2026-05-03T13:27:21Z</time></trkpt><trkpt lat="51.144417879138885" lon="17.079480608619406"><ele>116.0</ele><time>2026-05-03T13:27:22Z</time></trkpt><trkpt lat="51.144453661746134" lon="17.079367585664052"><ele>116.0</ele><time>2026-05-03T13:27:23Z</time></trkpt><trkpt lat="51.14449155171365" lon="17.079252237453115"><ele>115.99999999999999</ele><time>2026-05-03T13:27:24Z</time></trkpt><trkpt lat="51.14453084094731" lon="17.079142125092996"><ele>116.0</ele><time>2026-05-03T13:27:25Z</time></trkpt><trkpt lat="51.144571479146855" lon="17.079030712933392"><ele>115.99999999999999</ele><time>2026-05-03T13:27:26Z</time></trkpt><trkpt lat="51.144610723903476" lon="17.078922900433728"><ele>116.0</ele><time>2026-05-03T13:27:27Z</time></trkpt><trkpt lat="51.144652236522795" lon="17.078812533729625"><ele>116.0</ele><time>2026-05-03T13:27:28Z</time></trkpt><trkpt lat="51.14469197639063" lon="17.078699931580772"><ele>116.0</ele><time>2026-05-03T13:27:29Z</time></trkpt><trkpt lat="51.14472995387817" lon="17.078594685283075"><ele>115.99999999999999</ele><time>2026-05-03T13:27:30Z</time></trkpt><trkpt lat="51.14476867288482" lon="17.078480159680378"><ele>116.0</ele><time>2026-05-03T13:27:31Z</time></trkpt><trkpt lat="51.144806932998584" lon="17.07836560950241"><ele>115.99999999999999</ele><time>2026-05-03T13:27:32Z</time></trkpt><trkpt lat="51.144846555402374" lon="17.078257094494063"><ele>116.0</ele><time>2026-05-03T13:27:33Z</time></trkpt><trkpt lat="51.144887497490004" lon="17.07814831461006"><ele>116.0</ele><time>2026-05-03T13:27:34Z</time></trkpt><trkpt lat="51.14492906127614" lon="17.078033438598325"><ele>116.0</ele><time>2026-05-03T13:27:35Z</time></trkpt><trkpt lat="51.144967480809484" lon="17.07791915120202"><ele>115.99999999999999</ele><time>2026-05-03T13:27:36Z</time></trkpt><trkpt lat="51.14500723712393" lon="17.077804743140096"><ele>116.0</ele><time>2026-05-03T13:27:37Z</time></trkpt><trkpt lat="51.145048302383124" lon="17.077688694311963"><ele>115.83333333333333</ele><time>2026-05-03T13:27:38Z</time></trkpt><trkpt lat="51.145089322759915" lon="17.07757890834441"><ele>115.66666666666666</ele><time>2026-05-03T13:27:39Z</time></trkpt><trkpt lat="51.145130490875005" lon="17.077461631550992"><ele>115.5</ele><time>2026-05-03T13:27:40Z</time></trkpt><trkpt lat="51.145170709838496" lon="17.07734783994341"><ele>115.33333333333334</ele><time>2026-05-03T13:27:41Z</time></trkpt><trkpt lat="51.14521122405078" lon="17.077233345768995"><ele>115.16666666666667</ele><time>2026-05-03T13:27:42Z</time></trkpt><trkpt lat="51.145251657738946" lon="17.07711748957345"><ele>115.0</ele><time>2026-05-03T13:27:43Z</time></trkpt><trkpt lat="51.14529229452175" lon="17.07700603397519"><ele>115.00000000000001</ele><time>2026-05-03T13:27:44Z</time></trkpt><trkpt lat="51.14533332464127" lon="17.076891872697068"><ele>115.0</ele><time>2026-05-03T13:27:45Z</time></trkpt><trkpt lat="51.14537437848317" lon="17.076776590242673"><ele>115.0</ele><time>2026-05-03T13:27:46Z</time></trkpt><trkpt lat="51.14541460045827" lon="17.076667809767173"><ele>115.0</ele><time>2026-05-03T13:27:47Z</time></trkpt><trkpt lat="51.1454569149339" lon="17.07655240115728"><ele>115.00000000000001</ele><time>2026-05-03T13:27:48Z</time></trkpt><trkpt lat="51.14549696270268" lon="17.076434845055726"><ele>115.0</ele><time>2026-05-03T13:27:49Z</time></trkpt><trkpt lat="51.145534827508214" lon="17.076323396381778"><ele>114.83333333333334</ele><time>2026-05-03T13:27:50Z</time></trkpt><trkpt lat="51.145575270012664" lon="17.076208489073945"><ele>114.66666666666667</ele><time>2026-05-03T13:27:51Z</time></trkpt><trkpt lat="51.14561411444884" lon="17.07609516365536"><ele>114.5</ele><time>2026-05-03T13:27:52Z</time></trkpt><trkpt lat="51.145653925038104" lon="17.07598290613106"><ele>114.33333333333334</ele><time>2026-05-03T13:27:53Z</time></trkpt><trkpt lat="51.14569588731724" lon="17.07587691875735"><ele>114.16666666666667</ele><time>2026-05-03T13:27:54Z</time></trkpt><trkpt lat="51.1457339183912" lon="17.075770927949886"><ele>114.0</ele><time>2026-05-03T13:27:55Z</time></trkpt><trkpt lat="51.145773201558484" lon="17.07566048991013"><ele>114.0</ele><time>2026-05-03T13:27:56Z</time></trkpt><trkpt lat="51.145811565432474" lon="17.075550513401776"><ele>114.0</ele><time>2026-05-03T13:27:57Z</time></trkpt><trkpt lat="51.14585052991667" lon="17.075443894982378"><ele>114.0</ele><time>2026-05-03T13:27:58Z</time></trkpt><trkpt lat="51.14589062490232" lon="17.07533600936637"><ele>114.0</ele><time>2026-05-03T13:27:59Z</time></trkpt><trkpt lat="51.14592759567569" lon="17.075225947047763"><ele>114.0</ele><time>2026-05-03T13:28:00Z</time></trkpt><trkpt lat="51.145965818145115" lon="17.07511881290337"><ele>114.0</ele><time>2026-05-03T13:28:01Z</time></trkpt><trkpt lat="51.14600445704679" lon="17.07501382495239"><ele>114.0</ele><time>2026-05-03T13:28:02Z</time></trkpt><trkpt lat="51.14604100550437" lon="17.074906931103843"><ele>113.99999999999999</ele><time>2026-05-03T13:28:03Z</time></trkpt><trkpt lat="51.14607808822457" lon="17.07480463639998"><ele>114.0</ele><time>2026-05-03T13:28:04Z</time></trkpt><trkpt lat="51.14611311850181" lon="17.074707512492655"><ele>114.0</ele><time>2026-05-03T13:28:05Z</time></trkpt><trkpt lat="51.14614902898773" lon="17.07460634778638"><ele>113.99999999999999</ele><time>2026-05-03T13:28:06Z</time></trkpt><trkpt lat="51.14618167170849" lon="17.074504511024777"><ele>114.0</ele><time>2026-05-03T13:28:07Z</time></trkpt><trkpt lat="51.14621620465454" lon="17.074409278817484"><ele>114.0</ele><time>2026-05-03T13:28:08Z</time></trkpt><trkpt lat="51.146252644292524" lon="17.074316026243356"><ele>114.0</ele><time>2026-05-03T13:28:09Z</time></trkpt><trkpt lat="51.14628762008449" lon="17.07422070149001"><ele>114.0</ele><time>2026-05-03T13:28:10Z</time></trkpt><trkpt lat="51.14632360199989" lon="17.074131177064316"><ele>114.0</ele><time>2026-05-03T13:28:11Z</time></trkpt><trkpt lat="51.14638683618212" lon="17.073980735711157"><ele>114.0</ele><time>2026-05-03T13:28:13Z</time></trkpt><trkpt lat="51.14641598095261" lon="17.073888784077848"><ele>114.0</ele><time>2026-05-03T13:28:15Z</time></trkpt><trkpt lat="51.14634570720306" lon="17.0736947123964"><ele>114.0</ele><time>2026-05-03T13:28:22Z</time></trkpt><trkpt lat="51.14627046416729" lon="17.07360576392543"><ele>114.0</ele><time>2026-05-03T13:28:24Z</time></trkpt><trkpt lat="51.14619666955933" lon="17.073494660153077"><ele>114.0</ele><time>2026-05-03T13:28:26Z</time></trkpt><trkpt lat="51.14611112049546" lon="17.073387620439217"><ele>114.0</ele><time>2026-05-03T13:28:28Z</time></trkpt><trkpt lat="51.145998949892686" lon="17.073278683483764"><ele>114.0</ele><time>2026-05-03T13:28:30Z</time></trkpt><trkpt lat="51.14593468257429" lon="17.073227301093656"><ele>114.0</ele><time>2026-05-03T13:28:31Z</time></trkpt><trkpt lat="51.14587191989655" lon="17.07316454586423"><ele>113.99999999999999</ele><time>2026-05-03T13:28:32Z</time></trkpt><trkpt lat="51.14581042027073" lon="17.073099979996517"><ele>114.0</ele><time>2026-05-03T13:28:33Z</time></trkpt><trkpt lat="51.14574895662684" lon="17.073043804539196"><ele>114.0</ele><time>2026-05-03T13:28:34Z</time></trkpt><trkpt lat="51.14568587186543" lon="17.072987239164217"><ele>113.99999999999999</ele><time>2026-05-03T13:28:35Z</time></trkpt><trkpt lat="51.14562197143829" lon="17.072935277359935"><ele>114.0</ele><time>2026-05-03T13:28:36Z</time></trkpt><trkpt lat="51.14555956956462" lon="17.07288734771109"><ele>114.0</ele><time>2026-05-03T13:28:37Z</time></trkpt><trkpt lat="51.14549920179629" lon="17.072836908638717"><ele>113.85714285714285</ele><time>2026-05-03T13:28:38Z</time></trkpt><trkpt lat="51.14543848983491" lon="17.072781163862814"><ele>113.7142857142857</ele><time>2026-05-03T13:28:39Z</time></trkpt><trkpt lat="51.14538211701747" lon="17.072728400914315"><ele>113.57142857142857</ele><time>2026-05-03T13:28:40Z</time></trkpt><trkpt lat="51.14532010896937" lon="17.072675737882538"><ele>113.42857142857142</ele><time>2026-05-03T13:28:41Z</time></trkpt><trkpt lat="51.145259983622395" lon="17.072629922475052"><ele>113.28571428571428</ele><time>2026-05-03T13:28:42Z</time></trkpt><trkpt lat="51.14520053196943" lon="17.072582613069336"><ele>113.14285714285714</ele><time>2026-05-03T13:28:43Z</time></trkpt><trkpt lat="51.14514231388848" lon="17.072535982038808"><ele>113.0</ele><time>2026-05-03T13:28:44Z</time></trkpt><trkpt lat="51.145078529644096" lon="17.072488090828937"><ele>113.28571428571429</ele><time>2026-05-03T13:28:45Z</time></trkpt><trkpt lat="51.145016840346464" lon="17.07242739102109"><ele>113.57142857142856</ele><time>2026-05-03T13:28:46Z</time></trkpt><trkpt lat="51.14495514293911" lon="17.07237038545155"><ele>113.85714285714285</ele><time>2026-05-03T13:28:47Z</time></trkpt><trkpt lat="51.144894738958655" lon="17.07232268376129"><ele>114.14285714285714</ele><time>2026-05-03T13:28:48Z</time></trkpt><trkpt lat="51.144831773274376" lon="17.072265867045704"><ele>114.42857142857142</ele><time>2026-05-03T13:28:49Z</time></trkpt><trkpt lat="51.144769498554936" lon="17.072211930541997"><ele>114.7142857142857</ele><time>2026-05-03T13:28:50Z</time></trkpt><trkpt lat="51.144708420159375" lon="17.072161677069317"><ele>114.99999999999999</ele><time>2026-05-03T13:28:51Z</time></trkpt><trkpt lat="51.14464513742344" lon="17.07211863585545"><ele>115.16666666666667</ele><time>2026-05-03T13:28:52Z</time></trkpt><trkpt lat="51.14458366257521" lon="17.072071808963347"><ele>115.33333333333334</ele><time>2026-05-03T13:28:53Z</time></trkpt><trkpt lat="51.14452483309006" lon="17.072015837872247"><ele>115.5</ele><time>2026-05-03T13:28:54Z</time></trkpt><trkpt lat="51.14441434108208" lon="17.071950300679195"><ele>115.66666666666666</ele><time>2026-05-03T13:28:56Z</time></trkpt><trkpt lat="51.14435239514387" lon="17.07188840268452"><ele>115.83333333333333</ele><time>2026-05-03T13:28:57Z</time></trkpt><trkpt lat="51.14429033287856" lon="17.071841006903448"><ele>116.0</ele><time>2026-05-03T13:28:58Z</time></trkpt><trkpt lat="51.14422976628169" lon="17.071789299687346"><ele>115.99999999999999</ele><time>2026-05-03T13:28:59Z</time></trkpt><trkpt lat="51.14416651184135" lon="17.071736222305262"><ele>116.0</ele><time>2026-05-03T13:29:00Z</time></trkpt><trkpt lat="51.14409715920929" lon="17.071677430424746"><ele>116.0</ele><time>2026-05-03T13:29:01Z</time></trkpt><trkpt lat="51.14403745593184" lon="17.071614957581822"><ele>116.0</ele><time>2026-05-03T13:29:02Z</time></trkpt><trkpt lat="51.143968135413125" lon="17.07156462131612"><ele>115.99999999999999</ele><time>2026-05-03T13:29:03Z</time></trkpt><trkpt lat="51.143901283753415" lon="17.071510467881687"><ele>116.0</ele><time>2026-05-03T13:29:04Z</time></trkpt><trkpt lat="51.14383365264692" lon="17.07144692063612"><ele>115.49999999999999</ele><time>2026-05-03T13:29:05Z</time></trkpt><trkpt lat="51.14376812803926" lon="17.071386420077705"><ele>115.0</ele><time>2026-05-03T13:29:06Z</time></trkpt><trkpt lat="51.1437022358334" lon="17.071329680030786"><ele>114.5</ele><time>2026-05-03T13:29:07Z</time></trkpt><trkpt lat="51.14363593995748" lon="17.071271821158653"><ele>114.0</ele><time>2026-05-03T13:29:08Z</time></trkpt><trkpt lat="51.14356842597628" lon="17.071217207758625"><ele>113.49999999999999</ele><time>2026-05-03T13:29:09Z</time></trkpt><trkpt lat="51.14350136179595" lon="17.07116634373811"><ele>113.0</ele><time>2026-05-03T13:29:10Z</time></trkpt><trkpt lat="51.14343252666335" lon="17.071112855000194"><ele>113.0</ele><time>2026-05-03T13:29:11Z</time></trkpt><trkpt lat="51.14336272935766" lon="17.07107309340271"><ele>113.0</ele><time>2026-05-03T13:29:12Z</time></trkpt><trkpt lat="51.14329295477363" lon="17.071032477574075"><ele>113.0</ele><time>2026-05-03T13:29:13Z</time></trkpt><trkpt lat="51.143219170306054" lon="17.07100339857469"><ele>113.0</ele><time>2026-05-03T13:29:14Z</time></trkpt><trkpt lat="51.14314798010013" lon="17.070988957606748"><ele>113.0</ele><time>2026-05-03T13:29:15Z</time></trkpt><trkpt lat="51.14307364357795" lon="17.07097562253965"><ele>113.0</ele><time>2026-05-03T13:29:16Z</time></trkpt><trkpt lat="51.14300150376987" lon="17.07095743291282"><ele>113.0</ele><time>2026-05-03T13:29:17Z</time></trkpt><trkpt lat="51.14293494427635" lon="17.070942836832536"><ele>113.28571428571429</ele><time>2026-05-03T13:29:18Z</time></trkpt><trkpt lat="51.14286139348244" lon="17.070928554739346"><ele>113.57142857142856</ele><time>2026-05-03T13:29:19Z</time></trkpt><trkpt lat="51.1427886774794" lon="17.070911204424625"><ele>113.85714285714285</ele><time>2026-05-03T13:29:20Z</time></trkpt><trkpt lat="51.14271805062349" lon="17.070887592598876"><ele>114.14285714285714</ele><time>2026-05-03T13:29:21Z</time></trkpt><trkpt lat="51.14264758326061" lon="17.07086598468777"><ele>114.42857142857142</ele><time>2026-05-03T13:29:22Z</time></trkpt><trkpt lat="51.142572606473195" lon="17.07085263678611"><ele>114.7142857142857</ele><time>2026-05-03T13:29:23Z</time></trkpt><trkpt lat="51.14250064283483" lon="17.070834133877216"><ele>114.99999999999999</ele><time>2026-05-03T13:29:24Z</time></trkpt><trkpt lat="51.14243015428941" lon="17.070808748741424"><ele>115.50000000000001</ele><time>2026-05-03T13:29:25Z</time></trkpt><trkpt lat="51.1423559176178" lon="17.07078694929425"><ele>116.0</ele><time>2026-05-03T13:29:26Z</time></trkpt><trkpt lat="51.14227905543961" lon="17.070768113970924"><ele>116.5</ele><time>2026-05-03T13:29:27Z</time></trkpt><trkpt lat="51.14221012559742" lon="17.070749096450342"><ele>117.0</ele><time>2026-05-03T13:29:28Z</time></trkpt><trkpt lat="51.14214129639378" lon="17.070731231787715"><ele>117.50000000000001</ele><time>2026-05-03T13:29:29Z</time></trkpt><trkpt lat="51.14205411320156" lon="17.070706191145028"><ele>118.0</ele><time>2026-05-03T13:29:30Z</time></trkpt><trkpt lat="51.14197774415018" lon="17.070685621499344"><ele>118.0</ele><time>2026-05-03T13:29:31Z</time></trkpt><trkpt lat="51.14190766001607" lon="17.07066584443352"><ele>118.0</ele><time>2026-05-03T13:29:32Z</time></trkpt><trkpt lat="51.141839754249794" lon="17.070642040566653"><ele>118.0</ele><time>2026-05-03T13:29:33Z</time></trkpt><trkpt lat="51.14176292642204" lon="17.070628324423332"><ele>118.0</ele><time>2026-05-03T13:29:34Z</time></trkpt><trkpt lat="51.14168618066526" lon="17.070606995264168"><ele>118.0</ele><time>2026-05-03T13:29:35Z</time></trkpt><trkpt lat="51.14161886628137" lon="17.070592301943826"><ele>118.0</ele><time>2026-05-03T13:29:36Z</time></trkpt><trkpt lat="51.14154319368822" lon="17.070573257174445"><ele>118.0</ele><time>2026-05-03T13:29:37Z</time></trkpt><trkpt lat="51.14146996299786" lon="17.070554630762977"><ele>117.83333333333334</ele><time>2026-05-03T13:29:38Z</time></trkpt><trkpt lat="51.14139615884882" lon="17.070516323399076"><ele>117.66666666666667</ele><time>2026-05-03T13:29:39.001Z</time></trkpt><trkpt lat="51.1413226891251" lon="17.07048047866774"><ele>117.5</ele><time>2026-05-03T13:29:40.001Z</time></trkpt><trkpt lat="51.14124944374533" lon="17.07044741098376"><ele>117.33333333333334</ele><time>2026-05-03T13:29:41.001Z</time></trkpt><trkpt lat="51.141177491109715" lon="17.07041966327765"><ele>117.16666666666667</ele><time>2026-05-03T13:29:42.001Z</time></trkpt><trkpt lat="51.14110608786974" lon="17.07039087156407"><ele>117.0</ele><time>2026-05-03T13:29:43.001Z</time></trkpt><trkpt lat="51.14103481488311" lon="17.070360631399453"><ele>117.0</ele><time>2026-05-03T13:29:44.001Z</time></trkpt><trkpt lat="51.140963169775894" lon="17.070328769853944"><ele>117.00000000000001</ele><time>2026-05-03T13:29:45.001Z</time></trkpt><trkpt lat="51.14089097446712" lon="17.070293316938937"><ele>117.0</ele><time>2026-05-03T13:29:46.001Z</time></trkpt><trkpt lat="51.140820891088346" lon="17.070265113354687"><ele>117.0</ele><time>2026-05-03T13:29:47Z</time></trkpt><trkpt lat="51.14075235078445" lon="17.070236248412762"><ele>117.00000000000001</ele><time>2026-05-03T13:29:48Z</time></trkpt><trkpt lat="51.14067809007859" lon="17.070200110036346"><ele>117.0</ele><time>2026-05-03T13:29:49Z</time></trkpt><trkpt lat="51.14061070841503" lon="17.070167776178387"><ele>117.0</ele><time>2026-05-03T13:29:50Z</time></trkpt><trkpt lat="51.140537483929506" lon="17.070131569857537"><ele>117.14285714285715</ele><time>2026-05-03T13:29:51Z</time></trkpt><trkpt lat="51.14046928754692" lon="17.0700933794458"><ele>117.2857142857143</ele><time>2026-05-03T13:29:52Z</time></trkpt><trkpt lat="51.14040613093408" lon="17.070057624002015"><ele>117.42857142857143</ele><time>2026-05-03T13:29:53Z</time></trkpt><trkpt lat="51.140335656805334" lon="17.070017540976725"><ele>117.57142857142858</ele><time>2026-05-03T13:29:54Z</time></trkpt><trkpt lat="51.140273158023994" lon="17.069984209869308"><ele>117.71428571428572</ele><time>2026-05-03T13:29:55Z</time></trkpt><trkpt lat="51.14020684396624" lon="17.06994770962498"><ele>117.85714285714286</ele><time>2026-05-03T13:29:56Z</time></trkpt><trkpt lat="51.14013640312144" lon="17.06991837286567"><ele>118.0</ele><time>2026-05-03T13:29:57Z</time></trkpt><trkpt lat="51.14006864613629" lon="17.06987480702549"><ele>118.00000000000001</ele><time>2026-05-03T13:29:58Z</time></trkpt><trkpt lat="51.139948230452546" lon="17.06974415025671"><ele>118.0</ele><time>2026-05-03T13:30:00Z</time></trkpt><trkpt lat="51.13988277626099" lon="17.069694192103306"><ele>118.0</ele><time>2026-05-03T13:30:01Z</time></trkpt><trkpt lat="51.13981913248203" lon="17.069636091675218"><ele>118.0</ele><time>2026-05-03T13:30:02Z</time></trkpt><trkpt lat="51.13976264352094" lon="17.069570294741155"><ele>118.00000000000001</ele><time>2026-05-03T13:30:03Z</time></trkpt><trkpt lat="51.13971442100832" lon="17.069501152381562"><ele>118.0</ele><time>2026-05-03T13:30:04Z</time></trkpt><trkpt lat="51.13961075497233" lon="17.06940571599949"><ele>118.00000000000001</ele><time>2026-05-03T13:30:06Z</time></trkpt><trkpt lat="51.13951449075241" lon="17.069278560944277"><ele>118.0</ele><time>2026-05-03T13:30:08Z</time></trkpt><trkpt lat="51.13945715701131" lon="17.069213928173763"><ele>118.0</ele><time>2026-05-03T13:30:09Z</time></trkpt><trkpt lat="51.139396879683105" lon="17.06914589237759"><ele>118.0</ele><time>2026-05-03T13:30:10Z</time></trkpt><trkpt lat="51.13934040691065" lon="17.069077945959407"><ele>118.00000000000001</ele><time>2026-05-03T13:30:11Z</time></trkpt><trkpt lat="51.13928323947778" lon="17.069009646928592"><ele>118.0</ele><time>2026-05-03T13:30:12Z</time></trkpt><trkpt lat="51.139230829121544" lon="17.06892980453254"><ele>117.71428571428571</ele><time>2026-05-03T13:30:13Z</time></trkpt><trkpt lat="51.13918063052048" lon="17.0688536312953"><ele>117.42857142857144</ele><time>2026-05-03T13:30:14Z</time></trkpt><trkpt lat="51.139132210634145" lon="17.068777454642376"><ele>117.14285714285715</ele><time>2026-05-03T13:30:15Z</time></trkpt><trkpt lat="51.1390812051111" lon="17.06869321757449"><ele>116.85714285714286</ele><time>2026-05-03T13:30:16Z</time></trkpt><trkpt lat="51.139032839644315" lon="17.068613340632776"><ele>116.57142857142858</ele><time>2026-05-03T13:30:17Z</time></trkpt><trkpt lat="51.138985828236166" lon="17.068535699968148"><ele>116.2857142857143</ele><time>2026-05-03T13:30:18Z</time></trkpt><trkpt lat="51.13893387843672" lon="17.06845513550799"><ele>116.00000000000001</ele><time>2026-05-03T13:30:19Z</time></trkpt><trkpt lat="51.13887497500731" lon="17.068390037149474"><ele>115.99999999999999</ele><time>2026-05-03T13:30:20Z</time></trkpt><trkpt lat="51.13882748163817" lon="17.068312072883913"><ele>116.0</ele><time>2026-05-03T13:30:21Z</time></trkpt><trkpt lat="51.13877971433194" lon="17.068230310317965"><ele>116.0</ele><time>2026-05-03T13:30:22Z</time></trkpt><trkpt lat="51.13873120586218" lon="17.06815784531741"><ele>116.0</ele><time>2026-05-03T13:30:23Z</time></trkpt><trkpt lat="51.13868533945717" lon="17.068082449997576"><ele>115.99999999999999</ele><time>2026-05-03T13:30:24Z</time></trkpt><trkpt lat="51.138606127065536" lon="17.067940040017362"><ele>116.0</ele><time>2026-05-03T13:30:26Z</time></trkpt><trkpt lat="51.1385283826978" lon="17.067819350856123"><ele>116.19999999999999</ele><time>2026-05-03T13:30:28Z</time></trkpt><trkpt lat="51.13845715544901" lon="17.067714560020526"><ele>116.39999999999999</ele><time>2026-05-03T13:30:30Z</time></trkpt><trkpt lat="51.138395926671755" lon="17.06760061886255"><ele>116.6</ele><time>2026-05-03T13:30:32Z</time></trkpt><trkpt lat="51.13833154211965" lon="17.06750219583833"><ele>116.8</ele><time>2026-05-03T13:30:34Z</time></trkpt><trkpt lat="51.13826409161265" lon="17.06739928102712"><ele>117.0</ele><time>2026-05-03T13:30:36Z</time></trkpt><trkpt lat="51.13822690635902" lon="17.067279971867475"><ele>117.0</ele><time>2026-05-03T13:30:38Z</time></trkpt><trkpt lat="51.13832423473618" lon="17.06711828855575"><ele>117.0</ele><time>2026-05-03T13:30:40Z</time></trkpt><trkpt lat="51.1384058376583" lon="17.066989870997002"><ele>117.0</ele><time>2026-05-03T13:30:42Z</time></trkpt><trkpt lat="51.13849070537218" lon="17.066855401251587"><ele>117.0</ele><time>2026-05-03T13:30:44Z</time></trkpt><trkpt lat="51.13857955833851" lon="17.06671834405714"><ele>117.0</ele><time>2026-05-03T13:30:46Z</time></trkpt><trkpt lat="51.138628551977" lon="17.06664468551071"><ele>117.00000000000001</ele><time>2026-05-03T13:30:47Z</time></trkpt><trkpt lat="51.13867356125982" lon="17.06656552899256"><ele>117.0</ele><time>2026-05-03T13:30:48Z</time></trkpt><trkpt lat="51.13870946537496" lon="17.066472379397297"><ele>117.0</ele><time>2026-05-03T13:30:49Z</time></trkpt><trkpt lat="51.138743151197296" lon="17.066380422100227"><ele>117.00000000000001</ele><time>2026-05-03T13:30:50Z</time></trkpt><trkpt lat="51.13877691845269" lon="17.066287149908398"><ele>117.0</ele><time>2026-05-03T13:30:51Z</time></trkpt><trkpt lat="51.138813018697924" lon="17.066193009864175"><ele>117.0</ele><time>2026-05-03T13:30:52Z</time></trkpt><trkpt lat="51.138849152567474" lon="17.066097226400075"><ele>117.14285714285715</ele><time>2026-05-03T13:30:53Z</time></trkpt><trkpt lat="51.1388856969314" lon="17.066001324295012"><ele>117.2857142857143</ele><time>2026-05-03T13:30:54Z</time></trkpt><trkpt lat="51.138923846369366" lon="17.065906157919045"><ele>117.42857142857143</ele><time>2026-05-03T13:30:55Z</time></trkpt><trkpt lat="51.1389592911048" lon="17.065809074963912"><ele>117.57142857142858</ele><time>2026-05-03T13:30:56Z</time></trkpt><trkpt lat="51.138993771915764" lon="17.065709236069875"><ele>117.71428571428572</ele><time>2026-05-03T13:30:57Z</time></trkpt><trkpt lat="51.13903180626248" lon="17.06561532792438"><ele>117.85714285714286</ele><time>2026-05-03T13:30:58Z</time></trkpt><trkpt lat="51.13907066616419" lon="17.065517015802257"><ele>118.0</ele><time>2026-05-03T13:30:59Z</time></trkpt><trkpt lat="51.13911527674405" lon="17.065422056831892"><ele>118.0</ele><time>2026-05-03T13:31:00Z</time></trkpt><trkpt lat="51.139158093664484" lon="17.065327819269708"><ele>118.0</ele><time>2026-05-03T13:31:01Z</time></trkpt><trkpt lat="51.13919393005823" lon="17.06522115172356"><ele>118.0</ele><time>2026-05-03T13:31:02Z</time></trkpt><trkpt lat="51.13923143810626" lon="17.065119825513904"><ele>118.0</ele><time>2026-05-03T13:31:03Z</time></trkpt><trkpt lat="51.139268625579" lon="17.065022431506577"><ele>118.0</ele><time>2026-05-03T13:31:04Z</time></trkpt><trkpt lat="51.13931079106829" lon="17.06492100190764"><ele>118.0</ele><time>2026-05-03T13:31:05Z</time></trkpt><trkpt lat="51.13934766263594" lon="17.064824197474458"><ele>118.0</ele><time>2026-05-03T13:31:06Z</time></trkpt><trkpt lat="51.13938613584275" lon="17.06472487768488"><ele>118.14285714285714</ele><time>2026-05-03T13:31:07Z</time></trkpt><trkpt lat="51.13942770394335" lon="17.064624920958583"><ele>118.28571428571429</ele><time>2026-05-03T13:31:08Z</time></trkpt><trkpt lat="51.13946366171938" lon="17.064518290213353"><ele>118.42857142857143</ele><time>2026-05-03T13:31:09Z</time></trkpt><trkpt lat="51.139503988806304" lon="17.06441824030183"><ele>118.57142857142857</ele><time>2026-05-03T13:31:10Z</time></trkpt><trkpt lat="51.139551659843356" lon="17.064326577858484"><ele>118.71428571428572</ele><time>2026-05-03T13:31:11Z</time></trkpt><trkpt lat="51.139598387232006" lon="17.064233128548288"><ele>118.85714285714286</ele><time>2026-05-03T13:31:12Z</time></trkpt><trkpt lat="51.13963968036106" lon="17.064144036069067"><ele>119.0</ele><time>2026-05-03T13:31:13Z</time></trkpt><trkpt lat="51.13968399989286" lon="17.06405174017775"><ele>119.0</ele><time>2026-05-03T13:31:14Z</time></trkpt><trkpt lat="51.13972740041893" lon="17.063957199137494"><ele>119.0</ele><time>2026-05-03T13:31:15Z</time></trkpt><trkpt lat="51.139772644148096" lon="17.063865830748874"><ele>119.0</ele><time>2026-05-03T13:31:16Z</time></trkpt><trkpt lat="51.13982960215083" lon="17.06379291257393"><ele>119.0</ele><time>2026-05-03T13:31:17Z</time></trkpt><trkpt lat="51.13987353574374" lon="17.063704222720574"><ele>119.0</ele><time>2026-05-03T13:31:18Z</time></trkpt><trkpt lat="51.13991855685844" lon="17.063612942798013"><ele>119.0</ele><time>2026-05-03T13:31:19Z</time></trkpt><trkpt lat="51.139951464181024" lon="17.063504067073275"><ele>119.0</ele><time>2026-05-03T13:31:20Z</time></trkpt><trkpt lat="51.13999757964369" lon="17.06341166233973"><ele>118.99999999999999</ele><time>2026-05-03T13:31:21Z</time></trkpt><trkpt lat="51.14005062459929" lon="17.063329178776577"><ele>119.0</ele><time>2026-05-03T13:31:22Z</time></trkpt><trkpt lat="51.14009388256879" lon="17.063229951111136"><ele>119.0</ele><time>2026-05-03T13:31:23Z</time></trkpt><trkpt lat="51.14012278918535" lon="17.063109728027037"><ele>119.0</ele><time>2026-05-03T13:31:24Z</time></trkpt><trkpt lat="51.14016669022116" lon="17.06300773164308"><ele>118.99999999999999</ele><time>2026-05-03T13:31:25Z</time></trkpt><trkpt lat="51.14020856381611" lon="17.062900953076795"><ele>119.0</ele><time>2026-05-03T13:31:26Z</time></trkpt><trkpt lat="51.14024621262165" lon="17.062791234452586"><ele>118.99999999999999</ele><time>2026-05-03T13:31:27Z</time></trkpt><trkpt lat="51.14028318029581" lon="17.062682660136854"><ele>119.0</ele><time>2026-05-03T13:31:28Z</time></trkpt><trkpt lat="51.14031932564937" lon="17.062575567898634"><ele>119.0</ele><time>2026-05-03T13:31:29Z</time></trkpt><trkpt lat="51.14035802307211" lon="17.06246709199558"><ele>119.0</ele><time>2026-05-03T13:31:30Z</time></trkpt><trkpt lat="51.1403994074659" lon="17.062360282887596"><ele>118.99999999999999</ele><time>2026-05-03T13:31:31Z</time></trkpt><trkpt lat="51.14043472573863" lon="17.062251735621576"><ele>119.0</ele><time>2026-05-03T13:31:32Z</time></trkpt><trkpt lat="51.14046181942883" lon="17.062138868882844"><ele>118.83333333333333</ele><time>2026-05-03T13:31:33Z</time></trkpt><trkpt lat="51.140481373684146" lon="17.06203731407159"><ele>118.66666666666666</ele><time>2026-05-03T13:31:34Z</time></trkpt><trkpt lat="51.14050501088688" lon="17.061932595535655"><ele>118.5</ele><time>2026-05-03T13:31:35Z</time></trkpt><trkpt lat="51.14050052730865" lon="17.061827871453616"><ele>118.33333333333334</ele><time>2026-05-03T13:31:36Z</time></trkpt><trkpt lat="51.14042318588739" lon="17.061666224933706"><ele>118.16666666666667</ele><time>2026-05-03T13:31:38Z</time></trkpt><trkpt lat="51.14036458392591" lon="17.061611907082714"><ele>118.0</ele><time>2026-05-03T13:31:39Z</time></trkpt><trkpt lat="51.1403021071842" lon="17.06156748026294"><ele>118.0</ele><time>2026-05-03T13:31:40Z</time></trkpt><trkpt lat="51.14023743298523" lon="17.06153612472108"><ele>118.0</ele><time>2026-05-03T13:31:41Z</time></trkpt><trkpt lat="51.14017223890993" lon="17.06149870197281"><ele>118.0</ele><time>2026-05-03T13:31:42Z</time></trkpt><trkpt lat="51.14010838032049" lon="17.06146180517038"><ele>118.0</ele><time>2026-05-03T13:31:43Z</time></trkpt><trkpt lat="51.1400432807108" lon="17.061422136321543"><ele>118.0</ele><time>2026-05-03T13:31:44Z</time></trkpt><trkpt lat="51.13997727602408" lon="17.06138532303571"><ele>118.0</ele><time>2026-05-03T13:31:45Z</time></trkpt><trkpt lat="51.13991154779243" lon="17.06134459737926"><ele>118.0</ele><time>2026-05-03T13:31:46Z</time></trkpt><trkpt lat="51.13984487264142" lon="17.061303718510462"><ele>118.0</ele><time>2026-05-03T13:31:47Z</time></trkpt><trkpt lat="51.139778670598915" lon="17.061263212852335"><ele>118.0</ele><time>2026-05-03T13:31:48Z</time></trkpt><trkpt lat="51.13971222467719" lon="17.06122338610029"><ele>118.0</ele><time>2026-05-03T13:31:49Z</time></trkpt><trkpt lat="51.13964533085876" lon="17.061184305599216"><ele>118.0</ele><time>2026-05-03T13:31:50Z</time></trkpt><trkpt lat="51.13957876257424" lon="17.061139963011357"><ele>118.0</ele><time>2026-05-03T13:31:51Z</time></trkpt><trkpt lat="51.13950837853941" lon="17.061098881890263"><ele>118.0</ele><time>2026-05-03T13:31:52Z</time></trkpt><trkpt lat="51.13944678534616" lon="17.061055264528"><ele>118.0</ele><time>2026-05-03T13:31:53Z</time></trkpt><trkpt lat="51.139380670175456" lon="17.06101279031078"><ele>118.0</ele><time>2026-05-03T13:31:54Z</time></trkpt><trkpt lat="51.13931334616633" lon="17.06097225886003"><ele>118.0</ele><time>2026-05-03T13:31:55Z</time></trkpt><trkpt lat="51.13924713393416" lon="17.060932069402376"><ele>118.0</ele><time>2026-05-03T13:31:56Z</time></trkpt><trkpt lat="51.13918380794915" lon="17.06089069220168"><ele>118.0</ele><time>2026-05-03T13:31:57Z</time></trkpt><trkpt lat="51.139123320846714" lon="17.060853688628697"><ele>118.0</ele><time>2026-05-03T13:31:58Z</time></trkpt><trkpt lat="51.13905640978711" lon="17.06081706898571"><ele>118.0</ele><time>2026-05-03T13:31:59Z</time></trkpt><trkpt lat="51.13899259435842" lon="17.06078062242784"><ele>118.0</ele><time>2026-05-03T13:32:00Z</time></trkpt><trkpt lat="51.13893315653082" lon="17.060739187706567"><ele>117.85714285714286</ele><time>2026-05-03T13:32:01Z</time></trkpt><trkpt lat="51.138877892310134" lon="17.06068010428954"><ele>117.71428571428572</ele><time>2026-05-03T13:32:02Z</time></trkpt><trkpt lat="51.13882931146316" lon="17.060597942199575"><ele>117.57142857142858</ele><time>2026-05-03T13:32:03Z</time></trkpt><trkpt lat="51.13879734337486" lon="17.06050193203289"><ele>117.42857142857143</ele><time>2026-05-03T13:32:04Z</time></trkpt><trkpt lat="51.13878283307184" lon="17.060389924786023"><ele>117.2857142857143</ele><time>2026-05-03T13:32:05Z</time></trkpt><trkpt lat="51.13877605479026" lon="17.06027768409293"><ele>117.14285714285715</ele><time>2026-05-03T13:32:06Z</time></trkpt><trkpt lat="51.13876755277031" lon="17.060164930508066"><ele>117.0</ele><time>2026-05-03T13:32:07Z</time></trkpt><trkpt lat="51.138753286662826" lon="17.06005453114242"><ele>116.85714285714286</ele><time>2026-05-03T13:32:08Z</time></trkpt><trkpt lat="51.13873934484539" lon="17.059941320675147"><ele>116.71428571428572</ele><time>2026-05-03T13:32:09Z</time></trkpt><trkpt lat="51.138724908780716" lon="17.059825755093414"><ele>116.57142857142858</ele><time>2026-05-03T13:32:10Z</time></trkpt><trkpt lat="51.138713251075906" lon="17.05971122348687"><ele>116.42857142857144</ele><time>2026-05-03T13:32:11Z</time></trkpt><trkpt lat="51.138700281847285" lon="17.05959486788545"><ele>116.28571428571429</ele><time>2026-05-03T13:32:12Z</time></trkpt><trkpt lat="51.13868320377401" lon="17.059474214401536"><ele>116.14285714285717</ele><time>2026-05-03T13:32:13Z</time></trkpt><trkpt lat="51.138668626041955" lon="17.05935643138163"><ele>116.00000000000001</ele><time>2026-05-03T13:32:14Z</time></trkpt><trkpt lat="51.13865180060374" lon="17.059233708476796"><ele>115.83333333333333</ele><time>2026-05-03T13:32:15Z</time></trkpt><trkpt lat="51.13863594185077" lon="17.059109922354864"><ele>115.66666666666666</ele><time>2026-05-03T13:32:16Z</time></trkpt><trkpt lat="51.13862110456082" lon="17.058983527891016"><ele>115.5</ele><time>2026-05-03T13:32:17Z</time></trkpt><trkpt lat="51.13860391793335" lon="17.05885795308155"><ele>115.33333333333334</ele><time>2026-05-03T13:32:18Z</time></trkpt><trkpt lat="51.13858687521752" lon="17.058733165994862"><ele>115.16666666666667</ele><time>2026-05-03T13:32:19Z</time></trkpt><trkpt lat="51.13856909583611" lon="17.058602732869836"><ele>115.0</ele><time>2026-05-03T13:32:20Z</time></trkpt><trkpt lat="51.138548374872805" lon="17.058476865256782"><ele>115.00000000000001</ele><time>2026-05-03T13:32:21Z</time></trkpt><trkpt lat="51.13853035809213" lon="17.05835110135689"><ele>115.0</ele><time>2026-05-03T13:32:22Z</time></trkpt><trkpt lat="51.13851259759027" lon="17.058220782358607"><ele>115.0</ele><time>2026-05-03T13:32:23Z</time></trkpt><trkpt lat="51.138496089138286" lon="17.05808278621955"><ele>115.0</ele><time>2026-05-03T13:32:24Z</time></trkpt><trkpt lat="51.13847854381851" lon="17.05795350682059"><ele>115.00000000000001</ele><time>2026-05-03T13:32:25Z</time></trkpt><trkpt lat="51.1384645067438" lon="17.05782076125179"><ele>115.0</ele><time>2026-05-03T13:32:26Z</time></trkpt><trkpt lat="51.138452606872185" lon="17.057686739989386"><ele>115.16666666666667</ele><time>2026-05-03T13:32:27Z</time></trkpt><trkpt lat="51.13843395792931" lon="17.05755577256648"><ele>115.33333333333334</ele><time>2026-05-03T13:32:28Z</time></trkpt><trkpt lat="51.13841766515582" lon="17.057427549577667"><ele>115.5</ele><time>2026-05-03T13:32:29Z</time></trkpt><trkpt lat="51.13839981554767" lon="17.057297351295507"><ele>115.66666666666666</ele><time>2026-05-03T13:32:30Z</time></trkpt><trkpt lat="51.138380599159525" lon="17.057172395216828"><ele>115.83333333333333</ele><time>2026-05-03T13:32:31Z</time></trkpt><trkpt lat="51.13836460015884" lon="17.057046498079085"><ele>116.0</ele><time>2026-05-03T13:32:32Z</time></trkpt><trkpt lat="51.13834960916782" lon="17.05692106138202"><ele>115.99999999999999</ele><time>2026-05-03T13:32:33Z</time></trkpt><trkpt lat="51.13833701438179" lon="17.05679352948223"><ele>116.0</ele><time>2026-05-03T13:32:34Z</time></trkpt><trkpt lat="51.13832370052738" lon="17.056670375385576"><ele>116.0</ele><time>2026-05-03T13:32:35Z</time></trkpt><trkpt lat="51.138311965687926" lon="17.056545074388413"><ele>116.0</ele><time>2026-05-03T13:32:36Z</time></trkpt><trkpt lat="51.138294927772264" lon="17.05642370639918"><ele>115.99999999999999</ele><time>2026-05-03T13:32:37Z</time></trkpt><trkpt lat="51.13827605300841" lon="17.056307494845353"><ele>116.0</ele><time>2026-05-03T13:32:38Z</time></trkpt><trkpt lat="51.13826049187118" lon="17.056189916647924"><ele>115.99999999999999</ele><time>2026-05-03T13:32:39Z</time></trkpt><trkpt lat="51.138246685944644" lon="17.056071454754957"><ele>116.0</ele><time>2026-05-03T13:32:40Z</time></trkpt><trkpt lat="51.13822892874351" lon="17.055953760512093"><ele>116.0</ele><time>2026-05-03T13:32:41Z</time></trkpt><trkpt lat="51.13821185232885" lon="17.05583910430284"><ele>116.0</ele><time>2026-05-03T13:32:42Z</time></trkpt><trkpt lat="51.138197535973916" lon="17.055722908273562"><ele>115.99999999999999</ele><time>2026-05-03T13:32:43Z</time></trkpt><trkpt lat="51.13818623426517" lon="17.055599510640633"><ele>116.0</ele><time>2026-05-03T13:32:44Z</time></trkpt><trkpt lat="51.138175611363884" lon="17.055477486955755"><ele>115.66666666666666</ele><time>2026-05-03T13:32:45Z</time></trkpt><trkpt lat="51.13816050546554" lon="17.05535441965183"><ele>115.33333333333333</ele><time>2026-05-03T13:32:46Z</time></trkpt><trkpt lat="51.13814685851312" lon="17.055234187747534"><ele>115.0</ele><time>2026-05-03T13:32:47Z</time></trkpt><trkpt lat="51.138130356165235" lon="17.055110634115316"><ele>114.66666666666666</ele><time>2026-05-03T13:32:48Z</time></trkpt><trkpt lat="51.1381112364149" lon="17.054987491373467"><ele>114.33333333333333</ele><time>2026-05-03T13:32:49Z</time></trkpt><trkpt lat="51.13809392956606" lon="17.054865610909776"><ele>114.0</ele><time>2026-05-03T13:32:50Z</time></trkpt><trkpt lat="51.1380812347092" lon="17.054740677488166"><ele>114.0</ele><time>2026-05-03T13:32:51Z</time></trkpt><trkpt lat="51.13806570519532" lon="17.054617234318993"><ele>114.0</ele><time>2026-05-03T13:32:52Z</time></trkpt><trkpt lat="51.13805202891397" lon="17.05448846584382"><ele>114.0</ele><time>2026-05-03T13:32:53Z</time></trkpt><trkpt lat="51.13803562832852" lon="17.054362021596898"><ele>114.0</ele><time>2026-05-03T13:32:54Z</time></trkpt><trkpt lat="51.138016647410765" lon="17.05423830186273"><ele>114.0</ele><time>2026-05-03T13:32:55Z</time></trkpt><trkpt lat="51.13800023345178" lon="17.05411250711077"><ele>114.0</ele><time>2026-05-03T13:32:56Z</time></trkpt><trkpt lat="51.13798595035212" lon="17.053983136530228"><ele>114.16666666666667</ele><time>2026-05-03T13:32:57Z</time></trkpt><trkpt lat="51.13796836237132" lon="17.053855858196158"><ele>114.33333333333334</ele><time>2026-05-03T13:32:58Z</time></trkpt><trkpt lat="51.137952799965" lon="17.053733674045343"><ele>114.5</ele><time>2026-05-03T13:32:59Z</time></trkpt><trkpt lat="51.1379374609945" lon="17.053601954982767"><ele>114.66666666666667</ele><time>2026-05-03T13:33:00Z</time></trkpt><trkpt lat="51.13792395733831" lon="17.053473963988697"><ele>114.83333333333334</ele><time>2026-05-03T13:33:01Z</time></trkpt><trkpt lat="51.13791100994964" lon="17.053345629880695"><ele>115.0</ele><time>2026-05-03T13:33:02Z</time></trkpt><trkpt lat="51.137898736299725" lon="17.053217396223882"><ele>115.00000000000001</ele><time>2026-05-03T13:33:03Z</time></trkpt><trkpt lat="51.13788507595358" lon="17.05309403554833"><ele>115.0</ele><time>2026-05-03T13:33:04Z</time></trkpt><trkpt lat="51.13786715594319" lon="17.052969632573664"><ele>115.0</ele><time>2026-05-03T13:33:05Z</time></trkpt><trkpt lat="51.13784656630933" lon="17.052844156307454"><ele>115.0</ele><time>2026-05-03T13:33:06Z</time></trkpt><trkpt lat="51.13783012241558" lon="17.052721726433614"><ele>115.00000000000001</ele><time>2026-05-03T13:33:07Z</time></trkpt><trkpt lat="51.13781415564292" lon="17.052600296033248"><ele>115.0</ele><time>2026-05-03T13:33:08Z</time></trkpt><trkpt lat="51.13780045610666" lon="17.052478918941585"><ele>115.16666666666667</ele><time>2026-05-03T13:33:09Z</time></trkpt><trkpt lat="51.13778457491847" lon="17.052361949434403"><ele>115.33333333333334</ele><time>2026-05-03T13:33:10Z</time></trkpt><trkpt lat="51.137771398744064" lon="17.052230449241723"><ele>115.5</ele><time>2026-05-03T13:33:11Z</time></trkpt><trkpt lat="51.13775823478748" lon="17.05210026088032"><ele>115.66666666666666</ele><time>2026-05-03T13:33:12Z</time></trkpt><trkpt lat="51.137741343342725" lon="17.051980847241417"><ele>115.83333333333333</ele><time>2026-05-03T13:33:13Z</time></trkpt><trkpt lat="51.13772482024928" lon="17.051856849187068"><ele>116.0</ele><time>2026-05-03T13:33:14Z</time></trkpt><trkpt lat="51.13771225963396" lon="17.05172117486877"><ele>115.99999999999999</ele><time>2026-05-03T13:33:15Z</time></trkpt><trkpt lat="51.13769755271079" lon="17.05159909467307"><ele>116.0</ele><time>2026-05-03T13:33:16Z</time></trkpt><trkpt lat="51.137686337813896" lon="17.05147447185861"><ele>116.0</ele><time>2026-05-03T13:33:17Z</time></trkpt><trkpt lat="51.13766980674528" lon="17.05134884068849"><ele>116.0</ele><time>2026-05-03T13:33:18Z</time></trkpt><trkpt lat="51.13765497265831" lon="17.05122184440278"><ele>115.99999999999999</ele><time>2026-05-03T13:33:19Z</time></trkpt><trkpt lat="51.137635881498944" lon="17.051106240822655"><ele>116.0</ele><time>2026-05-03T13:33:20Z</time></trkpt><trkpt lat="51.137623166526815" lon="17.050982247022787"><ele>115.99999999999999</ele><time>2026-05-03T13:33:21Z</time></trkpt><trkpt lat="51.137607191603664" lon="17.0508573917152"><ele>116.0</ele><time>2026-05-03T13:33:22Z</time></trkpt><trkpt lat="51.137593368829336" lon="17.05073308098575"><ele>116.0</ele><time>2026-05-03T13:33:23Z</time></trkpt><trkpt lat="51.13757850406816" lon="17.050604301162338"><ele>116.0</ele><time>2026-05-03T13:33:24Z</time></trkpt><trkpt lat="51.13756219366403" lon="17.050480694832927"><ele>115.99999999999999</ele><time>2026-05-03T13:33:25Z</time></trkpt><trkpt lat="51.13754622757228" lon="17.050352834246283"><ele>116.0</ele><time>2026-05-03T13:33:26Z</time></trkpt><trkpt lat="51.13752959820248" lon="17.05023094504105"><ele>115.99999999999999</ele><time>2026-05-03T13:33:27Z</time></trkpt><trkpt lat="51.13751337482867" lon="17.050112475465355"><ele>116.0</ele><time>2026-05-03T13:33:28Z</time></trkpt><trkpt lat="51.137496888366115" lon="17.049987009587777"><ele>116.0</ele><time>2026-05-03T13:33:29Z</time></trkpt><trkpt lat="51.13747832859635" lon="17.049867112675496"><ele>116.0</ele><time>2026-05-03T13:33:30Z</time></trkpt><trkpt lat="51.13745982792252" lon="17.0497364984748"><ele>115.99999999999999</ele><time>2026-05-03T13:33:31Z</time></trkpt><trkpt lat="51.137449454946534" lon="17.049611387901773"><ele>116.0</ele><time>2026-05-03T13:33:32Z</time></trkpt><trkpt lat="51.137436353299705" lon="17.049483283112426"><ele>115.99999999999999</ele><time>2026-05-03T13:33:33Z</time></trkpt><trkpt lat="51.137420223428826" lon="17.049356787955407"><ele>116.0</ele><time>2026-05-03T13:33:34Z</time></trkpt><trkpt lat="51.13740390871617" lon="17.049228937410085"><ele>116.0</ele><time>2026-05-03T13:33:35Z</time></trkpt><trkpt lat="51.13738994548606" lon="17.049103098116092"><ele>116.0</ele><time>2026-05-03T13:33:36Z</time></trkpt><trkpt lat="51.137374776966986" lon="17.048977575905177"><ele>115.99999999999999</ele><time>2026-05-03T13:33:37Z</time></trkpt><trkpt lat="51.13735923628727" lon="17.048852410175186"><ele>116.0</ele><time>2026-05-03T13:33:38Z</time></trkpt><trkpt lat="51.13734279254961" lon="17.04873284864041"><ele>116.16666666666666</ele><time>2026-05-03T13:33:39Z</time></trkpt><trkpt lat="51.137330353781444" lon="17.048601152849304"><ele>116.33333333333333</ele><time>2026-05-03T13:33:40Z</time></trkpt><trkpt lat="51.13731375459358" lon="17.04847981835232"><ele>116.5</ele><time>2026-05-03T13:33:41Z</time></trkpt><trkpt lat="51.1372986418226" lon="17.04835422513217"><ele>116.66666666666666</ele><time>2026-05-03T13:33:42Z</time></trkpt><trkpt lat="51.13728403480621" lon="17.048232081535218"><ele>116.83333333333333</ele><time>2026-05-03T13:33:43Z</time></trkpt><trkpt lat="51.13726832452593" lon="17.04810412733644"><ele>117.0</ele><time>2026-05-03T13:33:44Z</time></trkpt><trkpt lat="51.1372541236325" lon="17.047974829910018"><ele>116.66666666666667</ele><time>2026-05-03T13:33:45Z</time></trkpt><trkpt lat="51.137238871767345" lon="17.047851823982544"><ele>116.33333333333334</ele><time>2026-05-03T13:33:46Z</time></trkpt><trkpt lat="51.137222470249476" lon="17.04772622401584"><ele>116.0</ele><time>2026-05-03T13:33:47Z</time></trkpt><trkpt lat="51.13720933222083" lon="17.047597555722113"><ele>115.66666666666667</ele><time>2026-05-03T13:33:48Z</time></trkpt><trkpt lat="51.13719546799306" lon="17.047468690489065"><ele>115.33333333333334</ele><time>2026-05-03T13:33:49Z</time></trkpt><trkpt lat="51.137184051363754" lon="17.047344340236034"><ele>115.0</ele><time>2026-05-03T13:33:50Z</time></trkpt><trkpt lat="51.1371663240509" lon="17.047221050407572"><ele>114.83333333333334</ele><time>2026-05-03T13:33:51Z</time></trkpt><trkpt lat="51.137150595146096" lon="17.04709996869861"><ele>114.66666666666667</ele><time>2026-05-03T13:33:52Z</time></trkpt><trkpt lat="51.13713577127119" lon="17.046974666484285"><ele>114.5</ele><time>2026-05-03T13:33:53Z</time></trkpt><trkpt lat="51.13712213289844" lon="17.04684989468414"><ele>114.33333333333334</ele><time>2026-05-03T13:33:54Z</time></trkpt><trkpt lat="51.137105045660164" lon="17.04672465770414"><ele>114.16666666666667</ele><time>2026-05-03T13:33:55Z</time></trkpt><trkpt lat="51.13708962947125" lon="17.04659879286459"><ele>114.0</ele><time>2026-05-03T13:33:56Z</time></trkpt><trkpt lat="51.13707676579295" lon="17.04647517725085"><ele>114.0</ele><time>2026-05-03T13:33:57Z</time></trkpt><trkpt lat="51.13705847282259" lon="17.046356721970415"><ele>114.0</ele><time>2026-05-03T13:33:58Z</time></trkpt><trkpt lat="51.13704359161864" lon="17.04623186792175"><ele>114.0</ele><time>2026-05-03T13:33:59Z</time></trkpt><trkpt lat="51.13702855800613" lon="17.04610698403225"><ele>114.0</ele><time>2026-05-03T13:34:00Z</time></trkpt><trkpt lat="51.13701356698871" lon="17.045979460911756"><ele>114.0</ele><time>2026-05-03T13:34:01Z</time></trkpt><trkpt lat="51.13699934200114" lon="17.045849507503846"><ele>114.0</ele><time>2026-05-03T13:34:02Z</time></trkpt><trkpt lat="51.13698278849602" lon="17.045722169808954"><ele>114.0</ele><time>2026-05-03T13:34:03Z</time></trkpt><trkpt lat="51.13696542902911" lon="17.045591600119447"><ele>114.0</ele><time>2026-05-03T13:34:04Z</time></trkpt><trkpt lat="51.1369487256686" lon="17.045461204355814"><ele>114.0</ele><time>2026-05-03T13:34:05Z</time></trkpt><trkpt lat="51.13693226933853" lon="17.045332544082804"><ele>114.0</ele><time>2026-05-03T13:34:06Z</time></trkpt><trkpt lat="51.13691748385573" lon="17.04520628726597"><ele>114.0</ele><time>2026-05-03T13:34:07Z</time></trkpt><trkpt lat="51.13690748111249" lon="17.0450710406599"><ele>114.0</ele><time>2026-05-03T13:34:08Z</time></trkpt><trkpt lat="51.1368902833956" lon="17.044944266988058"><ele>114.16666666666667</ele><time>2026-05-03T13:34:09Z</time></trkpt><trkpt lat="51.13687129062015" lon="17.044819102761295"><ele>114.33333333333334</ele><time>2026-05-03T13:34:10Z</time></trkpt><trkpt lat="51.13685466658421" lon="17.04469894513323"><ele>114.5</ele><time>2026-05-03T13:34:11Z</time></trkpt><trkpt lat="51.13683502066422" lon="17.044574581046984"><ele>114.66666666666667</ele><time>2026-05-03T13:34:12Z</time></trkpt><trkpt lat="51.13681853141606" lon="17.044451842998317"><ele>114.83333333333334</ele><time>2026-05-03T13:34:13Z</time></trkpt><trkpt lat="51.136807275161914" lon="17.044323314546876"><ele>115.0</ele><time>2026-05-03T13:34:14Z</time></trkpt><trkpt lat="51.1367949868551" lon="17.044200768160458"><ele>115.00000000000001</ele><time>2026-05-03T13:34:15Z</time></trkpt><trkpt lat="51.13677881773606" lon="17.044076895732147"><ele>115.0</ele><time>2026-05-03T13:34:16Z</time></trkpt><trkpt lat="51.136763385037625" lon="17.043954506752925"><ele>115.0</ele><time>2026-05-03T13:34:17Z</time></trkpt><trkpt lat="51.136746723348026" lon="17.04383361332595"><ele>115.0</ele><time>2026-05-03T13:34:18Z</time></trkpt><trkpt lat="51.13673447138229" lon="17.04371217780009"><ele>115.00000000000001</ele><time>2026-05-03T13:34:19Z</time></trkpt><trkpt lat="51.13672388992169" lon="17.043590453364512"><ele>115.0</ele><time>2026-05-03T13:34:20Z</time></trkpt><trkpt lat="51.13670824755772" lon="17.04346497217475"><ele>115.00000000000001</ele><time>2026-05-03T13:34:21Z</time></trkpt><trkpt lat="51.13669251339424" lon="17.043343237712033"><ele>115.0</ele><time>2026-05-03T13:34:22Z</time></trkpt><trkpt lat="51.1366741098781" lon="17.0432240672034"><ele>115.0</ele><time>2026-05-03T13:34:23Z</time></trkpt><trkpt lat="51.13665733025618" lon="17.043106518006002"><ele>115.0</ele><time>2026-05-03T13:34:24Z</time></trkpt><trkpt lat="51.13664531571576" lon="17.04298151705417"><ele>115.00000000000001</ele><time>2026-05-03T13:34:25Z</time></trkpt><trkpt lat="51.13663367125681" lon="17.042861543001376"><ele>115.0</ele><time>2026-05-03T13:34:26Z</time></trkpt><trkpt lat="51.136617387815555" lon="17.042740593860174"><ele>115.00000000000001</ele><time>2026-05-03T13:34:27Z</time></trkpt><trkpt lat="51.13660547338292" lon="17.042622378987424"><ele>115.0</ele><time>2026-05-03T13:34:28Z</time></trkpt><trkpt lat="51.136593299842126" lon="17.04249714089403"><ele>115.0</ele><time>2026-05-03T13:34:29Z</time></trkpt><trkpt lat="51.13657894786658" lon="17.042373247131323"><ele>115.0</ele><time>2026-05-03T13:34:30Z</time></trkpt><trkpt lat="51.1365590816596" lon="17.042260573687578"><ele>115.00000000000001</ele><time>2026-05-03T13:34:31Z</time></trkpt><trkpt lat="51.13654583698194" lon="17.04213831241507"><ele>115.0</ele><time>2026-05-03T13:34:32Z</time></trkpt><trkpt lat="51.13653437071023" lon="17.042016382604825"><ele>115.16666666666667</ele><time>2026-05-03T13:34:33Z</time></trkpt><trkpt lat="51.13651827166915" lon="17.04189589248872"><ele>115.33333333333334</ele><time>2026-05-03T13:34:34Z</time></trkpt><trkpt lat="51.136501027559675" lon="17.041774827896397"><ele>115.5</ele><time>2026-05-03T13:34:35Z</time></trkpt><trkpt lat="51.13648814924122" lon="17.041649782946756"><ele>115.66666666666666</ele><time>2026-05-03T13:34:36Z</time></trkpt><trkpt lat="51.13647200220969" lon="17.041536918668584"><ele>115.83333333333333</ele><time>2026-05-03T13:34:37Z</time></trkpt><trkpt lat="51.1364520853572" lon="17.04141084819838"><ele>116.0</ele><time>2026-05-03T13:34:38Z</time></trkpt><trkpt lat="51.13643928299968" lon="17.04129013154216"><ele>115.99999999999999</ele><time>2026-05-03T13:34:39Z</time></trkpt><trkpt lat="51.136426247254434" lon="17.041176661737452"><ele>116.0</ele><time>2026-05-03T13:34:40Z</time></trkpt><trkpt lat="51.13641259767431" lon="17.041052624424925"><ele>116.0</ele><time>2026-05-03T13:34:41Z</time></trkpt><trkpt lat="51.136398117308865" lon="17.040931800055873"><ele>116.0</ele><time>2026-05-03T13:34:42Z</time></trkpt><trkpt lat="51.1363821825453" lon="17.04081244606241"><ele>115.99999999999999</ele><time>2026-05-03T13:34:43Z</time></trkpt><trkpt lat="51.13636409673214" lon="17.040697383111443"><ele>116.0</ele><time>2026-05-03T13:34:44Z</time></trkpt><trkpt lat="51.13635113344213" lon="17.040567306869217"><ele>115.83333333333333</ele><time>2026-05-03T13:34:45Z</time></trkpt><trkpt lat="51.13632004278033" lon="17.040350041395254"><ele>115.66666666666666</ele><time>2026-05-03T13:34:47Z</time></trkpt><trkpt lat="51.13631364191516" lon="17.0402253370423"><ele>115.5</ele><time>2026-05-03T13:34:48Z</time></trkpt><trkpt lat="51.136300087420146" lon="17.040106869052476"><ele>115.33333333333334</ele><time>2026-05-03T13:34:49Z</time></trkpt><trkpt lat="51.13627860885488" lon="17.03999696293747"><ele>115.16666666666667</ele><time>2026-05-03T13:34:50Z</time></trkpt><trkpt lat="51.136266431421355" lon="17.039882156420738"><ele>115.0</ele><time>2026-05-03T13:34:51Z</time></trkpt><trkpt lat="51.13625452651726" lon="17.03976466100474"><ele>114.83333333333334</ele><time>2026-05-03T13:34:52Z</time></trkpt><trkpt lat="51.136242414265446" lon="17.039653362629917"><ele>114.66666666666667</ele><time>2026-05-03T13:34:53Z</time></trkpt><trkpt lat="51.1362306217121" lon="17.03954508780837"><ele>114.5</ele><time>2026-05-03T13:34:54Z</time></trkpt><trkpt lat="51.136214556639736" lon="17.039440599666193"><ele>114.33333333333334</ele><time>2026-05-03T13:34:55Z</time></trkpt><trkpt lat="51.136197233217146" lon="17.03933647503949"><ele>114.16666666666667</ele><time>2026-05-03T13:34:56Z</time></trkpt><trkpt lat="51.13618199977645" lon="17.039236470180352"><ele>114.0</ele><time>2026-05-03T13:34:57Z</time></trkpt><trkpt lat="51.136157949483966" lon="17.039043481387193"><ele>114.0</ele><time>2026-05-03T13:34:59Z</time></trkpt><trkpt lat="51.13609522048376" lon="17.038882407961392"><ele>114.0</ele><time>2026-05-03T13:35:01Z</time></trkpt><trkpt lat="51.135973217044416" lon="17.03889020573089"><ele>114.0</ele><time>2026-05-03T13:35:03Z</time></trkpt><trkpt lat="51.13587304129444" lon="17.038952354835384"><ele>114.0</ele><time>2026-05-03T13:35:05Z</time></trkpt><trkpt lat="51.135758360600995" lon="17.03897076869002"><ele>115.2</ele><time>2026-05-03T13:35:07Z</time></trkpt><trkpt lat="51.13564086496144" lon="17.039006672142637"><ele>116.4</ele><time>2026-05-03T13:35:09Z</time></trkpt><trkpt lat="51.13552717197396" lon="17.039037225701357"><ele>117.6</ele><time>2026-05-03T13:35:11Z</time></trkpt><trkpt lat="51.13545819206718" lon="17.039055394500092"><ele>118.8</ele><time>2026-05-03T13:35:12Z</time></trkpt><trkpt lat="51.13539349099868" lon="17.039070760504313"><ele>120.0</ele><time>2026-05-03T13:35:13Z</time></trkpt><trkpt lat="51.135270641908406" lon="17.039113072233242"><ele>120.0</ele><time>2026-05-03T13:35:15Z</time></trkpt><trkpt lat="51.13519538478144" lon="17.03912941430738"><ele>120.0</ele><time>2026-05-03T13:35:16Z</time></trkpt><trkpt lat="51.135127693804634" lon="17.03914546071762"><ele>120.0</ele><time>2026-05-03T13:35:17Z</time></trkpt><trkpt lat="51.13500990071811" lon="17.03917731903898"><ele>120.0</ele><time>2026-05-03T13:35:19Z</time></trkpt><trkpt lat="51.13494338730488" lon="17.039185521498354"><ele>120.0</ele><time>2026-05-03T13:35:20Z</time></trkpt><trkpt lat="51.13482092754666" lon="17.03922761178285"><ele>119.2</ele><time>2026-05-03T13:35:22Z</time></trkpt><trkpt lat="51.13475086832269" lon="17.03922264659219"><ele>118.4</ele><time>2026-05-03T13:35:23Z</time></trkpt><trkpt lat="51.1346932107294" lon="17.039176405750002"><ele>117.6</ele><time>2026-05-03T13:35:24Z</time></trkpt><trkpt lat="51.13467371622306" lon="17.038985399788245"><ele>116.8</ele><time>2026-05-03T13:35:26Z</time></trkpt><trkpt lat="51.134665116455004" lon="17.03880364710215"><ele>116.0</ele><time>2026-05-03T13:35:28Z</time></trkpt><trkpt lat="51.134645813101685" lon="17.03861667221516"><ele>116.0</ele><time>2026-05-03T13:35:30Z</time></trkpt><trkpt lat="51.13463063246458" lon="17.03842834279847"><ele>116.0</ele><time>2026-05-03T13:35:32Z</time></trkpt><trkpt lat="51.13460270314252" lon="17.038247568799058"><ele>116.0</ele><time>2026-05-03T13:35:34Z</time></trkpt><trkpt lat="51.13458093988949" lon="17.038071315772477"><ele>116.0</ele><time>2026-05-03T13:35:36Z</time></trkpt><trkpt lat="51.134565842716285" lon="17.037893491156034"><ele>116.19999999999999</ele><time>2026-05-03T13:35:38Z</time></trkpt><trkpt lat="51.13454420331498" lon="17.037719952291095"><ele>116.39999999999999</ele><time>2026-05-03T13:35:40Z</time></trkpt><trkpt lat="51.13452089785468" lon="17.037549801369714"><ele>116.6</ele><time>2026-05-03T13:35:42Z</time></trkpt><trkpt lat="51.1345004045837" lon="17.03738975899728"><ele>116.8</ele><time>2026-05-03T13:35:44Z</time></trkpt><trkpt lat="51.134479786745366" lon="17.03723951489129"><ele>117.0</ele><time>2026-05-03T13:35:46Z</time></trkpt><trkpt lat="51.134470157029945" lon="17.03710260642004"><ele>116.8</ele><time>2026-05-03T13:35:48Z</time></trkpt><trkpt lat="51.134473857554745" lon="17.036992608106786"><ele>116.6</ele><time>2026-05-03T13:35:50.999Z</time></trkpt><trkpt lat="51.13447385755506" lon="17.036855892865628"><ele>116.39999999999999</ele><time>2026-05-03T13:35:52.999Z</time></trkpt><trkpt lat="51.134432847561676" lon="17.036699279576737"><ele>116.19999999999999</ele><time>2026-05-03T13:35:53.999Z</time></trkpt><trkpt lat="51.13444421120929" lon="17.036566918877995"><ele>116.0</ele><time>2026-05-03T13:35:55.999Z</time></trkpt><trkpt lat="51.13457471143283" lon="17.03661842032636"><ele>115.99999999999999</ele><time>2026-05-03T13:36:00Z</time></trkpt><trkpt lat="51.13461769438489" lon="17.036475994425885"><ele>116.0</ele><time>2026-05-03T13:37:02Z</time></trkpt><trkpt lat="51.13463805971049" lon="17.036368119615872"><ele>116.0</ele><time>2026-05-03T13:37:04Z</time></trkpt><trkpt lat="51.1346281880604" lon="17.03622418424246"><ele>116.0</ele><time>2026-05-03T13:37:07Z</time></trkpt><trkpt lat="51.134572897618604" lon="17.03616765114344"><ele>115.99999999999999</ele><time>2026-05-03T13:37:09Z</time></trkpt><trkpt lat="51.134551065352404" lon="17.036008532518945"><ele>116.0</ele><time>2026-05-03T13:37:12Z</time></trkpt><trkpt lat="51.13454839345651" lon="17.035886986575406"><ele>116.16666666666666</ele><time>2026-05-03T13:37:14Z</time></trkpt><trkpt lat="51.1345627087082" lon="17.035752143063267"><ele>116.33333333333333</ele><time>2026-05-03T13:37:16Z</time></trkpt><trkpt lat="51.13455275894357" lon="17.03561299230021"><ele>116.5</ele><time>2026-05-03T13:37:18Z</time></trkpt><trkpt lat="51.13452751415263" lon="17.035477741522353"><ele>116.66666666666666</ele><time>2026-05-03T13:37:20Z</time></trkpt><trkpt lat="51.134507619972105" lon="17.03534904192496"><ele>116.83333333333333</ele><time>2026-05-03T13:37:22Z</time></trkpt><trkpt lat="51.13449510896622" lon="17.035213320287944"><ele>117.0</ele><time>2026-05-03T13:37:24Z</time></trkpt><trkpt lat="51.13455138517311" lon="17.035123541476473"><ele>117.0</ele><time>2026-05-03T13:37:26Z</time></trkpt><trkpt lat="51.13464428890738" lon="17.03509016275409"><ele>117.0</ele><time>2026-05-03T13:37:29Z</time></trkpt><trkpt lat="51.134744981538326" lon="17.03503899465601"><ele>117.0</ele><time>2026-05-03T13:37:31Z</time></trkpt><trkpt lat="51.13480692148938" lon="17.035011288284974"><ele>117.0</ele><time>2026-05-03T13:37:32Z</time></trkpt><trkpt lat="51.134893202108614" lon="17.03497401092604"><ele>117.0</ele><time>2026-05-03T13:37:34Z</time></trkpt><trkpt lat="51.13495579011311" lon="17.03487369971392"><ele>117.0</ele><time>2026-05-03T13:37:36Z</time></trkpt><trkpt lat="51.134997378528006" lon="17.03475495545336"><ele>116.5</ele><time>2026-05-03T13:37:38Z</time></trkpt><trkpt lat="51.13496565309889" lon="17.034660388015578"><ele>116.0</ele><time>2026-05-03T13:37:40Z</time></trkpt><trkpt lat="51.134911301265156" lon="17.03460652239344"><ele>115.5</ele><time>2026-05-03T13:38:07Z</time></trkpt><trkpt lat="51.13485136807056" lon="17.03452882599154"><ele>115.0</ele><time>2026-05-03T13:38:09Z</time></trkpt><trkpt lat="51.13457059406952" lon="17.034548347229148"><ele>114.0</ele><time>2026-05-03T13:38:17Z</time></trkpt><trkpt lat="51.134926298209365" lon="17.034672766685482"><ele>113.0</ele><time>2026-05-03T13:38:49.558Z</time></trkpt><trkpt lat="51.13500505742616" lon="17.034768019693907"><ele>113.0</ele><time>2026-05-03T13:38:56.041Z</time></trkpt><trkpt lat="51.13489351664862" lon="17.03468036465371"><ele>113.0</ele><time>2026-05-03T13:45:53.826Z</time></trkpt><trkpt lat="51.13503128562112" lon="17.034851683539305"><ele>113.0</ele><time>2026-05-03T13:50:25.348Z</time></trkpt><trkpt lat="51.13511319663587" lon="17.034923152470228"><ele>113.0</ele><time>2026-05-03T13:50:31.355Z</time></trkpt><trkpt lat="51.13491597699214" lon="17.03470551559216"><ele>113.0</ele><time>2026-05-03T13:51:27.854Z</time></trkpt><trkpt lat="51.13501633396761" lon="17.034745911813513"><ele>113.0</ele><time>2026-05-03T13:54:01.749Z</time></trkpt><trkpt lat="51.13485910911296" lon="17.03466671224139"><ele>113.0</ele><time>2026-05-03T13:56:21.552Z</time></trkpt><trkpt lat="51.13495895721608" lon="17.034712392388986"><ele>113.0</ele><time>2026-05-03T13:57:11.138Z</time></trkpt><trkpt lat="51.135043854811514" lon="17.034815399886064"><ele>113.0</ele><time>2026-05-03T13:58:51.549Z</time></trkpt><trkpt lat="51.13509556378351" lon="17.03490232483772"><ele>113.0</ele><time>2026-05-03T13:59:04.097Z</time></trkpt><trkpt lat="51.1350642628906" lon="17.034782143202996"><ele>113.0</ele><time>2026-05-03T14:00:20.808Z</time></trkpt><trkpt lat="51.13499392155023" lon="17.034706618258017"><ele>113.0</ele><time>2026-05-03T14:00:22.029Z</time></trkpt><trkpt lat="51.134743006766584" lon="17.034477931212425"><ele>113.0</ele><time>2026-05-03T14:00:28.306Z</time></trkpt><trkpt lat="51.13495339480269" lon="17.034657752744415"><ele>113.0</ele><time>2026-05-03T14:00:37.04Z</time></trkpt><trkpt lat="51.13503227020304" lon="17.034788009318433"><ele>113.0</ele><time>2026-05-03T14:02:26.271Z</time></trkpt><trkpt lat="51.13493346069767" lon="17.034688979265546"><ele>113.0</ele><time>2026-05-03T14:05:24.211Z</time></trkpt><trkpt lat="51.13472306852045" lon="17.034503570685853"><ele>113.0</ele><time>2026-05-03T14:05:26.666Z</time></trkpt><trkpt lat="51.13482099202613" lon="17.034603665937052"><ele>113.0</ele><time>2026-05-03T14:05:56.989Z</time></trkpt><trkpt lat="51.13488304562416" lon="17.03465268313924"><ele>113.0</ele><time>2026-05-03T14:05:58.989Z</time></trkpt><trkpt lat="51.13494538900503" lon="17.034669613820835"><ele>112.99999999999999</ele><time>2026-05-03T14:05:59.989Z</time></trkpt><trkpt lat="51.134933666537606" lon="17.034773048570624"><ele>113.0</ele><time>2026-05-03T14:06:05.999Z</time></trkpt><trkpt lat="51.134951034681805" lon="17.034871762693122"><ele>113.0</ele><time>2026-05-03T14:06:09.999Z</time></trkpt><trkpt lat="51.13489182994719" lon="17.03493032782567"><ele>113.0</ele><time>2026-05-03T14:06:10.999Z</time></trkpt><trkpt lat="51.134817328627555" lon="17.034989752821755"><ele>112.99999999999999</ele><time>2026-05-03T14:06:12.999Z</time></trkpt><trkpt lat="51.134716756476784" lon="17.035017695622326"><ele>113.0</ele><time>2026-05-03T14:06:14.999Z</time></trkpt><trkpt lat="51.134624156939964" lon="17.03506596567805"><ele>113.66666666666666</ele><time>2026-05-03T14:06:16.999Z</time></trkpt><trkpt lat="51.134555459623016" lon="17.035099719236502"><ele>114.33333333333333</ele><time>2026-05-03T14:06:18.999Z</time></trkpt><trkpt lat="51.13447559671736" lon="17.03514487111297"><ele>115.0</ele><time>2026-05-03T14:06:21Z</time></trkpt><trkpt lat="51.134407522737185" lon="17.035207029238627"><ele>115.66666666666666</ele><time>2026-05-03T14:06:24Z</time></trkpt><trkpt lat="51.13434723382549" lon="17.035281512329586"><ele>116.33333333333333</ele><time>2026-05-03T14:06:26Z</time></trkpt><trkpt lat="51.1342573659681" lon="17.03529726113238"><ele>117.0</ele><time>2026-05-03T14:06:28Z</time></trkpt><trkpt lat="51.13416359951662" lon="17.035385679076693"><ele>117.0</ele><time>2026-05-03T14:06:30Z</time></trkpt><trkpt lat="51.134123266133926" lon="17.035467698150534"><ele>117.0</ele><time>2026-05-03T14:06:31Z</time></trkpt><trkpt lat="51.13406118405939" lon="17.03556401234717"><ele>117.0</ele><time>2026-05-03T14:06:33Z</time></trkpt><trkpt lat="51.134002443029345" lon="17.035643819449604"><ele>117.0</ele><time>2026-05-03T14:06:35Z</time></trkpt><trkpt lat="51.13394790513337" lon="17.035750674069266"><ele>117.0</ele><time>2026-05-03T14:06:37Z</time></trkpt><trkpt lat="51.133866848140755" lon="17.035796332137195"><ele>117.0</ele><time>2026-05-03T14:06:39Z</time></trkpt><trkpt lat="51.13378079663665" lon="17.03579546742693"><ele>116.83333333333333</ele><time>2026-05-03T14:06:41Z</time></trkpt><trkpt lat="51.133695731401126" lon="17.035791987749565"><ele>116.66666666666666</ele><time>2026-05-03T14:06:43Z</time></trkpt><trkpt lat="51.133607144044305" lon="17.035767659751407"><ele>116.5</ele><time>2026-05-03T14:06:45Z</time></trkpt><trkpt lat="51.13354243315312" lon="17.035829746980397"><ele>116.33333333333333</ele><time>2026-05-03T14:06:47Z</time></trkpt><trkpt lat="51.13349398418319" lon="17.035896277209805"><ele>116.16666666666666</ele><time>2026-05-03T14:06:49Z</time></trkpt><trkpt lat="51.13344695077594" lon="17.0360021361693"><ele>116.0</ele><time>2026-05-03T14:06:51Z</time></trkpt><trkpt lat="51.13336425719546" lon="17.03603374415116"><ele>115.49999999999999</ele><time>2026-05-03T14:06:53Z</time></trkpt><trkpt lat="51.13330082489499" lon="17.036070009382417"><ele>115.0</ele><time>2026-05-03T14:06:55Z</time></trkpt><trkpt lat="51.133223444092266" lon="17.036108123760517"><ele>114.5</ele><time>2026-05-03T14:06:56Z</time></trkpt><trkpt lat="51.13312955260525" lon="17.036155490852607"><ele>114.0</ele><time>2026-05-03T14:06:58Z</time></trkpt><trkpt lat="51.13303817665061" lon="17.03621724475733"><ele>113.49999999999999</ele><time>2026-05-03T14:07:00Z</time></trkpt><trkpt lat="51.13294459983763" lon="17.03627984763911"><ele>113.0</ele><time>2026-05-03T14:07:02Z</time></trkpt><trkpt lat="51.13284789709754" lon="17.03633143027586"><ele>112.60000000000001</ele><time>2026-05-03T14:07:04Z</time></trkpt><trkpt lat="51.13274251996199" lon="17.03638097399019"><ele>112.20000000000002</ele><time>2026-05-03T14:07:06Z</time></trkpt><trkpt lat="51.13264506936947" lon="17.03643920352032"><ele>111.8</ele><time>2026-05-03T14:07:08Z</time></trkpt><trkpt lat="51.132543096962685" lon="17.036489477162352"><ele>111.4</ele><time>2026-05-03T14:07:10Z</time></trkpt><trkpt lat="51.1324425660108" lon="17.036547018454737"><ele>111.0</ele><time>2026-05-03T14:07:12Z</time></trkpt><trkpt lat="51.13233197854438" lon="17.03660493434398"><ele>111.25</ele><time>2026-05-03T14:07:14Z</time></trkpt><trkpt lat="51.13221827065662" lon="17.03664891174313"><ele>111.5</ele><time>2026-05-03T14:07:16Z</time></trkpt><trkpt lat="51.13211311617048" lon="17.03671486581861"><ele>111.75</ele><time>2026-05-03T14:07:18Z</time></trkpt><trkpt lat="51.1319990925216" lon="17.036780064230108"><ele>112.0</ele><time>2026-05-03T14:07:20Z</time></trkpt><trkpt lat="51.13188667336552" lon="17.036841554417457"><ele>112.0</ele><time>2026-05-03T14:07:22Z</time></trkpt><trkpt lat="51.13177129447937" lon="17.0369018029033"><ele>112.0</ele><time>2026-05-03T14:07:24Z</time></trkpt><trkpt lat="51.13165815264727" lon="17.036965500859363"><ele>112.0</ele><time>2026-05-03T14:07:26Z</time></trkpt><trkpt lat="51.13154439936841" lon="17.03701690577029"><ele>112.0</ele><time>2026-05-03T14:07:28Z</time></trkpt><trkpt lat="51.13143659763317" lon="17.037085681699295"><ele>112.19999999999999</ele><time>2026-05-03T14:07:30Z</time></trkpt><trkpt lat="51.131326521464025" lon="17.037142398101157"><ele>112.39999999999999</ele><time>2026-05-03T14:07:32Z</time></trkpt><trkpt lat="51.131221204867565" lon="17.037180615755084"><ele>112.60000000000001</ele><time>2026-05-03T14:07:34Z</time></trkpt><trkpt lat="51.131120373970084" lon="17.037209008864128"><ele>112.80000000000001</ele><time>2026-05-03T14:07:36Z</time></trkpt><trkpt lat="51.13101329906984" lon="17.0371887024792"><ele>113.0</ele><time>2026-05-03T14:07:38Z</time></trkpt><trkpt lat="51.13091436031652" lon="17.03716828280484"><ele>112.99999999999999</ele><time>2026-05-03T14:07:40Z</time></trkpt><trkpt lat="51.13082731413353" lon="17.037155738895304"><ele>113.0</ele><time>2026-05-03T14:07:41.999Z</time></trkpt><trkpt lat="51.13076004447727" lon="17.037135000108474"><ele>113.0</ele><time>2026-05-03T14:07:43.999Z</time></trkpt><trkpt lat="51.13069148191887" lon="17.037115207944368"><ele>113.0</ele><time>2026-05-03T14:07:45.999Z</time></trkpt><trkpt lat="51.13061687170327" lon="17.037061044319792"><ele>112.99999999999999</ele><time>2026-05-03T14:07:48.999Z</time></trkpt><trkpt lat="51.13052825936898" lon="17.03703350831746"><ele>113.0</ele><time>2026-05-03T14:07:50.999Z</time></trkpt><trkpt lat="51.13042454879559" lon="17.03700546459486"><ele>114.25</ele><time>2026-05-03T14:07:52.999Z</time></trkpt><trkpt lat="51.13031318202655" lon="17.03696696742989"><ele>115.5</ele><time>2026-05-03T14:07:54.999Z</time></trkpt><trkpt lat="51.130194767458526" lon="17.036948851327885"><ele>116.75</ele><time>2026-05-03T14:07:56.999Z</time></trkpt><trkpt lat="51.130073565278835" lon="17.036937751955087"><ele>118.0</ele><time>2026-05-03T14:07:58.999Z</time></trkpt><trkpt lat="51.12995578331073" lon="17.036924507378153"><ele>117.80000000000001</ele><time>2026-05-03T14:08:00.999Z</time></trkpt><trkpt lat="51.12985826704451" lon="17.037013834679062"><ele>117.60000000000001</ele><time>2026-05-03T14:08:02.999Z</time></trkpt><trkpt lat="51.12978067770842" lon="17.036939216983605"><ele>117.39999999999999</ele><time>2026-05-03T14:08:03.999Z</time></trkpt><trkpt lat="51.129719605590445" lon="17.03690755262507"><ele>117.19999999999999</ele><time>2026-05-03T14:08:04.999Z</time></trkpt><trkpt lat="51.12959688303154" lon="17.03687506706029"><ele>117.0</ele><time>2026-05-03T14:08:07Z</time></trkpt><trkpt lat="51.129527918984806" lon="17.03685644042961"><ele>117.0</ele><time>2026-05-03T14:08:08Z</time></trkpt><trkpt lat="51.12945835248477" lon="17.03684564966857"><ele>117.00000000000001</ele><time>2026-05-03T14:08:09Z</time></trkpt><trkpt lat="51.129389908267534" lon="17.03682859430204"><ele>117.0</ele><time>2026-05-03T14:08:10Z</time></trkpt><trkpt lat="51.129318892452616" lon="17.03680650829785"><ele>117.0</ele><time>2026-05-03T14:08:11Z</time></trkpt><trkpt lat="51.12924990927994" lon="17.036792267525193"><ele>117.00000000000001</ele><time>2026-05-03T14:08:12Z</time></trkpt><trkpt lat="51.12917921519949" lon="17.036775093212672"><ele>117.0</ele><time>2026-05-03T14:08:13Z</time></trkpt><trkpt lat="51.12910879016683" lon="17.036766189811555"><ele>117.0</ele><time>2026-05-03T14:08:14Z</time></trkpt><trkpt lat="51.12904101056343" lon="17.036744544637862"><ele>116.85714285714286</ele><time>2026-05-03T14:08:15Z</time></trkpt><trkpt lat="51.12897742349117" lon="17.036720925282708"><ele>116.71428571428572</ele><time>2026-05-03T14:08:16Z</time></trkpt><trkpt lat="51.12890684143961" lon="17.036701633692726"><ele>116.57142857142858</ele><time>2026-05-03T14:08:17Z</time></trkpt><trkpt lat="51.12884014396427" lon="17.036684955093122"><ele>116.42857142857144</ele><time>2026-05-03T14:08:18Z</time></trkpt><trkpt lat="51.12877292785107" lon="17.036665253955913"><ele>116.28571428571429</ele><time>2026-05-03T14:08:19Z</time></trkpt><trkpt lat="51.12870814671597" lon="17.03665463785598"><ele>116.14285714285717</ele><time>2026-05-03T14:08:20Z</time></trkpt><trkpt lat="51.128641311622204" lon="17.036629942934166"><ele>116.00000000000001</ele><time>2026-05-03T14:08:21Z</time></trkpt><trkpt lat="51.12857663981193" lon="17.036617282295605"><ele>116.00000000000001</ele><time>2026-05-03T14:08:22Z</time></trkpt><trkpt lat="51.12850990005311" lon="17.036600689341622"><ele>116.0</ele><time>2026-05-03T14:08:23Z</time></trkpt><trkpt lat="51.12844485463138" lon="17.03658362745645"><ele>116.00000000000001</ele><time>2026-05-03T14:08:24Z</time></trkpt><trkpt lat="51.1283795010395" lon="17.03655287133105"><ele>116.00000000000001</ele><time>2026-05-03T14:08:25Z</time></trkpt><trkpt lat="51.128309954761875" lon="17.036530171500452"><ele>116.0</ele><time>2026-05-03T14:08:26Z</time></trkpt><trkpt lat="51.12823913507581" lon="17.036520640155544"><ele>116.00000000000001</ele><time>2026-05-03T14:08:27Z</time></trkpt><trkpt lat="51.128168543594846" lon="17.03651014993152"><ele>116.00000000000001</ele><time>2026-05-03T14:08:28Z</time></trkpt><trkpt lat="51.128098470504284" lon="17.036485980219368"><ele>116.00000000000001</ele><time>2026-05-03T14:08:29Z</time></trkpt><trkpt lat="51.12803050926026" lon="17.03647332417928"><ele>116.0</ele><time>2026-05-03T14:08:30Z</time></trkpt><trkpt lat="51.12795989063014" lon="17.03645539042797"><ele>116.00000000000001</ele><time>2026-05-03T14:08:31Z</time></trkpt><trkpt lat="51.127888952309775" lon="17.036434997275084"><ele>116.00000000000001</ele><time>2026-05-03T14:08:32Z</time></trkpt><trkpt lat="51.127821101970355" lon="17.036414604478693"><ele>116.0</ele><time>2026-05-03T14:08:33Z</time></trkpt><trkpt lat="51.12775120662343" lon="17.03639804961751"><ele>116.00000000000001</ele><time>2026-05-03T14:08:34Z</time></trkpt><trkpt lat="51.12768256283619" lon="17.0363884614934"><ele>116.00000000000001</ele><time>2026-05-03T14:08:35Z</time></trkpt><trkpt lat="51.1276156994336" lon="17.036370273905735"><ele>116.00000000000001</ele><time>2026-05-03T14:08:36Z</time></trkpt><trkpt lat="51.127547968864256" lon="17.036353575317108"><ele>116.0</ele><time>2026-05-03T14:08:37Z</time></trkpt><trkpt lat="51.127480133479914" lon="17.036338146407843"><ele>116.00000000000001</ele><time>2026-05-03T14:08:38Z</time></trkpt><trkpt lat="51.1274136487007" lon="17.036322577115513"><ele>116.00000000000001</ele><time>2026-05-03T14:08:39Z</time></trkpt><trkpt lat="51.12734456569055" lon="17.03630338119608"><ele>116.0</ele><time>2026-05-03T14:08:40Z</time></trkpt><trkpt lat="51.12727475808997" lon="17.036289134617967"><ele>116.00000000000001</ele><time>2026-05-03T14:08:41Z</time></trkpt><trkpt lat="51.127204238649064" lon="17.03626399103264"><ele>116.00000000000001</ele><time>2026-05-03T14:08:42Z</time></trkpt><trkpt lat="51.12713368296978" lon="17.03624564926411"><ele>115.83333333333333</ele><time>2026-05-03T14:08:43Z</time></trkpt><trkpt lat="51.127057959965434" lon="17.03622123604935"><ele>115.66666666666666</ele><time>2026-05-03T14:08:44Z</time></trkpt><trkpt lat="51.126982437042365" lon="17.036215471609378"><ele>115.5</ele><time>2026-05-03T14:08:45Z</time></trkpt><trkpt lat="51.12690755367271" lon="17.03619484945835"><ele>115.33333333333334</ele><time>2026-05-03T14:08:46Z</time></trkpt><trkpt lat="51.126833089790594" lon="17.03617888007085"><ele>115.16666666666667</ele><time>2026-05-03T14:08:47Z</time></trkpt><trkpt lat="51.1267592596387" lon="17.036158235947706"><ele>115.0</ele><time>2026-05-03T14:08:48Z</time></trkpt><trkpt lat="51.12668590747381" lon="17.036137686449567"><ele>114.99999999999999</ele><time>2026-05-03T14:08:49Z</time></trkpt><trkpt lat="51.12661443992513" lon="17.03611409860932"><ele>115.0</ele><time>2026-05-03T14:08:50Z</time></trkpt><trkpt lat="51.12654337504518" lon="17.03609404533138"><ele>114.99999999999999</ele><time>2026-05-03T14:08:51Z</time></trkpt><trkpt lat="51.12647026135615" lon="17.036080867789217"><ele>114.99999999999999</ele><time>2026-05-03T14:08:52Z</time></trkpt><trkpt lat="51.126398817432175" lon="17.036068817342244"><ele>115.0</ele><time>2026-05-03T14:08:53Z</time></trkpt><trkpt lat="51.12632762881263" lon="17.036048399365793"><ele>114.99999999999999</ele><time>2026-05-03T14:08:54Z</time></trkpt><trkpt lat="51.12625506385138" lon="17.036030366266615"><ele>114.99999999999999</ele><time>2026-05-03T14:08:55Z</time></trkpt><trkpt lat="51.12618358674255" lon="17.036012475489265"><ele>115.28571428571428</ele><time>2026-05-03T14:08:56Z</time></trkpt><trkpt lat="51.1261114721896" lon="17.035995960635322"><ele>115.57142857142857</ele><time>2026-05-03T14:08:57Z</time></trkpt><trkpt lat="51.12603858842183" lon="17.035975158800927"><ele>115.85714285714286</ele><time>2026-05-03T14:08:58Z</time></trkpt><trkpt lat="51.12596341295367" lon="17.035962134897478"><ele>116.14285714285714</ele><time>2026-05-03T14:08:59Z</time></trkpt><trkpt lat="51.12588942040813" lon="17.035939242708086"><ele>116.42857142857144</ele><time>2026-05-03T14:09:00Z</time></trkpt><trkpt lat="51.12581853116768" lon="17.03592204354116"><ele>116.71428571428572</ele><time>2026-05-03T14:09:01Z</time></trkpt><trkpt lat="51.12574460037433" lon="17.035906193075373"><ele>117.0</ele><time>2026-05-03T14:09:02Z</time></trkpt><trkpt lat="51.12566743416935" lon="17.03589853393888"><ele>116.33333333333333</ele><time>2026-05-03T14:09:03Z</time></trkpt><trkpt lat="51.125588043183505" lon="17.035886478482674"><ele>115.66666666666666</ele><time>2026-05-03T14:09:04Z</time></trkpt><trkpt lat="51.12551300717997" lon="17.035875188769335"><ele>115.0</ele><time>2026-05-03T14:09:05Z</time></trkpt><trkpt lat="51.12543885462521" lon="17.03586383529278"><ele>114.33333333333333</ele><time>2026-05-03T14:09:06Z</time></trkpt><trkpt lat="51.12535863055255" lon="17.035855841255547"><ele>113.66666666666666</ele><time>2026-05-03T14:09:07Z</time></trkpt><trkpt lat="51.12528820385856" lon="17.035848321702623"><ele>113.0</ele><time>2026-05-03T14:09:08Z</time></trkpt><trkpt lat="51.12520995970777" lon="17.035832471864353"><ele>113.0</ele><time>2026-05-03T14:09:09.053Z</time></trkpt><trkpt lat="51.1251339210234" lon="17.035816755838113"><ele>113.00000000000001</ele><time>2026-05-03T14:09:10.055Z</time></trkpt><trkpt lat="51.12503856221435" lon="17.035738625103004"><ele>113.00000000000001</ele><time>2026-05-03T14:09:14Z</time></trkpt><trkpt lat="51.12496961270269" lon="17.035696495645784"><ele>113.0</ele><time>2026-05-03T14:09:15Z</time></trkpt><trkpt lat="51.124855075146996" lon="17.035625726347174"><ele>113.0</ele><time>2026-05-03T14:09:17Z</time></trkpt><trkpt lat="51.1247378539084" lon="17.035611643540424"><ele>114.0</ele><time>2026-05-03T14:09:19Z</time></trkpt><trkpt lat="51.124618708383274" lon="17.035610135924422"><ele>115.0</ele><time>2026-05-03T14:09:21Z</time></trkpt><trkpt lat="51.124501429545695" lon="17.03560806131667"><ele>116.0</ele><time>2026-05-03T14:09:23Z</time></trkpt><trkpt lat="51.124387347520354" lon="17.035624182936356"><ele>117.0</ele><time>2026-05-03T14:09:25Z</time></trkpt><trkpt lat="51.12427593134682" lon="17.035654704559835"><ele>117.0</ele><time>2026-05-03T14:09:27Z</time></trkpt><trkpt lat="51.124179538385434" lon="17.035677430215866"><ele>116.99999999999999</ele><time>2026-05-03T14:09:29Z</time></trkpt><trkpt lat="51.124082579088274" lon="17.035694333195508"><ele>116.99999999999999</ele><time>2026-05-03T14:09:31Z</time></trkpt><trkpt lat="51.1239789380319" lon="17.03570846099137"><ele>117.0</ele><time>2026-05-03T14:09:33Z</time></trkpt><trkpt lat="51.12386965989113" lon="17.03573532628295"><ele>117.0</ele><time>2026-05-03T14:09:35Z</time></trkpt><trkpt lat="51.12375521964654" lon="17.03576771801861"><ele>116.75</ele><time>2026-05-03T14:09:37Z</time></trkpt><trkpt lat="51.123641448340976" lon="17.03580731328446"><ele>116.5</ele><time>2026-05-03T14:09:39Z</time></trkpt><trkpt lat="51.12352124845592" lon="17.035833900292353"><ele>116.25</ele><time>2026-05-03T14:09:41Z</time></trkpt><trkpt lat="51.1234065326954" lon="17.035873301490543"><ele>116.0</ele><time>2026-05-03T14:09:42.999Z</time></trkpt><trkpt lat="51.12329043503206" lon="17.035908728610185"><ele>116.75</ele><time>2026-05-03T14:09:44.999Z</time></trkpt><trkpt lat="51.123177708693795" lon="17.035947756617986"><ele>117.5</ele><time>2026-05-03T14:09:46.999Z</time></trkpt><trkpt lat="51.12306227557367" lon="17.035973780613965"><ele>118.25</ele><time>2026-05-03T14:09:48.999Z</time></trkpt><trkpt lat="51.122945730343254" lon="17.035998392738705"><ele>119.0</ele><time>2026-05-03T14:09:50.999Z</time></trkpt><trkpt lat="51.12283120380096" lon="17.036029169924443"><ele>119.0</ele><time>2026-05-03T14:09:52.999Z</time></trkpt><trkpt lat="51.12271158991833" lon="17.0360592761141"><ele>119.0</ele><time>2026-05-03T14:09:54.999Z</time></trkpt><trkpt lat="51.122648649539734" lon="17.03609047392"><ele>119.0</ele><time>2026-05-03T14:09:55.999Z</time></trkpt><trkpt lat="51.12252078204754" lon="17.036107956118155"><ele>119.0</ele><time>2026-05-03T14:09:57.999Z</time></trkpt><trkpt lat="51.12240139357245" lon="17.036120424714788"><ele>119.0</ele><time>2026-05-03T14:09:59.999Z</time></trkpt><trkpt lat="51.12233594213727" lon="17.03615855051626"><ele>118.66666666666666</ele><time>2026-05-03T14:10:00.999Z</time></trkpt><trkpt lat="51.12221717733199" lon="17.036170729605317"><ele>118.33333333333333</ele><time>2026-05-03T14:10:02.999Z</time></trkpt><trkpt lat="51.12209000002918" lon="17.03619519662313"><ele>118.0</ele><time>2026-05-03T14:10:04.999Z</time></trkpt><trkpt lat="51.12202681934737" lon="17.036214538335496"><ele>117.66666666666666</ele><time>2026-05-03T14:10:05.999Z</time></trkpt><trkpt lat="51.12195971258715" lon="17.036241040312284"><ele>117.33333333333333</ele><time>2026-05-03T14:10:06.999Z</time></trkpt><trkpt lat="51.12189688331441" lon="17.036254778192305"><ele>117.0</ele><time>2026-05-03T14:10:07.999Z</time></trkpt><trkpt lat="51.12177413539987" lon="17.036278735816893"><ele>117.0</ele><time>2026-05-03T14:10:09.999Z</time></trkpt><trkpt lat="51.12171082342325" lon="17.03630204412809"><ele>117.0</ele><time>2026-05-03T14:10:10.999Z</time></trkpt><trkpt lat="51.121649725072" lon="17.036327860620226"><ele>117.0</ele><time>2026-05-03T14:10:11.999Z</time></trkpt><trkpt lat="51.1215779572851" lon="17.036325748477722"><ele>117.0</ele><time>2026-05-03T14:10:13Z</time></trkpt><trkpt lat="51.121506659686055" lon="17.03633533691594"><ele>117.0</ele><time>2026-05-03T14:10:14Z</time></trkpt><trkpt lat="51.121383292342095" lon="17.0363613875639"><ele>117.0</ele><time>2026-05-03T14:10:16Z</time></trkpt><trkpt lat="51.12130197221131" lon="17.036374169734263"><ele>116.83333333333333</ele><time>2026-05-03T14:10:17Z</time></trkpt><trkpt lat="51.12123462922306" lon="17.036392883334905"><ele>116.66666666666666</ele><time>2026-05-03T14:10:18Z</time></trkpt><trkpt lat="51.12111375921255" lon="17.036418087881856"><ele>116.5</ele><time>2026-05-03T14:10:20Z</time></trkpt><trkpt lat="51.12105091984616" lon="17.036441947586994"><ele>116.33333333333333</ele><time>2026-05-03T14:10:21Z</time></trkpt><trkpt lat="51.12098846405404" lon="17.036462214561926"><ele>116.16666666666666</ele><time>2026-05-03T14:10:22Z</time></trkpt><trkpt lat="51.12092317849996" lon="17.03647950090257"><ele>116.0</ele><time>2026-05-03T14:10:23Z</time></trkpt><trkpt lat="51.12085647439558" lon="17.036499438677062"><ele>115.83333333333333</ele><time>2026-05-03T14:10:24Z</time></trkpt><trkpt lat="51.120731190030185" lon="17.036547199881582"><ele>115.66666666666666</ele><time>2026-05-03T14:10:26Z</time></trkpt><trkpt lat="51.12066221986019" lon="17.0365836073389"><ele>115.5</ele><time>2026-05-03T14:10:27Z</time></trkpt><trkpt lat="51.12059903828745" lon="17.036599412119276"><ele>115.33333333333334</ele><time>2026-05-03T14:10:28Z</time></trkpt><trkpt lat="51.12053477467892" lon="17.036608037949012"><ele>115.16666666666667</ele><time>2026-05-03T14:10:29Z</time></trkpt><trkpt lat="51.12046818787482" lon="17.03660438170152"><ele>115.0</ele><time>2026-05-03T14:10:30Z</time></trkpt><trkpt lat="51.120404271787415" lon="17.036621379857163"><ele>115.00000000000001</ele><time>2026-05-03T14:10:31Z</time></trkpt><trkpt lat="51.1202794188847" lon="17.03663111919577"><ele>115.0</ele><time>2026-05-03T14:10:33Z</time></trkpt><trkpt lat="51.12021514348397" lon="17.03664563583564"><ele>115.0</ele><time>2026-05-03T14:10:34Z</time></trkpt><trkpt lat="51.12015055979969" lon="17.03664965002939"><ele>115.0</ele><time>2026-05-03T14:10:35Z</time></trkpt><trkpt lat="51.120085156765704" lon="17.0366616361519"><ele>115.00000000000001</ele><time>2026-05-03T14:10:36Z</time></trkpt><trkpt lat="51.119966827112826" lon="17.036705529034084"><ele>115.0</ele><time>2026-05-03T14:10:38Z</time></trkpt><trkpt lat="51.119903286399705" lon="17.03671901216645"><ele>115.8</ele><time>2026-05-03T14:10:39Z</time></trkpt><trkpt lat="51.11977588944951" lon="17.036741083123605"><ele>116.6</ele><time>2026-05-03T14:10:41Z</time></trkpt><trkpt lat="51.11965146581426" lon="17.036772895057744"><ele>117.4</ele><time>2026-05-03T14:10:43Z</time></trkpt><trkpt lat="51.11953086268364" lon="17.036773040406835"><ele>118.2</ele><time>2026-05-03T14:10:45Z</time></trkpt><trkpt lat="51.11946137343332" lon="17.036733914185692"><ele>119.0</ele><time>2026-05-03T14:10:46Z</time></trkpt><trkpt lat="51.11940509263069" lon="17.03668101657163"><ele>118.66666666666666</ele><time>2026-05-03T14:10:47Z</time></trkpt><trkpt lat="51.11935687853586" lon="17.03660862679313"><ele>118.33333333333333</ele><time>2026-05-03T14:10:48Z</time></trkpt><trkpt lat="51.11931464423619" lon="17.036528170348877"><ele>118.0</ele><time>2026-05-03T14:10:49Z</time></trkpt><trkpt lat="51.1192773489904" lon="17.03643325970312"><ele>117.66666666666666</ele><time>2026-05-03T14:10:50Z</time></trkpt><trkpt lat="51.11927048802322" lon="17.036324443153386"><ele>117.33333333333333</ele><time>2026-05-03T14:10:51Z</time></trkpt><trkpt lat="51.11926203888457" lon="17.036218785845683"><ele>117.0</ele><time>2026-05-03T14:10:52Z</time></trkpt><trkpt lat="51.11924561854038" lon="17.03602494221235"><ele>117.0</ele><time>2026-05-03T14:10:54Z</time></trkpt><trkpt lat="51.119189479093535" lon="17.035867831794285"><ele>116.99999999999999</ele><time>2026-05-03T14:10:56Z</time></trkpt><trkpt lat="51.11909512978604" lon="17.035769947050856"><ele>116.99999999999999</ele><time>2026-05-03T14:10:58Z</time></trkpt><trkpt lat="51.11903190185965" lon="17.035726779422443"><ele>117.0</ele><time>2026-05-03T14:10:59Z</time></trkpt><trkpt lat="51.11892888292066" lon="17.03565542154231"><ele>117.0</ele><time>2026-05-03T14:11:01Z</time></trkpt><trkpt lat="51.118864858122876" lon="17.035615401104106"><ele>116.8</ele><time>2026-05-03T14:11:02Z</time></trkpt><trkpt lat="51.1187524087103" lon="17.035541162511986"><ele>116.6</ele><time>2026-05-03T14:11:04Z</time></trkpt><trkpt lat="51.11869310565094" lon="17.035505651921476"><ele>116.39999999999999</ele><time>2026-05-03T14:11:05Z</time></trkpt><trkpt lat="51.11857692106152" lon="17.035405262387908"><ele>116.19999999999999</ele><time>2026-05-03T14:11:07Z</time></trkpt><trkpt lat="51.1185116995533" lon="17.035356710713916"><ele>116.0</ele><time>2026-05-03T14:11:08Z</time></trkpt><trkpt lat="51.118394658092335" lon="17.035299714258382"><ele>116.0</ele><time>2026-05-03T14:11:10Z</time></trkpt><trkpt lat="51.11827554046446" lon="17.035242157206678"><ele>116.0</ele><time>2026-05-03T14:11:12Z</time></trkpt><trkpt lat="51.11817776972211" lon="17.035171305849364"><ele>116.0</ele><time>2026-05-03T14:11:14Z</time></trkpt><trkpt lat="51.11810144427287" lon="17.035104790974867"><ele>116.0</ele><time>2026-05-03T14:11:16Z</time></trkpt><trkpt lat="51.11802290628946" lon="17.035102861731367"><ele>116.0</ele><time>2026-05-03T14:11:18Z</time></trkpt><trkpt lat="51.117956585092955" lon="17.035053470554036"><ele>115.85714285714288</ele><time>2026-05-03T14:11:20Z</time></trkpt><trkpt lat="51.117894804209776" lon="17.03501310629462"><ele>115.71428571428572</ele><time>2026-05-03T14:11:22Z</time></trkpt><trkpt lat="51.11783211214031" lon="17.03497790121508"><ele>115.57142857142857</ele><time>2026-05-03T14:11:24Z</time></trkpt><trkpt lat="51.117772323776045" lon="17.034940097161993"><ele>115.42857142857143</ele><time>2026-05-03T14:11:26Z</time></trkpt><trkpt lat="51.11773486353129" lon="17.034833423114357"><ele>115.28571428571428</ele><time>2026-05-03T14:11:30Z</time></trkpt><trkpt lat="51.117695546429275" lon="17.03469485613975"><ele>115.14285714285712</ele><time>2026-05-03T14:11:33Z</time></trkpt><trkpt lat="51.11766477953603" lon="17.03460199507856"><ele>114.99999999999999</ele><time>2026-05-03T14:11:35Z</time></trkpt><trkpt lat="51.11762881713893" lon="17.0345100660578"><ele>114.99999999999999</ele><time>2026-05-03T14:11:37Z</time></trkpt><trkpt lat="51.117588924046" lon="17.03440862207234"><ele>115.0</ele><time>2026-05-03T14:11:39Z</time></trkpt><trkpt lat="51.11759432184406" lon="17.034308529408314"><ele>114.99999999999999</ele><time>2026-05-03T14:11:45Z</time></trkpt><trkpt lat="51.11752425129709" lon="17.034263414904487"><ele>114.99999999999999</ele><time>2026-05-03T14:11:53Z</time></trkpt><trkpt lat="51.117465085706996" lon="17.034221482288793"><ele>115.0</ele><time>2026-05-03T14:11:55Z</time></trkpt><trkpt lat="51.117387885134065" lon="17.034147810262795"><ele>114.99999999999999</ele><time>2026-05-03T14:11:57Z</time></trkpt><trkpt lat="51.11732086030655" lon="17.034078310333463"><ele>114.99999999999999</ele><time>2026-05-03T14:11:59Z</time></trkpt><trkpt lat="51.11723351159808" lon="17.034035307235566"><ele>115.50000000000001</ele><time>2026-05-03T14:12:02Z</time></trkpt><trkpt lat="51.11720533429558" lon="17.033935310706255"><ele>116.0</ele><time>2026-05-03T14:12:06Z</time></trkpt><trkpt lat="51.1171417784085" lon="17.03391295365405"><ele>116.5</ele><time>2026-05-03T14:12:11.999Z</time></trkpt><trkpt lat="51.117065333082586" lon="17.033875518531087"><ele>117.0</ele><time>2026-05-03T14:12:17.999Z</time></trkpt><trkpt lat="51.11700358829449" lon="17.033799483662758"><ele>117.50000000000001</ele><time>2026-05-03T14:12:21Z</time></trkpt><trkpt lat="51.11694508292656" lon="17.033713274059572"><ele>118.0</ele><time>2026-05-03T14:12:24Z</time></trkpt><trkpt lat="51.116917713384524" lon="17.033583675044056"><ele>118.00000000000001</ele><time>2026-05-03T14:12:26Z</time></trkpt><trkpt lat="51.11689196184025" lon="17.033457392767552"><ele>118.0</ele><time>2026-05-03T14:12:28Z</time></trkpt><trkpt lat="51.11685171383913" lon="17.033359249305843"><ele>118.0</ele><time>2026-05-03T14:12:30Z</time></trkpt><trkpt lat="51.11677589676003" lon="17.033324643070305"><ele>118.0</ele><time>2026-05-03T14:12:32Z</time></trkpt><trkpt lat="51.116699442935875" lon="17.033288437735468"><ele>118.00000000000001</ele><time>2026-05-03T14:12:34Z</time></trkpt><trkpt lat="51.116633645228916" lon="17.033257714837422"><ele>118.0</ele><time>2026-05-03T14:12:36Z</time></trkpt><trkpt lat="51.1165650945087" lon="17.03323809104639"><ele>118.00000000000001</ele><time>2026-05-03T14:12:38Z</time></trkpt><trkpt lat="51.11648059867914" lon="17.033214435920346"><ele>118.0</ele><time>2026-05-03T14:12:40Z</time></trkpt><trkpt lat="51.11640143618104" lon="17.033212636880318"><ele>118.0</ele><time>2026-05-03T14:12:42Z</time></trkpt><trkpt lat="51.116328865730054" lon="17.033219017760413"><ele>118.0</ele><time>2026-05-03T14:12:44Z</time></trkpt><trkpt lat="51.116262721280215" lon="17.033237363196235"><ele>118.00000000000001</ele><time>2026-05-03T14:12:46Z</time></trkpt><trkpt lat="51.11617737778175" lon="17.03324699315702"><ele>118.0</ele><time>2026-05-03T14:12:48Z</time></trkpt><trkpt lat="51.116098971415305" lon="17.033273959775954"><ele>117.2</ele><time>2026-05-03T14:12:50Z</time></trkpt><trkpt lat="51.116003003102584" lon="17.033335713303043"><ele>116.4</ele><time>2026-05-03T14:12:52Z</time></trkpt><trkpt lat="51.115902502980106" lon="17.03338401622342"><ele>115.60000000000001</ele><time>2026-05-03T14:12:54Z</time></trkpt><trkpt lat="51.11578435367091" lon="17.03342624882963"><ele>114.80000000000001</ele><time>2026-05-03T14:12:56Z</time></trkpt><trkpt lat="51.11572061861603" lon="17.033446329369813"><ele>114.0</ele><time>2026-05-03T14:12:57Z</time></trkpt><trkpt lat="51.1156021406933" lon="17.033487629679183"><ele>113.83333333333333</ele><time>2026-05-03T14:12:59Z</time></trkpt><trkpt lat="51.11548088572515" lon="17.03353019637842"><ele>113.66666666666666</ele><time>2026-05-03T14:13:01Z</time></trkpt><trkpt lat="51.11541771376222" lon="17.033549525495147"><ele>113.5</ele><time>2026-05-03T14:13:02Z</time></trkpt><trkpt lat="51.115296206800885" lon="17.03359165946684"><ele>113.33333333333333</ele><time>2026-05-03T14:13:04Z</time></trkpt><trkpt lat="51.11523316148241" lon="17.03361751789432"><ele>113.16666666666666</ele><time>2026-05-03T14:13:05Z</time></trkpt><trkpt lat="51.115169849995446" lon="17.033640556609022"><ele>113.0</ele><time>2026-05-03T14:13:06Z</time></trkpt><trkpt lat="51.11510576332642" lon="17.033662763028065"><ele>112.99999999999999</ele><time>2026-05-03T14:13:07Z</time></trkpt><trkpt lat="51.11504074678338" lon="17.033687569300014"><ele>113.0</ele><time>2026-05-03T14:13:08Z</time></trkpt><trkpt lat="51.114975146717136" lon="17.033715208394884"><ele>113.0</ele><time>2026-05-03T14:13:09Z</time></trkpt><trkpt lat="51.11490938474246" lon="17.03373237067386"><ele>113.0</ele><time>2026-05-03T14:13:10Z</time></trkpt><trkpt lat="51.11484786953538" lon="17.033755363624284"><ele>112.99999999999999</ele><time>2026-05-03T14:13:11Z</time></trkpt><trkpt lat="51.11472492010926" lon="17.03379991328817"><ele>113.0</ele><time>2026-05-03T14:13:13Z</time></trkpt><trkpt lat="51.114663038083734" lon="17.033823025705992"><ele>113.83333333333333</ele><time>2026-05-03T14:13:14Z</time></trkpt><trkpt lat="51.11455090797632" lon="17.033858219710236"><ele>114.66666666666666</ele><time>2026-05-03T14:13:16Z</time></trkpt><trkpt lat="51.11447184857118" lon="17.033880479181"><ele>115.5</ele><time>2026-05-03T14:13:18Z</time></trkpt><trkpt lat="51.11439519676751" lon="17.033895983885525"><ele>116.33333333333334</ele><time>2026-05-03T14:13:22Z</time></trkpt><trkpt lat="51.11432253323325" lon="17.033907022901936"><ele>117.16666666666667</ele><time>2026-05-03T14:13:26Z</time></trkpt><trkpt lat="51.114376663521746" lon="17.033958866136427"><ele>118.0</ele><time>2026-05-03T14:14:06Z</time></trkpt><trkpt lat="51.114367379969494" lon="17.034070255181643"><ele>118.0</ele><time>2026-05-03T14:14:08Z</time></trkpt><trkpt lat="51.11429378670676" lon="17.034127616208668"><ele>118.00000000000001</ele><time>2026-05-03T14:14:09.999Z</time></trkpt><trkpt lat="51.11424483981323" lon="17.03420853469118"><ele>118.00000000000001</ele><time>2026-05-03T14:14:11.999Z</time></trkpt><trkpt lat="51.11427503134834" lon="17.03436574506229"><ele>118.0</ele><time>2026-05-03T14:14:14.999Z</time></trkpt><trkpt lat="51.11432456063124" lon="17.03452501721108"><ele>118.0</ele><time>2026-05-03T14:14:16.999Z</time></trkpt><trkpt lat="51.1143685504403" lon="17.03471039243956"><ele>118.28571428571428</ele><time>2026-05-03T14:14:18.999Z</time></trkpt><trkpt lat="51.114381231800806" lon="17.03481693434467"><ele>118.57142857142858</ele><time>2026-05-03T14:14:19.999Z</time></trkpt><trkpt lat="51.114410160310044" lon="17.03491964031071"><ele>118.85714285714286</ele><time>2026-05-03T14:14:20.999Z</time></trkpt><trkpt lat="51.114445509923776" lon="17.03501762295499"><ele>119.14285714285714</ele><time>2026-05-03T14:14:21.999Z</time></trkpt><trkpt lat="51.114479374907496" lon="17.035117988702034"><ele>119.42857142857142</ele><time>2026-05-03T14:14:22.999Z</time></trkpt><trkpt lat="51.11450713486953" lon="17.03522346653225"><ele>119.71428571428572</ele><time>2026-05-03T14:14:23.999Z</time></trkpt><trkpt lat="51.11453377454173" lon="17.035331541899982"><ele>120.0</ele><time>2026-05-03T14:14:25Z</time></trkpt><trkpt lat="51.11455331380014" lon="17.035445987948627"><ele>120.0</ele><time>2026-05-03T14:14:26Z</time></trkpt><trkpt lat="51.114563183061" lon="17.035565989602976"><ele>120.0</ele><time>2026-05-03T14:14:27Z</time></trkpt><trkpt lat="51.11456913027908" lon="17.035686733973844"><ele>120.0</ele><time>2026-05-03T14:14:28Z</time></trkpt><trkpt lat="51.11456828362522" lon="17.03581096092301"><ele>120.0</ele><time>2026-05-03T14:14:29Z</time></trkpt><trkpt lat="51.11455714185606" lon="17.035934674032486"><ele>120.0</ele><time>2026-05-03T14:14:30Z</time></trkpt><trkpt lat="51.11453462561884" lon="17.036056088235377"><ele>120.0</ele><time>2026-05-03T14:14:31Z</time></trkpt><trkpt lat="51.11450305542118" lon="17.03616654171574"><ele>120.0</ele><time>2026-05-03T14:14:32Z</time></trkpt><trkpt lat="51.11446864727959" lon="17.036273135930983"><ele>120.0</ele><time>2026-05-03T14:14:33Z</time></trkpt><trkpt lat="51.11443047024552" lon="17.03637351771512"><ele>120.0</ele><time>2026-05-03T14:14:34Z</time></trkpt><trkpt lat="51.114390169427615" lon="17.03646982162368"><ele>120.0</ele><time>2026-05-03T14:14:35Z</time></trkpt><trkpt lat="51.1143505388071" lon="17.03656686818787"><ele>120.0</ele><time>2026-05-03T14:14:36Z</time></trkpt><trkpt lat="51.11430633101382" lon="17.03665933737525"><ele>120.0</ele><time>2026-05-03T14:14:37Z</time></trkpt><trkpt lat="51.11426402217516" lon="17.036743743916592"><ele>120.0</ele><time>2026-05-03T14:14:38Z</time></trkpt><trkpt lat="51.11421949131877" lon="17.036829083173263"><ele>120.0</ele><time>2026-05-03T14:14:39Z</time></trkpt><trkpt lat="51.114174271929635" lon="17.03691939972488"><ele>120.0</ele><time>2026-05-03T14:14:40Z</time></trkpt><trkpt lat="51.11412806041747" lon="17.037013483260203"><ele>120.0</ele><time>2026-05-03T14:14:41Z</time></trkpt><trkpt lat="51.11408193225332" lon="17.03710590207615"><ele>120.0</ele><time>2026-05-03T14:14:42Z</time></trkpt><trkpt lat="51.11403760938052" lon="17.037200950003697"><ele>120.0</ele><time>2026-05-03T14:14:43Z</time></trkpt><trkpt lat="51.1139955512391" lon="17.037300249801657"><ele>120.0</ele><time>2026-05-03T14:14:44Z</time></trkpt><trkpt lat="51.11395221616625" lon="17.037402009148614"><ele>120.0</ele><time>2026-05-03T14:14:45Z</time></trkpt><trkpt lat="51.11390812712662" lon="17.037506831220778"><ele>120.16666666666667</ele><time>2026-05-03T14:14:46Z</time></trkpt><trkpt lat="51.113868607964875" lon="17.037609695271577"><ele>120.33333333333334</ele><time>2026-05-03T14:14:47Z</time></trkpt><trkpt lat="51.113826287236115" lon="17.03771034695378"><ele>120.5</ele><time>2026-05-03T14:14:48Z</time></trkpt><trkpt lat="51.11378293632904" lon="17.037811531134988"><ele>120.66666666666667</ele><time>2026-05-03T14:14:49Z</time></trkpt><trkpt lat="51.113734254045816" lon="17.03790716191159"><ele>120.83333333333334</ele><time>2026-05-03T14:14:50Z</time></trkpt><trkpt lat="51.11369246803896" lon="17.03800580644934"><ele>121.0</ele><time>2026-05-03T14:14:51Z</time></trkpt><trkpt lat="51.113651821163536" lon="17.038104731914206"><ele>121.0</ele><time>2026-05-03T14:14:52Z</time></trkpt><trkpt lat="51.11361036842038" lon="17.038202627237265"><ele>120.99999999999999</ele><time>2026-05-03T14:14:53Z</time></trkpt><trkpt lat="51.11357252473676" lon="17.03829908101373"><ele>121.0</ele><time>2026-05-03T14:14:54Z</time></trkpt><trkpt lat="51.113532687949395" lon="17.03839204914476"><ele>121.0</ele><time>2026-05-03T14:14:55Z</time></trkpt><trkpt lat="51.113493784220786" lon="17.03848669536604"><ele>120.99999999999999</ele><time>2026-05-03T14:14:56Z</time></trkpt><trkpt lat="51.11345437287355" lon="17.03857995884531"><ele>121.0</ele><time>2026-05-03T14:14:57Z</time></trkpt><trkpt lat="51.11341548067126" lon="17.038674718275157"><ele>121.0</ele><time>2026-05-03T14:14:58Z</time></trkpt><trkpt lat="51.11337528033826" lon="17.03876594012247"><ele>120.85714285714285</ele><time>2026-05-03T14:14:59Z</time></trkpt><trkpt lat="51.1133323410728" lon="17.03885830487856"><ele>120.7142857142857</ele><time>2026-05-03T14:15:00Z</time></trkpt><trkpt lat="51.113288806725684" lon="17.038948213120296"><ele>120.57142857142857</ele><time>2026-05-03T14:15:01Z</time></trkpt><trkpt lat="51.113244956081" lon="17.039036483772417"><ele>120.42857142857142</ele><time>2026-05-03T14:15:02Z</time></trkpt><trkpt lat="51.113201878658856" lon="17.039123246748495"><ele>120.28571428571428</ele><time>2026-05-03T14:15:03Z</time></trkpt><trkpt lat="51.11314696205585" lon="17.039216332867806"><ele>120.14285714285714</ele><time>2026-05-03T14:15:05Z</time></trkpt><trkpt lat="51.11307719845324" lon="17.039244852290903"><ele>120.0</ele><time>2026-05-03T14:15:09Z</time></trkpt><trkpt lat="51.11302437828219" lon="17.039332411629193"><ele>120.0</ele><time>2026-05-03T14:15:12Z</time></trkpt><trkpt lat="51.112952860387146" lon="17.039340151676615"><ele>120.0</ele><time>2026-05-03T14:15:15Z</time></trkpt><trkpt lat="51.1128867536639" lon="17.039313621963192"><ele>120.0</ele><time>2026-05-03T14:15:17Z</time></trkpt><trkpt lat="51.11281215884177" lon="17.03929901958809"><ele>120.0</ele><time>2026-05-03T14:15:19Z</time></trkpt><trkpt lat="51.1127388958176" lon="17.03929373156452"><ele>120.0</ele><time>2026-05-03T14:15:21Z</time></trkpt><trkpt lat="51.11265804846628" lon="17.039291283975622"><ele>120.0</ele><time>2026-05-03T14:15:24Z</time></trkpt><trkpt lat="51.112577879520714" lon="17.039302775599754"><ele>120.0</ele><time>2026-05-03T14:15:26Z</time></trkpt><trkpt lat="51.11247358317775" lon="17.03930079401062"><ele>120.0</ele><time>2026-05-03T14:15:28Z</time></trkpt><trkpt lat="51.11236108566957" lon="17.039293108804742"><ele>120.0</ele><time>2026-05-03T14:15:30Z</time></trkpt><trkpt lat="51.112297737300416" lon="17.039292952426546"><ele>120.0</ele><time>2026-05-03T14:15:31Z</time></trkpt><trkpt lat="51.11223409383973" lon="17.039289296843876"><ele>120.0</ele><time>2026-05-03T14:15:32Z</time></trkpt><trkpt lat="51.11216989431795" lon="17.039280029017995"><ele>120.0</ele><time>2026-05-03T14:15:33Z</time></trkpt><trkpt lat="51.11210381904128" lon="17.039273775943816"><ele>120.14285714285714</ele><time>2026-05-03T14:15:34Z</time></trkpt><trkpt lat="51.112030723365436" lon="17.039265812754774"><ele>120.28571428571428</ele><time>2026-05-03T14:15:35Z</time></trkpt><trkpt lat="51.11195822074391" lon="17.039263906182367"><ele>120.42857142857142</ele><time>2026-05-03T14:15:36Z</time></trkpt><trkpt lat="51.111885156231345" lon="17.039247184517716"><ele>120.57142857142857</ele><time>2026-05-03T14:15:37Z</time></trkpt><trkpt lat="51.11181200420645" lon="17.03922907307942"><ele>120.7142857142857</ele><time>2026-05-03T14:15:38Z</time></trkpt><trkpt lat="51.11174086839405" lon="17.039212758413345"><ele>120.85714285714285</ele><time>2026-05-03T14:15:39Z</time></trkpt><trkpt lat="51.11167262121976" lon="17.03920293599117"><ele>121.0</ele><time>2026-05-03T14:15:40Z</time></trkpt><trkpt lat="51.11160044598351" lon="17.039201442626062"><ele>121.0</ele><time>2026-05-03T14:15:41Z</time></trkpt><trkpt lat="51.11153115285556" lon="17.03918233191494"><ele>120.99999999999999</ele><time>2026-05-03T14:15:42Z</time></trkpt><trkpt lat="51.111463934956944" lon="17.03915907349673"><ele>121.0</ele><time>2026-05-03T14:15:43Z</time></trkpt><trkpt lat="51.11139998521049" lon="17.039118098032688"><ele>121.0</ele><time>2026-05-03T14:15:44Z</time></trkpt><trkpt lat="51.111340347693165" lon="17.039067390041318"><ele>120.99999999999999</ele><time>2026-05-03T14:15:45Z</time></trkpt><trkpt lat="51.11128500886793" lon="17.039019165790602"><ele>121.0</ele><time>2026-05-03T14:15:46Z</time></trkpt><trkpt lat="51.11122131207567" lon="17.038993484521807"><ele>121.0</ele><time>2026-05-03T14:15:47Z</time></trkpt><trkpt lat="51.11115519211168" lon="17.03898479531963"><ele>121.00000000000001</ele><time>2026-05-03T14:15:48Z</time></trkpt><trkpt lat="51.1110881397853" lon="17.038971765544705"><ele>121.0</ele><time>2026-05-03T14:15:49Z</time></trkpt><trkpt lat="51.11102516800907" lon="17.038953487316622"><ele>121.0</ele><time>2026-05-03T14:15:50Z</time></trkpt><trkpt lat="51.11096207624686" lon="17.038936055789538"><ele>121.0</ele><time>2026-05-03T14:15:51Z</time></trkpt><trkpt lat="51.11083935311201" lon="17.03893886854418"><ele>121.00000000000001</ele><time>2026-05-03T14:15:53Z</time></trkpt><trkpt lat="51.11072532332987" lon="17.038991089873683"><ele>121.0</ele><time>2026-05-03T14:15:55Z</time></trkpt><trkpt lat="51.110610823974355" lon="17.038976255079962"><ele>120.66666666666667</ele><time>2026-05-03T14:15:57Z</time></trkpt><trkpt lat="51.110491466128735" lon="17.038935944252017"><ele>120.33333333333334</ele><time>2026-05-03T14:15:58.999Z</time></trkpt><trkpt lat="51.110426120154976" lon="17.03892302456749"><ele>120.0</ele><time>2026-05-03T14:15:59.999Z</time></trkpt><trkpt lat="51.11035938528163" lon="17.03890278172953"><ele>119.66666666666666</ele><time>2026-05-03T14:16:00.999Z</time></trkpt><trkpt lat="51.11029204742481" lon="17.038886657742395"><ele>119.33333333333333</ele><time>2026-05-03T14:16:01.999Z</time></trkpt><trkpt lat="51.11022334963435" lon="17.038865100591387"><ele>119.0</ele><time>2026-05-03T14:16:02.999Z</time></trkpt><trkpt lat="51.11015376387812" lon="17.038849967815747"><ele>119.0</ele><time>2026-05-03T14:16:03.999Z</time></trkpt><trkpt lat="51.110085159794764" lon="17.03883088281939"><ele>119.0</ele><time>2026-05-03T14:16:04.999Z</time></trkpt><trkpt lat="51.110019128510174" lon="17.038807653638727"><ele>119.0</ele><time>2026-05-03T14:16:05.999Z</time></trkpt><trkpt lat="51.10995253618439" lon="17.038787384258008"><ele>119.0</ele><time>2026-05-03T14:16:06.999Z</time></trkpt><trkpt lat="51.109886886014046" lon="17.038762984667535"><ele>119.0</ele><time>2026-05-03T14:16:07.999Z</time></trkpt><trkpt lat="51.10981982655033" lon="17.03874522292201"><ele>119.0</ele><time>2026-05-03T14:16:08.999Z</time></trkpt><trkpt lat="51.109749629786414" lon="17.03872752340313"><ele>119.0</ele><time>2026-05-03T14:16:09.999Z</time></trkpt><trkpt lat="51.109684169696635" lon="17.03871276815866"><ele>119.16666666666666</ele><time>2026-05-03T14:16:10.999Z</time></trkpt><trkpt lat="51.10962206764649" lon="17.038688253215454"><ele>119.33333333333333</ele><time>2026-05-03T14:16:11.999Z</time></trkpt><trkpt lat="51.10949957478929" lon="17.038654396764723"><ele>119.5</ele><time>2026-05-03T14:16:13.999Z</time></trkpt><trkpt lat="51.10938046862315" lon="17.038610001954638"><ele>119.66666666666666</ele><time>2026-05-03T14:16:15.999Z</time></trkpt><trkpt lat="51.10931528575104" lon="17.03859730660574"><ele>119.83333333333333</ele><time>2026-05-03T14:16:16.999Z</time></trkpt><trkpt lat="51.10924581385876" lon="17.03858204757075"><ele>120.0</ele><time>2026-05-03T14:16:17.999Z</time></trkpt><trkpt lat="51.10917892641728" lon="17.038566210242934"><ele>120.0</ele><time>2026-05-03T14:16:18.999Z</time></trkpt><trkpt lat="51.10910824549122" lon="17.038543441615992"><ele>120.0</ele><time>2026-05-03T14:16:19.999Z</time></trkpt><trkpt lat="51.10904241884386" lon="17.038523504933792"><ele>120.0</ele><time>2026-05-03T14:16:20.999Z</time></trkpt><trkpt lat="51.10897540375969" lon="17.03850313662326"><ele>120.0</ele><time>2026-05-03T14:16:21.999Z</time></trkpt><trkpt lat="51.10890677405279" lon="17.038480366488855"><ele>120.0</ele><time>2026-05-03T14:16:22.999Z</time></trkpt><trkpt lat="51.10883571793906" lon="17.03847028234464"><ele>120.0</ele><time>2026-05-03T14:16:23.999Z</time></trkpt><trkpt lat="51.10876866140937" lon="17.038456898069544"><ele>120.0</ele><time>2026-05-03T14:16:24.999Z</time></trkpt><trkpt lat="51.108695872275106" lon="17.038452806036446"><ele>119.71428571428572</ele><time>2026-05-03T14:16:25.999Z</time></trkpt><trkpt lat="51.10862809519541" lon="17.038462325427776"><ele>119.42857142857142</ele><time>2026-05-03T14:16:26.999Z</time></trkpt><trkpt lat="51.10855971965063" lon="17.03848768872079"><ele>119.14285714285714</ele><time>2026-05-03T14:16:27.999Z</time></trkpt><trkpt lat="51.10849484250922" lon="17.038515043616147"><ele>118.85714285714286</ele><time>2026-05-03T14:16:28.999Z</time></trkpt><trkpt lat="51.10842683054576" lon="17.03854560811879"><ele>118.57142857142858</ele><time>2026-05-03T14:16:29.999Z</time></trkpt><trkpt lat="51.108356851046665" lon="17.038578547386464"><ele>118.28571428571428</ele><time>2026-05-03T14:16:31Z</time></trkpt><trkpt lat="51.10828245388111" lon="17.03860479407149"><ele>118.0</ele><time>2026-05-03T14:16:32Z</time></trkpt><trkpt lat="51.10821509374015" lon="17.038630482634268"><ele>117.75</ele><time>2026-05-03T14:16:33Z</time></trkpt><trkpt lat="51.108141665941574" lon="17.03863929030752"><ele>117.5</ele><time>2026-05-03T14:16:34Z</time></trkpt><trkpt lat="51.10807433629473" lon="17.03862721140005"><ele>117.25</ele><time>2026-05-03T14:16:35Z</time></trkpt><trkpt lat="51.10798753820844" lon="17.03855526231064"><ele>117.0</ele><time>2026-05-03T14:16:37Z</time></trkpt><trkpt lat="51.10809069571428" lon="17.038262803713543"><ele>117.39999999999999</ele><time>2026-05-03T14:16:38Z</time></trkpt><trkpt lat="51.108090837132636" lon="17.038140729689076"><ele>117.79999999999998</ele><time>2026-05-03T14:16:39Z</time></trkpt><trkpt lat="51.10808909702777" lon="17.037982453111574"><ele>118.2</ele><time>2026-05-03T14:16:40Z</time></trkpt><trkpt lat="51.10802220586216" lon="17.03782213382939"><ele>118.6</ele><time>2026-05-03T14:16:42Z</time></trkpt><trkpt lat="51.10798728284701" lon="17.037700243180097"><ele>119.0</ele><time>2026-05-03T14:16:43Z</time></trkpt><trkpt lat="51.10795154433202" lon="17.037575047270213"><ele>119.14285714285714</ele><time>2026-05-03T14:16:44Z</time></trkpt><trkpt lat="51.10793982606405" lon="17.037463355689688"><ele>119.28571428571428</ele><time>2026-05-03T14:16:45Z</time></trkpt><trkpt lat="51.10792278095988" lon="17.037352151401503"><ele>119.42857142857143</ele><time>2026-05-03T14:16:46Z</time></trkpt><trkpt lat="51.1079006791853" lon="17.037247356038236"><ele>119.57142857142857</ele><time>2026-05-03T14:16:47Z</time></trkpt><trkpt lat="51.10788366973019" lon="17.037140480826874"><ele>119.71428571428571</ele><time>2026-05-03T14:16:48Z</time></trkpt><trkpt lat="51.10786163337813" lon="17.037034930749652"><ele>119.85714285714286</ele><time>2026-05-03T14:16:49Z</time></trkpt><trkpt lat="51.10783283108725" lon="17.036929941633776"><ele>120.0</ele><time>2026-05-03T14:16:50Z</time></trkpt><trkpt lat="51.10780429017292" lon="17.03682824736216"><ele>120.0</ele><time>2026-05-03T14:16:51Z</time></trkpt><trkpt lat="51.10777567016649" lon="17.036726704135685"><ele>120.0</ele><time>2026-05-03T14:16:52Z</time></trkpt><trkpt lat="51.107742256913696" lon="17.03662407707296"><ele>120.0</ele><time>2026-05-03T14:16:53Z</time></trkpt><trkpt lat="51.1077028782571" lon="17.036530311134637"><ele>120.0</ele><time>2026-05-03T14:16:54Z</time></trkpt><trkpt lat="51.10766461584649" lon="17.0364364993149"><ele>120.0</ele><time>2026-05-03T14:16:55Z</time></trkpt><trkpt lat="51.10758037837749" lon="17.036276558402392"><ele>120.0</ele><time>2026-05-03T14:16:57Z</time></trkpt><trkpt lat="51.10752832666465" lon="17.03620011884502"><ele>120.14285714285714</ele><time>2026-05-03T14:16:58Z</time></trkpt><trkpt lat="51.107477741696776" lon="17.036123197834346"><ele>120.28571428571428</ele><time>2026-05-03T14:16:59Z</time></trkpt><trkpt lat="51.10743280837606" lon="17.03604282591394"><ele>120.42857142857142</ele><time>2026-05-03T14:17:00Z</time></trkpt><trkpt lat="51.10739245566025" lon="17.035951870927665"><ele>120.57142857142857</ele><time>2026-05-03T14:17:01Z</time></trkpt><trkpt lat="51.107369155610016" lon="17.035840178005937"><ele>120.7142857142857</ele><time>2026-05-03T14:17:02Z</time></trkpt><trkpt lat="51.10734414559544" lon="17.03573130605144"><ele>120.85714285714285</ele><time>2026-05-03T14:17:03Z</time></trkpt><trkpt lat="51.10732515841151" lon="17.035621757944764"><ele>121.0</ele><time>2026-05-03T14:17:04Z</time></trkpt><trkpt lat="51.10730850018932" lon="17.035509931933344"><ele>121.0</ele><time>2026-05-03T14:17:05Z</time></trkpt><trkpt lat="51.10729119179195" lon="17.03539631021304"><ele>120.99999999999999</ele><time>2026-05-03T14:17:06Z</time></trkpt><trkpt lat="51.107279034851885" lon="17.03527821356126"><ele>121.0</ele><time>2026-05-03T14:17:07Z</time></trkpt><trkpt lat="51.107271771491554" lon="17.03516188553439"><ele>121.0</ele><time>2026-05-03T14:17:08Z</time></trkpt><trkpt lat="51.10726590900158" lon="17.035045388019928"><ele>120.99999999999999</ele><time>2026-05-03T14:17:09Z</time></trkpt><trkpt lat="51.107260949726864" lon="17.034930368677113"><ele>121.0</ele><time>2026-05-03T14:17:10Z</time></trkpt><trkpt lat="51.10725663729097" lon="17.03481127371187"><ele>121.0</ele><time>2026-05-03T14:17:11Z</time></trkpt><trkpt lat="51.107252129237104" lon="17.034690982234324"><ele>121.00000000000001</ele><time>2026-05-03T14:17:12Z</time></trkpt><trkpt lat="51.10725195647327" lon="17.03457277508761"><ele>121.0</ele><time>2026-05-03T14:17:13Z</time></trkpt><trkpt lat="51.107253364965665" lon="17.034458003357273"><ele>121.0</ele><time>2026-05-03T14:17:14Z</time></trkpt><trkpt lat="51.10725493491555" lon="17.03434706173729"><ele>121.0</ele><time>2026-05-03T14:17:15Z</time></trkpt><trkpt lat="51.10725789516096" lon="17.034242447331696"><ele>121.00000000000001</ele><time>2026-05-03T14:17:16Z</time></trkpt><trkpt lat="51.10725908214458" lon="17.034136549419046"><ele>121.0</ele><time>2026-05-03T14:17:17Z</time></trkpt><trkpt lat="51.107264579632016" lon="17.033960522128012"><ele>121.00000000000001</ele><time>2026-05-03T14:17:19Z</time></trkpt><trkpt lat="51.10727402879942" lon="17.03385003497746"><ele>121.0</ele><time>2026-05-03T14:17:21Z</time></trkpt><trkpt lat="51.1072795303657" lon="17.033722421405738"><ele>121.0</ele><time>2026-05-03T14:17:24Z</time></trkpt><trkpt lat="51.107285919021365" lon="17.033590890442863"><ele>121.0</ele><time>2026-05-03T14:17:27Z</time></trkpt><trkpt lat="51.10729749224866" lon="17.033452797508925"><ele>121.00000000000001</ele><time>2026-05-03T14:17:29Z</time></trkpt><trkpt lat="51.10731332264946" lon="17.03327995421209"><ele>121.0</ele><time>2026-05-03T14:17:31Z</time></trkpt><trkpt lat="51.10735129695648" lon="17.033173860212013"><ele>120.71428571428571</ele><time>2026-05-03T14:17:33Z</time></trkpt><trkpt lat="51.107377951714355" lon="17.03307972018243"><ele>120.42857142857142</ele><time>2026-05-03T14:17:36Z</time></trkpt><trkpt lat="51.107390328616674" lon="17.032977911647038"><ele>120.14285714285714</ele><time>2026-05-03T14:17:38Z</time></trkpt><trkpt lat="51.10740719835741" lon="17.032867347057135"><ele>119.85714285714286</ele><time>2026-05-03T14:17:40Z</time></trkpt><trkpt lat="51.1074034608372" lon="17.03276248750238"><ele>119.57142857142857</ele><time>2026-05-03T14:17:43Z</time></trkpt><trkpt lat="51.107428363314455" lon="17.032650418308453"><ele>119.28571428571428</ele><time>2026-05-03T14:17:45Z</time></trkpt><trkpt lat="51.10745582635545" lon="17.032560065592772"><ele>119.0</ele><time>2026-05-03T14:17:47Z</time></trkpt><trkpt lat="51.10753033903361" lon="17.03255905679719"><ele>118.99999999999999</ele><time>2026-05-03T14:17:52Z</time></trkpt><trkpt lat="51.10759964149655" lon="17.032581395747055"><ele>119.0</ele><time>2026-05-03T14:17:54Z</time></trkpt><trkpt lat="51.107739190549474" lon="17.0326312667153"><ele>119.0</ele><time>2026-05-03T14:17:55.999Z</time></trkpt><trkpt lat="51.1076780353676" lon="17.032584440484836"><ele>119.0</ele><time>2026-05-03T14:34:53Z</time></trkpt><trkpt lat="51.10760856886296" lon="17.032541809823684"><ele>118.99999999999999</ele><time>2026-05-03T14:34:55Z</time></trkpt><trkpt lat="51.10754572107077" lon="17.032499022273225"><ele>119.0</ele><time>2026-05-03T14:34:57Z</time></trkpt><trkpt lat="51.10747708749425" lon="17.032448149999766"><ele>119.16666666666666</ele><time>2026-05-03T14:35:00Z</time></trkpt><trkpt lat="51.107433669700676" lon="17.032369687784584"><ele>119.33333333333333</ele><time>2026-05-03T14:35:23Z</time></trkpt><trkpt lat="51.107360170329095" lon="17.03230827159579"><ele>119.5</ele><time>2026-05-03T14:35:26Z</time></trkpt><trkpt lat="51.10729256176828" lon="17.03231073415695"><ele>119.66666666666666</ele><time>2026-05-03T14:35:29Z</time></trkpt><trkpt lat="51.1072127020669" lon="17.03224885847039"><ele>119.83333333333333</ele><time>2026-05-03T14:35:32Z</time></trkpt><trkpt lat="51.10713196385996" lon="17.032333164127998"><ele>120.0</ele><time>2026-05-03T14:35:35Z</time></trkpt><trkpt lat="51.10711965214226" lon="17.032488954250947"><ele>120.83333333333333</ele><time>2026-05-03T14:35:37Z</time></trkpt><trkpt lat="51.10709057843272" lon="17.032616668774967"><ele>121.66666666666666</ele><time>2026-05-03T14:35:39Z</time></trkpt><trkpt lat="51.107078565248734" lon="17.03275130547633"><ele>122.5</ele><time>2026-05-03T14:35:41Z</time></trkpt><trkpt lat="51.1070733158425" lon="17.03288053911491"><ele>123.33333333333333</ele><time>2026-05-03T14:35:43Z</time></trkpt><trkpt lat="51.10707495745705" lon="17.032994723278584"><ele>124.16666666666666</ele><time>2026-05-03T14:36:05Z</time></trkpt><trkpt lat="51.10705807231503" lon="17.03311550405794"><ele>125.0</ele><time>2026-05-03T14:36:08Z</time></trkpt><trkpt lat="51.10706246886823" lon="17.033262730866984"><ele>124.42857142857142</ele><time>2026-05-03T14:36:10Z</time></trkpt><trkpt lat="51.10705881637181" lon="17.033446577467725"><ele>123.85714285714286</ele><time>2026-05-03T14:36:12Z</time></trkpt><trkpt lat="51.10705245870342" lon="17.033547196990106"><ele>123.28571428571428</ele><time>2026-05-03T14:36:13Z</time></trkpt><trkpt lat="51.1070852855784" lon="17.0336509221692"><ele>122.71428571428571</ele><time>2026-05-03T14:36:14Z</time></trkpt><trkpt lat="51.10708644278119" lon="17.033755812173766"><ele>122.14285714285714</ele><time>2026-05-03T14:36:15Z</time></trkpt><trkpt lat="51.1070850448961" lon="17.033861321214292"><ele>121.57142857142857</ele><time>2026-05-03T14:36:16Z</time></trkpt><trkpt lat="51.107083664005756" lon="17.03396554749522"><ele>121.0</ele><time>2026-05-03T14:36:17Z</time></trkpt><trkpt lat="51.10704226558876" lon="17.03407087183454"><ele>121.00000000000001</ele><time>2026-05-03T14:36:18Z</time></trkpt><trkpt lat="51.107043260416525" lon="17.034174697745062"><ele>121.0</ele><time>2026-05-03T14:36:19Z</time></trkpt><trkpt lat="51.107039452202706" lon="17.03427868609791"><ele>121.0</ele><time>2026-05-03T14:36:20Z</time></trkpt><trkpt lat="51.10703932250737" lon="17.034380996503618"><ele>121.0</ele><time>2026-05-03T14:36:21Z</time></trkpt><trkpt lat="51.107040625227654" lon="17.03448715828385"><ele>121.00000000000001</ele><time>2026-05-03T14:36:22Z</time></trkpt><trkpt lat="51.10704066944887" lon="17.03468917757483"><ele>121.0</ele><time>2026-05-03T14:36:24Z</time></trkpt><trkpt lat="51.107041903916226" lon="17.034789946368992"><ele>121.0</ele><time>2026-05-03T14:36:25Z</time></trkpt><trkpt lat="51.10704914342562" lon="17.034893693954274"><ele>120.99999999999999</ele><time>2026-05-03T14:36:26Z</time></trkpt><trkpt lat="51.10705348175109" lon="17.03500056865202"><ele>121.0</ele><time>2026-05-03T14:36:27Z</time></trkpt><trkpt lat="51.107056885362994" lon="17.03510715773028"><ele>121.0</ele><time>2026-05-03T14:36:28Z</time></trkpt><trkpt lat="51.10706303649525" lon="17.03521376781521"><ele>120.99999999999999</ele><time>2026-05-03T14:36:29Z</time></trkpt><trkpt lat="51.10707320155394" lon="17.035321610184933"><ele>121.0</ele><time>2026-05-03T14:36:30Z</time></trkpt><trkpt lat="51.10708711649425" lon="17.035429637275215"><ele>121.0</ele><time>2026-05-03T14:36:31Z</time></trkpt><trkpt lat="51.10709978701558" lon="17.035536356377722"><ele>121.0</ele><time>2026-05-03T14:36:32Z</time></trkpt><trkpt lat="51.10711252475929" lon="17.035644121287262"><ele>120.99999999999999</ele><time>2026-05-03T14:36:33Z</time></trkpt><trkpt lat="51.107130518241725" lon="17.03575442363287"><ele>121.0</ele><time>2026-05-03T14:36:34Z</time></trkpt><trkpt lat="51.107150795501035" lon="17.035859312805613"><ele>121.0</ele><time>2026-05-03T14:36:35Z</time></trkpt><trkpt lat="51.107174686760274" lon="17.035966510609754"><ele>120.99999999999999</ele><time>2026-05-03T14:36:36Z</time></trkpt><trkpt lat="51.10720112052679" lon="17.036071709484307"><ele>121.0</ele><time>2026-05-03T14:36:37Z</time></trkpt><trkpt lat="51.10722938874347" lon="17.036174715347983"><ele>121.0</ele><time>2026-05-03T14:36:38Z</time></trkpt><trkpt lat="51.10726453466306" lon="17.03627434426373"><ele>121.00000000000001</ele><time>2026-05-03T14:36:39Z</time></trkpt><trkpt lat="51.10730139101596" lon="17.036375630125836"><ele>121.0</ele><time>2026-05-03T14:36:40Z</time></trkpt><trkpt lat="51.10739075083494" lon="17.03642392228975"><ele>121.0</ele><time>2026-05-03T14:36:41Z</time></trkpt><trkpt lat="51.10743090137516" lon="17.03652447713706"><ele>121.0</ele><time>2026-05-03T14:36:42Z</time></trkpt><trkpt lat="51.10747157944949" lon="17.036626352993952"><ele>121.00000000000001</ele><time>2026-05-03T14:36:43Z</time></trkpt><trkpt lat="51.10751206083541" lon="17.03672902512047"><ele>121.0</ele><time>2026-05-03T14:36:44Z</time></trkpt><trkpt lat="51.10755174143657" lon="17.036829500382613"><ele>120.83333333333334</ele><time>2026-05-03T14:36:45Z</time></trkpt><trkpt lat="51.10749883510186" lon="17.037020223626694"><ele>120.66666666666667</ele><time>2026-05-03T14:36:46Z</time></trkpt><trkpt lat="51.10753250946955" lon="17.037128204351333"><ele>120.5</ele><time>2026-05-03T14:36:47Z</time></trkpt><trkpt lat="51.10756413420746" lon="17.037242570723198"><ele>120.33333333333334</ele><time>2026-05-03T14:36:48Z</time></trkpt><trkpt lat="51.107569534140396" lon="17.03735045312121"><ele>120.16666666666667</ele><time>2026-05-03T14:36:49Z</time></trkpt><trkpt lat="51.107580914269306" lon="17.03746468629825"><ele>120.0</ele><time>2026-05-03T14:36:50Z</time></trkpt><trkpt lat="51.10758307104496" lon="17.03757890168633"><ele>119.83333333333333</ele><time>2026-05-03T14:36:51Z</time></trkpt><trkpt lat="51.10758673358773" lon="17.037692581748953"><ele>119.66666666666666</ele><time>2026-05-03T14:36:52Z</time></trkpt><trkpt lat="51.10758637906282" lon="17.03780079586567"><ele>119.5</ele><time>2026-05-03T14:36:53Z</time></trkpt><trkpt lat="51.10758990182598" lon="17.03796945512869"><ele>119.33333333333333</ele><time>2026-05-03T14:36:55Z</time></trkpt><trkpt lat="51.10757497693333" lon="17.038078437557918"><ele>119.16666666666666</ele><time>2026-05-03T14:36:57Z</time></trkpt><trkpt lat="51.107601890264" lon="17.03818350487682"><ele>119.0</ele><time>2026-05-03T14:37:00Z</time></trkpt><trkpt lat="51.10751934865666" lon="17.038386840046677"><ele>119.0</ele><time>2026-05-03T14:37:02Z</time></trkpt><trkpt lat="51.107411630299666" lon="17.038460561220912"><ele>119.0</ele><time>2026-05-03T14:37:03Z</time></trkpt><trkpt lat="51.107348292694375" lon="17.038457650518435"><ele>119.0</ele><time>2026-05-03T14:37:04Z</time></trkpt><trkpt lat="51.107268784163416" lon="17.038426417520387"><ele>119.0</ele><time>2026-05-03T14:37:12Z</time></trkpt><trkpt lat="51.10717206545095" lon="17.038436776020987"><ele>119.0</ele><time>2026-05-03T14:37:14Z</time></trkpt><trkpt lat="51.10706504831445" lon="17.038410858278652"><ele>119.0</ele><time>2026-05-03T14:37:16Z</time></trkpt><trkpt lat="51.106946172842974" lon="17.038412913672193"><ele>119.0</ele><time>2026-05-03T14:37:18Z</time></trkpt><trkpt lat="51.10682123280868" lon="17.038370738796125"><ele>119.0</ele><time>2026-05-03T14:37:20Z</time></trkpt><trkpt lat="51.10670164929542" lon="17.03830626648335"><ele>119.0</ele><time>2026-05-03T14:37:22Z</time></trkpt><trkpt lat="51.10659023689772" lon="17.038262703460923"><ele>119.14285714285714</ele><time>2026-05-03T14:37:24Z</time></trkpt><trkpt lat="51.106521025934995" lon="17.03825649444142"><ele>119.28571428571428</ele><time>2026-05-03T14:37:25Z</time></trkpt><trkpt lat="51.10644984192346" lon="17.03822900545215"><ele>119.42857142857143</ele><time>2026-05-03T14:37:26Z</time></trkpt><trkpt lat="51.10638632719473" lon="17.038204478092638"><ele>119.57142857142857</ele><time>2026-05-03T14:37:27Z</time></trkpt><trkpt lat="51.10631578941302" lon="17.038177238661326"><ele>119.71428571428571</ele><time>2026-05-03T14:37:28Z</time></trkpt><trkpt lat="51.106256996975375" lon="17.038101640513425"><ele>119.85714285714286</ele><time>2026-05-03T14:37:29Z</time></trkpt><trkpt lat="51.10618319410188" lon="17.03809500692323"><ele>120.0</ele><time>2026-05-03T14:37:30Z</time></trkpt><trkpt lat="51.106126831196725" lon="17.038020704254222"><ele>120.0</ele><time>2026-05-03T14:37:31Z</time></trkpt><trkpt lat="51.10606241054994" lon="17.037992798546362"><ele>120.0</ele><time>2026-05-03T14:37:32Z</time></trkpt><trkpt lat="51.10599306762992" lon="17.037972940041872"><ele>120.0</ele><time>2026-05-03T14:37:33Z</time></trkpt><trkpt lat="51.105920797663316" lon="17.037951333950897"><ele>120.0</ele><time>2026-05-03T14:37:34Z</time></trkpt><trkpt lat="51.105849586290546" lon="17.037934517026134"><ele>120.0</ele><time>2026-05-03T14:37:35Z</time></trkpt><trkpt lat="51.10577947916673" lon="17.037913836877"><ele>120.0</ele><time>2026-05-03T14:37:36Z</time></trkpt><trkpt lat="51.10571196085413" lon="17.037891458521237"><ele>120.0</ele><time>2026-05-03T14:37:37Z</time></trkpt><trkpt lat="51.10564621764222" lon="17.037867092423447"><ele>119.66666666666667</ele><time>2026-05-03T14:37:38Z</time></trkpt><trkpt lat="51.10558156194492" lon="17.037850832838515"><ele>119.33333333333334</ele><time>2026-05-03T14:37:39Z</time></trkpt><trkpt lat="51.1054627193998" lon="17.037811117466013"><ele>119.0</ele><time>2026-05-03T14:37:41Z</time></trkpt><trkpt lat="51.1053656178254" lon="17.037772435872668"><ele>118.66666666666667</ele><time>2026-05-03T14:37:43Z</time></trkpt><trkpt lat="51.10529931932202" lon="17.03774662482167"><ele>118.33333333333334</ele><time>2026-05-03T14:37:45Z</time></trkpt><trkpt lat="51.10523678532743" lon="17.037728124994967"><ele>118.0</ele><time>2026-05-03T14:37:47Z</time></trkpt><trkpt lat="51.10514690674694" lon="17.037677644454394"><ele>118.00000000000001</ele><time>2026-05-03T14:37:50Z</time></trkpt><trkpt lat="51.10506056225802" lon="17.03763520399292"><ele>118.0</ele><time>2026-05-03T14:37:53Z</time></trkpt><trkpt lat="51.10499838703732" lon="17.037590525567886"><ele>118.0</ele><time>2026-05-03T14:37:55Z</time></trkpt><trkpt lat="51.104914983397485" lon="17.037555883646707"><ele>118.0</ele><time>2026-05-03T14:37:57Z</time></trkpt><trkpt lat="51.10482160919678" lon="17.0375169563815"><ele>118.00000000000001</ele><time>2026-05-03T14:37:59Z</time></trkpt><trkpt lat="51.104730072970604" lon="17.037487266032937"><ele>118.0</ele><time>2026-05-03T14:38:01Z</time></trkpt><trkpt lat="51.10463451039829" lon="17.037438127990118"><ele>118.2</ele><time>2026-05-03T14:38:03Z</time></trkpt><trkpt lat="51.10453151596011" lon="17.037403768946774"><ele>118.4</ele><time>2026-05-03T14:38:05Z</time></trkpt><trkpt lat="51.10443277055776" lon="17.03740417747042"><ele>118.60000000000001</ele><time>2026-05-03T14:38:07Z</time></trkpt><trkpt lat="51.104345816170095" lon="17.03737145614585"><ele>118.80000000000001</ele><time>2026-05-03T14:38:09Z</time></trkpt><trkpt lat="51.10428172800349" lon="17.037347789122094"><ele>119.0</ele><time>2026-05-03T14:38:11Z</time></trkpt><trkpt lat="51.104190247513074" lon="17.037287980956147"><ele>118.99999999999999</ele><time>2026-05-03T14:38:14Z</time></trkpt><trkpt lat="51.104097287500515" lon="17.037253956991417"><ele>119.0</ele><time>2026-05-03T14:38:16Z</time></trkpt><trkpt lat="51.10398959966478" lon="17.037189759559713"><ele>119.0</ele><time>2026-05-03T14:38:18Z</time></trkpt><trkpt lat="51.10392151569168" lon="17.037165766470025"><ele>119.0</ele><time>2026-05-03T14:38:19Z</time></trkpt><trkpt lat="51.10384461439395" lon="17.03714137775197"><ele>118.99999999999999</ele><time>2026-05-03T14:38:20Z</time></trkpt><trkpt lat="51.10375880449999" lon="17.037145823358102"><ele>119.0</ele><time>2026-05-03T14:38:21Z</time></trkpt><trkpt lat="51.10367994144115" lon="17.037090869733003"><ele>118.83333333333333</ele><time>2026-05-03T14:38:22Z</time></trkpt><trkpt lat="51.10359890817249" lon="17.037057047807867"><ele>118.66666666666666</ele><time>2026-05-03T14:38:23Z</time></trkpt><trkpt lat="51.10351937225693" lon="17.03702539396479"><ele>118.5</ele><time>2026-05-03T14:38:24Z</time></trkpt><trkpt lat="51.10343856629318" lon="17.0370003063758"><ele>118.33333333333334</ele><time>2026-05-03T14:38:25Z</time></trkpt><trkpt lat="51.10335639535842" lon="17.036975635940863"><ele>118.16666666666667</ele><time>2026-05-03T14:38:26Z</time></trkpt><trkpt lat="51.103273023741956" lon="17.036952857624264"><ele>118.0</ele><time>2026-05-03T14:38:27Z</time></trkpt><trkpt lat="51.10318825475002" lon="17.03693094950052"><ele>118.00000000000001</ele><time>2026-05-03T14:38:28Z</time></trkpt><trkpt lat="51.10310328297854" lon="17.03690526323045"><ele>118.0</ele><time>2026-05-03T14:38:29Z</time></trkpt><trkpt lat="51.1030196421512" lon="17.03687531410198"><ele>118.0</ele><time>2026-05-03T14:38:30Z</time></trkpt><trkpt lat="51.102939713955124" lon="17.036845293140136"><ele>118.0</ele><time>2026-05-03T14:38:31Z</time></trkpt><trkpt lat="51.102861317219435" lon="17.036811216836412"><ele>118.00000000000001</ele><time>2026-05-03T14:38:32Z</time></trkpt><trkpt lat="51.1027873159169" lon="17.036772409021463"><ele>118.0</ele><time>2026-05-03T14:38:33Z</time></trkpt><trkpt lat="51.1027166980872" lon="17.03673753406888"><ele>118.00000000000001</ele><time>2026-05-03T14:38:34Z</time></trkpt><trkpt lat="51.102650009308256" lon="17.03670465346542"><ele>118.0</ele><time>2026-05-03T14:38:35Z</time></trkpt><trkpt lat="51.10258290343525" lon="17.03667748589276"><ele>118.0</ele><time>2026-05-03T14:38:36Z</time></trkpt><trkpt lat="51.102521026983766" lon="17.036638371381514"><ele>118.0</ele><time>2026-05-03T14:38:37Z</time></trkpt><trkpt lat="51.10246306668451" lon="17.036597546966565"><ele>118.00000000000001</ele><time>2026-05-03T14:38:38Z</time></trkpt><trkpt lat="51.10235118545902" lon="17.03655124315976"><ele>118.0</ele><time>2026-05-03T14:38:40Z</time></trkpt><trkpt lat="51.1022398128094" lon="17.03650391429536"><ele>118.50000000000001</ele><time>2026-05-03T14:38:42Z</time></trkpt><trkpt lat="51.102163058180835" lon="17.036373969391033"><ele>119.0</ele><time>2026-05-03T14:38:44Z</time></trkpt><trkpt lat="51.10216053126103" lon="17.03626950206241"><ele>119.5</ele><time>2026-05-03T14:38:45Z</time></trkpt><trkpt lat="51.10217683344445" lon="17.036165240784744"><ele>120.0</ele><time>2026-05-03T14:38:46Z</time></trkpt><trkpt lat="51.10219400492362" lon="17.03606796812788"><ele>120.50000000000001</ele><time>2026-05-03T14:38:47Z</time></trkpt><trkpt lat="51.1022118535291" lon="17.035959514473966"><ele>121.0</ele><time>2026-05-03T14:38:48Z</time></trkpt><trkpt lat="51.10222882972971" lon="17.03584904395861"><ele>120.71428571428571</ele><time>2026-05-03T14:38:49Z</time></trkpt><trkpt lat="51.1022473820078" lon="17.035740698257595"><ele>120.42857142857142</ele><time>2026-05-03T14:38:50Z</time></trkpt><trkpt lat="51.102265775130604" lon="17.03563510217668"><ele>120.14285714285714</ele><time>2026-05-03T14:38:51Z</time></trkpt><trkpt lat="51.1022805973612" lon="17.03552014155611"><ele>119.85714285714286</ele><time>2026-05-03T14:38:52Z</time></trkpt><trkpt lat="51.10229771717007" lon="17.035410954981895"><ele>119.57142857142857</ele><time>2026-05-03T14:38:53Z</time></trkpt><trkpt lat="51.10231374333212" lon="17.03530237297561"><ele>119.28571428571428</ele><time>2026-05-03T14:38:54Z</time></trkpt><trkpt lat="51.10232403003963" lon="17.035192231055504"><ele>119.0</ele><time>2026-05-03T14:38:55Z</time></trkpt><trkpt lat="51.10233847400203" lon="17.03500765781706"><ele>118.80000000000001</ele><time>2026-05-03T14:38:57Z</time></trkpt><trkpt lat="51.10231351502525" lon="17.03486509030612"><ele>118.60000000000001</ele><time>2026-05-03T14:38:59Z</time></trkpt><trkpt lat="51.102225869117895" lon="17.03476994196963"><ele>118.4</ele><time>2026-05-03T14:39:01Z</time></trkpt><trkpt lat="51.10212501703901" lon="17.034741174654904"><ele>118.2</ele><time>2026-05-03T14:39:03Z</time></trkpt><trkpt lat="51.102015387094845" lon="17.03469207697515"><ele>118.0</ele><time>2026-05-03T14:39:05Z</time></trkpt><trkpt lat="51.10195240195658" lon="17.034667283367046"><ele>118.0</ele><time>2026-05-03T14:39:06Z</time></trkpt><trkpt lat="51.10188514223421" lon="17.034641045782138"><ele>118.0</ele><time>2026-05-03T14:39:07Z</time></trkpt><trkpt lat="51.10181613815686" lon="17.034610223139204"><ele>118.0</ele><time>2026-05-03T14:39:08Z</time></trkpt><trkpt lat="51.101738473225915" lon="17.034576208185758"><ele>118.0</ele><time>2026-05-03T14:39:09Z</time></trkpt><trkpt lat="51.10166659494672" lon="17.034540294063277"><ele>118.0</ele><time>2026-05-03T14:39:10Z</time></trkpt><trkpt lat="51.10159382262428" lon="17.034512360339967"><ele>118.0</ele><time>2026-05-03T14:39:11Z</time></trkpt><trkpt lat="51.10152180212774" lon="17.034482137347446"><ele>118.0</ele><time>2026-05-03T14:39:12Z</time></trkpt><trkpt lat="51.10145075269474" lon="17.03444673592445"><ele>118.66666666666667</ele><time>2026-05-03T14:39:13Z</time></trkpt><trkpt lat="51.101373350723556" lon="17.034414931703864"><ele>119.33333333333334</ele><time>2026-05-03T14:39:14Z</time></trkpt><trkpt lat="51.101300667671076" lon="17.034387789679812"><ele>120.0</ele><time>2026-05-03T14:39:15Z</time></trkpt><trkpt lat="51.101227792120014" lon="17.03435747974227"><ele>120.66666666666666</ele><time>2026-05-03T14:39:16Z</time></trkpt><trkpt lat="51.101154635269204" lon="17.034325963852552"><ele>121.33333333333333</ele><time>2026-05-03T14:39:17Z</time></trkpt><trkpt lat="51.1010825966978" lon="17.034292241919413"><ele>122.0</ele><time>2026-05-03T14:39:18Z</time></trkpt><trkpt lat="51.10100938546704" lon="17.034269257579567"><ele>121.99999999999999</ele><time>2026-05-03T14:39:19Z</time></trkpt><trkpt lat="51.10094108603461" lon="17.03423924702798"><ele>122.0</ele><time>2026-05-03T14:39:20Z</time></trkpt><trkpt lat="51.10087508637103" lon="17.034207631062017"><ele>122.0</ele><time>2026-05-03T14:39:21Z</time></trkpt><trkpt lat="51.100806937047615" lon="17.034178614100103"><ele>122.0</ele><time>2026-05-03T14:39:22Z</time></trkpt><trkpt lat="51.10069509934069" lon="17.034126278529204"><ele>121.99999999999999</ele><time>2026-05-03T14:39:24Z</time></trkpt><trkpt lat="51.100623732301834" lon="17.03408962058712"><ele>122.0</ele><time>2026-05-03T14:39:26Z</time></trkpt><trkpt lat="51.10054192986859" lon="17.03405016663761"><ele>121.33333333333333</ele><time>2026-05-03T14:39:29Z</time></trkpt><trkpt lat="51.10045999039301" lon="17.03405577344974"><ele>120.66666666666666</ele><time>2026-05-03T14:40:14Z</time></trkpt><trkpt lat="51.10039763286108" lon="17.034033832365594"><ele>120.0</ele><time>2026-05-03T14:40:16Z</time></trkpt><trkpt lat="51.100331475695604" lon="17.03394662977655"><ele>119.33333333333334</ele><time>2026-05-03T14:40:18Z</time></trkpt><trkpt lat="51.100242329565944" lon="17.03389702549705"><ele>118.66666666666667</ele><time>2026-05-03T14:40:20Z</time></trkpt><trkpt lat="51.10014035335272" lon="17.03383646403786"><ele>118.0</ele><time>2026-05-03T14:40:22Z</time></trkpt><trkpt lat="51.10007135574742" lon="17.03380092456486"><ele>118.00000000000001</ele><time>2026-05-03T14:40:23Z</time></trkpt><trkpt lat="51.09999661384981" lon="17.03376033514138"><ele>118.0</ele><time>2026-05-03T14:40:24Z</time></trkpt><trkpt lat="51.09991945914945" lon="17.033719892713776"><ele>118.0</ele><time>2026-05-03T14:40:25Z</time></trkpt><trkpt lat="51.09983787080352" lon="17.033676600926782"><ele>118.0</ele><time>2026-05-03T14:40:26Z</time></trkpt><trkpt lat="51.09975466064736" lon="17.033634426931535"><ele>118.00000000000001</ele><time>2026-05-03T14:40:27Z</time></trkpt><trkpt lat="51.099673196928116" lon="17.033598330459824"><ele>118.0</ele><time>2026-05-03T14:40:28Z</time></trkpt><trkpt lat="51.099585075537156" lon="17.033563933757407"><ele>118.16666666666667</ele><time>2026-05-03T14:40:29Z</time></trkpt><trkpt lat="51.09950347238466" lon="17.03353279326437"><ele>118.33333333333334</ele><time>2026-05-03T14:40:30Z</time></trkpt><trkpt lat="51.0994218192691" lon="17.033497725756373"><ele>118.5</ele><time>2026-05-03T14:40:31Z</time></trkpt><trkpt lat="51.09934320887159" lon="17.033464498193798"><ele>118.66666666666666</ele><time>2026-05-03T14:40:32Z</time></trkpt><trkpt lat="51.09926526831052" lon="17.03342574955774"><ele>118.83333333333333</ele><time>2026-05-03T14:40:33Z</time></trkpt><trkpt lat="51.099183811010185" lon="17.033380982878906"><ele>119.0</ele><time>2026-05-03T14:40:34Z</time></trkpt><trkpt lat="51.099100439677215" lon="17.03334462859196"><ele>119.2</ele><time>2026-05-03T14:40:35Z</time></trkpt><trkpt lat="51.099014713498406" lon="17.033307598498528"><ele>119.4</ele><time>2026-05-03T14:40:36Z</time></trkpt><trkpt lat="51.09892960318399" lon="17.033265927158688"><ele>119.6</ele><time>2026-05-03T14:40:37Z</time></trkpt><trkpt lat="51.0988469843045" lon="17.033224274013076"><ele>119.8</ele><time>2026-05-03T14:40:38Z</time></trkpt><trkpt lat="51.09875644384521" lon="17.033180813242723"><ele>120.0</ele><time>2026-05-03T14:40:39Z</time></trkpt><trkpt lat="51.09866891675381" lon="17.03314083531419"><ele>119.6</ele><time>2026-05-03T14:40:40Z</time></trkpt><trkpt lat="51.098587581366644" lon="17.033118084715316"><ele>119.2</ele><time>2026-05-03T14:40:41Z</time></trkpt><trkpt lat="51.09852034466976" lon="17.033063834262027"><ele>118.80000000000001</ele><time>2026-05-03T14:40:42Z</time></trkpt><trkpt lat="51.09841011800165" lon="17.03295777321639"><ele>118.4</ele><time>2026-05-03T14:40:44Z</time></trkpt><trkpt lat="51.098356867791246" lon="17.03289721803294"><ele>118.0</ele><time>2026-05-03T14:40:45Z</time></trkpt><trkpt lat="51.09826044859414" lon="17.032804424004855"><ele>118.00000000000001</ele><time>2026-05-03T14:40:47Z</time></trkpt><trkpt lat="51.09816452220506" lon="17.032720481470452"><ele>118.0</ele><time>2026-05-03T14:40:49Z</time></trkpt><trkpt lat="51.09808578481607" lon="17.03265017555543"><ele>118.0</ele><time>2026-05-03T14:40:51Z</time></trkpt><trkpt lat="51.09803071758775" lon="17.03255373855858"><ele>118.0</ele><time>2026-05-03T14:40:53Z</time></trkpt><trkpt lat="51.09799063134134" lon="17.032472877952134"><ele>118.00000000000001</ele><time>2026-05-03T14:40:57Z</time></trkpt><trkpt lat="51.09798823160974" lon="17.03236327502209"><ele>118.0</ele><time>2026-05-03T14:41:00Z</time></trkpt><trkpt lat="51.098030438604745" lon="17.032451505531796"><ele>118.00000000000001</ele><time>2026-05-03T14:41:03Z</time></trkpt><trkpt lat="51.098028114021" lon="17.032569408629648"><ele>118.0</ele><time>2026-05-03T14:41:25Z</time></trkpt><trkpt lat="51.09809541529627" lon="17.03258189465909"><ele>118.0</ele><time>2026-05-03T14:41:34Z</time></trkpt><trkpt lat="51.09803142406332" lon="17.032520906640034"><ele>118.0</ele><time>2026-05-03T14:41:44.001Z</time></trkpt><trkpt lat="51.0979648213444" lon="17.032465612460992"><ele>118.00000000000001</ele><time>2026-05-03T14:42:01.001Z</time></trkpt><trkpt lat="51.09789172515139" lon="17.032410400440625"><ele>118.0</ele><time>2026-05-03T14:42:03Z</time></trkpt><trkpt lat="51.097792178027206" lon="17.032349088976996"><ele>118.00000000000001</ele><time>2026-05-03T14:42:05Z</time></trkpt><trkpt lat="51.09772536743312" lon="17.032328367676378"><ele>118.0</ele><time>2026-05-03T14:42:06Z</time></trkpt><trkpt lat="51.09760003471926" lon="17.032303419914467"><ele>118.0</ele><time>2026-05-03T14:42:08Z</time></trkpt><trkpt lat="51.09752200913799" lon="17.03236241031629"><ele>118.0</ele><time>2026-05-03T14:42:09Z</time></trkpt><trkpt lat="51.09745886707408" lon="17.03232544075543"><ele>118.00000000000001</ele><time>2026-05-03T14:42:10Z</time></trkpt><trkpt lat="51.09739122510245" lon="17.032289557941514"><ele>118.0</ele><time>2026-05-03T14:42:11Z</time></trkpt><trkpt lat="51.09732269643961" lon="17.032252425536676"><ele>118.14285714285714</ele><time>2026-05-03T14:42:12Z</time></trkpt><trkpt lat="51.097254905100776" lon="17.03221569267858"><ele>118.28571428571429</ele><time>2026-05-03T14:42:13Z</time></trkpt><trkpt lat="51.097189573470544" lon="17.03218029260364"><ele>118.42857142857143</ele><time>2026-05-03T14:42:14Z</time></trkpt><trkpt lat="51.09712044453112" lon="17.03214283490684"><ele>118.57142857142857</ele><time>2026-05-03T14:42:15Z</time></trkpt><trkpt lat="51.097051387303566" lon="17.032105416106848"><ele>118.71428571428572</ele><time>2026-05-03T14:42:16Z</time></trkpt><trkpt lat="51.096982822071105" lon="17.032068263890366"><ele>118.85714285714286</ele><time>2026-05-03T14:42:17Z</time></trkpt><trkpt lat="51.0969130880717" lon="17.032030478357548"><ele>119.0</ele><time>2026-05-03T14:42:18Z</time></trkpt><trkpt lat="51.09684337785229" lon="17.03199270574813"><ele>119.0</ele><time>2026-05-03T14:42:19Z</time></trkpt><trkpt lat="51.0967714691249" lon="17.031953986409583"><ele>119.0</ele><time>2026-05-03T14:42:20Z</time></trkpt><trkpt lat="51.09670006096528" lon="17.031915618408416"><ele>119.0</ele><time>2026-05-03T14:42:21Z</time></trkpt><trkpt lat="51.096632153557934" lon="17.031879048606513"><ele>119.0</ele><time>2026-05-03T14:42:22Z</time></trkpt><trkpt lat="51.09656488165206" lon="17.03184315294683"><ele>119.0</ele><time>2026-05-03T14:42:23Z</time></trkpt><trkpt lat="51.096496167141396" lon="17.031806287043487"><ele>119.0</ele><time>2026-05-03T14:42:24Z</time></trkpt><trkpt lat="51.09642703987817" lon="17.031769198646774"><ele>119.0</ele><time>2026-05-03T14:42:25Z</time></trkpt><trkpt lat="51.09635858236004" lon="17.031733330021197"><ele>119.0</ele><time>2026-05-03T14:42:26Z</time></trkpt><trkpt lat="51.09628971693679" lon="17.031696977182488"><ele>119.0</ele><time>2026-05-03T14:42:27Z</time></trkpt><trkpt lat="51.0962212699528" lon="17.031660845232626"><ele>119.0</ele><time>2026-05-03T14:42:28Z</time></trkpt><trkpt lat="51.09615211239141" lon="17.031624203693163"><ele>119.0</ele><time>2026-05-03T14:42:29Z</time></trkpt><trkpt lat="51.096082764876606" lon="17.031586907108125"><ele>119.0</ele><time>2026-05-03T14:42:30Z</time></trkpt><trkpt lat="51.096011661868445" lon="17.03154852541936"><ele>119.0</ele><time>2026-05-03T14:42:31Z</time></trkpt><trkpt lat="51.095941764123125" lon="17.031510481472647"><ele>119.0</ele><time>2026-05-03T14:42:32Z</time></trkpt><trkpt lat="51.09587333309193" lon="17.031473235801684"><ele>119.16666666666666</ele><time>2026-05-03T14:42:33Z</time></trkpt><trkpt lat="51.095816021898386" lon="17.031375277374345"><ele>119.33333333333333</ele><time>2026-05-03T14:42:34Z</time></trkpt><trkpt lat="51.09574642915062" lon="17.031335730651378"><ele>119.5</ele><time>2026-05-03T14:42:35Z</time></trkpt><trkpt lat="51.09567511420089" lon="17.031303941912363"><ele>119.66666666666666</ele><time>2026-05-03T14:42:36Z</time></trkpt><trkpt lat="51.0956035753811" lon="17.031269808819467"><ele>119.83333333333333</ele><time>2026-05-03T14:42:37Z</time></trkpt><trkpt lat="51.09552128238724" lon="17.031283475020846"><ele>120.0</ele><time>2026-05-03T14:42:38Z</time></trkpt><trkpt lat="51.09546218889392" lon="17.031200646306743"><ele>120.14285714285714</ele><time>2026-05-03T14:42:39Z</time></trkpt><trkpt lat="51.095391894140775" lon="17.03116540926394"><ele>120.28571428571428</ele><time>2026-05-03T14:42:40Z</time></trkpt><trkpt lat="51.09532414240131" lon="17.03112431148356"><ele>120.42857142857142</ele><time>2026-05-03T14:42:41Z</time></trkpt><trkpt lat="51.09525754075309" lon="17.031084063224394"><ele>120.57142857142857</ele><time>2026-05-03T14:42:42Z</time></trkpt><trkpt lat="51.09519129839394" lon="17.031052180559644"><ele>120.7142857142857</ele><time>2026-05-03T14:42:43Z</time></trkpt><trkpt lat="51.095126466740716" lon="17.031016666047893"><ele>120.85714285714285</ele><time>2026-05-03T14:42:44Z</time></trkpt><trkpt lat="51.095054986922456" lon="17.031019536709156"><ele>121.0</ele><time>2026-05-03T14:42:45Z</time></trkpt><trkpt lat="51.0949884869657" lon="17.030983981681658"><ele>121.00000000000001</ele><time>2026-05-03T14:42:46Z</time></trkpt><trkpt lat="51.09492451902101" lon="17.030951647165093"><ele>121.0</ele><time>2026-05-03T14:42:47Z</time></trkpt><trkpt lat="51.09486053597477" lon="17.03092005023867"><ele>121.0</ele><time>2026-05-03T14:42:48Z</time></trkpt><trkpt lat="51.09474059055879" lon="17.030928648295678"><ele>121.0</ele><time>2026-05-03T14:42:50Z</time></trkpt><trkpt lat="51.0946454862397" lon="17.03084200081209"><ele>121.00000000000001</ele><time>2026-05-03T14:42:51Z</time></trkpt><trkpt lat="51.09458836791342" lon="17.03079331896984"><ele>121.0</ele><time>2026-05-03T14:42:52Z</time></trkpt><trkpt lat="51.09453148346332" lon="17.03074779613128"><ele>120.83333333333334</ele><time>2026-05-03T14:42:53Z</time></trkpt><trkpt lat="51.094412037032946" lon="17.030676456373357"><ele>120.66666666666667</ele><time>2026-05-03T14:42:55Z</time></trkpt><trkpt lat="51.094344768401015" lon="17.030647700883993"><ele>120.5</ele><time>2026-05-03T14:42:56Z</time></trkpt><trkpt lat="51.09427738977839" lon="17.030616806583826"><ele>120.33333333333334</ele><time>2026-05-03T14:42:57Z</time></trkpt><trkpt lat="51.09422009517496" lon="17.0305196014226"><ele>120.16666666666667</ele><time>2026-05-03T14:42:58Z</time></trkpt><trkpt lat="51.09415170483001" lon="17.030501870714566"><ele>120.0</ele><time>2026-05-03T14:42:59Z</time></trkpt><trkpt lat="51.09408397293215" lon="17.030474546215988"><ele>120.0</ele><time>2026-05-03T14:43:00Z</time></trkpt><trkpt lat="51.09401717461102" lon="17.030448049668934"><ele>120.0</ele><time>2026-05-03T14:43:01Z</time></trkpt><trkpt lat="51.09395470708788" lon="17.030415551327074"><ele>120.0</ele><time>2026-05-03T14:43:02Z</time></trkpt><trkpt lat="51.09388834152264" lon="17.030386747800872"><ele>120.0</ele><time>2026-05-03T14:43:03Z</time></trkpt><trkpt lat="51.093823589397886" lon="17.030356869897613"><ele>120.0</ele><time>2026-05-03T14:43:04Z</time></trkpt><trkpt lat="51.09376220186613" lon="17.030324294995097"><ele>120.0</ele><time>2026-05-03T14:43:05Z</time></trkpt><trkpt lat="51.09369930525505" lon="17.03029423426007"><ele>120.0</ele><time>2026-05-03T14:43:06Z</time></trkpt><trkpt lat="51.09363624985677" lon="17.030255264967597"><ele>120.0</ele><time>2026-05-03T14:43:07Z</time></trkpt><trkpt lat="51.093575498216744" lon="17.030219767219723"><ele>120.0</ele><time>2026-05-03T14:43:08Z</time></trkpt><trkpt lat="51.093511581852724" lon="17.0301791024127"><ele>120.0</ele><time>2026-05-03T14:43:09Z</time></trkpt><trkpt lat="51.09344713405473" lon="17.030146856391756"><ele>120.0</ele><time>2026-05-03T14:43:10Z</time></trkpt><trkpt lat="51.09338149426253" lon="17.03011518521688"><ele>120.0</ele><time>2026-05-03T14:43:11Z</time></trkpt><trkpt lat="51.09331711095795" lon="17.03008139934767"><ele>120.0</ele><time>2026-05-03T14:43:12Z</time></trkpt><trkpt lat="51.09325414095181" lon="17.030042770380074"><ele>120.0</ele><time>2026-05-03T14:43:13Z</time></trkpt><trkpt lat="51.09318822336229" lon="17.030004333179253"><ele>120.14285714285714</ele><time>2026-05-03T14:43:14Z</time></trkpt><trkpt lat="51.09312624060647" lon="17.02997037734742"><ele>120.28571428571428</ele><time>2026-05-03T14:43:15Z</time></trkpt><trkpt lat="51.09305992520818" lon="17.02993967097875"><ele>120.42857142857142</ele><time>2026-05-03T14:43:16Z</time></trkpt><trkpt lat="51.09299596541327" lon="17.02991632204091"><ele>120.57142857142857</ele><time>2026-05-03T14:43:17Z</time></trkpt><trkpt lat="51.092913258154006" lon="17.02998230601006"><ele>120.7142857142857</ele><time>2026-05-03T14:43:18Z</time></trkpt><trkpt lat="51.09284870174432" lon="17.029952575093027"><ele>120.85714285714285</ele><time>2026-05-03T14:43:19Z</time></trkpt><trkpt lat="51.09278297274804" lon="17.029922304242422"><ele>121.0</ele><time>2026-05-03T14:43:20Z</time></trkpt><trkpt lat="51.092716679120436" lon="17.029891773144666"><ele>121.0</ele><time>2026-05-03T14:43:21Z</time></trkpt><trkpt lat="51.09265168131162" lon="17.029861938326153"><ele>120.99999999999999</ele><time>2026-05-03T14:43:22Z</time></trkpt><trkpt lat="51.09258593235874" lon="17.029831965595495"><ele>121.0</ele><time>2026-05-03T14:43:23Z</time></trkpt><trkpt lat="51.092519783041006" lon="17.02980181028125"><ele>121.0</ele><time>2026-05-03T14:43:24Z</time></trkpt><trkpt lat="51.09245273126488" lon="17.02977124346785"><ele>120.99999999999999</ele><time>2026-05-03T14:43:25Z</time></trkpt><trkpt lat="51.09238526467833" lon="17.0297404879779"><ele>121.0</ele><time>2026-05-03T14:43:26Z</time></trkpt><trkpt lat="51.092317574239225" lon="17.02970963008267"><ele>121.0</ele><time>2026-05-03T14:43:27Z</time></trkpt><trkpt lat="51.092250727879005" lon="17.029679154999084"><ele>121.14285714285714</ele><time>2026-05-03T14:43:28Z</time></trkpt><trkpt lat="51.092187192232196" lon="17.02965018900595"><ele>121.28571428571428</ele><time>2026-05-03T14:43:29Z</time></trkpt><trkpt lat="51.09212423608633" lon="17.029620588748635"><ele>121.42857142857142</ele><time>2026-05-03T14:43:30Z</time></trkpt><trkpt lat="51.09206239309207" lon="17.029592141013076"><ele>121.57142857142856</ele><time>2026-05-03T14:43:31Z</time></trkpt><trkpt lat="51.09200057617432" lon="17.029563963458056"><ele>121.71428571428571</ele><time>2026-05-03T14:43:32Z</time></trkpt><trkpt lat="51.091938458701726" lon="17.029535648892413"><ele>121.85714285714283</ele><time>2026-05-03T14:43:33Z</time></trkpt><trkpt lat="51.0918761335355" lon="17.02950723969769"><ele>121.99999999999999</ele><time>2026-05-03T14:43:34Z</time></trkpt><trkpt lat="51.091810948891286" lon="17.029477298025466"><ele>121.99999999999999</ele><time>2026-05-03T14:43:35Z</time></trkpt><trkpt lat="51.091748850240805" lon="17.029448641605445"><ele>122.0</ele><time>2026-05-03T14:43:36Z</time></trkpt><trkpt lat="51.09162227187742" lon="17.029390154823002"><ele>122.0</ele><time>2026-05-03T14:43:38Z</time></trkpt><trkpt lat="51.0915578802127" lon="17.029360400905396"><ele>122.0</ele><time>2026-05-03T14:43:39Z</time></trkpt><trkpt lat="51.091494754887556" lon="17.02933123088878"><ele>121.99999999999999</ele><time>2026-05-03T14:43:40Z</time></trkpt><trkpt lat="51.091431875120776" lon="17.029302174337086"><ele>122.0</ele><time>2026-05-03T14:43:41Z</time></trkpt><trkpt lat="51.091369217011966" lon="17.029273220221274"><ele>122.16666666666666</ele><time>2026-05-03T14:43:42Z</time></trkpt><trkpt lat="51.09130708232923" lon="17.02924450793221"><ele>122.33333333333333</ele><time>2026-05-03T14:43:43Z</time></trkpt><trkpt lat="51.09126215244238" lon="17.02910270091277"><ele>122.5</ele><time>2026-05-03T14:43:44Z</time></trkpt><trkpt lat="51.0911997468276" lon="17.02907827063993"><ele>122.66666666666666</ele><time>2026-05-03T14:43:45Z</time></trkpt><trkpt lat="51.09113771302337" lon="17.029047608381454"><ele>122.83333333333333</ele><time>2026-05-03T14:43:46Z</time></trkpt><trkpt lat="51.09105718379884" lon="17.029130308875786"><ele>123.0</ele><time>2026-05-03T14:43:47Z</time></trkpt><trkpt lat="51.09094462775416" lon="17.029079865884096"><ele>123.0</ele><time>2026-05-03T14:43:49.001Z</time></trkpt><trkpt lat="51.090836146364985" lon="17.02903125016814"><ele>123.00000000000001</ele><time>2026-05-03T14:43:51.001Z</time></trkpt><trkpt lat="51.09079562104414" lon="17.028891859571377"><ele>123.00000000000001</ele><time>2026-05-03T14:43:52.001Z</time></trkpt><trkpt lat="51.090669752514394" lon="17.028837823178552"><ele>123.0</ele><time>2026-05-03T14:43:54.001Z</time></trkpt><trkpt lat="51.09060723205749" lon="17.028802444491507"><ele>123.0</ele><time>2026-05-03T14:43:55.001Z</time></trkpt><trkpt lat="51.090542712780405" lon="17.028761934239657"><ele>123.00000000000001</ele><time>2026-05-03T14:43:56.001Z</time></trkpt><trkpt lat="51.09047659262852" lon="17.028730183658844"><ele>123.0</ele><time>2026-05-03T14:43:57.001Z</time></trkpt><trkpt lat="51.090409076342944" lon="17.028704012231735"><ele>123.00000000000001</ele><time>2026-05-03T14:43:58.001Z</time></trkpt><trkpt lat="51.09034355287287" lon="17.0286743363806"><ele>123.00000000000001</ele><time>2026-05-03T14:43:59.001Z</time></trkpt><trkpt lat="51.09027785260471" lon="17.02864265193971"><ele>123.0</ele><time>2026-05-03T14:44:00.001Z</time></trkpt><trkpt lat="51.090214658354974" lon="17.02860786019374"><ele>123.00000000000001</ele><time>2026-05-03T14:44:01.001Z</time></trkpt><trkpt lat="51.09015258806389" lon="17.028575797389525"><ele>123.00000000000001</ele><time>2026-05-03T14:44:02.001Z</time></trkpt><trkpt lat="51.090087947498056" lon="17.02854747948781"><ele>123.0</ele><time>2026-05-03T14:44:03.001Z</time></trkpt><trkpt lat="51.09000938993519" lon="17.028623141361734"><ele>123.0</ele><time>2026-05-03T14:44:04.001Z</time></trkpt><trkpt lat="51.089948454483924" lon="17.02859474089508"><ele>123.0</ele><time>2026-05-03T14:44:05.001Z</time></trkpt><trkpt lat="51.089887219261364" lon="17.02856410888979"><ele>123.0</ele><time>2026-05-03T14:44:06Z</time></trkpt><trkpt lat="51.089776420171916" lon="17.02850950614436"><ele>123.0</ele><time>2026-05-03T14:44:08Z</time></trkpt><trkpt lat="51.08969717011706" lon="17.028467903834148"><ele>123.0</ele><time>2026-05-03T14:44:10Z</time></trkpt><trkpt lat="51.08962671673935" lon="17.02843711193445"><ele>123.16666666666667</ele><time>2026-05-03T14:44:12Z</time></trkpt><trkpt lat="51.08953008094516" lon="17.028405038978086"><ele>123.33333333333334</ele><time>2026-05-03T14:44:14Z</time></trkpt><trkpt lat="51.08941356421104" lon="17.028363787416342"><ele>123.5</ele><time>2026-05-03T14:44:16Z</time></trkpt><trkpt lat="51.089350984747014" lon="17.02833467506737"><ele>123.66666666666667</ele><time>2026-05-03T14:44:17Z</time></trkpt><trkpt lat="51.08928575174135" lon="17.028309661072726"><ele>123.83333333333334</ele><time>2026-05-03T14:44:18Z</time></trkpt><trkpt lat="51.089215656436686" lon="17.028272551274288"><ele>124.0</ele><time>2026-05-03T14:44:19Z</time></trkpt><trkpt lat="51.08915231242117" lon="17.028240706160563"><ele>124.14285714285715</ele><time>2026-05-03T14:44:20Z</time></trkpt><trkpt lat="51.089090942815844" lon="17.02820985363123"><ele>124.2857142857143</ele><time>2026-05-03T14:44:21Z</time></trkpt><trkpt lat="51.089025169137756" lon="17.028176787035925"><ele>124.42857142857143</ele><time>2026-05-03T14:44:22Z</time></trkpt><trkpt lat="51.08896139302833" lon="17.028144724690062"><ele>124.57142857142858</ele><time>2026-05-03T14:44:23Z</time></trkpt><trkpt lat="51.088894850200816" lon="17.02811127140504"><ele>124.71428571428572</ele><time>2026-05-03T14:44:24Z</time></trkpt><trkpt lat="51.08882482564155" lon="17.02807606776003"><ele>124.85714285714286</ele><time>2026-05-03T14:44:25Z</time></trkpt><trkpt lat="51.08875537656954" lon="17.02804115343086"><ele>125.0</ele><time>2026-05-03T14:44:26Z</time></trkpt><trkpt lat="51.088685199664766" lon="17.028005873204194"><ele>125.0</ele><time>2026-05-03T14:44:27Z</time></trkpt><trkpt lat="51.08861741341024" lon="17.02797179480095"><ele>125.0</ele><time>2026-05-03T14:44:28Z</time></trkpt><trkpt lat="51.0885491719086" lon="17.027937487552148"><ele>125.0</ele><time>2026-05-03T14:44:29Z</time></trkpt><trkpt lat="51.088480958204904" lon="17.027901163205982"><ele>125.0</ele><time>2026-05-03T14:44:30Z</time></trkpt><trkpt lat="51.088414026651314" lon="17.027864922063937"><ele>125.0</ele><time>2026-05-03T14:44:31Z</time></trkpt><trkpt lat="51.08834587304361" lon="17.027828019247412"><ele>125.0</ele><time>2026-05-03T14:44:32Z</time></trkpt><trkpt lat="51.088278751958484" lon="17.027791675480575"><ele>125.0</ele><time>2026-05-03T14:44:33Z</time></trkpt><trkpt lat="51.088211783424484" lon="17.02775541433197"><ele>124.85714285714286</ele><time>2026-05-03T14:44:34Z</time></trkpt><trkpt lat="51.08814564864341" lon="17.027719604621026"><ele>124.71428571428572</ele><time>2026-05-03T14:44:35Z</time></trkpt><trkpt lat="51.08808994837281" lon="17.0276309183895"><ele>124.57142857142858</ele><time>2026-05-03T14:44:36Z</time></trkpt><trkpt lat="51.08802245447213" lon="17.027596364587662"><ele>124.42857142857143</ele><time>2026-05-03T14:44:37Z</time></trkpt><trkpt lat="51.08795599274313" lon="17.027562004513292"><ele>124.2857142857143</ele><time>2026-05-03T14:44:38Z</time></trkpt><trkpt lat="51.087890105496754" lon="17.027526179552428"><ele>124.14285714285715</ele><time>2026-05-03T14:44:39Z</time></trkpt><trkpt lat="51.087823305758036" lon="17.02749164170051"><ele>124.0</ele><time>2026-05-03T14:44:40Z</time></trkpt><trkpt lat="51.087759621955236" lon="17.027448684314116"><ele>124.28571428571429</ele><time>2026-05-03T14:44:41Z</time></trkpt><trkpt lat="51.08768529951896" lon="17.02744726707138"><ele>124.57142857142858</ele><time>2026-05-03T14:44:42Z</time></trkpt><trkpt lat="51.08762061919057" lon="17.027406560920696"><ele>124.85714285714286</ele><time>2026-05-03T14:44:43Z</time></trkpt><trkpt lat="51.08755524279494" lon="17.027365637120845"><ele>125.14285714285714</ele><time>2026-05-03T14:44:44Z</time></trkpt><trkpt lat="51.08749050890737" lon="17.02732528930115"><ele>125.42857142857143</ele><time>2026-05-03T14:44:45Z</time></trkpt><trkpt lat="51.08742584595815" lon="17.027284659856733"><ele>125.71428571428572</ele><time>2026-05-03T14:44:46Z</time></trkpt><trkpt lat="51.087362427137485" lon="17.02724452256282"><ele>126.0</ele><time>2026-05-03T14:44:47Z</time></trkpt><trkpt lat="51.08729606992404" lon="17.02720214747776"><ele>126.0</ele><time>2026-05-03T14:44:48Z</time></trkpt><trkpt lat="51.08723086550564" lon="17.02715962575716"><ele>126.0</ele><time>2026-05-03T14:44:49Z</time></trkpt><trkpt lat="51.08716725726779" lon="17.02711788935813"><ele>126.0</ele><time>2026-05-03T14:44:50Z</time></trkpt><trkpt lat="51.087102574898786" lon="17.027075183630355"><ele>126.0</ele><time>2026-05-03T14:44:51Z</time></trkpt><trkpt lat="51.087039774616656" lon="17.027033710942387"><ele>126.0</ele><time>2026-05-03T14:44:52Z</time></trkpt><trkpt lat="51.08697735730752" lon="17.026992634756457"><ele>126.0</ele><time>2026-05-03T14:44:53Z</time></trkpt><trkpt lat="51.0869129432866" lon="17.026950528864596"><ele>126.0</ele><time>2026-05-03T14:44:54Z</time></trkpt><trkpt lat="51.08684753836694" lon="17.02690725322369"><ele>126.0</ele><time>2026-05-03T14:44:55Z</time></trkpt><trkpt lat="51.08678332541783" lon="17.026864196194364"><ele>126.0</ele><time>2026-05-03T14:44:56Z</time></trkpt><trkpt lat="51.086716035578625" lon="17.026818319313307"><ele>126.0</ele><time>2026-05-03T14:44:57Z</time></trkpt><trkpt lat="51.08664953366708" lon="17.02677272994401"><ele>126.0</ele><time>2026-05-03T14:44:58Z</time></trkpt><trkpt lat="51.0865824125397" lon="17.026727144254043"><ele>126.0</ele><time>2026-05-03T14:44:59Z</time></trkpt><trkpt lat="51.08651409203475" lon="17.02668082169355"><ele>126.0</ele><time>2026-05-03T14:45:00Z</time></trkpt><trkpt lat="51.08644678378889" lon="17.026635185445173"><ele>126.0</ele><time>2026-05-03T14:45:01Z</time></trkpt><trkpt lat="51.08637913087825" lon="17.026589640742316"><ele>126.0</ele><time>2026-05-03T14:45:02Z</time></trkpt><trkpt lat="51.086312574012126" lon="17.026545421052422"><ele>126.0</ele><time>2026-05-03T14:45:03Z</time></trkpt><trkpt lat="51.086247624981524" lon="17.02650188956438"><ele>126.0</ele><time>2026-05-03T14:45:04Z</time></trkpt><trkpt lat="51.08618426035003" lon="17.026459016710223"><ele>126.0</ele><time>2026-05-03T14:45:05Z</time></trkpt><trkpt lat="51.086119327795934" lon="17.026415082976463"><ele>126.0</ele><time>2026-05-03T14:45:06Z</time></trkpt><trkpt lat="51.08605566270647" lon="17.026370717319836"><ele>126.0</ele><time>2026-05-03T14:45:07Z</time></trkpt><trkpt lat="51.08599146529085" lon="17.026325582911696"><ele>126.0</ele><time>2026-05-03T14:45:08Z</time></trkpt><trkpt lat="51.08592792676645" lon="17.026280535289057"><ele>126.0</ele><time>2026-05-03T14:45:09Z</time></trkpt><trkpt lat="51.08586399353004" lon="17.02623495072006"><ele>126.0</ele><time>2026-05-03T14:45:10Z</time></trkpt><trkpt lat="51.08580200683009" lon="17.026190684977433"><ele>126.0</ele><time>2026-05-03T14:45:11Z</time></trkpt><trkpt lat="51.08574682617567" lon="17.02613204528946"><ele>126.0</ele><time>2026-05-03T14:45:12Z</time></trkpt><trkpt lat="51.0856556162808" lon="17.02607198866905"><ele>126.0</ele><time>2026-05-03T14:45:14Z</time></trkpt><trkpt lat="51.08558790556158" lon="17.026017610348156"><ele>126.0</ele><time>2026-05-03T14:45:16Z</time></trkpt><trkpt lat="51.08549163975108" lon="17.025971185463746"><ele>125.0</ele><time>2026-05-03T14:45:18Z</time></trkpt><trkpt lat="51.085429630271776" lon="17.025927066435106"><ele>124.0</ele><time>2026-05-03T14:45:21Z</time></trkpt><trkpt lat="51.08523386659288" lon="17.025788821578278"><ele>123.0</ele><time>2026-05-03T14:45:22Z</time></trkpt><trkpt lat="51.08512262927053" lon="17.025710400428434"><ele>122.0</ele><time>2026-05-03T14:45:24Z</time></trkpt><trkpt lat="51.085061473023806" lon="17.025667219069614"><ele>121.99999999999999</ele><time>2026-05-03T14:45:25Z</time></trkpt><trkpt lat="51.085003611392196" lon="17.02562636399651"><ele>122.0</ele><time>2026-05-03T14:45:26Z</time></trkpt><trkpt lat="51.08488842074901" lon="17.025545029877158"><ele>122.0</ele><time>2026-05-03T14:45:28Z</time></trkpt><trkpt lat="51.08482875872906" lon="17.025502903561875"><ele>122.0</ele><time>2026-05-03T14:45:29Z</time></trkpt><trkpt lat="51.08477010354747" lon="17.025461488136575"><ele>121.99999999999999</ele><time>2026-05-03T14:45:30Z</time></trkpt><trkpt lat="51.084712308539196" lon="17.025420680241094"><ele>122.0</ele><time>2026-05-03T14:45:31Z</time></trkpt><trkpt lat="51.08464713534158" lon="17.025370859512183"><ele>122.0</ele><time>2026-05-03T14:45:32Z</time></trkpt><trkpt lat="51.08458557430408" lon="17.025324333677208"><ele>121.99999999999999</ele><time>2026-05-03T14:45:33Z</time></trkpt><trkpt lat="51.084527462301715" lon="17.02528041448944"><ele>121.99999999999999</ele><time>2026-05-03T14:45:34Z</time></trkpt><trkpt lat="51.08446976924214" lon="17.02523681194813"><ele>122.0</ele><time>2026-05-03T14:45:35Z</time></trkpt><trkpt lat="51.084482211772354" lon="17.024970043024712"><ele>122.0</ele><time>2026-05-03T14:45:36Z</time></trkpt><trkpt lat="51.08437702538036" lon="17.0248909821677"><ele>122.0</ele><time>2026-05-03T14:45:38Z</time></trkpt><trkpt lat="51.08426598113826" lon="17.025082795620012"><ele>121.99999999999999</ele><time>2026-05-03T14:45:39Z</time></trkpt><trkpt lat="51.084194274445274" lon="17.025024415752053"><ele>121.99999999999999</ele><time>2026-05-03T14:45:41Z</time></trkpt><trkpt lat="51.084270549762834" lon="17.024957005207614"><ele>122.0</ele><time>2026-05-03T14:45:43Z</time></trkpt><trkpt lat="51.08425212049804" lon="17.025077952307687"><ele>122.0</ele><time>2026-05-03T14:46:06.001Z</time></trkpt><trkpt lat="51.08422364602873" lon="17.025187494440647"><ele>122.16666666666666</ele><time>2026-05-03T14:46:08.001Z</time></trkpt><trkpt lat="51.08418708254771" lon="17.025313407111266"><ele>122.33333333333333</ele><time>2026-05-03T14:46:10Z</time></trkpt><trkpt lat="51.08416526767509" lon="17.025443858254807"><ele>122.5</ele><time>2026-05-03T14:46:12Z</time></trkpt><trkpt lat="51.08411972143121" lon="17.025550012749356"><ele>122.66666666666666</ele><time>2026-05-03T14:46:14Z</time></trkpt><trkpt lat="51.08407252196156" lon="17.025631836108538"><ele>122.83333333333333</ele><time>2026-05-03T14:46:17Z</time></trkpt><trkpt lat="51.08401341101274" lon="17.025513798459006"><ele>123.0</ele><time>2026-05-03T14:46:52Z</time></trkpt><trkpt lat="51.08392775754731" lon="17.02545877542014"><ele>123.0</ele><time>2026-05-03T14:46:55Z</time></trkpt><trkpt lat="51.08386620610937" lon="17.025411499782617"><ele>123.0</ele><time>2026-05-03T14:46:57Z</time></trkpt><trkpt lat="51.08379353224992" lon="17.025370261961665"><ele>123.0</ele><time>2026-05-03T14:46:59Z</time></trkpt><trkpt lat="51.083708791569" lon="17.025393288372815"><ele>123.0</ele><time>2026-05-03T14:47:01Z</time></trkpt><trkpt lat="51.0836619221275" lon="17.025516806401157"><ele>123.0</ele><time>2026-05-03T14:47:03Z</time></trkpt><trkpt lat="51.083650226102556" lon="17.025661410851086"><ele>123.0</ele><time>2026-05-03T14:47:05Z</time></trkpt><trkpt lat="51.083621797412675" lon="17.025778740129194"><ele>123.0</ele><time>2026-05-03T14:47:07Z</time></trkpt><trkpt lat="51.08362567455974" lon="17.025898433198257"><ele>123.0</ele><time>2026-05-03T14:47:09Z</time></trkpt><trkpt lat="51.083607606746945" lon="17.025997901191875"><ele>123.0</ele><time>2026-05-03T14:47:11Z</time></trkpt><trkpt lat="51.0835947517639" lon="17.026103365475528"><ele>123.0</ele><time>2026-05-03T14:47:13Z</time></trkpt><trkpt lat="51.08357401823704" lon="17.026205828928294"><ele>123.0</ele><time>2026-05-03T14:47:15Z</time></trkpt><trkpt lat="51.083547277878914" lon="17.026354068768356"><ele>123.0</ele><time>2026-05-03T14:47:17Z</time></trkpt><trkpt lat="51.08352722562467" lon="17.026491280009836"><ele>123.4</ele><time>2026-05-03T14:47:19Z</time></trkpt><trkpt lat="51.08350467043155" lon="17.026664285602603"><ele>123.80000000000001</ele><time>2026-05-03T14:47:21Z</time></trkpt><trkpt lat="51.08348117084099" lon="17.026862152823913"><ele>124.2</ele><time>2026-05-03T14:47:23Z</time></trkpt><trkpt lat="51.083469829894476" lon="17.0269661943124"><ele>124.6</ele><time>2026-05-03T14:47:24Z</time></trkpt><trkpt lat="51.08354082787822" lon="17.027086615438833"><ele>125.0</ele><time>2026-05-03T14:47:25Z</time></trkpt><trkpt lat="51.083531367092526" lon="17.02718866168121"><ele>124.99999999999999</ele><time>2026-05-03T14:47:26Z</time></trkpt><trkpt lat="51.08352232977827" lon="17.02729158660851"><ele>125.0</ele><time>2026-05-03T14:47:27Z</time></trkpt><trkpt lat="51.083438084989" lon="17.02737922062749"><ele>125.0</ele><time>2026-05-03T14:47:28Z</time></trkpt><trkpt lat="51.08342822530041" lon="17.02748807377919"><ele>125.0</ele><time>2026-05-03T14:47:29Z</time></trkpt><trkpt lat="51.08341882405438" lon="17.02759717088454"><ele>124.99999999999999</ele><time>2026-05-03T14:47:30Z</time></trkpt><trkpt lat="51.083483718110706" lon="17.027719216137104"><ele>125.0</ele><time>2026-05-03T14:47:31Z</time></trkpt><trkpt lat="51.08347450319823" lon="17.027822492692263"><ele>125.42857142857142</ele><time>2026-05-03T14:47:32Z</time></trkpt><trkpt lat="51.08346519647208" lon="17.027926798260317"><ele>125.85714285714286</ele><time>2026-05-03T14:47:33Z</time></trkpt><trkpt lat="51.08338691362203" lon="17.028020389979588"><ele>126.28571428571428</ele><time>2026-05-03T14:47:34Z</time></trkpt><trkpt lat="51.08337452807617" lon="17.028129795353653"><ele>126.71428571428571</ele><time>2026-05-03T14:47:35Z</time></trkpt><trkpt lat="51.08336699585145" lon="17.028234726095622"><ele>127.14285714285714</ele><time>2026-05-03T14:47:36Z</time></trkpt><trkpt lat="51.083359215923544" lon="17.028344260670647"><ele>127.57142857142857</ele><time>2026-05-03T14:47:37Z</time></trkpt><trkpt lat="51.08335290507422" lon="17.028455810477446"><ele>128.0</ele><time>2026-05-03T14:47:38Z</time></trkpt><trkpt lat="51.08334578868868" lon="17.028558212211056"><ele>128.14285714285714</ele><time>2026-05-03T14:47:39Z</time></trkpt><trkpt lat="51.08339695791802" lon="17.02868007478965"><ele>128.28571428571428</ele><time>2026-05-03T14:47:40Z</time></trkpt><trkpt lat="51.0833872297435" lon="17.02879028306372"><ele>128.42857142857142</ele><time>2026-05-03T14:47:41Z</time></trkpt><trkpt lat="51.08337800428599" lon="17.028898994717082"><ele>128.57142857142856</ele><time>2026-05-03T14:47:42Z</time></trkpt><trkpt lat="51.08336851866379" lon="17.029006188868994"><ele>128.71428571428572</ele><time>2026-05-03T14:47:43Z</time></trkpt><trkpt lat="51.08335912188656" lon="17.029112379028604"><ele>128.85714285714283</ele><time>2026-05-03T14:47:44Z</time></trkpt><trkpt lat="51.08334972937645" lon="17.02921853565751"><ele>129.0</ele><time>2026-05-03T14:47:45Z</time></trkpt><trkpt lat="51.08334034111027" lon="17.029324703261008"><ele>129.0</ele><time>2026-05-03T14:47:46Z</time></trkpt><trkpt lat="51.08333123448371" lon="17.02942768592387"><ele>129.0</ele><time>2026-05-03T14:47:47Z</time></trkpt><trkpt lat="51.08332184700657" lon="17.0295338446203"><ele>129.0</ele><time>2026-05-03T14:47:48Z</time></trkpt><trkpt lat="51.08331311864667" lon="17.029634791825337"><ele>129.0</ele><time>2026-05-03T14:47:49Z</time></trkpt><trkpt lat="51.083304687525434" lon="17.02973888687247"><ele>129.0</ele><time>2026-05-03T14:47:50Z</time></trkpt><trkpt lat="51.0832877242888" lon="17.02994476495606"><ele>129.0</ele><time>2026-05-03T14:47:52Z</time></trkpt><trkpt lat="51.08327887745591" lon="17.03005023886811"><ele>128.5</ele><time>2026-05-03T14:47:53Z</time></trkpt><trkpt lat="51.083270023136706" lon="17.030155802020154"><ele>128.0</ele><time>2026-05-03T14:47:54Z</time></trkpt><trkpt lat="51.08326121854623" lon="17.03026002334301"><ele>127.5</ele><time>2026-05-03T14:47:55Z</time></trkpt><trkpt lat="51.0832516529686" lon="17.030372647655728"><ele>127.0</ele><time>2026-05-03T14:47:56Z</time></trkpt><trkpt lat="51.0832365965475" lon="17.030571029170137"><ele>126.5</ele><time>2026-05-03T14:47:58Z</time></trkpt><trkpt lat="51.083229957267534" lon="17.03067418992316"><ele>126.0</ele><time>2026-05-03T14:47:58.999Z</time></trkpt><trkpt lat="51.083223383589086" lon="17.030776331458586"><ele>126.0</ele><time>2026-05-03T14:48:00Z</time></trkpt><trkpt lat="51.083216738465474" lon="17.03087958311995"><ele>126.0</ele><time>2026-05-03T14:48:01Z</time></trkpt><trkpt lat="51.08320991997244" lon="17.030985490382154"><ele>126.0</ele><time>2026-05-03T14:48:02Z</time></trkpt><trkpt lat="51.08320284796806" lon="17.031095063136853"><ele>126.0</ele><time>2026-05-03T14:48:03Z</time></trkpt><trkpt lat="51.08319567856686" lon="17.0312061449071"><ele>126.0</ele><time>2026-05-03T14:48:04Z</time></trkpt><trkpt lat="51.08318849613807" lon="17.031317428585528"><ele>126.0</ele><time>2026-05-03T14:48:05Z</time></trkpt><trkpt lat="51.08318260686391" lon="17.031427802283982"><ele>126.0</ele><time>2026-05-03T14:48:06Z</time></trkpt><trkpt lat="51.0831762968" lon="17.03154400215163"><ele>126.14285714285714</ele><time>2026-05-03T14:48:07Z</time></trkpt><trkpt lat="51.083170441341416" lon="17.031654924935417"><ele>126.28571428571428</ele><time>2026-05-03T14:48:08Z</time></trkpt><trkpt lat="51.08316461716533" lon="17.031765255170725"><ele>126.42857142857143</ele><time>2026-05-03T14:48:09Z</time></trkpt><trkpt lat="51.08315924795354" lon="17.03187294345812"><ele>126.57142857142857</ele><time>2026-05-03T14:48:10Z</time></trkpt><trkpt lat="51.083153764183464" lon="17.031989496942245"><ele>126.71428571428571</ele><time>2026-05-03T14:48:11Z</time></trkpt><trkpt lat="51.08314872184871" lon="17.032103850977766"><ele>126.85714285714286</ele><time>2026-05-03T14:48:12Z</time></trkpt><trkpt lat="51.08314325294893" lon="17.03222221881975"><ele>127.0</ele><time>2026-05-03T14:48:13Z</time></trkpt><trkpt lat="51.083138689225706" lon="17.032337273682888"><ele>127.0</ele><time>2026-05-03T14:48:14Z</time></trkpt><trkpt lat="51.083133968986886" lon="17.032457856778905"><ele>127.0</ele><time>2026-05-03T14:48:15Z</time></trkpt><trkpt lat="51.08312920619697" lon="17.032576124857233"><ele>127.0</ele><time>2026-05-03T14:48:16Z</time></trkpt><trkpt lat="51.08312378261654" lon="17.03269522697205"><ele>127.0</ele><time>2026-05-03T14:48:17Z</time></trkpt><trkpt lat="51.08311934640315" lon="17.032815430354624"><ele>127.0</ele><time>2026-05-03T14:48:18Z</time></trkpt><trkpt lat="51.08311516807785" lon="17.03292808687284"><ele>127.0</ele><time>2026-05-03T14:48:19Z</time></trkpt><trkpt lat="51.08311097858224" lon="17.033048315414934"><ele>127.0</ele><time>2026-05-03T14:48:20Z</time></trkpt><trkpt lat="51.083108295466566" lon="17.033157904395278"><ele>126.71428571428572</ele><time>2026-05-03T14:48:21Z</time></trkpt><trkpt lat="51.083105614866014" lon="17.03327508528743"><ele>126.42857142857142</ele><time>2026-05-03T14:48:22Z</time></trkpt><trkpt lat="51.08310364858708" lon="17.033389141870252"><ele>126.14285714285714</ele><time>2026-05-03T14:48:23Z</time></trkpt><trkpt lat="51.08310178714798" lon="17.033497117071317"><ele>125.85714285714286</ele><time>2026-05-03T14:48:24Z</time></trkpt><trkpt lat="51.08309988719602" lon="17.033607326235288"><ele>125.57142857142858</ele><time>2026-05-03T14:48:25Z</time></trkpt><trkpt lat="51.083098036029476" lon="17.03371470543554"><ele>125.28571428571428</ele><time>2026-05-03T14:48:26Z</time></trkpt><trkpt lat="51.08309621627593" lon="17.033820262552034"><ele>125.0</ele><time>2026-05-03T14:48:27Z</time></trkpt><trkpt lat="51.08309448194966" lon="17.03392086447562"><ele>124.5</ele><time>2026-05-03T14:48:28Z</time></trkpt><trkpt lat="51.08309275385167" lon="17.03402110471915"><ele>124.0</ele><time>2026-05-03T14:48:29Z</time></trkpt><trkpt lat="51.0830892257246" lon="17.03420988275237"><ele>123.5</ele><time>2026-05-03T14:48:31Z</time></trkpt><trkpt lat="51.083085695264984" lon="17.03435530378647"><ele>123.0</ele><time>2026-05-03T14:48:33Z</time></trkpt><trkpt lat="51.08286814555475" lon="17.03454213325726"><ele>123.0</ele><time>2026-05-03T14:48:35Z</time></trkpt><trkpt lat="51.08277439688919" lon="17.034528959129553"><ele>123.00000000000001</ele><time>2026-05-03T14:48:37Z</time></trkpt><trkpt lat="51.08265660328513" lon="17.034512013063654"><ele>123.00000000000001</ele><time>2026-05-03T14:48:39Z</time></trkpt><trkpt lat="51.082529389681426" lon="17.03450076662411"><ele>123.0</ele><time>2026-05-03T14:48:41Z</time></trkpt><trkpt lat="51.082460659046006" lon="17.03449620543163"><ele>123.0</ele><time>2026-05-03T14:48:42Z</time></trkpt><trkpt lat="51.08234180786205" lon="17.034488318071833"><ele>123.14285714285717</ele><time>2026-05-03T14:48:44Z</time></trkpt><trkpt lat="51.082274774893854" lon="17.034483934977"><ele>123.28571428571429</ele><time>2026-05-03T14:48:45Z</time></trkpt><trkpt lat="51.082207864424895" lon="17.03447957025232"><ele>123.42857142857144</ele><time>2026-05-03T14:48:46Z</time></trkpt><trkpt lat="51.082140369064795" lon="17.03447328060336"><ele>123.57142857142858</ele><time>2026-05-03T14:48:47Z</time></trkpt><trkpt lat="51.08207095179603" lon="17.034466039220455"><ele>123.71428571428572</ele><time>2026-05-03T14:48:48Z</time></trkpt><trkpt lat="51.082000640151115" lon="17.034458574353497"><ele>123.85714285714286</ele><time>2026-05-03T14:48:49Z</time></trkpt><trkpt lat="51.0819342457781" lon="17.034351825262423"><ele>124.0</ele><time>2026-05-03T14:48:50Z</time></trkpt><trkpt lat="51.081871096889365" lon="17.034345210698365"><ele>124.0</ele><time>2026-05-03T14:48:51Z</time></trkpt><trkpt lat="51.081806965919014" lon="17.034333949603017"><ele>124.00000000000001</ele><time>2026-05-03T14:48:52Z</time></trkpt><trkpt lat="51.08174157875596" lon="17.034320000324403"><ele>124.0</ele><time>2026-05-03T14:48:53Z</time></trkpt><trkpt lat="51.081678398015185" lon="17.034311403482125"><ele>124.0</ele><time>2026-05-03T14:48:54Z</time></trkpt><trkpt lat="51.081614465938785" lon="17.03430489674174"><ele>124.00000000000001</ele><time>2026-05-03T14:48:55Z</time></trkpt><trkpt lat="51.081489566722226" lon="17.034294145702276"><ele>124.0</ele><time>2026-05-03T14:48:57Z</time></trkpt><trkpt lat="51.08142625696703" lon="17.03429179222951"><ele>124.0</ele><time>2026-05-03T14:48:58Z</time></trkpt><trkpt lat="51.08136153533966" lon="17.03428427233374"><ele>124.33333333333334</ele><time>2026-05-03T14:48:59Z</time></trkpt><trkpt lat="51.081298924030484" lon="17.03427379422461"><ele>124.66666666666667</ele><time>2026-05-03T14:49:00Z</time></trkpt><trkpt lat="51.08123514213216" lon="17.034265339742515"><ele>125.0</ele><time>2026-05-03T14:49:01Z</time></trkpt><trkpt lat="51.081170634360916" lon="17.0342577041628"><ele>125.33333333333334</ele><time>2026-05-03T14:49:02Z</time></trkpt><trkpt lat="51.08110755831918" lon="17.034252490829214"><ele>125.66666666666667</ele><time>2026-05-03T14:49:03Z</time></trkpt><trkpt lat="51.08098420203616" lon="17.03423105136236"><ele>126.0</ele><time>2026-05-03T14:49:05Z</time></trkpt><trkpt lat="51.080860533535635" lon="17.034204620494727"><ele>126.16666666666667</ele><time>2026-05-03T14:49:07Z</time></trkpt><trkpt lat="51.08074446372396" lon="17.03421816392638"><ele>126.33333333333334</ele><time>2026-05-03T14:49:09Z</time></trkpt><trkpt lat="51.080633132873444" lon="17.034234165755237"><ele>126.5</ele><time>2026-05-03T14:49:11Z</time></trkpt><trkpt lat="51.08056046848486" lon="17.034301312329582"><ele>126.66666666666667</ele><time>2026-05-03T14:49:12Z</time></trkpt><trkpt lat="51.08049691573363" lon="17.034294328060295"><ele>126.83333333333334</ele><time>2026-05-03T14:49:13Z</time></trkpt><trkpt lat="51.08043256796119" lon="17.034284923721952"><ele>127.0</ele><time>2026-05-03T14:49:14Z</time></trkpt><trkpt lat="51.080359589734975" lon="17.03427425802876"><ele>127.00000000000001</ele><time>2026-05-03T14:49:15Z</time></trkpt><trkpt lat="51.0802952379045" lon="17.03426485307907"><ele>127.0</ele><time>2026-05-03T14:49:16Z</time></trkpt><trkpt lat="51.08023130404778" lon="17.034255509202723"><ele>127.0</ele><time>2026-05-03T14:49:17Z</time></trkpt><trkpt lat="51.080164342229196" lon="17.034245722798143"><ele>127.0</ele><time>2026-05-03T14:49:18Z</time></trkpt><trkpt lat="51.080097302782114" lon="17.034235925053967"><ele>127.00000000000001</ele><time>2026-05-03T14:49:19Z</time></trkpt><trkpt lat="51.08004008495811" lon="17.034121331794605"><ele>127.0</ele><time>2026-05-03T14:49:20Z</time></trkpt><trkpt lat="51.07991688660258" lon="17.034092930174143"><ele>127.00000000000001</ele><time>2026-05-03T14:49:22Z</time></trkpt><trkpt lat="51.07984750774182" lon="17.03419941781171"><ele>127.0</ele><time>2026-05-03T14:49:23Z</time></trkpt><trkpt lat="51.07971922603224" lon="17.034181657971292"><ele>127.0</ele><time>2026-05-03T14:49:25Z</time></trkpt><trkpt lat="51.07965387447302" lon="17.034172312976615"><ele>127.0</ele><time>2026-05-03T14:49:26Z</time></trkpt><trkpt lat="51.07958755733959" lon="17.034162761217978"><ele>127.00000000000001</ele><time>2026-05-03T14:49:27Z</time></trkpt><trkpt lat="51.07952210313938" lon="17.03415334376618"><ele>127.0</ele><time>2026-05-03T14:49:28Z</time></trkpt><trkpt lat="51.07945900714762" lon="17.03414426561073"><ele>126.85714285714286</ele><time>2026-05-03T14:49:29Z</time></trkpt><trkpt lat="51.07939094839843" lon="17.034134473427386"><ele>126.71428571428571</ele><time>2026-05-03T14:49:30Z</time></trkpt><trkpt lat="51.07933424459555" lon="17.034027241188827"><ele>126.57142857142857</ele><time>2026-05-03T14:49:31Z</time></trkpt><trkpt lat="51.07926511902074" lon="17.034016838254654"><ele>126.42857142857143</ele><time>2026-05-03T14:49:32Z</time></trkpt><trkpt lat="51.07919708995085" lon="17.034006250030945"><ele>126.28571428571428</ele><time>2026-05-03T14:49:33Z</time></trkpt><trkpt lat="51.079128093529675" lon="17.033994735891277"><ele>126.14285714285714</ele><time>2026-05-03T14:49:34Z</time></trkpt><trkpt lat="51.07906104600021" lon="17.033989175380285"><ele>126.0</ele><time>2026-05-03T14:49:35Z</time></trkpt><trkpt lat="51.078995539909684" lon="17.033976864692725"><ele>126.0</ele><time>2026-05-03T14:49:36Z</time></trkpt><trkpt lat="51.07892813323618" lon="17.03396849280119"><ele>126.0</ele><time>2026-05-03T14:49:37Z</time></trkpt><trkpt lat="51.078861631326255" lon="17.033960042447756"><ele>126.0</ele><time>2026-05-03T14:49:38Z</time></trkpt><trkpt lat="51.07879102850208" lon="17.033949680971148"><ele>126.0</ele><time>2026-05-03T14:49:39Z</time></trkpt><trkpt lat="51.07872271050878" lon="17.033934443110635"><ele>126.0</ele><time>2026-05-03T14:49:39.999Z</time></trkpt><trkpt lat="51.07859773550074" lon="17.033910781685236"><ele>126.0</ele><time>2026-05-03T14:49:41.999Z</time></trkpt><trkpt lat="51.078535444618" lon="17.03389131237645"><ele>126.0</ele><time>2026-05-03T14:49:42.999Z</time></trkpt><trkpt lat="51.078474157798276" lon="17.033867771187495"><ele>126.0</ele><time>2026-05-03T14:49:43.999Z</time></trkpt><trkpt lat="51.078410743258964" lon="17.033843305169665"><ele>126.0</ele><time>2026-05-03T14:49:44.999Z</time></trkpt><trkpt lat="51.07829305313466" lon="17.03380156783096"><ele>126.0</ele><time>2026-05-03T14:49:46.999Z</time></trkpt><trkpt lat="51.0781993295548" lon="17.033737875731592"><ele>126.0</ele><time>2026-05-03T14:49:48.999Z</time></trkpt><trkpt lat="51.07810358105557" lon="17.033824979448482"><ele>125.4</ele><time>2026-05-03T14:49:50.999Z</time></trkpt><trkpt lat="51.077997643282245" lon="17.033786398489944"><ele>124.8</ele><time>2026-05-03T14:49:52.999Z</time></trkpt><trkpt lat="51.07788582721131" lon="17.033745132273875"><ele>124.20000000000002</ele><time>2026-05-03T14:49:54.999Z</time></trkpt><trkpt lat="51.077764681631564" lon="17.03370057812246"><ele>123.60000000000001</ele><time>2026-05-03T14:49:56.999Z</time></trkpt><trkpt lat="51.077702955503746" lon="17.03367791636212"><ele>123.0</ele><time>2026-05-03T14:49:57.999Z</time></trkpt><trkpt lat="51.077580749465554" lon="17.033633050362184"><ele>123.0</ele><time>2026-05-03T14:49:59.999Z</time></trkpt><trkpt lat="51.077458407487654" lon="17.033588555558385"><ele>123.0</ele><time>2026-05-03T14:50:01.999Z</time></trkpt><trkpt lat="51.07739267838362" lon="17.033564768575808"><ele>123.0</ele><time>2026-05-03T14:50:02.999Z</time></trkpt><trkpt lat="51.077326597211105" lon="17.03354085275256"><ele>123.0</ele><time>2026-05-03T14:50:03.999Z</time></trkpt><trkpt lat="51.0772609772215" lon="17.033517103166552"><ele>123.0</ele><time>2026-05-03T14:50:04.999Z</time></trkpt><trkpt lat="51.07719638608475" lon="17.03349302844905"><ele>123.0</ele><time>2026-05-03T14:50:06Z</time></trkpt><trkpt lat="51.077130353043636" lon="17.033469002084328"><ele>123.14285714285717</ele><time>2026-05-03T14:50:07Z</time></trkpt><trkpt lat="51.077065537635725" lon="17.03344541860138"><ele>123.28571428571429</ele><time>2026-05-03T14:50:08Z</time></trkpt><trkpt lat="51.0770150548136" lon="17.03330658515483"><ele>123.42857142857144</ele><time>2026-05-03T14:50:09Z</time></trkpt><trkpt lat="51.076949002731716" lon="17.033282043840913"><ele>123.57142857142858</ele><time>2026-05-03T14:50:10Z</time></trkpt><trkpt lat="51.07688321568639" lon="17.03325762007343"><ele>123.71428571428572</ele><time>2026-05-03T14:50:11Z</time></trkpt><trkpt lat="51.0768167049037" lon="17.033235024136882"><ele>123.85714285714286</ele><time>2026-05-03T14:50:12Z</time></trkpt><trkpt lat="51.076749362149116" lon="17.033207458420097"><ele>124.0</ele><time>2026-05-03T14:50:13Z</time></trkpt><trkpt lat="51.0766818769775" lon="17.03318184926085"><ele>124.0</ele><time>2026-05-03T14:50:14Z</time></trkpt><trkpt lat="51.076614328392566" lon="17.03316203980854"><ele>124.00000000000001</ele><time>2026-05-03T14:50:15Z</time></trkpt><trkpt lat="51.07654767018897" lon="17.03313869576174"><ele>124.0</ele><time>2026-05-03T14:50:16Z</time></trkpt><trkpt lat="51.07648116787265" lon="17.03311242873086"><ele>124.0</ele><time>2026-05-03T14:50:17Z</time></trkpt><trkpt lat="51.07641791545555" lon="17.033084853084787"><ele>124.00000000000001</ele><time>2026-05-03T14:50:18Z</time></trkpt><trkpt lat="51.076334405997734" lon="17.033178153760115"><ele>124.0</ele><time>2026-05-03T14:50:19Z</time></trkpt><trkpt lat="51.07626933266617" lon="17.033154199707962"><ele>124.0</ele><time>2026-05-03T14:50:20Z</time></trkpt><trkpt lat="51.0762053217715" lon="17.033131198914504"><ele>124.16666666666667</ele><time>2026-05-03T14:50:21Z</time></trkpt><trkpt lat="51.076139978321194" lon="17.03310791834986"><ele>124.33333333333334</ele><time>2026-05-03T14:50:22Z</time></trkpt><trkpt lat="51.07609318783953" lon="17.032967177594333"><ele>124.5</ele><time>2026-05-03T14:50:23Z</time></trkpt><trkpt lat="51.076009196142685" lon="17.03306132324784"><ele>124.66666666666666</ele><time>2026-05-03T14:50:24Z</time></trkpt><trkpt lat="51.07594419222144" lon="17.033038163631776"><ele>124.83333333333333</ele><time>2026-05-03T14:50:25Z</time></trkpt><trkpt lat="51.07587714315658" lon="17.03301194316064"><ele>125.0</ele><time>2026-05-03T14:50:26Z</time></trkpt><trkpt lat="51.075812758644304" lon="17.03298563780089"><ele>124.66666666666666</ele><time>2026-05-03T14:50:27Z</time></trkpt><trkpt lat="51.0757487004866" lon="17.03295946620206"><ele>124.33333333333333</ele><time>2026-05-03T14:50:28Z</time></trkpt><trkpt lat="51.07568614335207" lon="17.03293337697903"><ele>124.0</ele><time>2026-05-03T14:50:29Z</time></trkpt><trkpt lat="51.075567870630636" lon="17.032884142438952"><ele>123.66666666666666</ele><time>2026-05-03T14:50:31Z</time></trkpt><trkpt lat="51.07550537347277" lon="17.03285872540208"><ele>123.33333333333333</ele><time>2026-05-03T14:50:32Z</time></trkpt><trkpt lat="51.07544152358233" lon="17.032833439937725"><ele>123.0</ele><time>2026-05-03T14:50:33Z</time></trkpt><trkpt lat="51.07537498048019" lon="17.032808065124076"><ele>123.0</ele><time>2026-05-03T14:50:34Z</time></trkpt><trkpt lat="51.075253323791515" lon="17.032766476614178"><ele>123.00000000000001</ele><time>2026-05-03T14:50:36Z</time></trkpt><trkpt lat="51.07519066576622" lon="17.032749734393548"><ele>123.00000000000001</ele><time>2026-05-03T14:50:37Z</time></trkpt><trkpt lat="51.07508002050975" lon="17.0325525154647"><ele>123.0</ele><time>2026-05-03T14:50:39Z</time></trkpt><trkpt lat="51.07501367547989" lon="17.03254921503996"><ele>123.0</ele><time>2026-05-03T14:50:40Z</time></trkpt><trkpt lat="51.07494763168663" lon="17.032541273564956"><ele>122.83333333333333</ele><time>2026-05-03T14:50:41Z</time></trkpt><trkpt lat="51.0748808009163" lon="17.03253613898924"><ele>122.66666666666666</ele><time>2026-05-03T14:50:42Z</time></trkpt><trkpt lat="51.074816545829876" lon="17.03252871701592"><ele>122.5</ele><time>2026-05-03T14:50:43Z</time></trkpt><trkpt lat="51.07469050626856" lon="17.032515795405"><ele>122.33333333333333</ele><time>2026-05-03T14:50:45Z</time></trkpt><trkpt lat="51.07462433134634" lon="17.032507330985826"><ele>122.16666666666666</ele><time>2026-05-03T14:50:46Z</time></trkpt><trkpt lat="51.074558201629266" lon="17.032503589372894"><ele>122.0</ele><time>2026-05-03T14:50:47Z</time></trkpt><trkpt lat="51.07449049653195" lon="17.032506577751963"><ele>121.99999999999999</ele><time>2026-05-03T14:50:48Z</time></trkpt><trkpt lat="51.07441891087152" lon="17.032520810843653"><ele>122.0</ele><time>2026-05-03T14:50:49Z</time></trkpt><trkpt lat="51.07434459348241" lon="17.032535509281157"><ele>121.99999999999999</ele><time>2026-05-03T14:50:50Z</time></trkpt><trkpt lat="51.0742749123727" lon="17.032527253674928"><ele>121.99999999999999</ele><time>2026-05-03T14:50:51Z</time></trkpt><trkpt lat="51.074202229587435" lon="17.032509110313594"><ele>122.0</ele><time>2026-05-03T14:50:52Z</time></trkpt><trkpt lat="51.07413125129313" lon="17.032498700667556"><ele>121.99999999999999</ele><time>2026-05-03T14:50:53Z</time></trkpt><trkpt lat="51.07405862758848" lon="17.03249072522062"><ele>121.99999999999999</ele><time>2026-05-03T14:50:54Z</time></trkpt><trkpt lat="51.07398910446609" lon="17.032482006717217"><ele>122.33333333333333</ele><time>2026-05-03T14:50:55Z</time></trkpt><trkpt lat="51.07391936925596" lon="17.032465397596468"><ele>122.66666666666666</ele><time>2026-05-03T14:50:56Z</time></trkpt><trkpt lat="51.07385236198658" lon="17.032450723710856"><ele>123.0</ele><time>2026-05-03T14:50:57Z</time></trkpt><trkpt lat="51.073784531992125" lon="17.032449102066696"><ele>123.33333333333334</ele><time>2026-05-03T14:50:58Z</time></trkpt><trkpt lat="51.073724613052086" lon="17.032480277175704"><ele>123.66666666666667</ele><time>2026-05-03T14:50:59Z</time></trkpt><trkpt lat="51.073673868081116" lon="17.032546112558016"><ele>124.0</ele><time>2026-05-03T14:51:00Z</time></trkpt><trkpt lat="51.07355982727953" lon="17.032629623161366"><ele>124.0</ele><time>2026-05-03T14:51:02Z</time></trkpt><trkpt lat="51.07349422297913" lon="17.032626725651646"><ele>124.00000000000001</ele><time>2026-05-03T14:51:03Z</time></trkpt><trkpt lat="51.07342707967614" lon="17.032609653272026"><ele>124.0</ele><time>2026-05-03T14:51:04Z</time></trkpt><trkpt lat="51.073359627639626" lon="17.032600013015408"><ele>124.0</ele><time>2026-05-03T14:51:05Z</time></trkpt><trkpt lat="51.07329295700536" lon="17.03259501305052"><ele>124.00000000000001</ele><time>2026-05-03T14:51:06Z</time></trkpt><trkpt lat="51.07322571839122" lon="17.032591137703797"><ele>124.0</ele><time>2026-05-03T14:51:07Z</time></trkpt><trkpt lat="51.07315689481972" lon="17.032592138948853"><ele>124.0</ele><time>2026-05-03T14:51:08Z</time></trkpt><trkpt lat="51.07308730459288" lon="17.032586646058974"><ele>123.85714285714286</ele><time>2026-05-03T14:51:09Z</time></trkpt><trkpt lat="51.07302077079483" lon="17.03257785969807"><ele>123.71428571428572</ele><time>2026-05-03T14:51:10Z</time></trkpt><trkpt lat="51.07295005537065" lon="17.032561942808915"><ele>123.57142857142858</ele><time>2026-05-03T14:51:11Z</time></trkpt><trkpt lat="51.07287994335832" lon="17.032550777044207"><ele>123.42857142857144</ele><time>2026-05-03T14:51:12Z</time></trkpt><trkpt lat="51.072806686665956" lon="17.032546882434332"><ele>123.28571428571429</ele><time>2026-05-03T14:51:13Z</time></trkpt><trkpt lat="51.07273099207929" lon="17.032544233509494"><ele>123.14285714285717</ele><time>2026-05-03T14:51:14Z</time></trkpt><trkpt lat="51.07265723658081" lon="17.032535458050575"><ele>123.00000000000001</ele><time>2026-05-03T14:51:15Z</time></trkpt><trkpt lat="51.07258617774846" lon="17.032523508227104"><ele>123.00000000000001</ele><time>2026-05-03T14:51:16Z</time></trkpt><trkpt lat="51.072515423039945" lon="17.032508749596683"><ele>123.0</ele><time>2026-05-03T14:51:17Z</time></trkpt><trkpt lat="51.07244418596815" lon="17.03249263415607"><ele>123.00000000000001</ele><time>2026-05-03T14:51:18Z</time></trkpt><trkpt lat="51.07237488271164" lon="17.032472175845644"><ele>123.00000000000001</ele><time>2026-05-03T14:51:19Z</time></trkpt><trkpt lat="51.07230579799263" lon="17.032485266243874"><ele>123.0</ele><time>2026-05-03T14:51:20Z</time></trkpt><trkpt lat="51.07223834139016" lon="17.032478844168953"><ele>123.00000000000001</ele><time>2026-05-03T14:51:21Z</time></trkpt><trkpt lat="51.0721734549323" lon="17.03247090729763"><ele>123.00000000000001</ele><time>2026-05-03T14:51:22Z</time></trkpt><trkpt lat="51.072048279062585" lon="17.03245986594257"><ele>122.83333333333333</ele><time>2026-05-03T14:51:23.999Z</time></trkpt><trkpt lat="51.0719467039126" lon="17.03245083689662"><ele>122.66666666666666</ele><time>2026-05-03T14:51:25.999Z</time></trkpt><trkpt lat="51.0718835575064" lon="17.032446718813453"><ele>122.5</ele><time>2026-05-03T14:51:27.999Z</time></trkpt><trkpt lat="51.07181438016414" lon="17.03242854842464"><ele>122.33333333333333</ele><time>2026-05-03T14:52:12Z</time></trkpt><trkpt lat="51.071734787380024" lon="17.03243414739791"><ele>122.16666666666666</ele><time>2026-05-03T14:52:14Z</time></trkpt><trkpt lat="51.07162838144237" lon="17.032441369747254"><ele>122.0</ele><time>2026-05-03T14:52:16Z</time></trkpt><trkpt lat="51.071564379445064" lon="17.03242997445943"><ele>122.28571428571428</ele><time>2026-05-03T14:52:17Z</time></trkpt><trkpt lat="51.07149475355469" lon="17.03242422370156"><ele>122.57142857142857</ele><time>2026-05-03T14:52:18Z</time></trkpt><trkpt lat="51.071427305772986" lon="17.03242100223293"><ele>122.85714285714286</ele><time>2026-05-03T14:52:19Z</time></trkpt><trkpt lat="51.07135266151303" lon="17.03241496606382"><ele>123.14285714285714</ele><time>2026-05-03T14:52:20Z</time></trkpt><trkpt lat="51.07127817226666" lon="17.032406723830505"><ele>123.42857142857144</ele><time>2026-05-03T14:52:21Z</time></trkpt><trkpt lat="51.07119735316822" lon="17.032399748994884"><ele>123.71428571428572</ele><time>2026-05-03T14:52:22Z</time></trkpt><trkpt lat="51.07111832156195" lon="17.03239342082863"><ele>124.0</ele><time>2026-05-03T14:52:23Z</time></trkpt><trkpt lat="51.07103537366268" lon="17.03238855072248"><ele>124.00000000000001</ele><time>2026-05-03T14:52:24Z</time></trkpt><trkpt lat="51.070948504789705" lon="17.03238537952112"><ele>124.0</ele><time>2026-05-03T14:52:25Z</time></trkpt><trkpt lat="51.070873044764554" lon="17.03237033467225"><ele>124.0</ele><time>2026-05-03T14:52:26Z</time></trkpt><trkpt lat="51.07078173630708" lon="17.03236588976717"><ele>124.0</ele><time>2026-05-03T14:52:27Z</time></trkpt><trkpt lat="51.0706995298509" lon="17.032358583888833"><ele>124.00000000000001</ele><time>2026-05-03T14:52:28Z</time></trkpt><trkpt lat="51.07061556918564" lon="17.032350083409625"><ele>124.0</ele><time>2026-05-03T14:52:29Z</time></trkpt><trkpt lat="51.07052393049106" lon="17.032352514286107"><ele>123.66666666666667</ele><time>2026-05-03T14:52:30Z</time></trkpt><trkpt lat="51.070435317914736" lon="17.032354361275793"><ele>123.33333333333334</ele><time>2026-05-03T14:52:31Z</time></trkpt><trkpt lat="51.07034666595131" lon="17.03233913716657"><ele>123.0</ele><time>2026-05-03T14:52:32Z</time></trkpt><trkpt lat="51.070262943772214" lon="17.032331516535105"><ele>122.66666666666666</ele><time>2026-05-03T14:52:33Z</time></trkpt><trkpt lat="51.07017655693348" lon="17.032327061062503"><ele>122.33333333333333</ele><time>2026-05-03T14:52:34Z</time></trkpt><trkpt lat="51.070089989523744" lon="17.032328218838533"><ele>122.0</ele><time>2026-05-03T14:52:35Z</time></trkpt><trkpt lat="51.07002110886458" lon="17.03237511311814"><ele>121.99999999999999</ele><time>2026-05-03T14:52:36Z</time></trkpt><trkpt lat="51.06994948073091" lon="17.0324265530082"><ele>122.0</ele><time>2026-05-03T14:52:37Z</time></trkpt><trkpt lat="51.069880084333036" lon="17.032400847611797"><ele>121.99999999999999</ele><time>2026-05-03T14:52:38Z</time></trkpt><trkpt lat="51.06980528976694" lon="17.032375032891093"><ele>121.99999999999999</ele><time>2026-05-03T14:52:39Z</time></trkpt><trkpt lat="51.069729348312606" lon="17.03236815754842"><ele>122.0</ele><time>2026-05-03T14:52:40Z</time></trkpt><trkpt lat="51.069656107609795" lon="17.03235548929846"><ele>121.99999999999999</ele><time>2026-05-03T14:52:41Z</time></trkpt><trkpt lat="51.06958702361156" lon="17.032342752556048"><ele>121.99999999999999</ele><time>2026-05-03T14:52:42Z</time></trkpt><trkpt lat="51.06951412575717" lon="17.032335597132665"><ele>121.99999999999999</ele><time>2026-05-03T14:52:43Z</time></trkpt><trkpt lat="51.06944650128131" lon="17.03232192502765"><ele>122.0</ele><time>2026-05-03T14:52:44Z</time></trkpt><trkpt lat="51.06937875697621" lon="17.032305922914777"><ele>122.0</ele><time>2026-05-03T14:52:45Z</time></trkpt><trkpt lat="51.0693137655524" lon="17.032295591910263"><ele>122.0</ele><time>2026-05-03T14:52:46Z</time></trkpt><trkpt lat="51.069247215544976" lon="17.032289648546353"><ele>121.99999999999999</ele><time>2026-05-03T14:52:47Z</time></trkpt><trkpt lat="51.06918226456989" lon="17.032281308115802"><ele>122.0</ele><time>2026-05-03T14:52:48Z</time></trkpt><trkpt lat="51.069059380406536" lon="17.03225571198608"><ele>122.0</ele><time>2026-05-03T14:52:50Z</time></trkpt><trkpt lat="51.068946958566755" lon="17.032243941340468"><ele>121.99999999999999</ele><time>2026-05-03T14:52:52Z</time></trkpt><trkpt lat="51.068827937288695" lon="17.032228692421064"><ele>121.99999999999999</ele><time>2026-05-03T14:52:54Z</time></trkpt><trkpt lat="51.06876277132428" lon="17.03222102993186"><ele>122.0</ele><time>2026-05-03T14:52:55Z</time></trkpt><trkpt lat="51.06870555790381" lon="17.032101525182565"><ele>122.0</ele><time>2026-05-03T14:52:56Z</time></trkpt><trkpt lat="51.06858441408188" lon="17.03208526296622"><ele>121.99999999999999</ele><time>2026-05-03T14:52:58Z</time></trkpt><trkpt lat="51.06852030324984" lon="17.032077052622803"><ele>122.0</ele><time>2026-05-03T14:52:59Z</time></trkpt><trkpt lat="51.068452713265096" lon="17.0320694587766"><ele>121.99999999999999</ele><time>2026-05-03T14:53:00Z</time></trkpt><trkpt lat="51.06838817624633" lon="17.032062207946833"><ele>121.99999999999999</ele><time>2026-05-03T14:53:01Z</time></trkpt><trkpt lat="51.06832247025596" lon="17.032056557162417"><ele>122.0</ele><time>2026-05-03T14:53:02Z</time></trkpt><trkpt lat="51.0682579857166" lon="17.032050854777513"><ele>121.99999999999999</ele><time>2026-05-03T14:53:03Z</time></trkpt><trkpt lat="51.068193440352125" lon="17.032045147117913"><ele>121.99999999999999</ele><time>2026-05-03T14:53:04Z</time></trkpt><trkpt lat="51.068127919759604" lon="17.03204245999502"><ele>122.33333333333333</ele><time>2026-05-03T14:53:05Z</time></trkpt><trkpt lat="51.068064178496236" lon="17.032038335375137"><ele>122.66666666666666</ele><time>2026-05-03T14:53:06Z</time></trkpt><trkpt lat="51.06800043730952" lon="17.03203545610536"><ele>123.0</ele><time>2026-05-03T14:53:07Z</time></trkpt><trkpt lat="51.06793706340401" lon="17.03203221905182"><ele>123.33333333333334</ele><time>2026-05-03T14:53:08Z</time></trkpt><trkpt lat="51.067811526490885" lon="17.032160111707395"><ele>123.66666666666667</ele><time>2026-05-03T14:53:10Z</time></trkpt><trkpt lat="51.06774672465013" lon="17.032160532774952"><ele>124.0</ele><time>2026-05-03T14:53:11Z</time></trkpt><trkpt lat="51.067621215880266" lon="17.03216677465342"><ele>124.0</ele><time>2026-05-03T14:53:13Z</time></trkpt><trkpt lat="51.067558211623606" lon="17.032165095808768"><ele>124.0</ele><time>2026-05-03T14:53:14Z</time></trkpt><trkpt lat="51.06743231225131" lon="17.032165315294385"><ele>124.0</ele><time>2026-05-03T14:53:16Z</time></trkpt><trkpt lat="51.06730644037667" lon="17.032155890725512"><ele>124.0</ele><time>2026-05-03T14:53:18Z</time></trkpt><trkpt lat="51.06718454073431" lon="17.032170364469696"><ele>124.0</ele><time>2026-05-03T14:53:19.999Z</time></trkpt><trkpt lat="51.06712042548023" lon="17.032191513500546"><ele>124.0</ele><time>2026-05-03T14:53:20.999Z</time></trkpt><trkpt lat="51.06699624351435" lon="17.032216426590804"><ele>124.0</ele><time>2026-05-03T14:53:22.999Z</time></trkpt><trkpt lat="51.06687410184479" lon="17.03223984274893"><ele>124.0</ele><time>2026-05-03T14:53:24.999Z</time></trkpt><trkpt lat="51.066749405961936" lon="17.032260113615358"><ele>124.0</ele><time>2026-05-03T14:53:26.999Z</time></trkpt><trkpt lat="51.066624506773806" lon="17.03227452325295"><ele>124.0</ele><time>2026-05-03T14:53:28.999Z</time></trkpt><trkpt lat="51.066503046129036" lon="17.032295578774644"><ele>124.0</ele><time>2026-05-03T14:53:30.999Z</time></trkpt><trkpt lat="51.066381188421296" lon="17.03231911829733"><ele>124.0</ele><time>2026-05-03T14:53:32.999Z</time></trkpt><trkpt lat="51.066269967600995" lon="17.032355819954315"><ele>124.0</ele><time>2026-05-03T14:53:34.999Z</time></trkpt><trkpt lat="51.06615649108911" lon="17.032379045588073"><ele>124.0</ele><time>2026-05-03T14:53:36.999Z</time></trkpt><trkpt lat="51.0660421666028" lon="17.032379341622697"><ele>124.0</ele><time>2026-05-03T14:53:38.999Z</time></trkpt><trkpt lat="51.065924356108106" lon="17.032412723188706"><ele>124.0</ele><time>2026-05-03T14:53:40.999Z</time></trkpt><trkpt lat="51.065853413309256" lon="17.032259451259378"><ele>124.0</ele><time>2026-05-03T14:53:41.999Z</time></trkpt><trkpt lat="51.06579068740312" lon="17.032269685136544"><ele>124.0</ele><time>2026-05-03T14:53:42.999Z</time></trkpt><trkpt lat="51.06566647289514" lon="17.032291620751668"><ele>124.2</ele><time>2026-05-03T14:53:44.999Z</time></trkpt><trkpt lat="51.065602692703386" lon="17.03230255056839"><ele>124.4</ele><time>2026-05-03T14:53:45.999Z</time></trkpt><trkpt lat="51.06547815756529" lon="17.032321532313023"><ele>124.6</ele><time>2026-05-03T14:53:47.999Z</time></trkpt><trkpt lat="51.065355295546766" lon="17.032340259020714"><ele>124.8</ele><time>2026-05-03T14:53:49.999Z</time></trkpt><trkpt lat="51.06530241710219" lon="17.032466940262026"><ele>125.0</ele><time>2026-05-03T14:53:50.999Z</time></trkpt><trkpt lat="51.065173150764394" lon="17.032363438850627"><ele>125.0</ele><time>2026-05-03T14:53:52.999Z</time></trkpt><trkpt lat="51.06505306768052" lon="17.03237214163315"><ele>125.0</ele><time>2026-05-03T14:53:54.999Z</time></trkpt><trkpt lat="51.06492749551781" lon="17.032493365075037"><ele>125.0</ele><time>2026-05-03T14:53:56.999Z</time></trkpt><trkpt lat="51.06480715355025" lon="17.03248403025183"><ele>125.0</ele><time>2026-05-03T14:53:58.999Z</time></trkpt><trkpt lat="51.06468341849635" lon="17.032469194941843"><ele>125.2</ele><time>2026-05-03T14:54:00.999Z</time></trkpt><trkpt lat="51.064563544606564" lon="17.032456109026292"><ele>125.4</ele><time>2026-05-03T14:54:02.999Z</time></trkpt><trkpt lat="51.06444497250927" lon="17.032423321018296"><ele>125.6</ele><time>2026-05-03T14:54:04.999Z</time></trkpt><trkpt lat="51.064380931327975" lon="17.032407243574358"><ele>125.8</ele><time>2026-05-03T14:54:05.999Z</time></trkpt><trkpt lat="51.06426111811693" lon="17.032376354349847"><ele>126.0</ele><time>2026-05-03T14:54:07.999Z</time></trkpt><trkpt lat="51.064138910555926" lon="17.032349974462488"><ele>126.19999999999999</ele><time>2026-05-03T14:54:09.999Z</time></trkpt><trkpt lat="51.06401838635739" lon="17.032320647457908"><ele>126.39999999999999</ele><time>2026-05-03T14:54:11.999Z</time></trkpt><trkpt lat="51.06397080359762" lon="17.032180145736643"><ele>126.6</ele><time>2026-05-03T14:54:12.999Z</time></trkpt><trkpt lat="51.06390827558613" lon="17.032165274474206"><ele>126.8</ele><time>2026-05-03T14:54:13.999Z</time></trkpt><trkpt lat="51.06383256700083" lon="17.03227231600245"><ele>127.0</ele><time>2026-05-03T14:54:14.999Z</time></trkpt><trkpt lat="51.063778606335966" lon="17.032140379120776"><ele>127.00000000000001</ele><time>2026-05-03T14:54:15.999Z</time></trkpt><trkpt lat="51.063714817446396" lon="17.032129469478573"><ele>127.0</ele><time>2026-05-03T14:54:16.999Z</time></trkpt><trkpt lat="51.06364789287035" lon="17.032119596722218"><ele>127.0</ele><time>2026-05-03T14:54:18Z</time></trkpt><trkpt lat="51.06358373903309" lon="17.032112547918025"><ele>127.0</ele><time>2026-05-03T14:54:19Z</time></trkpt><trkpt lat="51.063520734107165" lon="17.03210750002086"><ele>127.00000000000001</ele><time>2026-05-03T14:54:20Z</time></trkpt><trkpt lat="51.06345328752054" lon="17.032256415591764"><ele>127.0</ele><time>2026-05-03T14:54:21Z</time></trkpt><trkpt lat="51.06332928033823" lon="17.03226552837075"><ele>127.19999999999999</ele><time>2026-05-03T14:54:23Z</time></trkpt><trkpt lat="51.063217085677415" lon="17.032290715964468"><ele>127.39999999999999</ele><time>2026-05-03T14:54:25Z</time></trkpt><trkpt lat="51.063152396545604" lon="17.032302221030104"><ele>127.60000000000001</ele><time>2026-05-03T14:54:26Z</time></trkpt><trkpt lat="51.06303664601793" lon="17.03231675947758"><ele>127.80000000000001</ele><time>2026-05-03T14:54:28Z</time></trkpt><trkpt lat="51.06297371976329" lon="17.032330779813964"><ele>128.0</ele><time>2026-05-03T14:54:29Z</time></trkpt><trkpt lat="51.06286415541252" lon="17.032349267419633"><ele>127.99999999999999</ele><time>2026-05-03T14:54:31Z</time></trkpt><trkpt lat="51.06276642743191" lon="17.032370640211663"><ele>128.0</ele><time>2026-05-03T14:54:33Z</time></trkpt><trkpt lat="51.06269168998536" lon="17.032311486831183"><ele>128.0</ele><time>2026-05-03T14:54:35Z</time></trkpt><trkpt lat="51.06267744324857" lon="17.032171698967854"><ele>128.0</ele><time>2026-05-03T14:54:37Z</time></trkpt><trkpt lat="51.06262350509211" lon="17.03206055229768"><ele>127.99999999999999</ele><time>2026-05-03T14:54:40Z</time></trkpt><trkpt lat="51.06255591314392" lon="17.032007886352233"><ele>128.0</ele><time>2026-05-03T14:54:42Z</time></trkpt><trkpt lat="51.06248920718841" lon="17.031911421069474"><ele>128.0</ele><time>2026-05-03T14:54:44Z</time></trkpt><trkpt lat="51.0624369859253" lon="17.03175001492685"><ele>128.0</ele><time>2026-05-03T14:54:46Z</time></trkpt><trkpt lat="51.06238615912012" lon="17.03160271236101"><ele>128.0</ele><time>2026-05-03T14:54:48Z</time></trkpt><trkpt lat="51.06234784435723" lon="17.031461801589966"><ele>128.0</ele><time>2026-05-03T14:54:50Z</time></trkpt><trkpt lat="51.06230756586199" lon="17.03130192287284"><ele>128.0</ele><time>2026-05-03T14:54:52Z</time></trkpt><trkpt lat="51.06227018200435" lon="17.031141638347215"><ele>127.99999999999999</ele><time>2026-05-03T14:54:54Z</time></trkpt><trkpt lat="51.06221402476311" lon="17.0310320380086"><ele>128.0</ele><time>2026-05-03T14:54:56Z</time></trkpt><trkpt lat="51.062139062946486" lon="17.030955196447156"><ele>128.0</ele><time>2026-05-03T14:54:58Z</time></trkpt><trkpt lat="51.06207844346056" lon="17.030805599096325"><ele>128.0</ele><time>2026-05-03T14:55:00Z</time></trkpt><trkpt lat="51.06205369225616" lon="17.0307131730706"><ele>127.99999999999999</ele><time>2026-05-03T14:55:01Z</time></trkpt><trkpt lat="51.06202945338841" lon="17.030617596009535"><ele>128.0</ele><time>2026-05-03T14:55:02Z</time></trkpt><trkpt lat="51.06199888451263" lon="17.030514240222956"><ele>127.99999999999999</ele><time>2026-05-03T14:55:03Z</time></trkpt><trkpt lat="51.06196210607804" lon="17.030413252153945"><ele>128.0</ele><time>2026-05-03T14:55:04Z</time></trkpt><trkpt lat="51.06192899475008" lon="17.030307941839872"><ele>128.0</ele><time>2026-05-03T14:55:05Z</time></trkpt><trkpt lat="51.06189881824956" lon="17.030199181426127"><ele>128.0</ele><time>2026-05-03T14:55:06Z</time></trkpt><trkpt lat="51.061865675358604" lon="17.03008948708887"><ele>127.99999999999999</ele><time>2026-05-03T14:55:07Z</time></trkpt><trkpt lat="51.06183347931778" lon="17.02997823677594"><ele>128.0</ele><time>2026-05-03T14:55:08Z</time></trkpt><trkpt lat="51.06179937762358" lon="17.029871287580413"><ele>127.99999999999999</ele><time>2026-05-03T14:55:09Z</time></trkpt><trkpt lat="51.06176786009999" lon="17.029761116437843"><ele>128.0</ele><time>2026-05-03T14:55:10Z</time></trkpt><trkpt lat="51.061735280483774" lon="17.029651650291385"><ele>128.0</ele><time>2026-05-03T14:55:11Z</time></trkpt><trkpt lat="51.06170246495309" lon="17.02954274601323"><ele>128.0</ele><time>2026-05-03T14:55:12Z</time></trkpt><trkpt lat="51.061671910585986" lon="17.029432522539537"><ele>127.99999999999999</ele><time>2026-05-03T14:55:13Z</time></trkpt><trkpt lat="51.061639539284045" lon="17.029320180479854"><ele>128.0</ele><time>2026-05-03T14:55:14Z</time></trkpt><trkpt lat="51.06160657620225" lon="17.02920946207633"><ele>128.16666666666666</ele><time>2026-05-03T14:55:15Z</time></trkpt><trkpt lat="51.061574155121846" lon="17.029097861275172"><ele>128.33333333333331</ele><time>2026-05-03T14:55:16Z</time></trkpt><trkpt lat="51.06154422593901" lon="17.028985781342683"><ele>128.5</ele><time>2026-05-03T14:55:17Z</time></trkpt><trkpt lat="51.061512286046266" lon="17.02887526549808"><ele>128.66666666666666</ele><time>2026-05-03T14:55:17.999Z</time></trkpt><trkpt lat="51.0614784928027" lon="17.02876184616929"><ele>128.83333333333334</ele><time>2026-05-03T14:55:18.999Z</time></trkpt><trkpt lat="51.06144411547048" lon="17.02865267104495"><ele>129.0</ele><time>2026-05-03T14:55:19.999Z</time></trkpt><trkpt lat="51.06140913655189" lon="17.028542779691723"><ele>129.0</ele><time>2026-05-03T14:55:20.999Z</time></trkpt><trkpt lat="51.061376823166334" lon="17.02843207910132"><ele>129.0</ele><time>2026-05-03T14:55:21.999Z</time></trkpt><trkpt lat="51.061343971614164" lon="17.02832190280058"><ele>129.0</ele><time>2026-05-03T14:55:22.999Z</time></trkpt><trkpt lat="51.061311899344915" lon="17.028210592960498"><ele>129.0</ele><time>2026-05-03T14:55:23.999Z</time></trkpt><trkpt lat="51.06127770060363" lon="17.028099466810747"><ele>129.0</ele><time>2026-05-03T14:55:24.999Z</time></trkpt><trkpt lat="51.06124384580377" lon="17.027989731446034"><ele>129.0</ele><time>2026-05-03T14:55:25.999Z</time></trkpt><trkpt lat="51.06120943863306" lon="17.02788094978145"><ele>129.0</ele><time>2026-05-03T14:55:26.999Z</time></trkpt><trkpt lat="51.06117491247763" lon="17.0277718818643"><ele>129.0</ele><time>2026-05-03T14:55:27.999Z</time></trkpt><trkpt lat="51.06114125827936" lon="17.027661686453527"><ele>129.0</ele><time>2026-05-03T14:55:28.999Z</time></trkpt><trkpt lat="51.06111119493913" lon="17.027548993429477"><ele>129.0</ele><time>2026-05-03T14:55:29.999Z</time></trkpt><trkpt lat="51.06108099982492" lon="17.027437912958195"><ele>129.0</ele><time>2026-05-03T14:55:30.999Z</time></trkpt><trkpt lat="51.06104838228917" lon="17.027327168912976"><ele>129.0</ele><time>2026-05-03T14:55:31.999Z</time></trkpt><trkpt lat="51.06101870034916" lon="17.027215133603733"><ele>129.0</ele><time>2026-05-03T14:55:32.999Z</time></trkpt><trkpt lat="51.06098411024857" lon="17.027105567034617"><ele>129.0</ele><time>2026-05-03T14:55:33.999Z</time></trkpt><trkpt lat="51.06094692536403" lon="17.027000963021102"><ele>129.0</ele><time>2026-05-03T14:55:34.999Z</time></trkpt><trkpt lat="51.06090820293104" lon="17.026899290203616"><ele>129.0</ele><time>2026-05-03T14:55:35.999Z</time></trkpt><trkpt lat="51.060868729260875" lon="17.02679532563698"><ele>129.0</ele><time>2026-05-03T14:55:36.999Z</time></trkpt><trkpt lat="51.060829556679984" lon="17.026692311923632"><ele>129.0</ele><time>2026-05-03T14:55:37.999Z</time></trkpt><trkpt lat="51.06079312317611" lon="17.02659168665398"><ele>128.7142857142857</ele><time>2026-05-03T14:55:38.999Z</time></trkpt><trkpt lat="51.06075564807688" lon="17.026490283851885"><ele>128.42857142857142</ele><time>2026-05-03T14:55:39.999Z</time></trkpt><trkpt lat="51.0607171700081" lon="17.02638865483614"><ele>128.14285714285714</ele><time>2026-05-03T14:55:40.999Z</time></trkpt><trkpt lat="51.060678371117184" lon="17.02628813632369"><ele>127.85714285714285</ele><time>2026-05-03T14:55:41.999Z</time></trkpt><trkpt lat="51.060640121808255" lon="17.02618832209285"><ele>127.57142857142856</ele><time>2026-05-03T14:55:42.999Z</time></trkpt><trkpt lat="51.060600106829966" lon="17.0260868532646"><ele>127.28571428571429</ele><time>2026-05-03T14:55:43.999Z</time></trkpt><trkpt lat="51.060561547659944" lon="17.025984574495336"><ele>127.0</ele><time>2026-05-03T14:55:44.999Z</time></trkpt><trkpt lat="51.0605231851732" lon="17.025882141244292"><ele>127.0</ele><time>2026-05-03T14:55:45.999Z</time></trkpt><trkpt lat="51.06048223154808" lon="17.025778113386604"><ele>127.0</ele><time>2026-05-03T14:55:46.999Z</time></trkpt><trkpt lat="51.060442181239026" lon="17.02567621136504"><ele>127.0</ele><time>2026-05-03T14:55:47.999Z</time></trkpt><trkpt lat="51.06040425123741" lon="17.025572427233193"><ele>127.0</ele><time>2026-05-03T14:55:48.999Z</time></trkpt><trkpt lat="51.06036524864225" lon="17.02547414286816"><ele>127.0</ele><time>2026-05-03T14:55:49.999Z</time></trkpt><trkpt lat="51.060325930439646" lon="17.02537444742421"><ele>127.0</ele><time>2026-05-03T14:55:50.999Z</time></trkpt><trkpt lat="51.06028658461702" lon="17.025278385226077"><ele>127.0</ele><time>2026-05-03T14:55:51.999Z</time></trkpt><trkpt lat="51.06024846428248" lon="17.025178902101853"><ele>127.0</ele><time>2026-05-03T14:55:52.999Z</time></trkpt><trkpt lat="51.06020985065591" lon="17.02508107268524"><ele>127.0</ele><time>2026-05-03T14:55:53.999Z</time></trkpt><trkpt lat="51.06017141427167" lon="17.024982790921648"><ele>127.0</ele><time>2026-05-03T14:55:54.999Z</time></trkpt><trkpt lat="51.06013195295565" lon="17.02488701273672"><ele>127.0</ele><time>2026-05-03T14:55:55.999Z</time></trkpt><trkpt lat="51.060093066029616" lon="17.024789286155936"><ele>127.0</ele><time>2026-05-03T14:55:56.999Z</time></trkpt><trkpt lat="51.06005577209631" lon="17.024691152276674"><ele>127.0</ele><time>2026-05-03T14:55:57.999Z</time></trkpt><trkpt lat="51.06001835483978" lon="17.024593837165142"><ele>127.0</ele><time>2026-05-03T14:55:58.999Z</time></trkpt><trkpt lat="51.059979438864225" lon="17.02449692746871"><ele>127.0</ele><time>2026-05-03T14:55:59.999Z</time></trkpt><trkpt lat="51.059938606812004" lon="17.024404054665915"><ele>127.0</ele><time>2026-05-03T14:56:00.999Z</time></trkpt><trkpt lat="51.05989389781989" lon="17.024317810068073"><ele>127.0</ele><time>2026-05-03T14:56:01.999Z</time></trkpt><trkpt lat="51.05984379019739" lon="17.024239228362905"><ele>127.0</ele><time>2026-05-03T14:56:02.999Z</time></trkpt><trkpt lat="51.059789150406175" lon="17.024167698920948"><ele>127.0</ele><time>2026-05-03T14:56:03.999Z</time></trkpt><trkpt lat="51.059729996517575" lon="17.024106483657434"><ele>127.0</ele><time>2026-05-03T14:56:04.999Z</time></trkpt><trkpt lat="51.0596798770411" lon="17.024035587890207"><ele>127.0</ele><time>2026-05-03T14:56:05.999Z</time></trkpt><trkpt lat="51.059603987567804" lon="17.02401312910455"><ele>127.0</ele><time>2026-05-03T14:56:06.999Z</time></trkpt><trkpt lat="51.05953768684563" lon="17.023973829903444"><ele>127.0</ele><time>2026-05-03T14:56:07.999Z</time></trkpt><trkpt lat="51.059468753598026" lon="17.02394525078007"><ele>127.0</ele><time>2026-05-03T14:56:08.999Z</time></trkpt><trkpt lat="51.05940011845954" lon="17.023919374927814"><ele>127.0</ele><time>2026-05-03T14:56:09.999Z</time></trkpt><trkpt lat="51.05933296749215" lon="17.02388977125553"><ele>127.0</ele><time>2026-05-03T14:56:10.999Z</time></trkpt><trkpt lat="51.059265368031255" lon="17.023858350854276"><ele>127.0</ele><time>2026-05-03T14:56:11.999Z</time></trkpt><trkpt lat="51.059197853669076" lon="17.023823909449472"><ele>127.0</ele><time>2026-05-03T14:56:12.999Z</time></trkpt><trkpt lat="51.05913252902445" lon="17.023789221381058"><ele>127.28571428571429</ele><time>2026-05-03T14:56:13.999Z</time></trkpt><trkpt lat="51.059067199926254" lon="17.023757537835007"><ele>127.57142857142856</ele><time>2026-05-03T14:56:14.999Z</time></trkpt><trkpt lat="51.05900339863406" lon="17.02372457635214"><ele>127.85714285714285</ele><time>2026-05-03T14:56:15.999Z</time></trkpt><trkpt lat="51.058939531680444" lon="17.02369358910803"><ele>128.14285714285714</ele><time>2026-05-03T14:56:16.999Z</time></trkpt><trkpt lat="51.05887652891843" lon="17.023657047764324"><ele>128.42857142857142</ele><time>2026-05-03T14:56:17.999Z</time></trkpt><trkpt lat="51.05881404438264" lon="17.023623449405893"><ele>128.7142857142857</ele><time>2026-05-03T14:56:18.999Z</time></trkpt><trkpt lat="51.058749416260476" lon="17.023587149541765"><ele>129.0</ele><time>2026-05-03T14:56:19.999Z</time></trkpt><trkpt lat="51.058682739298916" lon="17.02355361207909"><ele>128.99999999999997</ele><time>2026-05-03T14:56:20.999Z</time></trkpt><trkpt lat="51.05861433953088" lon="17.02352645594012"><ele>129.0</ele><time>2026-05-03T14:56:21.999Z</time></trkpt><trkpt lat="51.058545977595166" lon="17.023501233853974"><ele>129.0</ele><time>2026-05-03T14:56:23Z</time></trkpt><trkpt lat="51.058480635624555" lon="17.02346882658003"><ele>129.0</ele><time>2026-05-03T14:56:24Z</time></trkpt><trkpt lat="51.058416401605825" lon="17.02343786000263"><ele>129.0</ele><time>2026-05-03T14:56:25Z</time></trkpt><trkpt lat="51.05835041549689" lon="17.023411933199842"><ele>128.99999999999997</ele><time>2026-05-03T14:56:26Z</time></trkpt><trkpt lat="51.058286842421005" lon="17.023385699938178"><ele>129.0</ele><time>2026-05-03T14:56:27Z</time></trkpt><trkpt lat="51.058224429279335" lon="17.023355412774052"><ele>129.28571428571428</ele><time>2026-05-03T14:56:28Z</time></trkpt><trkpt lat="51.0581639256462" lon="17.023321924463524"><ele>129.57142857142856</ele><time>2026-05-03T14:56:29Z</time></trkpt><trkpt lat="51.05810129072227" lon="17.023288840243367"><ele>129.85714285714286</ele><time>2026-05-03T14:56:30Z</time></trkpt><trkpt lat="51.05804083185845" lon="17.02325492791437"><ele>130.14285714285714</ele><time>2026-05-03T14:56:31Z</time></trkpt><trkpt lat="51.05797819612762" lon="17.02322068117096"><ele>130.42857142857144</ele><time>2026-05-03T14:56:32Z</time></trkpt><trkpt lat="51.057915126079045" lon="17.023190232365675"><ele>130.71428571428572</ele><time>2026-05-03T14:56:33Z</time></trkpt><trkpt lat="51.05785165728095" lon="17.02315750236236"><ele>131.0</ele><time>2026-05-03T14:56:34Z</time></trkpt><trkpt lat="51.057789835085494" lon="17.023121108974337"><ele>131.0</ele><time>2026-05-03T14:56:35Z</time></trkpt><trkpt lat="51.057730183900475" lon="17.023075816953718"><ele>131.0</ele><time>2026-05-03T14:56:36Z</time></trkpt><trkpt lat="51.05767285486209" lon="17.023029131371388"><ele>131.0</ele><time>2026-05-03T14:56:37Z</time></trkpt><trkpt lat="51.05761689081488" lon="17.02297890196471"><ele>131.0</ele><time>2026-05-03T14:56:38Z</time></trkpt><trkpt lat="51.05751177304826" lon="17.022877527216938"><ele>131.0</ele><time>2026-05-03T14:56:40Z</time></trkpt><trkpt lat="51.05741981185585" lon="17.022813875832252"><ele>131.0</ele><time>2026-05-03T14:56:42Z</time></trkpt><trkpt lat="51.0573269735679" lon="17.022736143638003"><ele>131.16666666666666</ele><time>2026-05-03T14:56:44Z</time></trkpt><trkpt lat="51.057243479498126" lon="17.022665599461636"><ele>131.33333333333331</ele><time>2026-05-03T14:56:46Z</time></trkpt><trkpt lat="51.05716883992781" lon="17.022600605109986"><ele>131.5</ele><time>2026-05-03T14:56:48Z</time></trkpt><trkpt lat="51.05711234467203" lon="17.022551419018047"><ele>131.66666666666666</ele><time>2026-05-03T14:56:50Z</time></trkpt><trkpt lat="51.05705696369145" lon="17.022500057639633"><ele>131.83333333333334</ele><time>2026-05-03T14:56:54Z</time></trkpt><trkpt lat="51.057121931854624" lon="17.022338984364055"><ele>132.0</ele><time>2026-05-03T14:57:16Z</time></trkpt><trkpt lat="51.057060875836044" lon="17.022272100456796"><ele>131.66666666666666</ele><time>2026-05-03T14:57:27.999Z</time></trkpt><trkpt lat="51.056996484204305" lon="17.022256654606778"><ele>131.33333333333334</ele><time>2026-05-03T14:57:29.999Z</time></trkpt><trkpt lat="51.056924306345316" lon="17.0223017689815"><ele>131.0</ele><time>2026-05-03T14:57:31.999Z</time></trkpt><trkpt lat="51.05684736783316" lon="17.022272393228377"><ele>130.66666666666669</ele><time>2026-05-03T14:57:33.999Z</time></trkpt><trkpt lat="51.05675890492546" lon="17.022230633577774"><ele>130.33333333333334</ele><time>2026-05-03T14:57:35.999Z</time></trkpt><trkpt lat="51.05665697990659" lon="17.02223293114593"><ele>130.0</ele><time>2026-05-03T14:57:37.999Z</time></trkpt><trkpt lat="51.05653161912044" lon="17.022155802459725"><ele>129.83333333333334</ele><time>2026-05-03T14:57:39.999Z</time></trkpt><trkpt lat="51.05646665107973" lon="17.02211694365268"><ele>129.66666666666669</ele><time>2026-05-03T14:57:40.999Z</time></trkpt><trkpt lat="51.05639407817598" lon="17.022079529527623"><ele>129.5</ele><time>2026-05-03T14:57:41.999Z</time></trkpt><trkpt lat="51.056317459408206" lon="17.022045638475987"><ele>129.33333333333334</ele><time>2026-05-03T14:57:42.999Z</time></trkpt><trkpt lat="51.0562395575823" lon="17.022005814618183"><ele>129.16666666666666</ele><time>2026-05-03T14:57:43.999Z</time></trkpt><trkpt lat="51.05616000750266" lon="17.02197750160807"><ele>129.0</ele><time>2026-05-03T14:57:44.999Z</time></trkpt><trkpt lat="51.05608576512114" lon="17.02194712071975"><ele>129.0</ele><time>2026-05-03T14:57:45.999Z</time></trkpt><trkpt lat="51.05601148433784" lon="17.021916239585387"><ele>129.0</ele><time>2026-05-03T14:57:46.999Z</time></trkpt><trkpt lat="51.05593625610243" lon="17.021880906603247"><ele>129.0</ele><time>2026-05-03T14:57:47.999Z</time></trkpt><trkpt lat="51.05586264323289" lon="17.021835705963838"><ele>129.0</ele><time>2026-05-03T14:57:48.999Z</time></trkpt><trkpt lat="51.05578813841077" lon="17.021792017497955"><ele>129.0</ele><time>2026-05-03T14:57:49.999Z</time></trkpt><trkpt lat="51.05571259449228" lon="17.021754004970827"><ele>129.0</ele><time>2026-05-03T14:57:50.999Z</time></trkpt><trkpt lat="51.055638386977314" lon="17.021711882404908"><ele>128.99999999999997</ele><time>2026-05-03T14:57:51.999Z</time></trkpt><trkpt lat="51.05556386005852" lon="17.021669639501535"><ele>129.0</ele><time>2026-05-03T14:57:52.999Z</time></trkpt><trkpt lat="51.055488843271064" lon="17.021629757460587"><ele>129.0</ele><time>2026-05-03T14:57:53.999Z</time></trkpt><trkpt lat="51.055415228680864" lon="17.02158762652169"><ele>129.0</ele><time>2026-05-03T14:57:54.999Z</time></trkpt><trkpt lat="51.055348964370154" lon="17.021551189016353"><ele>129.0</ele><time>2026-05-03T14:57:55.999Z</time></trkpt><trkpt lat="51.055281965230996" lon="17.02151492441858"><ele>128.99999999999997</ele><time>2026-05-03T14:57:56.999Z</time></trkpt><trkpt lat="51.05521452547038" lon="17.02148117422268"><ele>129.0</ele><time>2026-05-03T14:57:57.999Z</time></trkpt><trkpt lat="51.05514424768208" lon="17.021440744792894"><ele>129.0</ele><time>2026-05-03T14:57:58.999Z</time></trkpt><trkpt lat="51.0550698465751" lon="17.0214026918482"><ele>129.0</ele><time>2026-05-03T14:57:59.999Z</time></trkpt><trkpt lat="51.0549941931034" lon="17.02136243121637"><ele>129.0</ele><time>2026-05-03T14:58:00.999Z</time></trkpt><trkpt lat="51.054916768234825" lon="17.021322349353554"><ele>129.0</ele><time>2026-05-03T14:58:01.999Z</time></trkpt><trkpt lat="51.05483923301804" lon="17.021279923315273"><ele>129.0</ele><time>2026-05-03T14:58:02.999Z</time></trkpt><trkpt lat="51.05476200425706" lon="17.021232021686142"><ele>129.0</ele><time>2026-05-03T14:58:03.999Z</time></trkpt><trkpt lat="51.05468558838219" lon="17.021180926637253"><ele>129.16666666666666</ele><time>2026-05-03T14:58:04.999Z</time></trkpt><trkpt lat="51.05461005134425" lon="17.02112980057344"><ele>129.33333333333334</ele><time>2026-05-03T14:58:05.999Z</time></trkpt><trkpt lat="51.054536555948424" lon="17.021073731993777"><ele>129.5</ele><time>2026-05-03T14:58:06.999Z</time></trkpt><trkpt lat="51.05446523227673" lon="17.02101299844889"><ele>129.66666666666669</ele><time>2026-05-03T14:58:07.999Z</time></trkpt><trkpt lat="51.05439182033507" lon="17.02095535666403"><ele>129.83333333333334</ele><time>2026-05-03T14:58:08.999Z</time></trkpt><trkpt lat="51.0543208574472" lon="17.020900447610906"><ele>130.0</ele><time>2026-05-03T14:58:09.999Z</time></trkpt><trkpt lat="51.05425016634903" lon="17.020842617638532"><ele>129.83333333333334</ele><time>2026-05-03T14:58:10.999Z</time></trkpt><trkpt lat="51.05418068875108" lon="17.020782776299797"><ele>129.66666666666669</ele><time>2026-05-03T14:58:11.999Z</time></trkpt><trkpt lat="51.054111134005844" lon="17.020727129255867"><ele>129.5</ele><time>2026-05-03T14:58:12.999Z</time></trkpt><trkpt lat="51.05404204037321" lon="17.02066696481831"><ele>129.33333333333334</ele><time>2026-05-03T14:58:13.999Z</time></trkpt><trkpt lat="51.053974914534066" lon="17.020610722701"><ele>129.16666666666666</ele><time>2026-05-03T14:58:14.999Z</time></trkpt><trkpt lat="51.053905506512734" lon="17.020554106612312"><ele>129.0</ele><time>2026-05-03T14:58:15.999Z</time></trkpt><trkpt lat="51.05383772631774" lon="17.020500526954482"><ele>129.0</ele><time>2026-05-03T14:58:16.999Z</time></trkpt><trkpt lat="51.053767851099785" lon="17.020446599231594"><ele>129.0</ele><time>2026-05-03T14:58:17.999Z</time></trkpt><trkpt lat="51.053698605050286" lon="17.020393700378047"><ele>129.0</ele><time>2026-05-03T14:58:18.999Z</time></trkpt><trkpt lat="51.05362921281673" lon="17.020342263228113"><ele>129.0</ele><time>2026-05-03T14:58:19.999Z</time></trkpt><trkpt lat="51.0535613444066" lon="17.02028314369792"><ele>129.0</ele><time>2026-05-03T14:58:20.999Z</time></trkpt><trkpt lat="51.05349294305995" lon="17.020226487424"><ele>129.0</ele><time>2026-05-03T14:58:21.999Z</time></trkpt><trkpt lat="51.05342437029497" lon="17.020167183842897"><ele>129.0</ele><time>2026-05-03T14:58:22.999Z</time></trkpt><trkpt lat="51.05335735791193" lon="17.020107767709945"><ele>129.0</ele><time>2026-05-03T14:58:23.999Z</time></trkpt><trkpt lat="51.05328803940896" lon="17.020049657254983"><ele>129.0</ele><time>2026-05-03T14:58:24.999Z</time></trkpt><trkpt lat="51.05321997875452" lon="17.019992453200373"><ele>129.0</ele><time>2026-05-03T14:58:25.999Z</time></trkpt><trkpt lat="51.0531516610937" lon="17.019935550771642"><ele>129.0</ele><time>2026-05-03T14:58:26.999Z</time></trkpt><trkpt lat="51.053081600829785" lon="17.01988181940677"><ele>129.0</ele><time>2026-05-03T14:58:27.999Z</time></trkpt><trkpt lat="51.05301064645576" lon="17.019827074394517"><ele>128.66666666666666</ele><time>2026-05-03T14:58:29Z</time></trkpt><trkpt lat="51.05294071345091" lon="17.019769177506127"><ele>128.33333333333334</ele><time>2026-05-03T14:58:30Z</time></trkpt><trkpt lat="51.052872624087776" lon="17.019708871264328"><ele>128.0</ele><time>2026-05-03T14:58:31Z</time></trkpt><trkpt lat="51.05280110981968" lon="17.019653131844606"><ele>127.66666666666667</ele><time>2026-05-03T14:58:32Z</time></trkpt><trkpt lat="51.052731712873424" lon="17.019599539411384"><ele>127.33333333333334</ele><time>2026-05-03T14:58:33Z</time></trkpt><trkpt lat="51.05266101430281" lon="17.01954425286496"><ele>127.0</ele><time>2026-05-03T14:58:34Z</time></trkpt><trkpt lat="51.05259039286743" lon="17.019488557236162"><ele>127.00000000000001</ele><time>2026-05-03T14:58:35Z</time></trkpt><trkpt lat="51.052519847100285" lon="17.019435779376153"><ele>127.0</ele><time>2026-05-03T14:58:36Z</time></trkpt><trkpt lat="51.052451851824344" lon="17.01937829187191"><ele>127.0</ele><time>2026-05-03T14:58:37Z</time></trkpt><trkpt lat="51.05238488741338" lon="17.019322148364804"><ele>127.0</ele><time>2026-05-03T14:58:38Z</time></trkpt><trkpt lat="51.05231613722299" lon="17.019263396188723"><ele>127.00000000000001</ele><time>2026-05-03T14:58:39Z</time></trkpt><trkpt lat="51.05224719599153" lon="17.019209941118866"><ele>127.0</ele><time>2026-05-03T14:58:40Z</time></trkpt><trkpt lat="51.05217772705967" lon="17.019156856341297"><ele>127.00000000000001</ele><time>2026-05-03T14:58:41Z</time></trkpt><trkpt lat="51.0521093243652" lon="17.01910382133737"><ele>127.0</ele><time>2026-05-03T14:58:42Z</time></trkpt><trkpt lat="51.05203944875903" lon="17.019048617380857"><ele>127.0</ele><time>2026-05-03T14:58:43Z</time></trkpt><trkpt lat="51.051969508526334" lon="17.018996606798748"><ele>127.0</ele><time>2026-05-03T14:58:44Z</time></trkpt><trkpt lat="51.05189674998163" lon="17.018951072175586"><ele>127.00000000000001</ele><time>2026-05-03T14:58:45Z</time></trkpt><trkpt lat="51.05182267637675" lon="17.018906071292157"><ele>127.0</ele><time>2026-05-03T14:58:46Z</time></trkpt><trkpt lat="51.05174779754171" lon="17.018861362983014"><ele>127.00000000000001</ele><time>2026-05-03T14:58:47Z</time></trkpt><trkpt lat="51.05167533135923" lon="17.018817252519213"><ele>127.0</ele><time>2026-05-03T14:58:48Z</time></trkpt><trkpt lat="51.051599694748504" lon="17.018780825572943"><ele>127.0</ele><time>2026-05-03T14:58:49Z</time></trkpt><trkpt lat="51.05152447312868" lon="17.01875202588488"><ele>127.0</ele><time>2026-05-03T14:58:50Z</time></trkpt><trkpt lat="51.05145052018675" lon="17.018723958266158"><ele>127.00000000000001</ele><time>2026-05-03T14:58:51Z</time></trkpt><trkpt lat="51.05137727796126" lon="17.01869041682695"><ele>127.0</ele><time>2026-05-03T14:58:52Z</time></trkpt><trkpt lat="51.051304123074296" lon="17.018663847833423"><ele>127.0</ele><time>2026-05-03T14:58:53Z</time></trkpt><trkpt lat="51.05123179476067" lon="17.01863944574825"><ele>127.0</ele><time>2026-05-03T14:58:54Z</time></trkpt><trkpt lat="51.051160952856" lon="17.01861464490363"><ele>127.0</ele><time>2026-05-03T14:58:55Z</time></trkpt><trkpt lat="51.051091165049314" lon="17.01858589356774"><ele>127.0</ele><time>2026-05-03T14:58:56Z</time></trkpt><trkpt lat="51.051020609102665" lon="17.018555419655847"><ele>127.0</ele><time>2026-05-03T14:58:57Z</time></trkpt><trkpt lat="51.05095129539912" lon="17.018522186412778"><ele>127.0</ele><time>2026-05-03T14:58:58Z</time></trkpt><trkpt lat="51.05088145931827" lon="17.018491685497697"><ele>127.0</ele><time>2026-05-03T14:58:59Z</time></trkpt><trkpt lat="51.05081235935069" lon="17.018452485426568"><ele>127.00000000000001</ele><time>2026-05-03T14:59:00Z</time></trkpt><trkpt lat="51.05074282365276" lon="17.018411418599882"><ele>127.0</ele><time>2026-05-03T14:59:01Z</time></trkpt><trkpt lat="51.05067294726199" lon="17.01836924432334"><ele>127.0</ele><time>2026-05-03T14:59:02Z</time></trkpt><trkpt lat="51.05060178152737" lon="17.01832632772976"><ele>127.0</ele><time>2026-05-03T14:59:03Z</time></trkpt><trkpt lat="51.050531296997775" lon="17.018276032561687"><ele>127.00000000000001</ele><time>2026-05-03T14:59:04Z</time></trkpt><trkpt lat="51.05046296520162" lon="17.018224098813242"><ele>127.0</ele><time>2026-05-03T14:59:05Z</time></trkpt><trkpt lat="51.05039005586458" lon="17.01818004299909"><ele>127.00000000000001</ele><time>2026-05-03T14:59:06Z</time></trkpt><trkpt lat="51.05031882136025" lon="17.018132744122298"><ele>127.0</ele><time>2026-05-03T14:59:07Z</time></trkpt><trkpt lat="51.05024781106511" lon="17.018083139231198"><ele>127.0</ele><time>2026-05-03T14:59:08Z</time></trkpt><trkpt lat="51.05018073170941" lon="17.01802379798264"><ele>127.0</ele><time>2026-05-03T14:59:09Z</time></trkpt><trkpt lat="51.05011143174761" lon="17.017973325139003"><ele>127.00000000000001</ele><time>2026-05-03T14:59:10Z</time></trkpt><trkpt lat="51.05004213891714" lon="17.017923848391153"><ele>127.0</ele><time>2026-05-03T14:59:11Z</time></trkpt><trkpt lat="51.04997422482606" lon="17.017870424674747"><ele>127.0</ele><time>2026-05-03T14:59:12Z</time></trkpt><trkpt lat="51.04990666639981" lon="17.017816217480352"><ele>127.0</ele><time>2026-05-03T14:59:13Z</time></trkpt><trkpt lat="51.04983997713222" lon="17.01776161129805"><ele>127.0</ele><time>2026-05-03T14:59:14Z</time></trkpt><trkpt lat="51.04977305770291" lon="17.017707681935384"><ele>127.0</ele><time>2026-05-03T14:59:15Z</time></trkpt><trkpt lat="51.049705095582645" lon="17.017658779610073"><ele>127.0</ele><time>2026-05-03T14:59:16Z</time></trkpt><trkpt lat="51.04963791707613" lon="17.017611421355472"><ele>127.0</ele><time>2026-05-03T14:59:17Z</time></trkpt><trkpt lat="51.0495703393461" lon="17.01756368469143"><ele>127.0</ele><time>2026-05-03T14:59:18Z</time></trkpt><trkpt lat="51.049503806454744" lon="17.017513898450062"><ele>126.85714285714286</ele><time>2026-05-03T14:59:19Z</time></trkpt><trkpt lat="51.04944013168906" lon="17.017456803159117"><ele>126.71428571428571</ele><time>2026-05-03T14:59:20Z</time></trkpt><trkpt lat="51.04937542416622" lon="17.017401662310835"><ele>126.57142857142857</ele><time>2026-05-03T14:59:21Z</time></trkpt><trkpt lat="51.049309392876026" lon="17.017355943234396"><ele>126.42857142857143</ele><time>2026-05-03T14:59:22Z</time></trkpt><trkpt lat="51.04924405539068" lon="17.017305489394882"><ele>126.28571428571428</ele><time>2026-05-03T14:59:23Z</time></trkpt><trkpt lat="51.049179328938614" lon="17.017258292436722"><ele>126.14285714285714</ele><time>2026-05-03T14:59:24Z</time></trkpt><trkpt lat="51.04911598135414" lon="17.017206980935892"><ele>126.0</ele><time>2026-05-03T14:59:25Z</time></trkpt><trkpt lat="51.04905091223959" lon="17.017160569970923"><ele>126.0</ele><time>2026-05-03T14:59:26Z</time></trkpt><trkpt lat="51.048986326574365" lon="17.01710803333811"><ele>126.0</ele><time>2026-05-03T14:59:27Z</time></trkpt><trkpt lat="51.04892244807029" lon="17.017055857291624"><ele>126.0</ele><time>2026-05-03T14:59:28Z</time></trkpt><trkpt lat="51.048857493247056" lon="17.017002975805415"><ele>126.0</ele><time>2026-05-03T14:59:28.999Z</time></trkpt><trkpt lat="51.048794484766645" lon="17.016949578492262"><ele>126.0</ele><time>2026-05-03T14:59:29.999Z</time></trkpt><trkpt lat="51.0487326539935" lon="17.01689388911102"><ele>126.0</ele><time>2026-05-03T14:59:30.999Z</time></trkpt><trkpt lat="51.04866972105375" lon="17.016844065051387"><ele>126.0</ele><time>2026-05-03T14:59:31.999Z</time></trkpt><trkpt lat="51.048609351053145" lon="17.016786724290746"><ele>126.0</ele><time>2026-05-03T14:59:32.999Z</time></trkpt><trkpt lat="51.048548494838755" lon="17.016725585546094"><ele>126.0</ele><time>2026-05-03T14:59:33.999Z</time></trkpt><trkpt lat="51.04848855072425" lon="17.016671640011804"><ele>126.0</ele><time>2026-05-03T14:59:34.999Z</time></trkpt><trkpt lat="51.04842832318808" lon="17.016611552971863"><ele>126.0</ele><time>2026-05-03T14:59:35.999Z</time></trkpt><trkpt lat="51.0483700338065" lon="17.01654892793374"><ele>126.0</ele><time>2026-05-03T14:59:36.999Z</time></trkpt><trkpt lat="51.048310179063435" lon="17.016485495533235"><ele>126.0</ele><time>2026-05-03T14:59:37.999Z</time></trkpt><trkpt lat="51.048249900962226" lon="17.016429511411626"><ele>126.0</ele><time>2026-05-03T14:59:38.999Z</time></trkpt><trkpt lat="51.04818920428604" lon="17.01637425618563"><ele>126.0</ele><time>2026-05-03T14:59:39.999Z</time></trkpt><trkpt lat="51.0481289462972" lon="17.01631765853613"><ele>126.0</ele><time>2026-05-03T14:59:40.999Z</time></trkpt><trkpt lat="51.048069228183685" lon="17.01625829692523"><ele>126.0</ele><time>2026-05-03T14:59:41.999Z</time></trkpt><trkpt lat="51.048007057151395" lon="17.01620337432281"><ele>126.0</ele><time>2026-05-03T14:59:42.999Z</time></trkpt><trkpt lat="51.04794535963515" lon="17.016146389069707"><ele>126.0</ele><time>2026-05-03T14:59:43.999Z</time></trkpt><trkpt lat="51.0478850319032" lon="17.016088872443195"><ele>126.0</ele><time>2026-05-03T14:59:44.999Z</time></trkpt><trkpt lat="51.047824436254196" lon="17.016034385178518"><ele>126.0</ele><time>2026-05-03T14:59:45.999Z</time></trkpt><trkpt lat="51.047762249339236" lon="17.015978624435895"><ele>126.0</ele><time>2026-05-03T14:59:46.999Z</time></trkpt><trkpt lat="51.04769943357791" lon="17.01591726163958"><ele>126.0</ele><time>2026-05-03T14:59:47.999Z</time></trkpt><trkpt lat="51.04763802084837" lon="17.01585689046295"><ele>126.0</ele><time>2026-05-03T14:59:48.999Z</time></trkpt><trkpt lat="51.047574158678714" lon="17.01579825203404"><ele>126.0</ele><time>2026-05-03T14:59:49.999Z</time></trkpt><trkpt lat="51.047512017022584" lon="17.015739155458093"><ele>126.0</ele><time>2026-05-03T14:59:50.999Z</time></trkpt><trkpt lat="51.04744802838144" lon="17.015679552207544"><ele>126.0</ele><time>2026-05-03T14:59:51.999Z</time></trkpt><trkpt lat="51.0473857355937" lon="17.015623084683483"><ele>126.0</ele><time>2026-05-03T14:59:52.999Z</time></trkpt><trkpt lat="51.0473215067274" lon="17.015565989447545"><ele>126.28571428571428</ele><time>2026-05-03T14:59:53.999Z</time></trkpt><trkpt lat="51.04725771737789" lon="17.015514850889982"><ele>126.57142857142857</ele><time>2026-05-03T14:59:54.999Z</time></trkpt><trkpt lat="51.047193237067894" lon="17.01547137161556"><ele>126.85714285714286</ele><time>2026-05-03T14:59:55.999Z</time></trkpt><trkpt lat="51.04712774567899" lon="17.015423447886636"><ele>127.14285714285714</ele><time>2026-05-03T14:59:56.999Z</time></trkpt><trkpt lat="51.047066632218396" lon="17.0153716758811"><ele>127.42857142857142</ele><time>2026-05-03T14:59:57.999Z</time></trkpt><trkpt lat="51.04700245167261" lon="17.01533012404964"><ele>127.71428571428571</ele><time>2026-05-03T14:59:58.999Z</time></trkpt><trkpt lat="51.04693790685918" lon="17.015291146317857"><ele>128.0</ele><time>2026-05-03T14:59:59.999Z</time></trkpt><trkpt lat="51.04686976531776" lon="17.015255084040124"><ele>128.0</ele><time>2026-05-03T15:00:00.999Z</time></trkpt><trkpt lat="51.04680756566483" lon="17.01521269192116"><ele>127.99999999999999</ele><time>2026-05-03T15:00:01.999Z</time></trkpt><trkpt lat="51.046745692204865" lon="17.015176825060514"><ele>128.0</ele><time>2026-05-03T15:00:02.999Z</time></trkpt><trkpt lat="51.04668308580091" lon="17.01513440548271"><ele>128.0</ele><time>2026-05-03T15:00:03.999Z</time></trkpt><trkpt lat="51.04662066881823" lon="17.015092787474124"><ele>127.99999999999999</ele><time>2026-05-03T15:00:04.999Z</time></trkpt><trkpt lat="51.046557869730165" lon="17.015054198891587"><ele>128.0</ele><time>2026-05-03T15:00:05.999Z</time></trkpt><trkpt lat="51.04649432074371" lon="17.015018091517618"><ele>128.0</ele><time>2026-05-03T15:00:06.999Z</time></trkpt><trkpt lat="51.0464273765641" lon="17.014989076732668"><ele>128.33333333333331</ele><time>2026-05-03T15:00:07.999Z</time></trkpt><trkpt lat="51.0463631743273" lon="17.01495293039436"><ele>128.66666666666666</ele><time>2026-05-03T15:00:08.999Z</time></trkpt><trkpt lat="51.04630137425855" lon="17.01492227527644"><ele>129.0</ele><time>2026-05-03T15:00:09.999Z</time></trkpt><trkpt lat="51.04623923955007" lon="17.01489055522712"><ele>129.33333333333334</ele><time>2026-05-03T15:00:10.999Z</time></trkpt><trkpt lat="51.04617681040909" lon="17.014858883128646"><ele>129.66666666666669</ele><time>2026-05-03T15:00:11.999Z</time></trkpt><trkpt lat="51.04606010513842" lon="17.014796821300717"><ele>130.0</ele><time>2026-05-03T15:00:13.999Z</time></trkpt><trkpt lat="51.04594869578533" lon="17.014722306631956"><ele>130.0</ele><time>2026-05-03T15:00:15.999Z</time></trkpt><trkpt lat="51.04583796348544" lon="17.014658476577477"><ele>130.0</ele><time>2026-05-03T15:00:17.999Z</time></trkpt><trkpt lat="51.04572095422947" lon="17.014616878912342"><ele>130.0</ele><time>2026-05-03T15:00:19.999Z</time></trkpt><trkpt lat="51.04560763667316" lon="17.014565246898112"><ele>130.0</ele><time>2026-05-03T15:00:21.999Z</time></trkpt><trkpt lat="51.04548941184676" lon="17.014517066518067"><ele>130.75</ele><time>2026-05-03T15:00:23.999Z</time></trkpt><trkpt lat="51.04537618136787" lon="17.014469121437756"><ele>131.5</ele><time>2026-05-03T15:00:25.999Z</time></trkpt><trkpt lat="51.045259504249294" lon="17.01442030663627"><ele>132.25</ele><time>2026-05-03T15:00:27.999Z</time></trkpt><trkpt lat="51.04514050512649" lon="17.014372266486635"><ele>133.0</ele><time>2026-05-03T15:00:29.999Z</time></trkpt><trkpt lat="51.045022062112835" lon="17.014324159759646"><ele>133.5</ele><time>2026-05-03T15:00:31.999Z</time></trkpt><trkpt lat="51.04490523537821" lon="17.014283818423483"><ele>134.0</ele><time>2026-05-03T15:00:34Z</time></trkpt><trkpt lat="51.04478761715196" lon="17.014236605589936"><ele>134.5</ele><time>2026-05-03T15:00:36Z</time></trkpt><trkpt lat="51.04466493142801" lon="17.014218863604075"><ele>135.0</ele><time>2026-05-03T15:00:38Z</time></trkpt><trkpt lat="51.04454570571634" lon="17.014206132044855"><ele>135.0</ele><time>2026-05-03T15:00:40Z</time></trkpt><trkpt lat="51.044423645689136" lon="17.01420459933765"><ele>135.0</ele><time>2026-05-03T15:00:42Z</time></trkpt><trkpt lat="51.04429877355465" lon="17.014192400725417"><ele>135.0</ele><time>2026-05-03T15:00:44Z</time></trkpt><trkpt lat="51.04417497199041" lon="17.014199220324908"><ele>135.0</ele><time>2026-05-03T15:00:46Z</time></trkpt><trkpt lat="51.04411050704856" lon="17.01418924624837"><ele>135.0</ele><time>2026-05-03T15:00:47Z</time></trkpt><trkpt lat="51.04399222309897" lon="17.014191226744135"><ele>135.5</ele><time>2026-05-03T15:00:49Z</time></trkpt><trkpt lat="51.043871604977426" lon="17.01421145308846"><ele>136.0</ele><time>2026-05-03T15:00:51Z</time></trkpt><trkpt lat="51.043754358470274" lon="17.014231785778726"><ele>136.5</ele><time>2026-05-03T15:00:53Z</time></trkpt><trkpt lat="51.04363776680475" lon="17.014267558445766"><ele>137.0</ele><time>2026-05-03T15:00:55Z</time></trkpt><trkpt lat="51.04352118147805" lon="17.01430909192252"><ele>137.0</ele><time>2026-05-03T15:00:57Z</time></trkpt><trkpt lat="51.043402533694334" lon="17.014344859525025"><ele>137.0</ele><time>2026-05-03T15:00:59Z</time></trkpt><trkpt lat="51.04328603553639" lon="17.014374266549613"><ele>137.0</ele><time>2026-05-03T15:01:01Z</time></trkpt><trkpt lat="51.04316847817095" lon="17.014372863687772"><ele>137.0</ele><time>2026-05-03T15:01:03Z</time></trkpt><trkpt lat="51.043049972422665" lon="17.01438955430119"><ele>136.75</ele><time>2026-05-03T15:01:05Z</time></trkpt><trkpt lat="51.042931529564065" lon="17.014390883672505"><ele>136.5</ele><time>2026-05-03T15:01:07Z</time></trkpt><trkpt lat="51.04281175349704" lon="17.014389497831452"><ele>136.25</ele><time>2026-05-03T15:01:09Z</time></trkpt><trkpt lat="51.04269234678392" lon="17.01438996731369"><ele>136.0</ele><time>2026-05-03T15:01:11Z</time></trkpt><trkpt lat="51.042569149531055" lon="17.014388206831317"><ele>136.2</ele><time>2026-05-03T15:01:13Z</time></trkpt><trkpt lat="51.04244808559662" lon="17.01438916413162"><ele>136.39999999999998</ele><time>2026-05-03T15:01:15Z</time></trkpt><trkpt lat="51.0423261311449" lon="17.01438748870738"><ele>136.6</ele><time>2026-05-03T15:01:17Z</time></trkpt><trkpt lat="51.04220245908053" lon="17.01438940874433"><ele>136.79999999999998</ele><time>2026-05-03T15:01:19Z</time></trkpt><trkpt lat="51.04213546313159" lon="17.014393170105524"><ele>137.0</ele><time>2026-05-03T15:01:20Z</time></trkpt><trkpt lat="51.04201670829231" lon="17.014390593723647"><ele>137.00000000000003</ele><time>2026-05-03T15:01:22Z</time></trkpt><trkpt lat="51.041952490919925" lon="17.01439446845697"><ele>137.0</ele><time>2026-05-03T15:01:23Z</time></trkpt><trkpt lat="51.04188737070386" lon="17.014394528337327"><ele>137.0</ele><time>2026-05-03T15:01:24Z</time></trkpt><trkpt lat="51.04181980560443" lon="17.014396693714378"><ele>137.0</ele><time>2026-05-03T15:01:25Z</time></trkpt><trkpt lat="51.04175069580902" lon="17.014393240336112"><ele>137.0</ele><time>2026-05-03T15:01:26Z</time></trkpt><trkpt lat="51.04168146126968" lon="17.014394227363425"><ele>137.00000000000003</ele><time>2026-05-03T15:01:26.999Z</time></trkpt><trkpt lat="51.04161289990943" lon="17.014394238195436"><ele>137.0</ele><time>2026-05-03T15:01:27.999Z</time></trkpt><trkpt lat="51.04154575835803" lon="17.014390971115787"><ele>136.57142857142858</ele><time>2026-05-03T15:01:28.999Z</time></trkpt><trkpt lat="51.041477746617595" lon="17.014394449098887"><ele>136.14285714285714</ele><time>2026-05-03T15:01:29.999Z</time></trkpt><trkpt lat="51.04140671973012" lon="17.014397491696606"><ele>135.71428571428572</ele><time>2026-05-03T15:01:30.999Z</time></trkpt><trkpt lat="51.04133557379303" lon="17.014399748232194"><ele>135.28571428571428</ele><time>2026-05-03T15:01:31.999Z</time></trkpt><trkpt lat="51.04126292919668" lon="17.014399858553563"><ele>134.85714285714286</ele><time>2026-05-03T15:01:32.999Z</time></trkpt><trkpt lat="51.041189122556624" lon="17.01440170918228"><ele>134.42857142857144</ele><time>2026-05-03T15:01:33.999Z</time></trkpt><trkpt lat="51.04111510238435" lon="17.0143975900496"><ele>134.0</ele><time>2026-05-03T15:01:34.999Z</time></trkpt><trkpt lat="51.04104614752771" lon="17.014399265381545"><ele>134.0</ele><time>2026-05-03T15:01:35.999Z</time></trkpt><trkpt lat="51.04097136047616" lon="17.01440070100961"><ele>134.0</ele><time>2026-05-03T15:01:36.999Z</time></trkpt><trkpt lat="51.04089986435857" lon="17.014397139900634"><ele>134.0</ele><time>2026-05-03T15:01:37.999Z</time></trkpt><trkpt lat="51.04082825930003" lon="17.014402432883898"><ele>134.0</ele><time>2026-05-03T15:01:38.999Z</time></trkpt><trkpt lat="51.0407572100686" lon="17.014405555270635"><ele>134.0</ele><time>2026-05-03T15:01:39.999Z</time></trkpt><trkpt lat="51.04068600975193" lon="17.01440377291395"><ele>134.0</ele><time>2026-05-03T15:01:40.999Z</time></trkpt><trkpt lat="51.04061206527908" lon="17.01439768120271"><ele>134.0</ele><time>2026-05-03T15:01:41.999Z</time></trkpt><trkpt lat="51.04053591695326" lon="17.01440347018869"><ele>133.33333333333331</ele><time>2026-05-03T15:01:42.999Z</time></trkpt><trkpt lat="51.04045919666262" lon="17.014406146707017"><ele>132.66666666666666</ele><time>2026-05-03T15:01:43.999Z</time></trkpt><trkpt lat="51.04038622118936" lon="17.01440945090378"><ele>132.0</ele><time>2026-05-03T15:01:44.999Z</time></trkpt><trkpt lat="51.040307657181394" lon="17.014412151319203"><ele>131.33333333333334</ele><time>2026-05-03T15:01:45.999Z</time></trkpt><trkpt lat="51.04022963306266" lon="17.014410861580803"><ele>130.66666666666669</ele><time>2026-05-03T15:01:46.999Z</time></trkpt><trkpt lat="51.040150654212" lon="17.014407568710155"><ele>130.0</ele><time>2026-05-03T15:01:47.999Z</time></trkpt><trkpt lat="51.04007181058289" lon="17.01440506893064"><ele>130.0</ele><time>2026-05-03T15:01:48.999Z</time></trkpt><trkpt lat="51.03999224308298" lon="17.01439539244849"><ele>130.0</ele><time>2026-05-03T15:01:49.999Z</time></trkpt><trkpt lat="51.03991408360973" lon="17.014380317672533"><ele>130.0</ele><time>2026-05-03T15:01:50.999Z</time></trkpt><trkpt lat="51.039837914451056" lon="17.014356086575763"><ele>130.0</ele><time>2026-05-03T15:01:51.999Z</time></trkpt><trkpt lat="51.03976097607374" lon="17.014328431415386"><ele>130.0</ele><time>2026-05-03T15:01:52.999Z</time></trkpt><trkpt lat="51.03968454142496" lon="17.014299624415568"><ele>130.0</ele><time>2026-05-03T15:01:53.999Z</time></trkpt><trkpt lat="51.039608780247875" lon="17.0142674258504"><ele>129.66666666666669</ele><time>2026-05-03T15:01:54.999Z</time></trkpt><trkpt lat="51.039532158567276" lon="17.014236439200225"><ele>129.33333333333334</ele><time>2026-05-03T15:01:55.999Z</time></trkpt><trkpt lat="51.03945575713745" lon="17.014207126341372"><ele>129.0</ele><time>2026-05-03T15:01:56.999Z</time></trkpt><trkpt lat="51.03938297011428" lon="17.014178505631087"><ele>128.66666666666666</ele><time>2026-05-03T15:01:57.999Z</time></trkpt><trkpt lat="51.039307750358326" lon="17.014146228198484"><ele>128.33333333333331</ele><time>2026-05-03T15:01:58.999Z</time></trkpt><trkpt lat="51.039233121321686" lon="17.014119129310874"><ele>128.0</ele><time>2026-05-03T15:01:59.999Z</time></trkpt><trkpt lat="51.039157822985985" lon="17.014089503500003"><ele>127.33333333333333</ele><time>2026-05-03T15:02:00.999Z</time></trkpt><trkpt lat="51.039081296799466" lon="17.014058199844555"><ele>126.66666666666666</ele><time>2026-05-03T15:02:01.999Z</time></trkpt><trkpt lat="51.03900378097025" lon="17.014028823049124"><ele>126.0</ele><time>2026-05-03T15:02:02.999Z</time></trkpt><trkpt lat="51.038926443722254" lon="17.0139968243784"><ele>125.33333333333334</ele><time>2026-05-03T15:02:03.999Z</time></trkpt><trkpt lat="51.038847506542304" lon="17.01396534497323"><ele>124.66666666666667</ele><time>2026-05-03T15:02:04.999Z</time></trkpt><trkpt lat="51.03876750737458" lon="17.01393100836648"><ele>124.0</ele><time>2026-05-03T15:02:05.999Z</time></trkpt><trkpt lat="51.03868629825089" lon="17.013898460447578"><ele>124.00000000000001</ele><time>2026-05-03T15:02:06.999Z</time></trkpt><trkpt lat="51.03860359739038" lon="17.01386531166681"><ele>124.0</ele><time>2026-05-03T15:02:07.999Z</time></trkpt><trkpt lat="51.03852118840925" lon="17.0138332020696"><ele>124.0</ele><time>2026-05-03T15:02:08.999Z</time></trkpt><trkpt lat="51.038437425116996" lon="17.01379944730554"><ele>124.0</ele><time>2026-05-03T15:02:09.999Z</time></trkpt><trkpt lat="51.03835331908467" lon="17.013766047736986"><ele>124.00000000000001</ele><time>2026-05-03T15:02:10.999Z</time></trkpt><trkpt lat="51.038268881107435" lon="17.013730049469377"><ele>124.0</ele><time>2026-05-03T15:02:11.999Z</time></trkpt><trkpt lat="51.03818271734872" lon="17.013693589315576"><ele>124.66666666666667</ele><time>2026-05-03T15:02:12.999Z</time></trkpt><trkpt lat="51.038098298913155" lon="17.01366381216538"><ele>125.33333333333334</ele><time>2026-05-03T15:02:13.999Z</time></trkpt><trkpt lat="51.03801576179403" lon="17.013630679995405"><ele>126.0</ele><time>2026-05-03T15:02:14.999Z</time></trkpt><trkpt lat="51.03793316899621" lon="17.01359460343484"><ele>126.66666666666666</ele><time>2026-05-03T15:02:15.999Z</time></trkpt><trkpt lat="51.03785038418002" lon="17.013560708197147"><ele>127.33333333333333</ele><time>2026-05-03T15:02:16.999Z</time></trkpt><trkpt lat="51.03776778210162" lon="17.01352818168555"><ele>128.0</ele><time>2026-05-03T15:02:17.999Z</time></trkpt><trkpt lat="51.03768428972009" lon="17.013497419655152"><ele>127.99999999999999</ele><time>2026-05-03T15:02:18.999Z</time></trkpt><trkpt lat="51.0376018211911" lon="17.013465075329222"><ele>128.0</ele><time>2026-05-03T15:02:19.999Z</time></trkpt><trkpt lat="51.03752011053908" lon="17.013433220785874"><ele>128.0</ele><time>2026-05-03T15:02:20.999Z</time></trkpt><trkpt lat="51.03743913315696" lon="17.013396953750327"><ele>128.0</ele><time>2026-05-03T15:02:21.999Z</time></trkpt><trkpt lat="51.03735794564707" lon="17.01336324386802"><ele>127.99999999999999</ele><time>2026-05-03T15:02:22.999Z</time></trkpt><trkpt lat="51.037279749498175" lon="17.013328311226754"><ele>128.0</ele><time>2026-05-03T15:02:23.999Z</time></trkpt><trkpt lat="51.037203174723324" lon="17.01328960730294"><ele>127.99999999999999</ele><time>2026-05-03T15:02:24.999Z</time></trkpt><trkpt lat="51.037120326009735" lon="17.013260113090368"><ele>128.0</ele><time>2026-05-03T15:02:25.999Z</time></trkpt><trkpt lat="51.03703738664199" lon="17.01323343412486"><ele>128.0</ele><time>2026-05-03T15:02:26.999Z</time></trkpt><trkpt lat="51.036957578664804" lon="17.0132042592301"><ele>128.0</ele><time>2026-05-03T15:02:27.999Z</time></trkpt><trkpt lat="51.036878294953176" lon="17.01316945569082"><ele>127.99999999999999</ele><time>2026-05-03T15:02:28.999Z</time></trkpt><trkpt lat="51.036799330767664" lon="17.013139875314923"><ele>128.0</ele><time>2026-05-03T15:02:29.999Z</time></trkpt><trkpt lat="51.03672182843952" lon="17.01311284778488"><ele>127.99999999999999</ele><time>2026-05-03T15:02:30.999Z</time></trkpt><trkpt lat="51.03664466366048" lon="17.013080519165243"><ele>128.0</ele><time>2026-05-03T15:02:31.999Z</time></trkpt><trkpt lat="51.03656878574439" lon="17.013047767934378"><ele>128.0</ele><time>2026-05-03T15:02:32.999Z</time></trkpt><trkpt lat="51.03649335127526" lon="17.01301960974628"><ele>128.0</ele><time>2026-05-03T15:02:33.999Z</time></trkpt><trkpt lat="51.03641708543043" lon="17.012986659873135"><ele>127.99999999999999</ele><time>2026-05-03T15:02:34.999Z</time></trkpt><trkpt lat="51.036343040538355" lon="17.012953579721177"><ele>128.0</ele><time>2026-05-03T15:02:35.999Z</time></trkpt><trkpt lat="51.03626899197731" lon="17.012922352221093"><ele>127.99999999999999</ele><time>2026-05-03T15:02:36.999Z</time></trkpt><trkpt lat="51.03619531094574" lon="17.01289538726577"><ele>128.0</ele><time>2026-05-03T15:02:37.999Z</time></trkpt><trkpt lat="51.03612211827758" lon="17.012862929781853"><ele>128.0</ele><time>2026-05-03T15:02:38.999Z</time></trkpt><trkpt lat="51.036049732264864" lon="17.01283277318983"><ele>128.0</ele><time>2026-05-03T15:02:40Z</time></trkpt><trkpt lat="51.03597606957602" lon="17.012803487704243"><ele>127.99999999999999</ele><time>2026-05-03T15:02:41Z</time></trkpt><trkpt lat="51.035903535697464" lon="17.01277083796026"><ele>128.0</ele><time>2026-05-03T15:02:42Z</time></trkpt><trkpt lat="51.035829363916264" lon="17.012741328345747"><ele>127.83333333333333</ele><time>2026-05-03T15:02:43Z</time></trkpt><trkpt lat="51.03575672432432" lon="17.012716610538632"><ele>127.66666666666666</ele><time>2026-05-03T15:02:44Z</time></trkpt><trkpt lat="51.03568362600927" lon="17.012687506713622"><ele>127.5</ele><time>2026-05-03T15:02:45Z</time></trkpt><trkpt lat="51.03561113366893" lon="17.012658793791065"><ele>127.33333333333334</ele><time>2026-05-03T15:02:46Z</time></trkpt><trkpt lat="51.035537175343684" lon="17.012628061210535"><ele>127.16666666666667</ele><time>2026-05-03T15:02:47Z</time></trkpt><trkpt lat="51.035463563483745" lon="17.012598231725885"><ele>127.0</ele><time>2026-05-03T15:02:48Z</time></trkpt><trkpt lat="51.03539193951938" lon="17.012566589423376"><ele>127.00000000000001</ele><time>2026-05-03T15:02:49Z</time></trkpt><trkpt lat="51.03531771141664" lon="17.012540113489184"><ele>127.0</ele><time>2026-05-03T15:02:50Z</time></trkpt><trkpt lat="51.03524406584848" lon="17.012510257719523"><ele>127.0</ele><time>2026-05-03T15:02:51Z</time></trkpt><trkpt lat="51.035171178373965" lon="17.01247481626519"><ele>127.0</ele><time>2026-05-03T15:02:52Z</time></trkpt><trkpt lat="51.0350992784437" lon="17.01244214409578"><ele>127.00000000000001</ele><time>2026-05-03T15:02:53Z</time></trkpt><trkpt lat="51.03502647057657" lon="17.01241071003745"><ele>127.0</ele><time>2026-05-03T15:02:54Z</time></trkpt><trkpt lat="51.03495459526305" lon="17.0123765870854"><ele>127.14285714285714</ele><time>2026-05-03T15:02:55Z</time></trkpt><trkpt lat="51.034883365066854" lon="17.012341385760823"><ele>127.28571428571428</ele><time>2026-05-03T15:02:56Z</time></trkpt><trkpt lat="51.03481123183008" lon="17.012308549597403"><ele>127.42857142857142</ele><time>2026-05-03T15:02:57Z</time></trkpt><trkpt lat="51.03474141399968" lon="17.012274838509562"><ele>127.57142857142857</ele><time>2026-05-03T15:02:58Z</time></trkpt><trkpt lat="51.0346746211692" lon="17.012240141726547"><ele>127.7142857142857</ele><time>2026-05-03T15:02:59Z</time></trkpt><trkpt lat="51.03461168036188" lon="17.01220548899489"><ele>127.85714285714285</ele><time>2026-05-03T15:03:00Z</time></trkpt><trkpt lat="51.03455001118171" lon="17.012157550478324"><ele>128.0</ele><time>2026-05-03T15:03:01Z</time></trkpt><trkpt lat="51.03449091240218" lon="17.01211072667445"><ele>128.0</ele><time>2026-05-03T15:03:02Z</time></trkpt><trkpt lat="51.03443040497143" lon="17.012068948613088"><ele>127.99999999999999</ele><time>2026-05-03T15:03:03Z</time></trkpt><trkpt lat="51.03437085940317" lon="17.012027256975596"><ele>128.0</ele><time>2026-05-03T15:03:04Z</time></trkpt><trkpt lat="51.034312092250495" lon="17.011982436770204"><ele>128.0</ele><time>2026-05-03T15:03:05Z</time></trkpt><trkpt lat="51.03425021150991" lon="17.011941720741568"><ele>127.99999999999999</ele><time>2026-05-03T15:03:06Z</time></trkpt><trkpt lat="51.03418776273459" lon="17.011894080493843"><ele>128.0</ele><time>2026-05-03T15:03:07Z</time></trkpt><trkpt lat="51.03412727308782" lon="17.011850051879662"><ele>128.0</ele><time>2026-05-03T15:03:08Z</time></trkpt><trkpt lat="51.03406586878212" lon="17.01180652874696"><ele>128.0</ele><time>2026-05-03T15:03:09Z</time></trkpt><trkpt lat="51.034004745046644" lon="17.01176405238861"><ele>127.99999999999999</ele><time>2026-05-03T15:03:10Z</time></trkpt><trkpt lat="51.033947119874775" lon="17.011720348414137"><ele>128.0</ele><time>2026-05-03T15:03:11Z</time></trkpt><trkpt lat="51.03388639199374" lon="17.011676981061697"><ele>128.0</ele><time>2026-05-03T15:03:12Z</time></trkpt><trkpt lat="51.033825273673905" lon="17.011634879745223"><ele>127.99999999999999</ele><time>2026-05-03T15:03:13Z</time></trkpt><trkpt lat="51.03376723083456" lon="17.011588796236953"><ele>128.0</ele><time>2026-05-03T15:03:14Z</time></trkpt><trkpt lat="51.03371011786837" lon="17.01153778453145"><ele>128.0</ele><time>2026-05-03T15:03:15Z</time></trkpt><trkpt lat="51.033652102057985" lon="17.011490457049856"><ele>128.16666666666666</ele><time>2026-05-03T15:03:16Z</time></trkpt><trkpt lat="51.03359158156065" lon="17.011438952510236"><ele>128.33333333333331</ele><time>2026-05-03T15:03:17Z</time></trkpt><trkpt lat="51.033535436016116" lon="17.011386261877554"><ele>128.5</ele><time>2026-05-03T15:03:18Z</time></trkpt><trkpt lat="51.03342564118707" lon="17.011289621748936"><ele>128.66666666666666</ele><time>2026-05-03T15:03:20Z</time></trkpt><trkpt lat="51.033369995067275" lon="17.011241459625783"><ele>128.83333333333334</ele><time>2026-05-03T15:03:21Z</time></trkpt><trkpt lat="51.03326373542608" lon="17.011137164379473"><ele>129.0</ele><time>2026-05-03T15:03:23Z</time></trkpt><trkpt lat="51.03315714472185" lon="17.011038820810846"><ele>129.2</ele><time>2026-05-03T15:03:25Z</time></trkpt><trkpt lat="51.03305551947749" lon="17.01093130370906"><ele>129.4</ele><time>2026-05-03T15:03:27Z</time></trkpt><trkpt lat="51.03295065382526" lon="17.01082688162432"><ele>129.6</ele><time>2026-05-03T15:03:29Z</time></trkpt><trkpt lat="51.03284295683797" lon="17.010721719033178"><ele>129.8</ele><time>2026-05-03T15:03:31Z</time></trkpt><trkpt lat="51.03278791936811" lon="17.01067024579038"><ele>130.0</ele><time>2026-05-03T15:03:32Z</time></trkpt><trkpt lat="51.03268088534866" lon="17.01056566949454"><ele>130.0</ele><time>2026-05-03T15:03:33.999Z</time></trkpt><trkpt lat="51.03262780752309" lon="17.010511264196722"><ele>130.0</ele><time>2026-05-03T15:03:34.999Z</time></trkpt><trkpt lat="51.032573512867735" lon="17.010456306455"><ele>130.0</ele><time>2026-05-03T15:03:35.999Z</time></trkpt><trkpt lat="51.03246645854412" lon="17.010353844634043"><ele>130.0</ele><time>2026-05-03T15:03:37.999Z</time></trkpt><trkpt lat="51.032410243689" lon="17.01030215207491"><ele>130.0</ele><time>2026-05-03T15:03:38.999Z</time></trkpt><trkpt lat="51.032302090993056" lon="17.010200412424922"><ele>130.0</ele><time>2026-05-03T15:03:40.999Z</time></trkpt><trkpt lat="51.03219716610152" lon="17.01009982328546"><ele>130.16666666666669</ele><time>2026-05-03T15:03:42.999Z</time></trkpt><trkpt lat="51.032090039798476" lon="17.009999253402913"><ele>130.33333333333334</ele><time>2026-05-03T15:03:44.999Z</time></trkpt><trkpt lat="51.032036974342695" lon="17.00994299871074"><ele>130.5</ele><time>2026-05-03T15:03:45.999Z</time></trkpt><trkpt lat="51.03192838763717" lon="17.009841790246302"><ele>130.66666666666666</ele><time>2026-05-03T15:03:47.999Z</time></trkpt><trkpt lat="51.03187336769811" lon="17.009788847452604"><ele>130.83333333333331</ele><time>2026-05-03T15:03:48.999Z</time></trkpt><trkpt lat="51.031818593764186" lon="17.00973544808786"><ele>131.0</ele><time>2026-05-03T15:03:49.999Z</time></trkpt><trkpt lat="51.031765694585516" lon="17.009679633456614"><ele>131.2</ele><time>2026-05-03T15:03:50.999Z</time></trkpt><trkpt lat="51.0316591391349" lon="17.00956715086293"><ele>131.39999999999998</ele><time>2026-05-03T15:03:52.999Z</time></trkpt><trkpt lat="51.03160313305421" lon="17.009518255226414"><ele>131.6</ele><time>2026-05-03T15:03:53.999Z</time></trkpt><trkpt lat="51.03154948597578" lon="17.00946413135733"><ele>131.79999999999998</ele><time>2026-05-03T15:03:54.999Z</time></trkpt><trkpt lat="51.03144315736406" lon="17.009361424122563"><ele>132.0</ele><time>2026-05-03T15:03:56.999Z</time></trkpt><trkpt lat="51.031334726277656" lon="17.009264174415065"><ele>132.0</ele><time>2026-05-03T15:03:58.999Z</time></trkpt><trkpt lat="51.03122641281046" lon="17.009170110037143"><ele>132.0</ele><time>2026-05-03T15:04:00.999Z</time></trkpt><trkpt lat="51.03116779737168" lon="17.00912704587073"><ele>132.0</ele><time>2026-05-03T15:04:01.999Z</time></trkpt><trkpt lat="51.031108949429594" lon="17.00908240613111"><ele>132.0</ele><time>2026-05-03T15:04:02.999Z</time></trkpt><trkpt lat="51.03104948014267" lon="17.00903269013351"><ele>132.0</ele><time>2026-05-03T15:04:03.999Z</time></trkpt><trkpt lat="51.03098581184734" lon="17.008992605611677"><ele>132.0</ele><time>2026-05-03T15:04:04.999Z</time></trkpt><trkpt lat="51.03092075382061" lon="17.008955194045182"><ele>132.28571428571428</ele><time>2026-05-03T15:04:05.999Z</time></trkpt><trkpt lat="51.03085745558269" lon="17.008913202612597"><ele>132.57142857142858</ele><time>2026-05-03T15:04:06.999Z</time></trkpt><trkpt lat="51.03079404014792" lon="17.00886623481723"><ele>132.85714285714286</ele><time>2026-05-03T15:04:07.999Z</time></trkpt><trkpt lat="51.03072803050438" lon="17.00882058137022"><ele>133.14285714285714</ele><time>2026-05-03T15:04:08.999Z</time></trkpt><trkpt lat="51.03065995014179" lon="17.008773913394805"><ele>133.42857142857142</ele><time>2026-05-03T15:04:09.999Z</time></trkpt><trkpt lat="51.03059357798298" lon="17.008728657800656"><ele>133.71428571428572</ele><time>2026-05-03T15:04:10.999Z</time></trkpt><trkpt lat="51.03052622058461" lon="17.008681832881493"><ele>134.0</ele><time>2026-05-03T15:04:11.999Z</time></trkpt><trkpt lat="51.03045797588763" lon="17.008636714039383"><ele>134.33333333333331</ele><time>2026-05-03T15:04:12.999Z</time></trkpt><trkpt lat="51.03038894908221" lon="17.008591156107435"><ele>134.66666666666666</ele><time>2026-05-03T15:04:13.999Z</time></trkpt><trkpt lat="51.030315998719914" lon="17.008544586529496"><ele>135.0</ele><time>2026-05-03T15:04:14.999Z</time></trkpt><trkpt lat="51.03024550454537" lon="17.008491893650216"><ele>135.33333333333334</ele><time>2026-05-03T15:04:15.999Z</time></trkpt><trkpt lat="51.03017170138874" lon="17.00844371235275"><ele>135.66666666666669</ele><time>2026-05-03T15:04:16.999Z</time></trkpt><trkpt lat="51.03009713198682" lon="17.00840523332063"><ele>136.0</ele><time>2026-05-03T15:04:17.999Z</time></trkpt><trkpt lat="51.03002052557643" lon="17.00835875947887"><ele>136.0</ele><time>2026-05-03T15:04:18.999Z</time></trkpt><trkpt lat="51.02994275462933" lon="17.00831847931728"><ele>136.0</ele><time>2026-05-03T15:04:19.999Z</time></trkpt><trkpt lat="51.029868591451596" lon="17.008269120888283"><ele>136.0</ele><time>2026-05-03T15:04:20.999Z</time></trkpt><trkpt lat="51.02979258239469" lon="17.00821738248552"><ele>136.0</ele><time>2026-05-03T15:04:21.999Z</time></trkpt><trkpt lat="51.02971682581553" lon="17.008162700794056"><ele>136.0</ele><time>2026-05-03T15:04:22.999Z</time></trkpt><trkpt lat="51.02964016389328" lon="17.008111714475486"><ele>136.0</ele><time>2026-05-03T15:04:23.999Z</time></trkpt><trkpt lat="51.02956183657068" lon="17.008062638393834"><ele>136.0</ele><time>2026-05-03T15:04:24.999Z</time></trkpt><trkpt lat="51.029484818533945" lon="17.00801221653686"><ele>136.0</ele><time>2026-05-03T15:04:25.999Z</time></trkpt><trkpt lat="51.029407633295165" lon="17.007952641854093"><ele>136.0</ele><time>2026-05-03T15:04:26.999Z</time></trkpt><trkpt lat="51.029336023229156" lon="17.00789733538596"><ele>136.0</ele><time>2026-05-03T15:04:27.999Z</time></trkpt><trkpt lat="51.029260140588626" lon="17.007856313346423"><ele>136.0</ele><time>2026-05-03T15:04:28.999Z</time></trkpt><trkpt lat="51.02917981829318" lon="17.0078145590783"><ele>136.0</ele><time>2026-05-03T15:04:29.999Z</time></trkpt><trkpt lat="51.029099551033845" lon="17.00776694184993"><ele>136.16666666666669</ele><time>2026-05-03T15:04:30.999Z</time></trkpt><trkpt lat="51.02902452591408" lon="17.007715991232196"><ele>136.33333333333334</ele><time>2026-05-03T15:04:31.999Z</time></trkpt><trkpt lat="51.028945663711625" lon="17.007669873523888"><ele>136.5</ele><time>2026-05-03T15:04:32.999Z</time></trkpt><trkpt lat="51.028866812004935" lon="17.00762121898985"><ele>136.66666666666666</ele><time>2026-05-03T15:04:33.999Z</time></trkpt><trkpt lat="51.0287888067662" lon="17.00756938288756"><ele>136.83333333333331</ele><time>2026-05-03T15:04:34.999Z</time></trkpt><trkpt lat="51.02871227586463" lon="17.007513636943646"><ele>137.0</ele><time>2026-05-03T15:04:35.999Z</time></trkpt><trkpt lat="51.02863267769348" lon="17.00747820713266"><ele>137.0</ele><time>2026-05-03T15:04:36.999Z</time></trkpt><trkpt lat="51.0285553458678" lon="17.00743427475558"><ele>137.0</ele><time>2026-05-03T15:04:37.999Z</time></trkpt><trkpt lat="51.02848392940785" lon="17.00737180693104"><ele>137.0</ele><time>2026-05-03T15:04:38.999Z</time></trkpt><trkpt lat="51.02841328202628" lon="17.007311712020766"><ele>137.0</ele><time>2026-05-03T15:04:39.999Z</time></trkpt><trkpt lat="51.02833178359489" lon="17.007277904661972"><ele>137.0</ele><time>2026-05-03T15:04:40.999Z</time></trkpt><trkpt lat="51.02825445536848" lon="17.007230163962024"><ele>137.0</ele><time>2026-05-03T15:04:41.999Z</time></trkpt><trkpt lat="51.02818181453019" lon="17.00717770324531"><ele>137.16666666666666</ele><time>2026-05-03T15:04:42.999Z</time></trkpt><trkpt lat="51.02810779069269" lon="17.007118302862516"><ele>137.33333333333331</ele><time>2026-05-03T15:04:43.999Z</time></trkpt><trkpt lat="51.02803392028261" lon="17.007064777405326"><ele>137.5</ele><time>2026-05-03T15:04:44.999Z</time></trkpt><trkpt lat="51.027961963179365" lon="17.007009487244723"><ele>137.66666666666666</ele><time>2026-05-03T15:04:46Z</time></trkpt><trkpt lat="51.02788738065503" lon="17.006960270628806"><ele>137.83333333333334</ele><time>2026-05-03T15:04:47Z</time></trkpt><trkpt lat="51.027814187323806" lon="17.006913888396582"><ele>138.0</ele><time>2026-05-03T15:04:48Z</time></trkpt><trkpt lat="51.027741818619006" lon="17.00686613113998"><ele>138.0</ele><time>2026-05-03T15:04:49Z</time></trkpt><trkpt lat="51.02766847943505" lon="17.00681793907266"><ele>138.0</ele><time>2026-05-03T15:04:50Z</time></trkpt><trkpt lat="51.027596315585754" lon="17.006768920247783"><ele>138.0</ele><time>2026-05-03T15:04:51Z</time></trkpt><trkpt lat="51.027523023339484" lon="17.00672362285285"><ele>138.0</ele><time>2026-05-03T15:04:52Z</time></trkpt><trkpt lat="51.02745056166358" lon="17.006677866243518"><ele>138.0</ele><time>2026-05-03T15:04:53Z</time></trkpt><trkpt lat="51.02737829095473" lon="17.006632072117306"><ele>138.0</ele><time>2026-05-03T15:04:54Z</time></trkpt><trkpt lat="51.02730392486936" lon="17.00658455511864"><ele>137.66666666666666</ele><time>2026-05-03T15:04:55Z</time></trkpt><trkpt lat="51.02723096847446" lon="17.006538781353054"><ele>137.33333333333334</ele><time>2026-05-03T15:04:56Z</time></trkpt><trkpt lat="51.02715718210783" lon="17.006492152122313"><ele>137.0</ele><time>2026-05-03T15:04:57Z</time></trkpt><trkpt lat="51.027082874600474" lon="17.006442966116843"><ele>136.66666666666669</ele><time>2026-05-03T15:04:58Z</time></trkpt><trkpt lat="51.02700842267854" lon="17.006397268748692"><ele>136.33333333333334</ele><time>2026-05-03T15:04:59Z</time></trkpt><trkpt lat="51.026935591386184" lon="17.00635514639914"><ele>136.0</ele><time>2026-05-03T15:05:00Z</time></trkpt><trkpt lat="51.02686617589408" lon="17.00630681008388"><ele>136.0</ele><time>2026-05-03T15:05:01Z</time></trkpt><trkpt lat="51.02679638287231" lon="17.00626054862951"><ele>136.0</ele><time>2026-05-03T15:05:02Z</time></trkpt><trkpt lat="51.026726811804096" lon="17.00620953654577"><ele>136.0</ele><time>2026-05-03T15:05:03Z</time></trkpt><trkpt lat="51.026656756890326" lon="17.006160930909992"><ele>136.0</ele><time>2026-05-03T15:05:04Z</time></trkpt><trkpt lat="51.02658384359529" lon="17.00611706367606"><ele>136.0</ele><time>2026-05-03T15:05:05Z</time></trkpt><trkpt lat="51.02650937664517" lon="17.0060790257175"><ele>136.0</ele><time>2026-05-03T15:05:06Z</time></trkpt><trkpt lat="51.026434082653445" lon="17.00604148402427"><ele>135.66666666666669</ele><time>2026-05-03T15:05:07Z</time></trkpt><trkpt lat="51.02636054377132" lon="17.006007385032444"><ele>135.33333333333334</ele><time>2026-05-03T15:05:08Z</time></trkpt><trkpt lat="51.0262876855032" lon="17.005971251941528"><ele>135.0</ele><time>2026-05-03T15:05:09Z</time></trkpt><trkpt lat="51.02621536447579" lon="17.005938961144544"><ele>134.66666666666666</ele><time>2026-05-03T15:05:10Z</time></trkpt><trkpt lat="51.026143075215366" lon="17.00590597907107"><ele>134.33333333333331</ele><time>2026-05-03T15:05:11Z</time></trkpt><trkpt lat="51.026072365152345" lon="17.00587171070121"><ele>134.0</ele><time>2026-05-03T15:05:12Z</time></trkpt><trkpt lat="51.02600114632068" lon="17.005841513560878"><ele>133.71428571428572</ele><time>2026-05-03T15:05:13Z</time></trkpt><trkpt lat="51.02593212320745" lon="17.005811675428454"><ele>133.42857142857142</ele><time>2026-05-03T15:05:14Z</time></trkpt><trkpt lat="51.025862267672075" lon="17.005781395934957"><ele>133.14285714285714</ele><time>2026-05-03T15:05:15Z</time></trkpt><trkpt lat="51.02579290346079" lon="17.005750040326443"><ele>132.85714285714286</ele><time>2026-05-03T15:05:16Z</time></trkpt><trkpt lat="51.02572507658996" lon="17.005720566423296"><ele>132.57142857142858</ele><time>2026-05-03T15:05:17Z</time></trkpt><trkpt lat="51.02565598290529" lon="17.005693071443893"><ele>132.28571428571428</ele><time>2026-05-03T15:05:18Z</time></trkpt><trkpt lat="51.02558545223552" lon="17.00566518322268"><ele>132.0</ele><time>2026-05-03T15:05:19Z</time></trkpt><trkpt lat="51.02551704536027" lon="17.00563485094366"><ele>132.0</ele><time>2026-05-03T15:05:20Z</time></trkpt><trkpt lat="51.02544891190425" lon="17.00560506583097"><ele>132.0</ele><time>2026-05-03T15:05:21Z</time></trkpt><trkpt lat="51.02537840501956" lon="17.005578220700563"><ele>132.0</ele><time>2026-05-03T15:05:22Z</time></trkpt><trkpt lat="51.025309103825" lon="17.005548442457787"><ele>132.0</ele><time>2026-05-03T15:05:23Z</time></trkpt><trkpt lat="51.025241242632724" lon="17.005516915154015"><ele>132.0</ele><time>2026-05-03T15:05:24Z</time></trkpt><trkpt lat="51.025173534515396" lon="17.005486866900263"><ele>132.0</ele><time>2026-05-03T15:05:25Z</time></trkpt><trkpt lat="51.025104496223946" lon="17.005456729709415"><ele>132.0</ele><time>2026-05-03T15:05:26Z</time></trkpt><trkpt lat="51.0250365068524" lon="17.005424498611657"><ele>131.71428571428572</ele><time>2026-05-03T15:05:27Z</time></trkpt><trkpt lat="51.02496948307296" lon="17.005397838589527"><ele>131.42857142857144</ele><time>2026-05-03T15:05:28Z</time></trkpt><trkpt lat="51.02490091594357" lon="17.00536828322245"><ele>131.14285714285717</ele><time>2026-05-03T15:05:29Z</time></trkpt><trkpt lat="51.0248347954146" lon="17.005337017605374"><ele>130.85714285714286</ele><time>2026-05-03T15:05:30Z</time></trkpt><trkpt lat="51.024767389923134" lon="17.00530275711867"><ele>130.57142857142858</ele><time>2026-05-03T15:05:31Z</time></trkpt><trkpt lat="51.0247009972856" lon="17.005272689079415"><ele>130.2857142857143</ele><time>2026-05-03T15:05:32Z</time></trkpt><trkpt lat="51.024631933567804" lon="17.00524339920854"><ele>130.0</ele><time>2026-05-03T15:05:33Z</time></trkpt><trkpt lat="51.02456414607654" lon="17.00521489310566"><ele>130.00000000000003</ele><time>2026-05-03T15:05:34Z</time></trkpt><trkpt lat="51.0244959407505" lon="17.005187746582727"><ele>130.0</ele><time>2026-05-03T15:05:35Z</time></trkpt><trkpt lat="51.02442825399606" lon="17.005160111047065"><ele>130.0</ele><time>2026-05-03T15:05:35.999Z</time></trkpt><trkpt lat="51.02435955138221" lon="17.005127976721727"><ele>130.0</ele><time>2026-05-03T15:05:36.999Z</time></trkpt><trkpt lat="51.02429186576336" lon="17.005097645010547"><ele>130.0</ele><time>2026-05-03T15:05:37.999Z</time></trkpt><trkpt lat="51.02422355743049" lon="17.00506514568461"><ele>130.00000000000003</ele><time>2026-05-03T15:05:38.999Z</time></trkpt><trkpt lat="51.024154421266616" lon="17.005033267530127"><ele>130.0</ele><time>2026-05-03T15:05:39.999Z</time></trkpt><trkpt lat="51.024082913780354" lon="17.00500142044971"><ele>129.16666666666669</ele><time>2026-05-03T15:05:40.999Z</time></trkpt><trkpt lat="51.02400977368382" lon="17.004972432396972"><ele>128.33333333333334</ele><time>2026-05-03T15:05:41.999Z</time></trkpt><trkpt lat="51.02393459248094" lon="17.004939873210706"><ele>127.5</ele><time>2026-05-03T15:05:42.999Z</time></trkpt><trkpt lat="51.02385785241234" lon="17.004907264577316"><ele>126.66666666666666</ele><time>2026-05-03T15:05:43.999Z</time></trkpt><trkpt lat="51.023780048662005" lon="17.004873234472164"><ele>125.83333333333333</ele><time>2026-05-03T15:05:44.999Z</time></trkpt><trkpt lat="51.02369885438729" lon="17.004838705051675"><ele>125.0</ele><time>2026-05-03T15:05:45.999Z</time></trkpt><trkpt lat="51.02361824127285" lon="17.004800854743987"><ele>124.99999999999999</ele><time>2026-05-03T15:05:46.999Z</time></trkpt><trkpt lat="51.02353709715608" lon="17.004760211595126"><ele>125.0</ele><time>2026-05-03T15:05:47.999Z</time></trkpt><trkpt lat="51.023454181636424" lon="17.004729758484018"><ele>125.0</ele><time>2026-05-03T15:05:48.999Z</time></trkpt><trkpt lat="51.02337180212174" lon="17.004691771453526"><ele>125.0</ele><time>2026-05-03T15:05:49.999Z</time></trkpt><trkpt lat="51.023288207031925" lon="17.00465472072757"><ele>124.99999999999999</ele><time>2026-05-03T15:05:50.999Z</time></trkpt><trkpt lat="51.023204590142385" lon="17.00461968126658"><ele>125.0</ele><time>2026-05-03T15:05:51.999Z</time></trkpt><trkpt lat="51.023121112878755" lon="17.0045839206925"><ele>125.16666666666666</ele><time>2026-05-03T15:05:52.999Z</time></trkpt><trkpt lat="51.023037925150625" lon="17.004547041108925"><ele>125.33333333333333</ele><time>2026-05-03T15:05:53.999Z</time></trkpt><trkpt lat="51.02295455959348" lon="17.004510201668662"><ele>125.5</ele><time>2026-05-03T15:05:54.999Z</time></trkpt><trkpt lat="51.02286958140724" lon="17.00447279006194"><ele>125.66666666666666</ele><time>2026-05-03T15:05:55.999Z</time></trkpt><trkpt lat="51.02278632639001" lon="17.004438188124485"><ele>125.83333333333333</ele><time>2026-05-03T15:05:56.999Z</time></trkpt><trkpt lat="51.02270217065552" lon="17.00440367179326"><ele>126.0</ele><time>2026-05-03T15:05:57.999Z</time></trkpt><trkpt lat="51.02261901441349" lon="17.004365327958247"><ele>126.0</ele><time>2026-05-03T15:05:58.999Z</time></trkpt><trkpt lat="51.022536327908014" lon="17.00432689979992"><ele>126.0</ele><time>2026-05-03T15:05:59.999Z</time></trkpt><trkpt lat="51.02245540244371" lon="17.00428258178607"><ele>126.0</ele><time>2026-05-03T15:06:00.999Z</time></trkpt><trkpt lat="51.02237713764655" lon="17.004234627226484"><ele>126.0</ele><time>2026-05-03T15:06:01.999Z</time></trkpt><trkpt lat="51.02230123908114" lon="17.004192810919164"><ele>126.0</ele><time>2026-05-03T15:06:02.999Z</time></trkpt><trkpt lat="51.02222612197879" lon="17.00415330559652"><ele>126.0</ele><time>2026-05-03T15:06:03.999Z</time></trkpt><trkpt lat="51.02215269343986" lon="17.004116238202208"><ele>125.71428571428572</ele><time>2026-05-03T15:06:04.999Z</time></trkpt><trkpt lat="51.0220792813146" lon="17.00408408757305"><ele>125.42857142857143</ele><time>2026-05-03T15:06:05.999Z</time></trkpt><trkpt lat="51.02200786148225" lon="17.00405751607291"><ele>125.14285714285714</ele><time>2026-05-03T15:06:06.999Z</time></trkpt><trkpt lat="51.02193765655862" lon="17.00402672210893"><ele>124.85714285714286</ele><time>2026-05-03T15:06:07.999Z</time></trkpt><trkpt lat="51.021866238639426" lon="17.003993931193726"><ele>124.57142857142858</ele><time>2026-05-03T15:06:08.999Z</time></trkpt><trkpt lat="51.02179626041504" lon="17.003959534135262"><ele>124.28571428571429</ele><time>2026-05-03T15:06:09.999Z</time></trkpt><trkpt lat="51.02172467734541" lon="17.0039275106189"><ele>124.0</ele><time>2026-05-03T15:06:10.999Z</time></trkpt><trkpt lat="51.021653251506834" lon="17.003900921540126"><ele>124.14285714285715</ele><time>2026-05-03T15:06:11.999Z</time></trkpt><trkpt lat="51.021581552373604" lon="17.003874423292253"><ele>124.2857142857143</ele><time>2026-05-03T15:06:12.999Z</time></trkpt><trkpt lat="51.02150900030953" lon="17.003850772009084"><ele>124.42857142857143</ele><time>2026-05-03T15:06:13.999Z</time></trkpt><trkpt lat="51.021434146157" lon="17.003832350778968"><ele>124.57142857142858</ele><time>2026-05-03T15:06:14.999Z</time></trkpt><trkpt lat="51.0213613766671" lon="17.00381168782668"><ele>124.71428571428572</ele><time>2026-05-03T15:06:15.999Z</time></trkpt><trkpt lat="51.021288976781534" lon="17.003784017266984"><ele>124.85714285714286</ele><time>2026-05-03T15:06:16.999Z</time></trkpt><trkpt lat="51.0212170133236" lon="17.003755149454054"><ele>125.0</ele><time>2026-05-03T15:06:17.999Z</time></trkpt><trkpt lat="51.02114467180184" lon="17.00372231831238"><ele>125.0</ele><time>2026-05-03T15:06:18.999Z</time></trkpt><trkpt lat="51.02107314755078" lon="17.003690007190936"><ele>125.0</ele><time>2026-05-03T15:06:19.999Z</time></trkpt><trkpt lat="51.02100045602813" lon="17.003659288819872"><ele>125.0</ele><time>2026-05-03T15:06:20.999Z</time></trkpt><trkpt lat="51.02092966343312" lon="17.00362681076168"><ele>125.0</ele><time>2026-05-03T15:06:21.999Z</time></trkpt><trkpt lat="51.02085844543901" lon="17.00359211732242"><ele>125.0</ele><time>2026-05-03T15:06:22.999Z</time></trkpt><trkpt lat="51.02078591664901" lon="17.003561561306007"><ele>125.0</ele><time>2026-05-03T15:06:23.999Z</time></trkpt><trkpt lat="51.02071227258537" lon="17.003532842861464"><ele>125.0</ele><time>2026-05-03T15:06:24.999Z</time></trkpt><trkpt lat="51.020640506426474" lon="17.00350138521048"><ele>125.0</ele><time>2026-05-03T15:06:25.999Z</time></trkpt><trkpt lat="51.02057060453182" lon="17.003471239195573"><ele>125.0</ele><time>2026-05-03T15:06:26.999Z</time></trkpt><trkpt lat="51.02050209545156" lon="17.00344273671352"><ele>125.0</ele><time>2026-05-03T15:06:27.999Z</time></trkpt><trkpt lat="51.020434282165205" lon="17.003411524486896"><ele>125.0</ele><time>2026-05-03T15:06:28.999Z</time></trkpt><trkpt lat="51.02036709388845" lon="17.00337957125697"><ele>125.0</ele><time>2026-05-03T15:06:29.999Z</time></trkpt><trkpt lat="51.02029897011724" lon="17.00334896457264"><ele>125.0</ele><time>2026-05-03T15:06:30.999Z</time></trkpt><trkpt lat="51.02023047822871" lon="17.003317525548564"><ele>125.0</ele><time>2026-05-03T15:06:31.999Z</time></trkpt><trkpt lat="51.02016048402974" lon="17.003287430898816"><ele>125.0</ele><time>2026-05-03T15:06:32.999Z</time></trkpt><trkpt lat="51.020089568215724" lon="17.003258050211"><ele>125.0</ele><time>2026-05-03T15:06:33.999Z</time></trkpt><trkpt lat="51.02001981065202" lon="17.003228709711937"><ele>125.0</ele><time>2026-05-03T15:06:34.999Z</time></trkpt><trkpt lat="51.01994956944132" lon="17.003198719319283"><ele>125.0</ele><time>2026-05-03T15:06:35.999Z</time></trkpt><trkpt lat="51.01987982635004" lon="17.003166478268884"><ele>125.0</ele><time>2026-05-03T15:06:36.999Z</time></trkpt><trkpt lat="51.01980940804255" lon="17.003135324536338"><ele>125.0</ele><time>2026-05-03T15:06:37.999Z</time></trkpt><trkpt lat="51.019738105753305" lon="17.0031107405324"><ele>125.0</ele><time>2026-05-03T15:06:38.999Z</time></trkpt><trkpt lat="51.019666932346766" lon="17.00308068336772"><ele>124.99999999999999</ele><time>2026-05-03T15:06:39.999Z</time></trkpt><trkpt lat="51.01959520985792" lon="17.00304758220404"><ele>125.0</ele><time>2026-05-03T15:06:40.999Z</time></trkpt><trkpt lat="51.01952467359053" lon="17.003011906064728"><ele>125.0</ele><time>2026-05-03T15:06:41.999Z</time></trkpt><trkpt lat="51.019452860323845" lon="17.002978155570798"><ele>125.0</ele><time>2026-05-03T15:06:42.999Z</time></trkpt><trkpt lat="51.01937943019278" lon="17.00294923218945"><ele>124.99999999999999</ele><time>2026-05-03T15:06:43.999Z</time></trkpt><trkpt lat="51.01930541670949" lon="17.002915501560768"><ele>125.0</ele><time>2026-05-03T15:06:44.999Z</time></trkpt><trkpt lat="51.01923330704944" lon="17.002877938272203"><ele>124.99999999999999</ele><time>2026-05-03T15:06:45.999Z</time></trkpt><trkpt lat="51.01915906186614" lon="17.00284523219071"><ele>125.0</ele><time>2026-05-03T15:06:46.999Z</time></trkpt><trkpt lat="51.01908438284224" lon="17.0028160248906"><ele>125.0</ele><time>2026-05-03T15:06:47.999Z</time></trkpt><trkpt lat="51.01900957779349" lon="17.002788059432625"><ele>125.0</ele><time>2026-05-03T15:06:48.999Z</time></trkpt><trkpt lat="51.01893440259529" lon="17.002757249347397"><ele>124.99999999999999</ele><time>2026-05-03T15:06:49.999Z</time></trkpt><trkpt lat="51.018858555510114" lon="17.00272485468467"><ele>125.0</ele><time>2026-05-03T15:06:50.999Z</time></trkpt><trkpt lat="51.018784939954635" lon="17.002694743807744"><ele>125.0</ele><time>2026-05-03T15:06:52Z</time></trkpt><trkpt lat="51.01871223089498" lon="17.002660078641096"><ele>125.0</ele><time>2026-05-03T15:06:53Z</time></trkpt><trkpt lat="51.01864146433021" lon="17.002627373278926"><ele>125.0</ele><time>2026-05-03T15:06:54Z</time></trkpt><trkpt lat="51.018571102319996" lon="17.00259796002168"><ele>125.0</ele><time>2026-05-03T15:06:55Z</time></trkpt><trkpt lat="51.018499909281516" lon="17.002567618918917"><ele>125.0</ele><time>2026-05-03T15:06:56Z</time></trkpt><trkpt lat="51.01843073757752" lon="17.002533072558027"><ele>125.0</ele><time>2026-05-03T15:06:57Z</time></trkpt><trkpt lat="51.018361568973184" lon="17.002496833025816"><ele>125.0</ele><time>2026-05-03T15:06:58Z</time></trkpt><trkpt lat="51.0182920061983" lon="17.002468844362383"><ele>125.28571428571428</ele><time>2026-05-03T15:06:59Z</time></trkpt><trkpt lat="51.01822677028885" lon="17.002430325649236"><ele>125.57142857142858</ele><time>2026-05-03T15:07:00Z</time></trkpt><trkpt lat="51.018162598368995" lon="17.002394251297524"><ele>125.85714285714286</ele><time>2026-05-03T15:07:01Z</time></trkpt><trkpt lat="51.01809968631494" lon="17.002357893349128"><ele>126.14285714285714</ele><time>2026-05-03T15:07:02Z</time></trkpt><trkpt lat="51.01803728014458" lon="17.002324173378142"><ele>126.42857142857142</ele><time>2026-05-03T15:07:03Z</time></trkpt><trkpt lat="51.01797697826361" lon="17.002289995089694"><ele>126.71428571428572</ele><time>2026-05-03T15:07:04Z</time></trkpt><trkpt lat="51.017915353681886" lon="17.00226147227722"><ele>127.0</ele><time>2026-05-03T15:07:05Z</time></trkpt><trkpt lat="51.017853601124756" lon="17.00223511160079"><ele>127.0</ele><time>2026-05-03T15:07:06Z</time></trkpt><trkpt lat="51.01778917575336" lon="17.002211175373425"><ele>127.0</ele><time>2026-05-03T15:07:07Z</time></trkpt><trkpt lat="51.017726707298856" lon="17.002180497061655"><ele>127.0</ele><time>2026-05-03T15:07:08Z</time></trkpt><trkpt lat="51.01766226579632" lon="17.002151646160627"><ele>127.0</ele><time>2026-05-03T15:07:09Z</time></trkpt><trkpt lat="51.01759816122325" lon="17.002123570492135"><ele>127.0</ele><time>2026-05-03T15:07:10Z</time></trkpt><trkpt lat="51.01753503363959" lon="17.002093599173886"><ele>127.0</ele><time>2026-05-03T15:07:11Z</time></trkpt><trkpt lat="51.01747249111798" lon="17.002060134124594"><ele>127.0</ele><time>2026-05-03T15:07:12Z</time></trkpt><trkpt lat="51.017409138440165" lon="17.002028527520963"><ele>127.0</ele><time>2026-05-03T15:07:13Z</time></trkpt><trkpt lat="51.0173455015554" lon="17.001999786588442"><ele>127.0</ele><time>2026-05-03T15:07:14Z</time></trkpt><trkpt lat="51.01728043593635" lon="17.00196918439245"><ele>127.0</ele><time>2026-05-03T15:07:15Z</time></trkpt><trkpt lat="51.01721426721854" lon="17.001931964331327"><ele>127.0</ele><time>2026-05-03T15:07:16Z</time></trkpt><trkpt lat="51.017150863279376" lon="17.001893856007584"><ele>127.0</ele><time>2026-05-03T15:07:17Z</time></trkpt><trkpt lat="51.017085670962764" lon="17.001853995010297"><ele>127.0</ele><time>2026-05-03T15:07:18Z</time></trkpt><trkpt lat="51.01702161807919" lon="17.00180736629624"><ele>127.0</ele><time>2026-05-03T15:07:19Z</time></trkpt><trkpt lat="51.01695477315883" lon="17.001763439821598"><ele>127.0</ele><time>2026-05-03T15:07:20Z</time></trkpt><trkpt lat="51.016888902136955" lon="17.00172027013971"><ele>127.0</ele><time>2026-05-03T15:07:21Z</time></trkpt><trkpt lat="51.01682119475463" lon="17.001675952133922"><ele>127.0</ele><time>2026-05-03T15:07:22Z</time></trkpt><trkpt lat="51.01675447171556" lon="17.001629794413837"><ele>127.0</ele><time>2026-05-03T15:07:23Z</time></trkpt><trkpt lat="51.016685215402724" lon="17.001582422653122"><ele>127.0</ele><time>2026-05-03T15:07:24Z</time></trkpt><trkpt lat="51.01661512402658" lon="17.001537956207102"><ele>127.0</ele><time>2026-05-03T15:07:25Z</time></trkpt><trkpt lat="51.01654495797408" lon="17.00149243369544"><ele>127.0</ele><time>2026-05-03T15:07:26Z</time></trkpt><trkpt lat="51.016472575290535" lon="17.001451700681695"><ele>127.00000000000001</ele><time>2026-05-03T15:07:27Z</time></trkpt><trkpt lat="51.01640035997565" lon="17.001411337130072"><ele>127.0</ele><time>2026-05-03T15:07:28Z</time></trkpt><trkpt lat="51.016327855689184" lon="17.001372525777455"><ele>127.0</ele><time>2026-05-03T15:07:29Z</time></trkpt><trkpt lat="51.016253966121184" lon="17.001336879151726"><ele>127.0</ele><time>2026-05-03T15:07:30Z</time></trkpt><trkpt lat="51.01618127361157" lon="17.001302555234048"><ele>127.00000000000001</ele><time>2026-05-03T15:07:31Z</time></trkpt><trkpt lat="51.016109340310415" lon="17.001265050829407"><ele>127.0</ele><time>2026-05-03T15:07:32Z</time></trkpt><trkpt lat="51.016038896567935" lon="17.00122604753143"><ele>127.0</ele><time>2026-05-03T15:07:33Z</time></trkpt><trkpt lat="51.01596881371811" lon="17.001191198644772"><ele>127.0</ele><time>2026-05-03T15:07:34Z</time></trkpt><trkpt lat="51.01589754882575" lon="17.001152340973118"><ele>127.0</ele><time>2026-05-03T15:07:35Z</time></trkpt><trkpt lat="51.01582916462711" lon="17.00111422494093"><ele>127.0</ele><time>2026-05-03T15:07:36Z</time></trkpt><trkpt lat="51.01575205673215" lon="17.001075616920865"><ele>127.0</ele><time>2026-05-03T15:07:37Z</time></trkpt><trkpt lat="51.015689038332376" lon="17.00103350893581"><ele>127.0</ele><time>2026-05-03T15:07:38Z</time></trkpt><trkpt lat="51.01562382094397" lon="17.0009848303558"><ele>127.0</ele><time>2026-05-03T15:07:39Z</time></trkpt><trkpt lat="51.015559756772" lon="17.000937086258062"><ele>127.0</ele><time>2026-05-03T15:07:39.999Z</time></trkpt><trkpt lat="51.015495633622976" lon="17.00088824871171"><ele>127.0</ele><time>2026-05-03T15:07:40.999Z</time></trkpt><trkpt lat="51.01543318353241" lon="17.000837335245443"><ele>127.0</ele><time>2026-05-03T15:07:41.999Z</time></trkpt><trkpt lat="51.01537391215441" lon="17.00077816795608"><ele>127.0</ele><time>2026-05-03T15:07:42.999Z</time></trkpt><trkpt lat="51.015312655440056" lon="17.000717346196588"><ele>127.0</ele><time>2026-05-03T15:07:43.999Z</time></trkpt><trkpt lat="51.01525284773782" lon="17.00065668625697"><ele>127.0</ele><time>2026-05-03T15:07:44.999Z</time></trkpt><trkpt lat="51.015193220127166" lon="17.00059468907946"><ele>127.0</ele><time>2026-05-03T15:07:45.999Z</time></trkpt><trkpt lat="51.01513148684185" lon="17.000534455513126"><ele>127.0</ele><time>2026-05-03T15:07:46.999Z</time></trkpt><trkpt lat="51.015071639108854" lon="17.000469883291068"><ele>127.0</ele><time>2026-05-03T15:07:47.999Z</time></trkpt><trkpt lat="51.01501193632028" lon="17.000405117267313"><ele>127.0</ele><time>2026-05-03T15:07:48.999Z</time></trkpt><trkpt lat="51.014953520369616" lon="17.000341478924813"><ele>127.0</ele><time>2026-05-03T15:07:49.999Z</time></trkpt><trkpt lat="51.01489126142475" lon="17.000283548308772"><ele>127.0</ele><time>2026-05-03T15:07:50.999Z</time></trkpt><trkpt lat="51.014831499717836" lon="17.000224182460506"><ele>127.0</ele><time>2026-05-03T15:07:51.999Z</time></trkpt><trkpt lat="51.01477339748106" lon="17.00015864812852"><ele>127.0</ele><time>2026-05-03T15:07:52.999Z</time></trkpt><trkpt lat="51.01471662623222" lon="17.000087496177564"><ele>127.28571428571429</ele><time>2026-05-03T15:07:53.999Z</time></trkpt><trkpt lat="51.01465666614275" lon="17.00001884825479"><ele>127.57142857142856</ele><time>2026-05-03T15:07:54.999Z</time></trkpt><trkpt lat="51.01459674392901" lon="16.999951359758764"><ele>127.85714285714285</ele><time>2026-05-03T15:07:55.999Z</time></trkpt><trkpt lat="51.01453648214518" lon="16.999881549091075"><ele>128.14285714285714</ele><time>2026-05-03T15:07:56.999Z</time></trkpt><trkpt lat="51.014480211436236" lon="16.99980476012396"><ele>128.42857142857142</ele><time>2026-05-03T15:07:57.999Z</time></trkpt><trkpt lat="51.01443077290092" lon="16.99971767050352"><ele>128.7142857142857</ele><time>2026-05-03T15:07:58.999Z</time></trkpt><trkpt lat="51.014385360173044" lon="16.999622825628702"><ele>129.0</ele><time>2026-05-03T15:07:59.999Z</time></trkpt><trkpt lat="51.014346076825575" lon="16.999522625334027"><ele>128.99999999999997</ele><time>2026-05-03T15:08:00.999Z</time></trkpt><trkpt lat="51.014311355221864" lon="16.999418824274443"><ele>129.0</ele><time>2026-05-03T15:08:01.999Z</time></trkpt><trkpt lat="51.014279814669884" lon="16.999312965387947"><ele>129.0</ele><time>2026-05-03T15:08:02.999Z</time></trkpt><trkpt lat="51.014249569322445" lon="16.999210584184482"><ele>129.0</ele><time>2026-05-03T15:08:03.999Z</time></trkpt><trkpt lat="51.014219853732" lon="16.99910897270232"><ele>129.0</ele><time>2026-05-03T15:08:04.999Z</time></trkpt><trkpt lat="51.01419123368917" lon="16.999010174598553"><ele>128.99999999999997</ele><time>2026-05-03T15:08:05.999Z</time></trkpt><trkpt lat="51.014159499791134" lon="16.998907881786536"><ele>129.0</ele><time>2026-05-03T15:08:06.999Z</time></trkpt><trkpt lat="51.01412758530994" lon="16.998807720421013"><ele>128.99999999999997</ele><time>2026-05-03T15:08:07.999Z</time></trkpt><trkpt lat="51.01409841209246" lon="16.99870917905615"><ele>129.0</ele><time>2026-05-03T15:08:08.999Z</time></trkpt><trkpt lat="51.014070726487226" lon="16.998609327945907"><ele>129.0</ele><time>2026-05-03T15:08:09.999Z</time></trkpt><trkpt lat="51.01404255191989" lon="16.998505953536828"><ele>129.0</ele><time>2026-05-03T15:08:10.999Z</time></trkpt><trkpt lat="51.014009276930786" lon="16.998409433415468"><ele>129.0</ele><time>2026-05-03T15:08:11.999Z</time></trkpt><trkpt lat="51.01397457509784" lon="16.99831778242338"><ele>128.99999999999997</ele><time>2026-05-03T15:08:12.999Z</time></trkpt><trkpt lat="51.01391667409826" lon="16.99824532811162"><ele>129.0</ele><time>2026-05-03T15:08:13.999Z</time></trkpt><trkpt lat="51.013853043909236" lon="16.99819849834679"><ele>128.99999999999997</ele><time>2026-05-03T15:08:14.999Z</time></trkpt><trkpt lat="51.01378364229745" lon="16.998167766233845"><ele>129.0</ele><time>2026-05-03T15:08:15.999Z</time></trkpt><trkpt lat="51.013709946965584" lon="16.99814794565385"><ele>129.0</ele><time>2026-05-03T15:08:16.999Z</time></trkpt><trkpt lat="51.01363641981272" lon="16.99813406112926"><ele>129.0</ele><time>2026-05-03T15:08:17.999Z</time></trkpt><trkpt lat="51.013564161016255" lon="16.99811394579806"><ele>129.0</ele><time>2026-05-03T15:08:18.999Z</time></trkpt><trkpt lat="51.01349115069742" lon="16.998104280957005"><ele>128.99999999999997</ele><time>2026-05-03T15:08:19.999Z</time></trkpt><trkpt lat="51.01341802907187" lon="16.998079285589835"><ele>129.0</ele><time>2026-05-03T15:08:20.999Z</time></trkpt><trkpt lat="51.013346757389904" lon="16.998065749977957"><ele>128.7142857142857</ele><time>2026-05-03T15:08:21.999Z</time></trkpt><trkpt lat="51.01327426384419" lon="16.998048439195667"><ele>128.42857142857142</ele><time>2026-05-03T15:08:22.999Z</time></trkpt><trkpt lat="51.013203365626865" lon="16.99803259805551"><ele>128.14285714285714</ele><time>2026-05-03T15:08:23.999Z</time></trkpt><trkpt lat="51.01313218238469" lon="16.99801781023594"><ele>127.85714285714285</ele><time>2026-05-03T15:08:24.999Z</time></trkpt><trkpt lat="51.0130622807166" lon="16.998003812021025"><ele>127.57142857142856</ele><time>2026-05-03T15:08:25.999Z</time></trkpt><trkpt lat="51.012992489302285" lon="16.997981333027077"><ele>127.28571428571429</ele><time>2026-05-03T15:08:26.999Z</time></trkpt><trkpt lat="51.01292419031607" lon="16.997959188974267"><ele>127.0</ele><time>2026-05-03T15:08:27.999Z</time></trkpt><trkpt lat="51.01285500701273" lon="16.997942297264935"><ele>127.0</ele><time>2026-05-03T15:08:28.999Z</time></trkpt><trkpt lat="51.012785678082274" lon="16.997925926174418"><ele>127.0</ele><time>2026-05-03T15:08:29.999Z</time></trkpt><trkpt lat="51.012717106105235" lon="16.99791187477703"><ele>127.0</ele><time>2026-05-03T15:08:30.999Z</time></trkpt><trkpt lat="51.01264751262089" lon="16.997895642416307"><ele>127.0</ele><time>2026-05-03T15:08:31.999Z</time></trkpt><trkpt lat="51.01257941453864" lon="16.997875450705486"><ele>127.0</ele><time>2026-05-03T15:08:32.999Z</time></trkpt><trkpt lat="51.01251049303915" lon="16.997859644999494"><ele>127.0</ele><time>2026-05-03T15:08:33.999Z</time></trkpt><trkpt lat="51.01244115176612" lon="16.997846744349964"><ele>127.0</ele><time>2026-05-03T15:08:34.999Z</time></trkpt><trkpt lat="51.012371093870186" lon="16.99783456585018"><ele>126.85714285714286</ele><time>2026-05-03T15:08:35.999Z</time></trkpt><trkpt lat="51.01230262922159" lon="16.997821223864744"><ele>126.71428571428571</ele><time>2026-05-03T15:08:36.999Z</time></trkpt><trkpt lat="51.01223267925793" lon="16.99780382304844"><ele>126.57142857142857</ele><time>2026-05-03T15:08:37.999Z</time></trkpt><trkpt lat="51.01216393358781" lon="16.997789448243118"><ele>126.42857142857143</ele><time>2026-05-03T15:08:38.999Z</time></trkpt><trkpt lat="51.012095200288364" lon="16.99777611834017"><ele>126.28571428571428</ele><time>2026-05-03T15:08:39.999Z</time></trkpt><trkpt lat="51.01202734309215" lon="16.997760324692283"><ele>126.14285714285714</ele><time>2026-05-03T15:08:40.999Z</time></trkpt><trkpt lat="51.011957971324584" lon="16.997744367122127"><ele>126.0</ele><time>2026-05-03T15:08:41.999Z</time></trkpt><trkpt lat="51.0118881768765" lon="16.997729110115557"><ele>126.0</ele><time>2026-05-03T15:08:42.999Z</time></trkpt><trkpt lat="51.01181658789732" lon="16.997710736335517"><ele>126.0</ele><time>2026-05-03T15:08:43.999Z</time></trkpt><trkpt lat="51.01174484140326" lon="16.99769713931648"><ele>126.0</ele><time>2026-05-03T15:08:44.999Z</time></trkpt><trkpt lat="51.011671857831125" lon="16.99768824369269"><ele>126.0</ele><time>2026-05-03T15:08:45.999Z</time></trkpt><trkpt lat="51.01159865072745" lon="16.99767270087815"><ele>126.0</ele><time>2026-05-03T15:08:46.999Z</time></trkpt><trkpt lat="51.011524764573934" lon="16.997650008867847"><ele>126.0</ele><time>2026-05-03T15:08:47.999Z</time></trkpt><trkpt lat="51.01145043022959" lon="16.99762642587526"><ele>126.0</ele><time>2026-05-03T15:08:48.999Z</time></trkpt><trkpt lat="51.01137777165588" lon="16.997610668903423"><ele>125.85714285714286</ele><time>2026-05-03T15:08:49.999Z</time></trkpt><trkpt lat="51.01130469209111" lon="16.99759554061484"><ele>125.71428571428572</ele><time>2026-05-03T15:08:50.999Z</time></trkpt><trkpt lat="51.011232196688375" lon="16.99758252750708"><ele>125.57142857142857</ele><time>2026-05-03T15:08:51.999Z</time></trkpt><trkpt lat="51.01115967821231" lon="16.997570233765035"><ele>125.42857142857143</ele><time>2026-05-03T15:08:52.999Z</time></trkpt><trkpt lat="51.011086044391625" lon="16.997556948847677"><ele>125.28571428571429</ele><time>2026-05-03T15:08:53.999Z</time></trkpt><trkpt lat="51.011013423716626" lon="16.997539375059315"><ele>125.14285714285714</ele><time>2026-05-03T15:08:54.999Z</time></trkpt><trkpt lat="51.01094065736376" lon="16.997522063471173"><ele>125.0</ele><time>2026-05-03T15:08:55.999Z</time></trkpt><trkpt lat="51.010867126370655" lon="16.997504902003403"><ele>125.0</ele><time>2026-05-03T15:08:56.999Z</time></trkpt><trkpt lat="51.010793978839686" lon="16.997491103491505"><ele>125.0</ele><time>2026-05-03T15:08:58Z</time></trkpt><trkpt lat="51.010720676222675" lon="16.997476972983087"><ele>125.0</ele><time>2026-05-03T15:08:59Z</time></trkpt><trkpt lat="51.010646431963906" lon="16.997462518396627"><ele>125.0</ele><time>2026-05-03T15:09:00Z</time></trkpt><trkpt lat="51.010573859684165" lon="16.997448031490134"><ele>125.0</ele><time>2026-05-03T15:09:01Z</time></trkpt><trkpt lat="51.010501790818026" lon="16.997434475824573"><ele>125.0</ele><time>2026-05-03T15:09:02Z</time></trkpt><trkpt lat="51.01042963212608" lon="16.997423300598204"><ele>125.0</ele><time>2026-05-03T15:09:03Z</time></trkpt><trkpt lat="51.010358098651245" lon="16.997411996558508"><ele>125.0</ele><time>2026-05-03T15:09:04Z</time></trkpt><trkpt lat="51.01028639450097" lon="16.99740268503512"><ele>125.0</ele><time>2026-05-03T15:09:05Z</time></trkpt><trkpt lat="51.010214638753155" lon="16.9973954617451"><ele>125.0</ele><time>2026-05-03T15:09:06Z</time></trkpt><trkpt lat="51.01014428740306" lon="16.997395171235954"><ele>125.0</ele><time>2026-05-03T15:09:07Z</time></trkpt><trkpt lat="51.01007355408725" lon="16.997402235550382"><ele>125.0</ele><time>2026-05-03T15:09:08Z</time></trkpt><trkpt lat="51.010002447846425" lon="16.997415794165576"><ele>125.0</ele><time>2026-05-03T15:09:09Z</time></trkpt><trkpt lat="51.00993168748375" lon="16.997430307827806"><ele>125.0</ele><time>2026-05-03T15:09:10Z</time></trkpt><trkpt lat="51.009862223102125" lon="16.997444882716355"><ele>125.14285714285714</ele><time>2026-05-03T15:09:11Z</time></trkpt><trkpt lat="51.00979082928974" lon="16.997458062690303"><ele>125.28571428571429</ele><time>2026-05-03T15:09:12Z</time></trkpt><trkpt lat="51.0097184896219" lon="16.997471825803352"><ele>125.42857142857143</ele><time>2026-05-03T15:09:13Z</time></trkpt><trkpt lat="51.00964525267759" lon="16.997485613850902"><ele>125.57142857142857</ele><time>2026-05-03T15:09:14Z</time></trkpt><trkpt lat="51.00957405808225" lon="16.99750080316827"><ele>125.71428571428572</ele><time>2026-05-03T15:09:15Z</time></trkpt><trkpt lat="51.00950347434483" lon="16.99751656748054"><ele>125.85714285714286</ele><time>2026-05-03T15:09:16Z</time></trkpt><trkpt lat="51.009433286471506" lon="16.99752683188514"><ele>126.0</ele><time>2026-05-03T15:09:17Z</time></trkpt><trkpt lat="51.00936369204906" lon="16.997536285449613"><ele>125.71428571428572</ele><time>2026-05-03T15:09:18Z</time></trkpt><trkpt lat="51.00929295888708" lon="16.99755018359741"><ele>125.42857142857143</ele><time>2026-05-03T15:09:19Z</time></trkpt><trkpt lat="51.00922513234564" lon="16.997566175992915"><ele>125.14285714285714</ele><time>2026-05-03T15:09:20Z</time></trkpt><trkpt lat="51.00915627087604" lon="16.997582314375244"><ele>124.85714285714286</ele><time>2026-05-03T15:09:21Z</time></trkpt><trkpt lat="51.00908875193917" lon="16.997597666355357"><ele>124.57142857142858</ele><time>2026-05-03T15:09:22Z</time></trkpt><trkpt lat="51.00902115448617" lon="16.997611788183335"><ele>124.28571428571429</ele><time>2026-05-03T15:09:23Z</time></trkpt><trkpt lat="51.008953798305406" lon="16.997628256674275"><ele>124.0</ele><time>2026-05-03T15:09:24Z</time></trkpt><trkpt lat="51.00888597475648" lon="16.997637597654624"><ele>124.0</ele><time>2026-05-03T15:09:25Z</time></trkpt><trkpt lat="51.00881989355589" lon="16.99764959712061"><ele>124.00000000000001</ele><time>2026-05-03T15:09:26Z</time></trkpt><trkpt lat="51.008753831552305" lon="16.99766476581507"><ele>124.0</ele><time>2026-05-03T15:09:27Z</time></trkpt><trkpt lat="51.00868598406468" lon="16.997680850533815"><ele>124.0</ele><time>2026-05-03T15:09:28Z</time></trkpt><trkpt lat="51.00861924613208" lon="16.997696219462178"><ele>124.00000000000001</ele><time>2026-05-03T15:09:29Z</time></trkpt><trkpt lat="51.00855127339115" lon="16.997708047397737"><ele>124.0</ele><time>2026-05-03T15:09:30Z</time></trkpt><trkpt lat="51.00848398200715" lon="16.997720481747567"><ele>124.0</ele><time>2026-05-03T15:09:31Z</time></trkpt><trkpt lat="51.00841657282261" lon="16.997732791014474"><ele>124.0</ele><time>2026-05-03T15:09:32Z</time></trkpt><trkpt lat="51.0083479973188" lon="16.997745235069683"><ele>124.00000000000001</ele><time>2026-05-03T15:09:33Z</time></trkpt><trkpt lat="51.00828026120575" lon="16.997753099824738"><ele>124.0</ele><time>2026-05-03T15:09:34Z</time></trkpt><trkpt lat="51.0082130891734" lon="16.9977679316009"><ele>124.0</ele><time>2026-05-03T15:09:35Z</time></trkpt><trkpt lat="51.00814585583067" lon="16.997782699495147"><ele>124.00000000000001</ele><time>2026-05-03T15:09:36Z</time></trkpt><trkpt lat="51.00807979641607" lon="16.997794944067234"><ele>124.0</ele><time>2026-05-03T15:09:37Z</time></trkpt><trkpt lat="51.00801324080355" lon="16.997807805014308"><ele>124.0</ele><time>2026-05-03T15:09:38Z</time></trkpt><trkpt lat="51.00794682736347" lon="16.997823874515326"><ele>124.14285714285715</ele><time>2026-05-03T15:09:39Z</time></trkpt><trkpt lat="51.00787995651385" lon="16.997840042533404"><ele>124.2857142857143</ele><time>2026-05-03T15:09:40Z</time></trkpt><trkpt lat="51.00781302629005" lon="16.997853234381896"><ele>124.42857142857143</ele><time>2026-05-03T15:09:41Z</time></trkpt><trkpt lat="51.00774631662964" lon="16.997864325915057"><ele>124.57142857142858</ele><time>2026-05-03T15:09:42Z</time></trkpt><trkpt lat="51.00768025081845" lon="16.997878801266484"><ele>124.71428571428572</ele><time>2026-05-03T15:09:42.999Z</time></trkpt><trkpt lat="51.00761574992979" lon="16.997895392795893"><ele>124.85714285714286</ele><time>2026-05-03T15:09:43.999Z</time></trkpt><trkpt lat="51.00754936743241" lon="16.99791148879278"><ele>125.0</ele><time>2026-05-03T15:09:44.999Z</time></trkpt><trkpt lat="51.00748511644091" lon="16.997918762131388"><ele>125.14285714285714</ele><time>2026-05-03T15:09:45.999Z</time></trkpt><trkpt lat="51.00741936892544" lon="16.997928257941272"><ele>125.28571428571429</ele><time>2026-05-03T15:09:46.999Z</time></trkpt><trkpt lat="51.00735490708374" lon="16.997942357139895"><ele>125.42857142857143</ele><time>2026-05-03T15:09:47.999Z</time></trkpt><trkpt lat="51.00728954256938" lon="16.99795512598523"><ele>125.57142857142857</ele><time>2026-05-03T15:09:48.999Z</time></trkpt><trkpt lat="51.00722389711799" lon="16.997964417741926"><ele>125.71428571428572</ele><time>2026-05-03T15:09:49.999Z</time></trkpt><trkpt lat="51.007156513362496" lon="16.99797751849007"><ele>125.85714285714286</ele><time>2026-05-03T15:09:50.999Z</time></trkpt><trkpt lat="51.007089484299144" lon="16.99799514103982"><ele>126.0</ele><time>2026-05-03T15:09:51.999Z</time></trkpt><trkpt lat="51.00702313394689" lon="16.99801095916873"><ele>126.0</ele><time>2026-05-03T15:09:52.999Z</time></trkpt><trkpt lat="51.006954632101156" lon="16.99802066414609"><ele>126.0</ele><time>2026-05-03T15:09:53.999Z</time></trkpt><trkpt lat="51.00688701762481" lon="16.99803167235318"><ele>126.0</ele><time>2026-05-03T15:09:54.999Z</time></trkpt><trkpt lat="51.00681968873076" lon="16.998048573749607"><ele>126.0</ele><time>2026-05-03T15:09:55.999Z</time></trkpt><trkpt lat="51.00675304129291" lon="16.998063818437156"><ele>126.0</ele><time>2026-05-03T15:09:56.999Z</time></trkpt><trkpt lat="51.00668582303562" lon="16.998076109951175"><ele>126.0</ele><time>2026-05-03T15:09:57.999Z</time></trkpt><trkpt lat="51.00661912349243" lon="16.99809279435606"><ele>126.0</ele><time>2026-05-03T15:09:58.999Z</time></trkpt><trkpt lat="51.0065519003683" lon="16.998114080583928"><ele>126.57142857142857</ele><time>2026-05-03T15:09:59.999Z</time></trkpt><trkpt lat="51.00648555557264" lon="16.99814024736688"><ele>127.14285714285714</ele><time>2026-05-03T15:10:00.999Z</time></trkpt><trkpt lat="51.006420046391554" lon="16.998170605465326"><ele>127.71428571428572</ele><time>2026-05-03T15:10:01.999Z</time></trkpt><trkpt lat="51.00635335356632" lon="16.998205652408437"><ele>128.28571428571428</ele><time>2026-05-03T15:10:02.999Z</time></trkpt><trkpt lat="51.00628846691856" lon="16.998246172345834"><ele>128.85714285714286</ele><time>2026-05-03T15:10:03.999Z</time></trkpt><trkpt lat="51.00622239063508" lon="16.99828725069328"><ele>129.42857142857144</ele><time>2026-05-03T15:10:04.999Z</time></trkpt><trkpt lat="51.00615644299268" lon="16.998335315877505"><ele>130.0</ele><time>2026-05-03T15:10:05.999Z</time></trkpt><trkpt lat="51.006093277744306" lon="16.998379848763047"><ele>130.57142857142858</ele><time>2026-05-03T15:10:06.999Z</time></trkpt><trkpt lat="51.00602757630243" lon="16.998420515364465"><ele>131.14285714285714</ele><time>2026-05-03T15:10:07.999Z</time></trkpt><trkpt lat="51.0059611445703" lon="16.998462394320235"><ele>131.71428571428572</ele><time>2026-05-03T15:10:08.999Z</time></trkpt><trkpt lat="51.00589586502241" lon="16.998507549626645"><ele>132.28571428571428</ele><time>2026-05-03T15:10:09.999Z</time></trkpt><trkpt lat="51.00582769259203" lon="16.998557896891977"><ele>132.85714285714286</ele><time>2026-05-03T15:10:10.999Z</time></trkpt><trkpt lat="51.005761624874744" lon="16.99860468103487"><ele>133.42857142857144</ele><time>2026-05-03T15:10:11.999Z</time></trkpt><trkpt lat="51.00569751934735" lon="16.99865873018187"><ele>134.0</ele><time>2026-05-03T15:10:12.999Z</time></trkpt><trkpt lat="51.00563150336865" lon="16.998711090063786"><ele>134.14285714285714</ele><time>2026-05-03T15:10:13.999Z</time></trkpt><trkpt lat="51.00556913228564" lon="16.998765373965462"><ele>134.28571428571428</ele><time>2026-05-03T15:10:14.999Z</time></trkpt><trkpt lat="51.00550831266263" lon="16.99882243737088"><ele>134.42857142857142</ele><time>2026-05-03T15:10:15.999Z</time></trkpt><trkpt lat="51.00544890548747" lon="16.998891604113883"><ele>134.57142857142856</ele><time>2026-05-03T15:10:16.999Z</time></trkpt><trkpt lat="51.00539305336642" lon="16.99895970629514"><ele>134.7142857142857</ele><time>2026-05-03T15:10:17.999Z</time></trkpt><trkpt lat="51.00533381664288" lon="16.9990235631049"><ele>134.85714285714286</ele><time>2026-05-03T15:10:18.999Z</time></trkpt><trkpt lat="51.00526990702192" lon="16.999083645900754"><ele>135.0</ele><time>2026-05-03T15:10:19.999Z</time></trkpt><trkpt lat="51.00521396228837" lon="16.999148196572825"><ele>134.71428571428572</ele><time>2026-05-03T15:10:20.999Z</time></trkpt><trkpt lat="51.00515274226145" lon="16.99921671526329"><ele>134.42857142857142</ele><time>2026-05-03T15:10:21.999Z</time></trkpt><trkpt lat="51.00509238122298" lon="16.99928066424352"><ele>134.14285714285714</ele><time>2026-05-03T15:10:22.999Z</time></trkpt><trkpt lat="51.005030081254205" lon="16.999344591047308"><ele>133.85714285714286</ele><time>2026-05-03T15:10:23.999Z</time></trkpt><trkpt lat="51.004967359267305" lon="16.999407554316452"><ele>133.57142857142856</ele><time>2026-05-03T15:10:24.999Z</time></trkpt><trkpt lat="51.004903351266506" lon="16.999469269996958"><ele>133.28571428571428</ele><time>2026-05-03T15:10:25.999Z</time></trkpt><trkpt lat="51.00484011551927" lon="16.999533084940698"><ele>133.0</ele><time>2026-05-03T15:10:26.999Z</time></trkpt><trkpt lat="51.004778331787364" lon="16.999598897442894"><ele>132.66666666666669</ele><time>2026-05-03T15:10:27.999Z</time></trkpt><trkpt lat="51.00471547433442" lon="16.999668771929496"><ele>132.33333333333334</ele><time>2026-05-03T15:10:28.999Z</time></trkpt><trkpt lat="51.004655254743966" lon="16.999741504737944"><ele>132.0</ele><time>2026-05-03T15:10:29.999Z</time></trkpt><trkpt lat="51.00459538442707" lon="16.999811974359066"><ele>131.66666666666666</ele><time>2026-05-03T15:10:30.999Z</time></trkpt><trkpt lat="51.004533953985195" lon="16.999878598659734"><ele>131.33333333333331</ele><time>2026-05-03T15:10:31.999Z</time></trkpt><trkpt lat="51.00446809154233" lon="16.999937777310002"><ele>131.0</ele><time>2026-05-03T15:10:32.999Z</time></trkpt><trkpt lat="51.00440371995622" lon="16.999999271682302"><ele>131.0</ele><time>2026-05-03T15:10:33.999Z</time></trkpt><trkpt lat="51.004338003606236" lon="17.00006803992241"><ele>131.0</ele><time>2026-05-03T15:10:34.999Z</time></trkpt><trkpt lat="51.00427578325048" lon="17.000135950982838"><ele>131.0</ele><time>2026-05-03T15:10:35.999Z</time></trkpt><trkpt lat="51.004212743486065" lon="17.00020446450233"><ele>131.0</ele><time>2026-05-03T15:10:36.999Z</time></trkpt><trkpt lat="51.00414820788246" lon="17.000273004208715"><ele>131.0</ele><time>2026-05-03T15:10:37.999Z</time></trkpt><trkpt lat="51.00408224821868" lon="17.000341392582673"><ele>131.0</ele><time>2026-05-03T15:10:38.999Z</time></trkpt><trkpt lat="51.00402078258788" lon="17.000415961475188"><ele>130.33333333333331</ele><time>2026-05-03T15:10:39.999Z</time></trkpt><trkpt lat="51.00395582837241" lon="17.000486969753588"><ele>129.66666666666666</ele><time>2026-05-03T15:10:40.999Z</time></trkpt><trkpt lat="51.00389056566876" lon="17.000559077869898"><ele>129.0</ele><time>2026-05-03T15:10:41.999Z</time></trkpt><trkpt lat="51.00382608856119" lon="17.00062945960696"><ele>128.33333333333334</ele><time>2026-05-03T15:10:42.999Z</time></trkpt><trkpt lat="51.003761806489194" lon="17.000696676275208"><ele>127.66666666666667</ele><time>2026-05-03T15:10:43.999Z</time></trkpt><trkpt lat="51.00369323823676" lon="17.00075381454169"><ele>127.0</ele><time>2026-05-03T15:10:44.999Z</time></trkpt><trkpt lat="51.00362526536187" lon="17.00080536948966"><ele>126.83333333333334</ele><time>2026-05-03T15:10:45.999Z</time></trkpt><trkpt lat="51.003559371040325" lon="17.00087126070815"><ele>126.66666666666667</ele><time>2026-05-03T15:10:46.999Z</time></trkpt><trkpt lat="51.00349272660878" lon="17.000936161739837"><ele>126.5</ele><time>2026-05-03T15:10:47.999Z</time></trkpt><trkpt lat="51.0034261458444" lon="17.001002274680545"><ele>126.33333333333334</ele><time>2026-05-03T15:10:48.999Z</time></trkpt><trkpt lat="51.003362406554025" lon="17.0010761942096"><ele>126.16666666666667</ele><time>2026-05-03T15:10:49.999Z</time></trkpt><trkpt lat="51.00329826528698" lon="17.001148018272907"><ele>126.0</ele><time>2026-05-03T15:10:50.999Z</time></trkpt><trkpt lat="51.00323156418668" lon="17.001216585142107"><ele>126.0</ele><time>2026-05-03T15:10:51.999Z</time></trkpt><trkpt lat="51.00316373655209" lon="17.00128170111672"><ele>126.0</ele><time>2026-05-03T15:10:52.999Z</time></trkpt><trkpt lat="51.00309301130945" lon="17.001343062693458"><ele>126.0</ele><time>2026-05-03T15:10:53.999Z</time></trkpt><trkpt lat="51.00302253573743" lon="17.00140290015106"><ele>126.0</ele><time>2026-05-03T15:10:54.999Z</time></trkpt><trkpt lat="51.00295080351739" lon="17.001458471826123"><ele>126.0</ele><time>2026-05-03T15:10:55.999Z</time></trkpt><trkpt lat="51.002881320512024" lon="17.001506995760092"><ele>126.0</ele><time>2026-05-03T15:10:56.999Z</time></trkpt><trkpt lat="51.002809272538244" lon="17.001556419433616"><ele>126.0</ele><time>2026-05-03T15:10:57.999Z</time></trkpt><trkpt lat="51.002738047142024" lon="17.001604156239164"><ele>126.0</ele><time>2026-05-03T15:10:58.999Z</time></trkpt><trkpt lat="51.00266273663148" lon="17.001644690198017"><ele>126.0</ele><time>2026-05-03T15:10:59.999Z</time></trkpt><trkpt lat="51.00259051398658" lon="17.001684368985465"><ele>126.0</ele><time>2026-05-03T15:11:00.999Z</time></trkpt><trkpt lat="51.00251612620023" lon="17.00171980130101"><ele>126.0</ele><time>2026-05-03T15:11:01.999Z</time></trkpt><trkpt lat="51.00244050449907" lon="17.001752062604684"><ele>126.0</ele><time>2026-05-03T15:11:02.999Z</time></trkpt><trkpt lat="51.00236272190972" lon="17.00177593768255"><ele>126.33333333333333</ele><time>2026-05-03T15:11:04Z</time></trkpt><trkpt lat="51.0022850126298" lon="17.00179437835668"><ele>126.66666666666666</ele><time>2026-05-03T15:11:05Z</time></trkpt><trkpt lat="51.002212422752905" lon="17.00181449165982"><ele>127.0</ele><time>2026-05-03T15:11:06Z</time></trkpt><trkpt lat="51.00213645808114" lon="17.00183775814579"><ele>127.33333333333333</ele><time>2026-05-03T15:11:07Z</time></trkpt><trkpt lat="51.00206165878923" lon="17.001854750795914"><ele>127.66666666666666</ele><time>2026-05-03T15:11:08Z</time></trkpt><trkpt lat="51.0019897517402" lon="17.001877044559645"><ele>128.0</ele><time>2026-05-03T15:11:09Z</time></trkpt><trkpt lat="51.00191786893725" lon="17.00190278654209"><ele>128.0</ele><time>2026-05-03T15:11:10Z</time></trkpt><trkpt lat="51.0018475570312" lon="17.001924733230354"><ele>127.99999999999999</ele><time>2026-05-03T15:11:11Z</time></trkpt><trkpt lat="51.00177715286506" lon="17.00194681538007"><ele>128.0</ele><time>2026-05-03T15:11:12Z</time></trkpt><trkpt lat="51.00170537675904" lon="17.001970669607527"><ele>128.0</ele><time>2026-05-03T15:11:13Z</time></trkpt><trkpt lat="51.00163626098374" lon="17.001991211966114"><ele>127.99999999999999</ele><time>2026-05-03T15:11:14Z</time></trkpt><trkpt lat="51.001565521836206" lon="17.002010580887593"><ele>128.0</ele><time>2026-05-03T15:11:15Z</time></trkpt><trkpt lat="51.001494692824" lon="17.002027710610538"><ele>128.0</ele><time>2026-05-03T15:11:16Z</time></trkpt><trkpt lat="51.001422926201116" lon="17.002046663114264"><ele>127.85714285714285</ele><time>2026-05-03T15:11:17Z</time></trkpt><trkpt lat="51.00135328427585" lon="17.002065184822854"><ele>127.7142857142857</ele><time>2026-05-03T15:11:18Z</time></trkpt><trkpt lat="51.00128453057143" lon="17.00208706388709"><ele>127.57142857142857</ele><time>2026-05-03T15:11:19Z</time></trkpt><trkpt lat="51.00121398148336" lon="17.002109087798825"><ele>127.42857142857142</ele><time>2026-05-03T15:11:20Z</time></trkpt><trkpt lat="51.001144737387754" lon="17.00212926864452"><ele>127.28571428571428</ele><time>2026-05-03T15:11:21Z</time></trkpt><trkpt lat="51.00107409547144" lon="17.002148716219388"><ele>127.14285714285714</ele><time>2026-05-03T15:11:22Z</time></trkpt><trkpt lat="51.00100283366442" lon="17.0021626488811"><ele>127.0</ele><time>2026-05-03T15:11:23Z</time></trkpt><trkpt lat="51.00093193289201" lon="17.002173147660702"><ele>127.0</ele><time>2026-05-03T15:11:24Z</time></trkpt><trkpt lat="51.000864344393" lon="17.00218801573856"><ele>127.0</ele><time>2026-05-03T15:11:25Z</time></trkpt><trkpt lat="51.00079141259722" lon="17.002204012000362"><ele>127.0</ele><time>2026-05-03T15:11:26Z</time></trkpt><trkpt lat="51.00071986393081" lon="17.002211710524538"><ele>127.0</ele><time>2026-05-03T15:11:27Z</time></trkpt><trkpt lat="51.000647096608496" lon="17.002215366440332"><ele>127.0</ele><time>2026-05-03T15:11:28Z</time></trkpt><trkpt lat="51.00057449053074" lon="17.002220843162608"><ele>127.0</ele><time>2026-05-03T15:11:29Z</time></trkpt><trkpt lat="51.00050263215307" lon="17.002225996987818"><ele>127.0</ele><time>2026-05-03T15:11:30Z</time></trkpt><trkpt lat="51.0004313012679" lon="17.00222878892193"><ele>126.85714285714286</ele><time>2026-05-03T15:11:31Z</time></trkpt><trkpt lat="51.00036058501019" lon="17.002232917154636"><ele>126.71428571428571</ele><time>2026-05-03T15:11:32Z</time></trkpt><trkpt lat="51.00028885775382" lon="17.0022396451623"><ele>126.57142857142857</ele><time>2026-05-03T15:11:33Z</time></trkpt><trkpt lat="51.00021659979451" lon="17.002243774068077"><ele>126.42857142857143</ele><time>2026-05-03T15:11:34Z</time></trkpt><trkpt lat="51.00014394545983" lon="17.00224812460992"><ele>126.28571428571428</ele><time>2026-05-03T15:11:35Z</time></trkpt><trkpt lat="51.000073289832876" lon="17.002251785683118"><ele>126.14285714285714</ele><time>2026-05-03T15:11:36Z</time></trkpt><trkpt lat="51.00000347483942" lon="17.002255313616992"><ele>126.0</ele><time>2026-05-03T15:11:37Z</time></trkpt><trkpt lat="50.99993266752368" lon="17.002259856424637"><ele>126.0</ele><time>2026-05-03T15:11:38Z</time></trkpt><trkpt lat="50.9998631254174" lon="17.002262731367384"><ele>126.0</ele><time>2026-05-03T15:11:39Z</time></trkpt><trkpt lat="50.9997921247295" lon="17.00226675903502"><ele>126.0</ele><time>2026-05-03T15:11:40Z</time></trkpt><trkpt lat="50.99972039407512" lon="17.00227192348943"><ele>126.0</ele><time>2026-05-03T15:11:41Z</time></trkpt><trkpt lat="50.999649053210454" lon="17.002272927133735"><ele>126.0</ele><time>2026-05-03T15:11:42Z</time></trkpt><trkpt lat="50.99957616374586" lon="17.002275730107833"><ele>126.0</ele><time>2026-05-03T15:11:43Z</time></trkpt><trkpt lat="50.99950428704899" lon="17.002282261837255"><ele>126.0</ele><time>2026-05-03T15:11:44Z</time></trkpt><trkpt lat="50.999433310637244" lon="17.0022873305254"><ele>126.0</ele><time>2026-05-03T15:11:45Z</time></trkpt><trkpt lat="50.999361294095294" lon="17.00229144884739"><ele>126.0</ele><time>2026-05-03T15:11:46Z</time></trkpt><trkpt lat="50.99928890732772" lon="17.00229400579291"><ele>126.0</ele><time>2026-05-03T15:11:47Z</time></trkpt><trkpt lat="50.99921676662793" lon="17.002300022743672"><ele>126.0</ele><time>2026-05-03T15:11:48Z</time></trkpt><trkpt lat="50.99914558758369" lon="17.00230597368927"><ele>126.0</ele><time>2026-05-03T15:11:48.999Z</time></trkpt><trkpt lat="50.99907435841907" lon="17.00230720765688"><ele>126.0</ele><time>2026-05-03T15:11:49.999Z</time></trkpt><trkpt lat="50.99900325398827" lon="17.00230698718142"><ele>126.0</ele><time>2026-05-03T15:11:50.999Z</time></trkpt><trkpt lat="50.99893198389839" lon="17.002313680902517"><ele>126.0</ele><time>2026-05-03T15:11:51.999Z</time></trkpt><trkpt lat="50.99886071329889" lon="17.00232303614758"><ele>126.0</ele><time>2026-05-03T15:11:52.999Z</time></trkpt><trkpt lat="50.99878929367265" lon="17.002328895044528"><ele>126.0</ele><time>2026-05-03T15:11:53.999Z</time></trkpt><trkpt lat="50.99871766007593" lon="17.00233430539317"><ele>126.0</ele><time>2026-05-03T15:11:54.999Z</time></trkpt><trkpt lat="50.99864637896571" lon="17.002340469550823"><ele>126.0</ele><time>2026-05-03T15:11:55.999Z</time></trkpt><trkpt lat="50.99857436566502" lon="17.002349568011606"><ele>126.0</ele><time>2026-05-03T15:11:56.999Z</time></trkpt><trkpt lat="50.998503787306646" lon="17.00236120831662"><ele>126.0</ele><time>2026-05-03T15:11:57.999Z</time></trkpt><trkpt lat="50.998434937267156" lon="17.0023805788343"><ele>126.0</ele><time>2026-05-03T15:11:58.999Z</time></trkpt><trkpt lat="50.9983698101271" lon="17.00242192960891"><ele>126.0</ele><time>2026-05-03T15:11:59.999Z</time></trkpt><trkpt lat="50.99830925014561" lon="17.002489505927723"><ele>126.0</ele><time>2026-05-03T15:12:00.999Z</time></trkpt><trkpt lat="50.998262987835886" lon="17.00257825501962"><ele>126.0</ele><time>2026-05-03T15:12:01.999Z</time></trkpt><trkpt lat="50.998224356773264" lon="17.002681173265824"><ele>126.0</ele><time>2026-05-03T15:12:02.999Z</time></trkpt><trkpt lat="50.998199908700045" lon="17.002794376596857"><ele>126.0</ele><time>2026-05-03T15:12:03.999Z</time></trkpt><trkpt lat="50.99818728728858" lon="17.002913761992893"><ele>126.0</ele><time>2026-05-03T15:12:04.999Z</time></trkpt><trkpt lat="50.99819041870049" lon="17.00303491083709"><ele>125.85714285714286</ele><time>2026-05-03T15:12:05.999Z</time></trkpt><trkpt lat="50.99819431110647" lon="17.003155354824138"><ele>125.71428571428572</ele><time>2026-05-03T15:12:06.999Z</time></trkpt><trkpt lat="50.99819213280879" lon="17.00327433426366"><ele>125.57142857142857</ele><time>2026-05-03T15:12:07.999Z</time></trkpt><trkpt lat="50.998185013373586" lon="17.003393943789604"><ele>125.42857142857143</ele><time>2026-05-03T15:12:08.999Z</time></trkpt><trkpt lat="50.99817946522469" lon="17.003513070255"><ele>125.28571428571429</ele><time>2026-05-03T15:12:09.999Z</time></trkpt><trkpt lat="50.99817536101679" lon="17.003630393372884"><ele>125.14285714285714</ele><time>2026-05-03T15:12:10.999Z</time></trkpt><trkpt lat="50.99817213918538" lon="17.00374237587026"><ele>125.0</ele><time>2026-05-03T15:12:11.999Z</time></trkpt><trkpt lat="50.99816949549027" lon="17.003861914309063"><ele>125.28571428571428</ele><time>2026-05-03T15:12:12.999Z</time></trkpt><trkpt lat="50.998168757550474" lon="17.00397744690194"><ele>125.57142857142858</ele><time>2026-05-03T15:12:13.999Z</time></trkpt><trkpt lat="50.998161457951674" lon="17.004094548655203"><ele>125.85714285714286</ele><time>2026-05-03T15:12:14.999Z</time></trkpt><trkpt lat="50.99816362267147" lon="17.00420565773581"><ele>126.14285714285714</ele><time>2026-05-03T15:12:15.999Z</time></trkpt><trkpt lat="50.99816111788835" lon="17.004321963488287"><ele>126.42857142857142</ele><time>2026-05-03T15:12:16.999Z</time></trkpt><trkpt lat="50.99815817913317" lon="17.00443424845352"><ele>126.71428571428572</ele><time>2026-05-03T15:12:17.999Z</time></trkpt><trkpt lat="50.99815612487768" lon="17.004548319678793"><ele>127.0</ele><time>2026-05-03T15:12:18.999Z</time></trkpt><trkpt lat="50.998156891523344" lon="17.004659286775063"><ele>127.28571428571429</ele><time>2026-05-03T15:12:19.999Z</time></trkpt><trkpt lat="50.99815585720313" lon="17.00477235816423"><ele>127.57142857142856</ele><time>2026-05-03T15:12:20.999Z</time></trkpt><trkpt lat="50.99816147685561" lon="17.00488562863518"><ele>127.85714285714285</ele><time>2026-05-03T15:12:21.999Z</time></trkpt><trkpt lat="50.99818352100046" lon="17.004993056614428"><ele>128.14285714285714</ele><time>2026-05-03T15:12:22.999Z</time></trkpt><trkpt lat="50.99822165419688" lon="17.005096237044807"><ele>128.42857142857142</ele><time>2026-05-03T15:12:23.999Z</time></trkpt><trkpt lat="50.99825539109146" lon="17.005195194994357"><ele>128.7142857142857</ele><time>2026-05-03T15:12:24.999Z</time></trkpt><trkpt lat="50.998287347604" lon="17.005294930061304"><ele>129.0</ele><time>2026-05-03T15:12:25.999Z</time></trkpt><trkpt lat="50.99832271049469" lon="17.00539646357997"><ele>128.99999999999997</ele><time>2026-05-03T15:12:26.999Z</time></trkpt><trkpt lat="50.99835729093377" lon="17.005490055510062"><ele>129.0</ele><time>2026-05-03T15:12:27.999Z</time></trkpt><trkpt lat="50.99839923682372" lon="17.00558780464546"><ele>129.0</ele><time>2026-05-03T15:12:28.999Z</time></trkpt><trkpt lat="50.99844061257658" lon="17.005678854469764"><ele>129.0</ele><time>2026-05-03T15:12:29.999Z</time></trkpt><trkpt lat="50.998477443332966" lon="17.005773098504385"><ele>129.0</ele><time>2026-05-03T15:12:30.999Z</time></trkpt><trkpt lat="50.998515252552345" lon="17.005868732197293"><ele>128.99999999999997</ele><time>2026-05-03T15:12:31.999Z</time></trkpt><trkpt lat="50.99855164166862" lon="17.005966330417646"><ele>129.0</ele><time>2026-05-03T15:12:32.999Z</time></trkpt><trkpt lat="50.998590294446394" lon="17.006060844376933"><ele>128.99999999999997</ele><time>2026-05-03T15:12:33.999Z</time></trkpt><trkpt lat="50.99862074076122" lon="17.006165468061432"><ele>129.0</ele><time>2026-05-03T15:12:34.999Z</time></trkpt><trkpt lat="50.99863833490669" lon="17.00627374984936"><ele>129.0</ele><time>2026-05-03T15:12:35.999Z</time></trkpt><trkpt lat="50.99863423297978" lon="17.006389148281965"><ele>129.0</ele><time>2026-05-03T15:12:36.999Z</time></trkpt><trkpt lat="50.99859825842041" lon="17.006488805416453"><ele>129.0</ele><time>2026-05-03T15:12:37.999Z</time></trkpt><trkpt lat="50.998534211593025" lon="17.006553707781887"><ele>128.99999999999997</ele><time>2026-05-03T15:12:38.999Z</time></trkpt><trkpt lat="50.99846055774069" lon="17.006581857047337"><ele>129.0</ele><time>2026-05-03T15:12:39.999Z</time></trkpt><trkpt lat="50.99839362861414" lon="17.006616887023082"><ele>128.99999999999997</ele><time>2026-05-03T15:12:40.999Z</time></trkpt><trkpt lat="50.998329660267046" lon="17.00666279358941"><ele>129.0</ele><time>2026-05-03T15:12:41.999Z</time></trkpt><trkpt lat="50.99826641614406" lon="17.006709873616046"><ele>129.0</ele><time>2026-05-03T15:12:42.999Z</time></trkpt><trkpt lat="50.998205205399486" lon="17.006758235838667"><ele>129.0</ele><time>2026-05-03T15:12:43.999Z</time></trkpt><trkpt lat="50.99813976322118" lon="17.00680477518571"><ele>129.0</ele><time>2026-05-03T15:12:44.999Z</time></trkpt><trkpt lat="50.99807566605403" lon="17.00685398256546"><ele>128.99999999999997</ele><time>2026-05-03T15:12:45.999Z</time></trkpt><trkpt lat="50.9980130121908" lon="17.00690459507426"><ele>129.0</ele><time>2026-05-03T15:12:46.999Z</time></trkpt><trkpt lat="50.997950401714235" lon="17.006955977661733"><ele>128.99999999999997</ele><time>2026-05-03T15:12:47.999Z</time></trkpt><trkpt lat="50.99788819690132" lon="17.007004240469403"><ele>129.0</ele><time>2026-05-03T15:12:48.999Z</time></trkpt><trkpt lat="50.99782184847279" lon="17.007048260570514"><ele>129.0</ele><time>2026-05-03T15:12:49.999Z</time></trkpt><trkpt lat="50.9977554760959" lon="17.007086940678622"><ele>129.0</ele><time>2026-05-03T15:12:50.999Z</time></trkpt><trkpt lat="50.99768962208541" lon="17.007134705493463"><ele>129.0</ele><time>2026-05-03T15:12:51.999Z</time></trkpt><trkpt lat="50.99762569021091" lon="17.00718549047277"><ele>128.99999999999997</ele><time>2026-05-03T15:12:52.999Z</time></trkpt><trkpt lat="50.997557855967344" lon="17.00723575329374"><ele>129.0</ele><time>2026-05-03T15:12:53.999Z</time></trkpt><trkpt lat="50.99749024861762" lon="17.00727947141905"><ele>128.85714285714283</ele><time>2026-05-03T15:12:54.999Z</time></trkpt><trkpt lat="50.99741982947778" lon="17.007318155585466"><ele>128.71428571428572</ele><time>2026-05-03T15:12:55.999Z</time></trkpt><trkpt lat="50.99734852392073" lon="17.007342829041104"><ele>128.57142857142856</ele><time>2026-05-03T15:12:56.999Z</time></trkpt><trkpt lat="50.997273381603875" lon="17.007355078211823"><ele>128.42857142857142</ele><time>2026-05-03T15:12:57.999Z</time></trkpt><trkpt lat="50.99719786022689" lon="17.00736751708074"><ele>128.28571428571428</ele><time>2026-05-03T15:12:58.999Z</time></trkpt><trkpt lat="50.997124412585976" lon="17.00737782588586"><ele>128.14285714285714</ele><time>2026-05-03T15:12:59.999Z</time></trkpt><trkpt lat="50.99705162658163" lon="17.007390312464874"><ele>128.0</ele><time>2026-05-03T15:13:00.999Z</time></trkpt><trkpt lat="50.996975413152214" lon="17.007407522070043"><ele>128.0</ele><time>2026-05-03T15:13:01.999Z</time></trkpt><trkpt lat="50.996900087210484" lon="17.00741860175778"><ele>127.99999999999999</ele><time>2026-05-03T15:13:02.999Z</time></trkpt><trkpt lat="50.99682441165049" lon="17.007427144266103"><ele>128.0</ele><time>2026-05-03T15:13:03.999Z</time></trkpt><trkpt lat="50.99675095181071" lon="17.00743489703152"><ele>128.0</ele><time>2026-05-03T15:13:04.999Z</time></trkpt><trkpt lat="50.99667723089578" lon="17.007446853566137"><ele>127.99999999999999</ele><time>2026-05-03T15:13:05.999Z</time></trkpt><trkpt lat="50.996603464317005" lon="17.007458805636464"><ele>128.0</ele><time>2026-05-03T15:13:06.999Z</time></trkpt><trkpt lat="50.99652901906493" lon="17.007471000825916"><ele>128.0</ele><time>2026-05-03T15:13:07.999Z</time></trkpt><trkpt lat="50.996456667742926" lon="17.00748219168297"><ele>127.85714285714285</ele><time>2026-05-03T15:13:08.999Z</time></trkpt><trkpt lat="50.996383384677955" lon="17.00749487750057"><ele>127.7142857142857</ele><time>2026-05-03T15:13:10Z</time></trkpt><trkpt lat="50.99631106794096" lon="17.00750833073352"><ele>127.57142857142857</ele><time>2026-05-03T15:13:11Z</time></trkpt><trkpt lat="50.99623968165539" lon="17.007520684698527"><ele>127.42857142857142</ele><time>2026-05-03T15:13:12Z</time></trkpt><trkpt lat="50.9961659991217" lon="17.0075307068234"><ele>127.28571428571428</ele><time>2026-05-03T15:13:13Z</time></trkpt><trkpt lat="50.996092242287176" lon="17.007540122451093"><ele>127.14285714285714</ele><time>2026-05-03T15:13:14Z</time></trkpt><trkpt lat="50.996023578372785" lon="17.00755063732965"><ele>127.0</ele><time>2026-05-03T15:13:15Z</time></trkpt><trkpt lat="50.995953020738675" lon="17.00756172071681"><ele>127.0</ele><time>2026-05-03T15:13:16Z</time></trkpt><trkpt lat="50.99588015736617" lon="17.00757025477754"><ele>127.0</ele><time>2026-05-03T15:13:17Z</time></trkpt><trkpt lat="50.995806701842604" lon="17.007578748129035"><ele>127.0</ele><time>2026-05-03T15:13:18Z</time></trkpt><trkpt lat="50.995733712264624" lon="17.007586922023943"><ele>127.0</ele><time>2026-05-03T15:13:19Z</time></trkpt><trkpt lat="50.99566154252075" lon="17.007595797240718"><ele>127.0</ele><time>2026-05-03T15:13:20Z</time></trkpt><trkpt lat="50.9955882189915" lon="17.0076100972154"><ele>127.0</ele><time>2026-05-03T15:13:21Z</time></trkpt><trkpt lat="50.99551506892884" lon="17.00762016094467"><ele>127.0</ele><time>2026-05-03T15:13:22Z</time></trkpt><trkpt lat="50.995441679205804" lon="17.007631873641678"><ele>127.0</ele><time>2026-05-03T15:13:23Z</time></trkpt><trkpt lat="50.995368962247625" lon="17.00764415848113"><ele>127.0</ele><time>2026-05-03T15:13:24Z</time></trkpt><trkpt lat="50.99529567674644" lon="17.007657665808228"><ele>127.0</ele><time>2026-05-03T15:13:25Z</time></trkpt><trkpt lat="50.99522253498381" lon="17.0076683087593"><ele>127.0</ele><time>2026-05-03T15:13:26Z</time></trkpt><trkpt lat="50.99514977645926" lon="17.007678506535715"><ele>127.0</ele><time>2026-05-03T15:13:27Z</time></trkpt><trkpt lat="50.99507823280156" lon="17.007685036613196"><ele>127.0</ele><time>2026-05-03T15:13:28Z</time></trkpt><trkpt lat="50.99500705606145" lon="17.007696036069728"><ele>127.0</ele><time>2026-05-03T15:13:29Z</time></trkpt><trkpt lat="50.99493488274731" lon="17.007707800303734"><ele>127.0</ele><time>2026-05-03T15:13:30Z</time></trkpt><trkpt lat="50.99486208349542" lon="17.007719696678677"><ele>127.0</ele><time>2026-05-03T15:13:31Z</time></trkpt><trkpt lat="50.99478797068961" lon="17.00773360987065"><ele>127.0</ele><time>2026-05-03T15:13:32Z</time></trkpt><trkpt lat="50.994715665213654" lon="17.0077455931623"><ele>127.0</ele><time>2026-05-03T15:13:33Z</time></trkpt><trkpt lat="50.99464520622509" lon="17.007759259072767"><ele>127.0</ele><time>2026-05-03T15:13:34Z</time></trkpt><trkpt lat="50.99457170855084" lon="17.007771063902037"><ele>127.0</ele><time>2026-05-03T15:13:35Z</time></trkpt><trkpt lat="50.99450110332089" lon="17.007775583910753"><ele>127.0</ele><time>2026-05-03T15:13:36Z</time></trkpt><trkpt lat="50.99442872976336" lon="17.007785867486373"><ele>127.0</ele><time>2026-05-03T15:13:37Z</time></trkpt><trkpt lat="50.994358381189755" lon="17.007793849377464"><ele>127.0</ele><time>2026-05-03T15:13:38Z</time></trkpt><trkpt lat="50.994287869979644" lon="17.007802331816784"><ele>127.0</ele><time>2026-05-03T15:13:39Z</time></trkpt><trkpt lat="50.99421895562516" lon="17.007816499638942"><ele>127.0</ele><time>2026-05-03T15:13:40Z</time></trkpt><trkpt lat="50.99414898605083" lon="17.007831347100797"><ele>127.0</ele><time>2026-05-03T15:13:41Z</time></trkpt><trkpt lat="50.994082649167346" lon="17.007843603608347"><ele>127.0</ele><time>2026-05-03T15:13:42Z</time></trkpt><trkpt lat="50.994012017802184" lon="17.00784900316633"><ele>127.0</ele><time>2026-05-03T15:13:43Z</time></trkpt><trkpt lat="50.99394493021323" lon="17.00785591523228"><ele>127.0</ele><time>2026-05-03T15:13:44Z</time></trkpt><trkpt lat="50.99387763696294" lon="17.007870398099733"><ele>127.0</ele><time>2026-05-03T15:13:45Z</time></trkpt><trkpt lat="50.993810470235736" lon="17.00788577079964"><ele>127.0</ele><time>2026-05-03T15:13:46Z</time></trkpt><trkpt lat="50.99374339356235" lon="17.007894717470723"><ele>127.0</ele><time>2026-05-03T15:13:47Z</time></trkpt><trkpt lat="50.99367462316082" lon="17.007898842858015"><ele>127.0</ele><time>2026-05-03T15:13:48Z</time></trkpt><trkpt lat="50.993602518083115" lon="17.007911308510113"><ele>127.0</ele><time>2026-05-03T15:13:49Z</time></trkpt><trkpt lat="50.99353221779718" lon="17.007927105413685"><ele>127.0</ele><time>2026-05-03T15:13:50Z</time></trkpt><trkpt lat="50.99346232098322" lon="17.007935519413124"><ele>127.0</ele><time>2026-05-03T15:13:51Z</time></trkpt><trkpt lat="50.99339175871806" lon="17.00794351472727"><ele>127.0</ele><time>2026-05-03T15:13:52Z</time></trkpt><trkpt lat="50.993320079490054" lon="17.00795698048764"><ele>127.0</ele><time>2026-05-03T15:13:52.999Z</time></trkpt><trkpt lat="50.993250650339995" lon="17.00797027625434"><ele>127.0</ele><time>2026-05-03T15:13:53.999Z</time></trkpt><trkpt lat="50.99318118634445" lon="17.007979789173202"><ele>127.0</ele><time>2026-05-03T15:13:54.999Z</time></trkpt><trkpt lat="50.99311125378872" lon="17.007986119219883"><ele>127.0</ele><time>2026-05-03T15:13:55.999Z</time></trkpt><trkpt lat="50.99304129350675" lon="17.007996003419592"><ele>127.0</ele><time>2026-05-03T15:13:56.999Z</time></trkpt><trkpt lat="50.99297169453352" lon="17.008009516765256"><ele>127.14285714285714</ele><time>2026-05-03T15:13:57.999Z</time></trkpt><trkpt lat="50.99290348348467" lon="17.008021618831744"><ele>127.28571428571428</ele><time>2026-05-03T15:13:58.999Z</time></trkpt><trkpt lat="50.992836269946466" lon="17.008030578034997"><ele>127.42857142857142</ele><time>2026-05-03T15:13:59.999Z</time></trkpt><trkpt lat="50.9927668977881" lon="17.008040531607286"><ele>127.57142857142857</ele><time>2026-05-03T15:14:00.999Z</time></trkpt><trkpt lat="50.99270046204765" lon="17.00805017682153"><ele>127.7142857142857</ele><time>2026-05-03T15:14:01.999Z</time></trkpt><trkpt lat="50.99263550689086" lon="17.008061657789987"><ele>127.85714285714285</ele><time>2026-05-03T15:14:02.999Z</time></trkpt><trkpt lat="50.99256858761247" lon="17.008070248498893"><ele>128.0</ele><time>2026-05-03T15:14:03.999Z</time></trkpt><trkpt lat="50.99250414969039" lon="17.008079302500043"><ele>128.0</ele><time>2026-05-03T15:14:04.999Z</time></trkpt><trkpt lat="50.99243882999353" lon="17.00808803046678"><ele>127.99999999999999</ele><time>2026-05-03T15:14:05.999Z</time></trkpt><trkpt lat="50.99237369298433" lon="17.00809984022516"><ele>128.0</ele><time>2026-05-03T15:14:06.999Z</time></trkpt><trkpt lat="50.99230914378156" lon="17.00811078090022"><ele>128.0</ele><time>2026-05-03T15:14:07.999Z</time></trkpt><trkpt lat="50.992244858387785" lon="17.008117790014804"><ele>127.99999999999999</ele><time>2026-05-03T15:14:08.999Z</time></trkpt><trkpt lat="50.99217833744613" lon="17.008125850498352"><ele>128.0</ele><time>2026-05-03T15:14:09.999Z</time></trkpt><trkpt lat="50.99211307812425" lon="17.008139763786826"><ele>128.0</ele><time>2026-05-03T15:14:10.999Z</time></trkpt><trkpt lat="50.99205014542964" lon="17.008149750505677"><ele>128.0</ele><time>2026-05-03T15:14:11.999Z</time></trkpt><trkpt lat="50.99198402934272" lon="17.008159418863556"><ele>127.99999999999999</ele><time>2026-05-03T15:14:12.999Z</time></trkpt><trkpt lat="50.991919350327585" lon="17.008168834979035"><ele>128.0</ele><time>2026-05-03T15:14:13.999Z</time></trkpt><trkpt lat="50.991855321464" lon="17.00817878252329"><ele>128.0</ele><time>2026-05-03T15:14:14.999Z</time></trkpt><trkpt lat="50.99179194753694" lon="17.008187532134492"><ele>127.99999999999999</ele><time>2026-05-03T15:14:15.999Z</time></trkpt><trkpt lat="50.99172793261225" lon="17.00819714098405"><ele>128.0</ele><time>2026-05-03T15:14:16.999Z</time></trkpt><trkpt lat="50.99166216749897" lon="17.008203724175264"><ele>128.0</ele><time>2026-05-03T15:14:17.999Z</time></trkpt><trkpt lat="50.99159758207033" lon="17.008209132102667"><ele>127.80000000000001</ele><time>2026-05-03T15:14:18.999Z</time></trkpt><trkpt lat="50.99153467079229" lon="17.008220465961312"><ele>127.60000000000001</ele><time>2026-05-03T15:14:19.999Z</time></trkpt><trkpt lat="50.99141236188012" lon="17.008250414665373"><ele>127.39999999999999</ele><time>2026-05-03T15:14:21.999Z</time></trkpt><trkpt lat="50.99128987248697" lon="17.008257550546695"><ele>127.19999999999999</ele><time>2026-05-03T15:14:23.999Z</time></trkpt><trkpt lat="50.99116570304778" lon="17.008272326904123"><ele>127.0</ele><time>2026-05-03T15:14:25.999Z</time></trkpt><trkpt lat="50.991041878125436" lon="17.00829652808931"><ele>127.0</ele><time>2026-05-03T15:14:27.999Z</time></trkpt><trkpt lat="50.99091863359019" lon="17.00831401283736"><ele>127.0</ele><time>2026-05-03T15:14:29.999Z</time></trkpt><trkpt lat="50.99079683943905" lon="17.008338064987225"><ele>127.0</ele><time>2026-05-03T15:14:31.999Z</time></trkpt><trkpt lat="50.99067676137507" lon="17.00835409132282"><ele>127.0</ele><time>2026-05-03T15:14:33.999Z</time></trkpt><trkpt lat="50.990555929650995" lon="17.00836854462665"><ele>127.0</ele><time>2026-05-03T15:14:35.999Z</time></trkpt><trkpt lat="50.99043158792014" lon="17.008388774480245"><ele>126.99999999999999</ele><time>2026-05-03T15:14:37.999Z</time></trkpt><trkpt lat="50.990369025718465" lon="17.00840107273742"><ele>126.99999999999999</ele><time>2026-05-03T15:14:38.999Z</time></trkpt><trkpt lat="50.99030622880043" lon="17.00841210565316"><ele>127.0</ele><time>2026-05-03T15:14:39.999Z</time></trkpt><trkpt lat="50.990179838734726" lon="17.008430932291795"><ele>127.0</ele><time>2026-05-03T15:14:41.999Z</time></trkpt><trkpt lat="50.990056754669176" lon="17.008443775540723"><ele>127.19999999999999</ele><time>2026-05-03T15:14:43.999Z</time></trkpt><trkpt lat="50.98999242661474" lon="17.008453723437785"><ele>127.39999999999999</ele><time>2026-05-03T15:14:44.999Z</time></trkpt><trkpt lat="50.9899287124809" lon="17.00846322393604"><ele>127.60000000000001</ele><time>2026-05-03T15:14:45.999Z</time></trkpt><trkpt lat="50.9898068188342" lon="17.008488569088883"><ele>127.80000000000001</ele><time>2026-05-03T15:14:47.999Z</time></trkpt><trkpt lat="50.98968915457184" lon="17.008497479887193"><ele>128.0</ele><time>2026-05-03T15:14:49.999Z</time></trkpt><trkpt lat="50.989567056435085" lon="17.00851901107099"><ele>128.0</ele><time>2026-05-03T15:14:51.999Z</time></trkpt><trkpt lat="50.98944410186831" lon="17.00853887564677"><ele>128.0</ele><time>2026-05-03T15:14:53.999Z</time></trkpt><trkpt lat="50.989321077249585" lon="17.008559212827308"><ele>128.0</ele><time>2026-05-03T15:14:55.999Z</time></trkpt><trkpt lat="50.98919971064586" lon="17.008575881817972"><ele>128.0</ele><time>2026-05-03T15:14:57.999Z</time></trkpt><trkpt lat="50.989076589547395" lon="17.008594912094704"><ele>128.25</ele><time>2026-05-03T15:14:59.999Z</time></trkpt><trkpt lat="50.98895151367044" lon="17.008613896145565"><ele>128.5</ele><time>2026-05-03T15:15:01.999Z</time></trkpt><trkpt lat="50.988825601036886" lon="17.008632201058617"><ele>128.75</ele><time>2026-05-03T15:15:03.999Z</time></trkpt><trkpt lat="50.988703018812735" lon="17.008648798811766"><ele>129.0</ele><time>2026-05-03T15:15:05.999Z</time></trkpt><trkpt lat="50.98858231876884" lon="17.00866241115671"><ele>129.0</ele><time>2026-05-03T15:15:07.999Z</time></trkpt><trkpt lat="50.98846353362502" lon="17.00867864038534"><ele>129.0</ele><time>2026-05-03T15:15:09.999Z</time></trkpt><trkpt lat="50.98834913356362" lon="17.008697131186"><ele>129.0</ele><time>2026-05-03T15:15:11.999Z</time></trkpt><trkpt lat="50.98823594035276" lon="17.008716790186224"><ele>129.0</ele><time>2026-05-03T15:15:13.999Z</time></trkpt><trkpt lat="50.98812827320846" lon="17.0087319704392"><ele>129.0</ele><time>2026-05-03T15:15:16Z</time></trkpt><trkpt lat="50.98803538897926" lon="17.008748054838314"><ele>129.0</ele><time>2026-05-03T15:15:18Z</time></trkpt><trkpt lat="50.98794378536878" lon="17.008764236960765"><ele>129.0</ele><time>2026-05-03T15:15:20Z</time></trkpt><trkpt lat="50.98783610396815" lon="17.008761735502503"><ele>129.0</ele><time>2026-05-03T15:15:22Z</time></trkpt><trkpt lat="50.98782012641061" lon="17.00854799872097"><ele>129.0</ele><time>2026-05-03T15:15:24Z</time></trkpt><trkpt lat="50.987810813230304" lon="17.00844619791898"><ele>129.0</ele><time>2026-05-03T15:15:25Z</time></trkpt><trkpt lat="50.98782871398523" lon="17.008248956696153"><ele>129.0</ele><time>2026-05-03T15:15:27Z</time></trkpt><trkpt lat="50.987834185634746" lon="17.008144075632263"><ele>129.0</ele><time>2026-05-03T15:15:28Z</time></trkpt><trkpt lat="50.98783779373106" lon="17.008039283127868"><ele>129.0</ele><time>2026-05-03T15:15:29Z</time></trkpt><trkpt lat="50.98784809692214" lon="17.007838369542124"><ele>129.0</ele><time>2026-05-03T15:15:31Z</time></trkpt><trkpt lat="50.98785596815786" lon="17.0076343716573"><ele>128.99999999999997</ele><time>2026-05-03T15:15:33Z</time></trkpt><trkpt lat="50.98785937182371" lon="17.00753034618258"><ele>129.0</ele><time>2026-05-03T15:15:34Z</time></trkpt><trkpt lat="50.987864206597315" lon="17.007424495652607"><ele>129.0</ele><time>2026-05-03T15:15:35Z</time></trkpt><trkpt lat="50.98787011689958" lon="17.007317499338644"><ele>129.0</ele><time>2026-05-03T15:15:36Z</time></trkpt><trkpt lat="50.98787456764059" lon="17.007213416776754"><ele>129.0</ele><time>2026-05-03T15:15:37Z</time></trkpt><trkpt lat="50.987878625476846" lon="17.007104132318002"><ele>128.99999999999997</ele><time>2026-05-03T15:15:38Z</time></trkpt><trkpt lat="50.98788223006542" lon="17.00699907654799"><ele>129.0</ele><time>2026-05-03T15:15:39Z</time></trkpt><trkpt lat="50.987887272889246" lon="17.006892730824944"><ele>129.14285714285714</ele><time>2026-05-03T15:15:40Z</time></trkpt><trkpt lat="50.98789350224612" lon="17.006785582896615"><ele>129.28571428571428</ele><time>2026-05-03T15:15:41Z</time></trkpt><trkpt lat="50.98790102336046" lon="17.006676434805552"><ele>129.42857142857144</ele><time>2026-05-03T15:15:42Z</time></trkpt><trkpt lat="50.9879063795783" lon="17.006568644580458"><ele>129.57142857142856</ele><time>2026-05-03T15:15:43Z</time></trkpt><trkpt lat="50.98791195638001" lon="17.006458728327363"><ele>129.71428571428572</ele><time>2026-05-03T15:15:44Z</time></trkpt><trkpt lat="50.98792231053817" lon="17.00634995321587"><ele>129.85714285714286</ele><time>2026-05-03T15:15:45Z</time></trkpt><trkpt lat="50.98793457337522" lon="17.00624045196472"><ele>130.0</ele><time>2026-05-03T15:15:46Z</time></trkpt><trkpt lat="50.98794673298033" lon="17.006129689991134"><ele>130.00000000000003</ele><time>2026-05-03T15:15:47Z</time></trkpt><trkpt lat="50.98795973383871" lon="17.006022679669886"><ele>130.0</ele><time>2026-05-03T15:15:48Z</time></trkpt><trkpt lat="50.98797684985375" lon="17.005914833021237"><ele>130.0</ele><time>2026-05-03T15:15:49Z</time></trkpt><trkpt lat="50.987994804030336" lon="17.005807544914095"><ele>130.0</ele><time>2026-05-03T15:15:50Z</time></trkpt><trkpt lat="50.9880125587684" lon="17.005700260933956"><ele>130.0</ele><time>2026-05-03T15:15:51Z</time></trkpt><trkpt lat="50.988030206187474" lon="17.005593471353468"><ele>130.00000000000003</ele><time>2026-05-03T15:15:52Z</time></trkpt><trkpt lat="50.98805069486491" lon="17.005486428260294"><ele>130.0</ele><time>2026-05-03T15:15:53Z</time></trkpt><trkpt lat="50.98807190830265" lon="17.00537844921623"><ele>130.00000000000003</ele><time>2026-05-03T15:15:54Z</time></trkpt><trkpt lat="50.988091369055965" lon="17.005271419031207"><ele>130.0</ele><time>2026-05-03T15:15:55Z</time></trkpt><trkpt lat="50.98811385829716" lon="17.005161583613237"><ele>130.0</ele><time>2026-05-03T15:15:55.999Z</time></trkpt><trkpt lat="50.98813345346452" lon="17.00505364994486"><ele>130.0</ele><time>2026-05-03T15:15:56.999Z</time></trkpt><trkpt lat="50.98815154604525" lon="17.004944461553897"><ele>130.0</ele><time>2026-05-03T15:15:57.999Z</time></trkpt><trkpt lat="50.98817399787062" lon="17.00483903606793"><ele>130.00000000000003</ele><time>2026-05-03T15:15:58.999Z</time></trkpt><trkpt lat="50.98819601634768" lon="17.004734893002063"><ele>130.0</ele><time>2026-05-03T15:15:59.999Z</time></trkpt><trkpt lat="50.98821849774131" lon="17.00462943297115"><ele>130.00000000000003</ele><time>2026-05-03T15:16:00.999Z</time></trkpt><trkpt lat="50.98824015863929" lon="17.004522029044743"><ele>130.0</ele><time>2026-05-03T15:16:01.999Z</time></trkpt><trkpt lat="50.98825784013083" lon="17.00441424666913"><ele>130.0</ele><time>2026-05-03T15:16:02.999Z</time></trkpt><trkpt lat="50.988276657993886" lon="17.00430902738813"><ele>130.0</ele><time>2026-05-03T15:16:03.999Z</time></trkpt><trkpt lat="50.98829621409736" lon="17.004203203365098"><ele>130.0</ele><time>2026-05-03T15:16:04.999Z</time></trkpt><trkpt lat="50.988318911301825" lon="17.00409871304714"><ele>130.00000000000003</ele><time>2026-05-03T15:16:05.999Z</time></trkpt><trkpt lat="50.98833563580294" lon="17.003991184200316"><ele>130.0</ele><time>2026-05-03T15:16:06.999Z</time></trkpt><trkpt lat="50.98834677127318" lon="17.003881568187506"><ele>130.00000000000003</ele><time>2026-05-03T15:16:07.999Z</time></trkpt><trkpt lat="50.988355813220814" lon="17.00377498484257"><ele>130.0</ele><time>2026-05-03T15:16:08.999Z</time></trkpt><trkpt lat="50.988359476337756" lon="17.003665305425642"><ele>130.0</ele><time>2026-05-03T15:16:09.999Z</time></trkpt><trkpt lat="50.988349319414134" lon="17.003557907189883"><ele>130.0</ele><time>2026-05-03T15:16:10.999Z</time></trkpt><trkpt lat="50.988311894063806" lon="17.00345250653893"><ele>130.0</ele><time>2026-05-03T15:16:11.999Z</time></trkpt><trkpt lat="50.98825186973358" lon="17.003393159615293"><ele>130.00000000000003</ele><time>2026-05-03T15:16:12.999Z</time></trkpt><trkpt lat="50.98818290174368" lon="17.003359222209472"><ele>130.0</ele><time>2026-05-03T15:16:13.999Z</time></trkpt><trkpt lat="50.98811448664986" lon="17.003346177357244"><ele>130.16666666666669</ele><time>2026-05-03T15:16:14.999Z</time></trkpt><trkpt lat="50.98804892554272" lon="17.003336224080666"><ele>130.33333333333334</ele><time>2026-05-03T15:16:15.999Z</time></trkpt><trkpt lat="50.98798458408195" lon="17.003330907352776"><ele>130.5</ele><time>2026-05-03T15:16:16.999Z</time></trkpt><trkpt lat="50.987921229008144" lon="17.003329239969496"><ele>130.66666666666666</ele><time>2026-05-03T15:16:17.999Z</time></trkpt><trkpt lat="50.98779426203181" lon="17.003320687354872"><ele>130.83333333333331</ele><time>2026-05-03T15:16:19.999Z</time></trkpt><trkpt lat="50.98766948377388" lon="17.00331581257866"><ele>131.0</ele><time>2026-05-03T15:16:21.999Z</time></trkpt><trkpt lat="50.98760581280257" lon="17.0033116174965"><ele>131.14285714285714</ele><time>2026-05-03T15:16:22.999Z</time></trkpt><trkpt lat="50.98748138385676" lon="17.003304000102503"><ele>131.2857142857143</ele><time>2026-05-03T15:16:24.999Z</time></trkpt><trkpt lat="50.98741840110459" lon="17.0032994289623"><ele>131.42857142857144</ele><time>2026-05-03T15:16:25.999Z</time></trkpt><trkpt lat="50.987354300508066" lon="17.003296421071944"><ele>131.57142857142858</ele><time>2026-05-03T15:16:26.999Z</time></trkpt><trkpt lat="50.98728989878823" lon="17.00328863059914"><ele>131.71428571428572</ele><time>2026-05-03T15:16:27.999Z</time></trkpt><trkpt lat="50.98722699218615" lon="17.00328023850441"><ele>131.85714285714286</ele><time>2026-05-03T15:16:28.999Z</time></trkpt><trkpt lat="50.98716253435216" lon="17.003274186378615"><ele>132.0</ele><time>2026-05-03T15:16:29.999Z</time></trkpt><trkpt lat="50.98709921062442" lon="17.003269346003872"><ele>132.0</ele><time>2026-05-03T15:16:30.999Z</time></trkpt><trkpt lat="50.98703505090826" lon="17.00326553980984"><ele>132.0</ele><time>2026-05-03T15:16:31.999Z</time></trkpt><trkpt lat="50.986909786847136" lon="17.003253800199616"><ele>132.0</ele><time>2026-05-03T15:16:33.999Z</time></trkpt><trkpt lat="50.986846859930566" lon="17.003248311555495"><ele>132.0</ele><time>2026-05-03T15:16:34.999Z</time></trkpt><trkpt lat="50.98678343604221" lon="17.003246079852776"><ele>132.0</ele><time>2026-05-03T15:16:35.999Z</time></trkpt><trkpt lat="50.9866595462081" lon="17.003233785584282"><ele>132.0</ele><time>2026-05-03T15:16:37.999Z</time></trkpt><trkpt lat="50.98659566889269" lon="17.003229474418447"><ele>132.0</ele><time>2026-05-03T15:16:38.999Z</time></trkpt><trkpt lat="50.98653083093683" lon="17.003225316989163"><ele>132.0</ele><time>2026-05-03T15:16:39.999Z</time></trkpt><trkpt lat="50.986465405136045" lon="17.003220630768187"><ele>132.0</ele><time>2026-05-03T15:16:40.999Z</time></trkpt><trkpt lat="50.98633909750172" lon="17.003209181260488"><ele>132.0</ele><time>2026-05-03T15:16:42.999Z</time></trkpt><trkpt lat="50.98621320202066" lon="17.003199908757054"><ele>132.0</ele><time>2026-05-03T15:16:44.999Z</time></trkpt><trkpt lat="50.98608671960504" lon="17.003194949420113"><ele>132.0</ele><time>2026-05-03T15:16:46.999Z</time></trkpt><trkpt lat="50.985963295468196" lon="17.003178979738315"><ele>132.0</ele><time>2026-05-03T15:16:48.999Z</time></trkpt><trkpt lat="50.98589974006568" lon="17.003177639862116"><ele>132.0</ele><time>2026-05-03T15:16:49.999Z</time></trkpt><trkpt lat="50.98583521502665" lon="17.00317563168511"><ele>132.0</ele><time>2026-05-03T15:16:50.999Z</time></trkpt><trkpt lat="50.98577188727332" lon="17.003174062795587"><ele>132.0</ele><time>2026-05-03T15:16:51.999Z</time></trkpt><trkpt lat="50.98570750767647" lon="17.0031672701915"><ele>132.0</ele><time>2026-05-03T15:16:52.999Z</time></trkpt><trkpt lat="50.985642088059265" lon="17.00316332028747"><ele>132.0</ele><time>2026-05-03T15:16:53.999Z</time></trkpt><trkpt lat="50.98557655384796" lon="17.003158588791475"><ele>132.0</ele><time>2026-05-03T15:16:54.999Z</time></trkpt><trkpt lat="50.98551157395674" lon="17.00314950092896"><ele>132.0</ele><time>2026-05-03T15:16:55.999Z</time></trkpt><trkpt lat="50.98544383554167" lon="17.00314180369509"><ele>132.0</ele><time>2026-05-03T15:16:56.999Z</time></trkpt><trkpt lat="50.985374934987256" lon="17.00314125142929"><ele>132.0</ele><time>2026-05-03T15:16:57.999Z</time></trkpt><trkpt lat="50.98530696610677" lon="17.003135070681914"><ele>132.0</ele><time>2026-05-03T15:16:58.999Z</time></trkpt><trkpt lat="50.98524040185195" lon="17.00311690775935"><ele>132.0</ele><time>2026-05-03T15:16:59.999Z</time></trkpt><trkpt lat="50.98517026220393" lon="17.00310287713516"><ele>132.0</ele><time>2026-05-03T15:17:00.999Z</time></trkpt><trkpt lat="50.985100423715544" lon="17.003093262962228"><ele>132.0</ele><time>2026-05-03T15:17:01.999Z</time></trkpt><trkpt lat="50.98503366876778" lon="17.003080635807706"><ele>132.0</ele><time>2026-05-03T15:17:02.999Z</time></trkpt><trkpt lat="50.984965167513685" lon="17.003067658534736"><ele>132.0</ele><time>2026-05-03T15:17:03.999Z</time></trkpt><trkpt lat="50.9848978853652" lon="17.003057105019998"><ele>132.0</ele><time>2026-05-03T15:17:04.999Z</time></trkpt><trkpt lat="50.9848272185035" lon="17.0030529707755"><ele>132.0</ele><time>2026-05-03T15:17:05.999Z</time></trkpt><trkpt lat="50.98475543647006" lon="17.0030481023761"><ele>132.0</ele><time>2026-05-03T15:17:06.999Z</time></trkpt><trkpt lat="50.98468354624227" lon="17.00305170962713"><ele>132.0</ele><time>2026-05-03T15:17:07.999Z</time></trkpt><trkpt lat="50.984616321645426" lon="17.00306632750807"><ele>132.14285714285714</ele><time>2026-05-03T15:17:08.999Z</time></trkpt><trkpt lat="50.98454634366616" lon="17.00307861474019"><ele>132.28571428571428</ele><time>2026-05-03T15:17:09.999Z</time></trkpt><trkpt lat="50.984472496096245" lon="17.00309255522351"><ele>132.42857142857144</ele><time>2026-05-03T15:17:10.999Z</time></trkpt><trkpt lat="50.98440000325191" lon="17.0031075223381"><ele>132.57142857142856</ele><time>2026-05-03T15:17:11.999Z</time></trkpt><trkpt lat="50.98432682388828" lon="17.003121387924917"><ele>132.71428571428572</ele><time>2026-05-03T15:17:12.999Z</time></trkpt><trkpt lat="50.984254415049364" lon="17.003137158280886"><ele>132.85714285714286</ele><time>2026-05-03T15:17:13.999Z</time></trkpt><trkpt lat="50.98418195527517" lon="17.003155517639993"><ele>133.0</ele><time>2026-05-03T15:17:14.999Z</time></trkpt><trkpt lat="50.98410846645492" lon="17.003174474035923"><ele>133.5</ele><time>2026-05-03T15:17:15.999Z</time></trkpt><trkpt lat="50.984035366757915" lon="17.00318996047839"><ele>134.0</ele><time>2026-05-03T15:17:16.999Z</time></trkpt><trkpt lat="50.98395662404457" lon="17.003205464435162"><ele>134.5</ele><time>2026-05-03T15:17:17.999Z</time></trkpt><trkpt lat="50.98388313215075" lon="17.00322387965392"><ele>135.0</ele><time>2026-05-03T15:17:18.999Z</time></trkpt><trkpt lat="50.98380471084872" lon="17.00324025429657"><ele>135.5</ele><time>2026-05-03T15:17:19.999Z</time></trkpt><trkpt lat="50.9837279503258" lon="17.003259916240246"><ele>136.0</ele><time>2026-05-03T15:17:20.999Z</time></trkpt><trkpt lat="50.983651894246975" lon="17.00327599568178"><ele>136.0</ele><time>2026-05-03T15:17:22Z</time></trkpt><trkpt lat="50.98357366021933" lon="17.003291498138402"><ele>136.0</ele><time>2026-05-03T15:17:23Z</time></trkpt><trkpt lat="50.983499099997196" lon="17.003308231548708"><ele>136.0</ele><time>2026-05-03T15:17:24Z</time></trkpt><trkpt lat="50.98341681994351" lon="17.00332879251476"><ele>136.0</ele><time>2026-05-03T15:17:25Z</time></trkpt><trkpt lat="50.983338436203" lon="17.003351590220056"><ele>136.0</ele><time>2026-05-03T15:17:26Z</time></trkpt><trkpt lat="50.983255840792026" lon="17.00337466227354"><ele>136.0</ele><time>2026-05-03T15:17:27Z</time></trkpt><trkpt lat="50.983177357060725" lon="17.003390173925915"><ele>135.66666666666669</ele><time>2026-05-03T15:17:28Z</time></trkpt><trkpt lat="50.9830985434226" lon="17.003412665592233"><ele>135.33333333333334</ele><time>2026-05-03T15:17:29Z</time></trkpt><trkpt lat="50.98302119166383" lon="17.003435432909278"><ele>135.0</ele><time>2026-05-03T15:17:30Z</time></trkpt><trkpt lat="50.98294708024774" lon="17.003464889573987"><ele>134.66666666666666</ele><time>2026-05-03T15:17:31Z</time></trkpt><trkpt lat="50.98287252175067" lon="17.00349682518298"><ele>134.33333333333331</ele><time>2026-05-03T15:17:32Z</time></trkpt><trkpt lat="50.98277637379311" lon="17.00353612786007"><ele>134.0</ele><time>2026-05-03T15:17:34Z</time></trkpt><trkpt lat="50.982710342334755" lon="17.003523472555422"><ele>134.0</ele><time>2026-05-03T15:17:40Z</time></trkpt><trkpt lat="50.982731689900184" lon="17.003413177035455"><ele>134.0</ele><time>2026-05-03T15:18:32.999Z</time></trkpt><trkpt lat="50.98266870176317" lon="17.003392340514935"><ele>134.0</ele><time>2026-05-03T15:18:47.999Z</time></trkpt><trkpt lat="50.98259108485551" lon="17.003368447121066"><ele>134.0</ele><time>2026-05-03T15:18:49.999Z</time></trkpt><trkpt lat="50.982851531039294" lon="17.00265222641907"><ele>134.0</ele><time>2026-05-03T15:19:35.068Z</time></trkpt><trkpt lat="50.982597324545566" lon="17.003218894226592"><ele>134.0</ele><time>2026-05-03T15:19:39Z</time></trkpt><trkpt lat="50.98271270852311" lon="17.0034295060433"><ele>134.0</ele><time>2026-05-03T15:19:42Z</time></trkpt><trkpt lat="50.982655892661946" lon="17.003479905772146"><ele>134.0</ele><time>2026-05-03T15:21:57Z</time></trkpt><trkpt lat="50.98262057768779" lon="17.003567840405715"><ele>134.0</ele><time>2026-05-03T15:22:03Z</time></trkpt><trkpt lat="50.982546328290525" lon="17.003618428443414"><ele>134.0</ele><time>2026-05-03T15:22:05Z</time></trkpt><trkpt lat="50.9824605601032" lon="17.00368061434391"><ele>134.0</ele><time>2026-05-03T15:22:07Z</time></trkpt><trkpt lat="50.98234284241686" lon="17.00372688266933"><ele>134.0</ele><time>2026-05-03T15:22:09Z</time></trkpt><trkpt lat="50.98227118059568" lon="17.00373030811403"><ele>133.66666666666666</ele><time>2026-05-03T15:22:10Z</time></trkpt><trkpt lat="50.98220268040891" lon="17.003737243751342"><ele>133.33333333333331</ele><time>2026-05-03T15:22:11Z</time></trkpt><trkpt lat="50.98212685622006" lon="17.00374010625449"><ele>133.0</ele><time>2026-05-03T15:22:12Z</time></trkpt><trkpt lat="50.98205221100562" lon="17.003737567891697"><ele>132.66666666666666</ele><time>2026-05-03T15:22:12.999Z</time></trkpt><trkpt lat="50.981976587556886" lon="17.003726558838274"><ele>132.33333333333334</ele><time>2026-05-03T15:22:13.999Z</time></trkpt><trkpt lat="50.981898615469596" lon="17.003719055117546"><ele>132.0</ele><time>2026-05-03T15:22:14.999Z</time></trkpt><trkpt lat="50.981821363151816" lon="17.00370821064536"><ele>132.0</ele><time>2026-05-03T15:22:15.999Z</time></trkpt><trkpt lat="50.98174207240731" lon="17.00369105955731"><ele>132.0</ele><time>2026-05-03T15:22:16.999Z</time></trkpt><trkpt lat="50.981662542394396" lon="17.00366824384216"><ele>132.0</ele><time>2026-05-03T15:22:17.999Z</time></trkpt><trkpt lat="50.98158621109328" lon="17.00364169213627"><ele>132.0</ele><time>2026-05-03T15:22:18.999Z</time></trkpt><trkpt lat="50.98150879109026" lon="17.003603310809364"><ele>132.0</ele><time>2026-05-03T15:22:19.999Z</time></trkpt><trkpt lat="50.981426103111644" lon="17.003563916833237"><ele>132.0</ele><time>2026-05-03T15:22:20.999Z</time></trkpt><trkpt lat="50.98134996458921" lon="17.00352326330548"><ele>131.83333333333334</ele><time>2026-05-03T15:22:21.999Z</time></trkpt><trkpt lat="50.981270765206425" lon="17.003481906766858"><ele>131.66666666666666</ele><time>2026-05-03T15:22:22.999Z</time></trkpt><trkpt lat="50.98119321581061" lon="17.003439393110348"><ele>131.5</ele><time>2026-05-03T15:22:23.999Z</time></trkpt><trkpt lat="50.981116023626825" lon="17.003394401547816"><ele>131.33333333333331</ele><time>2026-05-03T15:22:24.999Z</time></trkpt><trkpt lat="50.98103949985258" lon="17.003347149778506"><ele>131.16666666666666</ele><time>2026-05-03T15:22:25.999Z</time></trkpt><trkpt lat="50.98096640954808" lon="17.003298405227525"><ele>131.0</ele><time>2026-05-03T15:22:26.999Z</time></trkpt><trkpt lat="50.980896462775725" lon="17.003236846385967"><ele>131.16666666666666</ele><time>2026-05-03T15:22:27.999Z</time></trkpt><trkpt lat="50.980835135663035" lon="17.003158338001267"><ele>131.33333333333331</ele><time>2026-05-03T15:22:28.999Z</time></trkpt><trkpt lat="50.98078838844947" lon="17.00305538980983"><ele>131.5</ele><time>2026-05-03T15:22:29.999Z</time></trkpt><trkpt lat="50.9807554391576" lon="17.0029408874946"><ele>131.66666666666666</ele><time>2026-05-03T15:22:30.999Z</time></trkpt><trkpt lat="50.98073871524413" lon="17.00282343028477"><ele>131.83333333333334</ele><time>2026-05-03T15:22:31.999Z</time></trkpt><trkpt lat="50.980730344206606" lon="17.00270554050971"><ele>132.0</ele><time>2026-05-03T15:22:32.999Z</time></trkpt><trkpt lat="50.98072323787526" lon="17.002593795780047"><ele>132.0</ele><time>2026-05-03T15:22:33.999Z</time></trkpt><trkpt lat="50.9807113100304" lon="17.00248216445166"><ele>132.0</ele><time>2026-05-03T15:22:34.999Z</time></trkpt><trkpt lat="50.98069983338076" lon="17.002375770212723"><ele>132.0</ele><time>2026-05-03T15:22:35.999Z</time></trkpt><trkpt lat="50.980688845958696" lon="17.002270113711862"><ele>132.0</ele><time>2026-05-03T15:22:36.999Z</time></trkpt><trkpt lat="50.98068198416937" lon="17.00215851933012"><ele>132.0</ele><time>2026-05-03T15:22:37.999Z</time></trkpt><trkpt lat="50.980674691197976" lon="17.00205315456362"><ele>132.0</ele><time>2026-05-03T15:22:38.999Z</time></trkpt><trkpt lat="50.980667130907186" lon="17.001949335334675"><ele>132.0</ele><time>2026-05-03T15:22:39.999Z</time></trkpt><trkpt lat="50.9806554859979" lon="17.00184709903588"><ele>132.0</ele><time>2026-05-03T15:22:40.999Z</time></trkpt><trkpt lat="50.980641060214715" lon="17.00174908356453"><ele>132.0</ele><time>2026-05-03T15:22:41.999Z</time></trkpt><trkpt lat="50.98062467579504" lon="17.00164973861219"><ele>132.0</ele><time>2026-05-03T15:22:42.999Z</time></trkpt><trkpt lat="50.9805857796959" lon="17.00145994515042"><ele>132.0</ele><time>2026-05-03T15:22:44.999Z</time></trkpt><trkpt lat="50.980543526463045" lon="17.001276465105622"><ele>132.0</ele><time>2026-05-03T15:22:46.999Z</time></trkpt><trkpt lat="50.98050342941164" lon="17.001097026131998"><ele>131.75</ele><time>2026-05-03T15:22:48.999Z</time></trkpt><trkpt lat="50.980458180203605" lon="17.000919775260883"><ele>131.5</ele><time>2026-05-03T15:22:50.999Z</time></trkpt><trkpt lat="50.980414758972174" lon="17.000740514092623"><ele>131.25</ele><time>2026-05-03T15:22:52.999Z</time></trkpt><trkpt lat="50.9803768106744" lon="17.00055742528858"><ele>131.0</ele><time>2026-05-03T15:22:54.999Z</time></trkpt><trkpt lat="50.98033136853163" lon="17.000374134559326"><ele>130.75</ele><time>2026-05-03T15:22:56.999Z</time></trkpt><trkpt lat="50.98028853257524" lon="17.000190524731888"><ele>130.5</ele><time>2026-05-03T15:22:58.999Z</time></trkpt><trkpt lat="50.98024226477216" lon="17.000010370951333"><ele>130.25</ele><time>2026-05-03T15:23:00.999Z</time></trkpt><trkpt lat="50.980200721498825" lon="16.99982386198667"><ele>130.0</ele><time>2026-05-03T15:23:02.999Z</time></trkpt><trkpt lat="50.98015560880219" lon="16.99963621141109"><ele>130.0</ele><time>2026-05-03T15:23:04.999Z</time></trkpt><trkpt lat="50.98011212510415" lon="16.999449625384486"><ele>130.0</ele><time>2026-05-03T15:23:06.999Z</time></trkpt><trkpt lat="50.98006894210084" lon="16.999262233586425"><ele>130.0</ele><time>2026-05-03T15:23:08.999Z</time></trkpt><trkpt lat="50.980024254565826" lon="16.99907384338863"><ele>130.0</ele><time>2026-05-03T15:23:10.999Z</time></trkpt><trkpt lat="50.979980066160216" lon="16.998887707343183"><ele>130.00000000000003</ele><time>2026-05-03T15:23:12.999Z</time></trkpt><trkpt lat="50.97995841064907" lon="16.998792459266657"><ele>130.0</ele><time>2026-05-03T15:23:13.999Z</time></trkpt><trkpt lat="50.979934212103075" lon="16.998699229175628"><ele>130.0</ele><time>2026-05-03T15:23:14.999Z</time></trkpt><trkpt lat="50.97991364858042" lon="16.99860052893378"><ele>130.0</ele><time>2026-05-03T15:23:15.999Z</time></trkpt><trkpt lat="50.97986983167953" lon="16.998412810127018"><ele>130.0</ele><time>2026-05-03T15:23:17.999Z</time></trkpt><trkpt lat="50.979848400426505" lon="16.998318525949482"><ele>130.00000000000003</ele><time>2026-05-03T15:23:18.999Z</time></trkpt><trkpt lat="50.97982510593239" lon="16.998224524384867"><ele>130.0</ele><time>2026-05-03T15:23:19.999Z</time></trkpt><trkpt lat="50.97978242498309" lon="16.99804166662258"><ele>130.4</ele><time>2026-05-03T15:23:21.999Z</time></trkpt><trkpt lat="50.97973608954152" lon="16.997868533517988"><ele>130.8</ele><time>2026-05-03T15:23:23.999Z</time></trkpt><trkpt lat="50.979692489646986" lon="16.99770695850515"><ele>131.2</ele><time>2026-05-03T15:23:25.999Z</time></trkpt><trkpt lat="50.97965395842913" lon="16.997551829050593"><ele>131.6</ele><time>2026-05-03T15:23:27.999Z</time></trkpt><trkpt lat="50.97965081799485" lon="16.99739563401979"><ele>132.0</ele><time>2026-05-03T15:23:29.999Z</time></trkpt><trkpt lat="50.97973702692822" lon="16.99737120108146"><ele>132.0</ele><time>2026-05-03T15:23:31.999Z</time></trkpt><trkpt lat="50.97984443063954" lon="16.997374934336936"><ele>132.0</ele><time>2026-05-03T15:23:33.999Z</time></trkpt><trkpt lat="50.97995721894991" lon="16.99737669742383"><ele>132.0</ele><time>2026-05-03T15:23:35.999Z</time></trkpt><trkpt lat="50.98006773478051" lon="16.997375664804334"><ele>132.0</ele><time>2026-05-03T15:23:37.999Z</time></trkpt><trkpt lat="50.98013215128221" lon="16.99737506292105"><ele>132.0</ele><time>2026-05-03T15:23:38.999Z</time></trkpt><trkpt lat="50.980259812259796" lon="16.997373870107136"><ele>132.0</ele><time>2026-05-03T15:23:41Z</time></trkpt><trkpt lat="50.980328909557635" lon="16.99737322448964"><ele>132.0</ele><time>2026-05-03T15:23:42Z</time></trkpt><trkpt lat="50.98039768586744" lon="16.997372842902394"><ele>132.0</ele><time>2026-05-03T15:23:43Z</time></trkpt><trkpt lat="50.98046718721864" lon="16.997372842902728"><ele>132.0</ele><time>2026-05-03T15:23:44Z</time></trkpt><trkpt lat="50.98053831253594" lon="16.997372842903168"><ele>132.0</ele><time>2026-05-03T15:23:45Z</time></trkpt><trkpt lat="50.980612464443965" lon="16.99737284290497"><ele>132.0</ele><time>2026-05-03T15:23:46Z</time></trkpt><trkpt lat="50.98068368661298" lon="16.997372594668494"><ele>132.0</ele><time>2026-05-03T15:23:47Z</time></trkpt><trkpt lat="50.98075549824038" lon="16.99737196788419"><ele>132.0</ele><time>2026-05-03T15:23:48Z</time></trkpt><trkpt lat="50.980824720728506" lon="16.997371548610136"><ele>132.0</ele><time>2026-05-03T15:23:49Z</time></trkpt><trkpt lat="50.98089728954702" lon="16.997372384107667"><ele>132.0</ele><time>2026-05-03T15:23:50Z</time></trkpt><trkpt lat="50.98097207828547" lon="16.99737389344965"><ele>132.0</ele><time>2026-05-03T15:23:51Z</time></trkpt><trkpt lat="50.98104320989806" lon="16.997376026335264"><ele>132.0</ele><time>2026-05-03T15:23:52Z</time></trkpt><trkpt lat="50.98111483780826" lon="16.997378174099058"><ele>132.0</ele><time>2026-05-03T15:23:53Z</time></trkpt><trkpt lat="50.98118332994254" lon="16.9973802278367"><ele>132.0</ele><time>2026-05-03T15:23:54Z</time></trkpt><trkpt lat="50.98125357042318" lon="16.997354738700643"><ele>131.85714285714286</ele><time>2026-05-03T15:23:55Z</time></trkpt><trkpt lat="50.98132086455205" lon="16.997367150557807"><ele>131.71428571428572</ele><time>2026-05-03T15:23:56Z</time></trkpt><trkpt lat="50.98139082537777" lon="16.99736058067191"><ele>131.57142857142858</ele><time>2026-05-03T15:23:57Z</time></trkpt><trkpt lat="50.981459374380435" lon="16.997351289015114"><ele>131.42857142857144</ele><time>2026-05-03T15:23:58Z</time></trkpt><trkpt lat="50.98152762286056" lon="16.99737414054509"><ele>131.2857142857143</ele><time>2026-05-03T15:23:59Z</time></trkpt><trkpt lat="50.98159274035826" lon="16.99737275724476"><ele>131.14285714285714</ele><time>2026-05-03T15:24:00Z</time></trkpt><trkpt lat="50.98166768945124" lon="16.997359852681708"><ele>131.0</ele><time>2026-05-03T15:24:02Z</time></trkpt><trkpt lat="50.98170837380093" lon="16.997564013029002"><ele>131.0</ele><time>2026-05-03T15:24:06Z</time></trkpt><trkpt lat="50.98171526558007" lon="16.99768216080177"><ele>131.0</ele><time>2026-05-03T15:24:08Z</time></trkpt><trkpt lat="50.98169675005179" lon="16.99780659197961"><ele>131.0</ele><time>2026-05-03T15:24:10Z</time></trkpt><trkpt lat="50.98165592289722" lon="16.997903195302076"><ele>131.0</ele><time>2026-05-03T15:24:12Z</time></trkpt><trkpt lat="50.98158117227133" lon="16.997922045911043"><ele>131.0</ele><time>2026-05-03T15:24:14Z</time></trkpt><trkpt lat="50.98151361375766" lon="16.997883300509848"><ele>131.0</ele><time>2026-05-03T15:24:17Z</time></trkpt><trkpt lat="50.9815102133357" lon="16.99777399794354"><ele>131.0</ele><time>2026-05-03T15:24:19.999Z</time></trkpt><trkpt lat="50.98156798623339" lon="16.997733585640404"><ele>132.0</ele><time>2026-05-03T15:24:51.999Z</time></trkpt></trkseg></trk></gpx>